<?xml version="1.0" encoding="UTF-8" standalone="no" ?>
<gpx xmlns="http://www.topografix.com/GPX/1/1" xmlns:xsi="http://www.w3.org/2001/XMLSchema-instance" xsi:schemaLocation="http://www.topografix.com/GPX/1/1 http://www.topografix.com/GPX/1/1/gpx.xsd" version="1.1" creator="VisuGPX - https://www.visugpx.com">
  <metadata>
    <name>Bis repetita</name>
    <desc><![CDATA[Bis repetita]]></desc>
  </metadata>
  <wpt lat="47.4918" lon="6.75978">
    <ele>320</ele>
    <name><![CDATA[Point de cheminement 1]]></name>
    <desc><![CDATA[]]></desc>
  </wpt>
  <wpt lat="47.47348" lon="6.74227">
    <ele>310</ele>
    <name><![CDATA[Point de cheminement 2]]></name>
    <desc><![CDATA[]]></desc>
  </wpt>
  <wpt lat="47.461" lon="6.73641">
    <ele>430</ele>
    <name><![CDATA[Point de cheminement 3]]></name>
    <desc><![CDATA[]]></desc>
  </wpt>
  <wpt lat="47.43144" lon="6.71938">
    <ele>479</ele>
    <name><![CDATA[Point de cheminement 4]]></name>
    <desc><![CDATA[]]></desc>
  </wpt>
  <wpt lat="47.40876" lon="6.71679">
    <ele>418</ele>
    <name><![CDATA[Point de cheminement 5]]></name>
    <desc><![CDATA[]]></desc>
  </wpt>
  <wpt lat="47.40118" lon="6.71922">
    <ele>493</ele>
    <name><![CDATA[Point de cheminement 6]]></name>
    <desc><![CDATA[]]></desc>
  </wpt>
  <wpt lat="47.40815" lon="6.70453">
    <ele>438</ele>
    <name><![CDATA[Point de cheminement 7]]></name>
    <desc><![CDATA[]]></desc>
  </wpt>
  <wpt lat="47.42802" lon="6.70323">
    <ele>431</ele>
    <name><![CDATA[Point de cheminement 8]]></name>
    <desc><![CDATA[]]></desc>
  </wpt>
  <wpt lat="47.45501" lon="6.73253">
    <ele>461</ele>
    <name><![CDATA[Point de cheminement 9]]></name>
    <desc><![CDATA[]]></desc>
  </wpt>
  <wpt lat="47.47592" lon="6.76308">
    <ele>311</ele>
    <name><![CDATA[Point de cheminement 10]]></name>
    <desc><![CDATA[]]></desc>
  </wpt>
  <wpt lat="47.49733" lon="6.77327">
    <ele>314</ele>
    <name><![CDATA[Point de cheminement 11]]></name>
    <desc><![CDATA[]]></desc>
  </wpt>
  <wpt lat="47.51393" lon="6.77757">
    <ele>353</ele>
    <name><![CDATA[Point de cheminement 12]]></name>
    <desc><![CDATA[]]></desc>
  </wpt>
  <trk>
    <name><![CDATA[Rue Antoine Coysevox]]></name>
    <desc><![CDATA[]]></desc>
    <trkseg>
      <trkpt lat="47.51804" lon="6.77479">
        <ele>388</ele>
        <time>2015-05-17T07:15:08.000Z</time>
      </trkpt>
      <trkpt lat="47.51804" lon="6.77479">
        <ele>388</ele>
        <time>2015-05-17T07:17:30.000Z</time>
      </trkpt>
      <trkpt lat="47.51802" lon="6.77469">
        <ele>388</ele>
        <time>2015-05-17T07:17:31.000Z</time>
      </trkpt>
      <trkpt lat="47.51803" lon="6.77467">
        <ele>388</ele>
        <time>2015-05-17T07:17:34.000Z</time>
      </trkpt>
      <trkpt lat="47.51805" lon="6.77464">
        <ele>388</ele>
        <time>2015-05-17T07:17:35.000Z</time>
      </trkpt>
      <trkpt lat="47.51808" lon="6.77466">
        <ele>388</ele>
        <time>2015-05-17T07:17:37.000Z</time>
      </trkpt>
      <trkpt lat="47.51811" lon="6.77468">
        <ele>388</ele>
        <time>2015-05-17T07:17:38.000Z</time>
      </trkpt>
      <trkpt lat="47.51812" lon="6.77475">
        <ele>388</ele>
        <time>2015-05-17T07:17:39.000Z</time>
      </trkpt>
      <trkpt lat="47.51812" lon="6.7748">
        <ele>388</ele>
        <time>2015-05-17T07:17:40.000Z</time>
      </trkpt>
      <trkpt lat="47.51808" lon="6.77481">
        <ele>388</ele>
        <time>2015-05-17T07:17:41.000Z</time>
      </trkpt>
      <trkpt lat="47.51807" lon="6.77484">
        <ele>388</ele>
        <time>2015-05-17T07:17:42.000Z</time>
      </trkpt>
      <trkpt lat="47.51804" lon="6.77485">
        <ele>388</ele>
        <time>2015-05-17T07:17:43.000Z</time>
      </trkpt>
      <trkpt lat="47.518" lon="6.77485">
        <ele>388</ele>
        <time>2015-05-17T07:17:45.000Z</time>
      </trkpt>
      <trkpt lat="47.51797" lon="6.77485">
        <ele>388</ele>
        <time>2015-05-17T07:17:46.000Z</time>
      </trkpt>
      <trkpt lat="47.51795" lon="6.77484">
        <ele>388</ele>
        <time>2015-05-17T07:17:47.000Z</time>
      </trkpt>
      <trkpt lat="47.51792" lon="6.77483">
        <ele>388</ele>
        <time>2015-05-17T07:17:48.000Z</time>
      </trkpt>
      <trkpt lat="47.51789" lon="6.77482">
        <ele>388</ele>
        <time>2015-05-17T07:17:49.000Z</time>
      </trkpt>
      <trkpt lat="47.51786" lon="6.77481">
        <ele>388</ele>
        <time>2015-05-17T07:17:50.000Z</time>
      </trkpt>
      <trkpt lat="47.51783" lon="6.7748">
        <ele>388</ele>
        <time>2015-05-17T07:17:51.000Z</time>
      </trkpt>
      <trkpt lat="47.5178" lon="6.77479">
        <ele>388</ele>
        <time>2015-05-17T07:17:52.000Z</time>
      </trkpt>
      <trkpt lat="47.51777" lon="6.77478">
        <ele>388</ele>
        <time>2015-05-17T07:17:53.000Z</time>
      </trkpt>
      <trkpt lat="47.51773" lon="6.77476">
        <ele>388</ele>
        <time>2015-05-17T07:17:54.000Z</time>
      </trkpt>
      <trkpt lat="47.5177" lon="6.77476">
        <ele>388</ele>
        <time>2015-05-17T07:17:55.000Z</time>
      </trkpt>
      <trkpt lat="47.51766" lon="6.77475">
        <ele>388</ele>
        <time>2015-05-17T07:17:56.000Z</time>
      </trkpt>
      <trkpt lat="47.51762" lon="6.77475">
        <ele>388</ele>
        <time>2015-05-17T07:17:57.000Z</time>
      </trkpt>
      <trkpt lat="47.51759" lon="6.77475">
        <ele>389</ele>
        <time>2015-05-17T07:17:58.000Z</time>
      </trkpt>
      <trkpt lat="47.51755" lon="6.77475">
        <ele>389</ele>
        <time>2015-05-17T07:17:59.000Z</time>
      </trkpt>
      <trkpt lat="47.51752" lon="6.77474">
        <ele>389</ele>
        <time>2015-05-17T07:18:00.000Z</time>
      </trkpt>
      <trkpt lat="47.51748" lon="6.77473">
        <ele>389</ele>
        <time>2015-05-17T07:18:01.000Z</time>
      </trkpt>
      <trkpt lat="47.51744" lon="6.77472">
        <ele>389</ele>
        <time>2015-05-17T07:18:02.000Z</time>
      </trkpt>
      <trkpt lat="47.51741" lon="6.77471">
        <ele>389</ele>
        <time>2015-05-17T07:18:03.000Z</time>
      </trkpt>
      <trkpt lat="47.51738" lon="6.7747">
        <ele>389</ele>
        <time>2015-05-17T07:18:04.000Z</time>
      </trkpt>
      <trkpt lat="47.51735" lon="6.7747">
        <ele>389</ele>
        <time>2015-05-17T07:18:05.000Z</time>
      </trkpt>
      <trkpt lat="47.51732" lon="6.77472">
        <ele>389</ele>
        <time>2015-05-17T07:18:06.000Z</time>
      </trkpt>
      <trkpt lat="47.5173" lon="6.77477">
        <ele>389</ele>
        <time>2015-05-17T07:18:07.000Z</time>
      </trkpt>
      <trkpt lat="47.51728" lon="6.77482">
        <ele>389</ele>
        <time>2015-05-17T07:18:08.000Z</time>
      </trkpt>
      <trkpt lat="47.51727" lon="6.77489">
        <ele>389</ele>
        <time>2015-05-17T07:18:09.000Z</time>
      </trkpt>
      <trkpt lat="47.51726" lon="6.77502">
        <ele>390</ele>
        <time>2015-05-17T07:18:10.000Z</time>
      </trkpt>
      <trkpt lat="47.51724" lon="6.77508">
        <ele>390</ele>
        <time>2015-05-17T07:18:11.000Z</time>
      </trkpt>
      <trkpt lat="47.51722" lon="6.77514">
        <ele>390</ele>
        <time>2015-05-17T07:18:12.000Z</time>
      </trkpt>
      <trkpt lat="47.51722" lon="6.7752">
        <ele>390</ele>
        <time>2015-05-17T07:18:13.000Z</time>
      </trkpt>
      <trkpt lat="47.5172" lon="6.77525">
        <ele>390</ele>
        <time>2015-05-17T07:18:14.000Z</time>
      </trkpt>
      <trkpt lat="47.51719" lon="6.77532">
        <ele>390</ele>
        <time>2015-05-17T07:18:15.000Z</time>
      </trkpt>
      <trkpt lat="47.51718" lon="6.77538">
        <ele>390</ele>
        <time>2015-05-17T07:18:16.000Z</time>
      </trkpt>
      <trkpt lat="47.51715" lon="6.77541">
        <ele>390</ele>
        <time>2015-05-17T07:18:17.000Z</time>
      </trkpt>
      <trkpt lat="47.51712" lon="6.77546">
        <ele>390</ele>
        <time>2015-05-17T07:18:18.000Z</time>
      </trkpt>
      <trkpt lat="47.51708" lon="6.77548">
        <ele>390</ele>
        <time>2015-05-17T07:18:19.000Z</time>
      </trkpt>
      <trkpt lat="47.51705" lon="6.77546">
        <ele>390</ele>
        <time>2015-05-17T07:18:20.000Z</time>
      </trkpt>
      <trkpt lat="47.51701" lon="6.77537">
        <ele>390</ele>
        <time>2015-05-17T07:18:21.000Z</time>
      </trkpt>
      <trkpt lat="47.51698" lon="6.77532">
        <ele>390</ele>
        <time>2015-05-17T07:18:22.000Z</time>
      </trkpt>
      <trkpt lat="47.51694" lon="6.77528">
        <ele>390</ele>
        <time>2015-05-17T07:18:23.000Z</time>
      </trkpt>
      <trkpt lat="47.5169" lon="6.77525">
        <ele>390</ele>
        <time>2015-05-17T07:18:24.000Z</time>
      </trkpt>
      <trkpt lat="47.51686" lon="6.77521">
        <ele>390</ele>
        <time>2015-05-17T07:18:25.000Z</time>
      </trkpt>
      <trkpt lat="47.51682" lon="6.77516">
        <ele>390</ele>
        <time>2015-05-17T07:18:26.000Z</time>
      </trkpt>
      <trkpt lat="47.51678" lon="6.77511">
        <ele>389</ele>
        <time>2015-05-17T07:18:27.000Z</time>
      </trkpt>
      <trkpt lat="47.51674" lon="6.77506">
        <ele>389</ele>
        <time>2015-05-17T07:18:28.000Z</time>
      </trkpt>
      <trkpt lat="47.5167" lon="6.77501">
        <ele>389</ele>
        <time>2015-05-17T07:18:29.000Z</time>
      </trkpt>
      <trkpt lat="47.51665" lon="6.77497">
        <ele>389</ele>
        <time>2015-05-17T07:18:30.000Z</time>
      </trkpt>
      <trkpt lat="47.5166" lon="6.77492">
        <ele>388</ele>
        <time>2015-05-17T07:18:31.000Z</time>
      </trkpt>
      <trkpt lat="47.51656" lon="6.77488">
        <ele>387</ele>
        <time>2015-05-17T07:18:32.000Z</time>
      </trkpt>
      <trkpt lat="47.51651" lon="6.77482">
        <ele>387</ele>
        <time>2015-05-17T07:18:33.000Z</time>
      </trkpt>
      <trkpt lat="47.51647" lon="6.77476">
        <ele>387</ele>
        <time>2015-05-17T07:18:34.000Z</time>
      </trkpt>
      <trkpt lat="47.51642" lon="6.7747">
        <ele>386</ele>
        <time>2015-05-17T07:18:35.000Z</time>
      </trkpt>
      <trkpt lat="47.51638" lon="6.77462">
        <ele>386</ele>
        <time>2015-05-17T07:18:36.000Z</time>
      </trkpt>
      <trkpt lat="47.51632" lon="6.77456">
        <ele>386</ele>
        <time>2015-05-17T07:18:37.000Z</time>
      </trkpt>
      <trkpt lat="47.51626" lon="6.7745">
        <ele>386</ele>
        <time>2015-05-17T07:18:38.000Z</time>
      </trkpt>
      <trkpt lat="47.5162" lon="6.77444">
        <ele>385</ele>
        <time>2015-05-17T07:18:39.000Z</time>
      </trkpt>
      <trkpt lat="47.51614" lon="6.77437">
        <ele>385</ele>
        <time>2015-05-17T07:18:40.000Z</time>
      </trkpt>
      <trkpt lat="47.51608" lon="6.7743">
        <ele>385</ele>
        <time>2015-05-17T07:18:41.000Z</time>
      </trkpt>
      <trkpt lat="47.51602" lon="6.77424">
        <ele>384</ele>
        <time>2015-05-17T07:18:42.000Z</time>
      </trkpt>
      <trkpt lat="47.51596" lon="6.77416">
        <ele>383</ele>
        <time>2015-05-17T07:18:43.000Z</time>
      </trkpt>
      <trkpt lat="47.5159" lon="6.77409">
        <ele>383</ele>
        <time>2015-05-17T07:18:44.000Z</time>
      </trkpt>
      <trkpt lat="47.51584" lon="6.77402">
        <ele>383</ele>
        <time>2015-05-17T07:18:45.000Z</time>
      </trkpt>
      <trkpt lat="47.51578" lon="6.77394">
        <ele>382</ele>
        <time>2015-05-17T07:18:46.000Z</time>
      </trkpt>
      <trkpt lat="47.51572" lon="6.77387">
        <ele>381</ele>
        <time>2015-05-17T07:18:47.000Z</time>
      </trkpt>
      <trkpt lat="47.51566" lon="6.77379">
        <ele>381</ele>
        <time>2015-05-17T07:18:48.000Z</time>
      </trkpt>
      <trkpt lat="47.5156" lon="6.77371">
        <ele>381</ele>
        <time>2015-05-17T07:18:49.000Z</time>
      </trkpt>
      <trkpt lat="47.51554" lon="6.77363">
        <ele>381</ele>
        <time>2015-05-17T07:18:50.000Z</time>
      </trkpt>
      <trkpt lat="47.51547" lon="6.77356">
        <ele>380</ele>
        <time>2015-05-17T07:18:51.000Z</time>
      </trkpt>
      <trkpt lat="47.51541" lon="6.77348">
        <ele>380</ele>
        <time>2015-05-17T07:18:52.000Z</time>
      </trkpt>
      <trkpt lat="47.51534" lon="6.7734">
        <ele>380</ele>
        <time>2015-05-17T07:18:53.000Z</time>
      </trkpt>
      <trkpt lat="47.51526" lon="6.77332">
        <ele>379</ele>
        <time>2015-05-17T07:18:54.000Z</time>
      </trkpt>
      <trkpt lat="47.51519" lon="6.77323">
        <ele>378</ele>
        <time>2015-05-17T07:18:55.000Z</time>
      </trkpt>
      <trkpt lat="47.51512" lon="6.77314">
        <ele>378</ele>
        <time>2015-05-17T07:18:56.000Z</time>
      </trkpt>
      <trkpt lat="47.51505" lon="6.77304">
        <ele>378</ele>
        <time>2015-05-17T07:18:57.000Z</time>
      </trkpt>
      <trkpt lat="47.515" lon="6.77292">
        <ele>377</ele>
        <time>2015-05-17T07:18:58.000Z</time>
      </trkpt>
      <trkpt lat="47.51499" lon="6.77278">
        <ele>377</ele>
        <time>2015-05-17T07:18:59.000Z</time>
      </trkpt>
      <trkpt lat="47.51496" lon="6.77265">
        <ele>376</ele>
        <time>2015-05-17T07:19:00.000Z</time>
      </trkpt>
      <trkpt lat="47.51493" lon="6.77253">
        <ele>376</ele>
        <time>2015-05-17T07:19:01.000Z</time>
      </trkpt>
      <trkpt lat="47.51493" lon="6.77241">
        <ele>376</ele>
        <time>2015-05-17T07:19:02.000Z</time>
      </trkpt>
      <trkpt lat="47.51492" lon="6.77229">
        <ele>375</ele>
        <time>2015-05-17T07:19:03.000Z</time>
      </trkpt>
      <trkpt lat="47.51491" lon="6.77219">
        <ele>375</ele>
        <time>2015-05-17T07:19:04.000Z</time>
      </trkpt>
      <trkpt lat="47.51489" lon="6.77209">
        <ele>375</ele>
        <time>2015-05-17T07:19:05.000Z</time>
      </trkpt>
      <trkpt lat="47.51486" lon="6.77201">
        <ele>375</ele>
        <time>2015-05-17T07:19:06.000Z</time>
      </trkpt>
      <trkpt lat="47.5148" lon="6.77196">
        <ele>375</ele>
        <time>2015-05-17T07:19:07.000Z</time>
      </trkpt>
      <trkpt lat="47.51475" lon="6.77191">
        <ele>375</ele>
        <time>2015-05-17T07:19:08.000Z</time>
      </trkpt>
      <trkpt lat="47.51471" lon="6.77189">
        <ele>375</ele>
        <time>2015-05-17T07:19:09.001Z</time>
      </trkpt>
      <trkpt lat="47.51463" lon="6.7719">
        <ele>375</ele>
        <time>2015-05-17T07:19:10.000Z</time>
      </trkpt>
      <trkpt lat="47.51454" lon="6.77199">
        <ele>375</ele>
        <time>2015-05-17T07:19:11.000Z</time>
      </trkpt>
      <trkpt lat="47.51445" lon="6.77206">
        <ele>375</ele>
        <time>2015-05-17T07:19:12.000Z</time>
      </trkpt>
      <trkpt lat="47.51437" lon="6.7721">
        <ele>375</ele>
        <time>2015-05-17T07:19:13.000Z</time>
      </trkpt>
      <trkpt lat="47.5143" lon="6.77213">
        <ele>375</ele>
        <time>2015-05-17T07:19:14.000Z</time>
      </trkpt>
      <trkpt lat="47.51423" lon="6.77216">
        <ele>375</ele>
        <time>2015-05-17T07:19:15.000Z</time>
      </trkpt>
      <trkpt lat="47.51417" lon="6.77219">
        <ele>375</ele>
        <time>2015-05-17T07:19:16.000Z</time>
      </trkpt>
      <trkpt lat="47.51413" lon="6.77222">
        <ele>376</ele>
        <time>2015-05-17T07:19:17.000Z</time>
      </trkpt>
      <trkpt lat="47.51407" lon="6.77225">
        <ele>376</ele>
        <time>2015-05-17T07:19:18.000Z</time>
      </trkpt>
      <trkpt lat="47.51402" lon="6.77227">
        <ele>376</ele>
        <time>2015-05-17T07:19:19.000Z</time>
      </trkpt>
      <trkpt lat="47.51397" lon="6.7723">
        <ele>376</ele>
        <time>2015-05-17T07:19:20.000Z</time>
      </trkpt>
      <trkpt lat="47.51392" lon="6.77233">
        <ele>376</ele>
        <time>2015-05-17T07:19:21.000Z</time>
      </trkpt>
      <trkpt lat="47.51387" lon="6.77236">
        <ele>376</ele>
        <time>2015-05-17T07:19:22.000Z</time>
      </trkpt>
      <trkpt lat="47.51383" lon="6.77238">
        <ele>376</ele>
        <time>2015-05-17T07:19:23.000Z</time>
      </trkpt>
      <trkpt lat="47.51379" lon="6.77242">
        <ele>376</ele>
        <time>2015-05-17T07:19:24.000Z</time>
      </trkpt>
      <trkpt lat="47.51375" lon="6.77244">
        <ele>376</ele>
        <time>2015-05-17T07:19:25.000Z</time>
      </trkpt>
      <trkpt lat="47.5137" lon="6.77248">
        <ele>376</ele>
        <time>2015-05-17T07:19:26.000Z</time>
      </trkpt>
      <trkpt lat="47.51367" lon="6.7725">
        <ele>377</ele>
        <time>2015-05-17T07:19:27.000Z</time>
      </trkpt>
      <trkpt lat="47.51364" lon="6.77252">
        <ele>378</ele>
        <time>2015-05-17T07:19:28.000Z</time>
      </trkpt>
      <trkpt lat="47.51362" lon="6.77254">
        <ele>378</ele>
        <time>2015-05-17T07:19:29.000Z</time>
      </trkpt>
      <trkpt lat="47.51358" lon="6.77258">
        <ele>378</ele>
        <time>2015-05-17T07:19:30.000Z</time>
      </trkpt>
      <trkpt lat="47.51356" lon="6.7726">
        <ele>378</ele>
        <time>2015-05-17T07:19:31.000Z</time>
      </trkpt>
      <trkpt lat="47.51353" lon="6.77262">
        <ele>378</ele>
        <time>2015-05-17T07:19:32.000Z</time>
      </trkpt>
      <trkpt lat="47.51351" lon="6.77265">
        <ele>378</ele>
        <time>2015-05-17T07:19:33.000Z</time>
      </trkpt>
      <trkpt lat="47.51348" lon="6.77267">
        <ele>378</ele>
        <time>2015-05-17T07:19:34.000Z</time>
      </trkpt>
      <trkpt lat="47.51346" lon="6.77269">
        <ele>378</ele>
        <time>2015-05-17T07:19:35.000Z</time>
      </trkpt>
      <trkpt lat="47.51344" lon="6.77271">
        <ele>378</ele>
        <time>2015-05-17T07:19:36.000Z</time>
      </trkpt>
      <trkpt lat="47.51341" lon="6.77272">
        <ele>378</ele>
        <time>2015-05-17T07:19:37.000Z</time>
      </trkpt>
      <trkpt lat="47.51338" lon="6.77273">
        <ele>378</ele>
        <time>2015-05-17T07:19:38.000Z</time>
      </trkpt>
      <trkpt lat="47.51335" lon="6.77274">
        <ele>378</ele>
        <time>2015-05-17T07:19:39.000Z</time>
      </trkpt>
      <trkpt lat="47.51332" lon="6.77275">
        <ele>377</ele>
        <time>2015-05-17T07:19:40.000Z</time>
      </trkpt>
      <trkpt lat="47.51329" lon="6.77274">
        <ele>377</ele>
        <time>2015-05-17T07:19:41.000Z</time>
      </trkpt>
      <trkpt lat="47.51326" lon="6.77274">
        <ele>377</ele>
        <time>2015-05-17T07:19:42.000Z</time>
      </trkpt>
      <trkpt lat="47.51323" lon="6.77273">
        <ele>377</ele>
        <time>2015-05-17T07:19:43.000Z</time>
      </trkpt>
      <trkpt lat="47.51319" lon="6.77273">
        <ele>377</ele>
        <time>2015-05-17T07:19:44.000Z</time>
      </trkpt>
      <trkpt lat="47.51316" lon="6.77272">
        <ele>377</ele>
        <time>2015-05-17T07:19:45.000Z</time>
      </trkpt>
      <trkpt lat="47.51312" lon="6.77271">
        <ele>377</ele>
        <time>2015-05-17T07:19:46.000Z</time>
      </trkpt>
      <trkpt lat="47.51308" lon="6.7727">
        <ele>377</ele>
        <time>2015-05-17T07:19:47.000Z</time>
      </trkpt>
      <trkpt lat="47.51305" lon="6.77268">
        <ele>377</ele>
        <time>2015-05-17T07:19:48.000Z</time>
      </trkpt>
      <trkpt lat="47.51302" lon="6.77267">
        <ele>377</ele>
        <time>2015-05-17T07:19:49.000Z</time>
      </trkpt>
      <trkpt lat="47.51299" lon="6.77266">
        <ele>377</ele>
        <time>2015-05-17T07:19:50.000Z</time>
      </trkpt>
      <trkpt lat="47.51297" lon="6.77264">
        <ele>377</ele>
        <time>2015-05-17T07:19:51.000Z</time>
      </trkpt>
      <trkpt lat="47.51294" lon="6.77263">
        <ele>377</ele>
        <time>2015-05-17T07:19:52.000Z</time>
      </trkpt>
      <trkpt lat="47.51292" lon="6.77261">
        <ele>377</ele>
        <time>2015-05-17T07:19:53.000Z</time>
      </trkpt>
      <trkpt lat="47.51289" lon="6.7726">
        <ele>377</ele>
        <time>2015-05-17T07:19:54.000Z</time>
      </trkpt>
      <trkpt lat="47.51285" lon="6.77258">
        <ele>377</ele>
        <time>2015-05-17T07:19:55.000Z</time>
      </trkpt>
      <trkpt lat="47.51282" lon="6.77257">
        <ele>377</ele>
        <time>2015-05-17T07:19:56.000Z</time>
      </trkpt>
      <trkpt lat="47.51278" lon="6.77255">
        <ele>377</ele>
        <time>2015-05-17T07:19:57.000Z</time>
      </trkpt>
      <trkpt lat="47.51275" lon="6.77253">
        <ele>377</ele>
        <time>2015-05-17T07:19:58.000Z</time>
      </trkpt>
      <trkpt lat="47.51269" lon="6.77247">
        <ele>378</ele>
        <time>2015-05-17T07:19:59.000Z</time>
      </trkpt>
      <trkpt lat="47.51265" lon="6.77243">
        <ele>378</ele>
        <time>2015-05-17T07:20:00.000Z</time>
      </trkpt>
      <trkpt lat="47.51262" lon="6.77239">
        <ele>378</ele>
        <time>2015-05-17T07:20:01.000Z</time>
      </trkpt>
      <trkpt lat="47.51259" lon="6.77234">
        <ele>378</ele>
        <time>2015-05-17T07:20:02.000Z</time>
      </trkpt>
      <trkpt lat="47.51255" lon="6.7723">
        <ele>378</ele>
        <time>2015-05-17T07:20:03.000Z</time>
      </trkpt>
      <trkpt lat="47.51252" lon="6.77225">
        <ele>378</ele>
        <time>2015-05-17T07:20:04.000Z</time>
      </trkpt>
      <trkpt lat="47.51249" lon="6.77219">
        <ele>376</ele>
        <time>2015-05-17T07:20:05.000Z</time>
      </trkpt>
      <trkpt lat="47.51245" lon="6.77211">
        <ele>376</ele>
        <time>2015-05-17T07:20:06.000Z</time>
      </trkpt>
      <trkpt lat="47.51242" lon="6.77205">
        <ele>376</ele>
        <time>2015-05-17T07:20:07.000Z</time>
      </trkpt>
      <trkpt lat="47.51239" lon="6.77198">
        <ele>376</ele>
        <time>2015-05-17T07:20:08.000Z</time>
      </trkpt>
      <trkpt lat="47.51236" lon="6.7719">
        <ele>377</ele>
        <time>2015-05-17T07:20:09.000Z</time>
      </trkpt>
      <trkpt lat="47.51233" lon="6.77184">
        <ele>377</ele>
        <time>2015-05-17T07:20:10.000Z</time>
      </trkpt>
      <trkpt lat="47.5123" lon="6.77178">
        <ele>377</ele>
        <time>2015-05-17T07:20:11.001Z</time>
      </trkpt>
      <trkpt lat="47.51227" lon="6.77171">
        <ele>377</ele>
        <time>2015-05-17T07:20:12.000Z</time>
      </trkpt>
      <trkpt lat="47.51224" lon="6.77164">
        <ele>378</ele>
        <time>2015-05-17T07:20:13.000Z</time>
      </trkpt>
      <trkpt lat="47.51219" lon="6.77158">
        <ele>378</ele>
        <time>2015-05-17T07:20:14.000Z</time>
      </trkpt>
      <trkpt lat="47.51216" lon="6.7715">
        <ele>378</ele>
        <time>2015-05-17T07:20:15.000Z</time>
      </trkpt>
      <trkpt lat="47.51212" lon="6.77142">
        <ele>378</ele>
        <time>2015-05-17T07:20:16.000Z</time>
      </trkpt>
      <trkpt lat="47.51207" lon="6.77134">
        <ele>378</ele>
        <time>2015-05-17T07:20:17.000Z</time>
      </trkpt>
      <trkpt lat="47.51203" lon="6.77127">
        <ele>378</ele>
        <time>2015-05-17T07:20:18.000Z</time>
      </trkpt>
      <trkpt lat="47.51199" lon="6.77118">
        <ele>378</ele>
        <time>2015-05-17T07:20:19.000Z</time>
      </trkpt>
      <trkpt lat="47.51195" lon="6.7711">
        <ele>377</ele>
        <time>2015-05-17T07:20:20.000Z</time>
      </trkpt>
      <trkpt lat="47.51191" lon="6.77103">
        <ele>378</ele>
        <time>2015-05-17T07:20:21.000Z</time>
      </trkpt>
      <trkpt lat="47.51187" lon="6.77094">
        <ele>378</ele>
        <time>2015-05-17T07:20:22.000Z</time>
      </trkpt>
      <trkpt lat="47.51184" lon="6.77085">
        <ele>378</ele>
        <time>2015-05-17T07:20:23.000Z</time>
      </trkpt>
      <trkpt lat="47.51179" lon="6.77078">
        <ele>377</ele>
        <time>2015-05-17T07:20:24.000Z</time>
      </trkpt>
      <trkpt lat="47.51174" lon="6.77069">
        <ele>377</ele>
        <time>2015-05-17T07:20:25.000Z</time>
      </trkpt>
      <trkpt lat="47.51168" lon="6.77063">
        <ele>376</ele>
        <time>2015-05-17T07:20:26.000Z</time>
      </trkpt>
      <trkpt lat="47.51163" lon="6.77057">
        <ele>376</ele>
        <time>2015-05-17T07:20:27.000Z</time>
      </trkpt>
      <trkpt lat="47.51157" lon="6.77051">
        <ele>376</ele>
        <time>2015-05-17T07:20:28.000Z</time>
      </trkpt>
      <trkpt lat="47.51152" lon="6.77045">
        <ele>376</ele>
        <time>2015-05-17T07:20:29.000Z</time>
      </trkpt>
      <trkpt lat="47.51146" lon="6.77039">
        <ele>376</ele>
        <time>2015-05-17T07:20:30.001Z</time>
      </trkpt>
      <trkpt lat="47.51139" lon="6.77036">
        <ele>375</ele>
        <time>2015-05-17T07:20:31.000Z</time>
      </trkpt>
      <trkpt lat="47.51133" lon="6.77031">
        <ele>375</ele>
        <time>2015-05-17T07:20:32.000Z</time>
      </trkpt>
      <trkpt lat="47.51127" lon="6.77025">
        <ele>375</ele>
        <time>2015-05-17T07:20:33.000Z</time>
      </trkpt>
      <trkpt lat="47.51122" lon="6.77019">
        <ele>375</ele>
        <time>2015-05-17T07:20:34.000Z</time>
      </trkpt>
      <trkpt lat="47.51118" lon="6.77014">
        <ele>375</ele>
        <time>2015-05-17T07:20:35.000Z</time>
      </trkpt>
      <trkpt lat="47.51113" lon="6.77011">
        <ele>375</ele>
        <time>2015-05-17T07:20:36.000Z</time>
      </trkpt>
      <trkpt lat="47.51108" lon="6.77005">
        <ele>375</ele>
        <time>2015-05-17T07:20:37.000Z</time>
      </trkpt>
      <trkpt lat="47.51102" lon="6.77">
        <ele>375</ele>
        <time>2015-05-17T07:20:38.000Z</time>
      </trkpt>
      <trkpt lat="47.51097" lon="6.76995">
        <ele>375</ele>
        <time>2015-05-17T07:20:39.000Z</time>
      </trkpt>
      <trkpt lat="47.51092" lon="6.76991">
        <ele>375</ele>
        <time>2015-05-17T07:20:40.000Z</time>
      </trkpt>
      <trkpt lat="47.51087" lon="6.76986">
        <ele>375</ele>
        <time>2015-05-17T07:20:41.000Z</time>
      </trkpt>
      <trkpt lat="47.51082" lon="6.7698">
        <ele>375</ele>
        <time>2015-05-17T07:20:42.001Z</time>
      </trkpt>
      <trkpt lat="47.51075" lon="6.76977">
        <ele>375</ele>
        <time>2015-05-17T07:20:43.000Z</time>
      </trkpt>
      <trkpt lat="47.5107" lon="6.76972">
        <ele>375</ele>
        <time>2015-05-17T07:20:44.000Z</time>
      </trkpt>
      <trkpt lat="47.51065" lon="6.76968">
        <ele>375</ele>
        <time>2015-05-17T07:20:44.999Z</time>
      </trkpt>
      <trkpt lat="47.51059" lon="6.76963">
        <ele>375</ele>
        <time>2015-05-17T07:20:46.000Z</time>
      </trkpt>
      <trkpt lat="47.51055" lon="6.76958">
        <ele>375</ele>
        <time>2015-05-17T07:20:47.000Z</time>
      </trkpt>
      <trkpt lat="47.5105" lon="6.76953">
        <ele>375</ele>
        <time>2015-05-17T07:20:48.000Z</time>
      </trkpt>
      <trkpt lat="47.51045" lon="6.76947">
        <ele>375</ele>
        <time>2015-05-17T07:20:49.000Z</time>
      </trkpt>
      <trkpt lat="47.5104" lon="6.76942">
        <ele>375</ele>
        <time>2015-05-17T07:20:50.000Z</time>
      </trkpt>
      <trkpt lat="47.51035" lon="6.76938">
        <ele>375</ele>
        <time>2015-05-17T07:20:50.998Z</time>
      </trkpt>
      <trkpt lat="47.51029" lon="6.76936">
        <ele>375</ele>
        <time>2015-05-17T07:20:52.000Z</time>
      </trkpt>
      <trkpt lat="47.51025" lon="6.76934">
        <ele>375</ele>
        <time>2015-05-17T07:20:53.000Z</time>
      </trkpt>
      <trkpt lat="47.51019" lon="6.7693">
        <ele>375</ele>
        <time>2015-05-17T07:20:53.999Z</time>
      </trkpt>
      <trkpt lat="47.51013" lon="6.76926">
        <ele>375</ele>
        <time>2015-05-17T07:20:55.000Z</time>
      </trkpt>
      <trkpt lat="47.51007" lon="6.76923">
        <ele>376</ele>
        <time>2015-05-17T07:20:56.000Z</time>
      </trkpt>
      <trkpt lat="47.51001" lon="6.76918">
        <ele>376</ele>
        <time>2015-05-17T07:20:57.000Z</time>
      </trkpt>
      <trkpt lat="47.50997" lon="6.76913">
        <ele>376</ele>
        <time>2015-05-17T07:20:58.000Z</time>
      </trkpt>
      <trkpt lat="47.50992" lon="6.76909">
        <ele>377</ele>
        <time>2015-05-17T07:20:59.000Z</time>
      </trkpt>
      <trkpt lat="47.50987" lon="6.76907">
        <ele>377</ele>
        <time>2015-05-17T07:21:00.000Z</time>
      </trkpt>
      <trkpt lat="47.50982" lon="6.76905">
        <ele>377</ele>
        <time>2015-05-17T07:21:01.000Z</time>
      </trkpt>
      <trkpt lat="47.50979" lon="6.76904">
        <ele>377</ele>
        <time>2015-05-17T07:21:02.000Z</time>
      </trkpt>
      <trkpt lat="47.50975" lon="6.76902">
        <ele>377</ele>
        <time>2015-05-17T07:21:03.000Z</time>
      </trkpt>
      <trkpt lat="47.50972" lon="6.76896">
        <ele>377</ele>
        <time>2015-05-17T07:21:04.000Z</time>
      </trkpt>
      <trkpt lat="47.50967" lon="6.7689">
        <ele>377</ele>
        <time>2015-05-17T07:21:05.000Z</time>
      </trkpt>
      <trkpt lat="47.50961" lon="6.76885">
        <ele>377</ele>
        <time>2015-05-17T07:21:06.000Z</time>
      </trkpt>
      <trkpt lat="47.50957" lon="6.7688">
        <ele>377</ele>
        <time>2015-05-17T07:21:07.000Z</time>
      </trkpt>
      <trkpt lat="47.50955" lon="6.76875">
        <ele>378</ele>
        <time>2015-05-17T07:21:08.000Z</time>
      </trkpt>
      <trkpt lat="47.5095" lon="6.76871">
        <ele>378</ele>
        <time>2015-05-17T07:21:09.000Z</time>
      </trkpt>
      <trkpt lat="47.50947" lon="6.76865">
        <ele>378</ele>
        <time>2015-05-17T07:21:10.000Z</time>
      </trkpt>
      <trkpt lat="47.50944" lon="6.76861">
        <ele>378</ele>
        <time>2015-05-17T07:21:11.001Z</time>
      </trkpt>
      <trkpt lat="47.50943" lon="6.76858">
        <ele>378</ele>
        <time>2015-05-17T07:21:12.000Z</time>
      </trkpt>
      <trkpt lat="47.50942" lon="6.76852">
        <ele>378</ele>
        <time>2015-05-17T07:21:13.000Z</time>
      </trkpt>
      <trkpt lat="47.5094" lon="6.76847">
        <ele>378</ele>
        <time>2015-05-17T07:21:14.000Z</time>
      </trkpt>
      <trkpt lat="47.50938" lon="6.76843">
        <ele>378</ele>
        <time>2015-05-17T07:21:15.000Z</time>
      </trkpt>
      <trkpt lat="47.50936" lon="6.76838">
        <ele>379</ele>
        <time>2015-05-17T07:21:16.000Z</time>
      </trkpt>
      <trkpt lat="47.50931" lon="6.76834">
        <ele>379</ele>
        <time>2015-05-17T07:21:17.000Z</time>
      </trkpt>
      <trkpt lat="47.50929" lon="6.7683">
        <ele>379</ele>
        <time>2015-05-17T07:21:18.000Z</time>
      </trkpt>
      <trkpt lat="47.50927" lon="6.76824">
        <ele>379</ele>
        <time>2015-05-17T07:21:19.000Z</time>
      </trkpt>
      <trkpt lat="47.50924" lon="6.76818">
        <ele>378</ele>
        <time>2015-05-17T07:21:20.000Z</time>
      </trkpt>
      <trkpt lat="47.50922" lon="6.76812">
        <ele>378</ele>
        <time>2015-05-17T07:21:21.000Z</time>
      </trkpt>
      <trkpt lat="47.50919" lon="6.76807">
        <ele>378</ele>
        <time>2015-05-17T07:21:22.000Z</time>
      </trkpt>
      <trkpt lat="47.50916" lon="6.76803">
        <ele>381</ele>
        <time>2015-05-17T07:21:23.000Z</time>
      </trkpt>
      <trkpt lat="47.50914" lon="6.76798">
        <ele>381</ele>
        <time>2015-05-17T07:21:24.000Z</time>
      </trkpt>
      <trkpt lat="47.50911" lon="6.76794">
        <ele>381</ele>
        <time>2015-05-17T07:21:25.000Z</time>
      </trkpt>
      <trkpt lat="47.50908" lon="6.7679">
        <ele>381</ele>
        <time>2015-05-17T07:21:26.000Z</time>
      </trkpt>
      <trkpt lat="47.50904" lon="6.76784">
        <ele>381</ele>
        <time>2015-05-17T07:21:27.000Z</time>
      </trkpt>
      <trkpt lat="47.50903" lon="6.76779">
        <ele>381</ele>
        <time>2015-05-17T07:21:28.000Z</time>
      </trkpt>
      <trkpt lat="47.509" lon="6.76772">
        <ele>381</ele>
        <time>2015-05-17T07:21:29.000Z</time>
      </trkpt>
      <trkpt lat="47.50898" lon="6.76767">
        <ele>381</ele>
        <time>2015-05-17T07:21:30.000Z</time>
      </trkpt>
      <trkpt lat="47.50895" lon="6.76761">
        <ele>381</ele>
        <time>2015-05-17T07:21:31.000Z</time>
      </trkpt>
      <trkpt lat="47.50893" lon="6.76755">
        <ele>381</ele>
        <time>2015-05-17T07:21:31.999Z</time>
      </trkpt>
      <trkpt lat="47.50892" lon="6.76749">
        <ele>381</ele>
        <time>2015-05-17T07:21:32.999Z</time>
      </trkpt>
      <trkpt lat="47.50891" lon="6.76744">
        <ele>382</ele>
        <time>2015-05-17T07:21:34.000Z</time>
      </trkpt>
      <trkpt lat="47.5089" lon="6.76738">
        <ele>382</ele>
        <time>2015-05-17T07:21:35.000Z</time>
      </trkpt>
      <trkpt lat="47.50889" lon="6.76733">
        <ele>382</ele>
        <time>2015-05-17T07:21:36.000Z</time>
      </trkpt>
      <trkpt lat="47.50888" lon="6.76727">
        <ele>382</ele>
        <time>2015-05-17T07:21:37.000Z</time>
      </trkpt>
      <trkpt lat="47.50886" lon="6.76722">
        <ele>382</ele>
        <time>2015-05-17T07:21:38.000Z</time>
      </trkpt>
      <trkpt lat="47.50885" lon="6.76717">
        <ele>383</ele>
        <time>2015-05-17T07:21:39.000Z</time>
      </trkpt>
      <trkpt lat="47.50883" lon="6.76712">
        <ele>383</ele>
        <time>2015-05-17T07:21:40.000Z</time>
      </trkpt>
      <trkpt lat="47.50882" lon="6.76707">
        <ele>383</ele>
        <time>2015-05-17T07:21:41.000Z</time>
      </trkpt>
      <trkpt lat="47.5088" lon="6.76703">
        <ele>383</ele>
        <time>2015-05-17T07:21:42.000Z</time>
      </trkpt>
      <trkpt lat="47.50878" lon="6.76698">
        <ele>383</ele>
        <time>2015-05-17T07:21:43.000Z</time>
      </trkpt>
      <trkpt lat="47.50876" lon="6.76693">
        <ele>383</ele>
        <time>2015-05-17T07:21:44.000Z</time>
      </trkpt>
      <trkpt lat="47.50874" lon="6.76688">
        <ele>384</ele>
        <time>2015-05-17T07:21:45.000Z</time>
      </trkpt>
      <trkpt lat="47.50872" lon="6.76683">
        <ele>384</ele>
        <time>2015-05-17T07:21:46.000Z</time>
      </trkpt>
      <trkpt lat="47.5087" lon="6.76677">
        <ele>384</ele>
        <time>2015-05-17T07:21:47.000Z</time>
      </trkpt>
      <trkpt lat="47.50868" lon="6.76673">
        <ele>384</ele>
        <time>2015-05-17T07:21:48.000Z</time>
      </trkpt>
      <trkpt lat="47.50866" lon="6.76668">
        <ele>384</ele>
        <time>2015-05-17T07:21:48.999Z</time>
      </trkpt>
      <trkpt lat="47.50864" lon="6.76664">
        <ele>386</ele>
        <time>2015-05-17T07:21:50.000Z</time>
      </trkpt>
      <trkpt lat="47.50861" lon="6.7666">
        <ele>386</ele>
        <time>2015-05-17T07:21:51.000Z</time>
      </trkpt>
      <trkpt lat="47.50859" lon="6.76657">
        <ele>387</ele>
        <time>2015-05-17T07:21:52.000Z</time>
      </trkpt>
      <trkpt lat="47.50857" lon="6.76653">
        <ele>387</ele>
        <time>2015-05-17T07:21:53.000Z</time>
      </trkpt>
      <trkpt lat="47.50855" lon="6.76649">
        <ele>387</ele>
        <time>2015-05-17T07:21:54.000Z</time>
      </trkpt>
      <trkpt lat="47.50852" lon="6.76646">
        <ele>387</ele>
        <time>2015-05-17T07:21:55.000Z</time>
      </trkpt>
      <trkpt lat="47.5085" lon="6.76642">
        <ele>387</ele>
        <time>2015-05-17T07:21:56.000Z</time>
      </trkpt>
      <trkpt lat="47.50848" lon="6.76639">
        <ele>387</ele>
        <time>2015-05-17T07:21:57.000Z</time>
      </trkpt>
      <trkpt lat="47.50846" lon="6.76636">
        <ele>387</ele>
        <time>2015-05-17T07:21:58.000Z</time>
      </trkpt>
      <trkpt lat="47.50845" lon="6.76632">
        <ele>387</ele>
        <time>2015-05-17T07:21:59.000Z</time>
      </trkpt>
      <trkpt lat="47.50843" lon="6.76628">
        <ele>387</ele>
        <time>2015-05-17T07:22:00.000Z</time>
      </trkpt>
      <trkpt lat="47.50842" lon="6.76624">
        <ele>387</ele>
        <time>2015-05-17T07:22:01.000Z</time>
      </trkpt>
      <trkpt lat="47.5084" lon="6.7662">
        <ele>387</ele>
        <time>2015-05-17T07:22:02.000Z</time>
      </trkpt>
      <trkpt lat="47.50838" lon="6.76616">
        <ele>387</ele>
        <time>2015-05-17T07:22:03.000Z</time>
      </trkpt>
      <trkpt lat="47.50837" lon="6.76611">
        <ele>387</ele>
        <time>2015-05-17T07:22:04.000Z</time>
      </trkpt>
      <trkpt lat="47.50835" lon="6.76607">
        <ele>387</ele>
        <time>2015-05-17T07:22:05.000Z</time>
      </trkpt>
      <trkpt lat="47.50833" lon="6.76602">
        <ele>390</ele>
        <time>2015-05-17T07:22:06.000Z</time>
      </trkpt>
      <trkpt lat="47.50831" lon="6.76598">
        <ele>390</ele>
        <time>2015-05-17T07:22:07.000Z</time>
      </trkpt>
      <trkpt lat="47.50829" lon="6.76594">
        <ele>390</ele>
        <time>2015-05-17T07:22:08.000Z</time>
      </trkpt>
      <trkpt lat="47.50827" lon="6.7659">
        <ele>390</ele>
        <time>2015-05-17T07:22:09.000Z</time>
      </trkpt>
      <trkpt lat="47.50823" lon="6.76589">
        <ele>390</ele>
        <time>2015-05-17T07:22:12.000Z</time>
      </trkpt>
      <trkpt lat="47.50821" lon="6.76589">
        <ele>390</ele>
        <time>2015-05-17T07:22:13.000Z</time>
      </trkpt>
      <trkpt lat="47.50818" lon="6.76591">
        <ele>390</ele>
        <time>2015-05-17T07:22:14.000Z</time>
      </trkpt>
      <trkpt lat="47.50816" lon="6.76589">
        <ele>390</ele>
        <time>2015-05-17T07:22:15.000Z</time>
      </trkpt>
      <trkpt lat="47.50814" lon="6.76586">
        <ele>390</ele>
        <time>2015-05-17T07:22:16.000Z</time>
      </trkpt>
      <trkpt lat="47.50813" lon="6.76583">
        <ele>391</ele>
        <time>2015-05-17T07:22:17.000Z</time>
      </trkpt>
      <trkpt lat="47.5081" lon="6.76578">
        <ele>391</ele>
        <time>2015-05-17T07:22:20.000Z</time>
      </trkpt>
      <trkpt lat="47.50808" lon="6.76579">
        <ele>391</ele>
        <time>2015-05-17T07:22:21.000Z</time>
      </trkpt>
      <trkpt lat="47.50805" lon="6.7658">
        <ele>391</ele>
        <time>2015-05-17T07:22:22.000Z</time>
      </trkpt>
      <trkpt lat="47.50802" lon="6.76581">
        <ele>391</ele>
        <time>2015-05-17T07:22:23.000Z</time>
      </trkpt>
      <trkpt lat="47.50798" lon="6.76581">
        <ele>392</ele>
        <time>2015-05-17T07:22:24.000Z</time>
      </trkpt>
      <trkpt lat="47.50794" lon="6.76581">
        <ele>392</ele>
        <time>2015-05-17T07:22:25.000Z</time>
      </trkpt>
      <trkpt lat="47.50791" lon="6.76582">
        <ele>392</ele>
        <time>2015-05-17T07:22:26.000Z</time>
      </trkpt>
      <trkpt lat="47.50787" lon="6.76583">
        <ele>391</ele>
        <time>2015-05-17T07:22:27.000Z</time>
      </trkpt>
      <trkpt lat="47.50784" lon="6.76585">
        <ele>391</ele>
        <time>2015-05-17T07:22:28.000Z</time>
      </trkpt>
      <trkpt lat="47.5078" lon="6.76586">
        <ele>392</ele>
        <time>2015-05-17T07:22:29.000Z</time>
      </trkpt>
      <trkpt lat="47.50777" lon="6.76586">
        <ele>392</ele>
        <time>2015-05-17T07:22:30.000Z</time>
      </trkpt>
      <trkpt lat="47.50773" lon="6.76586">
        <ele>392</ele>
        <time>2015-05-17T07:22:31.000Z</time>
      </trkpt>
      <trkpt lat="47.5077" lon="6.76587">
        <ele>392</ele>
        <time>2015-05-17T07:22:32.000Z</time>
      </trkpt>
      <trkpt lat="47.50766" lon="6.76588">
        <ele>392</ele>
        <time>2015-05-17T07:22:33.000Z</time>
      </trkpt>
      <trkpt lat="47.50762" lon="6.76589">
        <ele>393</ele>
        <time>2015-05-17T07:22:34.000Z</time>
      </trkpt>
      <trkpt lat="47.50758" lon="6.76589">
        <ele>393</ele>
        <time>2015-05-17T07:22:35.000Z</time>
      </trkpt>
      <trkpt lat="47.50754" lon="6.7659">
        <ele>393</ele>
        <time>2015-05-17T07:22:36.000Z</time>
      </trkpt>
      <trkpt lat="47.5075" lon="6.7659">
        <ele>393</ele>
        <time>2015-05-17T07:22:37.000Z</time>
      </trkpt>
      <trkpt lat="47.50746" lon="6.7659">
        <ele>394</ele>
        <time>2015-05-17T07:22:38.000Z</time>
      </trkpt>
      <trkpt lat="47.50742" lon="6.76589">
        <ele>394</ele>
        <time>2015-05-17T07:22:39.000Z</time>
      </trkpt>
      <trkpt lat="47.50738" lon="6.76589">
        <ele>394</ele>
        <time>2015-05-17T07:22:40.000Z</time>
      </trkpt>
      <trkpt lat="47.50735" lon="6.7659">
        <ele>394</ele>
        <time>2015-05-17T07:22:41.000Z</time>
      </trkpt>
      <trkpt lat="47.50731" lon="6.7659">
        <ele>394</ele>
        <time>2015-05-17T07:22:42.000Z</time>
      </trkpt>
      <trkpt lat="47.50727" lon="6.7659">
        <ele>394</ele>
        <time>2015-05-17T07:22:43.000Z</time>
      </trkpt>
      <trkpt lat="47.50723" lon="6.7659">
        <ele>394</ele>
        <time>2015-05-17T07:22:44.000Z</time>
      </trkpt>
      <trkpt lat="47.5072" lon="6.7659">
        <ele>394</ele>
        <time>2015-05-17T07:22:45.000Z</time>
      </trkpt>
      <trkpt lat="47.50716" lon="6.76589">
        <ele>395</ele>
        <time>2015-05-17T07:22:46.000Z</time>
      </trkpt>
      <trkpt lat="47.50712" lon="6.76589">
        <ele>395</ele>
        <time>2015-05-17T07:22:47.000Z</time>
      </trkpt>
      <trkpt lat="47.50708" lon="6.76589">
        <ele>395</ele>
        <time>2015-05-17T07:22:48.000Z</time>
      </trkpt>
      <trkpt lat="47.50704" lon="6.76589">
        <ele>395</ele>
        <time>2015-05-17T07:22:49.000Z</time>
      </trkpt>
      <trkpt lat="47.507" lon="6.76589">
        <ele>395</ele>
        <time>2015-05-17T07:22:50.000Z</time>
      </trkpt>
      <trkpt lat="47.50697" lon="6.76589">
        <ele>395</ele>
        <time>2015-05-17T07:22:51.000Z</time>
      </trkpt>
      <trkpt lat="47.50693" lon="6.76589">
        <ele>395</ele>
        <time>2015-05-17T07:22:52.000Z</time>
      </trkpt>
      <trkpt lat="47.50689" lon="6.76589">
        <ele>395</ele>
        <time>2015-05-17T07:22:53.000Z</time>
      </trkpt>
      <trkpt lat="47.50685" lon="6.76588">
        <ele>396</ele>
        <time>2015-05-17T07:22:54.000Z</time>
      </trkpt>
      <trkpt lat="47.50681" lon="6.76588">
        <ele>396</ele>
        <time>2015-05-17T07:22:55.000Z</time>
      </trkpt>
      <trkpt lat="47.50678" lon="6.76588">
        <ele>396</ele>
        <time>2015-05-17T07:22:56.000Z</time>
      </trkpt>
      <trkpt lat="47.50674" lon="6.76589">
        <ele>396</ele>
        <time>2015-05-17T07:22:57.000Z</time>
      </trkpt>
      <trkpt lat="47.50671" lon="6.7659">
        <ele>396</ele>
        <time>2015-05-17T07:22:58.000Z</time>
      </trkpt>
      <trkpt lat="47.50667" lon="6.7659">
        <ele>396</ele>
        <time>2015-05-17T07:22:59.000Z</time>
      </trkpt>
      <trkpt lat="47.50664" lon="6.76591">
        <ele>397</ele>
        <time>2015-05-17T07:23:00.000Z</time>
      </trkpt>
      <trkpt lat="47.50661" lon="6.76592">
        <ele>397</ele>
        <time>2015-05-17T07:23:01.000Z</time>
      </trkpt>
      <trkpt lat="47.50658" lon="6.76593">
        <ele>397</ele>
        <time>2015-05-17T07:23:02.000Z</time>
      </trkpt>
      <trkpt lat="47.50655" lon="6.76594">
        <ele>397</ele>
        <time>2015-05-17T07:23:03.000Z</time>
      </trkpt>
      <trkpt lat="47.50652" lon="6.76595">
        <ele>397</ele>
        <time>2015-05-17T07:23:04.000Z</time>
      </trkpt>
      <trkpt lat="47.50649" lon="6.76596">
        <ele>397</ele>
        <time>2015-05-17T07:23:05.000Z</time>
      </trkpt>
      <trkpt lat="47.50645" lon="6.76598">
        <ele>397</ele>
        <time>2015-05-17T07:23:06.000Z</time>
      </trkpt>
      <trkpt lat="47.50642" lon="6.766">
        <ele>397</ele>
        <time>2015-05-17T07:23:07.000Z</time>
      </trkpt>
      <trkpt lat="47.50639" lon="6.76602">
        <ele>397</ele>
        <time>2015-05-17T07:23:08.000Z</time>
      </trkpt>
      <trkpt lat="47.50636" lon="6.76604">
        <ele>397</ele>
        <time>2015-05-17T07:23:09.000Z</time>
      </trkpt>
      <trkpt lat="47.50633" lon="6.76607">
        <ele>397</ele>
        <time>2015-05-17T07:23:10.000Z</time>
      </trkpt>
      <trkpt lat="47.5063" lon="6.76609">
        <ele>397</ele>
        <time>2015-05-17T07:23:11.000Z</time>
      </trkpt>
      <trkpt lat="47.50627" lon="6.76609">
        <ele>397</ele>
        <time>2015-05-17T07:23:12.000Z</time>
      </trkpt>
      <trkpt lat="47.50624" lon="6.7661">
        <ele>397</ele>
        <time>2015-05-17T07:23:13.000Z</time>
      </trkpt>
      <trkpt lat="47.50621" lon="6.76611">
        <ele>397</ele>
        <time>2015-05-17T07:23:14.000Z</time>
      </trkpt>
      <trkpt lat="47.50618" lon="6.76613">
        <ele>397</ele>
        <time>2015-05-17T07:23:15.000Z</time>
      </trkpt>
      <trkpt lat="47.50615" lon="6.76614">
        <ele>397</ele>
        <time>2015-05-17T07:23:16.000Z</time>
      </trkpt>
      <trkpt lat="47.50613" lon="6.76617">
        <ele>398</ele>
        <time>2015-05-17T07:23:17.000Z</time>
      </trkpt>
      <trkpt lat="47.5061" lon="6.76618">
        <ele>398</ele>
        <time>2015-05-17T07:23:18.000Z</time>
      </trkpt>
      <trkpt lat="47.50607" lon="6.7662">
        <ele>398</ele>
        <time>2015-05-17T07:23:19.000Z</time>
      </trkpt>
      <trkpt lat="47.50603" lon="6.76621">
        <ele>398</ele>
        <time>2015-05-17T07:23:20.000Z</time>
      </trkpt>
      <trkpt lat="47.50599" lon="6.76623">
        <ele>398</ele>
        <time>2015-05-17T07:23:21.000Z</time>
      </trkpt>
      <trkpt lat="47.50595" lon="6.76624">
        <ele>398</ele>
        <time>2015-05-17T07:23:22.000Z</time>
      </trkpt>
      <trkpt lat="47.50592" lon="6.76625">
        <ele>398</ele>
        <time>2015-05-17T07:23:23.000Z</time>
      </trkpt>
      <trkpt lat="47.50588" lon="6.76625">
        <ele>398</ele>
        <time>2015-05-17T07:23:24.000Z</time>
      </trkpt>
      <trkpt lat="47.50585" lon="6.76626">
        <ele>398</ele>
        <time>2015-05-17T07:23:25.000Z</time>
      </trkpt>
      <trkpt lat="47.50582" lon="6.76627">
        <ele>399</ele>
        <time>2015-05-17T07:23:26.000Z</time>
      </trkpt>
      <trkpt lat="47.50579" lon="6.76629">
        <ele>399</ele>
        <time>2015-05-17T07:23:27.000Z</time>
      </trkpt>
      <trkpt lat="47.50575" lon="6.7663">
        <ele>399</ele>
        <time>2015-05-17T07:23:28.000Z</time>
      </trkpt>
      <trkpt lat="47.50572" lon="6.76631">
        <ele>399</ele>
        <time>2015-05-17T07:23:29.000Z</time>
      </trkpt>
      <trkpt lat="47.50568" lon="6.76633">
        <ele>399</ele>
        <time>2015-05-17T07:23:30.000Z</time>
      </trkpt>
      <trkpt lat="47.50565" lon="6.76634">
        <ele>399</ele>
        <time>2015-05-17T07:23:31.001Z</time>
      </trkpt>
      <trkpt lat="47.50561" lon="6.76635">
        <ele>399</ele>
        <time>2015-05-17T07:23:32.000Z</time>
      </trkpt>
      <trkpt lat="47.50558" lon="6.76636">
        <ele>399</ele>
        <time>2015-05-17T07:23:33.000Z</time>
      </trkpt>
      <trkpt lat="47.50554" lon="6.76636">
        <ele>399</ele>
        <time>2015-05-17T07:23:34.000Z</time>
      </trkpt>
      <trkpt lat="47.5055" lon="6.76637">
        <ele>399</ele>
        <time>2015-05-17T07:23:35.000Z</time>
      </trkpt>
      <trkpt lat="47.50547" lon="6.76637">
        <ele>399</ele>
        <time>2015-05-17T07:23:36.000Z</time>
      </trkpt>
      <trkpt lat="47.50543" lon="6.76637">
        <ele>399</ele>
        <time>2015-05-17T07:23:37.000Z</time>
      </trkpt>
      <trkpt lat="47.50539" lon="6.76638">
        <ele>399</ele>
        <time>2015-05-17T07:23:38.000Z</time>
      </trkpt>
      <trkpt lat="47.50535" lon="6.7664">
        <ele>399</ele>
        <time>2015-05-17T07:23:39.000Z</time>
      </trkpt>
      <trkpt lat="47.50531" lon="6.76641">
        <ele>399</ele>
        <time>2015-05-17T07:23:40.000Z</time>
      </trkpt>
      <trkpt lat="47.50527" lon="6.76643">
        <ele>399</ele>
        <time>2015-05-17T07:23:41.000Z</time>
      </trkpt>
      <trkpt lat="47.50521" lon="6.76645">
        <ele>399</ele>
        <time>2015-05-17T07:23:42.000Z</time>
      </trkpt>
      <trkpt lat="47.50517" lon="6.76646">
        <ele>399</ele>
        <time>2015-05-17T07:23:43.000Z</time>
      </trkpt>
      <trkpt lat="47.50512" lon="6.76647">
        <ele>399</ele>
        <time>2015-05-17T07:23:44.000Z</time>
      </trkpt>
      <trkpt lat="47.50508" lon="6.76648">
        <ele>399</ele>
        <time>2015-05-17T07:23:45.000Z</time>
      </trkpt>
      <trkpt lat="47.50504" lon="6.7665">
        <ele>399</ele>
        <time>2015-05-17T07:23:46.000Z</time>
      </trkpt>
      <trkpt lat="47.50499" lon="6.76652">
        <ele>399</ele>
        <time>2015-05-17T07:23:47.000Z</time>
      </trkpt>
      <trkpt lat="47.50496" lon="6.76653">
        <ele>399</ele>
        <time>2015-05-17T07:23:48.000Z</time>
      </trkpt>
      <trkpt lat="47.50491" lon="6.76656">
        <ele>399</ele>
        <time>2015-05-17T07:23:49.000Z</time>
      </trkpt>
      <trkpt lat="47.50486" lon="6.76657">
        <ele>399</ele>
        <time>2015-05-17T07:23:50.000Z</time>
      </trkpt>
      <trkpt lat="47.50481" lon="6.7666">
        <ele>399</ele>
        <time>2015-05-17T07:23:51.000Z</time>
      </trkpt>
      <trkpt lat="47.50476" lon="6.76661">
        <ele>398</ele>
        <time>2015-05-17T07:23:52.000Z</time>
      </trkpt>
      <trkpt lat="47.50471" lon="6.76663">
        <ele>398</ele>
        <time>2015-05-17T07:23:53.000Z</time>
      </trkpt>
      <trkpt lat="47.50466" lon="6.76665">
        <ele>398</ele>
        <time>2015-05-17T07:23:54.000Z</time>
      </trkpt>
      <trkpt lat="47.50461" lon="6.76667">
        <ele>397</ele>
        <time>2015-05-17T07:23:55.000Z</time>
      </trkpt>
      <trkpt lat="47.50458" lon="6.76668">
        <ele>397</ele>
        <time>2015-05-17T07:23:56.000Z</time>
      </trkpt>
      <trkpt lat="47.50453" lon="6.7667">
        <ele>397</ele>
        <time>2015-05-17T07:23:57.000Z</time>
      </trkpt>
      <trkpt lat="47.50448" lon="6.76672">
        <ele>397</ele>
        <time>2015-05-17T07:23:58.000Z</time>
      </trkpt>
      <trkpt lat="47.50443" lon="6.76674">
        <ele>397</ele>
        <time>2015-05-17T07:23:59.000Z</time>
      </trkpt>
      <trkpt lat="47.5044" lon="6.76674">
        <ele>397</ele>
        <time>2015-05-17T07:24:00.000Z</time>
      </trkpt>
      <trkpt lat="47.50436" lon="6.76678">
        <ele>397</ele>
        <time>2015-05-17T07:24:01.000Z</time>
      </trkpt>
      <trkpt lat="47.50433" lon="6.76679">
        <ele>397</ele>
        <time>2015-05-17T07:24:02.000Z</time>
      </trkpt>
      <trkpt lat="47.50427" lon="6.7668">
        <ele>397</ele>
        <time>2015-05-17T07:24:03.000Z</time>
      </trkpt>
      <trkpt lat="47.50422" lon="6.76683">
        <ele>397</ele>
        <time>2015-05-17T07:24:04.000Z</time>
      </trkpt>
      <trkpt lat="47.50417" lon="6.76685">
        <ele>397</ele>
        <time>2015-05-17T07:24:05.000Z</time>
      </trkpt>
      <trkpt lat="47.50412" lon="6.76687">
        <ele>397</ele>
        <time>2015-05-17T07:24:06.000Z</time>
      </trkpt>
      <trkpt lat="47.50407" lon="6.76688">
        <ele>397</ele>
        <time>2015-05-17T07:24:07.000Z</time>
      </trkpt>
      <trkpt lat="47.50403" lon="6.76689">
        <ele>397</ele>
        <time>2015-05-17T07:24:08.000Z</time>
      </trkpt>
      <trkpt lat="47.50398" lon="6.76691">
        <ele>397</ele>
        <time>2015-05-17T07:24:09.000Z</time>
      </trkpt>
      <trkpt lat="47.50394" lon="6.76693">
        <ele>397</ele>
        <time>2015-05-17T07:24:10.000Z</time>
      </trkpt>
      <trkpt lat="47.50389" lon="6.76695">
        <ele>397</ele>
        <time>2015-05-17T07:24:11.000Z</time>
      </trkpt>
      <trkpt lat="47.50384" lon="6.76696">
        <ele>397</ele>
        <time>2015-05-17T07:24:12.000Z</time>
      </trkpt>
      <trkpt lat="47.5038" lon="6.76698">
        <ele>397</ele>
        <time>2015-05-17T07:24:13.000Z</time>
      </trkpt>
      <trkpt lat="47.50376" lon="6.76701">
        <ele>397</ele>
        <time>2015-05-17T07:24:14.000Z</time>
      </trkpt>
      <trkpt lat="47.50372" lon="6.76703">
        <ele>397</ele>
        <time>2015-05-17T07:24:15.000Z</time>
      </trkpt>
      <trkpt lat="47.50368" lon="6.76704">
        <ele>397</ele>
        <time>2015-05-17T07:24:16.000Z</time>
      </trkpt>
      <trkpt lat="47.50364" lon="6.76706">
        <ele>397</ele>
        <time>2015-05-17T07:24:17.000Z</time>
      </trkpt>
      <trkpt lat="47.5036" lon="6.76708">
        <ele>397</ele>
        <time>2015-05-17T07:24:18.000Z</time>
      </trkpt>
      <trkpt lat="47.50355" lon="6.76709">
        <ele>398</ele>
        <time>2015-05-17T07:24:19.000Z</time>
      </trkpt>
      <trkpt lat="47.50351" lon="6.76711">
        <ele>398</ele>
        <time>2015-05-17T07:24:20.000Z</time>
      </trkpt>
      <trkpt lat="47.50347" lon="6.76713">
        <ele>398</ele>
        <time>2015-05-17T07:24:21.000Z</time>
      </trkpt>
      <trkpt lat="47.50343" lon="6.76714">
        <ele>398</ele>
        <time>2015-05-17T07:24:22.000Z</time>
      </trkpt>
      <trkpt lat="47.50339" lon="6.76716">
        <ele>398</ele>
        <time>2015-05-17T07:24:23.000Z</time>
      </trkpt>
      <trkpt lat="47.50335" lon="6.76717">
        <ele>398</ele>
        <time>2015-05-17T07:24:24.000Z</time>
      </trkpt>
      <trkpt lat="47.50331" lon="6.76718">
        <ele>398</ele>
        <time>2015-05-17T07:24:25.000Z</time>
      </trkpt>
      <trkpt lat="47.50326" lon="6.7672">
        <ele>398</ele>
        <time>2015-05-17T07:24:26.000Z</time>
      </trkpt>
      <trkpt lat="47.50322" lon="6.76722">
        <ele>398</ele>
        <time>2015-05-17T07:24:27.000Z</time>
      </trkpt>
      <trkpt lat="47.50317" lon="6.76725">
        <ele>398</ele>
        <time>2015-05-17T07:24:28.000Z</time>
      </trkpt>
      <trkpt lat="47.50313" lon="6.76729">
        <ele>398</ele>
        <time>2015-05-17T07:24:29.000Z</time>
      </trkpt>
      <trkpt lat="47.50309" lon="6.76729">
        <ele>398</ele>
        <time>2015-05-17T07:24:30.000Z</time>
      </trkpt>
      <trkpt lat="47.50305" lon="6.76729">
        <ele>398</ele>
        <time>2015-05-17T07:24:31.000Z</time>
      </trkpt>
      <trkpt lat="47.50303" lon="6.7673">
        <ele>398</ele>
        <time>2015-05-17T07:24:32.000Z</time>
      </trkpt>
      <trkpt lat="47.50299" lon="6.7673">
        <ele>399</ele>
        <time>2015-05-17T07:24:33.000Z</time>
      </trkpt>
      <trkpt lat="47.50294" lon="6.76732">
        <ele>399</ele>
        <time>2015-05-17T07:24:34.000Z</time>
      </trkpt>
      <trkpt lat="47.5029" lon="6.76733">
        <ele>399</ele>
        <time>2015-05-17T07:24:35.000Z</time>
      </trkpt>
      <trkpt lat="47.50286" lon="6.76734">
        <ele>399</ele>
        <time>2015-05-17T07:24:36.000Z</time>
      </trkpt>
      <trkpt lat="47.50281" lon="6.76736">
        <ele>399</ele>
        <time>2015-05-17T07:24:37.000Z</time>
      </trkpt>
      <trkpt lat="47.50278" lon="6.76737">
        <ele>399</ele>
        <time>2015-05-17T07:24:38.000Z</time>
      </trkpt>
      <trkpt lat="47.50274" lon="6.76738">
        <ele>399</ele>
        <time>2015-05-17T07:24:39.000Z</time>
      </trkpt>
      <trkpt lat="47.5027" lon="6.7674">
        <ele>399</ele>
        <time>2015-05-17T07:24:40.000Z</time>
      </trkpt>
      <trkpt lat="47.50266" lon="6.7674">
        <ele>399</ele>
        <time>2015-05-17T07:24:41.000Z</time>
      </trkpt>
      <trkpt lat="47.50263" lon="6.76741">
        <ele>399</ele>
        <time>2015-05-17T07:24:42.000Z</time>
      </trkpt>
      <trkpt lat="47.50259" lon="6.76741">
        <ele>399</ele>
        <time>2015-05-17T07:24:43.000Z</time>
      </trkpt>
      <trkpt lat="47.50256" lon="6.7674">
        <ele>399</ele>
        <time>2015-05-17T07:24:44.001Z</time>
      </trkpt>
      <trkpt lat="47.50253" lon="6.76739">
        <ele>399</ele>
        <time>2015-05-17T07:24:45.000Z</time>
      </trkpt>
      <trkpt lat="47.5025" lon="6.76737">
        <ele>401</ele>
        <time>2015-05-17T07:24:46.000Z</time>
      </trkpt>
      <trkpt lat="47.50247" lon="6.76735">
        <ele>401</ele>
        <time>2015-05-17T07:24:47.000Z</time>
      </trkpt>
      <trkpt lat="47.50246" lon="6.76732">
        <ele>401</ele>
        <time>2015-05-17T07:24:48.000Z</time>
      </trkpt>
      <trkpt lat="47.50245" lon="6.76728">
        <ele>401</ele>
        <time>2015-05-17T07:24:49.000Z</time>
      </trkpt>
      <trkpt lat="47.50244" lon="6.76724">
        <ele>401</ele>
        <time>2015-05-17T07:24:50.000Z</time>
      </trkpt>
      <trkpt lat="47.50243" lon="6.76719">
        <ele>401</ele>
        <time>2015-05-17T07:24:51.000Z</time>
      </trkpt>
      <trkpt lat="47.50242" lon="6.76713">
        <ele>401</ele>
        <time>2015-05-17T07:24:52.000Z</time>
      </trkpt>
      <trkpt lat="47.50239" lon="6.76705">
        <ele>401</ele>
        <time>2015-05-17T07:24:53.000Z</time>
      </trkpt>
      <trkpt lat="47.50236" lon="6.76699">
        <ele>401</ele>
        <time>2015-05-17T07:24:54.000Z</time>
      </trkpt>
      <trkpt lat="47.50233" lon="6.76695">
        <ele>401</ele>
        <time>2015-05-17T07:24:55.000Z</time>
      </trkpt>
      <trkpt lat="47.50231" lon="6.76689">
        <ele>401</ele>
        <time>2015-05-17T07:24:56.000Z</time>
      </trkpt>
      <trkpt lat="47.50229" lon="6.76685">
        <ele>401</ele>
        <time>2015-05-17T07:24:57.000Z</time>
      </trkpt>
      <trkpt lat="47.50227" lon="6.7668">
        <ele>401</ele>
        <time>2015-05-17T07:24:58.000Z</time>
      </trkpt>
      <trkpt lat="47.50225" lon="6.76674">
        <ele>401</ele>
        <time>2015-05-17T07:24:59.000Z</time>
      </trkpt>
      <trkpt lat="47.50223" lon="6.76668">
        <ele>401</ele>
        <time>2015-05-17T07:25:00.000Z</time>
      </trkpt>
      <trkpt lat="47.50221" lon="6.76663">
        <ele>401</ele>
        <time>2015-05-17T07:25:01.000Z</time>
      </trkpt>
      <trkpt lat="47.50219" lon="6.76658">
        <ele>401</ele>
        <time>2015-05-17T07:25:02.000Z</time>
      </trkpt>
      <trkpt lat="47.50216" lon="6.76651">
        <ele>401</ele>
        <time>2015-05-17T07:25:03.000Z</time>
      </trkpt>
      <trkpt lat="47.50214" lon="6.76645">
        <ele>402</ele>
        <time>2015-05-17T07:25:04.000Z</time>
      </trkpt>
      <trkpt lat="47.50213" lon="6.76639">
        <ele>402</ele>
        <time>2015-05-17T07:25:05.000Z</time>
      </trkpt>
      <trkpt lat="47.50212" lon="6.76633">
        <ele>402</ele>
        <time>2015-05-17T07:25:06.000Z</time>
      </trkpt>
      <trkpt lat="47.50211" lon="6.76627">
        <ele>402</ele>
        <time>2015-05-17T07:25:07.000Z</time>
      </trkpt>
      <trkpt lat="47.50211" lon="6.76621">
        <ele>402</ele>
        <time>2015-05-17T07:25:08.000Z</time>
      </trkpt>
      <trkpt lat="47.5021" lon="6.76615">
        <ele>402</ele>
        <time>2015-05-17T07:25:09.000Z</time>
      </trkpt>
      <trkpt lat="47.5021" lon="6.76609">
        <ele>402</ele>
        <time>2015-05-17T07:25:10.000Z</time>
      </trkpt>
      <trkpt lat="47.50208" lon="6.76607">
        <ele>402</ele>
        <time>2015-05-17T07:25:11.000Z</time>
      </trkpt>
      <trkpt lat="47.50207" lon="6.76603">
        <ele>402</ele>
        <time>2015-05-17T07:25:11.999Z</time>
      </trkpt>
      <trkpt lat="47.50203" lon="6.766">
        <ele>402</ele>
        <time>2015-05-17T07:25:14.000Z</time>
      </trkpt>
      <trkpt lat="47.50202" lon="6.76599">
        <ele>403</ele>
        <time>2015-05-17T07:25:15.000Z</time>
      </trkpt>
      <trkpt lat="47.502" lon="6.76595">
        <ele>403</ele>
        <time>2015-05-17T07:25:17.000Z</time>
      </trkpt>
      <trkpt lat="47.50198" lon="6.76593">
        <ele>403</ele>
        <time>2015-05-17T07:25:18.001Z</time>
      </trkpt>
      <trkpt lat="47.50197" lon="6.76588">
        <ele>403</ele>
        <time>2015-05-17T07:25:20.000Z</time>
      </trkpt>
      <trkpt lat="47.50196" lon="6.76585">
        <ele>403</ele>
        <time>2015-05-17T07:25:21.000Z</time>
      </trkpt>
      <trkpt lat="47.50197" lon="6.76579">
        <ele>402</ele>
        <time>2015-05-17T07:25:23.000Z</time>
      </trkpt>
      <trkpt lat="47.50198" lon="6.76576">
        <ele>402</ele>
        <time>2015-05-17T07:25:24.000Z</time>
      </trkpt>
      <trkpt lat="47.502" lon="6.76574">
        <ele>402</ele>
        <time>2015-05-17T07:25:26.000Z</time>
      </trkpt>
      <trkpt lat="47.50203" lon="6.76574">
        <ele>402</ele>
        <time>2015-05-17T07:25:27.000Z</time>
      </trkpt>
      <trkpt lat="47.50206" lon="6.76574">
        <ele>401</ele>
        <time>2015-05-17T07:25:28.000Z</time>
      </trkpt>
      <trkpt lat="47.5021" lon="6.76574">
        <ele>401</ele>
        <time>2015-05-17T07:25:29.000Z</time>
      </trkpt>
      <trkpt lat="47.50214" lon="6.76575">
        <ele>401</ele>
        <time>2015-05-17T07:25:30.000Z</time>
      </trkpt>
      <trkpt lat="47.50219" lon="6.76574">
        <ele>401</ele>
        <time>2015-05-17T07:25:31.000Z</time>
      </trkpt>
      <trkpt lat="47.50227" lon="6.76564">
        <ele>400</ele>
        <time>2015-05-17T07:25:32.000Z</time>
      </trkpt>
      <trkpt lat="47.5023" lon="6.76555">
        <ele>400</ele>
        <time>2015-05-17T07:25:33.000Z</time>
      </trkpt>
      <trkpt lat="47.5023" lon="6.76546">
        <ele>399</ele>
        <time>2015-05-17T07:25:34.000Z</time>
      </trkpt>
      <trkpt lat="47.50231" lon="6.76539">
        <ele>399</ele>
        <time>2015-05-17T07:25:35.000Z</time>
      </trkpt>
      <trkpt lat="47.5023" lon="6.76531">
        <ele>399</ele>
        <time>2015-05-17T07:25:36.000Z</time>
      </trkpt>
      <trkpt lat="47.50229" lon="6.76523">
        <ele>398</ele>
        <time>2015-05-17T07:25:37.000Z</time>
      </trkpt>
      <trkpt lat="47.50227" lon="6.76514">
        <ele>398</ele>
        <time>2015-05-17T07:25:38.000Z</time>
      </trkpt>
      <trkpt lat="47.50224" lon="6.76505">
        <ele>398</ele>
        <time>2015-05-17T07:25:39.000Z</time>
      </trkpt>
      <trkpt lat="47.50222" lon="6.76497">
        <ele>395</ele>
        <time>2015-05-17T07:25:40.000Z</time>
      </trkpt>
      <trkpt lat="47.50219" lon="6.76484">
        <ele>395</ele>
        <time>2015-05-17T07:25:41.000Z</time>
      </trkpt>
      <trkpt lat="47.50216" lon="6.76472">
        <ele>395</ele>
        <time>2015-05-17T07:25:42.000Z</time>
      </trkpt>
      <trkpt lat="47.50214" lon="6.7646">
        <ele>395</ele>
        <time>2015-05-17T07:25:43.000Z</time>
      </trkpt>
      <trkpt lat="47.50211" lon="6.76447">
        <ele>395</ele>
        <time>2015-05-17T07:25:44.000Z</time>
      </trkpt>
      <trkpt lat="47.50209" lon="6.76435">
        <ele>394</ele>
        <time>2015-05-17T07:25:45.000Z</time>
      </trkpt>
      <trkpt lat="47.50205" lon="6.76425">
        <ele>394</ele>
        <time>2015-05-17T07:25:46.000Z</time>
      </trkpt>
      <trkpt lat="47.50202" lon="6.76413">
        <ele>391</ele>
        <time>2015-05-17T07:25:47.000Z</time>
      </trkpt>
      <trkpt lat="47.50198" lon="6.76402">
        <ele>391</ele>
        <time>2015-05-17T07:25:48.000Z</time>
      </trkpt>
      <trkpt lat="47.50195" lon="6.7639">
        <ele>391</ele>
        <time>2015-05-17T07:25:49.000Z</time>
      </trkpt>
      <trkpt lat="47.50193" lon="6.76381">
        <ele>390</ele>
        <time>2015-05-17T07:25:50.000Z</time>
      </trkpt>
      <trkpt lat="47.50189" lon="6.7637">
        <ele>390</ele>
        <time>2015-05-17T07:25:51.000Z</time>
      </trkpt>
      <trkpt lat="47.50186" lon="6.76359">
        <ele>390</ele>
        <time>2015-05-17T07:25:52.000Z</time>
      </trkpt>
      <trkpt lat="47.50183" lon="6.76348">
        <ele>390</ele>
        <time>2015-05-17T07:25:53.000Z</time>
      </trkpt>
      <trkpt lat="47.50179" lon="6.76338">
        <ele>390</ele>
        <time>2015-05-17T07:25:54.000Z</time>
      </trkpt>
      <trkpt lat="47.50175" lon="6.76327">
        <ele>389</ele>
        <time>2015-05-17T07:25:55.000Z</time>
      </trkpt>
      <trkpt lat="47.50169" lon="6.76315">
        <ele>388</ele>
        <time>2015-05-17T07:25:56.000Z</time>
      </trkpt>
      <trkpt lat="47.50164" lon="6.76306">
        <ele>394</ele>
        <time>2015-05-17T07:25:57.000Z</time>
      </trkpt>
      <trkpt lat="47.50161" lon="6.76295">
        <ele>394</ele>
        <time>2015-05-17T07:25:58.000Z</time>
      </trkpt>
      <trkpt lat="47.50158" lon="6.76286">
        <ele>394</ele>
        <time>2015-05-17T07:25:59.000Z</time>
      </trkpt>
      <trkpt lat="47.50156" lon="6.76274">
        <ele>393</ele>
        <time>2015-05-17T07:26:00.000Z</time>
      </trkpt>
      <trkpt lat="47.50157" lon="6.76263">
        <ele>391</ele>
        <time>2015-05-17T07:26:01.000Z</time>
      </trkpt>
      <trkpt lat="47.50155" lon="6.76253">
        <ele>390</ele>
        <time>2015-05-17T07:26:02.000Z</time>
      </trkpt>
      <trkpt lat="47.50151" lon="6.76243">
        <ele>388</ele>
        <time>2015-05-17T07:26:03.000Z</time>
      </trkpt>
      <trkpt lat="47.5015" lon="6.76232">
        <ele>389</ele>
        <time>2015-05-17T07:26:04.000Z</time>
      </trkpt>
      <trkpt lat="47.5015" lon="6.76219">
        <ele>389</ele>
        <time>2015-05-17T07:26:05.000Z</time>
      </trkpt>
      <trkpt lat="47.50147" lon="6.76208">
        <ele>388</ele>
        <time>2015-05-17T07:26:06.000Z</time>
      </trkpt>
      <trkpt lat="47.50146" lon="6.76197">
        <ele>387</ele>
        <time>2015-05-17T07:26:07.000Z</time>
      </trkpt>
      <trkpt lat="47.50145" lon="6.76185">
        <ele>386</ele>
        <time>2015-05-17T07:26:08.000Z</time>
      </trkpt>
      <trkpt lat="47.50145" lon="6.76177">
        <ele>385</ele>
        <time>2015-05-17T07:26:09.000Z</time>
      </trkpt>
      <trkpt lat="47.50143" lon="6.7617">
        <ele>385</ele>
        <time>2015-05-17T07:26:10.000Z</time>
      </trkpt>
      <trkpt lat="47.50142" lon="6.76163">
        <ele>382</ele>
        <time>2015-05-17T07:26:11.000Z</time>
      </trkpt>
      <trkpt lat="47.50141" lon="6.76158">
        <ele>382</ele>
        <time>2015-05-17T07:26:12.000Z</time>
      </trkpt>
      <trkpt lat="47.50138" lon="6.76152">
        <ele>383</ele>
        <time>2015-05-17T07:26:13.000Z</time>
      </trkpt>
      <trkpt lat="47.50136" lon="6.76146">
        <ele>383</ele>
        <time>2015-05-17T07:26:14.000Z</time>
      </trkpt>
      <trkpt lat="47.50133" lon="6.76139">
        <ele>384</ele>
        <time>2015-05-17T07:26:15.000Z</time>
      </trkpt>
      <trkpt lat="47.5013" lon="6.76133">
        <ele>384</ele>
        <time>2015-05-17T07:26:16.000Z</time>
      </trkpt>
      <trkpt lat="47.50129" lon="6.76123">
        <ele>384</ele>
        <time>2015-05-17T07:26:17.000Z</time>
      </trkpt>
      <trkpt lat="47.50127" lon="6.76114">
        <ele>383</ele>
        <time>2015-05-17T07:26:18.000Z</time>
      </trkpt>
      <trkpt lat="47.50126" lon="6.76105">
        <ele>383</ele>
        <time>2015-05-17T07:26:19.000Z</time>
      </trkpt>
      <trkpt lat="47.50124" lon="6.76095">
        <ele>383</ele>
        <time>2015-05-17T07:26:20.000Z</time>
      </trkpt>
      <trkpt lat="47.50121" lon="6.76087">
        <ele>384</ele>
        <time>2015-05-17T07:26:21.000Z</time>
      </trkpt>
      <trkpt lat="47.5012" lon="6.76075">
        <ele>380</ele>
        <time>2015-05-17T07:26:22.000Z</time>
      </trkpt>
      <trkpt lat="47.50118" lon="6.76064">
        <ele>380</ele>
        <time>2015-05-17T07:26:23.000Z</time>
      </trkpt>
      <trkpt lat="47.50114" lon="6.76051">
        <ele>380</ele>
        <time>2015-05-17T07:26:24.000Z</time>
      </trkpt>
      <trkpt lat="47.50113" lon="6.76034">
        <ele>379</ele>
        <time>2015-05-17T07:26:25.000Z</time>
      </trkpt>
      <trkpt lat="47.50112" lon="6.7602">
        <ele>379</ele>
        <time>2015-05-17T07:26:26.000Z</time>
      </trkpt>
      <trkpt lat="47.5011" lon="6.76006">
        <ele>379</ele>
        <time>2015-05-17T07:26:27.000Z</time>
      </trkpt>
      <trkpt lat="47.5011" lon="6.75995">
        <ele>375</ele>
        <time>2015-05-17T07:26:28.000Z</time>
      </trkpt>
      <trkpt lat="47.50104" lon="6.75987">
        <ele>375</ele>
        <time>2015-05-17T07:26:29.000Z</time>
      </trkpt>
      <trkpt lat="47.50101" lon="6.75979">
        <ele>375</ele>
        <time>2015-05-17T07:26:30.000Z</time>
      </trkpt>
      <trkpt lat="47.50097" lon="6.75971">
        <ele>374</ele>
        <time>2015-05-17T07:26:31.000Z</time>
      </trkpt>
      <trkpt lat="47.50094" lon="6.75963">
        <ele>374</ele>
        <time>2015-05-17T07:26:32.000Z</time>
      </trkpt>
      <trkpt lat="47.50091" lon="6.75952">
        <ele>373</ele>
        <time>2015-05-17T07:26:33.000Z</time>
      </trkpt>
      <trkpt lat="47.50093" lon="6.7594">
        <ele>373</ele>
        <time>2015-05-17T07:26:34.000Z</time>
      </trkpt>
      <trkpt lat="47.5009" lon="6.75932">
        <ele>373</ele>
        <time>2015-05-17T07:26:35.000Z</time>
      </trkpt>
      <trkpt lat="47.50085" lon="6.75923">
        <ele>374</ele>
        <time>2015-05-17T07:26:36.000Z</time>
      </trkpt>
      <trkpt lat="47.50081" lon="6.75913">
        <ele>374</ele>
        <time>2015-05-17T07:26:37.000Z</time>
      </trkpt>
      <trkpt lat="47.50076" lon="6.75904">
        <ele>375</ele>
        <time>2015-05-17T07:26:38.000Z</time>
      </trkpt>
      <trkpt lat="47.5007" lon="6.75895">
        <ele>375</ele>
        <time>2015-05-17T07:26:39.000Z</time>
      </trkpt>
      <trkpt lat="47.50065" lon="6.75887">
        <ele>375</ele>
        <time>2015-05-17T07:26:40.000Z</time>
      </trkpt>
      <trkpt lat="47.50059" lon="6.75879">
        <ele>376</ele>
        <time>2015-05-17T07:26:41.000Z</time>
      </trkpt>
      <trkpt lat="47.50052" lon="6.75867">
        <ele>376</ele>
        <time>2015-05-17T07:26:42.000Z</time>
      </trkpt>
      <trkpt lat="47.50047" lon="6.75857">
        <ele>376</ele>
        <time>2015-05-17T07:26:43.000Z</time>
      </trkpt>
      <trkpt lat="47.50042" lon="6.75847">
        <ele>376</ele>
        <time>2015-05-17T07:26:44.000Z</time>
      </trkpt>
      <trkpt lat="47.50038" lon="6.75836">
        <ele>376</ele>
        <time>2015-05-17T07:26:45.000Z</time>
      </trkpt>
      <trkpt lat="47.50033" lon="6.75826">
        <ele>375</ele>
        <time>2015-05-17T07:26:46.000Z</time>
      </trkpt>
      <trkpt lat="47.50029" lon="6.75814">
        <ele>375</ele>
        <time>2015-05-17T07:26:47.000Z</time>
      </trkpt>
      <trkpt lat="47.50022" lon="6.75804">
        <ele>375</ele>
        <time>2015-05-17T07:26:48.000Z</time>
      </trkpt>
      <trkpt lat="47.50019" lon="6.75795">
        <ele>375</ele>
        <time>2015-05-17T07:26:49.000Z</time>
      </trkpt>
      <trkpt lat="47.50015" lon="6.75786">
        <ele>375</ele>
        <time>2015-05-17T07:26:50.000Z</time>
      </trkpt>
      <trkpt lat="47.50008" lon="6.75775">
        <ele>375</ele>
        <time>2015-05-17T07:26:51.000Z</time>
      </trkpt>
      <trkpt lat="47.50002" lon="6.75762">
        <ele>376</ele>
        <time>2015-05-17T07:26:52.000Z</time>
      </trkpt>
      <trkpt lat="47.49995" lon="6.75753">
        <ele>376</ele>
        <time>2015-05-17T07:26:53.000Z</time>
      </trkpt>
      <trkpt lat="47.4999" lon="6.75746">
        <ele>374</ele>
        <time>2015-05-17T07:26:54.000Z</time>
      </trkpt>
      <trkpt lat="47.49984" lon="6.75738">
        <ele>373</ele>
        <time>2015-05-17T07:26:55.000Z</time>
      </trkpt>
      <trkpt lat="47.49976" lon="6.75733">
        <ele>372</ele>
        <time>2015-05-17T07:26:56.000Z</time>
      </trkpt>
      <trkpt lat="47.49971" lon="6.75727">
        <ele>371</ele>
        <time>2015-05-17T07:26:57.000Z</time>
      </trkpt>
      <trkpt lat="47.49967" lon="6.75718">
        <ele>371</ele>
        <time>2015-05-17T07:26:58.000Z</time>
      </trkpt>
      <trkpt lat="47.49962" lon="6.7571">
        <ele>370</ele>
        <time>2015-05-17T07:26:59.000Z</time>
      </trkpt>
      <trkpt lat="47.49955" lon="6.75705">
        <ele>370</ele>
        <time>2015-05-17T07:27:00.000Z</time>
      </trkpt>
      <trkpt lat="47.49948" lon="6.75701">
        <ele>370</ele>
        <time>2015-05-17T07:27:01.000Z</time>
      </trkpt>
      <trkpt lat="47.49936" lon="6.75698">
        <ele>370</ele>
        <time>2015-05-17T07:27:02.000Z</time>
      </trkpt>
      <trkpt lat="47.49928" lon="6.75699">
        <ele>369</ele>
        <time>2015-05-17T07:27:03.000Z</time>
      </trkpt>
      <trkpt lat="47.49916" lon="6.75699">
        <ele>365</ele>
        <time>2015-05-17T07:27:04.000Z</time>
      </trkpt>
      <trkpt lat="47.49905" lon="6.75702">
        <ele>364</ele>
        <time>2015-05-17T07:27:05.000Z</time>
      </trkpt>
      <trkpt lat="47.49896" lon="6.757">
        <ele>364</ele>
        <time>2015-05-17T07:27:06.000Z</time>
      </trkpt>
      <trkpt lat="47.49888" lon="6.757">
        <ele>363</ele>
        <time>2015-05-17T07:27:07.000Z</time>
      </trkpt>
      <trkpt lat="47.49873" lon="6.75703">
        <ele>362</ele>
        <time>2015-05-17T07:27:08.000Z</time>
      </trkpt>
      <trkpt lat="47.49865" lon="6.75704">
        <ele>362</ele>
        <time>2015-05-17T07:27:09.000Z</time>
      </trkpt>
      <trkpt lat="47.49853" lon="6.75708">
        <ele>361</ele>
        <time>2015-05-17T07:27:10.000Z</time>
      </trkpt>
      <trkpt lat="47.49841" lon="6.75714">
        <ele>361</ele>
        <time>2015-05-17T07:27:11.000Z</time>
      </trkpt>
      <trkpt lat="47.49831" lon="6.7572">
        <ele>354</ele>
        <time>2015-05-17T07:27:12.000Z</time>
      </trkpt>
      <trkpt lat="47.49824" lon="6.75722">
        <ele>353</ele>
        <time>2015-05-17T07:27:13.000Z</time>
      </trkpt>
      <trkpt lat="47.49813" lon="6.75726">
        <ele>353</ele>
        <time>2015-05-17T07:27:14.000Z</time>
      </trkpt>
      <trkpt lat="47.49798" lon="6.75727">
        <ele>352</ele>
        <time>2015-05-17T07:27:15.000Z</time>
      </trkpt>
      <trkpt lat="47.49787" lon="6.7573">
        <ele>351</ele>
        <time>2015-05-17T07:27:16.000Z</time>
      </trkpt>
      <trkpt lat="47.49778" lon="6.75734">
        <ele>351</ele>
        <time>2015-05-17T07:27:17.000Z</time>
      </trkpt>
      <trkpt lat="47.49768" lon="6.7574">
        <ele>351</ele>
        <time>2015-05-17T07:27:18.000Z</time>
      </trkpt>
      <trkpt lat="47.49758" lon="6.75743">
        <ele>351</ele>
        <time>2015-05-17T07:27:19.000Z</time>
      </trkpt>
      <trkpt lat="47.49749" lon="6.75749">
        <ele>350</ele>
        <time>2015-05-17T07:27:20.000Z</time>
      </trkpt>
      <trkpt lat="47.49741" lon="6.75755">
        <ele>352</ele>
        <time>2015-05-17T07:27:21.000Z</time>
      </trkpt>
      <trkpt lat="47.49731" lon="6.7576">
        <ele>353</ele>
        <time>2015-05-17T07:27:22.000Z</time>
      </trkpt>
      <trkpt lat="47.49723" lon="6.75764">
        <ele>353</ele>
        <time>2015-05-17T07:27:23.000Z</time>
      </trkpt>
      <trkpt lat="47.49714" lon="6.75767">
        <ele>353</ele>
        <time>2015-05-17T07:27:24.000Z</time>
      </trkpt>
      <trkpt lat="47.49706" lon="6.75769">
        <ele>353</ele>
        <time>2015-05-17T07:27:25.000Z</time>
      </trkpt>
      <trkpt lat="47.49699" lon="6.75771">
        <ele>352</ele>
        <time>2015-05-17T07:27:26.000Z</time>
      </trkpt>
      <trkpt lat="47.4969" lon="6.75772">
        <ele>352</ele>
        <time>2015-05-17T07:27:27.000Z</time>
      </trkpt>
      <trkpt lat="47.49683" lon="6.75774">
        <ele>351</ele>
        <time>2015-05-17T07:27:28.000Z</time>
      </trkpt>
      <trkpt lat="47.49675" lon="6.75773">
        <ele>351</ele>
        <time>2015-05-17T07:27:29.000Z</time>
      </trkpt>
      <trkpt lat="47.49668" lon="6.75773">
        <ele>350</ele>
        <time>2015-05-17T07:27:30.000Z</time>
      </trkpt>
      <trkpt lat="47.49661" lon="6.75771">
        <ele>346</ele>
        <time>2015-05-17T07:27:31.000Z</time>
      </trkpt>
      <trkpt lat="47.49654" lon="6.75768">
        <ele>345</ele>
        <time>2015-05-17T07:27:32.000Z</time>
      </trkpt>
      <trkpt lat="47.49647" lon="6.75766">
        <ele>345</ele>
        <time>2015-05-17T07:27:33.000Z</time>
      </trkpt>
      <trkpt lat="47.49641" lon="6.75764">
        <ele>345</ele>
        <time>2015-05-17T07:27:34.000Z</time>
      </trkpt>
      <trkpt lat="47.49635" lon="6.75762">
        <ele>345</ele>
        <time>2015-05-17T07:27:35.000Z</time>
      </trkpt>
      <trkpt lat="47.49627" lon="6.7576">
        <ele>344</ele>
        <time>2015-05-17T07:27:36.000Z</time>
      </trkpt>
      <trkpt lat="47.4962" lon="6.75762">
        <ele>344</ele>
        <time>2015-05-17T07:27:37.000Z</time>
      </trkpt>
      <trkpt lat="47.49614" lon="6.75762">
        <ele>343</ele>
        <time>2015-05-17T07:27:38.000Z</time>
      </trkpt>
      <trkpt lat="47.4961" lon="6.7576">
        <ele>342</ele>
        <time>2015-05-17T07:27:39.000Z</time>
      </trkpt>
      <trkpt lat="47.49604" lon="6.75761">
        <ele>341</ele>
        <time>2015-05-17T07:27:40.000Z</time>
      </trkpt>
      <trkpt lat="47.49598" lon="6.75758">
        <ele>340</ele>
        <time>2015-05-17T07:27:41.000Z</time>
      </trkpt>
      <trkpt lat="47.49593" lon="6.75756">
        <ele>338</ele>
        <time>2015-05-17T07:27:42.000Z</time>
      </trkpt>
      <trkpt lat="47.49588" lon="6.75754">
        <ele>337</ele>
        <time>2015-05-17T07:27:43.000Z</time>
      </trkpt>
      <trkpt lat="47.49582" lon="6.75748">
        <ele>333</ele>
        <time>2015-05-17T07:27:44.000Z</time>
      </trkpt>
      <trkpt lat="47.49576" lon="6.75744">
        <ele>331</ele>
        <time>2015-05-17T07:27:45.000Z</time>
      </trkpt>
      <trkpt lat="47.49576" lon="6.75738">
        <ele>330</ele>
        <time>2015-05-17T07:27:46.000Z</time>
      </trkpt>
      <trkpt lat="47.49574" lon="6.75733">
        <ele>329</ele>
        <time>2015-05-17T07:27:47.000Z</time>
      </trkpt>
      <trkpt lat="47.49572" lon="6.75738">
        <ele>329</ele>
        <time>2015-05-17T07:27:48.000Z</time>
      </trkpt>
      <trkpt lat="47.49564" lon="6.75745">
        <ele>329</ele>
        <time>2015-05-17T07:27:49.000Z</time>
      </trkpt>
      <trkpt lat="47.49565" lon="6.75743">
        <ele>329</ele>
        <time>2015-05-17T07:27:51.000Z</time>
      </trkpt>
      <trkpt lat="47.4957" lon="6.7574">
        <ele>329</ele>
        <time>2015-05-17T07:27:52.000Z</time>
      </trkpt>
      <trkpt lat="47.49574" lon="6.75739">
        <ele>330</ele>
        <time>2015-05-17T07:27:53.000Z</time>
      </trkpt>
      <trkpt lat="47.49577" lon="6.75733">
        <ele>329</ele>
        <time>2015-05-17T07:27:54.000Z</time>
      </trkpt>
      <trkpt lat="47.4958" lon="6.75728">
        <ele>328</ele>
        <time>2015-05-17T07:27:55.000Z</time>
      </trkpt>
      <trkpt lat="47.49584" lon="6.75722">
        <ele>331</ele>
        <time>2015-05-17T07:27:56.000Z</time>
      </trkpt>
      <trkpt lat="47.49588" lon="6.75718">
        <ele>331</ele>
        <time>2015-05-17T07:27:57.000Z</time>
      </trkpt>
      <trkpt lat="47.49593" lon="6.75714">
        <ele>331</ele>
        <time>2015-05-17T07:27:58.000Z</time>
      </trkpt>
      <trkpt lat="47.49596" lon="6.75708">
        <ele>330</ele>
        <time>2015-05-17T07:27:59.000Z</time>
      </trkpt>
      <trkpt lat="47.49596" lon="6.75699">
        <ele>329</ele>
        <time>2015-05-17T07:28:00.000Z</time>
      </trkpt>
      <trkpt lat="47.49594" lon="6.7569">
        <ele>328</ele>
        <time>2015-05-17T07:28:01.000Z</time>
      </trkpt>
      <trkpt lat="47.49589" lon="6.75682">
        <ele>326</ele>
        <time>2015-05-17T07:28:02.000Z</time>
      </trkpt>
      <trkpt lat="47.49585" lon="6.75676">
        <ele>324</ele>
        <time>2015-05-17T07:28:03.000Z</time>
      </trkpt>
      <trkpt lat="47.49581" lon="6.7567">
        <ele>322</ele>
        <time>2015-05-17T07:28:04.000Z</time>
      </trkpt>
      <trkpt lat="47.49576" lon="6.75666">
        <ele>321</ele>
        <time>2015-05-17T07:28:05.000Z</time>
      </trkpt>
      <trkpt lat="47.49571" lon="6.75667">
        <ele>323</ele>
        <time>2015-05-17T07:28:06.000Z</time>
      </trkpt>
      <trkpt lat="47.49567" lon="6.75673">
        <ele>323</ele>
        <time>2015-05-17T07:28:07.000Z</time>
      </trkpt>
      <trkpt lat="47.49562" lon="6.75679">
        <ele>324</ele>
        <time>2015-05-17T07:28:08.000Z</time>
      </trkpt>
      <trkpt lat="47.49557" lon="6.75685">
        <ele>324</ele>
        <time>2015-05-17T07:28:09.000Z</time>
      </trkpt>
      <trkpt lat="47.49553" lon="6.75691">
        <ele>324</ele>
        <time>2015-05-17T07:28:09.999Z</time>
      </trkpt>
      <trkpt lat="47.49548" lon="6.75698">
        <ele>325</ele>
        <time>2015-05-17T07:28:11.000Z</time>
      </trkpt>
      <trkpt lat="47.49546" lon="6.75707">
        <ele>325</ele>
        <time>2015-05-17T07:28:12.000Z</time>
      </trkpt>
      <trkpt lat="47.49543" lon="6.75715">
        <ele>325</ele>
        <time>2015-05-17T07:28:13.000Z</time>
      </trkpt>
      <trkpt lat="47.49535" lon="6.75716">
        <ele>325</ele>
        <time>2015-05-17T07:28:14.000Z</time>
      </trkpt>
      <trkpt lat="47.4953" lon="6.7572">
        <ele>325</ele>
        <time>2015-05-17T07:28:15.000Z</time>
      </trkpt>
      <trkpt lat="47.49525" lon="6.75724">
        <ele>325</ele>
        <time>2015-05-17T07:28:16.000Z</time>
      </trkpt>
      <trkpt lat="47.4952" lon="6.75727">
        <ele>325</ele>
        <time>2015-05-17T07:28:16.999Z</time>
      </trkpt>
      <trkpt lat="47.49516" lon="6.7573">
        <ele>325</ele>
        <time>2015-05-17T07:28:18.000Z</time>
      </trkpt>
      <trkpt lat="47.49508" lon="6.75732">
        <ele>325</ele>
        <time>2015-05-17T07:28:19.000Z</time>
      </trkpt>
      <trkpt lat="47.49502" lon="6.75735">
        <ele>324</ele>
        <time>2015-05-17T07:28:20.000Z</time>
      </trkpt>
      <trkpt lat="47.49499" lon="6.75738">
        <ele>323</ele>
        <time>2015-05-17T07:28:21.000Z</time>
      </trkpt>
      <trkpt lat="47.49495" lon="6.7574">
        <ele>323</ele>
        <time>2015-05-17T07:28:22.000Z</time>
      </trkpt>
      <trkpt lat="47.49489" lon="6.75743">
        <ele>323</ele>
        <time>2015-05-17T07:28:23.000Z</time>
      </trkpt>
      <trkpt lat="47.49485" lon="6.75733">
        <ele>322</ele>
        <time>2015-05-17T07:28:24.000Z</time>
      </trkpt>
      <trkpt lat="47.49482" lon="6.75725">
        <ele>322</ele>
        <time>2015-05-17T07:28:25.000Z</time>
      </trkpt>
      <trkpt lat="47.49479" lon="6.75718">
        <ele>322</ele>
        <time>2015-05-17T07:28:26.000Z</time>
      </trkpt>
      <trkpt lat="47.49477" lon="6.75709">
        <ele>321</ele>
        <time>2015-05-17T07:28:27.001Z</time>
      </trkpt>
      <trkpt lat="47.49475" lon="6.75701">
        <ele>321</ele>
        <time>2015-05-17T07:28:28.000Z</time>
      </trkpt>
      <trkpt lat="47.49471" lon="6.75693">
        <ele>321</ele>
        <time>2015-05-17T07:28:29.000Z</time>
      </trkpt>
      <trkpt lat="47.49465" lon="6.75693">
        <ele>321</ele>
        <time>2015-05-17T07:28:30.000Z</time>
      </trkpt>
      <trkpt lat="47.49458" lon="6.75694">
        <ele>321</ele>
        <time>2015-05-17T07:28:31.000Z</time>
      </trkpt>
      <trkpt lat="47.49454" lon="6.75697">
        <ele>321</ele>
        <time>2015-05-17T07:28:32.000Z</time>
      </trkpt>
      <trkpt lat="47.4945" lon="6.75697">
        <ele>321</ele>
        <time>2015-05-17T07:28:33.000Z</time>
      </trkpt>
      <trkpt lat="47.49447" lon="6.75697">
        <ele>321</ele>
        <time>2015-05-17T07:28:34.000Z</time>
      </trkpt>
      <trkpt lat="47.49444" lon="6.75693">
        <ele>321</ele>
        <time>2015-05-17T07:28:35.000Z</time>
      </trkpt>
      <trkpt lat="47.49444" lon="6.75684">
        <ele>320</ele>
        <time>2015-05-17T07:28:36.000Z</time>
      </trkpt>
      <trkpt lat="47.49443" lon="6.75678">
        <ele>320</ele>
        <time>2015-05-17T07:28:37.000Z</time>
      </trkpt>
      <trkpt lat="47.49439" lon="6.75673">
        <ele>320</ele>
        <time>2015-05-17T07:28:38.000Z</time>
      </trkpt>
      <trkpt lat="47.49436" lon="6.7567">
        <ele>320</ele>
        <time>2015-05-17T07:28:39.000Z</time>
      </trkpt>
      <trkpt lat="47.49432" lon="6.75667">
        <ele>320</ele>
        <time>2015-05-17T07:28:40.000Z</time>
      </trkpt>
      <trkpt lat="47.49427" lon="6.75669">
        <ele>320</ele>
        <time>2015-05-17T07:28:41.000Z</time>
      </trkpt>
      <trkpt lat="47.49422" lon="6.75672">
        <ele>319</ele>
        <time>2015-05-17T07:28:42.000Z</time>
      </trkpt>
      <trkpt lat="47.49417" lon="6.75674">
        <ele>320</ele>
        <time>2015-05-17T07:28:43.000Z</time>
      </trkpt>
      <trkpt lat="47.49413" lon="6.75676">
        <ele>319</ele>
        <time>2015-05-17T07:28:44.000Z</time>
      </trkpt>
      <trkpt lat="47.49407" lon="6.75681">
        <ele>319</ele>
        <time>2015-05-17T07:28:45.000Z</time>
      </trkpt>
      <trkpt lat="47.49402" lon="6.75685">
        <ele>319</ele>
        <time>2015-05-17T07:28:46.000Z</time>
      </trkpt>
      <trkpt lat="47.49396" lon="6.75689">
        <ele>319</ele>
        <time>2015-05-17T07:28:47.000Z</time>
      </trkpt>
      <trkpt lat="47.49392" lon="6.75694">
        <ele>319</ele>
        <time>2015-05-17T07:28:48.000Z</time>
      </trkpt>
      <trkpt lat="47.4939" lon="6.75697">
        <ele>319</ele>
        <time>2015-05-17T07:28:49.000Z</time>
      </trkpt>
      <trkpt lat="47.49384" lon="6.757">
        <ele>319</ele>
        <time>2015-05-17T07:28:50.000Z</time>
      </trkpt>
      <trkpt lat="47.4938" lon="6.75702">
        <ele>319</ele>
        <time>2015-05-17T07:28:51.000Z</time>
      </trkpt>
      <trkpt lat="47.49376" lon="6.75703">
        <ele>319</ele>
        <time>2015-05-17T07:28:52.000Z</time>
      </trkpt>
      <trkpt lat="47.49371" lon="6.75706">
        <ele>319</ele>
        <time>2015-05-17T07:28:53.000Z</time>
      </trkpt>
      <trkpt lat="47.49367" lon="6.75708">
        <ele>319</ele>
        <time>2015-05-17T07:28:56.000Z</time>
      </trkpt>
      <trkpt lat="47.49364" lon="6.75709">
        <ele>319</ele>
        <time>2015-05-17T07:28:57.000Z</time>
      </trkpt>
      <trkpt lat="47.49361" lon="6.75709">
        <ele>319</ele>
        <time>2015-05-17T07:28:58.000Z</time>
      </trkpt>
      <trkpt lat="47.49358" lon="6.75711">
        <ele>319</ele>
        <time>2015-05-17T07:28:59.000Z</time>
      </trkpt>
      <trkpt lat="47.49355" lon="6.75713">
        <ele>319</ele>
        <time>2015-05-17T07:29:00.000Z</time>
      </trkpt>
      <trkpt lat="47.49347" lon="6.75718">
        <ele>319</ele>
        <time>2015-05-17T07:29:01.000Z</time>
      </trkpt>
      <trkpt lat="47.49343" lon="6.7572">
        <ele>318</ele>
        <time>2015-05-17T07:29:02.000Z</time>
      </trkpt>
      <trkpt lat="47.49338" lon="6.75727">
        <ele>318</ele>
        <time>2015-05-17T07:29:03.000Z</time>
      </trkpt>
      <trkpt lat="47.49333" lon="6.75732">
        <ele>319</ele>
        <time>2015-05-17T07:29:04.000Z</time>
      </trkpt>
      <trkpt lat="47.49329" lon="6.75736">
        <ele>319</ele>
        <time>2015-05-17T07:29:05.000Z</time>
      </trkpt>
      <trkpt lat="47.49323" lon="6.75739">
        <ele>319</ele>
        <time>2015-05-17T07:29:06.000Z</time>
      </trkpt>
      <trkpt lat="47.49317" lon="6.75744">
        <ele>319</ele>
        <time>2015-05-17T07:29:07.000Z</time>
      </trkpt>
      <trkpt lat="47.49312" lon="6.75748">
        <ele>319</ele>
        <time>2015-05-17T07:29:08.000Z</time>
      </trkpt>
      <trkpt lat="47.49309" lon="6.75754">
        <ele>318</ele>
        <time>2015-05-17T07:29:09.000Z</time>
      </trkpt>
      <trkpt lat="47.49304" lon="6.75759">
        <ele>318</ele>
        <time>2015-05-17T07:29:10.000Z</time>
      </trkpt>
      <trkpt lat="47.49301" lon="6.75765">
        <ele>318</ele>
        <time>2015-05-17T07:29:11.000Z</time>
      </trkpt>
      <trkpt lat="47.49295" lon="6.75772">
        <ele>318</ele>
        <time>2015-05-17T07:29:12.000Z</time>
      </trkpt>
      <trkpt lat="47.49288" lon="6.7578">
        <ele>318</ele>
        <time>2015-05-17T07:29:13.000Z</time>
      </trkpt>
      <trkpt lat="47.49281" lon="6.75788">
        <ele>318</ele>
        <time>2015-05-17T07:29:14.000Z</time>
      </trkpt>
      <trkpt lat="47.49275" lon="6.75796">
        <ele>318</ele>
        <time>2015-05-17T07:29:15.000Z</time>
      </trkpt>
      <trkpt lat="47.4927" lon="6.75804">
        <ele>317</ele>
        <time>2015-05-17T07:29:16.000Z</time>
      </trkpt>
      <trkpt lat="47.49264" lon="6.75811">
        <ele>316</ele>
        <time>2015-05-17T07:29:17.000Z</time>
      </trkpt>
      <trkpt lat="47.49259" lon="6.75818">
        <ele>316</ele>
        <time>2015-05-17T07:29:18.000Z</time>
      </trkpt>
      <trkpt lat="47.49254" lon="6.75825">
        <ele>315</ele>
        <time>2015-05-17T07:29:19.000Z</time>
      </trkpt>
      <trkpt lat="47.49249" lon="6.75832">
        <ele>314</ele>
        <time>2015-05-17T07:29:20.000Z</time>
      </trkpt>
      <trkpt lat="47.49245" lon="6.75841">
        <ele>315</ele>
        <time>2015-05-17T07:29:21.000Z</time>
      </trkpt>
      <trkpt lat="47.49242" lon="6.75848">
        <ele>316</ele>
        <time>2015-05-17T07:29:22.000Z</time>
      </trkpt>
      <trkpt lat="47.49238" lon="6.75856">
        <ele>317</ele>
        <time>2015-05-17T07:29:23.000Z</time>
      </trkpt>
      <trkpt lat="47.49235" lon="6.75865">
        <ele>318</ele>
        <time>2015-05-17T07:29:24.000Z</time>
      </trkpt>
      <trkpt lat="47.49231" lon="6.75873">
        <ele>318</ele>
        <time>2015-05-17T07:29:25.000Z</time>
      </trkpt>
      <trkpt lat="47.49226" lon="6.75882">
        <ele>319</ele>
        <time>2015-05-17T07:29:26.000Z</time>
      </trkpt>
      <trkpt lat="47.49221" lon="6.75889">
        <ele>319</ele>
        <time>2015-05-17T07:29:27.000Z</time>
      </trkpt>
      <trkpt lat="47.49218" lon="6.75897">
        <ele>319</ele>
        <time>2015-05-17T07:29:28.000Z</time>
      </trkpt>
      <trkpt lat="47.49215" lon="6.75904">
        <ele>319</ele>
        <time>2015-05-17T07:29:28.999Z</time>
      </trkpt>
      <trkpt lat="47.49212" lon="6.7591">
        <ele>319</ele>
        <time>2015-05-17T07:29:30.000Z</time>
      </trkpt>
      <trkpt lat="47.49208" lon="6.75918">
        <ele>320</ele>
        <time>2015-05-17T07:29:31.000Z</time>
      </trkpt>
      <trkpt lat="47.49206" lon="6.75926">
        <ele>320</ele>
        <time>2015-05-17T07:29:32.000Z</time>
      </trkpt>
      <trkpt lat="47.492" lon="6.75934">
        <ele>320</ele>
        <time>2015-05-17T07:29:33.000Z</time>
      </trkpt>
      <trkpt lat="47.49195" lon="6.75943">
        <ele>320</ele>
        <time>2015-05-17T07:29:34.000Z</time>
      </trkpt>
      <trkpt lat="47.49192" lon="6.7595">
        <ele>320</ele>
        <time>2015-05-17T07:29:35.000Z</time>
      </trkpt>
      <trkpt lat="47.49187" lon="6.75959">
        <ele>320</ele>
        <time>2015-05-17T07:29:36.000Z</time>
      </trkpt>
      <trkpt lat="47.49185" lon="6.75967">
        <ele>320</ele>
        <time>2015-05-17T07:29:37.000Z</time>
      </trkpt>
      <trkpt lat="47.4918" lon="6.75978">
        <ele>320</ele>
        <time>2015-05-17T07:29:38.000Z</time>
      </trkpt>
      <trkpt lat="47.49175" lon="6.75988">
        <ele>320</ele>
        <time>2015-05-17T07:29:39.000Z</time>
      </trkpt>
      <trkpt lat="47.49171" lon="6.75998">
        <ele>319</ele>
        <time>2015-05-17T07:29:40.000Z</time>
      </trkpt>
      <trkpt lat="47.49167" lon="6.76006">
        <ele>319</ele>
        <time>2015-05-17T07:29:41.000Z</time>
      </trkpt>
      <trkpt lat="47.49165" lon="6.76015">
        <ele>321</ele>
        <time>2015-05-17T07:29:42.000Z</time>
      </trkpt>
      <trkpt lat="47.49162" lon="6.76022">
        <ele>322</ele>
        <time>2015-05-17T07:29:43.000Z</time>
      </trkpt>
      <trkpt lat="47.49159" lon="6.76031">
        <ele>322</ele>
        <time>2015-05-17T07:29:44.000Z</time>
      </trkpt>
      <trkpt lat="47.49155" lon="6.76041">
        <ele>323</ele>
        <time>2015-05-17T07:29:45.000Z</time>
      </trkpt>
      <trkpt lat="47.49151" lon="6.7605">
        <ele>323</ele>
        <time>2015-05-17T07:29:46.000Z</time>
      </trkpt>
      <trkpt lat="47.49149" lon="6.76057">
        <ele>322</ele>
        <time>2015-05-17T07:29:47.000Z</time>
      </trkpt>
      <trkpt lat="47.49146" lon="6.76066">
        <ele>322</ele>
        <time>2015-05-17T07:29:48.000Z</time>
      </trkpt>
      <trkpt lat="47.49143" lon="6.76076">
        <ele>322</ele>
        <time>2015-05-17T07:29:49.000Z</time>
      </trkpt>
      <trkpt lat="47.4914" lon="6.76087">
        <ele>321</ele>
        <time>2015-05-17T07:29:50.000Z</time>
      </trkpt>
      <trkpt lat="47.49138" lon="6.76098">
        <ele>322</ele>
        <time>2015-05-17T07:29:51.000Z</time>
      </trkpt>
      <trkpt lat="47.49136" lon="6.76108">
        <ele>322</ele>
        <time>2015-05-17T07:29:52.000Z</time>
      </trkpt>
      <trkpt lat="47.49134" lon="6.76118">
        <ele>322</ele>
        <time>2015-05-17T07:29:53.000Z</time>
      </trkpt>
      <trkpt lat="47.49131" lon="6.76128">
        <ele>322</ele>
        <time>2015-05-17T07:29:54.000Z</time>
      </trkpt>
      <trkpt lat="47.49129" lon="6.76137">
        <ele>322</ele>
        <time>2015-05-17T07:29:55.000Z</time>
      </trkpt>
      <trkpt lat="47.49127" lon="6.76146">
        <ele>322</ele>
        <time>2015-05-17T07:29:56.000Z</time>
      </trkpt>
      <trkpt lat="47.49124" lon="6.76157">
        <ele>322</ele>
        <time>2015-05-17T07:29:57.000Z</time>
      </trkpt>
      <trkpt lat="47.49123" lon="6.76168">
        <ele>321</ele>
        <time>2015-05-17T07:29:58.000Z</time>
      </trkpt>
      <trkpt lat="47.49121" lon="6.7618">
        <ele>321</ele>
        <time>2015-05-17T07:29:59.000Z</time>
      </trkpt>
      <trkpt lat="47.4912" lon="6.7619">
        <ele>321</ele>
        <time>2015-05-17T07:30:00.000Z</time>
      </trkpt>
      <trkpt lat="47.49119" lon="6.762">
        <ele>321</ele>
        <time>2015-05-17T07:30:01.000Z</time>
      </trkpt>
      <trkpt lat="47.49118" lon="6.76209">
        <ele>321</ele>
        <time>2015-05-17T07:30:02.000Z</time>
      </trkpt>
      <trkpt lat="47.49116" lon="6.76218">
        <ele>321</ele>
        <time>2015-05-17T07:30:03.000Z</time>
      </trkpt>
      <trkpt lat="47.49116" lon="6.7623">
        <ele>321</ele>
        <time>2015-05-17T07:30:04.000Z</time>
      </trkpt>
      <trkpt lat="47.49116" lon="6.76239">
        <ele>321</ele>
        <time>2015-05-17T07:30:05.000Z</time>
      </trkpt>
      <trkpt lat="47.49115" lon="6.76247">
        <ele>322</ele>
        <time>2015-05-17T07:30:06.000Z</time>
      </trkpt>
      <trkpt lat="47.49114" lon="6.76254">
        <ele>321</ele>
        <time>2015-05-17T07:30:07.000Z</time>
      </trkpt>
      <trkpt lat="47.49114" lon="6.76261">
        <ele>321</ele>
        <time>2015-05-17T07:30:08.000Z</time>
      </trkpt>
      <trkpt lat="47.49115" lon="6.76269">
        <ele>320</ele>
        <time>2015-05-17T07:30:09.000Z</time>
      </trkpt>
      <trkpt lat="47.49114" lon="6.76277">
        <ele>320</ele>
        <time>2015-05-17T07:30:10.000Z</time>
      </trkpt>
      <trkpt lat="47.49115" lon="6.76285">
        <ele>320</ele>
        <time>2015-05-17T07:30:11.000Z</time>
      </trkpt>
      <trkpt lat="47.49113" lon="6.76296">
        <ele>320</ele>
        <time>2015-05-17T07:30:12.000Z</time>
      </trkpt>
      <trkpt lat="47.49113" lon="6.76307">
        <ele>320</ele>
        <time>2015-05-17T07:30:13.000Z</time>
      </trkpt>
      <trkpt lat="47.49113" lon="6.76315">
        <ele>320</ele>
        <time>2015-05-17T07:30:14.000Z</time>
      </trkpt>
      <trkpt lat="47.49114" lon="6.76325">
        <ele>320</ele>
        <time>2015-05-17T07:30:15.000Z</time>
      </trkpt>
      <trkpt lat="47.49114" lon="6.76334">
        <ele>319</ele>
        <time>2015-05-17T07:30:16.000Z</time>
      </trkpt>
      <trkpt lat="47.49113" lon="6.76342">
        <ele>319</ele>
        <time>2015-05-17T07:30:17.000Z</time>
      </trkpt>
      <trkpt lat="47.49112" lon="6.7635">
        <ele>319</ele>
        <time>2015-05-17T07:30:18.000Z</time>
      </trkpt>
      <trkpt lat="47.49112" lon="6.76359">
        <ele>319</ele>
        <time>2015-05-17T07:30:19.000Z</time>
      </trkpt>
      <trkpt lat="47.49113" lon="6.76372">
        <ele>318</ele>
        <time>2015-05-17T07:30:20.000Z</time>
      </trkpt>
      <trkpt lat="47.49112" lon="6.76381">
        <ele>318</ele>
        <time>2015-05-17T07:30:21.000Z</time>
      </trkpt>
      <trkpt lat="47.49112" lon="6.76391">
        <ele>318</ele>
        <time>2015-05-17T07:30:22.000Z</time>
      </trkpt>
      <trkpt lat="47.49113" lon="6.764">
        <ele>318</ele>
        <time>2015-05-17T07:30:23.000Z</time>
      </trkpt>
      <trkpt lat="47.49113" lon="6.76409">
        <ele>318</ele>
        <time>2015-05-17T07:30:24.000Z</time>
      </trkpt>
      <trkpt lat="47.49113" lon="6.76419">
        <ele>318</ele>
        <time>2015-05-17T07:30:25.000Z</time>
      </trkpt>
      <trkpt lat="47.49113" lon="6.76427">
        <ele>318</ele>
        <time>2015-05-17T07:30:26.000Z</time>
      </trkpt>
      <trkpt lat="47.49112" lon="6.76436">
        <ele>318</ele>
        <time>2015-05-17T07:30:27.000Z</time>
      </trkpt>
      <trkpt lat="47.49112" lon="6.76446">
        <ele>318</ele>
        <time>2015-05-17T07:30:28.000Z</time>
      </trkpt>
      <trkpt lat="47.49112" lon="6.76454">
        <ele>318</ele>
        <time>2015-05-17T07:30:29.000Z</time>
      </trkpt>
      <trkpt lat="47.49112" lon="6.76463">
        <ele>318</ele>
        <time>2015-05-17T07:30:30.000Z</time>
      </trkpt>
      <trkpt lat="47.49112" lon="6.76472">
        <ele>318</ele>
        <time>2015-05-17T07:30:31.000Z</time>
      </trkpt>
      <trkpt lat="47.49112" lon="6.76482">
        <ele>318</ele>
        <time>2015-05-17T07:30:32.000Z</time>
      </trkpt>
      <trkpt lat="47.49112" lon="6.7649">
        <ele>318</ele>
        <time>2015-05-17T07:30:33.000Z</time>
      </trkpt>
      <trkpt lat="47.49116" lon="6.76503">
        <ele>317</ele>
        <time>2015-05-17T07:30:34.000Z</time>
      </trkpt>
      <trkpt lat="47.49123" lon="6.76513">
        <ele>316</ele>
        <time>2015-05-17T07:30:35.000Z</time>
      </trkpt>
      <trkpt lat="47.4913" lon="6.7652">
        <ele>316</ele>
        <time>2015-05-17T07:30:36.000Z</time>
      </trkpt>
      <trkpt lat="47.49137" lon="6.76524">
        <ele>315</ele>
        <time>2015-05-17T07:30:37.000Z</time>
      </trkpt>
      <trkpt lat="47.49144" lon="6.76522">
        <ele>315</ele>
        <time>2015-05-17T07:30:38.000Z</time>
      </trkpt>
      <trkpt lat="47.4915" lon="6.76519">
        <ele>315</ele>
        <time>2015-05-17T07:30:39.000Z</time>
      </trkpt>
      <trkpt lat="47.49156" lon="6.76516">
        <ele>314</ele>
        <time>2015-05-17T07:30:40.000Z</time>
      </trkpt>
      <trkpt lat="47.49161" lon="6.76511">
        <ele>314</ele>
        <time>2015-05-17T07:30:41.000Z</time>
      </trkpt>
      <trkpt lat="47.49165" lon="6.76508">
        <ele>314</ele>
        <time>2015-05-17T07:30:42.000Z</time>
      </trkpt>
      <trkpt lat="47.49168" lon="6.76505">
        <ele>314</ele>
        <time>2015-05-17T07:30:43.000Z</time>
      </trkpt>
      <trkpt lat="47.4917" lon="6.76504">
        <ele>314</ele>
        <time>2015-05-17T07:30:44.001Z</time>
      </trkpt>
      <trkpt lat="47.49173" lon="6.76502">
        <ele>314</ele>
        <time>2015-05-17T07:30:45.000Z</time>
      </trkpt>
      <trkpt lat="47.49176" lon="6.76498">
        <ele>315</ele>
        <time>2015-05-17T07:30:46.000Z</time>
      </trkpt>
      <trkpt lat="47.49178" lon="6.76495">
        <ele>315</ele>
        <time>2015-05-17T07:30:46.999Z</time>
      </trkpt>
      <trkpt lat="47.49178" lon="6.76491">
        <ele>315</ele>
        <time>2015-05-17T07:30:48.000Z</time>
      </trkpt>
      <trkpt lat="47.49177" lon="6.76488">
        <ele>315</ele>
        <time>2015-05-17T07:30:49.000Z</time>
      </trkpt>
      <trkpt lat="47.49177" lon="6.76484">
        <ele>316</ele>
        <time>2015-05-17T07:30:50.001Z</time>
      </trkpt>
      <trkpt lat="47.49173" lon="6.76482">
        <ele>316</ele>
        <time>2015-05-17T07:30:53.001Z</time>
      </trkpt>
      <trkpt lat="47.49171" lon="6.76483">
        <ele>315</ele>
        <time>2015-05-17T07:30:54.000Z</time>
      </trkpt>
      <trkpt lat="47.49173" lon="6.76481">
        <ele>316</ele>
        <time>2015-05-17T07:31:51.000Z</time>
      </trkpt>
      <trkpt lat="47.49175" lon="6.76481">
        <ele>316</ele>
        <time>2015-05-17T07:31:52.000Z</time>
      </trkpt>
      <trkpt lat="47.49177" lon="6.76481">
        <ele>316</ele>
        <time>2015-05-17T07:31:53.000Z</time>
      </trkpt>
      <trkpt lat="47.4918" lon="6.76484">
        <ele>316</ele>
        <time>2015-05-17T07:31:54.000Z</time>
      </trkpt>
      <trkpt lat="47.49182" lon="6.76488">
        <ele>316</ele>
        <time>2015-05-17T07:31:55.000Z</time>
      </trkpt>
      <trkpt lat="47.49184" lon="6.76493">
        <ele>316</ele>
        <time>2015-05-17T07:31:56.000Z</time>
      </trkpt>
      <trkpt lat="47.49183" lon="6.76497">
        <ele>315</ele>
        <time>2015-05-17T07:31:57.000Z</time>
      </trkpt>
      <trkpt lat="47.49181" lon="6.765">
        <ele>315</ele>
        <time>2015-05-17T07:31:58.000Z</time>
      </trkpt>
      <trkpt lat="47.49178" lon="6.76503">
        <ele>315</ele>
        <time>2015-05-17T07:31:59.000Z</time>
      </trkpt>
      <trkpt lat="47.49175" lon="6.76504">
        <ele>314</ele>
        <time>2015-05-17T07:32:00.000Z</time>
      </trkpt>
      <trkpt lat="47.49172" lon="6.76506">
        <ele>314</ele>
        <time>2015-05-17T07:32:01.000Z</time>
      </trkpt>
      <trkpt lat="47.49169" lon="6.76508">
        <ele>314</ele>
        <time>2015-05-17T07:32:02.000Z</time>
      </trkpt>
      <trkpt lat="47.49166" lon="6.7651">
        <ele>314</ele>
        <time>2015-05-17T07:32:03.000Z</time>
      </trkpt>
      <trkpt lat="47.49163" lon="6.76513">
        <ele>314</ele>
        <time>2015-05-17T07:32:04.000Z</time>
      </trkpt>
      <trkpt lat="47.49159" lon="6.76515">
        <ele>314</ele>
        <time>2015-05-17T07:32:05.000Z</time>
      </trkpt>
      <trkpt lat="47.49155" lon="6.76517">
        <ele>315</ele>
        <time>2015-05-17T07:32:06.000Z</time>
      </trkpt>
      <trkpt lat="47.49151" lon="6.7652">
        <ele>315</ele>
        <time>2015-05-17T07:32:07.000Z</time>
      </trkpt>
      <trkpt lat="47.49147" lon="6.76522">
        <ele>315</ele>
        <time>2015-05-17T07:32:08.000Z</time>
      </trkpt>
      <trkpt lat="47.49143" lon="6.76524">
        <ele>315</ele>
        <time>2015-05-17T07:32:09.000Z</time>
      </trkpt>
      <trkpt lat="47.49139" lon="6.76523">
        <ele>315</ele>
        <time>2015-05-17T07:32:10.000Z</time>
      </trkpt>
      <trkpt lat="47.49136" lon="6.76522">
        <ele>315</ele>
        <time>2015-05-17T07:32:11.000Z</time>
      </trkpt>
      <trkpt lat="47.49132" lon="6.76521">
        <ele>316</ele>
        <time>2015-05-17T07:32:12.000Z</time>
      </trkpt>
      <trkpt lat="47.49128" lon="6.76522">
        <ele>316</ele>
        <time>2015-05-17T07:32:13.000Z</time>
      </trkpt>
      <trkpt lat="47.49125" lon="6.76524">
        <ele>316</ele>
        <time>2015-05-17T07:32:14.000Z</time>
      </trkpt>
      <trkpt lat="47.49123" lon="6.76528">
        <ele>316</ele>
        <time>2015-05-17T07:32:15.000Z</time>
      </trkpt>
      <trkpt lat="47.49122" lon="6.76534">
        <ele>316</ele>
        <time>2015-05-17T07:32:16.000Z</time>
      </trkpt>
      <trkpt lat="47.49121" lon="6.76541">
        <ele>316</ele>
        <time>2015-05-17T07:32:17.000Z</time>
      </trkpt>
      <trkpt lat="47.49121" lon="6.76548">
        <ele>316</ele>
        <time>2015-05-17T07:32:18.000Z</time>
      </trkpt>
      <trkpt lat="47.49123" lon="6.76562">
        <ele>316</ele>
        <time>2015-05-17T07:32:19.000Z</time>
      </trkpt>
      <trkpt lat="47.49126" lon="6.76574">
        <ele>315</ele>
        <time>2015-05-17T07:32:20.000Z</time>
      </trkpt>
      <trkpt lat="47.49127" lon="6.76582">
        <ele>315</ele>
        <time>2015-05-17T07:32:21.000Z</time>
      </trkpt>
      <trkpt lat="47.49127" lon="6.7659">
        <ele>314</ele>
        <time>2015-05-17T07:32:22.000Z</time>
      </trkpt>
      <trkpt lat="47.49129" lon="6.76597">
        <ele>314</ele>
        <time>2015-05-17T07:32:23.000Z</time>
      </trkpt>
      <trkpt lat="47.49128" lon="6.76604">
        <ele>314</ele>
        <time>2015-05-17T07:32:24.000Z</time>
      </trkpt>
      <trkpt lat="47.49127" lon="6.7661">
        <ele>314</ele>
        <time>2015-05-17T07:32:25.000Z</time>
      </trkpt>
      <trkpt lat="47.49127" lon="6.76616">
        <ele>314</ele>
        <time>2015-05-17T07:32:26.000Z</time>
      </trkpt>
      <trkpt lat="47.49129" lon="6.76625">
        <ele>314</ele>
        <time>2015-05-17T07:32:27.000Z</time>
      </trkpt>
      <trkpt lat="47.49129" lon="6.7663">
        <ele>314</ele>
        <time>2015-05-17T07:32:28.000Z</time>
      </trkpt>
      <trkpt lat="47.4913" lon="6.76639">
        <ele>314</ele>
        <time>2015-05-17T07:32:29.000Z</time>
      </trkpt>
      <trkpt lat="47.49133" lon="6.7665">
        <ele>314</ele>
        <time>2015-05-17T07:32:30.000Z</time>
      </trkpt>
      <trkpt lat="47.49135" lon="6.76658">
        <ele>314</ele>
        <time>2015-05-17T07:32:31.000Z</time>
      </trkpt>
      <trkpt lat="47.49135" lon="6.76665">
        <ele>314</ele>
        <time>2015-05-17T07:32:32.000Z</time>
      </trkpt>
      <trkpt lat="47.49135" lon="6.76672">
        <ele>314</ele>
        <time>2015-05-17T07:32:33.000Z</time>
      </trkpt>
      <trkpt lat="47.49135" lon="6.76679">
        <ele>314</ele>
        <time>2015-05-17T07:32:34.001Z</time>
      </trkpt>
      <trkpt lat="47.49136" lon="6.76687">
        <ele>313</ele>
        <time>2015-05-17T07:32:35.000Z</time>
      </trkpt>
      <trkpt lat="47.49137" lon="6.76693">
        <ele>313</ele>
        <time>2015-05-17T07:32:36.000Z</time>
      </trkpt>
      <trkpt lat="47.49137" lon="6.76699">
        <ele>313</ele>
        <time>2015-05-17T07:32:37.000Z</time>
      </trkpt>
      <trkpt lat="47.49138" lon="6.76707">
        <ele>313</ele>
        <time>2015-05-17T07:32:38.000Z</time>
      </trkpt>
      <trkpt lat="47.49139" lon="6.76715">
        <ele>313</ele>
        <time>2015-05-17T07:32:39.000Z</time>
      </trkpt>
      <trkpt lat="47.49139" lon="6.76723">
        <ele>313</ele>
        <time>2015-05-17T07:32:40.000Z</time>
      </trkpt>
      <trkpt lat="47.49139" lon="6.76732">
        <ele>313</ele>
        <time>2015-05-17T07:32:41.000Z</time>
      </trkpt>
      <trkpt lat="47.4914" lon="6.76742">
        <ele>313</ele>
        <time>2015-05-17T07:32:42.000Z</time>
      </trkpt>
      <trkpt lat="47.49141" lon="6.76753">
        <ele>313</ele>
        <time>2015-05-17T07:32:43.000Z</time>
      </trkpt>
      <trkpt lat="47.49141" lon="6.76762">
        <ele>312</ele>
        <time>2015-05-17T07:32:44.000Z</time>
      </trkpt>
      <trkpt lat="47.49143" lon="6.76771">
        <ele>312</ele>
        <time>2015-05-17T07:32:45.000Z</time>
      </trkpt>
      <trkpt lat="47.49142" lon="6.76778">
        <ele>312</ele>
        <time>2015-05-17T07:32:46.000Z</time>
      </trkpt>
      <trkpt lat="47.49143" lon="6.76786">
        <ele>312</ele>
        <time>2015-05-17T07:32:47.000Z</time>
      </trkpt>
      <trkpt lat="47.49144" lon="6.76793">
        <ele>312</ele>
        <time>2015-05-17T07:32:48.000Z</time>
      </trkpt>
      <trkpt lat="47.49144" lon="6.76801">
        <ele>312</ele>
        <time>2015-05-17T07:32:49.000Z</time>
      </trkpt>
      <trkpt lat="47.49145" lon="6.76809">
        <ele>312</ele>
        <time>2015-05-17T07:32:50.000Z</time>
      </trkpt>
      <trkpt lat="47.49144" lon="6.76817">
        <ele>312</ele>
        <time>2015-05-17T07:32:51.000Z</time>
      </trkpt>
      <trkpt lat="47.49145" lon="6.76825">
        <ele>312</ele>
        <time>2015-05-17T07:32:52.000Z</time>
      </trkpt>
      <trkpt lat="47.49145" lon="6.76834">
        <ele>312</ele>
        <time>2015-05-17T07:32:53.000Z</time>
      </trkpt>
      <trkpt lat="47.49146" lon="6.76844">
        <ele>312</ele>
        <time>2015-05-17T07:32:54.000Z</time>
      </trkpt>
      <trkpt lat="47.49148" lon="6.76853">
        <ele>312</ele>
        <time>2015-05-17T07:32:55.000Z</time>
      </trkpt>
      <trkpt lat="47.49147" lon="6.76861">
        <ele>312</ele>
        <time>2015-05-17T07:32:56.000Z</time>
      </trkpt>
      <trkpt lat="47.49147" lon="6.7687">
        <ele>312</ele>
        <time>2015-05-17T07:32:57.000Z</time>
      </trkpt>
      <trkpt lat="47.49147" lon="6.76879">
        <ele>312</ele>
        <time>2015-05-17T07:32:58.000Z</time>
      </trkpt>
      <trkpt lat="47.49147" lon="6.76889">
        <ele>312</ele>
        <time>2015-05-17T07:32:59.000Z</time>
      </trkpt>
      <trkpt lat="47.49147" lon="6.76896">
        <ele>312</ele>
        <time>2015-05-17T07:33:00.000Z</time>
      </trkpt>
      <trkpt lat="47.49146" lon="6.76903">
        <ele>312</ele>
        <time>2015-05-17T07:33:01.000Z</time>
      </trkpt>
      <trkpt lat="47.49146" lon="6.76912">
        <ele>312</ele>
        <time>2015-05-17T07:33:02.000Z</time>
      </trkpt>
      <trkpt lat="47.49146" lon="6.7692">
        <ele>312</ele>
        <time>2015-05-17T07:33:03.000Z</time>
      </trkpt>
      <trkpt lat="47.49144" lon="6.76927">
        <ele>312</ele>
        <time>2015-05-17T07:33:04.000Z</time>
      </trkpt>
      <trkpt lat="47.49144" lon="6.76938">
        <ele>312</ele>
        <time>2015-05-17T07:33:05.000Z</time>
      </trkpt>
      <trkpt lat="47.49144" lon="6.76947">
        <ele>312</ele>
        <time>2015-05-17T07:33:05.999Z</time>
      </trkpt>
      <trkpt lat="47.49145" lon="6.76955">
        <ele>312</ele>
        <time>2015-05-17T07:33:07.002Z</time>
      </trkpt>
      <trkpt lat="47.49144" lon="6.76962">
        <ele>312</ele>
        <time>2015-05-17T07:33:08.000Z</time>
      </trkpt>
      <trkpt lat="47.49143" lon="6.76968">
        <ele>312</ele>
        <time>2015-05-17T07:33:09.000Z</time>
      </trkpt>
      <trkpt lat="47.49142" lon="6.76976">
        <ele>312</ele>
        <time>2015-05-17T07:33:10.000Z</time>
      </trkpt>
      <trkpt lat="47.49145" lon="6.76986">
        <ele>312</ele>
        <time>2015-05-17T07:33:11.000Z</time>
      </trkpt>
      <trkpt lat="47.49146" lon="6.76992">
        <ele>312</ele>
        <time>2015-05-17T07:33:12.000Z</time>
      </trkpt>
      <trkpt lat="47.49147" lon="6.76999">
        <ele>312</ele>
        <time>2015-05-17T07:33:13.000Z</time>
      </trkpt>
      <trkpt lat="47.49149" lon="6.77004">
        <ele>312</ele>
        <time>2015-05-17T07:33:14.000Z</time>
      </trkpt>
      <trkpt lat="47.49151" lon="6.77009">
        <ele>312</ele>
        <time>2015-05-17T07:33:15.000Z</time>
      </trkpt>
      <trkpt lat="47.49157" lon="6.77017">
        <ele>312</ele>
        <time>2015-05-17T07:33:16.000Z</time>
      </trkpt>
      <trkpt lat="47.49159" lon="6.77025">
        <ele>312</ele>
        <time>2015-05-17T07:33:17.000Z</time>
      </trkpt>
      <trkpt lat="47.4916" lon="6.77032">
        <ele>312</ele>
        <time>2015-05-17T07:33:18.000Z</time>
      </trkpt>
      <trkpt lat="47.49161" lon="6.7704">
        <ele>312</ele>
        <time>2015-05-17T07:33:19.000Z</time>
      </trkpt>
      <trkpt lat="47.49161" lon="6.77047">
        <ele>312</ele>
        <time>2015-05-17T07:33:20.000Z</time>
      </trkpt>
      <trkpt lat="47.49162" lon="6.77054">
        <ele>312</ele>
        <time>2015-05-17T07:33:21.000Z</time>
      </trkpt>
      <trkpt lat="47.49161" lon="6.7706">
        <ele>312</ele>
        <time>2015-05-17T07:33:21.999Z</time>
      </trkpt>
      <trkpt lat="47.49165" lon="6.77069">
        <ele>312</ele>
        <time>2015-05-17T07:33:23.000Z</time>
      </trkpt>
      <trkpt lat="47.49165" lon="6.77076">
        <ele>312</ele>
        <time>2015-05-17T07:33:23.999Z</time>
      </trkpt>
      <trkpt lat="47.49166" lon="6.77079">
        <ele>312</ele>
        <time>2015-05-17T07:33:25.000Z</time>
      </trkpt>
      <trkpt lat="47.49166" lon="6.77083">
        <ele>312</ele>
        <time>2015-05-17T07:33:26.002Z</time>
      </trkpt>
      <trkpt lat="47.49168" lon="6.77091">
        <ele>312</ele>
        <time>2015-05-17T07:33:27.000Z</time>
      </trkpt>
      <trkpt lat="47.49168" lon="6.77097">
        <ele>312</ele>
        <time>2015-05-17T07:33:28.000Z</time>
      </trkpt>
      <trkpt lat="47.49167" lon="6.77106">
        <ele>312</ele>
        <time>2015-05-17T07:33:29.000Z</time>
      </trkpt>
      <trkpt lat="47.49168" lon="6.77111">
        <ele>313</ele>
        <time>2015-05-17T07:33:30.000Z</time>
      </trkpt>
      <trkpt lat="47.49169" lon="6.77117">
        <ele>313</ele>
        <time>2015-05-17T07:33:31.000Z</time>
      </trkpt>
      <trkpt lat="47.4917" lon="6.77123">
        <ele>313</ele>
        <time>2015-05-17T07:33:32.000Z</time>
      </trkpt>
      <trkpt lat="47.49172" lon="6.77128">
        <ele>313</ele>
        <time>2015-05-17T07:33:33.000Z</time>
      </trkpt>
      <trkpt lat="47.49174" lon="6.77133">
        <ele>313</ele>
        <time>2015-05-17T07:33:34.000Z</time>
      </trkpt>
      <trkpt lat="47.49177" lon="6.77138">
        <ele>313</ele>
        <time>2015-05-17T07:33:35.000Z</time>
      </trkpt>
      <trkpt lat="47.49179" lon="6.77144">
        <ele>313</ele>
        <time>2015-05-17T07:33:36.000Z</time>
      </trkpt>
      <trkpt lat="47.49181" lon="6.77157">
        <ele>313</ele>
        <time>2015-05-17T07:33:37.000Z</time>
      </trkpt>
      <trkpt lat="47.49181" lon="6.77164">
        <ele>313</ele>
        <time>2015-05-17T07:33:38.000Z</time>
      </trkpt>
      <trkpt lat="47.4918" lon="6.77171">
        <ele>313</ele>
        <time>2015-05-17T07:33:39.000Z</time>
      </trkpt>
      <trkpt lat="47.49182" lon="6.7718">
        <ele>313</ele>
        <time>2015-05-17T07:33:40.000Z</time>
      </trkpt>
      <trkpt lat="47.49182" lon="6.77189">
        <ele>313</ele>
        <time>2015-05-17T07:33:41.000Z</time>
      </trkpt>
      <trkpt lat="47.49183" lon="6.77198">
        <ele>312</ele>
        <time>2015-05-17T07:33:42.000Z</time>
      </trkpt>
      <trkpt lat="47.49182" lon="6.77204">
        <ele>312</ele>
        <time>2015-05-17T07:33:43.000Z</time>
      </trkpt>
      <trkpt lat="47.49182" lon="6.77212">
        <ele>312</ele>
        <time>2015-05-17T07:33:44.000Z</time>
      </trkpt>
      <trkpt lat="47.49182" lon="6.7722">
        <ele>312</ele>
        <time>2015-05-17T07:33:45.000Z</time>
      </trkpt>
      <trkpt lat="47.49182" lon="6.77227">
        <ele>312</ele>
        <time>2015-05-17T07:33:46.000Z</time>
      </trkpt>
      <trkpt lat="47.49182" lon="6.77233">
        <ele>312</ele>
        <time>2015-05-17T07:33:46.999Z</time>
      </trkpt>
      <trkpt lat="47.49184" lon="6.77244">
        <ele>312</ele>
        <time>2015-05-17T07:33:48.000Z</time>
      </trkpt>
      <trkpt lat="47.49185" lon="6.77253">
        <ele>311</ele>
        <time>2015-05-17T07:33:49.000Z</time>
      </trkpt>
      <trkpt lat="47.49184" lon="6.77262">
        <ele>311</ele>
        <time>2015-05-17T07:33:50.000Z</time>
      </trkpt>
      <trkpt lat="47.49183" lon="6.77271">
        <ele>311</ele>
        <time>2015-05-17T07:33:51.000Z</time>
      </trkpt>
      <trkpt lat="47.49183" lon="6.77282">
        <ele>311</ele>
        <time>2015-05-17T07:33:52.000Z</time>
      </trkpt>
      <trkpt lat="47.49183" lon="6.77291">
        <ele>311</ele>
        <time>2015-05-17T07:33:53.000Z</time>
      </trkpt>
      <trkpt lat="47.49182" lon="6.77301">
        <ele>311</ele>
        <time>2015-05-17T07:33:54.000Z</time>
      </trkpt>
      <trkpt lat="47.49183" lon="6.7731">
        <ele>311</ele>
        <time>2015-05-17T07:33:55.000Z</time>
      </trkpt>
      <trkpt lat="47.49181" lon="6.77318">
        <ele>310</ele>
        <time>2015-05-17T07:33:56.000Z</time>
      </trkpt>
      <trkpt lat="47.49181" lon="6.77327">
        <ele>310</ele>
        <time>2015-05-17T07:33:57.000Z</time>
      </trkpt>
      <trkpt lat="47.49178" lon="6.77328">
        <ele>310</ele>
        <time>2015-05-17T07:33:58.000Z</time>
      </trkpt>
      <trkpt lat="47.49175" lon="6.77329">
        <ele>310</ele>
        <time>2015-05-17T07:33:59.000Z</time>
      </trkpt>
      <trkpt lat="47.49172" lon="6.7733">
        <ele>310</ele>
        <time>2015-05-17T07:34:00.000Z</time>
      </trkpt>
      <trkpt lat="47.49167" lon="6.7733">
        <ele>310</ele>
        <time>2015-05-17T07:34:01.000Z</time>
      </trkpt>
      <trkpt lat="47.49163" lon="6.77328">
        <ele>310</ele>
        <time>2015-05-17T07:34:02.000Z</time>
      </trkpt>
      <trkpt lat="47.49157" lon="6.77327">
        <ele>310</ele>
        <time>2015-05-17T07:34:03.000Z</time>
      </trkpt>
      <trkpt lat="47.49153" lon="6.77326">
        <ele>311</ele>
        <time>2015-05-17T07:34:04.000Z</time>
      </trkpt>
      <trkpt lat="47.49148" lon="6.77326">
        <ele>311</ele>
        <time>2015-05-17T07:34:05.000Z</time>
      </trkpt>
      <trkpt lat="47.49143" lon="6.77326">
        <ele>311</ele>
        <time>2015-05-17T07:34:06.000Z</time>
      </trkpt>
      <trkpt lat="47.49137" lon="6.77326">
        <ele>311</ele>
        <time>2015-05-17T07:34:07.000Z</time>
      </trkpt>
      <trkpt lat="47.49132" lon="6.77327">
        <ele>311</ele>
        <time>2015-05-17T07:34:08.000Z</time>
      </trkpt>
      <trkpt lat="47.49127" lon="6.77324">
        <ele>311</ele>
        <time>2015-05-17T07:34:09.000Z</time>
      </trkpt>
      <trkpt lat="47.49121" lon="6.77323">
        <ele>311</ele>
        <time>2015-05-17T07:34:10.000Z</time>
      </trkpt>
      <trkpt lat="47.49113" lon="6.77322">
        <ele>311</ele>
        <time>2015-05-17T07:34:11.000Z</time>
      </trkpt>
      <trkpt lat="47.49107" lon="6.77321">
        <ele>311</ele>
        <time>2015-05-17T07:34:12.000Z</time>
      </trkpt>
      <trkpt lat="47.491" lon="6.7732">
        <ele>311</ele>
        <time>2015-05-17T07:34:13.000Z</time>
      </trkpt>
      <trkpt lat="47.49094" lon="6.7732">
        <ele>311</ele>
        <time>2015-05-17T07:34:14.000Z</time>
      </trkpt>
      <trkpt lat="47.49088" lon="6.7732">
        <ele>311</ele>
        <time>2015-05-17T07:34:15.000Z</time>
      </trkpt>
      <trkpt lat="47.49083" lon="6.7732">
        <ele>311</ele>
        <time>2015-05-17T07:34:16.000Z</time>
      </trkpt>
      <trkpt lat="47.49077" lon="6.7732">
        <ele>311</ele>
        <time>2015-05-17T07:34:17.000Z</time>
      </trkpt>
      <trkpt lat="47.4907" lon="6.77319">
        <ele>311</ele>
        <time>2015-05-17T07:34:18.000Z</time>
      </trkpt>
      <trkpt lat="47.49063" lon="6.77318">
        <ele>311</ele>
        <time>2015-05-17T07:34:19.000Z</time>
      </trkpt>
      <trkpt lat="47.49057" lon="6.77317">
        <ele>311</ele>
        <time>2015-05-17T07:34:20.000Z</time>
      </trkpt>
      <trkpt lat="47.49053" lon="6.77318">
        <ele>311</ele>
        <time>2015-05-17T07:34:21.000Z</time>
      </trkpt>
      <trkpt lat="47.49048" lon="6.7732">
        <ele>311</ele>
        <time>2015-05-17T07:34:22.000Z</time>
      </trkpt>
      <trkpt lat="47.49043" lon="6.77321">
        <ele>311</ele>
        <time>2015-05-17T07:34:23.001Z</time>
      </trkpt>
      <trkpt lat="47.49041" lon="6.77317">
        <ele>311</ele>
        <time>2015-05-17T07:34:25.000Z</time>
      </trkpt>
      <trkpt lat="47.49032" lon="6.77317">
        <ele>311</ele>
        <time>2015-05-17T07:34:26.000Z</time>
      </trkpt>
      <trkpt lat="47.49026" lon="6.77317">
        <ele>311</ele>
        <time>2015-05-17T07:34:27.000Z</time>
      </trkpt>
      <trkpt lat="47.49019" lon="6.77316">
        <ele>311</ele>
        <time>2015-05-17T07:34:28.000Z</time>
      </trkpt>
      <trkpt lat="47.49013" lon="6.77314">
        <ele>311</ele>
        <time>2015-05-17T07:34:28.999Z</time>
      </trkpt>
      <trkpt lat="47.49007" lon="6.77315">
        <ele>311</ele>
        <time>2015-05-17T07:34:30.000Z</time>
      </trkpt>
      <trkpt lat="47.49001" lon="6.77317">
        <ele>311</ele>
        <time>2015-05-17T07:34:31.000Z</time>
      </trkpt>
      <trkpt lat="47.48996" lon="6.77315">
        <ele>311</ele>
        <time>2015-05-17T07:34:32.000Z</time>
      </trkpt>
      <trkpt lat="47.48989" lon="6.77315">
        <ele>311</ele>
        <time>2015-05-17T07:34:33.000Z</time>
      </trkpt>
      <trkpt lat="47.48982" lon="6.77314">
        <ele>311</ele>
        <time>2015-05-17T07:34:34.000Z</time>
      </trkpt>
      <trkpt lat="47.48975" lon="6.77314">
        <ele>311</ele>
        <time>2015-05-17T07:34:35.000Z</time>
      </trkpt>
      <trkpt lat="47.48969" lon="6.77314">
        <ele>311</ele>
        <time>2015-05-17T07:34:36.000Z</time>
      </trkpt>
      <trkpt lat="47.48962" lon="6.77312">
        <ele>311</ele>
        <time>2015-05-17T07:34:37.000Z</time>
      </trkpt>
      <trkpt lat="47.48956" lon="6.77311">
        <ele>311</ele>
        <time>2015-05-17T07:34:38.002Z</time>
      </trkpt>
      <trkpt lat="47.48949" lon="6.77308">
        <ele>311</ele>
        <time>2015-05-17T07:34:39.000Z</time>
      </trkpt>
      <trkpt lat="47.48943" lon="6.77306">
        <ele>311</ele>
        <time>2015-05-17T07:34:40.000Z</time>
      </trkpt>
      <trkpt lat="47.48937" lon="6.77304">
        <ele>311</ele>
        <time>2015-05-17T07:34:41.000Z</time>
      </trkpt>
      <trkpt lat="47.48932" lon="6.77301">
        <ele>311</ele>
        <time>2015-05-17T07:34:42.000Z</time>
      </trkpt>
      <trkpt lat="47.48927" lon="6.77297">
        <ele>311</ele>
        <time>2015-05-17T07:34:42.999Z</time>
      </trkpt>
      <trkpt lat="47.4892" lon="6.77296">
        <ele>311</ele>
        <time>2015-05-17T07:34:44.000Z</time>
      </trkpt>
      <trkpt lat="47.48915" lon="6.77294">
        <ele>310</ele>
        <time>2015-05-17T07:34:45.000Z</time>
      </trkpt>
      <trkpt lat="47.48909" lon="6.77292">
        <ele>310</ele>
        <time>2015-05-17T07:34:46.000Z</time>
      </trkpt>
      <trkpt lat="47.48904" lon="6.77289">
        <ele>310</ele>
        <time>2015-05-17T07:34:47.000Z</time>
      </trkpt>
      <trkpt lat="47.48899" lon="6.77287">
        <ele>310</ele>
        <time>2015-05-17T07:34:48.000Z</time>
      </trkpt>
      <trkpt lat="47.48895" lon="6.77284">
        <ele>310</ele>
        <time>2015-05-17T07:34:48.999Z</time>
      </trkpt>
      <trkpt lat="47.4889" lon="6.77282">
        <ele>310</ele>
        <time>2015-05-17T07:34:50.000Z</time>
      </trkpt>
      <trkpt lat="47.48885" lon="6.77281">
        <ele>310</ele>
        <time>2015-05-17T07:34:51.000Z</time>
      </trkpt>
      <trkpt lat="47.4888" lon="6.7728">
        <ele>310</ele>
        <time>2015-05-17T07:34:51.999Z</time>
      </trkpt>
      <trkpt lat="47.48873" lon="6.77275">
        <ele>310</ele>
        <time>2015-05-17T07:34:53.000Z</time>
      </trkpt>
      <trkpt lat="47.48867" lon="6.77272">
        <ele>310</ele>
        <time>2015-05-17T07:34:54.000Z</time>
      </trkpt>
      <trkpt lat="47.48862" lon="6.77267">
        <ele>310</ele>
        <time>2015-05-17T07:34:55.000Z</time>
      </trkpt>
      <trkpt lat="47.48857" lon="6.77263">
        <ele>310</ele>
        <time>2015-05-17T07:34:56.000Z</time>
      </trkpt>
      <trkpt lat="47.48852" lon="6.77259">
        <ele>310</ele>
        <time>2015-05-17T07:34:56.999Z</time>
      </trkpt>
      <trkpt lat="47.48846" lon="6.77256">
        <ele>311</ele>
        <time>2015-05-17T07:34:58.000Z</time>
      </trkpt>
      <trkpt lat="47.48841" lon="6.77252">
        <ele>311</ele>
        <time>2015-05-17T07:34:59.000Z</time>
      </trkpt>
      <trkpt lat="47.48837" lon="6.77248">
        <ele>311</ele>
        <time>2015-05-17T07:35:00.000Z</time>
      </trkpt>
      <trkpt lat="47.4883" lon="6.77244">
        <ele>311</ele>
        <time>2015-05-17T07:35:01.000Z</time>
      </trkpt>
      <trkpt lat="47.48826" lon="6.7724">
        <ele>311</ele>
        <time>2015-05-17T07:35:02.000Z</time>
      </trkpt>
      <trkpt lat="47.48819" lon="6.77237">
        <ele>311</ele>
        <time>2015-05-17T07:35:03.000Z</time>
      </trkpt>
      <trkpt lat="47.48812" lon="6.77232">
        <ele>311</ele>
        <time>2015-05-17T07:35:04.000Z</time>
      </trkpt>
      <trkpt lat="47.48807" lon="6.77229">
        <ele>311</ele>
        <time>2015-05-17T07:35:05.000Z</time>
      </trkpt>
      <trkpt lat="47.48799" lon="6.77225">
        <ele>310</ele>
        <time>2015-05-17T07:35:06.000Z</time>
      </trkpt>
      <trkpt lat="47.48793" lon="6.77224">
        <ele>310</ele>
        <time>2015-05-17T07:35:07.000Z</time>
      </trkpt>
      <trkpt lat="47.48787" lon="6.77221">
        <ele>310</ele>
        <time>2015-05-17T07:35:08.000Z</time>
      </trkpt>
      <trkpt lat="47.48781" lon="6.77216">
        <ele>310</ele>
        <time>2015-05-17T07:35:09.000Z</time>
      </trkpt>
      <trkpt lat="47.48776" lon="6.77211">
        <ele>310</ele>
        <time>2015-05-17T07:35:10.000Z</time>
      </trkpt>
      <trkpt lat="47.48769" lon="6.77207">
        <ele>310</ele>
        <time>2015-05-17T07:35:11.000Z</time>
      </trkpt>
      <trkpt lat="47.48762" lon="6.77204">
        <ele>310</ele>
        <time>2015-05-17T07:35:12.000Z</time>
      </trkpt>
      <trkpt lat="47.48755" lon="6.77199">
        <ele>310</ele>
        <time>2015-05-17T07:35:13.000Z</time>
      </trkpt>
      <trkpt lat="47.48748" lon="6.77195">
        <ele>310</ele>
        <time>2015-05-17T07:35:13.998Z</time>
      </trkpt>
      <trkpt lat="47.48747" lon="6.77189">
        <ele>310</ele>
        <time>2015-05-17T07:35:15.000Z</time>
      </trkpt>
      <trkpt lat="47.48742" lon="6.77185">
        <ele>311</ele>
        <time>2015-05-17T07:35:16.000Z</time>
      </trkpt>
      <trkpt lat="47.48736" lon="6.7718">
        <ele>311</ele>
        <time>2015-05-17T07:35:17.000Z</time>
      </trkpt>
      <trkpt lat="47.4873" lon="6.77176">
        <ele>311</ele>
        <time>2015-05-17T07:35:18.000Z</time>
      </trkpt>
      <trkpt lat="47.48726" lon="6.77172">
        <ele>311</ele>
        <time>2015-05-17T07:35:19.000Z</time>
      </trkpt>
      <trkpt lat="47.48722" lon="6.77169">
        <ele>311</ele>
        <time>2015-05-17T07:35:20.000Z</time>
      </trkpt>
      <trkpt lat="47.48718" lon="6.77166">
        <ele>311</ele>
        <time>2015-05-17T07:35:20.999Z</time>
      </trkpt>
      <trkpt lat="47.48712" lon="6.77162">
        <ele>311</ele>
        <time>2015-05-17T07:35:22.000Z</time>
      </trkpt>
      <trkpt lat="47.48706" lon="6.77157">
        <ele>311</ele>
        <time>2015-05-17T07:35:23.000Z</time>
      </trkpt>
      <trkpt lat="47.48701" lon="6.77152">
        <ele>311</ele>
        <time>2015-05-17T07:35:24.000Z</time>
      </trkpt>
      <trkpt lat="47.48695" lon="6.77147">
        <ele>311</ele>
        <time>2015-05-17T07:35:24.999Z</time>
      </trkpt>
      <trkpt lat="47.48692" lon="6.77144">
        <ele>311</ele>
        <time>2015-05-17T07:35:26.000Z</time>
      </trkpt>
      <trkpt lat="47.48685" lon="6.77138">
        <ele>311</ele>
        <time>2015-05-17T07:35:27.000Z</time>
      </trkpt>
      <trkpt lat="47.48681" lon="6.77134">
        <ele>312</ele>
        <time>2015-05-17T07:35:28.000Z</time>
      </trkpt>
      <trkpt lat="47.48676" lon="6.77129">
        <ele>312</ele>
        <time>2015-05-17T07:35:29.000Z</time>
      </trkpt>
      <trkpt lat="47.48672" lon="6.77123">
        <ele>312</ele>
        <time>2015-05-17T07:35:30.000Z</time>
      </trkpt>
      <trkpt lat="47.48668" lon="6.77118">
        <ele>312</ele>
        <time>2015-05-17T07:35:31.000Z</time>
      </trkpt>
      <trkpt lat="47.48662" lon="6.77113">
        <ele>312</ele>
        <time>2015-05-17T07:35:32.000Z</time>
      </trkpt>
      <trkpt lat="47.48658" lon="6.77108">
        <ele>312</ele>
        <time>2015-05-17T07:35:32.999Z</time>
      </trkpt>
      <trkpt lat="47.48655" lon="6.77103">
        <ele>312</ele>
        <time>2015-05-17T07:35:34.000Z</time>
      </trkpt>
      <trkpt lat="47.4865" lon="6.77098">
        <ele>312</ele>
        <time>2015-05-17T07:35:35.000Z</time>
      </trkpt>
      <trkpt lat="47.48647" lon="6.77094">
        <ele>312</ele>
        <time>2015-05-17T07:35:36.000Z</time>
      </trkpt>
      <trkpt lat="47.48642" lon="6.77089">
        <ele>312</ele>
        <time>2015-05-17T07:35:37.000Z</time>
      </trkpt>
      <trkpt lat="47.48638" lon="6.77084">
        <ele>312</ele>
        <time>2015-05-17T07:35:38.000Z</time>
      </trkpt>
      <trkpt lat="47.48633" lon="6.77083">
        <ele>313</ele>
        <time>2015-05-17T07:35:39.000Z</time>
      </trkpt>
      <trkpt lat="47.48629" lon="6.7708">
        <ele>313</ele>
        <time>2015-05-17T07:35:39.999Z</time>
      </trkpt>
      <trkpt lat="47.48622" lon="6.77078">
        <ele>313</ele>
        <time>2015-05-17T07:35:41.000Z</time>
      </trkpt>
      <trkpt lat="47.48618" lon="6.77075">
        <ele>313</ele>
        <time>2015-05-17T07:35:42.000Z</time>
      </trkpt>
      <trkpt lat="47.48614" lon="6.77071">
        <ele>313</ele>
        <time>2015-05-17T07:35:43.000Z</time>
      </trkpt>
      <trkpt lat="47.4861" lon="6.77068">
        <ele>313</ele>
        <time>2015-05-17T07:35:44.000Z</time>
      </trkpt>
      <trkpt lat="47.48604" lon="6.77062">
        <ele>313</ele>
        <time>2015-05-17T07:35:44.999Z</time>
      </trkpt>
      <trkpt lat="47.48601" lon="6.77059">
        <ele>313</ele>
        <time>2015-05-17T07:35:46.000Z</time>
      </trkpt>
      <trkpt lat="47.48596" lon="6.77055">
        <ele>313</ele>
        <time>2015-05-17T07:35:47.000Z</time>
      </trkpt>
      <trkpt lat="47.48592" lon="6.77052">
        <ele>313</ele>
        <time>2015-05-17T07:35:48.000Z</time>
      </trkpt>
      <trkpt lat="47.48587" lon="6.77048">
        <ele>314</ele>
        <time>2015-05-17T07:35:49.000Z</time>
      </trkpt>
      <trkpt lat="47.4858" lon="6.7705">
        <ele>314</ele>
        <time>2015-05-17T07:35:50.000Z</time>
      </trkpt>
      <trkpt lat="47.48577" lon="6.77046">
        <ele>314</ele>
        <time>2015-05-17T07:35:51.000Z</time>
      </trkpt>
      <trkpt lat="47.48572" lon="6.77043">
        <ele>314</ele>
        <time>2015-05-17T07:35:52.000Z</time>
      </trkpt>
      <trkpt lat="47.48567" lon="6.77042">
        <ele>314</ele>
        <time>2015-05-17T07:35:53.000Z</time>
      </trkpt>
      <trkpt lat="47.48562" lon="6.77041">
        <ele>314</ele>
        <time>2015-05-17T07:35:53.999Z</time>
      </trkpt>
      <trkpt lat="47.48555" lon="6.77036">
        <ele>314</ele>
        <time>2015-05-17T07:35:55.000Z</time>
      </trkpt>
      <trkpt lat="47.48549" lon="6.77032">
        <ele>314</ele>
        <time>2015-05-17T07:35:56.000Z</time>
      </trkpt>
      <trkpt lat="47.48543" lon="6.77028">
        <ele>314</ele>
        <time>2015-05-17T07:35:57.000Z</time>
      </trkpt>
      <trkpt lat="47.48538" lon="6.77023">
        <ele>314</ele>
        <time>2015-05-17T07:35:58.000Z</time>
      </trkpt>
      <trkpt lat="47.48532" lon="6.77018">
        <ele>315</ele>
        <time>2015-05-17T07:35:59.000Z</time>
      </trkpt>
      <trkpt lat="47.48526" lon="6.77013">
        <ele>315</ele>
        <time>2015-05-17T07:35:59.999Z</time>
      </trkpt>
      <trkpt lat="47.48521" lon="6.77008">
        <ele>315</ele>
        <time>2015-05-17T07:36:01.000Z</time>
      </trkpt>
      <trkpt lat="47.48515" lon="6.77004">
        <ele>315</ele>
        <time>2015-05-17T07:36:02.000Z</time>
      </trkpt>
      <trkpt lat="47.48509" lon="6.77001">
        <ele>315</ele>
        <time>2015-05-17T07:36:03.000Z</time>
      </trkpt>
      <trkpt lat="47.48504" lon="6.76997">
        <ele>316</ele>
        <time>2015-05-17T07:36:04.000Z</time>
      </trkpt>
      <trkpt lat="47.48498" lon="6.76993">
        <ele>316</ele>
        <time>2015-05-17T07:36:05.000Z</time>
      </trkpt>
      <trkpt lat="47.48491" lon="6.76988">
        <ele>316</ele>
        <time>2015-05-17T07:36:06.000Z</time>
      </trkpt>
      <trkpt lat="47.48485" lon="6.76984">
        <ele>315</ele>
        <time>2015-05-17T07:36:07.000Z</time>
      </trkpt>
      <trkpt lat="47.48481" lon="6.76982">
        <ele>315</ele>
        <time>2015-05-17T07:36:08.000Z</time>
      </trkpt>
      <trkpt lat="47.48476" lon="6.76979">
        <ele>315</ele>
        <time>2015-05-17T07:36:09.000Z</time>
      </trkpt>
      <trkpt lat="47.4847" lon="6.76975">
        <ele>315</ele>
        <time>2015-05-17T07:36:09.999Z</time>
      </trkpt>
      <trkpt lat="47.48467" lon="6.7697">
        <ele>315</ele>
        <time>2015-05-17T07:36:11.000Z</time>
      </trkpt>
      <trkpt lat="47.4846" lon="6.76966">
        <ele>315</ele>
        <time>2015-05-17T07:36:12.000Z</time>
      </trkpt>
      <trkpt lat="47.48455" lon="6.76962">
        <ele>315</ele>
        <time>2015-05-17T07:36:13.000Z</time>
      </trkpt>
      <trkpt lat="47.48448" lon="6.7696">
        <ele>315</ele>
        <time>2015-05-17T07:36:14.000Z</time>
      </trkpt>
      <trkpt lat="47.48442" lon="6.76957">
        <ele>315</ele>
        <time>2015-05-17T07:36:15.001Z</time>
      </trkpt>
      <trkpt lat="47.48436" lon="6.76955">
        <ele>315</ele>
        <time>2015-05-17T07:36:16.000Z</time>
      </trkpt>
      <trkpt lat="47.4843" lon="6.76952">
        <ele>314</ele>
        <time>2015-05-17T07:36:17.000Z</time>
      </trkpt>
      <trkpt lat="47.48424" lon="6.76949">
        <ele>314</ele>
        <time>2015-05-17T07:36:18.001Z</time>
      </trkpt>
      <trkpt lat="47.48418" lon="6.76946">
        <ele>314</ele>
        <time>2015-05-17T07:36:19.000Z</time>
      </trkpt>
      <trkpt lat="47.48414" lon="6.76942">
        <ele>312</ele>
        <time>2015-05-17T07:36:20.000Z</time>
      </trkpt>
      <trkpt lat="47.48409" lon="6.7694">
        <ele>312</ele>
        <time>2015-05-17T07:36:21.000Z</time>
      </trkpt>
      <trkpt lat="47.48403" lon="6.76934">
        <ele>312</ele>
        <time>2015-05-17T07:36:22.000Z</time>
      </trkpt>
      <trkpt lat="47.48397" lon="6.7693">
        <ele>312</ele>
        <time>2015-05-17T07:36:22.999Z</time>
      </trkpt>
      <trkpt lat="47.48392" lon="6.76928">
        <ele>312</ele>
        <time>2015-05-17T07:36:24.000Z</time>
      </trkpt>
      <trkpt lat="47.48388" lon="6.76923">
        <ele>312</ele>
        <time>2015-05-17T07:36:25.000Z</time>
      </trkpt>
      <trkpt lat="47.48383" lon="6.7692">
        <ele>312</ele>
        <time>2015-05-17T07:36:25.999Z</time>
      </trkpt>
      <trkpt lat="47.48377" lon="6.76916">
        <ele>311</ele>
        <time>2015-05-17T07:36:27.000Z</time>
      </trkpt>
      <trkpt lat="47.48371" lon="6.76912">
        <ele>311</ele>
        <time>2015-05-17T07:36:28.000Z</time>
      </trkpt>
      <trkpt lat="47.48366" lon="6.76908">
        <ele>311</ele>
        <time>2015-05-17T07:36:29.000Z</time>
      </trkpt>
      <trkpt lat="47.48361" lon="6.76905">
        <ele>311</ele>
        <time>2015-05-17T07:36:30.000Z</time>
      </trkpt>
      <trkpt lat="47.48355" lon="6.76901">
        <ele>311</ele>
        <time>2015-05-17T07:36:31.000Z</time>
      </trkpt>
      <trkpt lat="47.4835" lon="6.76897">
        <ele>311</ele>
        <time>2015-05-17T07:36:32.000Z</time>
      </trkpt>
      <trkpt lat="47.48345" lon="6.76893">
        <ele>311</ele>
        <time>2015-05-17T07:36:33.000Z</time>
      </trkpt>
      <trkpt lat="47.4834" lon="6.76888">
        <ele>311</ele>
        <time>2015-05-17T07:36:34.000Z</time>
      </trkpt>
      <trkpt lat="47.48335" lon="6.76884">
        <ele>311</ele>
        <time>2015-05-17T07:36:35.000Z</time>
      </trkpt>
      <trkpt lat="47.4833" lon="6.76878">
        <ele>310</ele>
        <time>2015-05-17T07:36:36.000Z</time>
      </trkpt>
      <trkpt lat="47.48324" lon="6.76874">
        <ele>310</ele>
        <time>2015-05-17T07:36:37.000Z</time>
      </trkpt>
      <trkpt lat="47.48319" lon="6.7687">
        <ele>310</ele>
        <time>2015-05-17T07:36:38.000Z</time>
      </trkpt>
      <trkpt lat="47.48314" lon="6.76866">
        <ele>310</ele>
        <time>2015-05-17T07:36:39.000Z</time>
      </trkpt>
      <trkpt lat="47.48308" lon="6.76862">
        <ele>310</ele>
        <time>2015-05-17T07:36:40.000Z</time>
      </trkpt>
      <trkpt lat="47.48301" lon="6.76856">
        <ele>310</ele>
        <time>2015-05-17T07:36:41.000Z</time>
      </trkpt>
      <trkpt lat="47.48297" lon="6.76849">
        <ele>310</ele>
        <time>2015-05-17T07:36:42.000Z</time>
      </trkpt>
      <trkpt lat="47.48293" lon="6.76843">
        <ele>310</ele>
        <time>2015-05-17T07:36:43.000Z</time>
      </trkpt>
      <trkpt lat="47.48288" lon="6.76837">
        <ele>311</ele>
        <time>2015-05-17T07:36:44.000Z</time>
      </trkpt>
      <trkpt lat="47.48282" lon="6.76831">
        <ele>313</ele>
        <time>2015-05-17T07:36:45.000Z</time>
      </trkpt>
      <trkpt lat="47.4828" lon="6.76824">
        <ele>313</ele>
        <time>2015-05-17T07:36:46.000Z</time>
      </trkpt>
      <trkpt lat="47.48276" lon="6.76817">
        <ele>313</ele>
        <time>2015-05-17T07:36:47.000Z</time>
      </trkpt>
      <trkpt lat="47.48272" lon="6.76811">
        <ele>313</ele>
        <time>2015-05-17T07:36:48.000Z</time>
      </trkpt>
      <trkpt lat="47.48266" lon="6.76806">
        <ele>313</ele>
        <time>2015-05-17T07:36:49.000Z</time>
      </trkpt>
      <trkpt lat="47.48261" lon="6.76799">
        <ele>313</ele>
        <time>2015-05-17T07:36:50.000Z</time>
      </trkpt>
      <trkpt lat="47.48256" lon="6.76795">
        <ele>313</ele>
        <time>2015-05-17T07:36:51.000Z</time>
      </trkpt>
      <trkpt lat="47.48251" lon="6.76791">
        <ele>313</ele>
        <time>2015-05-17T07:36:52.000Z</time>
      </trkpt>
      <trkpt lat="47.48245" lon="6.76787">
        <ele>312</ele>
        <time>2015-05-17T07:36:53.000Z</time>
      </trkpt>
      <trkpt lat="47.48239" lon="6.76785">
        <ele>312</ele>
        <time>2015-05-17T07:36:54.000Z</time>
      </trkpt>
      <trkpt lat="47.48234" lon="6.76782">
        <ele>312</ele>
        <time>2015-05-17T07:36:55.000Z</time>
      </trkpt>
      <trkpt lat="47.48228" lon="6.76779">
        <ele>312</ele>
        <time>2015-05-17T07:36:56.000Z</time>
      </trkpt>
      <trkpt lat="47.48222" lon="6.76777">
        <ele>312</ele>
        <time>2015-05-17T07:36:57.000Z</time>
      </trkpt>
      <trkpt lat="47.48217" lon="6.76776">
        <ele>312</ele>
        <time>2015-05-17T07:36:58.000Z</time>
      </trkpt>
      <trkpt lat="47.48211" lon="6.76773">
        <ele>312</ele>
        <time>2015-05-17T07:36:59.000Z</time>
      </trkpt>
      <trkpt lat="47.48205" lon="6.76769">
        <ele>312</ele>
        <time>2015-05-17T07:37:00.000Z</time>
      </trkpt>
      <trkpt lat="47.482" lon="6.76766">
        <ele>312</ele>
        <time>2015-05-17T07:37:01.000Z</time>
      </trkpt>
      <trkpt lat="47.48193" lon="6.76761">
        <ele>312</ele>
        <time>2015-05-17T07:37:02.000Z</time>
      </trkpt>
      <trkpt lat="47.48188" lon="6.76756">
        <ele>312</ele>
        <time>2015-05-17T07:37:03.000Z</time>
      </trkpt>
      <trkpt lat="47.48183" lon="6.76751">
        <ele>313</ele>
        <time>2015-05-17T07:37:04.000Z</time>
      </trkpt>
      <trkpt lat="47.48178" lon="6.76744">
        <ele>314</ele>
        <time>2015-05-17T07:37:05.000Z</time>
      </trkpt>
      <trkpt lat="47.48171" lon="6.76739">
        <ele>314</ele>
        <time>2015-05-17T07:37:06.000Z</time>
      </trkpt>
      <trkpt lat="47.48167" lon="6.76732">
        <ele>314</ele>
        <time>2015-05-17T07:37:07.000Z</time>
      </trkpt>
      <trkpt lat="47.48163" lon="6.76724">
        <ele>312</ele>
        <time>2015-05-17T07:37:08.000Z</time>
      </trkpt>
      <trkpt lat="47.48159" lon="6.76716">
        <ele>312</ele>
        <time>2015-05-17T07:37:09.000Z</time>
      </trkpt>
      <trkpt lat="47.48155" lon="6.7671">
        <ele>312</ele>
        <time>2015-05-17T07:37:10.000Z</time>
      </trkpt>
      <trkpt lat="47.48152" lon="6.76703">
        <ele>312</ele>
        <time>2015-05-17T07:37:11.000Z</time>
      </trkpt>
      <trkpt lat="47.48149" lon="6.76695">
        <ele>312</ele>
        <time>2015-05-17T07:37:12.000Z</time>
      </trkpt>
      <trkpt lat="47.48145" lon="6.76687">
        <ele>312</ele>
        <time>2015-05-17T07:37:13.000Z</time>
      </trkpt>
      <trkpt lat="47.4814" lon="6.7668">
        <ele>312</ele>
        <time>2015-05-17T07:37:14.000Z</time>
      </trkpt>
      <trkpt lat="47.48137" lon="6.76674">
        <ele>312</ele>
        <time>2015-05-17T07:37:15.000Z</time>
      </trkpt>
      <trkpt lat="47.48133" lon="6.76668">
        <ele>312</ele>
        <time>2015-05-17T07:37:16.000Z</time>
      </trkpt>
      <trkpt lat="47.48129" lon="6.76662">
        <ele>313</ele>
        <time>2015-05-17T07:37:17.000Z</time>
      </trkpt>
      <trkpt lat="47.48124" lon="6.76656">
        <ele>313</ele>
        <time>2015-05-17T07:37:18.000Z</time>
      </trkpt>
      <trkpt lat="47.48121" lon="6.76649">
        <ele>313</ele>
        <time>2015-05-17T07:37:19.000Z</time>
      </trkpt>
      <trkpt lat="47.48119" lon="6.76643">
        <ele>313</ele>
        <time>2015-05-17T07:37:20.000Z</time>
      </trkpt>
      <trkpt lat="47.48116" lon="6.76637">
        <ele>313</ele>
        <time>2015-05-17T07:37:21.000Z</time>
      </trkpt>
      <trkpt lat="47.48114" lon="6.7663">
        <ele>313</ele>
        <time>2015-05-17T07:37:22.000Z</time>
      </trkpt>
      <trkpt lat="47.48111" lon="6.76625">
        <ele>313</ele>
        <time>2015-05-17T07:37:23.000Z</time>
      </trkpt>
      <trkpt lat="47.48109" lon="6.76617">
        <ele>313</ele>
        <time>2015-05-17T07:37:24.000Z</time>
      </trkpt>
      <trkpt lat="47.48106" lon="6.7661">
        <ele>313</ele>
        <time>2015-05-17T07:37:25.000Z</time>
      </trkpt>
      <trkpt lat="47.48106" lon="6.76603">
        <ele>313</ele>
        <time>2015-05-17T07:37:26.000Z</time>
      </trkpt>
      <trkpt lat="47.48107" lon="6.76596">
        <ele>313</ele>
        <time>2015-05-17T07:37:27.000Z</time>
      </trkpt>
      <trkpt lat="47.48109" lon="6.76588">
        <ele>313</ele>
        <time>2015-05-17T07:37:28.000Z</time>
      </trkpt>
      <trkpt lat="47.48111" lon="6.76583">
        <ele>317</ele>
        <time>2015-05-17T07:37:29.000Z</time>
      </trkpt>
      <trkpt lat="47.48114" lon="6.76577">
        <ele>317</ele>
        <time>2015-05-17T07:37:30.000Z</time>
      </trkpt>
      <trkpt lat="47.48116" lon="6.7657">
        <ele>318</ele>
        <time>2015-05-17T07:37:31.000Z</time>
      </trkpt>
      <trkpt lat="47.4812" lon="6.76564">
        <ele>318</ele>
        <time>2015-05-17T07:37:32.000Z</time>
      </trkpt>
      <trkpt lat="47.48122" lon="6.7656">
        <ele>319</ele>
        <time>2015-05-17T07:37:33.000Z</time>
      </trkpt>
      <trkpt lat="47.48124" lon="6.76557">
        <ele>319</ele>
        <time>2015-05-17T07:37:34.000Z</time>
      </trkpt>
      <trkpt lat="47.48127" lon="6.76552">
        <ele>320</ele>
        <time>2015-05-17T07:37:36.000Z</time>
      </trkpt>
      <trkpt lat="47.48127" lon="6.76547">
        <ele>320</ele>
        <time>2015-05-17T07:37:37.000Z</time>
      </trkpt>
      <trkpt lat="47.48127" lon="6.76537">
        <ele>320</ele>
        <time>2015-05-17T07:37:38.000Z</time>
      </trkpt>
      <trkpt lat="47.48125" lon="6.76529">
        <ele>321</ele>
        <time>2015-05-17T07:37:39.000Z</time>
      </trkpt>
      <trkpt lat="47.48124" lon="6.76523">
        <ele>321</ele>
        <time>2015-05-17T07:37:40.000Z</time>
      </trkpt>
      <trkpt lat="47.48122" lon="6.76517">
        <ele>321</ele>
        <time>2015-05-17T07:37:41.000Z</time>
      </trkpt>
      <trkpt lat="47.48118" lon="6.76513">
        <ele>320</ele>
        <time>2015-05-17T07:37:42.000Z</time>
      </trkpt>
      <trkpt lat="47.48116" lon="6.76509">
        <ele>320</ele>
        <time>2015-05-17T07:37:43.000Z</time>
      </trkpt>
      <trkpt lat="47.48113" lon="6.76507">
        <ele>319</ele>
        <time>2015-05-17T07:37:44.000Z</time>
      </trkpt>
      <trkpt lat="47.4811" lon="6.76508">
        <ele>319</ele>
        <time>2015-05-17T07:37:45.000Z</time>
      </trkpt>
      <trkpt lat="47.48106" lon="6.76511">
        <ele>318</ele>
        <time>2015-05-17T07:37:46.000Z</time>
      </trkpt>
      <trkpt lat="47.48103" lon="6.76516">
        <ele>318</ele>
        <time>2015-05-17T07:37:47.000Z</time>
      </trkpt>
      <trkpt lat="47.48098" lon="6.76524">
        <ele>318</ele>
        <time>2015-05-17T07:37:48.000Z</time>
      </trkpt>
      <trkpt lat="47.48093" lon="6.76527">
        <ele>318</ele>
        <time>2015-05-17T07:37:49.000Z</time>
      </trkpt>
      <trkpt lat="47.48089" lon="6.7653">
        <ele>317</ele>
        <time>2015-05-17T07:37:50.000Z</time>
      </trkpt>
      <trkpt lat="47.48084" lon="6.76533">
        <ele>317</ele>
        <time>2015-05-17T07:37:51.000Z</time>
      </trkpt>
      <trkpt lat="47.48079" lon="6.76538">
        <ele>312</ele>
        <time>2015-05-17T07:37:52.000Z</time>
      </trkpt>
      <trkpt lat="47.48075" lon="6.76543">
        <ele>312</ele>
        <time>2015-05-17T07:37:53.000Z</time>
      </trkpt>
      <trkpt lat="47.48069" lon="6.76546">
        <ele>312</ele>
        <time>2015-05-17T07:37:54.000Z</time>
      </trkpt>
      <trkpt lat="47.48065" lon="6.76548">
        <ele>312</ele>
        <time>2015-05-17T07:37:55.000Z</time>
      </trkpt>
      <trkpt lat="47.4806" lon="6.76552">
        <ele>312</ele>
        <time>2015-05-17T07:37:56.000Z</time>
      </trkpt>
      <trkpt lat="47.48055" lon="6.76556">
        <ele>312</ele>
        <time>2015-05-17T07:37:57.000Z</time>
      </trkpt>
      <trkpt lat="47.48049" lon="6.76558">
        <ele>312</ele>
        <time>2015-05-17T07:37:58.000Z</time>
      </trkpt>
      <trkpt lat="47.48045" lon="6.76561">
        <ele>312</ele>
        <time>2015-05-17T07:37:59.000Z</time>
      </trkpt>
      <trkpt lat="47.48041" lon="6.76566">
        <ele>312</ele>
        <time>2015-05-17T07:38:00.000Z</time>
      </trkpt>
      <trkpt lat="47.48037" lon="6.76569">
        <ele>312</ele>
        <time>2015-05-17T07:38:01.000Z</time>
      </trkpt>
      <trkpt lat="47.48031" lon="6.76572">
        <ele>312</ele>
        <time>2015-05-17T07:38:02.000Z</time>
      </trkpt>
      <trkpt lat="47.48025" lon="6.76575">
        <ele>312</ele>
        <time>2015-05-17T07:38:03.000Z</time>
      </trkpt>
      <trkpt lat="47.48021" lon="6.76578">
        <ele>312</ele>
        <time>2015-05-17T07:38:04.000Z</time>
      </trkpt>
      <trkpt lat="47.48017" lon="6.7658">
        <ele>312</ele>
        <time>2015-05-17T07:38:05.000Z</time>
      </trkpt>
      <trkpt lat="47.48012" lon="6.76584">
        <ele>312</ele>
        <time>2015-05-17T07:38:06.000Z</time>
      </trkpt>
      <trkpt lat="47.48006" lon="6.76587">
        <ele>312</ele>
        <time>2015-05-17T07:38:07.000Z</time>
      </trkpt>
      <trkpt lat="47.48002" lon="6.76591">
        <ele>312</ele>
        <time>2015-05-17T07:38:08.000Z</time>
      </trkpt>
      <trkpt lat="47.47998" lon="6.76593">
        <ele>312</ele>
        <time>2015-05-17T07:38:09.000Z</time>
      </trkpt>
      <trkpt lat="47.47992" lon="6.76597">
        <ele>312</ele>
        <time>2015-05-17T07:38:10.000Z</time>
      </trkpt>
      <trkpt lat="47.47989" lon="6.766">
        <ele>312</ele>
        <time>2015-05-17T07:38:11.000Z</time>
      </trkpt>
      <trkpt lat="47.47985" lon="6.76603">
        <ele>312</ele>
        <time>2015-05-17T07:38:12.000Z</time>
      </trkpt>
      <trkpt lat="47.4798" lon="6.76605">
        <ele>311</ele>
        <time>2015-05-17T07:38:13.000Z</time>
      </trkpt>
      <trkpt lat="47.47977" lon="6.76609">
        <ele>311</ele>
        <time>2015-05-17T07:38:14.000Z</time>
      </trkpt>
      <trkpt lat="47.47973" lon="6.76611">
        <ele>311</ele>
        <time>2015-05-17T07:38:15.001Z</time>
      </trkpt>
      <trkpt lat="47.47972" lon="6.76615">
        <ele>311</ele>
        <time>2015-05-17T07:38:16.000Z</time>
      </trkpt>
      <trkpt lat="47.47968" lon="6.76615">
        <ele>311</ele>
        <time>2015-05-17T07:38:17.000Z</time>
      </trkpt>
      <trkpt lat="47.47963" lon="6.76612">
        <ele>311</ele>
        <time>2015-05-17T07:38:18.000Z</time>
      </trkpt>
      <trkpt lat="47.4796" lon="6.7661">
        <ele>311</ele>
        <time>2015-05-17T07:38:18.999Z</time>
      </trkpt>
      <trkpt lat="47.4796" lon="6.76598">
        <ele>311</ele>
        <time>2015-05-17T07:38:20.000Z</time>
      </trkpt>
      <trkpt lat="47.47958" lon="6.7659">
        <ele>311</ele>
        <time>2015-05-17T07:38:21.000Z</time>
      </trkpt>
      <trkpt lat="47.47956" lon="6.76581">
        <ele>311</ele>
        <time>2015-05-17T07:38:22.000Z</time>
      </trkpt>
      <trkpt lat="47.47954" lon="6.76572">
        <ele>311</ele>
        <time>2015-05-17T07:38:23.000Z</time>
      </trkpt>
      <trkpt lat="47.47952" lon="6.76563">
        <ele>311</ele>
        <time>2015-05-17T07:38:24.000Z</time>
      </trkpt>
      <trkpt lat="47.47949" lon="6.76554">
        <ele>311</ele>
        <time>2015-05-17T07:38:25.000Z</time>
      </trkpt>
      <trkpt lat="47.47946" lon="6.76547">
        <ele>311</ele>
        <time>2015-05-17T07:38:26.000Z</time>
      </trkpt>
      <trkpt lat="47.47943" lon="6.76538">
        <ele>311</ele>
        <time>2015-05-17T07:38:27.001Z</time>
      </trkpt>
      <trkpt lat="47.47943" lon="6.76529">
        <ele>311</ele>
        <time>2015-05-17T07:38:28.000Z</time>
      </trkpt>
      <trkpt lat="47.4794" lon="6.76522">
        <ele>311</ele>
        <time>2015-05-17T07:38:29.000Z</time>
      </trkpt>
      <trkpt lat="47.47938" lon="6.76513">
        <ele>311</ele>
        <time>2015-05-17T07:38:30.000Z</time>
      </trkpt>
      <trkpt lat="47.47936" lon="6.76504">
        <ele>311</ele>
        <time>2015-05-17T07:38:31.001Z</time>
      </trkpt>
      <trkpt lat="47.47935" lon="6.76496">
        <ele>311</ele>
        <time>2015-05-17T07:38:32.000Z</time>
      </trkpt>
      <trkpt lat="47.47933" lon="6.76487">
        <ele>311</ele>
        <time>2015-05-17T07:38:33.000Z</time>
      </trkpt>
      <trkpt lat="47.47932" lon="6.76479">
        <ele>311</ele>
        <time>2015-05-17T07:38:34.000Z</time>
      </trkpt>
      <trkpt lat="47.4793" lon="6.76472">
        <ele>311</ele>
        <time>2015-05-17T07:38:35.000Z</time>
      </trkpt>
      <trkpt lat="47.47929" lon="6.76464">
        <ele>311</ele>
        <time>2015-05-17T07:38:36.000Z</time>
      </trkpt>
      <trkpt lat="47.47927" lon="6.76456">
        <ele>311</ele>
        <time>2015-05-17T07:38:37.000Z</time>
      </trkpt>
      <trkpt lat="47.47925" lon="6.76447">
        <ele>311</ele>
        <time>2015-05-17T07:38:38.000Z</time>
      </trkpt>
      <trkpt lat="47.47922" lon="6.76439">
        <ele>311</ele>
        <time>2015-05-17T07:38:39.000Z</time>
      </trkpt>
      <trkpt lat="47.4792" lon="6.7643">
        <ele>312</ele>
        <time>2015-05-17T07:38:40.000Z</time>
      </trkpt>
      <trkpt lat="47.47917" lon="6.76423">
        <ele>312</ele>
        <time>2015-05-17T07:38:41.000Z</time>
      </trkpt>
      <trkpt lat="47.47915" lon="6.76416">
        <ele>312</ele>
        <time>2015-05-17T07:38:42.000Z</time>
      </trkpt>
      <trkpt lat="47.47913" lon="6.76409">
        <ele>312</ele>
        <time>2015-05-17T07:38:43.000Z</time>
      </trkpt>
      <trkpt lat="47.4791" lon="6.76401">
        <ele>311</ele>
        <time>2015-05-17T07:38:44.000Z</time>
      </trkpt>
      <trkpt lat="47.47907" lon="6.76394">
        <ele>311</ele>
        <time>2015-05-17T07:38:45.000Z</time>
      </trkpt>
      <trkpt lat="47.47905" lon="6.76387">
        <ele>311</ele>
        <time>2015-05-17T07:38:46.000Z</time>
      </trkpt>
      <trkpt lat="47.47903" lon="6.76381">
        <ele>311</ele>
        <time>2015-05-17T07:38:47.000Z</time>
      </trkpt>
      <trkpt lat="47.479" lon="6.76374">
        <ele>311</ele>
        <time>2015-05-17T07:38:48.000Z</time>
      </trkpt>
      <trkpt lat="47.47896" lon="6.76367">
        <ele>311</ele>
        <time>2015-05-17T07:38:49.000Z</time>
      </trkpt>
      <trkpt lat="47.47893" lon="6.76361">
        <ele>311</ele>
        <time>2015-05-17T07:38:50.000Z</time>
      </trkpt>
      <trkpt lat="47.47889" lon="6.76353">
        <ele>311</ele>
        <time>2015-05-17T07:38:51.000Z</time>
      </trkpt>
      <trkpt lat="47.47886" lon="6.76346">
        <ele>311</ele>
        <time>2015-05-17T07:38:52.000Z</time>
      </trkpt>
      <trkpt lat="47.47882" lon="6.76339">
        <ele>311</ele>
        <time>2015-05-17T07:38:53.000Z</time>
      </trkpt>
      <trkpt lat="47.47878" lon="6.76332">
        <ele>310</ele>
        <time>2015-05-17T07:38:54.000Z</time>
      </trkpt>
      <trkpt lat="47.47875" lon="6.76326">
        <ele>310</ele>
        <time>2015-05-17T07:38:55.000Z</time>
      </trkpt>
      <trkpt lat="47.47871" lon="6.7632">
        <ele>310</ele>
        <time>2015-05-17T07:38:56.000Z</time>
      </trkpt>
      <trkpt lat="47.47866" lon="6.76314">
        <ele>310</ele>
        <time>2015-05-17T07:38:57.000Z</time>
      </trkpt>
      <trkpt lat="47.47862" lon="6.76307">
        <ele>310</ele>
        <time>2015-05-17T07:38:58.000Z</time>
      </trkpt>
      <trkpt lat="47.47859" lon="6.76301">
        <ele>310</ele>
        <time>2015-05-17T07:38:59.000Z</time>
      </trkpt>
      <trkpt lat="47.47854" lon="6.76295">
        <ele>310</ele>
        <time>2015-05-17T07:39:00.000Z</time>
      </trkpt>
      <trkpt lat="47.4785" lon="6.76289">
        <ele>310</ele>
        <time>2015-05-17T07:39:01.000Z</time>
      </trkpt>
      <trkpt lat="47.47847" lon="6.76282">
        <ele>310</ele>
        <time>2015-05-17T07:39:02.000Z</time>
      </trkpt>
      <trkpt lat="47.47843" lon="6.76276">
        <ele>311</ele>
        <time>2015-05-17T07:39:03.000Z</time>
      </trkpt>
      <trkpt lat="47.47838" lon="6.76273">
        <ele>311</ele>
        <time>2015-05-17T07:39:04.000Z</time>
      </trkpt>
      <trkpt lat="47.47833" lon="6.76267">
        <ele>310</ele>
        <time>2015-05-17T07:39:05.000Z</time>
      </trkpt>
      <trkpt lat="47.47828" lon="6.76264">
        <ele>310</ele>
        <time>2015-05-17T07:39:06.000Z</time>
      </trkpt>
      <trkpt lat="47.47822" lon="6.76264">
        <ele>310</ele>
        <time>2015-05-17T07:39:07.000Z</time>
      </trkpt>
      <trkpt lat="47.47817" lon="6.76262">
        <ele>310</ele>
        <time>2015-05-17T07:39:08.000Z</time>
      </trkpt>
      <trkpt lat="47.47812" lon="6.7626">
        <ele>310</ele>
        <time>2015-05-17T07:39:09.000Z</time>
      </trkpt>
      <trkpt lat="47.47806" lon="6.76257">
        <ele>310</ele>
        <time>2015-05-17T07:39:10.000Z</time>
      </trkpt>
      <trkpt lat="47.47799" lon="6.76254">
        <ele>310</ele>
        <time>2015-05-17T07:39:11.000Z</time>
      </trkpt>
      <trkpt lat="47.47793" lon="6.76251">
        <ele>310</ele>
        <time>2015-05-17T07:39:12.000Z</time>
      </trkpt>
      <trkpt lat="47.47789" lon="6.76246">
        <ele>309</ele>
        <time>2015-05-17T07:39:13.000Z</time>
      </trkpt>
      <trkpt lat="47.47784" lon="6.76241">
        <ele>309</ele>
        <time>2015-05-17T07:39:14.000Z</time>
      </trkpt>
      <trkpt lat="47.4778" lon="6.76235">
        <ele>309</ele>
        <time>2015-05-17T07:39:15.000Z</time>
      </trkpt>
      <trkpt lat="47.47777" lon="6.76228">
        <ele>309</ele>
        <time>2015-05-17T07:39:16.000Z</time>
      </trkpt>
      <trkpt lat="47.47773" lon="6.76222">
        <ele>309</ele>
        <time>2015-05-17T07:39:17.000Z</time>
      </trkpt>
      <trkpt lat="47.47769" lon="6.76215">
        <ele>309</ele>
        <time>2015-05-17T07:39:18.000Z</time>
      </trkpt>
      <trkpt lat="47.47765" lon="6.76208">
        <ele>309</ele>
        <time>2015-05-17T07:39:19.000Z</time>
      </trkpt>
      <trkpt lat="47.47761" lon="6.76202">
        <ele>309</ele>
        <time>2015-05-17T07:39:20.000Z</time>
      </trkpt>
      <trkpt lat="47.47757" lon="6.76196">
        <ele>309</ele>
        <time>2015-05-17T07:39:21.000Z</time>
      </trkpt>
      <trkpt lat="47.47753" lon="6.76191">
        <ele>308</ele>
        <time>2015-05-17T07:39:22.000Z</time>
      </trkpt>
      <trkpt lat="47.47749" lon="6.76186">
        <ele>308</ele>
        <time>2015-05-17T07:39:23.001Z</time>
      </trkpt>
      <trkpt lat="47.47743" lon="6.76183">
        <ele>308</ele>
        <time>2015-05-17T07:39:24.000Z</time>
      </trkpt>
      <trkpt lat="47.47741" lon="6.76175">
        <ele>308</ele>
        <time>2015-05-17T07:39:25.000Z</time>
      </trkpt>
      <trkpt lat="47.47736" lon="6.76168">
        <ele>308</ele>
        <time>2015-05-17T07:39:26.000Z</time>
      </trkpt>
      <trkpt lat="47.47731" lon="6.76161">
        <ele>308</ele>
        <time>2015-05-17T07:39:27.000Z</time>
      </trkpt>
      <trkpt lat="47.47728" lon="6.76154">
        <ele>309</ele>
        <time>2015-05-17T07:39:28.000Z</time>
      </trkpt>
      <trkpt lat="47.47724" lon="6.76146">
        <ele>309</ele>
        <time>2015-05-17T07:39:29.000Z</time>
      </trkpt>
      <trkpt lat="47.47721" lon="6.7614">
        <ele>309</ele>
        <time>2015-05-17T07:39:30.000Z</time>
      </trkpt>
      <trkpt lat="47.47719" lon="6.76134">
        <ele>309</ele>
        <time>2015-05-17T07:39:31.000Z</time>
      </trkpt>
      <trkpt lat="47.47716" lon="6.76128">
        <ele>309</ele>
        <time>2015-05-17T07:39:32.000Z</time>
      </trkpt>
      <trkpt lat="47.47712" lon="6.76121">
        <ele>309</ele>
        <time>2015-05-17T07:39:33.000Z</time>
      </trkpt>
      <trkpt lat="47.47708" lon="6.76116">
        <ele>310</ele>
        <time>2015-05-17T07:39:33.999Z</time>
      </trkpt>
      <trkpt lat="47.47702" lon="6.7611">
        <ele>310</ele>
        <time>2015-05-17T07:39:35.000Z</time>
      </trkpt>
      <trkpt lat="47.47698" lon="6.76103">
        <ele>310</ele>
        <time>2015-05-17T07:39:35.999Z</time>
      </trkpt>
      <trkpt lat="47.47696" lon="6.76098">
        <ele>310</ele>
        <time>2015-05-17T07:39:37.000Z</time>
      </trkpt>
      <trkpt lat="47.47692" lon="6.76092">
        <ele>310</ele>
        <time>2015-05-17T07:39:38.000Z</time>
      </trkpt>
      <trkpt lat="47.47689" lon="6.76086">
        <ele>310</ele>
        <time>2015-05-17T07:39:39.000Z</time>
      </trkpt>
      <trkpt lat="47.47685" lon="6.76081">
        <ele>311</ele>
        <time>2015-05-17T07:39:40.000Z</time>
      </trkpt>
      <trkpt lat="47.47682" lon="6.76075">
        <ele>311</ele>
        <time>2015-05-17T07:39:40.999Z</time>
      </trkpt>
      <trkpt lat="47.4768" lon="6.76066">
        <ele>311</ele>
        <time>2015-05-17T07:39:42.000Z</time>
      </trkpt>
      <trkpt lat="47.47677" lon="6.76058">
        <ele>311</ele>
        <time>2015-05-17T07:39:43.000Z</time>
      </trkpt>
      <trkpt lat="47.47676" lon="6.7605">
        <ele>311</ele>
        <time>2015-05-17T07:39:44.000Z</time>
      </trkpt>
      <trkpt lat="47.47673" lon="6.76044">
        <ele>311</ele>
        <time>2015-05-17T07:39:45.000Z</time>
      </trkpt>
      <trkpt lat="47.4767" lon="6.76036">
        <ele>311</ele>
        <time>2015-05-17T07:39:46.000Z</time>
      </trkpt>
      <trkpt lat="47.47672" lon="6.76027">
        <ele>311</ele>
        <time>2015-05-17T07:39:47.000Z</time>
      </trkpt>
      <trkpt lat="47.47672" lon="6.76019">
        <ele>311</ele>
        <time>2015-05-17T07:39:48.000Z</time>
      </trkpt>
      <trkpt lat="47.47672" lon="6.76011">
        <ele>312</ele>
        <time>2015-05-17T07:39:49.000Z</time>
      </trkpt>
      <trkpt lat="47.47673" lon="6.76002">
        <ele>312</ele>
        <time>2015-05-17T07:39:50.000Z</time>
      </trkpt>
      <trkpt lat="47.47674" lon="6.75994">
        <ele>312</ele>
        <time>2015-05-17T07:39:51.000Z</time>
      </trkpt>
      <trkpt lat="47.47677" lon="6.75987">
        <ele>312</ele>
        <time>2015-05-17T07:39:52.000Z</time>
      </trkpt>
      <trkpt lat="47.47679" lon="6.7598">
        <ele>312</ele>
        <time>2015-05-17T07:39:53.000Z</time>
      </trkpt>
      <trkpt lat="47.47682" lon="6.75974">
        <ele>311</ele>
        <time>2015-05-17T07:39:54.000Z</time>
      </trkpt>
      <trkpt lat="47.47684" lon="6.75967">
        <ele>311</ele>
        <time>2015-05-17T07:39:55.000Z</time>
      </trkpt>
      <trkpt lat="47.47686" lon="6.75962">
        <ele>311</ele>
        <time>2015-05-17T07:39:56.000Z</time>
      </trkpt>
      <trkpt lat="47.47689" lon="6.75955">
        <ele>311</ele>
        <time>2015-05-17T07:39:57.000Z</time>
      </trkpt>
      <trkpt lat="47.47693" lon="6.75947">
        <ele>311</ele>
        <time>2015-05-17T07:39:58.000Z</time>
      </trkpt>
      <trkpt lat="47.47695" lon="6.75939">
        <ele>311</ele>
        <time>2015-05-17T07:39:59.000Z</time>
      </trkpt>
      <trkpt lat="47.47696" lon="6.75928">
        <ele>311</ele>
        <time>2015-05-17T07:40:00.000Z</time>
      </trkpt>
      <trkpt lat="47.47697" lon="6.75916">
        <ele>311</ele>
        <time>2015-05-17T07:40:01.000Z</time>
      </trkpt>
      <trkpt lat="47.47698" lon="6.75906">
        <ele>311</ele>
        <time>2015-05-17T07:40:02.000Z</time>
      </trkpt>
      <trkpt lat="47.47698" lon="6.75896">
        <ele>311</ele>
        <time>2015-05-17T07:40:03.000Z</time>
      </trkpt>
      <trkpt lat="47.47698" lon="6.75887">
        <ele>311</ele>
        <time>2015-05-17T07:40:04.000Z</time>
      </trkpt>
      <trkpt lat="47.47699" lon="6.75878">
        <ele>311</ele>
        <time>2015-05-17T07:40:05.000Z</time>
      </trkpt>
      <trkpt lat="47.477" lon="6.75869">
        <ele>311</ele>
        <time>2015-05-17T07:40:06.000Z</time>
      </trkpt>
      <trkpt lat="47.477" lon="6.7586">
        <ele>311</ele>
        <time>2015-05-17T07:40:07.000Z</time>
      </trkpt>
      <trkpt lat="47.477" lon="6.75851">
        <ele>311</ele>
        <time>2015-05-17T07:40:08.000Z</time>
      </trkpt>
      <trkpt lat="47.47702" lon="6.75844">
        <ele>311</ele>
        <time>2015-05-17T07:40:09.000Z</time>
      </trkpt>
      <trkpt lat="47.47701" lon="6.75834">
        <ele>311</ele>
        <time>2015-05-17T07:40:10.000Z</time>
      </trkpt>
      <trkpt lat="47.47702" lon="6.75827">
        <ele>310</ele>
        <time>2015-05-17T07:40:11.000Z</time>
      </trkpt>
      <trkpt lat="47.47703" lon="6.75816">
        <ele>310</ele>
        <time>2015-05-17T07:40:12.000Z</time>
      </trkpt>
      <trkpt lat="47.47704" lon="6.75806">
        <ele>310</ele>
        <time>2015-05-17T07:40:13.000Z</time>
      </trkpt>
      <trkpt lat="47.47705" lon="6.75797">
        <ele>310</ele>
        <time>2015-05-17T07:40:14.000Z</time>
      </trkpt>
      <trkpt lat="47.47706" lon="6.75788">
        <ele>310</ele>
        <time>2015-05-17T07:40:15.000Z</time>
      </trkpt>
      <trkpt lat="47.47706" lon="6.75779">
        <ele>310</ele>
        <time>2015-05-17T07:40:16.000Z</time>
      </trkpt>
      <trkpt lat="47.47706" lon="6.75769">
        <ele>310</ele>
        <time>2015-05-17T07:40:17.000Z</time>
      </trkpt>
      <trkpt lat="47.47707" lon="6.7576">
        <ele>310</ele>
        <time>2015-05-17T07:40:18.000Z</time>
      </trkpt>
      <trkpt lat="47.47707" lon="6.75752">
        <ele>310</ele>
        <time>2015-05-17T07:40:19.000Z</time>
      </trkpt>
      <trkpt lat="47.47706" lon="6.75745">
        <ele>310</ele>
        <time>2015-05-17T07:40:20.000Z</time>
      </trkpt>
      <trkpt lat="47.47706" lon="6.75738">
        <ele>310</ele>
        <time>2015-05-17T07:40:21.000Z</time>
      </trkpt>
      <trkpt lat="47.47706" lon="6.75729">
        <ele>310</ele>
        <time>2015-05-17T07:40:22.000Z</time>
      </trkpt>
      <trkpt lat="47.47706" lon="6.75722">
        <ele>310</ele>
        <time>2015-05-17T07:40:23.000Z</time>
      </trkpt>
      <trkpt lat="47.47706" lon="6.75714">
        <ele>310</ele>
        <time>2015-05-17T07:40:24.000Z</time>
      </trkpt>
      <trkpt lat="47.47706" lon="6.75707">
        <ele>310</ele>
        <time>2015-05-17T07:40:25.000Z</time>
      </trkpt>
      <trkpt lat="47.47707" lon="6.75698">
        <ele>310</ele>
        <time>2015-05-17T07:40:26.000Z</time>
      </trkpt>
      <trkpt lat="47.47707" lon="6.75689">
        <ele>310</ele>
        <time>2015-05-17T07:40:27.000Z</time>
      </trkpt>
      <trkpt lat="47.47707" lon="6.75678">
        <ele>310</ele>
        <time>2015-05-17T07:40:28.000Z</time>
      </trkpt>
      <trkpt lat="47.47708" lon="6.75669">
        <ele>310</ele>
        <time>2015-05-17T07:40:29.000Z</time>
      </trkpt>
      <trkpt lat="47.47708" lon="6.75659">
        <ele>309</ele>
        <time>2015-05-17T07:40:30.000Z</time>
      </trkpt>
      <trkpt lat="47.47709" lon="6.7565">
        <ele>309</ele>
        <time>2015-05-17T07:40:31.000Z</time>
      </trkpt>
      <trkpt lat="47.47707" lon="6.75639">
        <ele>309</ele>
        <time>2015-05-17T07:40:32.000Z</time>
      </trkpt>
      <trkpt lat="47.47707" lon="6.7563">
        <ele>309</ele>
        <time>2015-05-17T07:40:33.000Z</time>
      </trkpt>
      <trkpt lat="47.47708" lon="6.75621">
        <ele>309</ele>
        <time>2015-05-17T07:40:34.000Z</time>
      </trkpt>
      <trkpt lat="47.47709" lon="6.75612">
        <ele>309</ele>
        <time>2015-05-17T07:40:35.000Z</time>
      </trkpt>
      <trkpt lat="47.47713" lon="6.75601">
        <ele>309</ele>
        <time>2015-05-17T07:40:36.000Z</time>
      </trkpt>
      <trkpt lat="47.47714" lon="6.75591">
        <ele>309</ele>
        <time>2015-05-17T07:40:37.000Z</time>
      </trkpt>
      <trkpt lat="47.47716" lon="6.75581">
        <ele>308</ele>
        <time>2015-05-17T07:40:38.000Z</time>
      </trkpt>
      <trkpt lat="47.47714" lon="6.75572">
        <ele>308</ele>
        <time>2015-05-17T07:40:39.000Z</time>
      </trkpt>
      <trkpt lat="47.47716" lon="6.75563">
        <ele>308</ele>
        <time>2015-05-17T07:40:40.000Z</time>
      </trkpt>
      <trkpt lat="47.47716" lon="6.75555">
        <ele>308</ele>
        <time>2015-05-17T07:40:41.000Z</time>
      </trkpt>
      <trkpt lat="47.47715" lon="6.75545">
        <ele>308</ele>
        <time>2015-05-17T07:40:42.000Z</time>
      </trkpt>
      <trkpt lat="47.47711" lon="6.75537">
        <ele>308</ele>
        <time>2015-05-17T07:40:43.000Z</time>
      </trkpt>
      <trkpt lat="47.4771" lon="6.75528">
        <ele>308</ele>
        <time>2015-05-17T07:40:44.000Z</time>
      </trkpt>
      <trkpt lat="47.4771" lon="6.75519">
        <ele>308</ele>
        <time>2015-05-17T07:40:45.000Z</time>
      </trkpt>
      <trkpt lat="47.47711" lon="6.75511">
        <ele>308</ele>
        <time>2015-05-17T07:40:46.000Z</time>
      </trkpt>
      <trkpt lat="47.47711" lon="6.75503">
        <ele>308</ele>
        <time>2015-05-17T07:40:47.000Z</time>
      </trkpt>
      <trkpt lat="47.4771" lon="6.75493">
        <ele>308</ele>
        <time>2015-05-17T07:40:48.000Z</time>
      </trkpt>
      <trkpt lat="47.4771" lon="6.75484">
        <ele>308</ele>
        <time>2015-05-17T07:40:49.000Z</time>
      </trkpt>
      <trkpt lat="47.47712" lon="6.75475">
        <ele>308</ele>
        <time>2015-05-17T07:40:50.000Z</time>
      </trkpt>
      <trkpt lat="47.47712" lon="6.75467">
        <ele>308</ele>
        <time>2015-05-17T07:40:51.000Z</time>
      </trkpt>
      <trkpt lat="47.47713" lon="6.75459">
        <ele>308</ele>
        <time>2015-05-17T07:40:52.000Z</time>
      </trkpt>
      <trkpt lat="47.47713" lon="6.7545">
        <ele>308</ele>
        <time>2015-05-17T07:40:53.000Z</time>
      </trkpt>
      <trkpt lat="47.47714" lon="6.75441">
        <ele>308</ele>
        <time>2015-05-17T07:40:54.000Z</time>
      </trkpt>
      <trkpt lat="47.47715" lon="6.75432">
        <ele>308</ele>
        <time>2015-05-17T07:40:55.000Z</time>
      </trkpt>
      <trkpt lat="47.47715" lon="6.75422">
        <ele>308</ele>
        <time>2015-05-17T07:40:56.000Z</time>
      </trkpt>
      <trkpt lat="47.47717" lon="6.75412">
        <ele>309</ele>
        <time>2015-05-17T07:40:57.000Z</time>
      </trkpt>
      <trkpt lat="47.47717" lon="6.75403">
        <ele>309</ele>
        <time>2015-05-17T07:40:58.000Z</time>
      </trkpt>
      <trkpt lat="47.47717" lon="6.75394">
        <ele>309</ele>
        <time>2015-05-17T07:40:59.000Z</time>
      </trkpt>
      <trkpt lat="47.47717" lon="6.75386">
        <ele>309</ele>
        <time>2015-05-17T07:41:00.000Z</time>
      </trkpt>
      <trkpt lat="47.47716" lon="6.75377">
        <ele>309</ele>
        <time>2015-05-17T07:41:01.000Z</time>
      </trkpt>
      <trkpt lat="47.47716" lon="6.75368">
        <ele>309</ele>
        <time>2015-05-17T07:41:02.000Z</time>
      </trkpt>
      <trkpt lat="47.47716" lon="6.75358">
        <ele>309</ele>
        <time>2015-05-17T07:41:03.000Z</time>
      </trkpt>
      <trkpt lat="47.47716" lon="6.75349">
        <ele>309</ele>
        <time>2015-05-17T07:41:04.000Z</time>
      </trkpt>
      <trkpt lat="47.47716" lon="6.75341">
        <ele>309</ele>
        <time>2015-05-17T07:41:05.000Z</time>
      </trkpt>
      <trkpt lat="47.47716" lon="6.75331">
        <ele>310</ele>
        <time>2015-05-17T07:41:06.000Z</time>
      </trkpt>
      <trkpt lat="47.47717" lon="6.75323">
        <ele>310</ele>
        <time>2015-05-17T07:41:07.000Z</time>
      </trkpt>
      <trkpt lat="47.47716" lon="6.75314">
        <ele>310</ele>
        <time>2015-05-17T07:41:08.000Z</time>
      </trkpt>
      <trkpt lat="47.47716" lon="6.75305">
        <ele>310</ele>
        <time>2015-05-17T07:41:09.000Z</time>
      </trkpt>
      <trkpt lat="47.47716" lon="6.75296">
        <ele>310</ele>
        <time>2015-05-17T07:41:10.000Z</time>
      </trkpt>
      <trkpt lat="47.47716" lon="6.75288">
        <ele>310</ele>
        <time>2015-05-17T07:41:11.000Z</time>
      </trkpt>
      <trkpt lat="47.47717" lon="6.75279">
        <ele>310</ele>
        <time>2015-05-17T07:41:12.000Z</time>
      </trkpt>
      <trkpt lat="47.47718" lon="6.75271">
        <ele>310</ele>
        <time>2015-05-17T07:41:13.000Z</time>
      </trkpt>
      <trkpt lat="47.47718" lon="6.75262">
        <ele>310</ele>
        <time>2015-05-17T07:41:14.000Z</time>
      </trkpt>
      <trkpt lat="47.47718" lon="6.75253">
        <ele>310</ele>
        <time>2015-05-17T07:41:15.000Z</time>
      </trkpt>
      <trkpt lat="47.47719" lon="6.75244">
        <ele>311</ele>
        <time>2015-05-17T07:41:16.000Z</time>
      </trkpt>
      <trkpt lat="47.47719" lon="6.75235">
        <ele>311</ele>
        <time>2015-05-17T07:41:17.000Z</time>
      </trkpt>
      <trkpt lat="47.4772" lon="6.75226">
        <ele>311</ele>
        <time>2015-05-17T07:41:18.000Z</time>
      </trkpt>
      <trkpt lat="47.4772" lon="6.75216">
        <ele>311</ele>
        <time>2015-05-17T07:41:19.000Z</time>
      </trkpt>
      <trkpt lat="47.47721" lon="6.75207">
        <ele>311</ele>
        <time>2015-05-17T07:41:20.000Z</time>
      </trkpt>
      <trkpt lat="47.47721" lon="6.75198">
        <ele>311</ele>
        <time>2015-05-17T07:41:21.000Z</time>
      </trkpt>
      <trkpt lat="47.47721" lon="6.75189">
        <ele>310</ele>
        <time>2015-05-17T07:41:22.000Z</time>
      </trkpt>
      <trkpt lat="47.47722" lon="6.75179">
        <ele>310</ele>
        <time>2015-05-17T07:41:23.000Z</time>
      </trkpt>
      <trkpt lat="47.47721" lon="6.7517">
        <ele>310</ele>
        <time>2015-05-17T07:41:24.000Z</time>
      </trkpt>
      <trkpt lat="47.47722" lon="6.75162">
        <ele>310</ele>
        <time>2015-05-17T07:41:25.000Z</time>
      </trkpt>
      <trkpt lat="47.47722" lon="6.75153">
        <ele>310</ele>
        <time>2015-05-17T07:41:26.000Z</time>
      </trkpt>
      <trkpt lat="47.47723" lon="6.75143">
        <ele>310</ele>
        <time>2015-05-17T07:41:27.000Z</time>
      </trkpt>
      <trkpt lat="47.47722" lon="6.75135">
        <ele>310</ele>
        <time>2015-05-17T07:41:28.000Z</time>
      </trkpt>
      <trkpt lat="47.47722" lon="6.75126">
        <ele>310</ele>
        <time>2015-05-17T07:41:29.000Z</time>
      </trkpt>
      <trkpt lat="47.47724" lon="6.75118">
        <ele>310</ele>
        <time>2015-05-17T07:41:30.000Z</time>
      </trkpt>
      <trkpt lat="47.47724" lon="6.75111">
        <ele>310</ele>
        <time>2015-05-17T07:41:31.000Z</time>
      </trkpt>
      <trkpt lat="47.47724" lon="6.75102">
        <ele>310</ele>
        <time>2015-05-17T07:41:32.000Z</time>
      </trkpt>
      <trkpt lat="47.47725" lon="6.75094">
        <ele>310</ele>
        <time>2015-05-17T07:41:33.000Z</time>
      </trkpt>
      <trkpt lat="47.47725" lon="6.75085">
        <ele>310</ele>
        <time>2015-05-17T07:41:34.000Z</time>
      </trkpt>
      <trkpt lat="47.47725" lon="6.75076">
        <ele>310</ele>
        <time>2015-05-17T07:41:35.000Z</time>
      </trkpt>
      <trkpt lat="47.47725" lon="6.75066">
        <ele>310</ele>
        <time>2015-05-17T07:41:36.000Z</time>
      </trkpt>
      <trkpt lat="47.47726" lon="6.75058">
        <ele>310</ele>
        <time>2015-05-17T07:41:37.000Z</time>
      </trkpt>
      <trkpt lat="47.47725" lon="6.75051">
        <ele>310</ele>
        <time>2015-05-17T07:41:38.000Z</time>
      </trkpt>
      <trkpt lat="47.47726" lon="6.75041">
        <ele>310</ele>
        <time>2015-05-17T07:41:39.000Z</time>
      </trkpt>
      <trkpt lat="47.47725" lon="6.75032">
        <ele>310</ele>
        <time>2015-05-17T07:41:40.000Z</time>
      </trkpt>
      <trkpt lat="47.47726" lon="6.75023">
        <ele>310</ele>
        <time>2015-05-17T07:41:41.000Z</time>
      </trkpt>
      <trkpt lat="47.47726" lon="6.75014">
        <ele>310</ele>
        <time>2015-05-17T07:41:42.000Z</time>
      </trkpt>
      <trkpt lat="47.47726" lon="6.75005">
        <ele>310</ele>
        <time>2015-05-17T07:41:43.000Z</time>
      </trkpt>
      <trkpt lat="47.47727" lon="6.74997">
        <ele>310</ele>
        <time>2015-05-17T07:41:44.000Z</time>
      </trkpt>
      <trkpt lat="47.47728" lon="6.74989">
        <ele>310</ele>
        <time>2015-05-17T07:41:45.000Z</time>
      </trkpt>
      <trkpt lat="47.47728" lon="6.74981">
        <ele>310</ele>
        <time>2015-05-17T07:41:46.000Z</time>
      </trkpt>
      <trkpt lat="47.47727" lon="6.74973">
        <ele>310</ele>
        <time>2015-05-17T07:41:47.000Z</time>
      </trkpt>
      <trkpt lat="47.47726" lon="6.74964">
        <ele>310</ele>
        <time>2015-05-17T07:41:48.000Z</time>
      </trkpt>
      <trkpt lat="47.47727" lon="6.74956">
        <ele>310</ele>
        <time>2015-05-17T07:41:49.000Z</time>
      </trkpt>
      <trkpt lat="47.47727" lon="6.74946">
        <ele>310</ele>
        <time>2015-05-17T07:41:50.000Z</time>
      </trkpt>
      <trkpt lat="47.47728" lon="6.74937">
        <ele>310</ele>
        <time>2015-05-17T07:41:51.000Z</time>
      </trkpt>
      <trkpt lat="47.47728" lon="6.74928">
        <ele>310</ele>
        <time>2015-05-17T07:41:52.000Z</time>
      </trkpt>
      <trkpt lat="47.47728" lon="6.7492">
        <ele>310</ele>
        <time>2015-05-17T07:41:53.000Z</time>
      </trkpt>
      <trkpt lat="47.47728" lon="6.74912">
        <ele>309</ele>
        <time>2015-05-17T07:41:54.000Z</time>
      </trkpt>
      <trkpt lat="47.47729" lon="6.74903">
        <ele>309</ele>
        <time>2015-05-17T07:41:55.000Z</time>
      </trkpt>
      <trkpt lat="47.47728" lon="6.74895">
        <ele>309</ele>
        <time>2015-05-17T07:41:56.000Z</time>
      </trkpt>
      <trkpt lat="47.47727" lon="6.74887">
        <ele>309</ele>
        <time>2015-05-17T07:41:57.000Z</time>
      </trkpt>
      <trkpt lat="47.47727" lon="6.7488">
        <ele>309</ele>
        <time>2015-05-17T07:41:58.000Z</time>
      </trkpt>
      <trkpt lat="47.47728" lon="6.74872">
        <ele>309</ele>
        <time>2015-05-17T07:41:59.000Z</time>
      </trkpt>
      <trkpt lat="47.47728" lon="6.74863">
        <ele>309</ele>
        <time>2015-05-17T07:42:00.000Z</time>
      </trkpt>
      <trkpt lat="47.47728" lon="6.74854">
        <ele>309</ele>
        <time>2015-05-17T07:42:01.000Z</time>
      </trkpt>
      <trkpt lat="47.47728" lon="6.74845">
        <ele>309</ele>
        <time>2015-05-17T07:42:02.000Z</time>
      </trkpt>
      <trkpt lat="47.47727" lon="6.74837">
        <ele>309</ele>
        <time>2015-05-17T07:42:03.000Z</time>
      </trkpt>
      <trkpt lat="47.47727" lon="6.74828">
        <ele>309</ele>
        <time>2015-05-17T07:42:04.000Z</time>
      </trkpt>
      <trkpt lat="47.47727" lon="6.74819">
        <ele>309</ele>
        <time>2015-05-17T07:42:05.000Z</time>
      </trkpt>
      <trkpt lat="47.47727" lon="6.7481">
        <ele>309</ele>
        <time>2015-05-17T07:42:06.000Z</time>
      </trkpt>
      <trkpt lat="47.47728" lon="6.74801">
        <ele>309</ele>
        <time>2015-05-17T07:42:07.000Z</time>
      </trkpt>
      <trkpt lat="47.47728" lon="6.74794">
        <ele>309</ele>
        <time>2015-05-17T07:42:08.000Z</time>
      </trkpt>
      <trkpt lat="47.47728" lon="6.74785">
        <ele>309</ele>
        <time>2015-05-17T07:42:09.000Z</time>
      </trkpt>
      <trkpt lat="47.47729" lon="6.74776">
        <ele>309</ele>
        <time>2015-05-17T07:42:10.000Z</time>
      </trkpt>
      <trkpt lat="47.47729" lon="6.74769">
        <ele>309</ele>
        <time>2015-05-17T07:42:11.000Z</time>
      </trkpt>
      <trkpt lat="47.4773" lon="6.74761">
        <ele>309</ele>
        <time>2015-05-17T07:42:12.000Z</time>
      </trkpt>
      <trkpt lat="47.4773" lon="6.74753">
        <ele>309</ele>
        <time>2015-05-17T07:42:13.000Z</time>
      </trkpt>
      <trkpt lat="47.4773" lon="6.74744">
        <ele>309</ele>
        <time>2015-05-17T07:42:14.000Z</time>
      </trkpt>
      <trkpt lat="47.47731" lon="6.74736">
        <ele>309</ele>
        <time>2015-05-17T07:42:15.000Z</time>
      </trkpt>
      <trkpt lat="47.47731" lon="6.74728">
        <ele>309</ele>
        <time>2015-05-17T07:42:16.000Z</time>
      </trkpt>
      <trkpt lat="47.47731" lon="6.7472">
        <ele>309</ele>
        <time>2015-05-17T07:42:17.000Z</time>
      </trkpt>
      <trkpt lat="47.47731" lon="6.74712">
        <ele>309</ele>
        <time>2015-05-17T07:42:18.000Z</time>
      </trkpt>
      <trkpt lat="47.47732" lon="6.74704">
        <ele>309</ele>
        <time>2015-05-17T07:42:19.000Z</time>
      </trkpt>
      <trkpt lat="47.47733" lon="6.74696">
        <ele>308</ele>
        <time>2015-05-17T07:42:20.000Z</time>
      </trkpt>
      <trkpt lat="47.47733" lon="6.74688">
        <ele>308</ele>
        <time>2015-05-17T07:42:21.000Z</time>
      </trkpt>
      <trkpt lat="47.47734" lon="6.74681">
        <ele>308</ele>
        <time>2015-05-17T07:42:22.000Z</time>
      </trkpt>
      <trkpt lat="47.47734" lon="6.74673">
        <ele>308</ele>
        <time>2015-05-17T07:42:23.000Z</time>
      </trkpt>
      <trkpt lat="47.47734" lon="6.74665">
        <ele>308</ele>
        <time>2015-05-17T07:42:24.000Z</time>
      </trkpt>
      <trkpt lat="47.47734" lon="6.74658">
        <ele>308</ele>
        <time>2015-05-17T07:42:25.000Z</time>
      </trkpt>
      <trkpt lat="47.47734" lon="6.74651">
        <ele>308</ele>
        <time>2015-05-17T07:42:26.000Z</time>
      </trkpt>
      <trkpt lat="47.47734" lon="6.74644">
        <ele>308</ele>
        <time>2015-05-17T07:42:27.000Z</time>
      </trkpt>
      <trkpt lat="47.47734" lon="6.74636">
        <ele>308</ele>
        <time>2015-05-17T07:42:28.000Z</time>
      </trkpt>
      <trkpt lat="47.47734" lon="6.74628">
        <ele>308</ele>
        <time>2015-05-17T07:42:29.000Z</time>
      </trkpt>
      <trkpt lat="47.47734" lon="6.74621">
        <ele>308</ele>
        <time>2015-05-17T07:42:30.000Z</time>
      </trkpt>
      <trkpt lat="47.47733" lon="6.74614">
        <ele>308</ele>
        <time>2015-05-17T07:42:31.000Z</time>
      </trkpt>
      <trkpt lat="47.47733" lon="6.74607">
        <ele>308</ele>
        <time>2015-05-17T07:42:32.000Z</time>
      </trkpt>
      <trkpt lat="47.47733" lon="6.74599">
        <ele>308</ele>
        <time>2015-05-17T07:42:33.000Z</time>
      </trkpt>
      <trkpt lat="47.47733" lon="6.74591">
        <ele>308</ele>
        <time>2015-05-17T07:42:34.000Z</time>
      </trkpt>
      <trkpt lat="47.47733" lon="6.74583">
        <ele>308</ele>
        <time>2015-05-17T07:42:35.000Z</time>
      </trkpt>
      <trkpt lat="47.47732" lon="6.74575">
        <ele>308</ele>
        <time>2015-05-17T07:42:36.000Z</time>
      </trkpt>
      <trkpt lat="47.47731" lon="6.74567">
        <ele>308</ele>
        <time>2015-05-17T07:42:37.000Z</time>
      </trkpt>
      <trkpt lat="47.47732" lon="6.74559">
        <ele>308</ele>
        <time>2015-05-17T07:42:38.000Z</time>
      </trkpt>
      <trkpt lat="47.47729" lon="6.74551">
        <ele>308</ele>
        <time>2015-05-17T07:42:39.000Z</time>
      </trkpt>
      <trkpt lat="47.47727" lon="6.74545">
        <ele>308</ele>
        <time>2015-05-17T07:42:40.000Z</time>
      </trkpt>
      <trkpt lat="47.47726" lon="6.74538">
        <ele>308</ele>
        <time>2015-05-17T07:42:41.000Z</time>
      </trkpt>
      <trkpt lat="47.47725" lon="6.74533">
        <ele>308</ele>
        <time>2015-05-17T07:42:42.000Z</time>
      </trkpt>
      <trkpt lat="47.47723" lon="6.74527">
        <ele>308</ele>
        <time>2015-05-17T07:42:43.000Z</time>
      </trkpt>
      <trkpt lat="47.47721" lon="6.7452">
        <ele>308</ele>
        <time>2015-05-17T07:42:44.000Z</time>
      </trkpt>
      <trkpt lat="47.47721" lon="6.74514">
        <ele>308</ele>
        <time>2015-05-17T07:42:45.000Z</time>
      </trkpt>
      <trkpt lat="47.47721" lon="6.74508">
        <ele>308</ele>
        <time>2015-05-17T07:42:46.001Z</time>
      </trkpt>
      <trkpt lat="47.4772" lon="6.74503">
        <ele>308</ele>
        <time>2015-05-17T07:42:47.000Z</time>
      </trkpt>
      <trkpt lat="47.4772" lon="6.74497">
        <ele>308</ele>
        <time>2015-05-17T07:42:47.999Z</time>
      </trkpt>
      <trkpt lat="47.47718" lon="6.74488">
        <ele>308</ele>
        <time>2015-05-17T07:42:49.000Z</time>
      </trkpt>
      <trkpt lat="47.47718" lon="6.7448">
        <ele>308</ele>
        <time>2015-05-17T07:42:50.000Z</time>
      </trkpt>
      <trkpt lat="47.47717" lon="6.74474">
        <ele>308</ele>
        <time>2015-05-17T07:42:51.000Z</time>
      </trkpt>
      <trkpt lat="47.47716" lon="6.74466">
        <ele>308</ele>
        <time>2015-05-17T07:42:52.000Z</time>
      </trkpt>
      <trkpt lat="47.47714" lon="6.74457">
        <ele>308</ele>
        <time>2015-05-17T07:42:53.000Z</time>
      </trkpt>
      <trkpt lat="47.47713" lon="6.7445">
        <ele>308</ele>
        <time>2015-05-17T07:42:54.000Z</time>
      </trkpt>
      <trkpt lat="47.47714" lon="6.74443">
        <ele>308</ele>
        <time>2015-05-17T07:42:55.000Z</time>
      </trkpt>
      <trkpt lat="47.47712" lon="6.74436">
        <ele>308</ele>
        <time>2015-05-17T07:42:56.000Z</time>
      </trkpt>
      <trkpt lat="47.4771" lon="6.74429">
        <ele>308</ele>
        <time>2015-05-17T07:42:56.999Z</time>
      </trkpt>
      <trkpt lat="47.47711" lon="6.74421">
        <ele>308</ele>
        <time>2015-05-17T07:42:58.000Z</time>
      </trkpt>
      <trkpt lat="47.47708" lon="6.74413">
        <ele>308</ele>
        <time>2015-05-17T07:42:59.000Z</time>
      </trkpt>
      <trkpt lat="47.47706" lon="6.74405">
        <ele>308</ele>
        <time>2015-05-17T07:43:00.000Z</time>
      </trkpt>
      <trkpt lat="47.47705" lon="6.74397">
        <ele>308</ele>
        <time>2015-05-17T07:43:01.000Z</time>
      </trkpt>
      <trkpt lat="47.47704" lon="6.74388">
        <ele>308</ele>
        <time>2015-05-17T07:43:02.000Z</time>
      </trkpt>
      <trkpt lat="47.47703" lon="6.7438">
        <ele>309</ele>
        <time>2015-05-17T07:43:03.000Z</time>
      </trkpt>
      <trkpt lat="47.47704" lon="6.7437">
        <ele>309</ele>
        <time>2015-05-17T07:43:04.000Z</time>
      </trkpt>
      <trkpt lat="47.47704" lon="6.74361">
        <ele>309</ele>
        <time>2015-05-17T07:43:05.000Z</time>
      </trkpt>
      <trkpt lat="47.47704" lon="6.74352">
        <ele>309</ele>
        <time>2015-05-17T07:43:06.000Z</time>
      </trkpt>
      <trkpt lat="47.47705" lon="6.74344">
        <ele>309</ele>
        <time>2015-05-17T07:43:07.000Z</time>
      </trkpt>
      <trkpt lat="47.47704" lon="6.74334">
        <ele>309</ele>
        <time>2015-05-17T07:43:08.000Z</time>
      </trkpt>
      <trkpt lat="47.47704" lon="6.74326">
        <ele>310</ele>
        <time>2015-05-17T07:43:09.000Z</time>
      </trkpt>
      <trkpt lat="47.47702" lon="6.74318">
        <ele>310</ele>
        <time>2015-05-17T07:43:10.000Z</time>
      </trkpt>
      <trkpt lat="47.47701" lon="6.74308">
        <ele>310</ele>
        <time>2015-05-17T07:43:11.000Z</time>
      </trkpt>
      <trkpt lat="47.47699" lon="6.74298">
        <ele>310</ele>
        <time>2015-05-17T07:43:12.000Z</time>
      </trkpt>
      <trkpt lat="47.47698" lon="6.74289">
        <ele>310</ele>
        <time>2015-05-17T07:43:13.000Z</time>
      </trkpt>
      <trkpt lat="47.47699" lon="6.7428">
        <ele>310</ele>
        <time>2015-05-17T07:43:14.000Z</time>
      </trkpt>
      <trkpt lat="47.47698" lon="6.74272">
        <ele>310</ele>
        <time>2015-05-17T07:43:15.000Z</time>
      </trkpt>
      <trkpt lat="47.47697" lon="6.74263">
        <ele>310</ele>
        <time>2015-05-17T07:43:16.000Z</time>
      </trkpt>
      <trkpt lat="47.47696" lon="6.74254">
        <ele>310</ele>
        <time>2015-05-17T07:43:17.000Z</time>
      </trkpt>
      <trkpt lat="47.47693" lon="6.74245">
        <ele>310</ele>
        <time>2015-05-17T07:43:18.000Z</time>
      </trkpt>
      <trkpt lat="47.47691" lon="6.74237">
        <ele>310</ele>
        <time>2015-05-17T07:43:19.000Z</time>
      </trkpt>
      <trkpt lat="47.47687" lon="6.74229">
        <ele>310</ele>
        <time>2015-05-17T07:43:20.000Z</time>
      </trkpt>
      <trkpt lat="47.47683" lon="6.74221">
        <ele>310</ele>
        <time>2015-05-17T07:43:21.000Z</time>
      </trkpt>
      <trkpt lat="47.47681" lon="6.74213">
        <ele>310</ele>
        <time>2015-05-17T07:43:22.000Z</time>
      </trkpt>
      <trkpt lat="47.4768" lon="6.74204">
        <ele>310</ele>
        <time>2015-05-17T07:43:23.000Z</time>
      </trkpt>
      <trkpt lat="47.47677" lon="6.74195">
        <ele>310</ele>
        <time>2015-05-17T07:43:24.000Z</time>
      </trkpt>
      <trkpt lat="47.47675" lon="6.74187">
        <ele>310</ele>
        <time>2015-05-17T07:43:25.000Z</time>
      </trkpt>
      <trkpt lat="47.47671" lon="6.74179">
        <ele>310</ele>
        <time>2015-05-17T07:43:26.000Z</time>
      </trkpt>
      <trkpt lat="47.47669" lon="6.74171">
        <ele>309</ele>
        <time>2015-05-17T07:43:27.000Z</time>
      </trkpt>
      <trkpt lat="47.47667" lon="6.74164">
        <ele>309</ele>
        <time>2015-05-17T07:43:28.000Z</time>
      </trkpt>
      <trkpt lat="47.47666" lon="6.74156">
        <ele>309</ele>
        <time>2015-05-17T07:43:29.000Z</time>
      </trkpt>
      <trkpt lat="47.47664" lon="6.74149">
        <ele>309</ele>
        <time>2015-05-17T07:43:30.000Z</time>
      </trkpt>
      <trkpt lat="47.47662" lon="6.7414">
        <ele>309</ele>
        <time>2015-05-17T07:43:31.000Z</time>
      </trkpt>
      <trkpt lat="47.4766" lon="6.74132">
        <ele>309</ele>
        <time>2015-05-17T07:43:32.000Z</time>
      </trkpt>
      <trkpt lat="47.47657" lon="6.74123">
        <ele>309</ele>
        <time>2015-05-17T07:43:33.000Z</time>
      </trkpt>
      <trkpt lat="47.47656" lon="6.74115">
        <ele>309</ele>
        <time>2015-05-17T07:43:34.000Z</time>
      </trkpt>
      <trkpt lat="47.47653" lon="6.74108">
        <ele>309</ele>
        <time>2015-05-17T07:43:35.000Z</time>
      </trkpt>
      <trkpt lat="47.47651" lon="6.741">
        <ele>309</ele>
        <time>2015-05-17T07:43:36.000Z</time>
      </trkpt>
      <trkpt lat="47.47648" lon="6.74091">
        <ele>309</ele>
        <time>2015-05-17T07:43:37.000Z</time>
      </trkpt>
      <trkpt lat="47.47647" lon="6.74085">
        <ele>309</ele>
        <time>2015-05-17T07:43:38.000Z</time>
      </trkpt>
      <trkpt lat="47.47645" lon="6.74077">
        <ele>310</ele>
        <time>2015-05-17T07:43:39.000Z</time>
      </trkpt>
      <trkpt lat="47.47643" lon="6.74069">
        <ele>310</ele>
        <time>2015-05-17T07:43:40.000Z</time>
      </trkpt>
      <trkpt lat="47.47639" lon="6.74063">
        <ele>310</ele>
        <time>2015-05-17T07:43:41.000Z</time>
      </trkpt>
      <trkpt lat="47.47635" lon="6.74056">
        <ele>310</ele>
        <time>2015-05-17T07:43:42.000Z</time>
      </trkpt>
      <trkpt lat="47.47631" lon="6.74053">
        <ele>310</ele>
        <time>2015-05-17T07:43:43.000Z</time>
      </trkpt>
      <trkpt lat="47.47625" lon="6.7405">
        <ele>310</ele>
        <time>2015-05-17T07:43:44.000Z</time>
      </trkpt>
      <trkpt lat="47.47619" lon="6.74052">
        <ele>309</ele>
        <time>2015-05-17T07:43:45.000Z</time>
      </trkpt>
      <trkpt lat="47.47614" lon="6.74054">
        <ele>309</ele>
        <time>2015-05-17T07:43:46.000Z</time>
      </trkpt>
      <trkpt lat="47.47608" lon="6.74057">
        <ele>309</ele>
        <time>2015-05-17T07:43:47.000Z</time>
      </trkpt>
      <trkpt lat="47.47603" lon="6.74059">
        <ele>309</ele>
        <time>2015-05-17T07:43:48.000Z</time>
      </trkpt>
      <trkpt lat="47.47598" lon="6.74063">
        <ele>309</ele>
        <time>2015-05-17T07:43:49.000Z</time>
      </trkpt>
      <trkpt lat="47.47594" lon="6.74067">
        <ele>309</ele>
        <time>2015-05-17T07:43:50.000Z</time>
      </trkpt>
      <trkpt lat="47.4759" lon="6.74072">
        <ele>309</ele>
        <time>2015-05-17T07:43:51.000Z</time>
      </trkpt>
      <trkpt lat="47.47584" lon="6.74076">
        <ele>309</ele>
        <time>2015-05-17T07:43:52.000Z</time>
      </trkpt>
      <trkpt lat="47.47578" lon="6.74079">
        <ele>309</ele>
        <time>2015-05-17T07:43:53.000Z</time>
      </trkpt>
      <trkpt lat="47.47574" lon="6.74083">
        <ele>309</ele>
        <time>2015-05-17T07:43:54.000Z</time>
      </trkpt>
      <trkpt lat="47.47569" lon="6.74086">
        <ele>309</ele>
        <time>2015-05-17T07:43:55.000Z</time>
      </trkpt>
      <trkpt lat="47.47564" lon="6.7409">
        <ele>309</ele>
        <time>2015-05-17T07:43:56.001Z</time>
      </trkpt>
      <trkpt lat="47.47558" lon="6.74093">
        <ele>309</ele>
        <time>2015-05-17T07:43:57.000Z</time>
      </trkpt>
      <trkpt lat="47.47554" lon="6.74098">
        <ele>309</ele>
        <time>2015-05-17T07:43:58.000Z</time>
      </trkpt>
      <trkpt lat="47.47549" lon="6.74101">
        <ele>309</ele>
        <time>2015-05-17T07:43:59.000Z</time>
      </trkpt>
      <trkpt lat="47.47545" lon="6.74108">
        <ele>309</ele>
        <time>2015-05-17T07:44:00.000Z</time>
      </trkpt>
      <trkpt lat="47.4754" lon="6.74113">
        <ele>308</ele>
        <time>2015-05-17T07:44:01.000Z</time>
      </trkpt>
      <trkpt lat="47.47535" lon="6.74117">
        <ele>308</ele>
        <time>2015-05-17T07:44:02.000Z</time>
      </trkpt>
      <trkpt lat="47.4753" lon="6.7412">
        <ele>308</ele>
        <time>2015-05-17T07:44:03.000Z</time>
      </trkpt>
      <trkpt lat="47.47524" lon="6.74123">
        <ele>308</ele>
        <time>2015-05-17T07:44:04.000Z</time>
      </trkpt>
      <trkpt lat="47.47519" lon="6.7413">
        <ele>309</ele>
        <time>2015-05-17T07:44:05.000Z</time>
      </trkpt>
      <trkpt lat="47.47514" lon="6.74135">
        <ele>309</ele>
        <time>2015-05-17T07:44:06.000Z</time>
      </trkpt>
      <trkpt lat="47.47508" lon="6.74139">
        <ele>309</ele>
        <time>2015-05-17T07:44:07.000Z</time>
      </trkpt>
      <trkpt lat="47.47506" lon="6.74142">
        <ele>309</ele>
        <time>2015-05-17T07:44:08.000Z</time>
      </trkpt>
      <trkpt lat="47.47498" lon="6.74144">
        <ele>309</ele>
        <time>2015-05-17T07:44:09.000Z</time>
      </trkpt>
      <trkpt lat="47.47494" lon="6.74147">
        <ele>309</ele>
        <time>2015-05-17T07:44:10.000Z</time>
      </trkpt>
      <trkpt lat="47.47488" lon="6.74152">
        <ele>309</ele>
        <time>2015-05-17T07:44:11.000Z</time>
      </trkpt>
      <trkpt lat="47.47482" lon="6.74156">
        <ele>309</ele>
        <time>2015-05-17T07:44:12.001Z</time>
      </trkpt>
      <trkpt lat="47.47476" lon="6.74162">
        <ele>309</ele>
        <time>2015-05-17T07:44:13.000Z</time>
      </trkpt>
      <trkpt lat="47.47472" lon="6.74166">
        <ele>309</ele>
        <time>2015-05-17T07:44:14.000Z</time>
      </trkpt>
      <trkpt lat="47.47468" lon="6.74169">
        <ele>309</ele>
        <time>2015-05-17T07:44:15.000Z</time>
      </trkpt>
      <trkpt lat="47.47463" lon="6.74173">
        <ele>309</ele>
        <time>2015-05-17T07:44:16.001Z</time>
      </trkpt>
      <trkpt lat="47.47459" lon="6.74174">
        <ele>309</ele>
        <time>2015-05-17T07:44:17.000Z</time>
      </trkpt>
      <trkpt lat="47.47454" lon="6.74177">
        <ele>309</ele>
        <time>2015-05-17T07:44:18.000Z</time>
      </trkpt>
      <trkpt lat="47.47449" lon="6.74179">
        <ele>309</ele>
        <time>2015-05-17T07:44:19.000Z</time>
      </trkpt>
      <trkpt lat="47.47444" lon="6.74182">
        <ele>309</ele>
        <time>2015-05-17T07:44:20.000Z</time>
      </trkpt>
      <trkpt lat="47.47438" lon="6.74185">
        <ele>309</ele>
        <time>2015-05-17T07:44:21.000Z</time>
      </trkpt>
      <trkpt lat="47.47431" lon="6.74188">
        <ele>309</ele>
        <time>2015-05-17T07:44:22.000Z</time>
      </trkpt>
      <trkpt lat="47.47427" lon="6.7419">
        <ele>309</ele>
        <time>2015-05-17T07:44:23.000Z</time>
      </trkpt>
      <trkpt lat="47.4742" lon="6.74193">
        <ele>309</ele>
        <time>2015-05-17T07:44:24.000Z</time>
      </trkpt>
      <trkpt lat="47.47415" lon="6.74195">
        <ele>310</ele>
        <time>2015-05-17T07:44:25.000Z</time>
      </trkpt>
      <trkpt lat="47.4741" lon="6.74197">
        <ele>310</ele>
        <time>2015-05-17T07:44:26.000Z</time>
      </trkpt>
      <trkpt lat="47.47404" lon="6.742">
        <ele>310</ele>
        <time>2015-05-17T07:44:27.000Z</time>
      </trkpt>
      <trkpt lat="47.47398" lon="6.74201">
        <ele>310</ele>
        <time>2015-05-17T07:44:28.000Z</time>
      </trkpt>
      <trkpt lat="47.47394" lon="6.74203">
        <ele>310</ele>
        <time>2015-05-17T07:44:29.000Z</time>
      </trkpt>
      <trkpt lat="47.47389" lon="6.74205">
        <ele>310</ele>
        <time>2015-05-17T07:44:30.000Z</time>
      </trkpt>
      <trkpt lat="47.47384" lon="6.74207">
        <ele>310</ele>
        <time>2015-05-17T07:44:31.000Z</time>
      </trkpt>
      <trkpt lat="47.47377" lon="6.74209">
        <ele>310</ele>
        <time>2015-05-17T07:44:32.000Z</time>
      </trkpt>
      <trkpt lat="47.47371" lon="6.74212">
        <ele>310</ele>
        <time>2015-05-17T07:44:32.999Z</time>
      </trkpt>
      <trkpt lat="47.47368" lon="6.74214">
        <ele>310</ele>
        <time>2015-05-17T07:44:34.000Z</time>
      </trkpt>
      <trkpt lat="47.47362" lon="6.74217">
        <ele>310</ele>
        <time>2015-05-17T07:44:35.000Z</time>
      </trkpt>
      <trkpt lat="47.47357" lon="6.74221">
        <ele>310</ele>
        <time>2015-05-17T07:44:36.000Z</time>
      </trkpt>
      <trkpt lat="47.47352" lon="6.74224">
        <ele>310</ele>
        <time>2015-05-17T07:44:37.000Z</time>
      </trkpt>
      <trkpt lat="47.47348" lon="6.74227">
        <ele>310</ele>
        <time>2015-05-17T07:44:37.999Z</time>
      </trkpt>
      <trkpt lat="47.47342" lon="6.74231">
        <ele>310</ele>
        <time>2015-05-17T07:44:39.000Z</time>
      </trkpt>
      <trkpt lat="47.47337" lon="6.74233">
        <ele>310</ele>
        <time>2015-05-17T07:44:40.000Z</time>
      </trkpt>
      <trkpt lat="47.47333" lon="6.74235">
        <ele>311</ele>
        <time>2015-05-17T07:44:41.000Z</time>
      </trkpt>
      <trkpt lat="47.47327" lon="6.74239">
        <ele>311</ele>
        <time>2015-05-17T07:44:42.000Z</time>
      </trkpt>
      <trkpt lat="47.47321" lon="6.7424">
        <ele>311</ele>
        <time>2015-05-17T07:44:43.000Z</time>
      </trkpt>
      <trkpt lat="47.47316" lon="6.74243">
        <ele>311</ele>
        <time>2015-05-17T07:44:44.000Z</time>
      </trkpt>
      <trkpt lat="47.47311" lon="6.74244">
        <ele>312</ele>
        <time>2015-05-17T07:44:45.000Z</time>
      </trkpt>
      <trkpt lat="47.47304" lon="6.74247">
        <ele>312</ele>
        <time>2015-05-17T07:44:46.000Z</time>
      </trkpt>
      <trkpt lat="47.47298" lon="6.74248">
        <ele>312</ele>
        <time>2015-05-17T07:44:47.000Z</time>
      </trkpt>
      <trkpt lat="47.47293" lon="6.74249">
        <ele>312</ele>
        <time>2015-05-17T07:44:47.999Z</time>
      </trkpt>
      <trkpt lat="47.47287" lon="6.74251">
        <ele>312</ele>
        <time>2015-05-17T07:44:49.000Z</time>
      </trkpt>
      <trkpt lat="47.47282" lon="6.74252">
        <ele>312</ele>
        <time>2015-05-17T07:44:50.000Z</time>
      </trkpt>
      <trkpt lat="47.47276" lon="6.74253">
        <ele>313</ele>
        <time>2015-05-17T07:44:51.000Z</time>
      </trkpt>
      <trkpt lat="47.4727" lon="6.74254">
        <ele>313</ele>
        <time>2015-05-17T07:44:52.002Z</time>
      </trkpt>
      <trkpt lat="47.47268" lon="6.74256">
        <ele>313</ele>
        <time>2015-05-17T07:44:53.000Z</time>
      </trkpt>
      <trkpt lat="47.47265" lon="6.74258">
        <ele>313</ele>
        <time>2015-05-17T07:44:54.000Z</time>
      </trkpt>
      <trkpt lat="47.47259" lon="6.74261">
        <ele>313</ele>
        <time>2015-05-17T07:44:55.000Z</time>
      </trkpt>
      <trkpt lat="47.47255" lon="6.74264">
        <ele>313</ele>
        <time>2015-05-17T07:44:56.000Z</time>
      </trkpt>
      <trkpt lat="47.47252" lon="6.7427">
        <ele>313</ele>
        <time>2015-05-17T07:44:57.000Z</time>
      </trkpt>
      <trkpt lat="47.47251" lon="6.74277">
        <ele>313</ele>
        <time>2015-05-17T07:44:57.999Z</time>
      </trkpt>
      <trkpt lat="47.4725" lon="6.74286">
        <ele>313</ele>
        <time>2015-05-17T07:44:59.000Z</time>
      </trkpt>
      <trkpt lat="47.47248" lon="6.74292">
        <ele>315</ele>
        <time>2015-05-17T07:45:00.000Z</time>
      </trkpt>
      <trkpt lat="47.47247" lon="6.74299">
        <ele>315</ele>
        <time>2015-05-17T07:45:01.000Z</time>
      </trkpt>
      <trkpt lat="47.47246" lon="6.74307">
        <ele>315</ele>
        <time>2015-05-17T07:45:02.000Z</time>
      </trkpt>
      <trkpt lat="47.47245" lon="6.74312">
        <ele>315</ele>
        <time>2015-05-17T07:45:03.000Z</time>
      </trkpt>
      <trkpt lat="47.47245" lon="6.74326">
        <ele>315</ele>
        <time>2015-05-17T07:45:04.000Z</time>
      </trkpt>
      <trkpt lat="47.47243" lon="6.7433">
        <ele>315</ele>
        <time>2015-05-17T07:45:05.000Z</time>
      </trkpt>
      <trkpt lat="47.4724" lon="6.74332">
        <ele>315</ele>
        <time>2015-05-17T07:45:06.000Z</time>
      </trkpt>
      <trkpt lat="47.47238" lon="6.74335">
        <ele>316</ele>
        <time>2015-05-17T07:45:07.000Z</time>
      </trkpt>
      <trkpt lat="47.47232" lon="6.7434">
        <ele>316</ele>
        <time>2015-05-17T07:45:08.000Z</time>
      </trkpt>
      <trkpt lat="47.47228" lon="6.74345">
        <ele>317</ele>
        <time>2015-05-17T07:45:08.998Z</time>
      </trkpt>
      <trkpt lat="47.47225" lon="6.74347">
        <ele>317</ele>
        <time>2015-05-17T07:45:10.000Z</time>
      </trkpt>
      <trkpt lat="47.47221" lon="6.7435">
        <ele>318</ele>
        <time>2015-05-17T07:45:11.000Z</time>
      </trkpt>
      <trkpt lat="47.47217" lon="6.7435">
        <ele>318</ele>
        <time>2015-05-17T07:45:12.000Z</time>
      </trkpt>
      <trkpt lat="47.47213" lon="6.74352">
        <ele>318</ele>
        <time>2015-05-17T07:45:13.000Z</time>
      </trkpt>
      <trkpt lat="47.47209" lon="6.74353">
        <ele>318</ele>
        <time>2015-05-17T07:45:15.000Z</time>
      </trkpt>
      <trkpt lat="47.47208" lon="6.74353">
        <ele>318</ele>
        <time>2015-05-17T07:45:16.000Z</time>
      </trkpt>
      <trkpt lat="47.47205" lon="6.74355">
        <ele>318</ele>
        <time>2015-05-17T07:45:17.000Z</time>
      </trkpt>
      <trkpt lat="47.47203" lon="6.74356">
        <ele>318</ele>
        <time>2015-05-17T07:45:18.001Z</time>
      </trkpt>
      <trkpt lat="47.47202" lon="6.74356">
        <ele>319</ele>
        <time>2015-05-17T07:45:19.001Z</time>
      </trkpt>
      <trkpt lat="47.47199" lon="6.74357">
        <ele>319</ele>
        <time>2015-05-17T07:45:20.000Z</time>
      </trkpt>
      <trkpt lat="47.47196" lon="6.74357">
        <ele>319</ele>
        <time>2015-05-17T07:45:21.000Z</time>
      </trkpt>
      <trkpt lat="47.47193" lon="6.74358">
        <ele>319</ele>
        <time>2015-05-17T07:45:22.000Z</time>
      </trkpt>
      <trkpt lat="47.4719" lon="6.74359">
        <ele>319</ele>
        <time>2015-05-17T07:45:23.000Z</time>
      </trkpt>
      <trkpt lat="47.47186" lon="6.7436">
        <ele>319</ele>
        <time>2015-05-17T07:45:24.000Z</time>
      </trkpt>
      <trkpt lat="47.47183" lon="6.74361">
        <ele>319</ele>
        <time>2015-05-17T07:45:25.000Z</time>
      </trkpt>
      <trkpt lat="47.47174" lon="6.74362">
        <ele>319</ele>
        <time>2015-05-17T07:45:26.000Z</time>
      </trkpt>
      <trkpt lat="47.47171" lon="6.74363">
        <ele>319</ele>
        <time>2015-05-17T07:45:27.000Z</time>
      </trkpt>
      <trkpt lat="47.47169" lon="6.74361">
        <ele>319</ele>
        <time>2015-05-17T07:45:28.000Z</time>
      </trkpt>
      <trkpt lat="47.47166" lon="6.7436">
        <ele>323</ele>
        <time>2015-05-17T07:45:29.000Z</time>
      </trkpt>
      <trkpt lat="47.47162" lon="6.74361">
        <ele>323</ele>
        <time>2015-05-17T07:45:30.000Z</time>
      </trkpt>
      <trkpt lat="47.47158" lon="6.74361">
        <ele>324</ele>
        <time>2015-05-17T07:45:31.000Z</time>
      </trkpt>
      <trkpt lat="47.47156" lon="6.74361">
        <ele>324</ele>
        <time>2015-05-17T07:45:32.000Z</time>
      </trkpt>
      <trkpt lat="47.47153" lon="6.74357">
        <ele>324</ele>
        <time>2015-05-17T07:45:34.000Z</time>
      </trkpt>
      <trkpt lat="47.4715" lon="6.74357">
        <ele>324</ele>
        <time>2015-05-17T07:45:35.000Z</time>
      </trkpt>
      <trkpt lat="47.47148" lon="6.74356">
        <ele>324</ele>
        <time>2015-05-17T07:45:36.000Z</time>
      </trkpt>
      <trkpt lat="47.47146" lon="6.74355">
        <ele>324</ele>
        <time>2015-05-17T07:45:37.000Z</time>
      </trkpt>
      <trkpt lat="47.47142" lon="6.74354">
        <ele>324</ele>
        <time>2015-05-17T07:45:39.000Z</time>
      </trkpt>
      <trkpt lat="47.47139" lon="6.74354">
        <ele>324</ele>
        <time>2015-05-17T07:45:40.000Z</time>
      </trkpt>
      <trkpt lat="47.47137" lon="6.74354">
        <ele>324</ele>
        <time>2015-05-17T07:45:41.000Z</time>
      </trkpt>
      <trkpt lat="47.47135" lon="6.74355">
        <ele>325</ele>
        <time>2015-05-17T07:45:42.000Z</time>
      </trkpt>
      <trkpt lat="47.47132" lon="6.74356">
        <ele>325</ele>
        <time>2015-05-17T07:45:43.000Z</time>
      </trkpt>
      <trkpt lat="47.47129" lon="6.74356">
        <ele>325</ele>
        <time>2015-05-17T07:45:44.000Z</time>
      </trkpt>
      <trkpt lat="47.47126" lon="6.74357">
        <ele>325</ele>
        <time>2015-05-17T07:45:45.000Z</time>
      </trkpt>
      <trkpt lat="47.47124" lon="6.74358">
        <ele>325</ele>
        <time>2015-05-17T07:45:46.000Z</time>
      </trkpt>
      <trkpt lat="47.47121" lon="6.74358">
        <ele>325</ele>
        <time>2015-05-17T07:45:47.000Z</time>
      </trkpt>
      <trkpt lat="47.47118" lon="6.7436">
        <ele>326</ele>
        <time>2015-05-17T07:45:48.000Z</time>
      </trkpt>
      <trkpt lat="47.47115" lon="6.74361">
        <ele>326</ele>
        <time>2015-05-17T07:45:49.000Z</time>
      </trkpt>
      <trkpt lat="47.47111" lon="6.74363">
        <ele>326</ele>
        <time>2015-05-17T07:45:50.000Z</time>
      </trkpt>
      <trkpt lat="47.47108" lon="6.74366">
        <ele>326</ele>
        <time>2015-05-17T07:45:51.000Z</time>
      </trkpt>
      <trkpt lat="47.47104" lon="6.74368">
        <ele>326</ele>
        <time>2015-05-17T07:45:52.000Z</time>
      </trkpt>
      <trkpt lat="47.47102" lon="6.74369">
        <ele>327</ele>
        <time>2015-05-17T07:45:53.000Z</time>
      </trkpt>
      <trkpt lat="47.47099" lon="6.7437">
        <ele>327</ele>
        <time>2015-05-17T07:45:54.000Z</time>
      </trkpt>
      <trkpt lat="47.47096" lon="6.74373">
        <ele>327</ele>
        <time>2015-05-17T07:46:17.000Z</time>
      </trkpt>
      <trkpt lat="47.47094" lon="6.74373">
        <ele>327</ele>
        <time>2015-05-17T07:46:18.000Z</time>
      </trkpt>
      <trkpt lat="47.47091" lon="6.74375">
        <ele>327</ele>
        <time>2015-05-17T07:46:20.000Z</time>
      </trkpt>
      <trkpt lat="47.47088" lon="6.74375">
        <ele>327</ele>
        <time>2015-05-17T07:46:21.000Z</time>
      </trkpt>
      <trkpt lat="47.47086" lon="6.74376">
        <ele>327</ele>
        <time>2015-05-17T07:46:22.000Z</time>
      </trkpt>
      <trkpt lat="47.47083" lon="6.74376">
        <ele>327</ele>
        <time>2015-05-17T07:46:23.000Z</time>
      </trkpt>
      <trkpt lat="47.47081" lon="6.74376">
        <ele>334</ele>
        <time>2015-05-17T07:46:24.000Z</time>
      </trkpt>
      <trkpt lat="47.47079" lon="6.74377">
        <ele>334</ele>
        <time>2015-05-17T07:46:25.000Z</time>
      </trkpt>
      <trkpt lat="47.47077" lon="6.74378">
        <ele>334</ele>
        <time>2015-05-17T07:46:26.000Z</time>
      </trkpt>
      <trkpt lat="47.47074" lon="6.74379">
        <ele>335</ele>
        <time>2015-05-17T07:46:27.000Z</time>
      </trkpt>
      <trkpt lat="47.47072" lon="6.74381">
        <ele>335</ele>
        <time>2015-05-17T07:46:28.000Z</time>
      </trkpt>
      <trkpt lat="47.47069" lon="6.74382">
        <ele>335</ele>
        <time>2015-05-17T07:46:29.000Z</time>
      </trkpt>
      <trkpt lat="47.47067" lon="6.74383">
        <ele>335</ele>
        <time>2015-05-17T07:46:30.000Z</time>
      </trkpt>
      <trkpt lat="47.47065" lon="6.74385">
        <ele>335</ele>
        <time>2015-05-17T07:46:31.000Z</time>
      </trkpt>
      <trkpt lat="47.47061" lon="6.74388">
        <ele>335</ele>
        <time>2015-05-17T07:46:33.000Z</time>
      </trkpt>
      <trkpt lat="47.47059" lon="6.7439">
        <ele>336</ele>
        <time>2015-05-17T07:46:34.000Z</time>
      </trkpt>
      <trkpt lat="47.47057" lon="6.74393">
        <ele>336</ele>
        <time>2015-05-17T07:46:35.000Z</time>
      </trkpt>
      <trkpt lat="47.47055" lon="6.74394">
        <ele>336</ele>
        <time>2015-05-17T07:46:36.000Z</time>
      </trkpt>
      <trkpt lat="47.47051" lon="6.74396">
        <ele>336</ele>
        <time>2015-05-17T07:46:38.000Z</time>
      </trkpt>
      <trkpt lat="47.4705" lon="6.74397">
        <ele>337</ele>
        <time>2015-05-17T07:46:39.000Z</time>
      </trkpt>
      <trkpt lat="47.47047" lon="6.74398">
        <ele>337</ele>
        <time>2015-05-17T07:46:41.000Z</time>
      </trkpt>
      <trkpt lat="47.47045" lon="6.74399">
        <ele>337</ele>
        <time>2015-05-17T07:46:42.000Z</time>
      </trkpt>
      <trkpt lat="47.47042" lon="6.74403">
        <ele>338</ele>
        <time>2015-05-17T07:46:44.000Z</time>
      </trkpt>
      <trkpt lat="47.47041" lon="6.74406">
        <ele>338</ele>
        <time>2015-05-17T07:46:45.000Z</time>
      </trkpt>
      <trkpt lat="47.4704" lon="6.74409">
        <ele>338</ele>
        <time>2015-05-17T07:46:46.000Z</time>
      </trkpt>
      <trkpt lat="47.47038" lon="6.74412">
        <ele>338</ele>
        <time>2015-05-17T07:46:47.000Z</time>
      </trkpt>
      <trkpt lat="47.47036" lon="6.74417">
        <ele>339</ele>
        <time>2015-05-17T07:46:49.000Z</time>
      </trkpt>
      <trkpt lat="47.47035" lon="6.74419">
        <ele>341</ele>
        <time>2015-05-17T07:46:50.000Z</time>
      </trkpt>
      <trkpt lat="47.47033" lon="6.74424">
        <ele>342</ele>
        <time>2015-05-17T07:46:53.000Z</time>
      </trkpt>
      <trkpt lat="47.47032" lon="6.74426">
        <ele>342</ele>
        <time>2015-05-17T07:46:54.000Z</time>
      </trkpt>
      <trkpt lat="47.47029" lon="6.74431">
        <ele>342</ele>
        <time>2015-05-17T07:46:58.000Z</time>
      </trkpt>
      <trkpt lat="47.47029" lon="6.74432">
        <ele>342</ele>
        <time>2015-05-17T07:46:59.000Z</time>
      </trkpt>
      <trkpt lat="47.47027" lon="6.74438">
        <ele>342</ele>
        <time>2015-05-17T07:47:03.000Z</time>
      </trkpt>
      <trkpt lat="47.47026" lon="6.7444">
        <ele>342</ele>
        <time>2015-05-17T07:47:04.000Z</time>
      </trkpt>
      <trkpt lat="47.47024" lon="6.74444">
        <ele>342</ele>
        <time>2015-05-17T07:47:06.000Z</time>
      </trkpt>
      <trkpt lat="47.47022" lon="6.74446">
        <ele>343</ele>
        <time>2015-05-17T07:47:07.000Z</time>
      </trkpt>
      <trkpt lat="47.4702" lon="6.74448">
        <ele>343</ele>
        <time>2015-05-17T07:47:08.000Z</time>
      </trkpt>
      <trkpt lat="47.47018" lon="6.7445">
        <ele>343</ele>
        <time>2015-05-17T07:47:09.000Z</time>
      </trkpt>
      <trkpt lat="47.47015" lon="6.74453">
        <ele>343</ele>
        <time>2015-05-17T07:47:10.000Z</time>
      </trkpt>
      <trkpt lat="47.47013" lon="6.74456">
        <ele>343</ele>
        <time>2015-05-17T07:47:11.000Z</time>
      </trkpt>
      <trkpt lat="47.4701" lon="6.74459">
        <ele>343</ele>
        <time>2015-05-17T07:47:12.000Z</time>
      </trkpt>
      <trkpt lat="47.47008" lon="6.74462">
        <ele>343</ele>
        <time>2015-05-17T07:47:13.000Z</time>
      </trkpt>
      <trkpt lat="47.47005" lon="6.74465">
        <ele>343</ele>
        <time>2015-05-17T07:47:14.000Z</time>
      </trkpt>
      <trkpt lat="47.47003" lon="6.74467">
        <ele>344</ele>
        <time>2015-05-17T07:47:15.000Z</time>
      </trkpt>
      <trkpt lat="47.47" lon="6.7447">
        <ele>349</ele>
        <time>2015-05-17T07:47:16.000Z</time>
      </trkpt>
      <trkpt lat="47.46997" lon="6.74472">
        <ele>349</ele>
        <time>2015-05-17T07:47:17.000Z</time>
      </trkpt>
      <trkpt lat="47.46995" lon="6.74475">
        <ele>349</ele>
        <time>2015-05-17T07:47:18.000Z</time>
      </trkpt>
      <trkpt lat="47.46993" lon="6.74477">
        <ele>349</ele>
        <time>2015-05-17T07:47:19.000Z</time>
      </trkpt>
      <trkpt lat="47.46991" lon="6.7448">
        <ele>349</ele>
        <time>2015-05-17T07:47:21.000Z</time>
      </trkpt>
      <trkpt lat="47.46989" lon="6.74482">
        <ele>349</ele>
        <time>2015-05-17T07:47:22.000Z</time>
      </trkpt>
      <trkpt lat="47.46986" lon="6.74485">
        <ele>349</ele>
        <time>2015-05-17T07:47:24.000Z</time>
      </trkpt>
      <trkpt lat="47.46985" lon="6.74485">
        <ele>349</ele>
        <time>2015-05-17T07:47:25.000Z</time>
      </trkpt>
      <trkpt lat="47.46981" lon="6.74487">
        <ele>349</ele>
        <time>2015-05-17T07:47:27.000Z</time>
      </trkpt>
      <trkpt lat="47.4698" lon="6.74487">
        <ele>349</ele>
        <time>2015-05-17T07:47:28.000Z</time>
      </trkpt>
      <trkpt lat="47.46977" lon="6.74488">
        <ele>349</ele>
        <time>2015-05-17T07:47:30.000Z</time>
      </trkpt>
      <trkpt lat="47.46975" lon="6.74489">
        <ele>349</ele>
        <time>2015-05-17T07:47:31.000Z</time>
      </trkpt>
      <trkpt lat="47.46972" lon="6.74491">
        <ele>350</ele>
        <time>2015-05-17T07:47:33.000Z</time>
      </trkpt>
      <trkpt lat="47.46971" lon="6.74491">
        <ele>350</ele>
        <time>2015-05-17T07:47:34.000Z</time>
      </trkpt>
      <trkpt lat="47.46968" lon="6.74492">
        <ele>350</ele>
        <time>2015-05-17T07:47:36.000Z</time>
      </trkpt>
      <trkpt lat="47.46966" lon="6.74492">
        <ele>350</ele>
        <time>2015-05-17T07:47:37.000Z</time>
      </trkpt>
      <trkpt lat="47.46962" lon="6.74494">
        <ele>350</ele>
        <time>2015-05-17T07:47:40.000Z</time>
      </trkpt>
      <trkpt lat="47.46961" lon="6.74494">
        <ele>350</ele>
        <time>2015-05-17T07:47:41.000Z</time>
      </trkpt>
      <trkpt lat="47.46958" lon="6.74497">
        <ele>350</ele>
        <time>2015-05-17T07:47:45.000Z</time>
      </trkpt>
      <trkpt lat="47.46957" lon="6.74497">
        <ele>350</ele>
        <time>2015-05-17T07:47:46.000Z</time>
      </trkpt>
      <trkpt lat="47.46954" lon="6.74499">
        <ele>350</ele>
        <time>2015-05-17T07:47:48.000Z</time>
      </trkpt>
      <trkpt lat="47.46953" lon="6.745">
        <ele>349</ele>
        <time>2015-05-17T07:47:49.000Z</time>
      </trkpt>
      <trkpt lat="47.46951" lon="6.74502">
        <ele>349</ele>
        <time>2015-05-17T07:47:50.000Z</time>
      </trkpt>
      <trkpt lat="47.46949" lon="6.74504">
        <ele>349</ele>
        <time>2015-05-17T07:47:51.000Z</time>
      </trkpt>
      <trkpt lat="47.46946" lon="6.74506">
        <ele>349</ele>
        <time>2015-05-17T07:47:52.000Z</time>
      </trkpt>
      <trkpt lat="47.46943" lon="6.74509">
        <ele>349</ele>
        <time>2015-05-17T07:47:53.000Z</time>
      </trkpt>
      <trkpt lat="47.46941" lon="6.74511">
        <ele>349</ele>
        <time>2015-05-17T07:47:54.000Z</time>
      </trkpt>
      <trkpt lat="47.46938" lon="6.74512">
        <ele>349</ele>
        <time>2015-05-17T07:47:55.000Z</time>
      </trkpt>
      <trkpt lat="47.46936" lon="6.74514">
        <ele>349</ele>
        <time>2015-05-17T07:47:56.000Z</time>
      </trkpt>
      <trkpt lat="47.46934" lon="6.74516">
        <ele>349</ele>
        <time>2015-05-17T07:47:57.000Z</time>
      </trkpt>
      <trkpt lat="47.46931" lon="6.74519">
        <ele>349</ele>
        <time>2015-05-17T07:47:59.000Z</time>
      </trkpt>
      <trkpt lat="47.46929" lon="6.74519">
        <ele>349</ele>
        <time>2015-05-17T07:48:00.000Z</time>
      </trkpt>
      <trkpt lat="47.46927" lon="6.74513">
        <ele>350</ele>
        <time>2015-05-17T07:48:02.000Z</time>
      </trkpt>
      <trkpt lat="47.46926" lon="6.74509">
        <ele>350</ele>
        <time>2015-05-17T07:48:03.000Z</time>
      </trkpt>
      <trkpt lat="47.46925" lon="6.74505">
        <ele>351</ele>
        <time>2015-05-17T07:48:04.000Z</time>
      </trkpt>
      <trkpt lat="47.46923" lon="6.74501">
        <ele>351</ele>
        <time>2015-05-17T07:48:05.000Z</time>
      </trkpt>
      <trkpt lat="47.46921" lon="6.74498">
        <ele>352</ele>
        <time>2015-05-17T07:48:06.000Z</time>
      </trkpt>
      <trkpt lat="47.4692" lon="6.74494">
        <ele>352</ele>
        <time>2015-05-17T07:48:07.000Z</time>
      </trkpt>
      <trkpt lat="47.46919" lon="6.74489">
        <ele>352</ele>
        <time>2015-05-17T07:48:08.000Z</time>
      </trkpt>
      <trkpt lat="47.46919" lon="6.74485">
        <ele>352</ele>
        <time>2015-05-17T07:48:09.000Z</time>
      </trkpt>
      <trkpt lat="47.46919" lon="6.74481">
        <ele>352</ele>
        <time>2015-05-17T07:48:10.000Z</time>
      </trkpt>
      <trkpt lat="47.46918" lon="6.74477">
        <ele>352</ele>
        <time>2015-05-17T07:48:11.000Z</time>
      </trkpt>
      <trkpt lat="47.46917" lon="6.74473">
        <ele>352</ele>
        <time>2015-05-17T07:48:12.000Z</time>
      </trkpt>
      <trkpt lat="47.46917" lon="6.74469">
        <ele>352</ele>
        <time>2015-05-17T07:48:13.000Z</time>
      </trkpt>
      <trkpt lat="47.46916" lon="6.74465">
        <ele>361</ele>
        <time>2015-05-17T07:48:14.000Z</time>
      </trkpt>
      <trkpt lat="47.46915" lon="6.74461">
        <ele>361</ele>
        <time>2015-05-17T07:48:15.000Z</time>
      </trkpt>
      <trkpt lat="47.46915" lon="6.74457">
        <ele>361</ele>
        <time>2015-05-17T07:48:16.000Z</time>
      </trkpt>
      <trkpt lat="47.46915" lon="6.74453">
        <ele>362</ele>
        <time>2015-05-17T07:48:17.000Z</time>
      </trkpt>
      <trkpt lat="47.46914" lon="6.74449">
        <ele>362</ele>
        <time>2015-05-17T07:48:18.000Z</time>
      </trkpt>
      <trkpt lat="47.46914" lon="6.74445">
        <ele>362</ele>
        <time>2015-05-17T07:48:19.000Z</time>
      </trkpt>
      <trkpt lat="47.46914" lon="6.74441">
        <ele>361</ele>
        <time>2015-05-17T07:48:20.000Z</time>
      </trkpt>
      <trkpt lat="47.46913" lon="6.74437">
        <ele>361</ele>
        <time>2015-05-17T07:48:21.000Z</time>
      </trkpt>
      <trkpt lat="47.46913" lon="6.74434">
        <ele>361</ele>
        <time>2015-05-17T07:48:22.000Z</time>
      </trkpt>
      <trkpt lat="47.46912" lon="6.74431">
        <ele>361</ele>
        <time>2015-05-17T07:48:23.000Z</time>
      </trkpt>
      <trkpt lat="47.46912" lon="6.74428">
        <ele>360</ele>
        <time>2015-05-17T07:48:24.000Z</time>
      </trkpt>
      <trkpt lat="47.4691" lon="6.74424">
        <ele>360</ele>
        <time>2015-05-17T07:48:25.000Z</time>
      </trkpt>
      <trkpt lat="47.46909" lon="6.74421">
        <ele>360</ele>
        <time>2015-05-17T07:48:26.000Z</time>
      </trkpt>
      <trkpt lat="47.46908" lon="6.74418">
        <ele>360</ele>
        <time>2015-05-17T07:48:27.000Z</time>
      </trkpt>
      <trkpt lat="47.46907" lon="6.74415">
        <ele>363</ele>
        <time>2015-05-17T07:48:28.000Z</time>
      </trkpt>
      <trkpt lat="47.46905" lon="6.74412">
        <ele>364</ele>
        <time>2015-05-17T07:48:29.000Z</time>
      </trkpt>
      <trkpt lat="47.46903" lon="6.74406">
        <ele>366</ele>
        <time>2015-05-17T07:48:31.000Z</time>
      </trkpt>
      <trkpt lat="47.46902" lon="6.74403">
        <ele>367</ele>
        <time>2015-05-17T07:48:32.000Z</time>
      </trkpt>
      <trkpt lat="47.46901" lon="6.74398">
        <ele>368</ele>
        <time>2015-05-17T07:48:34.000Z</time>
      </trkpt>
      <trkpt lat="47.469" lon="6.74395">
        <ele>369</ele>
        <time>2015-05-17T07:48:35.000Z</time>
      </trkpt>
      <trkpt lat="47.46899" lon="6.7439">
        <ele>370</ele>
        <time>2015-05-17T07:48:37.000Z</time>
      </trkpt>
      <trkpt lat="47.46898" lon="6.74387">
        <ele>371</ele>
        <time>2015-05-17T07:48:38.000Z</time>
      </trkpt>
      <trkpt lat="47.46897" lon="6.74382">
        <ele>371</ele>
        <time>2015-05-17T07:48:40.000Z</time>
      </trkpt>
      <trkpt lat="47.46896" lon="6.74379">
        <ele>372</ele>
        <time>2015-05-17T07:48:41.000Z</time>
      </trkpt>
      <trkpt lat="47.46895" lon="6.74373">
        <ele>372</ele>
        <time>2015-05-17T07:48:43.000Z</time>
      </trkpt>
      <trkpt lat="47.46894" lon="6.7437">
        <ele>373</ele>
        <time>2015-05-17T07:48:44.000Z</time>
      </trkpt>
      <trkpt lat="47.46894" lon="6.74365">
        <ele>373</ele>
        <time>2015-05-17T07:48:47.000Z</time>
      </trkpt>
      <trkpt lat="47.46894" lon="6.74363">
        <ele>373</ele>
        <time>2015-05-17T07:48:48.000Z</time>
      </trkpt>
      <trkpt lat="47.46894" lon="6.74359">
        <ele>373</ele>
        <time>2015-05-17T07:48:50.000Z</time>
      </trkpt>
      <trkpt lat="47.46895" lon="6.74356">
        <ele>373</ele>
        <time>2015-05-17T07:48:51.000Z</time>
      </trkpt>
      <trkpt lat="47.46895" lon="6.74351">
        <ele>373</ele>
        <time>2015-05-17T07:48:53.000Z</time>
      </trkpt>
      <trkpt lat="47.46896" lon="6.74349">
        <ele>372</ele>
        <time>2015-05-17T07:48:54.000Z</time>
      </trkpt>
      <trkpt lat="47.46897" lon="6.74342">
        <ele>372</ele>
        <time>2015-05-17T07:48:57.000Z</time>
      </trkpt>
      <trkpt lat="47.46897" lon="6.7434">
        <ele>372</ele>
        <time>2015-05-17T07:48:58.000Z</time>
      </trkpt>
      <trkpt lat="47.46898" lon="6.74335">
        <ele>372</ele>
        <time>2015-05-17T07:49:01.000Z</time>
      </trkpt>
      <trkpt lat="47.46899" lon="6.74332">
        <ele>376</ele>
        <time>2015-05-17T07:49:02.000Z</time>
      </trkpt>
      <trkpt lat="47.46899" lon="6.74327">
        <ele>376</ele>
        <time>2015-05-17T07:49:04.000Z</time>
      </trkpt>
      <trkpt lat="47.46899" lon="6.74324">
        <ele>377</ele>
        <time>2015-05-17T07:49:05.000Z</time>
      </trkpt>
      <trkpt lat="47.46899" lon="6.74317">
        <ele>378</ele>
        <time>2015-05-17T07:49:07.000Z</time>
      </trkpt>
      <trkpt lat="47.46899" lon="6.74315">
        <ele>378</ele>
        <time>2015-05-17T07:49:08.000Z</time>
      </trkpt>
      <trkpt lat="47.46897" lon="6.7431">
        <ele>380</ele>
        <time>2015-05-17T07:49:22.000Z</time>
      </trkpt>
      <trkpt lat="47.46897" lon="6.74308">
        <ele>380</ele>
        <time>2015-05-17T07:49:23.000Z</time>
      </trkpt>
      <trkpt lat="47.46897" lon="6.74303">
        <ele>380</ele>
        <time>2015-05-17T07:49:26.000Z</time>
      </trkpt>
      <trkpt lat="47.46897" lon="6.743">
        <ele>381</ele>
        <time>2015-05-17T07:49:27.000Z</time>
      </trkpt>
      <trkpt lat="47.46897" lon="6.74294">
        <ele>381</ele>
        <time>2015-05-17T07:49:29.000Z</time>
      </trkpt>
      <trkpt lat="47.46897" lon="6.74292">
        <ele>381</ele>
        <time>2015-05-17T07:49:30.000Z</time>
      </trkpt>
      <trkpt lat="47.46899" lon="6.74287">
        <ele>381</ele>
        <time>2015-05-17T07:49:33.000Z</time>
      </trkpt>
      <trkpt lat="47.46899" lon="6.74284">
        <ele>382</ele>
        <time>2015-05-17T07:49:34.000Z</time>
      </trkpt>
      <trkpt lat="47.469" lon="6.74279">
        <ele>381</ele>
        <time>2015-05-17T07:49:36.000Z</time>
      </trkpt>
      <trkpt lat="47.46901" lon="6.74277">
        <ele>381</ele>
        <time>2015-05-17T07:49:37.000Z</time>
      </trkpt>
      <trkpt lat="47.46903" lon="6.74272">
        <ele>381</ele>
        <time>2015-05-17T07:49:40.000Z</time>
      </trkpt>
      <trkpt lat="47.46904" lon="6.7427">
        <ele>381</ele>
        <time>2015-05-17T07:49:41.000Z</time>
      </trkpt>
      <trkpt lat="47.46904" lon="6.74264">
        <ele>380</ele>
        <time>2015-05-17T07:49:44.000Z</time>
      </trkpt>
      <trkpt lat="47.46905" lon="6.74262">
        <ele>380</ele>
        <time>2015-05-17T07:49:45.000Z</time>
      </trkpt>
      <trkpt lat="47.46905" lon="6.74256">
        <ele>379</ele>
        <time>2015-05-17T07:49:47.000Z</time>
      </trkpt>
      <trkpt lat="47.46906" lon="6.74253">
        <ele>379</ele>
        <time>2015-05-17T07:49:48.000Z</time>
      </trkpt>
      <trkpt lat="47.46908" lon="6.74248">
        <ele>380</ele>
        <time>2015-05-17T07:49:50.000Z</time>
      </trkpt>
      <trkpt lat="47.46908" lon="6.74246">
        <ele>380</ele>
        <time>2015-05-17T07:49:51.000Z</time>
      </trkpt>
      <trkpt lat="47.46908" lon="6.74241">
        <ele>381</ele>
        <time>2015-05-17T07:49:54.000Z</time>
      </trkpt>
      <trkpt lat="47.46908" lon="6.74239">
        <ele>382</ele>
        <time>2015-05-17T07:49:55.000Z</time>
      </trkpt>
      <trkpt lat="47.46907" lon="6.74233">
        <ele>383</ele>
        <time>2015-05-17T07:49:58.000Z</time>
      </trkpt>
      <trkpt lat="47.46907" lon="6.74231">
        <ele>384</ele>
        <time>2015-05-17T07:49:59.000Z</time>
      </trkpt>
      <trkpt lat="47.46906" lon="6.74227">
        <ele>385</ele>
        <time>2015-05-17T07:50:01.000Z</time>
      </trkpt>
      <trkpt lat="47.46906" lon="6.74225">
        <ele>385</ele>
        <time>2015-05-17T07:50:02.000Z</time>
      </trkpt>
      <trkpt lat="47.46907" lon="6.74218">
        <ele>386</ele>
        <time>2015-05-17T07:50:05.000Z</time>
      </trkpt>
      <trkpt lat="47.46908" lon="6.74216">
        <ele>386</ele>
        <time>2015-05-17T07:50:06.000Z</time>
      </trkpt>
      <trkpt lat="47.46909" lon="6.74212">
        <ele>386</ele>
        <time>2015-05-17T07:50:08.000Z</time>
      </trkpt>
      <trkpt lat="47.4691" lon="6.7421">
        <ele>387</ele>
        <time>2015-05-17T07:50:09.000Z</time>
      </trkpt>
      <trkpt lat="47.46909" lon="6.74205">
        <ele>387</ele>
        <time>2015-05-17T07:50:12.000Z</time>
      </trkpt>
      <trkpt lat="47.46909" lon="6.74203">
        <ele>387</ele>
        <time>2015-05-17T07:50:13.000Z</time>
      </trkpt>
      <trkpt lat="47.46909" lon="6.74199">
        <ele>387</ele>
        <time>2015-05-17T07:50:15.000Z</time>
      </trkpt>
      <trkpt lat="47.46909" lon="6.74196">
        <ele>387</ele>
        <time>2015-05-17T07:50:16.000Z</time>
      </trkpt>
      <trkpt lat="47.46908" lon="6.74192">
        <ele>387</ele>
        <time>2015-05-17T07:50:17.000Z</time>
      </trkpt>
      <trkpt lat="47.46908" lon="6.74189">
        <ele>387</ele>
        <time>2015-05-17T07:50:18.000Z</time>
      </trkpt>
      <trkpt lat="47.46907" lon="6.74183">
        <ele>386</ele>
        <time>2015-05-17T07:50:22.000Z</time>
      </trkpt>
      <trkpt lat="47.46907" lon="6.74182">
        <ele>386</ele>
        <time>2015-05-17T07:50:23.000Z</time>
      </trkpt>
      <trkpt lat="47.46906" lon="6.74176">
        <ele>386</ele>
        <time>2015-05-17T07:50:25.000Z</time>
      </trkpt>
      <trkpt lat="47.46906" lon="6.74173">
        <ele>385</ele>
        <time>2015-05-17T07:50:26.000Z</time>
      </trkpt>
      <trkpt lat="47.46906" lon="6.74166">
        <ele>387</ele>
        <time>2015-05-17T07:50:28.000Z</time>
      </trkpt>
      <trkpt lat="47.46905" lon="6.74163">
        <ele>387</ele>
        <time>2015-05-17T07:50:29.000Z</time>
      </trkpt>
      <trkpt lat="47.46905" lon="6.7416">
        <ele>387</ele>
        <time>2015-05-17T07:50:30.000Z</time>
      </trkpt>
      <trkpt lat="47.46905" lon="6.74156">
        <ele>388</ele>
        <time>2015-05-17T07:50:31.000Z</time>
      </trkpt>
      <trkpt lat="47.46905" lon="6.74152">
        <ele>389</ele>
        <time>2015-05-17T07:50:32.000Z</time>
      </trkpt>
      <trkpt lat="47.46905" lon="6.74149">
        <ele>389</ele>
        <time>2015-05-17T07:50:33.000Z</time>
      </trkpt>
      <trkpt lat="47.46906" lon="6.74143">
        <ele>390</ele>
        <time>2015-05-17T07:50:35.000Z</time>
      </trkpt>
      <trkpt lat="47.46905" lon="6.7414">
        <ele>390</ele>
        <time>2015-05-17T07:50:36.000Z</time>
      </trkpt>
      <trkpt lat="47.46906" lon="6.74135">
        <ele>390</ele>
        <time>2015-05-17T07:50:38.000Z</time>
      </trkpt>
      <trkpt lat="47.46907" lon="6.74132">
        <ele>391</ele>
        <time>2015-05-17T07:50:39.000Z</time>
      </trkpt>
      <trkpt lat="47.46908" lon="6.74129">
        <ele>391</ele>
        <time>2015-05-17T07:50:40.000Z</time>
      </trkpt>
      <trkpt lat="47.46909" lon="6.74125">
        <ele>391</ele>
        <time>2015-05-17T07:50:41.000Z</time>
      </trkpt>
      <trkpt lat="47.46909" lon="6.74122">
        <ele>391</ele>
        <time>2015-05-17T07:50:42.000Z</time>
      </trkpt>
      <trkpt lat="47.4691" lon="6.74118">
        <ele>391</ele>
        <time>2015-05-17T07:50:43.000Z</time>
      </trkpt>
      <trkpt lat="47.4691" lon="6.74115">
        <ele>391</ele>
        <time>2015-05-17T07:50:44.000Z</time>
      </trkpt>
      <trkpt lat="47.46911" lon="6.74111">
        <ele>391</ele>
        <time>2015-05-17T07:50:45.000Z</time>
      </trkpt>
      <trkpt lat="47.46911" lon="6.74108">
        <ele>390</ele>
        <time>2015-05-17T07:50:46.000Z</time>
      </trkpt>
      <trkpt lat="47.46911" lon="6.74104">
        <ele>390</ele>
        <time>2015-05-17T07:50:47.000Z</time>
      </trkpt>
      <trkpt lat="47.4691" lon="6.74098">
        <ele>390</ele>
        <time>2015-05-17T07:50:49.000Z</time>
      </trkpt>
      <trkpt lat="47.4691" lon="6.74096">
        <ele>389</ele>
        <time>2015-05-17T07:50:50.000Z</time>
      </trkpt>
      <trkpt lat="47.46909" lon="6.7409">
        <ele>389</ele>
        <time>2015-05-17T07:50:52.000Z</time>
      </trkpt>
      <trkpt lat="47.46909" lon="6.74088">
        <ele>388</ele>
        <time>2015-05-17T07:50:53.000Z</time>
      </trkpt>
      <trkpt lat="47.46909" lon="6.74082">
        <ele>388</ele>
        <time>2015-05-17T07:50:55.000Z</time>
      </trkpt>
      <trkpt lat="47.46909" lon="6.7408">
        <ele>389</ele>
        <time>2015-05-17T07:50:56.000Z</time>
      </trkpt>
      <trkpt lat="47.46909" lon="6.74075">
        <ele>389</ele>
        <time>2015-05-17T07:50:58.000Z</time>
      </trkpt>
      <trkpt lat="47.46909" lon="6.74072">
        <ele>390</ele>
        <time>2015-05-17T07:50:59.000Z</time>
      </trkpt>
      <trkpt lat="47.46908" lon="6.74067">
        <ele>391</ele>
        <time>2015-05-17T07:51:01.000Z</time>
      </trkpt>
      <trkpt lat="47.46907" lon="6.74065">
        <ele>391</ele>
        <time>2015-05-17T07:51:02.000Z</time>
      </trkpt>
      <trkpt lat="47.46906" lon="6.74061">
        <ele>391</ele>
        <time>2015-05-17T07:51:04.000Z</time>
      </trkpt>
      <trkpt lat="47.46906" lon="6.74059">
        <ele>392</ele>
        <time>2015-05-17T07:51:05.000Z</time>
      </trkpt>
      <trkpt lat="47.46905" lon="6.74053">
        <ele>392</ele>
        <time>2015-05-17T07:51:08.000Z</time>
      </trkpt>
      <trkpt lat="47.46906" lon="6.74051">
        <ele>392</ele>
        <time>2015-05-17T07:51:09.000Z</time>
      </trkpt>
      <trkpt lat="47.46906" lon="6.74047">
        <ele>392</ele>
        <time>2015-05-17T07:51:11.000Z</time>
      </trkpt>
      <trkpt lat="47.46906" lon="6.74044">
        <ele>392</ele>
        <time>2015-05-17T07:51:12.000Z</time>
      </trkpt>
      <trkpt lat="47.46905" lon="6.7404">
        <ele>392</ele>
        <time>2015-05-17T07:51:14.000Z</time>
      </trkpt>
      <trkpt lat="47.46904" lon="6.74037">
        <ele>392</ele>
        <time>2015-05-17T07:51:15.000Z</time>
      </trkpt>
      <trkpt lat="47.46902" lon="6.74033">
        <ele>392</ele>
        <time>2015-05-17T07:51:17.000Z</time>
      </trkpt>
      <trkpt lat="47.46901" lon="6.7403">
        <ele>392</ele>
        <time>2015-05-17T07:51:18.000Z</time>
      </trkpt>
      <trkpt lat="47.46899" lon="6.74025">
        <ele>392</ele>
        <time>2015-05-17T07:51:20.000Z</time>
      </trkpt>
      <trkpt lat="47.46899" lon="6.74023">
        <ele>392</ele>
        <time>2015-05-17T07:51:21.000Z</time>
      </trkpt>
      <trkpt lat="47.46897" lon="6.74017">
        <ele>392</ele>
        <time>2015-05-17T07:51:23.000Z</time>
      </trkpt>
      <trkpt lat="47.46897" lon="6.74015">
        <ele>392</ele>
        <time>2015-05-17T07:51:24.000Z</time>
      </trkpt>
      <trkpt lat="47.46895" lon="6.74011">
        <ele>392</ele>
        <time>2015-05-17T07:51:26.000Z</time>
      </trkpt>
      <trkpt lat="47.46894" lon="6.7401">
        <ele>392</ele>
        <time>2015-05-17T07:51:27.000Z</time>
      </trkpt>
      <trkpt lat="47.46892" lon="6.74006">
        <ele>392</ele>
        <time>2015-05-17T07:51:29.000Z</time>
      </trkpt>
      <trkpt lat="47.46892" lon="6.74003">
        <ele>392</ele>
        <time>2015-05-17T07:51:30.000Z</time>
      </trkpt>
      <trkpt lat="47.46891" lon="6.73997">
        <ele>393</ele>
        <time>2015-05-17T07:51:32.000Z</time>
      </trkpt>
      <trkpt lat="47.46891" lon="6.73994">
        <ele>393</ele>
        <time>2015-05-17T07:51:33.000Z</time>
      </trkpt>
      <trkpt lat="47.46889" lon="6.73988">
        <ele>394</ele>
        <time>2015-05-17T07:51:35.000Z</time>
      </trkpt>
      <trkpt lat="47.46888" lon="6.73986">
        <ele>394</ele>
        <time>2015-05-17T07:51:36.000Z</time>
      </trkpt>
      <trkpt lat="47.46886" lon="6.73983">
        <ele>394</ele>
        <time>2015-05-17T07:51:38.000Z</time>
      </trkpt>
      <trkpt lat="47.46885" lon="6.7398">
        <ele>394</ele>
        <time>2015-05-17T07:51:39.000Z</time>
      </trkpt>
      <trkpt lat="47.46884" lon="6.73977">
        <ele>394</ele>
        <time>2015-05-17T07:51:40.000Z</time>
      </trkpt>
      <trkpt lat="47.46883" lon="6.73973">
        <ele>395</ele>
        <time>2015-05-17T07:51:41.000Z</time>
      </trkpt>
      <trkpt lat="47.46882" lon="6.7397">
        <ele>395</ele>
        <time>2015-05-17T07:51:42.000Z</time>
      </trkpt>
      <trkpt lat="47.46881" lon="6.73966">
        <ele>395</ele>
        <time>2015-05-17T07:51:43.000Z</time>
      </trkpt>
      <trkpt lat="47.4688" lon="6.7396">
        <ele>395</ele>
        <time>2015-05-17T07:51:45.000Z</time>
      </trkpt>
      <trkpt lat="47.4688" lon="6.73958">
        <ele>395</ele>
        <time>2015-05-17T07:51:46.000Z</time>
      </trkpt>
      <trkpt lat="47.46879" lon="6.73954">
        <ele>395</ele>
        <time>2015-05-17T07:51:48.000Z</time>
      </trkpt>
      <trkpt lat="47.46878" lon="6.73952">
        <ele>395</ele>
        <time>2015-05-17T07:51:49.000Z</time>
      </trkpt>
      <trkpt lat="47.46876" lon="6.73947">
        <ele>396</ele>
        <time>2015-05-17T07:51:51.000Z</time>
      </trkpt>
      <trkpt lat="47.46876" lon="6.73945">
        <ele>396</ele>
        <time>2015-05-17T07:51:52.000Z</time>
      </trkpt>
      <trkpt lat="47.46874" lon="6.7394">
        <ele>396</ele>
        <time>2015-05-17T07:51:54.000Z</time>
      </trkpt>
      <trkpt lat="47.46873" lon="6.73937">
        <ele>396</ele>
        <time>2015-05-17T07:51:55.000Z</time>
      </trkpt>
      <trkpt lat="47.46872" lon="6.73934">
        <ele>396</ele>
        <time>2015-05-17T07:51:56.000Z</time>
      </trkpt>
      <trkpt lat="47.46871" lon="6.73931">
        <ele>396</ele>
        <time>2015-05-17T07:51:57.000Z</time>
      </trkpt>
      <trkpt lat="47.46869" lon="6.73925">
        <ele>396</ele>
        <time>2015-05-17T07:51:59.000Z</time>
      </trkpt>
      <trkpt lat="47.46868" lon="6.73923">
        <ele>397</ele>
        <time>2015-05-17T07:52:00.000Z</time>
      </trkpt>
      <trkpt lat="47.46867" lon="6.73917">
        <ele>397</ele>
        <time>2015-05-17T07:52:02.000Z</time>
      </trkpt>
      <trkpt lat="47.46866" lon="6.73914">
        <ele>399</ele>
        <time>2015-05-17T07:52:03.000Z</time>
      </trkpt>
      <trkpt lat="47.46864" lon="6.73909">
        <ele>399</ele>
        <time>2015-05-17T07:52:05.000Z</time>
      </trkpt>
      <trkpt lat="47.46862" lon="6.73907">
        <ele>399</ele>
        <time>2015-05-17T07:52:06.000Z</time>
      </trkpt>
      <trkpt lat="47.4686" lon="6.73903">
        <ele>399</ele>
        <time>2015-05-17T07:52:08.000Z</time>
      </trkpt>
      <trkpt lat="47.46859" lon="6.739">
        <ele>399</ele>
        <time>2015-05-17T07:52:09.000Z</time>
      </trkpt>
      <trkpt lat="47.4686" lon="6.73894">
        <ele>399</ele>
        <time>2015-05-17T07:52:11.000Z</time>
      </trkpt>
      <trkpt lat="47.46861" lon="6.73892">
        <ele>399</ele>
        <time>2015-05-17T07:52:12.000Z</time>
      </trkpt>
      <trkpt lat="47.46862" lon="6.73887">
        <ele>399</ele>
        <time>2015-05-17T07:52:14.000Z</time>
      </trkpt>
      <trkpt lat="47.46861" lon="6.73885">
        <ele>399</ele>
        <time>2015-05-17T07:52:15.000Z</time>
      </trkpt>
      <trkpt lat="47.46859" lon="6.7388">
        <ele>399</ele>
        <time>2015-05-17T07:52:17.000Z</time>
      </trkpt>
      <trkpt lat="47.46858" lon="6.73878">
        <ele>399</ele>
        <time>2015-05-17T07:52:18.000Z</time>
      </trkpt>
      <trkpt lat="47.46857" lon="6.73875">
        <ele>399</ele>
        <time>2015-05-17T07:52:19.000Z</time>
      </trkpt>
      <trkpt lat="47.46855" lon="6.73872">
        <ele>400</ele>
        <time>2015-05-17T07:52:20.000Z</time>
      </trkpt>
      <trkpt lat="47.46852" lon="6.73867">
        <ele>400</ele>
        <time>2015-05-17T07:52:22.000Z</time>
      </trkpt>
      <trkpt lat="47.46851" lon="6.73865">
        <ele>400</ele>
        <time>2015-05-17T07:52:23.000Z</time>
      </trkpt>
      <trkpt lat="47.46848" lon="6.7386">
        <ele>400</ele>
        <time>2015-05-17T07:52:25.000Z</time>
      </trkpt>
      <trkpt lat="47.46846" lon="6.73858">
        <ele>401</ele>
        <time>2015-05-17T07:52:26.000Z</time>
      </trkpt>
      <trkpt lat="47.46842" lon="6.73855">
        <ele>401</ele>
        <time>2015-05-17T07:52:37.000Z</time>
      </trkpt>
      <trkpt lat="47.46841" lon="6.73853">
        <ele>401</ele>
        <time>2015-05-17T07:52:38.000Z</time>
      </trkpt>
      <trkpt lat="47.46839" lon="6.73848">
        <ele>402</ele>
        <time>2015-05-17T07:52:43.000Z</time>
      </trkpt>
      <trkpt lat="47.46838" lon="6.73848">
        <ele>402</ele>
        <time>2015-05-17T07:52:44.000Z</time>
      </trkpt>
      <trkpt lat="47.46836" lon="6.73845">
        <ele>403</ele>
        <time>2015-05-17T07:55:01.000Z</time>
      </trkpt>
      <trkpt lat="47.46835" lon="6.73842">
        <ele>403</ele>
        <time>2015-05-17T07:55:02.000Z</time>
      </trkpt>
      <trkpt lat="47.46834" lon="6.73838">
        <ele>404</ele>
        <time>2015-05-17T07:55:03.000Z</time>
      </trkpt>
      <trkpt lat="47.46833" lon="6.73835">
        <ele>405</ele>
        <time>2015-05-17T07:55:04.000Z</time>
      </trkpt>
      <trkpt lat="47.46832" lon="6.7383">
        <ele>405</ele>
        <time>2015-05-17T07:55:05.000Z</time>
      </trkpt>
      <trkpt lat="47.46831" lon="6.73826">
        <ele>404</ele>
        <time>2015-05-17T07:55:06.000Z</time>
      </trkpt>
      <trkpt lat="47.4683" lon="6.73821">
        <ele>403</ele>
        <time>2015-05-17T07:55:07.000Z</time>
      </trkpt>
      <trkpt lat="47.46829" lon="6.73814">
        <ele>403</ele>
        <time>2015-05-17T07:55:08.000Z</time>
      </trkpt>
      <trkpt lat="47.46828" lon="6.73808">
        <ele>402</ele>
        <time>2015-05-17T07:55:09.000Z</time>
      </trkpt>
      <trkpt lat="47.46827" lon="6.73802">
        <ele>402</ele>
        <time>2015-05-17T07:55:10.000Z</time>
      </trkpt>
      <trkpt lat="47.46824" lon="6.73799">
        <ele>402</ele>
        <time>2015-05-17T07:55:11.000Z</time>
      </trkpt>
      <trkpt lat="47.46821" lon="6.73796">
        <ele>402</ele>
        <time>2015-05-17T07:55:12.000Z</time>
      </trkpt>
      <trkpt lat="47.46817" lon="6.73794">
        <ele>401</ele>
        <time>2015-05-17T07:55:13.000Z</time>
      </trkpt>
      <trkpt lat="47.46813" lon="6.73792">
        <ele>401</ele>
        <time>2015-05-17T07:55:14.000Z</time>
      </trkpt>
      <trkpt lat="47.4681" lon="6.7379">
        <ele>401</ele>
        <time>2015-05-17T07:55:15.000Z</time>
      </trkpt>
      <trkpt lat="47.46807" lon="6.73788">
        <ele>401</ele>
        <time>2015-05-17T07:55:16.000Z</time>
      </trkpt>
      <trkpt lat="47.46804" lon="6.73787">
        <ele>401</ele>
        <time>2015-05-17T07:55:17.000Z</time>
      </trkpt>
      <trkpt lat="47.468" lon="6.73786">
        <ele>401</ele>
        <time>2015-05-17T07:55:18.000Z</time>
      </trkpt>
      <trkpt lat="47.46796" lon="6.73786">
        <ele>401</ele>
        <time>2015-05-17T07:55:19.000Z</time>
      </trkpt>
      <trkpt lat="47.46792" lon="6.73786">
        <ele>401</ele>
        <time>2015-05-17T07:55:20.000Z</time>
      </trkpt>
      <trkpt lat="47.46787" lon="6.73786">
        <ele>400</ele>
        <time>2015-05-17T07:55:21.000Z</time>
      </trkpt>
      <trkpt lat="47.46782" lon="6.73786">
        <ele>400</ele>
        <time>2015-05-17T07:55:22.000Z</time>
      </trkpt>
      <trkpt lat="47.46772" lon="6.73788">
        <ele>400</ele>
        <time>2015-05-17T07:55:23.000Z</time>
      </trkpt>
      <trkpt lat="47.46766" lon="6.7379">
        <ele>400</ele>
        <time>2015-05-17T07:55:24.000Z</time>
      </trkpt>
      <trkpt lat="47.46764" lon="6.73791">
        <ele>400</ele>
        <time>2015-05-17T07:55:25.000Z</time>
      </trkpt>
      <trkpt lat="47.4676" lon="6.73792">
        <ele>400</ele>
        <time>2015-05-17T07:55:26.000Z</time>
      </trkpt>
      <trkpt lat="47.46755" lon="6.73795">
        <ele>400</ele>
        <time>2015-05-17T07:55:27.000Z</time>
      </trkpt>
      <trkpt lat="47.46749" lon="6.73802">
        <ele>399</ele>
        <time>2015-05-17T07:55:28.000Z</time>
      </trkpt>
      <trkpt lat="47.46743" lon="6.73807">
        <ele>399</ele>
        <time>2015-05-17T07:55:29.000Z</time>
      </trkpt>
      <trkpt lat="47.4674" lon="6.73815">
        <ele>400</ele>
        <time>2015-05-17T07:55:30.000Z</time>
      </trkpt>
      <trkpt lat="47.46735" lon="6.73825">
        <ele>400</ele>
        <time>2015-05-17T07:55:31.000Z</time>
      </trkpt>
      <trkpt lat="47.46726" lon="6.73834">
        <ele>402</ele>
        <time>2015-05-17T07:55:32.000Z</time>
      </trkpt>
      <trkpt lat="47.46716" lon="6.73844">
        <ele>402</ele>
        <time>2015-05-17T07:55:33.000Z</time>
      </trkpt>
      <trkpt lat="47.4671" lon="6.73848">
        <ele>402</ele>
        <time>2015-05-17T07:55:34.000Z</time>
      </trkpt>
      <trkpt lat="47.46704" lon="6.73849">
        <ele>401</ele>
        <time>2015-05-17T07:55:35.000Z</time>
      </trkpt>
      <trkpt lat="47.46702" lon="6.73842">
        <ele>401</ele>
        <time>2015-05-17T07:55:36.000Z</time>
      </trkpt>
      <trkpt lat="47.46696" lon="6.73843">
        <ele>401</ele>
        <time>2015-05-17T07:55:37.000Z</time>
      </trkpt>
      <trkpt lat="47.46688" lon="6.73841">
        <ele>401</ele>
        <time>2015-05-17T07:55:38.000Z</time>
      </trkpt>
      <trkpt lat="47.46684" lon="6.73837">
        <ele>401</ele>
        <time>2015-05-17T07:55:39.000Z</time>
      </trkpt>
      <trkpt lat="47.46682" lon="6.73833">
        <ele>400</ele>
        <time>2015-05-17T07:55:40.000Z</time>
      </trkpt>
      <trkpt lat="47.46678" lon="6.73832">
        <ele>400</ele>
        <time>2015-05-17T07:55:41.000Z</time>
      </trkpt>
      <trkpt lat="47.46676" lon="6.73827">
        <ele>400</ele>
        <time>2015-05-17T07:55:42.000Z</time>
      </trkpt>
      <trkpt lat="47.46675" lon="6.73819">
        <ele>400</ele>
        <time>2015-05-17T07:55:43.000Z</time>
      </trkpt>
      <trkpt lat="47.46674" lon="6.73812">
        <ele>399</ele>
        <time>2015-05-17T07:55:44.000Z</time>
      </trkpt>
      <trkpt lat="47.46672" lon="6.73807">
        <ele>399</ele>
        <time>2015-05-17T07:55:45.000Z</time>
      </trkpt>
      <trkpt lat="47.46671" lon="6.73802">
        <ele>399</ele>
        <time>2015-05-17T07:55:46.000Z</time>
      </trkpt>
      <trkpt lat="47.46669" lon="6.73797">
        <ele>399</ele>
        <time>2015-05-17T07:55:47.000Z</time>
      </trkpt>
      <trkpt lat="47.46668" lon="6.73793">
        <ele>399</ele>
        <time>2015-05-17T07:55:48.000Z</time>
      </trkpt>
      <trkpt lat="47.46667" lon="6.73789">
        <ele>398</ele>
        <time>2015-05-17T07:55:49.000Z</time>
      </trkpt>
      <trkpt lat="47.46666" lon="6.73785">
        <ele>400</ele>
        <time>2015-05-17T07:55:50.000Z</time>
      </trkpt>
      <trkpt lat="47.46665" lon="6.73781">
        <ele>400</ele>
        <time>2015-05-17T07:55:51.000Z</time>
      </trkpt>
      <trkpt lat="47.46664" lon="6.73777">
        <ele>400</ele>
        <time>2015-05-17T07:55:52.000Z</time>
      </trkpt>
      <trkpt lat="47.46662" lon="6.73773">
        <ele>400</ele>
        <time>2015-05-17T07:55:53.000Z</time>
      </trkpt>
      <trkpt lat="47.4666" lon="6.73768">
        <ele>399</ele>
        <time>2015-05-17T07:55:54.000Z</time>
      </trkpt>
      <trkpt lat="47.46657" lon="6.73764">
        <ele>399</ele>
        <time>2015-05-17T07:55:55.000Z</time>
      </trkpt>
      <trkpt lat="47.46654" lon="6.7376">
        <ele>399</ele>
        <time>2015-05-17T07:55:56.000Z</time>
      </trkpt>
      <trkpt lat="47.4665" lon="6.73756">
        <ele>399</ele>
        <time>2015-05-17T07:55:57.000Z</time>
      </trkpt>
      <trkpt lat="47.46647" lon="6.73753">
        <ele>399</ele>
        <time>2015-05-17T07:55:58.000Z</time>
      </trkpt>
      <trkpt lat="47.46644" lon="6.7375">
        <ele>395</ele>
        <time>2015-05-17T07:55:59.000Z</time>
      </trkpt>
      <trkpt lat="47.46641" lon="6.73747">
        <ele>395</ele>
        <time>2015-05-17T07:56:00.000Z</time>
      </trkpt>
      <trkpt lat="47.46638" lon="6.73744">
        <ele>395</ele>
        <time>2015-05-17T07:56:01.000Z</time>
      </trkpt>
      <trkpt lat="47.46636" lon="6.73741">
        <ele>395</ele>
        <time>2015-05-17T07:56:02.000Z</time>
      </trkpt>
      <trkpt lat="47.46633" lon="6.73739">
        <ele>394</ele>
        <time>2015-05-17T07:56:03.000Z</time>
      </trkpt>
      <trkpt lat="47.46631" lon="6.73736">
        <ele>394</ele>
        <time>2015-05-17T07:56:04.000Z</time>
      </trkpt>
      <trkpt lat="47.46628" lon="6.73734">
        <ele>394</ele>
        <time>2015-05-17T07:56:05.000Z</time>
      </trkpt>
      <trkpt lat="47.46627" lon="6.73732">
        <ele>394</ele>
        <time>2015-05-17T07:56:06.000Z</time>
      </trkpt>
      <trkpt lat="47.46623" lon="6.73729">
        <ele>394</ele>
        <time>2015-05-17T07:56:08.000Z</time>
      </trkpt>
      <trkpt lat="47.46621" lon="6.73728">
        <ele>395</ele>
        <time>2015-05-17T07:56:09.000Z</time>
      </trkpt>
      <trkpt lat="47.46619" lon="6.73728">
        <ele>395</ele>
        <time>2015-05-17T07:56:10.000Z</time>
      </trkpt>
      <trkpt lat="47.46616" lon="6.73727">
        <ele>395</ele>
        <time>2015-05-17T07:56:11.000Z</time>
      </trkpt>
      <trkpt lat="47.46612" lon="6.73726">
        <ele>395</ele>
        <time>2015-05-17T07:56:13.000Z</time>
      </trkpt>
      <trkpt lat="47.4661" lon="6.73725">
        <ele>395</ele>
        <time>2015-05-17T07:56:14.000Z</time>
      </trkpt>
      <trkpt lat="47.46606" lon="6.73724">
        <ele>395</ele>
        <time>2015-05-17T07:56:16.000Z</time>
      </trkpt>
      <trkpt lat="47.46604" lon="6.73722">
        <ele>395</ele>
        <time>2015-05-17T07:56:17.000Z</time>
      </trkpt>
      <trkpt lat="47.46601" lon="6.73721">
        <ele>395</ele>
        <time>2015-05-17T07:56:18.000Z</time>
      </trkpt>
      <trkpt lat="47.46599" lon="6.73719">
        <ele>395</ele>
        <time>2015-05-17T07:56:19.000Z</time>
      </trkpt>
      <trkpt lat="47.46597" lon="6.73717">
        <ele>395</ele>
        <time>2015-05-17T07:56:20.000Z</time>
      </trkpt>
      <trkpt lat="47.46595" lon="6.73715">
        <ele>395</ele>
        <time>2015-05-17T07:56:21.000Z</time>
      </trkpt>
      <trkpt lat="47.46593" lon="6.73714">
        <ele>395</ele>
        <time>2015-05-17T07:56:22.000Z</time>
      </trkpt>
      <trkpt lat="47.4659" lon="6.73713">
        <ele>395</ele>
        <time>2015-05-17T07:56:23.000Z</time>
      </trkpt>
      <trkpt lat="47.46587" lon="6.73711">
        <ele>395</ele>
        <time>2015-05-17T07:56:24.000Z</time>
      </trkpt>
      <trkpt lat="47.46584" lon="6.73709">
        <ele>394</ele>
        <time>2015-05-17T07:56:25.000Z</time>
      </trkpt>
      <trkpt lat="47.46581" lon="6.73707">
        <ele>400</ele>
        <time>2015-05-17T07:56:26.000Z</time>
      </trkpt>
      <trkpt lat="47.46577" lon="6.73705">
        <ele>399</ele>
        <time>2015-05-17T07:56:27.000Z</time>
      </trkpt>
      <trkpt lat="47.46574" lon="6.73703">
        <ele>399</ele>
        <time>2015-05-17T07:56:28.000Z</time>
      </trkpt>
      <trkpt lat="47.4657" lon="6.73701">
        <ele>399</ele>
        <time>2015-05-17T07:56:29.000Z</time>
      </trkpt>
      <trkpt lat="47.46567" lon="6.737">
        <ele>399</ele>
        <time>2015-05-17T07:56:30.000Z</time>
      </trkpt>
      <trkpt lat="47.46564" lon="6.73699">
        <ele>399</ele>
        <time>2015-05-17T07:56:31.000Z</time>
      </trkpt>
      <trkpt lat="47.46561" lon="6.73698">
        <ele>399</ele>
        <time>2015-05-17T07:56:32.000Z</time>
      </trkpt>
      <trkpt lat="47.46558" lon="6.73697">
        <ele>400</ele>
        <time>2015-05-17T07:56:33.000Z</time>
      </trkpt>
      <trkpt lat="47.46554" lon="6.73697">
        <ele>400</ele>
        <time>2015-05-17T07:56:34.000Z</time>
      </trkpt>
      <trkpt lat="47.4655" lon="6.73697">
        <ele>400</ele>
        <time>2015-05-17T07:56:35.000Z</time>
      </trkpt>
      <trkpt lat="47.46546" lon="6.73697">
        <ele>400</ele>
        <time>2015-05-17T07:56:36.000Z</time>
      </trkpt>
      <trkpt lat="47.46542" lon="6.73697">
        <ele>401</ele>
        <time>2015-05-17T07:56:37.000Z</time>
      </trkpt>
      <trkpt lat="47.46539" lon="6.73696">
        <ele>401</ele>
        <time>2015-05-17T07:56:38.000Z</time>
      </trkpt>
      <trkpt lat="47.46535" lon="6.73696">
        <ele>401</ele>
        <time>2015-05-17T07:56:39.000Z</time>
      </trkpt>
      <trkpt lat="47.4653" lon="6.73696">
        <ele>401</ele>
        <time>2015-05-17T07:56:40.000Z</time>
      </trkpt>
      <trkpt lat="47.46526" lon="6.73696">
        <ele>402</ele>
        <time>2015-05-17T07:56:41.000Z</time>
      </trkpt>
      <trkpt lat="47.46522" lon="6.73697">
        <ele>402</ele>
        <time>2015-05-17T07:56:42.000Z</time>
      </trkpt>
      <trkpt lat="47.46519" lon="6.73696">
        <ele>402</ele>
        <time>2015-05-17T07:56:43.000Z</time>
      </trkpt>
      <trkpt lat="47.46517" lon="6.73696">
        <ele>402</ele>
        <time>2015-05-17T07:56:44.000Z</time>
      </trkpt>
      <trkpt lat="47.46514" lon="6.73696">
        <ele>402</ele>
        <time>2015-05-17T07:56:45.000Z</time>
      </trkpt>
      <trkpt lat="47.46512" lon="6.73697">
        <ele>402</ele>
        <time>2015-05-17T07:56:46.000Z</time>
      </trkpt>
      <trkpt lat="47.46509" lon="6.73699">
        <ele>402</ele>
        <time>2015-05-17T07:56:47.000Z</time>
      </trkpt>
      <trkpt lat="47.46507" lon="6.73701">
        <ele>402</ele>
        <time>2015-05-17T07:56:48.000Z</time>
      </trkpt>
      <trkpt lat="47.46506" lon="6.73704">
        <ele>403</ele>
        <time>2015-05-17T07:56:49.000Z</time>
      </trkpt>
      <trkpt lat="47.46504" lon="6.73707">
        <ele>403</ele>
        <time>2015-05-17T07:56:50.000Z</time>
      </trkpt>
      <trkpt lat="47.46502" lon="6.73709">
        <ele>403</ele>
        <time>2015-05-17T07:56:51.000Z</time>
      </trkpt>
      <trkpt lat="47.465" lon="6.73711">
        <ele>409</ele>
        <time>2015-05-17T07:56:52.000Z</time>
      </trkpt>
      <trkpt lat="47.46498" lon="6.73712">
        <ele>409</ele>
        <time>2015-05-17T07:56:53.000Z</time>
      </trkpt>
      <trkpt lat="47.46495" lon="6.73713">
        <ele>409</ele>
        <time>2015-05-17T07:56:54.000Z</time>
      </trkpt>
      <trkpt lat="47.46493" lon="6.73715">
        <ele>409</ele>
        <time>2015-05-17T07:56:55.000Z</time>
      </trkpt>
      <trkpt lat="47.46491" lon="6.73716">
        <ele>409</ele>
        <time>2015-05-17T07:56:56.000Z</time>
      </trkpt>
      <trkpt lat="47.46489" lon="6.73717">
        <ele>409</ele>
        <time>2015-05-17T07:56:57.000Z</time>
      </trkpt>
      <trkpt lat="47.46487" lon="6.73719">
        <ele>409</ele>
        <time>2015-05-17T07:56:58.000Z</time>
      </trkpt>
      <trkpt lat="47.46485" lon="6.73721">
        <ele>409</ele>
        <time>2015-05-17T07:56:59.000Z</time>
      </trkpt>
      <trkpt lat="47.46482" lon="6.73726">
        <ele>410</ele>
        <time>2015-05-17T07:57:01.000Z</time>
      </trkpt>
      <trkpt lat="47.46481" lon="6.73728">
        <ele>410</ele>
        <time>2015-05-17T07:57:02.000Z</time>
      </trkpt>
      <trkpt lat="47.46478" lon="6.73731">
        <ele>410</ele>
        <time>2015-05-17T07:57:05.000Z</time>
      </trkpt>
      <trkpt lat="47.46476" lon="6.73732">
        <ele>410</ele>
        <time>2015-05-17T07:57:06.000Z</time>
      </trkpt>
      <trkpt lat="47.46472" lon="6.73732">
        <ele>410</ele>
        <time>2015-05-17T07:57:09.000Z</time>
      </trkpt>
      <trkpt lat="47.4647" lon="6.73732">
        <ele>410</ele>
        <time>2015-05-17T07:57:10.000Z</time>
      </trkpt>
      <trkpt lat="47.46466" lon="6.7373">
        <ele>410</ele>
        <time>2015-05-17T07:57:12.000Z</time>
      </trkpt>
      <trkpt lat="47.46464" lon="6.7373">
        <ele>411</ele>
        <time>2015-05-17T07:57:13.000Z</time>
      </trkpt>
      <trkpt lat="47.46461" lon="6.73731">
        <ele>411</ele>
        <time>2015-05-17T07:57:14.000Z</time>
      </trkpt>
      <trkpt lat="47.46458" lon="6.73732">
        <ele>411</ele>
        <time>2015-05-17T07:57:15.000Z</time>
      </trkpt>
      <trkpt lat="47.46455" lon="6.73733">
        <ele>411</ele>
        <time>2015-05-17T07:57:16.000Z</time>
      </trkpt>
      <trkpt lat="47.46453" lon="6.73733">
        <ele>411</ele>
        <time>2015-05-17T07:57:17.000Z</time>
      </trkpt>
      <trkpt lat="47.46448" lon="6.73732">
        <ele>412</ele>
        <time>2015-05-17T07:57:19.000Z</time>
      </trkpt>
      <trkpt lat="47.46446" lon="6.73732">
        <ele>412</ele>
        <time>2015-05-17T07:57:20.000Z</time>
      </trkpt>
      <trkpt lat="47.46443" lon="6.73731">
        <ele>412</ele>
        <time>2015-05-17T07:57:21.000Z</time>
      </trkpt>
      <trkpt lat="47.46441" lon="6.73731">
        <ele>412</ele>
        <time>2015-05-17T07:57:22.000Z</time>
      </trkpt>
      <trkpt lat="47.46438" lon="6.7373">
        <ele>412</ele>
        <time>2015-05-17T07:57:23.000Z</time>
      </trkpt>
      <trkpt lat="47.46434" lon="6.73729">
        <ele>412</ele>
        <time>2015-05-17T07:57:24.000Z</time>
      </trkpt>
      <trkpt lat="47.46431" lon="6.73727">
        <ele>413</ele>
        <time>2015-05-17T07:57:25.000Z</time>
      </trkpt>
      <trkpt lat="47.46428" lon="6.73726">
        <ele>413</ele>
        <time>2015-05-17T07:57:26.000Z</time>
      </trkpt>
      <trkpt lat="47.46426" lon="6.73725">
        <ele>413</ele>
        <time>2015-05-17T07:57:27.000Z</time>
      </trkpt>
      <trkpt lat="47.46423" lon="6.73725">
        <ele>413</ele>
        <time>2015-05-17T07:57:28.000Z</time>
      </trkpt>
      <trkpt lat="47.46419" lon="6.73725">
        <ele>413</ele>
        <time>2015-05-17T07:57:30.000Z</time>
      </trkpt>
      <trkpt lat="47.46418" lon="6.73725">
        <ele>413</ele>
        <time>2015-05-17T07:57:31.000Z</time>
      </trkpt>
      <trkpt lat="47.46414" lon="6.73725">
        <ele>417</ele>
        <time>2015-05-17T07:57:33.000Z</time>
      </trkpt>
      <trkpt lat="47.46413" lon="6.73725">
        <ele>417</ele>
        <time>2015-05-17T07:57:34.000Z</time>
      </trkpt>
      <trkpt lat="47.46409" lon="6.73726">
        <ele>417</ele>
        <time>2015-05-17T07:57:36.000Z</time>
      </trkpt>
      <trkpt lat="47.46408" lon="6.73726">
        <ele>417</ele>
        <time>2015-05-17T07:57:37.000Z</time>
      </trkpt>
      <trkpt lat="47.46404" lon="6.73726">
        <ele>417</ele>
        <time>2015-05-17T07:57:39.000Z</time>
      </trkpt>
      <trkpt lat="47.46402" lon="6.73726">
        <ele>417</ele>
        <time>2015-05-17T07:57:40.000Z</time>
      </trkpt>
      <trkpt lat="47.46397" lon="6.73725">
        <ele>417</ele>
        <time>2015-05-17T07:57:42.000Z</time>
      </trkpt>
      <trkpt lat="47.46395" lon="6.73724">
        <ele>417</ele>
        <time>2015-05-17T07:57:43.000Z</time>
      </trkpt>
      <trkpt lat="47.46391" lon="6.73722">
        <ele>417</ele>
        <time>2015-05-17T07:57:45.000Z</time>
      </trkpt>
      <trkpt lat="47.4639" lon="6.73722">
        <ele>417</ele>
        <time>2015-05-17T07:57:46.000Z</time>
      </trkpt>
      <trkpt lat="47.46387" lon="6.73723">
        <ele>417</ele>
        <time>2015-05-17T07:57:48.000Z</time>
      </trkpt>
      <trkpt lat="47.46385" lon="6.73722">
        <ele>417</ele>
        <time>2015-05-17T07:57:49.000Z</time>
      </trkpt>
      <trkpt lat="47.46382" lon="6.7372">
        <ele>417</ele>
        <time>2015-05-17T07:57:51.000Z</time>
      </trkpt>
      <trkpt lat="47.4638" lon="6.73719">
        <ele>418</ele>
        <time>2015-05-17T07:57:52.000Z</time>
      </trkpt>
      <trkpt lat="47.46376" lon="6.73718">
        <ele>418</ele>
        <time>2015-05-17T07:57:54.000Z</time>
      </trkpt>
      <trkpt lat="47.46374" lon="6.73718">
        <ele>418</ele>
        <time>2015-05-17T07:57:55.000Z</time>
      </trkpt>
      <trkpt lat="47.4637" lon="6.73718">
        <ele>418</ele>
        <time>2015-05-17T07:57:57.000Z</time>
      </trkpt>
      <trkpt lat="47.46368" lon="6.73718">
        <ele>418</ele>
        <time>2015-05-17T07:57:58.000Z</time>
      </trkpt>
      <trkpt lat="47.46363" lon="6.73718">
        <ele>418</ele>
        <time>2015-05-17T07:58:00.000Z</time>
      </trkpt>
      <trkpt lat="47.46362" lon="6.73717">
        <ele>418</ele>
        <time>2015-05-17T07:58:01.000Z</time>
      </trkpt>
      <trkpt lat="47.46359" lon="6.73715">
        <ele>418</ele>
        <time>2015-05-17T07:58:03.000Z</time>
      </trkpt>
      <trkpt lat="47.46358" lon="6.73713">
        <ele>418</ele>
        <time>2015-05-17T07:58:04.000Z</time>
      </trkpt>
      <trkpt lat="47.46355" lon="6.73709">
        <ele>418</ele>
        <time>2015-05-17T07:58:06.000Z</time>
      </trkpt>
      <trkpt lat="47.46353" lon="6.73707">
        <ele>418</ele>
        <time>2015-05-17T07:58:07.000Z</time>
      </trkpt>
      <trkpt lat="47.4635" lon="6.73703">
        <ele>419</ele>
        <time>2015-05-17T07:58:09.000Z</time>
      </trkpt>
      <trkpt lat="47.46348" lon="6.73702">
        <ele>419</ele>
        <time>2015-05-17T07:58:10.000Z</time>
      </trkpt>
      <trkpt lat="47.46345" lon="6.73699">
        <ele>419</ele>
        <time>2015-05-17T07:58:12.000Z</time>
      </trkpt>
      <trkpt lat="47.46344" lon="6.73699">
        <ele>419</ele>
        <time>2015-05-17T07:58:13.000Z</time>
      </trkpt>
      <trkpt lat="47.4634" lon="6.73698">
        <ele>419</ele>
        <time>2015-05-17T07:58:15.000Z</time>
      </trkpt>
      <trkpt lat="47.46337" lon="6.73698">
        <ele>419</ele>
        <time>2015-05-17T07:58:16.000Z</time>
      </trkpt>
      <trkpt lat="47.46334" lon="6.73696">
        <ele>419</ele>
        <time>2015-05-17T07:58:17.000Z</time>
      </trkpt>
      <trkpt lat="47.46332" lon="6.73695">
        <ele>420</ele>
        <time>2015-05-17T07:58:18.000Z</time>
      </trkpt>
      <trkpt lat="47.46329" lon="6.73695">
        <ele>420</ele>
        <time>2015-05-17T07:58:19.000Z</time>
      </trkpt>
      <trkpt lat="47.46326" lon="6.73695">
        <ele>420</ele>
        <time>2015-05-17T07:58:20.000Z</time>
      </trkpt>
      <trkpt lat="47.46324" lon="6.73696">
        <ele>420</ele>
        <time>2015-05-17T07:58:21.000Z</time>
      </trkpt>
      <trkpt lat="47.46321" lon="6.73697">
        <ele>420</ele>
        <time>2015-05-17T07:58:22.000Z</time>
      </trkpt>
      <trkpt lat="47.46318" lon="6.73698">
        <ele>420</ele>
        <time>2015-05-17T07:58:23.000Z</time>
      </trkpt>
      <trkpt lat="47.46316" lon="6.73698">
        <ele>420</ele>
        <time>2015-05-17T07:58:23.998Z</time>
      </trkpt>
      <trkpt lat="47.46313" lon="6.737">
        <ele>420</ele>
        <time>2015-05-17T07:58:25.000Z</time>
      </trkpt>
      <trkpt lat="47.4631" lon="6.73701">
        <ele>420</ele>
        <time>2015-05-17T07:58:26.000Z</time>
      </trkpt>
      <trkpt lat="47.46307" lon="6.73701">
        <ele>420</ele>
        <time>2015-05-17T07:58:27.000Z</time>
      </trkpt>
      <trkpt lat="47.46304" lon="6.73702">
        <ele>420</ele>
        <time>2015-05-17T07:58:28.000Z</time>
      </trkpt>
      <trkpt lat="47.463" lon="6.73702">
        <ele>420</ele>
        <time>2015-05-17T07:58:29.000Z</time>
      </trkpt>
      <trkpt lat="47.46296" lon="6.73703">
        <ele>420</ele>
        <time>2015-05-17T07:58:30.000Z</time>
      </trkpt>
      <trkpt lat="47.46292" lon="6.73703">
        <ele>420</ele>
        <time>2015-05-17T07:58:31.000Z</time>
      </trkpt>
      <trkpt lat="47.46288" lon="6.73703">
        <ele>420</ele>
        <time>2015-05-17T07:58:32.000Z</time>
      </trkpt>
      <trkpt lat="47.46284" lon="6.73703">
        <ele>420</ele>
        <time>2015-05-17T07:58:32.998Z</time>
      </trkpt>
      <trkpt lat="47.4628" lon="6.73703">
        <ele>420</ele>
        <time>2015-05-17T07:58:34.000Z</time>
      </trkpt>
      <trkpt lat="47.46277" lon="6.73704">
        <ele>420</ele>
        <time>2015-05-17T07:58:35.000Z</time>
      </trkpt>
      <trkpt lat="47.46273" lon="6.73704">
        <ele>420</ele>
        <time>2015-05-17T07:58:36.000Z</time>
      </trkpt>
      <trkpt lat="47.4627" lon="6.73705">
        <ele>420</ele>
        <time>2015-05-17T07:58:37.000Z</time>
      </trkpt>
      <trkpt lat="47.46266" lon="6.73705">
        <ele>420</ele>
        <time>2015-05-17T07:58:38.000Z</time>
      </trkpt>
      <trkpt lat="47.46262" lon="6.73705">
        <ele>420</ele>
        <time>2015-05-17T07:58:39.000Z</time>
      </trkpt>
      <trkpt lat="47.46258" lon="6.73705">
        <ele>420</ele>
        <time>2015-05-17T07:58:40.000Z</time>
      </trkpt>
      <trkpt lat="47.46255" lon="6.73705">
        <ele>420</ele>
        <time>2015-05-17T07:58:41.000Z</time>
      </trkpt>
      <trkpt lat="47.46252" lon="6.73705">
        <ele>420</ele>
        <time>2015-05-17T07:58:42.000Z</time>
      </trkpt>
      <trkpt lat="47.46248" lon="6.73705">
        <ele>421</ele>
        <time>2015-05-17T07:58:43.000Z</time>
      </trkpt>
      <trkpt lat="47.46245" lon="6.73705">
        <ele>421</ele>
        <time>2015-05-17T07:58:44.000Z</time>
      </trkpt>
      <trkpt lat="47.46242" lon="6.73705">
        <ele>421</ele>
        <time>2015-05-17T07:58:45.000Z</time>
      </trkpt>
      <trkpt lat="47.46238" lon="6.73705">
        <ele>421</ele>
        <time>2015-05-17T07:58:46.000Z</time>
      </trkpt>
      <trkpt lat="47.46235" lon="6.73706">
        <ele>421</ele>
        <time>2015-05-17T07:58:47.000Z</time>
      </trkpt>
      <trkpt lat="47.46231" lon="6.73706">
        <ele>421</ele>
        <time>2015-05-17T07:58:48.000Z</time>
      </trkpt>
      <trkpt lat="47.46228" lon="6.73706">
        <ele>421</ele>
        <time>2015-05-17T07:58:49.000Z</time>
      </trkpt>
      <trkpt lat="47.46225" lon="6.73706">
        <ele>421</ele>
        <time>2015-05-17T07:58:50.000Z</time>
      </trkpt>
      <trkpt lat="47.46221" lon="6.73706">
        <ele>421</ele>
        <time>2015-05-17T07:58:51.000Z</time>
      </trkpt>
      <trkpt lat="47.46218" lon="6.73706">
        <ele>421</ele>
        <time>2015-05-17T07:58:52.000Z</time>
      </trkpt>
      <trkpt lat="47.46214" lon="6.73706">
        <ele>421</ele>
        <time>2015-05-17T07:58:53.000Z</time>
      </trkpt>
      <trkpt lat="47.46211" lon="6.73705">
        <ele>421</ele>
        <time>2015-05-17T07:58:54.000Z</time>
      </trkpt>
      <trkpt lat="47.46207" lon="6.73705">
        <ele>422</ele>
        <time>2015-05-17T07:58:55.000Z</time>
      </trkpt>
      <trkpt lat="47.46204" lon="6.73705">
        <ele>422</ele>
        <time>2015-05-17T07:58:56.000Z</time>
      </trkpt>
      <trkpt lat="47.46201" lon="6.73705">
        <ele>422</ele>
        <time>2015-05-17T07:58:57.000Z</time>
      </trkpt>
      <trkpt lat="47.46198" lon="6.73705">
        <ele>422</ele>
        <time>2015-05-17T07:58:58.000Z</time>
      </trkpt>
      <trkpt lat="47.46194" lon="6.73705">
        <ele>422</ele>
        <time>2015-05-17T07:58:59.000Z</time>
      </trkpt>
      <trkpt lat="47.4619" lon="6.73705">
        <ele>422</ele>
        <time>2015-05-17T07:59:00.000Z</time>
      </trkpt>
      <trkpt lat="47.46187" lon="6.73704">
        <ele>422</ele>
        <time>2015-05-17T07:59:01.000Z</time>
      </trkpt>
      <trkpt lat="47.46184" lon="6.73703">
        <ele>422</ele>
        <time>2015-05-17T07:59:02.000Z</time>
      </trkpt>
      <trkpt lat="47.46181" lon="6.73703">
        <ele>422</ele>
        <time>2015-05-17T07:59:03.000Z</time>
      </trkpt>
      <trkpt lat="47.46177" lon="6.73702">
        <ele>422</ele>
        <time>2015-05-17T07:59:04.000Z</time>
      </trkpt>
      <trkpt lat="47.46173" lon="6.73702">
        <ele>422</ele>
        <time>2015-05-17T07:59:05.000Z</time>
      </trkpt>
      <trkpt lat="47.46169" lon="6.73701">
        <ele>422</ele>
        <time>2015-05-17T07:59:06.000Z</time>
      </trkpt>
      <trkpt lat="47.46166" lon="6.73699">
        <ele>426</ele>
        <time>2015-05-17T07:59:07.000Z</time>
      </trkpt>
      <trkpt lat="47.46162" lon="6.73697">
        <ele>426</ele>
        <time>2015-05-17T07:59:08.000Z</time>
      </trkpt>
      <trkpt lat="47.46159" lon="6.73695">
        <ele>426</ele>
        <time>2015-05-17T07:59:09.000Z</time>
      </trkpt>
      <trkpt lat="47.46155" lon="6.73693">
        <ele>426</ele>
        <time>2015-05-17T07:59:10.000Z</time>
      </trkpt>
      <trkpt lat="47.46152" lon="6.73692">
        <ele>426</ele>
        <time>2015-05-17T07:59:11.000Z</time>
      </trkpt>
      <trkpt lat="47.46149" lon="6.7369">
        <ele>426</ele>
        <time>2015-05-17T07:59:12.000Z</time>
      </trkpt>
      <trkpt lat="47.46147" lon="6.73687">
        <ele>426</ele>
        <time>2015-05-17T07:59:13.000Z</time>
      </trkpt>
      <trkpt lat="47.46145" lon="6.73685">
        <ele>426</ele>
        <time>2015-05-17T07:59:14.000Z</time>
      </trkpt>
      <trkpt lat="47.46142" lon="6.7368">
        <ele>426</ele>
        <time>2015-05-17T07:59:16.000Z</time>
      </trkpt>
      <trkpt lat="47.4614" lon="6.73678">
        <ele>426</ele>
        <time>2015-05-17T07:59:17.000Z</time>
      </trkpt>
      <trkpt lat="47.46137" lon="6.73673">
        <ele>426</ele>
        <time>2015-05-17T07:59:19.000Z</time>
      </trkpt>
      <trkpt lat="47.46136" lon="6.73671">
        <ele>427</ele>
        <time>2015-05-17T07:59:20.000Z</time>
      </trkpt>
      <trkpt lat="47.46133" lon="6.73666">
        <ele>428</ele>
        <time>2015-05-17T07:59:22.000Z</time>
      </trkpt>
      <trkpt lat="47.46132" lon="6.73663">
        <ele>428</ele>
        <time>2015-05-17T07:59:23.000Z</time>
      </trkpt>
      <trkpt lat="47.4613" lon="6.73661">
        <ele>428</ele>
        <time>2015-05-17T07:59:24.000Z</time>
      </trkpt>
      <trkpt lat="47.46127" lon="6.7366">
        <ele>428</ele>
        <time>2015-05-17T07:59:25.000Z</time>
      </trkpt>
      <trkpt lat="47.46124" lon="6.73659">
        <ele>428</ele>
        <time>2015-05-17T07:59:26.000Z</time>
      </trkpt>
      <trkpt lat="47.46122" lon="6.73657">
        <ele>429</ele>
        <time>2015-05-17T07:59:27.000Z</time>
      </trkpt>
      <trkpt lat="47.4612" lon="6.73656">
        <ele>429</ele>
        <time>2015-05-17T07:59:28.000Z</time>
      </trkpt>
      <trkpt lat="47.46118" lon="6.73654">
        <ele>429</ele>
        <time>2015-05-17T07:59:29.000Z</time>
      </trkpt>
      <trkpt lat="47.46114" lon="6.73652">
        <ele>429</ele>
        <time>2015-05-17T07:59:31.000Z</time>
      </trkpt>
      <trkpt lat="47.46112" lon="6.73651">
        <ele>429</ele>
        <time>2015-05-17T07:59:32.000Z</time>
      </trkpt>
      <trkpt lat="47.4611" lon="6.7365">
        <ele>429</ele>
        <time>2015-05-17T07:59:33.000Z</time>
      </trkpt>
      <trkpt lat="47.46107" lon="6.73649">
        <ele>430</ele>
        <time>2015-05-17T07:59:34.000Z</time>
      </trkpt>
      <trkpt lat="47.46105" lon="6.73647">
        <ele>430</ele>
        <time>2015-05-17T07:59:35.000Z</time>
      </trkpt>
      <trkpt lat="47.46102" lon="6.73644">
        <ele>430</ele>
        <time>2015-05-17T07:59:36.000Z</time>
      </trkpt>
      <trkpt lat="47.461" lon="6.73641">
        <ele>430</ele>
        <time>2015-05-17T07:59:37.000Z</time>
      </trkpt>
      <trkpt lat="47.46097" lon="6.73638">
        <ele>430</ele>
        <time>2015-05-17T07:59:38.000Z</time>
      </trkpt>
      <trkpt lat="47.46094" lon="6.73636">
        <ele>430</ele>
        <time>2015-05-17T07:59:39.000Z</time>
      </trkpt>
      <trkpt lat="47.46091" lon="6.73633">
        <ele>430</ele>
        <time>2015-05-17T07:59:40.000Z</time>
      </trkpt>
      <trkpt lat="47.46088" lon="6.7363">
        <ele>430</ele>
        <time>2015-05-17T07:59:41.000Z</time>
      </trkpt>
      <trkpt lat="47.46085" lon="6.73628">
        <ele>430</ele>
        <time>2015-05-17T07:59:42.000Z</time>
      </trkpt>
      <trkpt lat="47.46082" lon="6.73626">
        <ele>434</ele>
        <time>2015-05-17T07:59:43.000Z</time>
      </trkpt>
      <trkpt lat="47.46079" lon="6.73623">
        <ele>434</ele>
        <time>2015-05-17T07:59:44.000Z</time>
      </trkpt>
      <trkpt lat="47.46076" lon="6.73621">
        <ele>434</ele>
        <time>2015-05-17T07:59:45.000Z</time>
      </trkpt>
      <trkpt lat="47.46072" lon="6.73619">
        <ele>434</ele>
        <time>2015-05-17T07:59:46.000Z</time>
      </trkpt>
      <trkpt lat="47.46069" lon="6.73617">
        <ele>434</ele>
        <time>2015-05-17T07:59:47.000Z</time>
      </trkpt>
      <trkpt lat="47.46066" lon="6.73615">
        <ele>434</ele>
        <time>2015-05-17T07:59:48.000Z</time>
      </trkpt>
      <trkpt lat="47.46063" lon="6.73614">
        <ele>434</ele>
        <time>2015-05-17T07:59:49.000Z</time>
      </trkpt>
      <trkpt lat="47.4606" lon="6.73613">
        <ele>434</ele>
        <time>2015-05-17T07:59:50.000Z</time>
      </trkpt>
      <trkpt lat="47.46057" lon="6.73612">
        <ele>434</ele>
        <time>2015-05-17T07:59:51.000Z</time>
      </trkpt>
      <trkpt lat="47.46054" lon="6.73611">
        <ele>434</ele>
        <time>2015-05-17T07:59:52.000Z</time>
      </trkpt>
      <trkpt lat="47.46051" lon="6.7361">
        <ele>434</ele>
        <time>2015-05-17T07:59:52.999Z</time>
      </trkpt>
      <trkpt lat="47.46049" lon="6.73608">
        <ele>434</ele>
        <time>2015-05-17T07:59:54.000Z</time>
      </trkpt>
      <trkpt lat="47.46046" lon="6.73606">
        <ele>434</ele>
        <time>2015-05-17T07:59:55.000Z</time>
      </trkpt>
      <trkpt lat="47.46043" lon="6.73605">
        <ele>434</ele>
        <time>2015-05-17T07:59:56.000Z</time>
      </trkpt>
      <trkpt lat="47.4604" lon="6.73604">
        <ele>434</ele>
        <time>2015-05-17T07:59:57.000Z</time>
      </trkpt>
      <trkpt lat="47.46038" lon="6.73602">
        <ele>434</ele>
        <time>2015-05-17T07:59:57.999Z</time>
      </trkpt>
      <trkpt lat="47.46035" lon="6.73602">
        <ele>434</ele>
        <time>2015-05-17T07:59:59.000Z</time>
      </trkpt>
      <trkpt lat="47.46032" lon="6.73602">
        <ele>434</ele>
        <time>2015-05-17T07:59:59.999Z</time>
      </trkpt>
      <trkpt lat="47.46029" lon="6.73602">
        <ele>435</ele>
        <time>2015-05-17T08:00:01.001Z</time>
      </trkpt>
      <trkpt lat="47.46026" lon="6.73602">
        <ele>435</ele>
        <time>2015-05-17T08:00:02.000Z</time>
      </trkpt>
      <trkpt lat="47.46023" lon="6.73602">
        <ele>435</ele>
        <time>2015-05-17T08:00:03.000Z</time>
      </trkpt>
      <trkpt lat="47.46021" lon="6.73602">
        <ele>435</ele>
        <time>2015-05-17T08:00:04.000Z</time>
      </trkpt>
      <trkpt lat="47.46018" lon="6.73603">
        <ele>435</ele>
        <time>2015-05-17T08:00:05.000Z</time>
      </trkpt>
      <trkpt lat="47.46015" lon="6.73603">
        <ele>435</ele>
        <time>2015-05-17T08:00:06.000Z</time>
      </trkpt>
      <trkpt lat="47.46013" lon="6.73604">
        <ele>435</ele>
        <time>2015-05-17T08:00:07.000Z</time>
      </trkpt>
      <trkpt lat="47.46011" lon="6.73604">
        <ele>435</ele>
        <time>2015-05-17T08:00:08.000Z</time>
      </trkpt>
      <trkpt lat="47.46008" lon="6.73605">
        <ele>435</ele>
        <time>2015-05-17T08:00:09.000Z</time>
      </trkpt>
      <trkpt lat="47.46006" lon="6.73606">
        <ele>435</ele>
        <time>2015-05-17T08:00:10.000Z</time>
      </trkpt>
      <trkpt lat="47.46003" lon="6.73607">
        <ele>435</ele>
        <time>2015-05-17T08:00:11.000Z</time>
      </trkpt>
      <trkpt lat="47.46" lon="6.73608">
        <ele>437</ele>
        <time>2015-05-17T08:00:12.000Z</time>
      </trkpt>
      <trkpt lat="47.45996" lon="6.73608">
        <ele>437</ele>
        <time>2015-05-17T08:00:13.000Z</time>
      </trkpt>
      <trkpt lat="47.45994" lon="6.73609">
        <ele>437</ele>
        <time>2015-05-17T08:00:14.000Z</time>
      </trkpt>
      <trkpt lat="47.4599" lon="6.73609">
        <ele>438</ele>
        <time>2015-05-17T08:00:15.000Z</time>
      </trkpt>
      <trkpt lat="47.45988" lon="6.73609">
        <ele>438</ele>
        <time>2015-05-17T08:00:16.000Z</time>
      </trkpt>
      <trkpt lat="47.45985" lon="6.73609">
        <ele>438</ele>
        <time>2015-05-17T08:00:17.000Z</time>
      </trkpt>
      <trkpt lat="47.45983" lon="6.73609">
        <ele>438</ele>
        <time>2015-05-17T08:00:18.000Z</time>
      </trkpt>
      <trkpt lat="47.45979" lon="6.7361">
        <ele>438</ele>
        <time>2015-05-17T08:00:20.000Z</time>
      </trkpt>
      <trkpt lat="47.45977" lon="6.73611">
        <ele>438</ele>
        <time>2015-05-17T08:00:21.000Z</time>
      </trkpt>
      <trkpt lat="47.45975" lon="6.73612">
        <ele>438</ele>
        <time>2015-05-17T08:00:22.000Z</time>
      </trkpt>
      <trkpt lat="47.45972" lon="6.73613">
        <ele>438</ele>
        <time>2015-05-17T08:00:23.000Z</time>
      </trkpt>
      <trkpt lat="47.45969" lon="6.73614">
        <ele>438</ele>
        <time>2015-05-17T08:00:24.000Z</time>
      </trkpt>
      <trkpt lat="47.45967" lon="6.73615">
        <ele>438</ele>
        <time>2015-05-17T08:00:25.000Z</time>
      </trkpt>
      <trkpt lat="47.45964" lon="6.73617">
        <ele>438</ele>
        <time>2015-05-17T08:00:26.000Z</time>
      </trkpt>
      <trkpt lat="47.45961" lon="6.73619">
        <ele>438</ele>
        <time>2015-05-17T08:00:27.000Z</time>
      </trkpt>
      <trkpt lat="47.45959" lon="6.73622">
        <ele>439</ele>
        <time>2015-05-17T08:00:28.000Z</time>
      </trkpt>
      <trkpt lat="47.45956" lon="6.73624">
        <ele>439</ele>
        <time>2015-05-17T08:00:29.000Z</time>
      </trkpt>
      <trkpt lat="47.45953" lon="6.73625">
        <ele>439</ele>
        <time>2015-05-17T08:00:30.000Z</time>
      </trkpt>
      <trkpt lat="47.4595" lon="6.73626">
        <ele>439</ele>
        <time>2015-05-17T08:00:31.000Z</time>
      </trkpt>
      <trkpt lat="47.45948" lon="6.73628">
        <ele>439</ele>
        <time>2015-05-17T08:00:32.000Z</time>
      </trkpt>
      <trkpt lat="47.45945" lon="6.7363">
        <ele>439</ele>
        <time>2015-05-17T08:00:33.000Z</time>
      </trkpt>
      <trkpt lat="47.45942" lon="6.73632">
        <ele>439</ele>
        <time>2015-05-17T08:00:34.000Z</time>
      </trkpt>
      <trkpt lat="47.4594" lon="6.73634">
        <ele>439</ele>
        <time>2015-05-17T08:00:35.000Z</time>
      </trkpt>
      <trkpt lat="47.45937" lon="6.73636">
        <ele>439</ele>
        <time>2015-05-17T08:00:36.000Z</time>
      </trkpt>
      <trkpt lat="47.45935" lon="6.73638">
        <ele>439</ele>
        <time>2015-05-17T08:00:37.000Z</time>
      </trkpt>
      <trkpt lat="47.45932" lon="6.7364">
        <ele>439</ele>
        <time>2015-05-17T08:00:38.000Z</time>
      </trkpt>
      <trkpt lat="47.4593" lon="6.73643">
        <ele>439</ele>
        <time>2015-05-17T08:00:39.000Z</time>
      </trkpt>
      <trkpt lat="47.45928" lon="6.73645">
        <ele>439</ele>
        <time>2015-05-17T08:00:40.000Z</time>
      </trkpt>
      <trkpt lat="47.45925" lon="6.73647">
        <ele>439</ele>
        <time>2015-05-17T08:00:41.000Z</time>
      </trkpt>
      <trkpt lat="47.45922" lon="6.73649">
        <ele>439</ele>
        <time>2015-05-17T08:00:42.000Z</time>
      </trkpt>
      <trkpt lat="47.45919" lon="6.7365">
        <ele>439</ele>
        <time>2015-05-17T08:00:43.000Z</time>
      </trkpt>
      <trkpt lat="47.45916" lon="6.73651">
        <ele>441</ele>
        <time>2015-05-17T08:00:44.000Z</time>
      </trkpt>
      <trkpt lat="47.45913" lon="6.73651">
        <ele>441</ele>
        <time>2015-05-17T08:00:45.000Z</time>
      </trkpt>
      <trkpt lat="47.45911" lon="6.73651">
        <ele>441</ele>
        <time>2015-05-17T08:00:46.000Z</time>
      </trkpt>
      <trkpt lat="47.45908" lon="6.73651">
        <ele>442</ele>
        <time>2015-05-17T08:00:47.000Z</time>
      </trkpt>
      <trkpt lat="47.45905" lon="6.7365">
        <ele>442</ele>
        <time>2015-05-17T08:00:48.000Z</time>
      </trkpt>
      <trkpt lat="47.45902" lon="6.7365">
        <ele>442</ele>
        <time>2015-05-17T08:00:49.000Z</time>
      </trkpt>
      <trkpt lat="47.45899" lon="6.7365">
        <ele>442</ele>
        <time>2015-05-17T08:00:50.000Z</time>
      </trkpt>
      <trkpt lat="47.45896" lon="6.7365">
        <ele>442</ele>
        <time>2015-05-17T08:00:51.000Z</time>
      </trkpt>
      <trkpt lat="47.45894" lon="6.73649">
        <ele>442</ele>
        <time>2015-05-17T08:00:52.000Z</time>
      </trkpt>
      <trkpt lat="47.45891" lon="6.73649">
        <ele>442</ele>
        <time>2015-05-17T08:00:53.000Z</time>
      </trkpt>
      <trkpt lat="47.45888" lon="6.73648">
        <ele>442</ele>
        <time>2015-05-17T08:00:54.000Z</time>
      </trkpt>
      <trkpt lat="47.45885" lon="6.73648">
        <ele>443</ele>
        <time>2015-05-17T08:00:55.000Z</time>
      </trkpt>
      <trkpt lat="47.45882" lon="6.73648">
        <ele>443</ele>
        <time>2015-05-17T08:00:56.000Z</time>
      </trkpt>
      <trkpt lat="47.45879" lon="6.73648">
        <ele>443</ele>
        <time>2015-05-17T08:00:57.000Z</time>
      </trkpt>
      <trkpt lat="47.45877" lon="6.73647">
        <ele>443</ele>
        <time>2015-05-17T08:00:58.000Z</time>
      </trkpt>
      <trkpt lat="47.45874" lon="6.73645">
        <ele>443</ele>
        <time>2015-05-17T08:00:59.000Z</time>
      </trkpt>
      <trkpt lat="47.45871" lon="6.73642">
        <ele>443</ele>
        <time>2015-05-17T08:01:00.000Z</time>
      </trkpt>
      <trkpt lat="47.45868" lon="6.7364">
        <ele>443</ele>
        <time>2015-05-17T08:01:01.000Z</time>
      </trkpt>
      <trkpt lat="47.45866" lon="6.73639">
        <ele>443</ele>
        <time>2015-05-17T08:01:02.000Z</time>
      </trkpt>
      <trkpt lat="47.45863" lon="6.73639">
        <ele>443</ele>
        <time>2015-05-17T08:01:03.000Z</time>
      </trkpt>
      <trkpt lat="47.45861" lon="6.73639">
        <ele>443</ele>
        <time>2015-05-17T08:01:04.000Z</time>
      </trkpt>
      <trkpt lat="47.45858" lon="6.73639">
        <ele>443</ele>
        <time>2015-05-17T08:01:05.000Z</time>
      </trkpt>
      <trkpt lat="47.45855" lon="6.73639">
        <ele>443</ele>
        <time>2015-05-17T08:01:06.000Z</time>
      </trkpt>
      <trkpt lat="47.45853" lon="6.73638">
        <ele>444</ele>
        <time>2015-05-17T08:01:07.000Z</time>
      </trkpt>
      <trkpt lat="47.4585" lon="6.73637">
        <ele>444</ele>
        <time>2015-05-17T08:01:08.000Z</time>
      </trkpt>
      <trkpt lat="47.45847" lon="6.73635">
        <ele>444</ele>
        <time>2015-05-17T08:01:09.000Z</time>
      </trkpt>
      <trkpt lat="47.45844" lon="6.73634">
        <ele>444</ele>
        <time>2015-05-17T08:01:10.000Z</time>
      </trkpt>
      <trkpt lat="47.45842" lon="6.73634">
        <ele>444</ele>
        <time>2015-05-17T08:01:11.000Z</time>
      </trkpt>
      <trkpt lat="47.45839" lon="6.73634">
        <ele>444</ele>
        <time>2015-05-17T08:01:12.000Z</time>
      </trkpt>
      <trkpt lat="47.45837" lon="6.73634">
        <ele>444</ele>
        <time>2015-05-17T08:01:13.000Z</time>
      </trkpt>
      <trkpt lat="47.45833" lon="6.73635">
        <ele>446</ele>
        <time>2015-05-17T08:01:14.000Z</time>
      </trkpt>
      <trkpt lat="47.4583" lon="6.73636">
        <ele>446</ele>
        <time>2015-05-17T08:01:15.000Z</time>
      </trkpt>
      <trkpt lat="47.45827" lon="6.73636">
        <ele>446</ele>
        <time>2015-05-17T08:01:16.000Z</time>
      </trkpt>
      <trkpt lat="47.45824" lon="6.73637">
        <ele>446</ele>
        <time>2015-05-17T08:01:17.000Z</time>
      </trkpt>
      <trkpt lat="47.45822" lon="6.73637">
        <ele>446</ele>
        <time>2015-05-17T08:01:18.000Z</time>
      </trkpt>
      <trkpt lat="47.4582" lon="6.73637">
        <ele>446</ele>
        <time>2015-05-17T08:01:19.000Z</time>
      </trkpt>
      <trkpt lat="47.45817" lon="6.73637">
        <ele>446</ele>
        <time>2015-05-17T08:01:20.000Z</time>
      </trkpt>
      <trkpt lat="47.45814" lon="6.73638">
        <ele>446</ele>
        <time>2015-05-17T08:01:21.000Z</time>
      </trkpt>
      <trkpt lat="47.4581" lon="6.73638">
        <ele>447</ele>
        <time>2015-05-17T08:01:22.000Z</time>
      </trkpt>
      <trkpt lat="47.45807" lon="6.73639">
        <ele>447</ele>
        <time>2015-05-17T08:01:23.000Z</time>
      </trkpt>
      <trkpt lat="47.45803" lon="6.7364">
        <ele>447</ele>
        <time>2015-05-17T08:01:24.000Z</time>
      </trkpt>
      <trkpt lat="47.45799" lon="6.7364">
        <ele>447</ele>
        <time>2015-05-17T08:01:25.000Z</time>
      </trkpt>
      <trkpt lat="47.45796" lon="6.73641">
        <ele>447</ele>
        <time>2015-05-17T08:01:26.000Z</time>
      </trkpt>
      <trkpt lat="47.45793" lon="6.73641">
        <ele>447</ele>
        <time>2015-05-17T08:01:27.000Z</time>
      </trkpt>
      <trkpt lat="47.4579" lon="6.73643">
        <ele>447</ele>
        <time>2015-05-17T08:01:28.000Z</time>
      </trkpt>
      <trkpt lat="47.45787" lon="6.73645">
        <ele>447</ele>
        <time>2015-05-17T08:01:29.000Z</time>
      </trkpt>
      <trkpt lat="47.45784" lon="6.73647">
        <ele>447</ele>
        <time>2015-05-17T08:01:30.000Z</time>
      </trkpt>
      <trkpt lat="47.45782" lon="6.73649">
        <ele>447</ele>
        <time>2015-05-17T08:01:31.000Z</time>
      </trkpt>
      <trkpt lat="47.4578" lon="6.73652">
        <ele>447</ele>
        <time>2015-05-17T08:01:32.000Z</time>
      </trkpt>
      <trkpt lat="47.45777" lon="6.73654">
        <ele>448</ele>
        <time>2015-05-17T08:01:33.000Z</time>
      </trkpt>
      <trkpt lat="47.45774" lon="6.73656">
        <ele>448</ele>
        <time>2015-05-17T08:01:34.000Z</time>
      </trkpt>
      <trkpt lat="47.45771" lon="6.73657">
        <ele>448</ele>
        <time>2015-05-17T08:01:35.000Z</time>
      </trkpt>
      <trkpt lat="47.45768" lon="6.73657">
        <ele>448</ele>
        <time>2015-05-17T08:01:36.000Z</time>
      </trkpt>
      <trkpt lat="47.45765" lon="6.73657">
        <ele>448</ele>
        <time>2015-05-17T08:01:37.000Z</time>
      </trkpt>
      <trkpt lat="47.45762" lon="6.73658">
        <ele>448</ele>
        <time>2015-05-17T08:01:38.000Z</time>
      </trkpt>
      <trkpt lat="47.45758" lon="6.73658">
        <ele>448</ele>
        <time>2015-05-17T08:01:39.000Z</time>
      </trkpt>
      <trkpt lat="47.45755" lon="6.73658">
        <ele>448</ele>
        <time>2015-05-17T08:01:40.000Z</time>
      </trkpt>
      <trkpt lat="47.45752" lon="6.73659">
        <ele>448</ele>
        <time>2015-05-17T08:01:41.000Z</time>
      </trkpt>
      <trkpt lat="47.45749" lon="6.73659">
        <ele>449</ele>
        <time>2015-05-17T08:01:42.000Z</time>
      </trkpt>
      <trkpt lat="47.45745" lon="6.73659">
        <ele>450</ele>
        <time>2015-05-17T08:01:43.000Z</time>
      </trkpt>
      <trkpt lat="47.45742" lon="6.73659">
        <ele>450</ele>
        <time>2015-05-17T08:01:44.000Z</time>
      </trkpt>
      <trkpt lat="47.45739" lon="6.73659">
        <ele>450</ele>
        <time>2015-05-17T08:01:45.000Z</time>
      </trkpt>
      <trkpt lat="47.45736" lon="6.73659">
        <ele>450</ele>
        <time>2015-05-17T08:01:46.000Z</time>
      </trkpt>
      <trkpt lat="47.45732" lon="6.7366">
        <ele>450</ele>
        <time>2015-05-17T08:01:47.000Z</time>
      </trkpt>
      <trkpt lat="47.45729" lon="6.73659">
        <ele>450</ele>
        <time>2015-05-17T08:01:48.000Z</time>
      </trkpt>
      <trkpt lat="47.45725" lon="6.73659">
        <ele>450</ele>
        <time>2015-05-17T08:01:49.000Z</time>
      </trkpt>
      <trkpt lat="47.45721" lon="6.73659">
        <ele>450</ele>
        <time>2015-05-17T08:01:50.000Z</time>
      </trkpt>
      <trkpt lat="47.45718" lon="6.73659">
        <ele>451</ele>
        <time>2015-05-17T08:01:51.000Z</time>
      </trkpt>
      <trkpt lat="47.45714" lon="6.7366">
        <ele>451</ele>
        <time>2015-05-17T08:01:52.000Z</time>
      </trkpt>
      <trkpt lat="47.45711" lon="6.7366">
        <ele>451</ele>
        <time>2015-05-17T08:01:53.000Z</time>
      </trkpt>
      <trkpt lat="47.45708" lon="6.7366">
        <ele>451</ele>
        <time>2015-05-17T08:01:53.999Z</time>
      </trkpt>
      <trkpt lat="47.45704" lon="6.73661">
        <ele>451</ele>
        <time>2015-05-17T08:01:55.000Z</time>
      </trkpt>
      <trkpt lat="47.45701" lon="6.73662">
        <ele>451</ele>
        <time>2015-05-17T08:01:56.000Z</time>
      </trkpt>
      <trkpt lat="47.45698" lon="6.73661">
        <ele>451</ele>
        <time>2015-05-17T08:01:57.000Z</time>
      </trkpt>
      <trkpt lat="47.45695" lon="6.73661">
        <ele>451</ele>
        <time>2015-05-17T08:01:58.000Z</time>
      </trkpt>
      <trkpt lat="47.45692" lon="6.73661">
        <ele>451</ele>
        <time>2015-05-17T08:01:59.000Z</time>
      </trkpt>
      <trkpt lat="47.45689" lon="6.73661">
        <ele>452</ele>
        <time>2015-05-17T08:02:00.000Z</time>
      </trkpt>
      <trkpt lat="47.45687" lon="6.73662">
        <ele>452</ele>
        <time>2015-05-17T08:02:01.000Z</time>
      </trkpt>
      <trkpt lat="47.45684" lon="6.73662">
        <ele>452</ele>
        <time>2015-05-17T08:02:02.000Z</time>
      </trkpt>
      <trkpt lat="47.4568" lon="6.73662">
        <ele>452</ele>
        <time>2015-05-17T08:02:03.000Z</time>
      </trkpt>
      <trkpt lat="47.45677" lon="6.73663">
        <ele>452</ele>
        <time>2015-05-17T08:02:04.000Z</time>
      </trkpt>
      <trkpt lat="47.45674" lon="6.73663">
        <ele>452</ele>
        <time>2015-05-17T08:02:05.000Z</time>
      </trkpt>
      <trkpt lat="47.45671" lon="6.73664">
        <ele>453</ele>
        <time>2015-05-17T08:02:06.000Z</time>
      </trkpt>
      <trkpt lat="47.45668" lon="6.73664">
        <ele>453</ele>
        <time>2015-05-17T08:02:07.000Z</time>
      </trkpt>
      <trkpt lat="47.45665" lon="6.73665">
        <ele>453</ele>
        <time>2015-05-17T08:02:08.000Z</time>
      </trkpt>
      <trkpt lat="47.45661" lon="6.73666">
        <ele>454</ele>
        <time>2015-05-17T08:02:09.000Z</time>
      </trkpt>
      <trkpt lat="47.45655" lon="6.73672">
        <ele>455</ele>
        <time>2015-05-17T08:02:10.000Z</time>
      </trkpt>
      <trkpt lat="47.45651" lon="6.73668">
        <ele>455</ele>
        <time>2015-05-17T08:02:11.000Z</time>
      </trkpt>
      <trkpt lat="47.45647" lon="6.73665">
        <ele>455</ele>
        <time>2015-05-17T08:02:12.000Z</time>
      </trkpt>
      <trkpt lat="47.45643" lon="6.73661">
        <ele>455</ele>
        <time>2015-05-17T08:02:13.000Z</time>
      </trkpt>
      <trkpt lat="47.4564" lon="6.7366">
        <ele>455</ele>
        <time>2015-05-17T08:02:14.000Z</time>
      </trkpt>
      <trkpt lat="47.45636" lon="6.7366">
        <ele>455</ele>
        <time>2015-05-17T08:02:15.000Z</time>
      </trkpt>
      <trkpt lat="47.45633" lon="6.73659">
        <ele>455</ele>
        <time>2015-05-17T08:02:16.000Z</time>
      </trkpt>
      <trkpt lat="47.4563" lon="6.73659">
        <ele>456</ele>
        <time>2015-05-17T08:02:17.000Z</time>
      </trkpt>
      <trkpt lat="47.45627" lon="6.73658">
        <ele>456</ele>
        <time>2015-05-17T08:02:18.000Z</time>
      </trkpt>
      <trkpt lat="47.45624" lon="6.73657">
        <ele>456</ele>
        <time>2015-05-17T08:02:19.000Z</time>
      </trkpt>
      <trkpt lat="47.45621" lon="6.73656">
        <ele>456</ele>
        <time>2015-05-17T08:02:20.000Z</time>
      </trkpt>
      <trkpt lat="47.45618" lon="6.73655">
        <ele>456</ele>
        <time>2015-05-17T08:02:21.000Z</time>
      </trkpt>
      <trkpt lat="47.45614" lon="6.73654">
        <ele>456</ele>
        <time>2015-05-17T08:02:22.000Z</time>
      </trkpt>
      <trkpt lat="47.45611" lon="6.73654">
        <ele>457</ele>
        <time>2015-05-17T08:02:23.000Z</time>
      </trkpt>
      <trkpt lat="47.45607" lon="6.73653">
        <ele>457</ele>
        <time>2015-05-17T08:02:24.000Z</time>
      </trkpt>
      <trkpt lat="47.45604" lon="6.73652">
        <ele>457</ele>
        <time>2015-05-17T08:02:25.000Z</time>
      </trkpt>
      <trkpt lat="47.456" lon="6.73651">
        <ele>457</ele>
        <time>2015-05-17T08:02:26.000Z</time>
      </trkpt>
      <trkpt lat="47.45596" lon="6.7365">
        <ele>457</ele>
        <time>2015-05-17T08:02:27.000Z</time>
      </trkpt>
      <trkpt lat="47.45592" lon="6.73648">
        <ele>458</ele>
        <time>2015-05-17T08:02:28.000Z</time>
      </trkpt>
      <trkpt lat="47.45589" lon="6.73647">
        <ele>458</ele>
        <time>2015-05-17T08:02:29.000Z</time>
      </trkpt>
      <trkpt lat="47.45584" lon="6.73647">
        <ele>458</ele>
        <time>2015-05-17T08:02:30.000Z</time>
      </trkpt>
      <trkpt lat="47.4558" lon="6.73646">
        <ele>460</ele>
        <time>2015-05-17T08:02:31.000Z</time>
      </trkpt>
      <trkpt lat="47.45575" lon="6.73646">
        <ele>460</ele>
        <time>2015-05-17T08:02:32.000Z</time>
      </trkpt>
      <trkpt lat="47.4557" lon="6.73645">
        <ele>461</ele>
        <time>2015-05-17T08:02:33.000Z</time>
      </trkpt>
      <trkpt lat="47.45565" lon="6.73644">
        <ele>461</ele>
        <time>2015-05-17T08:02:34.000Z</time>
      </trkpt>
      <trkpt lat="47.45553" lon="6.73644">
        <ele>461</ele>
        <time>2015-05-17T08:02:35.000Z</time>
      </trkpt>
      <trkpt lat="47.45548" lon="6.73642">
        <ele>461</ele>
        <time>2015-05-17T08:02:36.000Z</time>
      </trkpt>
      <trkpt lat="47.45544" lon="6.73639">
        <ele>461</ele>
        <time>2015-05-17T08:02:37.000Z</time>
      </trkpt>
      <trkpt lat="47.45536" lon="6.73639">
        <ele>461</ele>
        <time>2015-05-17T08:02:38.000Z</time>
      </trkpt>
      <trkpt lat="47.45532" lon="6.73635">
        <ele>461</ele>
        <time>2015-05-17T08:02:39.000Z</time>
      </trkpt>
      <trkpt lat="47.45526" lon="6.73633">
        <ele>462</ele>
        <time>2015-05-17T08:02:40.000Z</time>
      </trkpt>
      <trkpt lat="47.45522" lon="6.73628">
        <ele>462</ele>
        <time>2015-05-17T08:02:41.000Z</time>
      </trkpt>
      <trkpt lat="47.45518" lon="6.73622">
        <ele>462</ele>
        <time>2015-05-17T08:02:42.000Z</time>
      </trkpt>
      <trkpt lat="47.45511" lon="6.73619">
        <ele>462</ele>
        <time>2015-05-17T08:02:43.000Z</time>
      </trkpt>
      <trkpt lat="47.45506" lon="6.73616">
        <ele>463</ele>
        <time>2015-05-17T08:02:44.000Z</time>
      </trkpt>
      <trkpt lat="47.45501" lon="6.73613">
        <ele>463</ele>
        <time>2015-05-17T08:02:45.000Z</time>
      </trkpt>
      <trkpt lat="47.45499" lon="6.73604">
        <ele>464</ele>
        <time>2015-05-17T08:02:46.000Z</time>
      </trkpt>
      <trkpt lat="47.45497" lon="6.73597">
        <ele>464</ele>
        <time>2015-05-17T08:02:47.000Z</time>
      </trkpt>
      <trkpt lat="47.45497" lon="6.73591">
        <ele>465</ele>
        <time>2015-05-17T08:02:48.000Z</time>
      </trkpt>
      <trkpt lat="47.45497" lon="6.73586">
        <ele>465</ele>
        <time>2015-05-17T08:02:49.000Z</time>
      </trkpt>
      <trkpt lat="47.45495" lon="6.73578">
        <ele>465</ele>
        <time>2015-05-17T08:02:50.000Z</time>
      </trkpt>
      <trkpt lat="47.45492" lon="6.7357">
        <ele>465</ele>
        <time>2015-05-17T08:02:51.000Z</time>
      </trkpt>
      <trkpt lat="47.45488" lon="6.7356">
        <ele>465</ele>
        <time>2015-05-17T08:02:52.000Z</time>
      </trkpt>
      <trkpt lat="47.45486" lon="6.73551">
        <ele>465</ele>
        <time>2015-05-17T08:02:53.000Z</time>
      </trkpt>
      <trkpt lat="47.45483" lon="6.73545">
        <ele>465</ele>
        <time>2015-05-17T08:02:54.000Z</time>
      </trkpt>
      <trkpt lat="47.4548" lon="6.73538">
        <ele>465</ele>
        <time>2015-05-17T08:02:55.000Z</time>
      </trkpt>
      <trkpt lat="47.45478" lon="6.73531">
        <ele>465</ele>
        <time>2015-05-17T08:02:56.000Z</time>
      </trkpt>
      <trkpt lat="47.45474" lon="6.73525">
        <ele>465</ele>
        <time>2015-05-17T08:02:57.000Z</time>
      </trkpt>
      <trkpt lat="47.45474" lon="6.7352">
        <ele>465</ele>
        <time>2015-05-17T08:02:58.000Z</time>
      </trkpt>
      <trkpt lat="47.45473" lon="6.73515">
        <ele>465</ele>
        <time>2015-05-17T08:02:59.000Z</time>
      </trkpt>
      <trkpt lat="47.45472" lon="6.73509">
        <ele>465</ele>
        <time>2015-05-17T08:03:00.000Z</time>
      </trkpt>
      <trkpt lat="47.45471" lon="6.73504">
        <ele>465</ele>
        <time>2015-05-17T08:03:01.000Z</time>
      </trkpt>
      <trkpt lat="47.4547" lon="6.735">
        <ele>465</ele>
        <time>2015-05-17T08:03:02.000Z</time>
      </trkpt>
      <trkpt lat="47.45471" lon="6.73494">
        <ele>465</ele>
        <time>2015-05-17T08:03:03.000Z</time>
      </trkpt>
      <trkpt lat="47.45472" lon="6.7349">
        <ele>465</ele>
        <time>2015-05-17T08:03:04.000Z</time>
      </trkpt>
      <trkpt lat="47.45474" lon="6.73484">
        <ele>465</ele>
        <time>2015-05-17T08:03:05.000Z</time>
      </trkpt>
      <trkpt lat="47.45475" lon="6.73479">
        <ele>465</ele>
        <time>2015-05-17T08:03:06.000Z</time>
      </trkpt>
      <trkpt lat="47.45475" lon="6.73474">
        <ele>465</ele>
        <time>2015-05-17T08:03:07.000Z</time>
      </trkpt>
      <trkpt lat="47.45475" lon="6.73469">
        <ele>465</ele>
        <time>2015-05-17T08:03:08.000Z</time>
      </trkpt>
      <trkpt lat="47.45475" lon="6.73464">
        <ele>465</ele>
        <time>2015-05-17T08:03:09.000Z</time>
      </trkpt>
      <trkpt lat="47.45474" lon="6.73459">
        <ele>465</ele>
        <time>2015-05-17T08:03:10.000Z</time>
      </trkpt>
      <trkpt lat="47.45472" lon="6.73453">
        <ele>465</ele>
        <time>2015-05-17T08:03:11.000Z</time>
      </trkpt>
      <trkpt lat="47.45471" lon="6.73448">
        <ele>465</ele>
        <time>2015-05-17T08:03:12.000Z</time>
      </trkpt>
      <trkpt lat="47.4547" lon="6.73443">
        <ele>465</ele>
        <time>2015-05-17T08:03:13.000Z</time>
      </trkpt>
      <trkpt lat="47.45469" lon="6.73438">
        <ele>465</ele>
        <time>2015-05-17T08:03:14.000Z</time>
      </trkpt>
      <trkpt lat="47.45468" lon="6.73432">
        <ele>465</ele>
        <time>2015-05-17T08:03:15.000Z</time>
      </trkpt>
      <trkpt lat="47.45469" lon="6.73427">
        <ele>465</ele>
        <time>2015-05-17T08:03:16.000Z</time>
      </trkpt>
      <trkpt lat="47.45471" lon="6.73421">
        <ele>465</ele>
        <time>2015-05-17T08:03:17.000Z</time>
      </trkpt>
      <trkpt lat="47.45473" lon="6.73417">
        <ele>465</ele>
        <time>2015-05-17T08:03:18.000Z</time>
      </trkpt>
      <trkpt lat="47.45476" lon="6.73413">
        <ele>465</ele>
        <time>2015-05-17T08:03:19.000Z</time>
      </trkpt>
      <trkpt lat="47.45477" lon="6.7341">
        <ele>465</ele>
        <time>2015-05-17T08:03:20.000Z</time>
      </trkpt>
      <trkpt lat="47.45478" lon="6.73407">
        <ele>465</ele>
        <time>2015-05-17T08:03:21.000Z</time>
      </trkpt>
      <trkpt lat="47.4548" lon="6.73403">
        <ele>465</ele>
        <time>2015-05-17T08:03:23.000Z</time>
      </trkpt>
      <trkpt lat="47.45481" lon="6.73401">
        <ele>465</ele>
        <time>2015-05-17T08:03:24.000Z</time>
      </trkpt>
      <trkpt lat="47.45482" lon="6.73398">
        <ele>465</ele>
        <time>2015-05-17T08:03:25.000Z</time>
      </trkpt>
      <trkpt lat="47.45482" lon="6.73394">
        <ele>465</ele>
        <time>2015-05-17T08:03:26.000Z</time>
      </trkpt>
      <trkpt lat="47.45481" lon="6.73389">
        <ele>464</ele>
        <time>2015-05-17T08:03:27.000Z</time>
      </trkpt>
      <trkpt lat="47.4548" lon="6.73385">
        <ele>464</ele>
        <time>2015-05-17T08:03:28.000Z</time>
      </trkpt>
      <trkpt lat="47.4548" lon="6.7338">
        <ele>464</ele>
        <time>2015-05-17T08:03:29.000Z</time>
      </trkpt>
      <trkpt lat="47.4548" lon="6.73374">
        <ele>464</ele>
        <time>2015-05-17T08:03:30.000Z</time>
      </trkpt>
      <trkpt lat="47.4548" lon="6.7337">
        <ele>464</ele>
        <time>2015-05-17T08:03:31.000Z</time>
      </trkpt>
      <trkpt lat="47.4548" lon="6.73365">
        <ele>464</ele>
        <time>2015-05-17T08:03:32.000Z</time>
      </trkpt>
      <trkpt lat="47.45481" lon="6.73362">
        <ele>464</ele>
        <time>2015-05-17T08:03:33.000Z</time>
      </trkpt>
      <trkpt lat="47.45482" lon="6.73359">
        <ele>464</ele>
        <time>2015-05-17T08:03:34.000Z</time>
      </trkpt>
      <trkpt lat="47.45485" lon="6.73355">
        <ele>464</ele>
        <time>2015-05-17T08:03:36.000Z</time>
      </trkpt>
      <trkpt lat="47.45488" lon="6.73353">
        <ele>464</ele>
        <time>2015-05-17T08:03:37.000Z</time>
      </trkpt>
      <trkpt lat="47.4549" lon="6.73351">
        <ele>464</ele>
        <time>2015-05-17T08:03:38.000Z</time>
      </trkpt>
      <trkpt lat="47.45493" lon="6.73349">
        <ele>464</ele>
        <time>2015-05-17T08:03:39.000Z</time>
      </trkpt>
      <trkpt lat="47.45496" lon="6.73345">
        <ele>463</ele>
        <time>2015-05-17T08:03:40.000Z</time>
      </trkpt>
      <trkpt lat="47.45499" lon="6.73341">
        <ele>463</ele>
        <time>2015-05-17T08:03:41.000Z</time>
      </trkpt>
      <trkpt lat="47.45501" lon="6.73338">
        <ele>463</ele>
        <time>2015-05-17T08:03:42.000Z</time>
      </trkpt>
      <trkpt lat="47.45503" lon="6.73334">
        <ele>463</ele>
        <time>2015-05-17T08:03:43.000Z</time>
      </trkpt>
      <trkpt lat="47.45506" lon="6.73332">
        <ele>463</ele>
        <time>2015-05-17T08:03:44.000Z</time>
      </trkpt>
      <trkpt lat="47.45509" lon="6.7333">
        <ele>463</ele>
        <time>2015-05-17T08:03:45.000Z</time>
      </trkpt>
      <trkpt lat="47.45512" lon="6.73329">
        <ele>463</ele>
        <time>2015-05-17T08:03:46.000Z</time>
      </trkpt>
      <trkpt lat="47.45515" lon="6.73329">
        <ele>463</ele>
        <time>2015-05-17T08:03:47.000Z</time>
      </trkpt>
      <trkpt lat="47.45519" lon="6.73328">
        <ele>463</ele>
        <time>2015-05-17T08:03:48.000Z</time>
      </trkpt>
      <trkpt lat="47.45522" lon="6.73327">
        <ele>463</ele>
        <time>2015-05-17T08:03:49.000Z</time>
      </trkpt>
      <trkpt lat="47.45527" lon="6.73326">
        <ele>463</ele>
        <time>2015-05-17T08:03:50.000Z</time>
      </trkpt>
      <trkpt lat="47.45531" lon="6.73325">
        <ele>463</ele>
        <time>2015-05-17T08:03:51.000Z</time>
      </trkpt>
      <trkpt lat="47.45535" lon="6.73323">
        <ele>463</ele>
        <time>2015-05-17T08:03:52.000Z</time>
      </trkpt>
      <trkpt lat="47.45538" lon="6.73321">
        <ele>463</ele>
        <time>2015-05-17T08:03:53.000Z</time>
      </trkpt>
      <trkpt lat="47.45542" lon="6.73318">
        <ele>463</ele>
        <time>2015-05-17T08:03:54.000Z</time>
      </trkpt>
      <trkpt lat="47.45545" lon="6.73316">
        <ele>463</ele>
        <time>2015-05-17T08:03:55.000Z</time>
      </trkpt>
      <trkpt lat="47.45549" lon="6.73312">
        <ele>463</ele>
        <time>2015-05-17T08:03:56.000Z</time>
      </trkpt>
      <trkpt lat="47.45552" lon="6.73309">
        <ele>463</ele>
        <time>2015-05-17T08:03:57.000Z</time>
      </trkpt>
      <trkpt lat="47.45555" lon="6.73305">
        <ele>463</ele>
        <time>2015-05-17T08:03:58.000Z</time>
      </trkpt>
      <trkpt lat="47.45557" lon="6.73302">
        <ele>463</ele>
        <time>2015-05-17T08:03:59.000Z</time>
      </trkpt>
      <trkpt lat="47.45559" lon="6.73298">
        <ele>463</ele>
        <time>2015-05-17T08:04:00.000Z</time>
      </trkpt>
      <trkpt lat="47.45562" lon="6.73294">
        <ele>463</ele>
        <time>2015-05-17T08:04:01.000Z</time>
      </trkpt>
      <trkpt lat="47.45564" lon="6.7329">
        <ele>463</ele>
        <time>2015-05-17T08:04:02.000Z</time>
      </trkpt>
      <trkpt lat="47.45567" lon="6.73287">
        <ele>463</ele>
        <time>2015-05-17T08:04:03.000Z</time>
      </trkpt>
      <trkpt lat="47.4557" lon="6.73284">
        <ele>464</ele>
        <time>2015-05-17T08:04:04.000Z</time>
      </trkpt>
      <trkpt lat="47.45573" lon="6.73279">
        <ele>464</ele>
        <time>2015-05-17T08:04:05.000Z</time>
      </trkpt>
      <trkpt lat="47.45576" lon="6.73274">
        <ele>464</ele>
        <time>2015-05-17T08:04:06.000Z</time>
      </trkpt>
      <trkpt lat="47.45579" lon="6.73269">
        <ele>465</ele>
        <time>2015-05-17T08:04:07.000Z</time>
      </trkpt>
      <trkpt lat="47.4558" lon="6.73263">
        <ele>465</ele>
        <time>2015-05-17T08:04:08.000Z</time>
      </trkpt>
      <trkpt lat="47.45581" lon="6.73256">
        <ele>466</ele>
        <time>2015-05-17T08:04:09.000Z</time>
      </trkpt>
      <trkpt lat="47.45582" lon="6.7325">
        <ele>467</ele>
        <time>2015-05-17T08:04:10.000Z</time>
      </trkpt>
      <trkpt lat="47.45583" lon="6.73242">
        <ele>467</ele>
        <time>2015-05-17T08:04:11.000Z</time>
      </trkpt>
      <trkpt lat="47.45585" lon="6.73235">
        <ele>468</ele>
        <time>2015-05-17T08:04:12.000Z</time>
      </trkpt>
      <trkpt lat="47.45586" lon="6.73227">
        <ele>468</ele>
        <time>2015-05-17T08:04:13.000Z</time>
      </trkpt>
      <trkpt lat="47.45587" lon="6.73219">
        <ele>468</ele>
        <time>2015-05-17T08:04:14.000Z</time>
      </trkpt>
      <trkpt lat="47.45589" lon="6.7321">
        <ele>468</ele>
        <time>2015-05-17T08:04:15.000Z</time>
      </trkpt>
      <trkpt lat="47.4559" lon="6.73201">
        <ele>469</ele>
        <time>2015-05-17T08:04:16.000Z</time>
      </trkpt>
      <trkpt lat="47.45592" lon="6.73193">
        <ele>469</ele>
        <time>2015-05-17T08:04:17.000Z</time>
      </trkpt>
      <trkpt lat="47.45592" lon="6.73185">
        <ele>469</ele>
        <time>2015-05-17T08:04:18.000Z</time>
      </trkpt>
      <trkpt lat="47.45594" lon="6.73177">
        <ele>470</ele>
        <time>2015-05-17T08:04:19.000Z</time>
      </trkpt>
      <trkpt lat="47.45594" lon="6.7317">
        <ele>470</ele>
        <time>2015-05-17T08:04:20.000Z</time>
      </trkpt>
      <trkpt lat="47.45596" lon="6.73163">
        <ele>470</ele>
        <time>2015-05-17T08:04:21.000Z</time>
      </trkpt>
      <trkpt lat="47.45597" lon="6.73157">
        <ele>470</ele>
        <time>2015-05-17T08:04:22.000Z</time>
      </trkpt>
      <trkpt lat="47.45597" lon="6.7315">
        <ele>470</ele>
        <time>2015-05-17T08:04:23.000Z</time>
      </trkpt>
      <trkpt lat="47.45597" lon="6.73144">
        <ele>470</ele>
        <time>2015-05-17T08:04:24.000Z</time>
      </trkpt>
      <trkpt lat="47.45597" lon="6.73138">
        <ele>469</ele>
        <time>2015-05-17T08:04:25.000Z</time>
      </trkpt>
      <trkpt lat="47.45597" lon="6.73131">
        <ele>469</ele>
        <time>2015-05-17T08:04:26.000Z</time>
      </trkpt>
      <trkpt lat="47.45596" lon="6.73125">
        <ele>469</ele>
        <time>2015-05-17T08:04:27.000Z</time>
      </trkpt>
      <trkpt lat="47.45595" lon="6.73119">
        <ele>469</ele>
        <time>2015-05-17T08:04:28.000Z</time>
      </trkpt>
      <trkpt lat="47.45594" lon="6.73114">
        <ele>469</ele>
        <time>2015-05-17T08:04:29.000Z</time>
      </trkpt>
      <trkpt lat="47.45594" lon="6.7311">
        <ele>469</ele>
        <time>2015-05-17T08:04:30.000Z</time>
      </trkpt>
      <trkpt lat="47.45594" lon="6.73105">
        <ele>469</ele>
        <time>2015-05-17T08:04:31.000Z</time>
      </trkpt>
      <trkpt lat="47.45596" lon="6.731">
        <ele>469</ele>
        <time>2015-05-17T08:04:32.000Z</time>
      </trkpt>
      <trkpt lat="47.45597" lon="6.73094">
        <ele>469</ele>
        <time>2015-05-17T08:04:33.000Z</time>
      </trkpt>
      <trkpt lat="47.45597" lon="6.73088">
        <ele>469</ele>
        <time>2015-05-17T08:04:34.000Z</time>
      </trkpt>
      <trkpt lat="47.45597" lon="6.73082">
        <ele>469</ele>
        <time>2015-05-17T08:04:35.000Z</time>
      </trkpt>
      <trkpt lat="47.45596" lon="6.73075">
        <ele>468</ele>
        <time>2015-05-17T08:04:36.000Z</time>
      </trkpt>
      <trkpt lat="47.45596" lon="6.73069">
        <ele>468</ele>
        <time>2015-05-17T08:04:37.000Z</time>
      </trkpt>
      <trkpt lat="47.45595" lon="6.73063">
        <ele>468</ele>
        <time>2015-05-17T08:04:38.000Z</time>
      </trkpt>
      <trkpt lat="47.45593" lon="6.73057">
        <ele>468</ele>
        <time>2015-05-17T08:04:39.000Z</time>
      </trkpt>
      <trkpt lat="47.45592" lon="6.73051">
        <ele>468</ele>
        <time>2015-05-17T08:04:40.000Z</time>
      </trkpt>
      <trkpt lat="47.4559" lon="6.73046">
        <ele>467</ele>
        <time>2015-05-17T08:04:41.000Z</time>
      </trkpt>
      <trkpt lat="47.45588" lon="6.73041">
        <ele>467</ele>
        <time>2015-05-17T08:04:42.000Z</time>
      </trkpt>
      <trkpt lat="47.45587" lon="6.73035">
        <ele>467</ele>
        <time>2015-05-17T08:04:43.000Z</time>
      </trkpt>
      <trkpt lat="47.45586" lon="6.7303">
        <ele>467</ele>
        <time>2015-05-17T08:04:44.000Z</time>
      </trkpt>
      <trkpt lat="47.45585" lon="6.73024">
        <ele>467</ele>
        <time>2015-05-17T08:04:45.000Z</time>
      </trkpt>
      <trkpt lat="47.45583" lon="6.73019">
        <ele>467</ele>
        <time>2015-05-17T08:04:46.000Z</time>
      </trkpt>
      <trkpt lat="47.45583" lon="6.73013">
        <ele>468</ele>
        <time>2015-05-17T08:04:47.000Z</time>
      </trkpt>
      <trkpt lat="47.45583" lon="6.73008">
        <ele>468</ele>
        <time>2015-05-17T08:04:48.000Z</time>
      </trkpt>
      <trkpt lat="47.45583" lon="6.73003">
        <ele>468</ele>
        <time>2015-05-17T08:04:49.000Z</time>
      </trkpt>
      <trkpt lat="47.45583" lon="6.72999">
        <ele>468</ele>
        <time>2015-05-17T08:04:50.000Z</time>
      </trkpt>
      <trkpt lat="47.45582" lon="6.72993">
        <ele>468</ele>
        <time>2015-05-17T08:04:51.000Z</time>
      </trkpt>
      <trkpt lat="47.45581" lon="6.72988">
        <ele>468</ele>
        <time>2015-05-17T08:04:52.000Z</time>
      </trkpt>
      <trkpt lat="47.45579" lon="6.72983">
        <ele>468</ele>
        <time>2015-05-17T08:04:53.000Z</time>
      </trkpt>
      <trkpt lat="47.45576" lon="6.7298">
        <ele>468</ele>
        <time>2015-05-17T08:04:54.000Z</time>
      </trkpt>
      <trkpt lat="47.45574" lon="6.72977">
        <ele>468</ele>
        <time>2015-05-17T08:04:55.000Z</time>
      </trkpt>
      <trkpt lat="47.45573" lon="6.72975">
        <ele>468</ele>
        <time>2015-05-17T08:04:56.000Z</time>
      </trkpt>
      <trkpt lat="47.45571" lon="6.72973">
        <ele>468</ele>
        <time>2015-05-17T08:04:57.000Z</time>
      </trkpt>
      <trkpt lat="47.45565" lon="6.7296">
        <ele>468</ele>
        <time>2015-05-17T08:04:58.000Z</time>
      </trkpt>
      <trkpt lat="47.45563" lon="6.72955">
        <ele>468</ele>
        <time>2015-05-17T08:04:59.000Z</time>
      </trkpt>
      <trkpt lat="47.4556" lon="6.72949">
        <ele>468</ele>
        <time>2015-05-17T08:05:00.000Z</time>
      </trkpt>
      <trkpt lat="47.45557" lon="6.72943">
        <ele>468</ele>
        <time>2015-05-17T08:05:01.000Z</time>
      </trkpt>
      <trkpt lat="47.45554" lon="6.72936">
        <ele>468</ele>
        <time>2015-05-17T08:05:02.000Z</time>
      </trkpt>
      <trkpt lat="47.4555" lon="6.72928">
        <ele>468</ele>
        <time>2015-05-17T08:05:03.000Z</time>
      </trkpt>
      <trkpt lat="47.45546" lon="6.72923">
        <ele>468</ele>
        <time>2015-05-17T08:05:04.000Z</time>
      </trkpt>
      <trkpt lat="47.45544" lon="6.72919">
        <ele>468</ele>
        <time>2015-05-17T08:05:05.000Z</time>
      </trkpt>
      <trkpt lat="47.45541" lon="6.72913">
        <ele>466</ele>
        <time>2015-05-17T08:05:06.000Z</time>
      </trkpt>
      <trkpt lat="47.45539" lon="6.72908">
        <ele>466</ele>
        <time>2015-05-17T08:05:07.000Z</time>
      </trkpt>
      <trkpt lat="47.45536" lon="6.72903">
        <ele>466</ele>
        <time>2015-05-17T08:05:08.000Z</time>
      </trkpt>
      <trkpt lat="47.45533" lon="6.72898">
        <ele>466</ele>
        <time>2015-05-17T08:05:09.000Z</time>
      </trkpt>
      <trkpt lat="47.45531" lon="6.72893">
        <ele>466</ele>
        <time>2015-05-17T08:05:10.000Z</time>
      </trkpt>
      <trkpt lat="47.45529" lon="6.72888">
        <ele>466</ele>
        <time>2015-05-17T08:05:11.000Z</time>
      </trkpt>
      <trkpt lat="47.45527" lon="6.72883">
        <ele>466</ele>
        <time>2015-05-17T08:05:12.000Z</time>
      </trkpt>
      <trkpt lat="47.45526" lon="6.72878">
        <ele>466</ele>
        <time>2015-05-17T08:05:13.000Z</time>
      </trkpt>
      <trkpt lat="47.45525" lon="6.72873">
        <ele>466</ele>
        <time>2015-05-17T08:05:14.000Z</time>
      </trkpt>
      <trkpt lat="47.45524" lon="6.72869">
        <ele>466</ele>
        <time>2015-05-17T08:05:15.000Z</time>
      </trkpt>
      <trkpt lat="47.45523" lon="6.72864">
        <ele>466</ele>
        <time>2015-05-17T08:05:16.000Z</time>
      </trkpt>
      <trkpt lat="47.45523" lon="6.72858">
        <ele>466</ele>
        <time>2015-05-17T08:05:17.000Z</time>
      </trkpt>
      <trkpt lat="47.45522" lon="6.72853">
        <ele>466</ele>
        <time>2015-05-17T08:05:18.000Z</time>
      </trkpt>
      <trkpt lat="47.4552" lon="6.72847">
        <ele>466</ele>
        <time>2015-05-17T08:05:19.000Z</time>
      </trkpt>
      <trkpt lat="47.45519" lon="6.7284">
        <ele>467</ele>
        <time>2015-05-17T08:05:20.000Z</time>
      </trkpt>
      <trkpt lat="47.45518" lon="6.72834">
        <ele>467</ele>
        <time>2015-05-17T08:05:21.000Z</time>
      </trkpt>
      <trkpt lat="47.45516" lon="6.72828">
        <ele>463</ele>
        <time>2015-05-17T08:05:22.000Z</time>
      </trkpt>
      <trkpt lat="47.45513" lon="6.72822">
        <ele>463</ele>
        <time>2015-05-17T08:05:23.000Z</time>
      </trkpt>
      <trkpt lat="47.4551" lon="6.72816">
        <ele>462</ele>
        <time>2015-05-17T08:05:24.000Z</time>
      </trkpt>
      <trkpt lat="47.45507" lon="6.7281">
        <ele>462</ele>
        <time>2015-05-17T08:05:25.000Z</time>
      </trkpt>
      <trkpt lat="47.45504" lon="6.72804">
        <ele>461</ele>
        <time>2015-05-17T08:05:26.000Z</time>
      </trkpt>
      <trkpt lat="47.45502" lon="6.72799">
        <ele>460</ele>
        <time>2015-05-17T08:05:27.000Z</time>
      </trkpt>
      <trkpt lat="47.45499" lon="6.72794">
        <ele>463</ele>
        <time>2015-05-17T08:05:28.000Z</time>
      </trkpt>
      <trkpt lat="47.45497" lon="6.7279">
        <ele>463</ele>
        <time>2015-05-17T08:05:29.000Z</time>
      </trkpt>
      <trkpt lat="47.45494" lon="6.72787">
        <ele>462</ele>
        <time>2015-05-17T08:05:30.000Z</time>
      </trkpt>
      <trkpt lat="47.45491" lon="6.72783">
        <ele>462</ele>
        <time>2015-05-17T08:05:31.000Z</time>
      </trkpt>
      <trkpt lat="47.45486" lon="6.72781">
        <ele>462</ele>
        <time>2015-05-17T08:05:32.000Z</time>
      </trkpt>
      <trkpt lat="47.45482" lon="6.72779">
        <ele>462</ele>
        <time>2015-05-17T08:05:33.000Z</time>
      </trkpt>
      <trkpt lat="47.45479" lon="6.72777">
        <ele>462</ele>
        <time>2015-05-17T08:05:34.000Z</time>
      </trkpt>
      <trkpt lat="47.45475" lon="6.72775">
        <ele>462</ele>
        <time>2015-05-17T08:05:35.000Z</time>
      </trkpt>
      <trkpt lat="47.45472" lon="6.72773">
        <ele>461</ele>
        <time>2015-05-17T08:05:36.000Z</time>
      </trkpt>
      <trkpt lat="47.45469" lon="6.72771">
        <ele>461</ele>
        <time>2015-05-17T08:05:37.000Z</time>
      </trkpt>
      <trkpt lat="47.45466" lon="6.72769">
        <ele>461</ele>
        <time>2015-05-17T08:05:38.000Z</time>
      </trkpt>
      <trkpt lat="47.45464" lon="6.72766">
        <ele>461</ele>
        <time>2015-05-17T08:05:39.000Z</time>
      </trkpt>
      <trkpt lat="47.45462" lon="6.72764">
        <ele>461</ele>
        <time>2015-05-17T08:05:40.000Z</time>
      </trkpt>
      <trkpt lat="47.4546" lon="6.72761">
        <ele>461</ele>
        <time>2015-05-17T08:05:41.000Z</time>
      </trkpt>
      <trkpt lat="47.45458" lon="6.72759">
        <ele>461</ele>
        <time>2015-05-17T08:05:42.000Z</time>
      </trkpt>
      <trkpt lat="47.45456" lon="6.72756">
        <ele>461</ele>
        <time>2015-05-17T08:05:43.000Z</time>
      </trkpt>
      <trkpt lat="47.45455" lon="6.72752">
        <ele>461</ele>
        <time>2015-05-17T08:05:44.000Z</time>
      </trkpt>
      <trkpt lat="47.45454" lon="6.72748">
        <ele>456</ele>
        <time>2015-05-17T08:05:45.000Z</time>
      </trkpt>
      <trkpt lat="47.45453" lon="6.72743">
        <ele>456</ele>
        <time>2015-05-17T08:05:46.000Z</time>
      </trkpt>
      <trkpt lat="47.45451" lon="6.72737">
        <ele>456</ele>
        <time>2015-05-17T08:05:47.000Z</time>
      </trkpt>
      <trkpt lat="47.45448" lon="6.72732">
        <ele>456</ele>
        <time>2015-05-17T08:05:48.000Z</time>
      </trkpt>
      <trkpt lat="47.45446" lon="6.72727">
        <ele>456</ele>
        <time>2015-05-17T08:05:49.000Z</time>
      </trkpt>
      <trkpt lat="47.45442" lon="6.72723">
        <ele>456</ele>
        <time>2015-05-17T08:05:50.000Z</time>
      </trkpt>
      <trkpt lat="47.45438" lon="6.72719">
        <ele>456</ele>
        <time>2015-05-17T08:05:51.000Z</time>
      </trkpt>
      <trkpt lat="47.45435" lon="6.72716">
        <ele>456</ele>
        <time>2015-05-17T08:05:52.000Z</time>
      </trkpt>
      <trkpt lat="47.4543" lon="6.72715">
        <ele>456</ele>
        <time>2015-05-17T08:05:53.000Z</time>
      </trkpt>
      <trkpt lat="47.45426" lon="6.72714">
        <ele>456</ele>
        <time>2015-05-17T08:05:54.000Z</time>
      </trkpt>
      <trkpt lat="47.45423" lon="6.72713">
        <ele>456</ele>
        <time>2015-05-17T08:05:55.000Z</time>
      </trkpt>
      <trkpt lat="47.45419" lon="6.72713">
        <ele>456</ele>
        <time>2015-05-17T08:05:56.000Z</time>
      </trkpt>
      <trkpt lat="47.45415" lon="6.72711">
        <ele>457</ele>
        <time>2015-05-17T08:05:57.000Z</time>
      </trkpt>
      <trkpt lat="47.45411" lon="6.7271">
        <ele>457</ele>
        <time>2015-05-17T08:05:58.000Z</time>
      </trkpt>
      <trkpt lat="47.45408" lon="6.72708">
        <ele>456</ele>
        <time>2015-05-17T08:05:59.000Z</time>
      </trkpt>
      <trkpt lat="47.45404" lon="6.72706">
        <ele>456</ele>
        <time>2015-05-17T08:06:00.000Z</time>
      </trkpt>
      <trkpt lat="47.45401" lon="6.72704">
        <ele>456</ele>
        <time>2015-05-17T08:06:01.000Z</time>
      </trkpt>
      <trkpt lat="47.45398" lon="6.72701">
        <ele>456</ele>
        <time>2015-05-17T08:06:02.000Z</time>
      </trkpt>
      <trkpt lat="47.45395" lon="6.72698">
        <ele>456</ele>
        <time>2015-05-17T08:06:03.000Z</time>
      </trkpt>
      <trkpt lat="47.45392" lon="6.72695">
        <ele>456</ele>
        <time>2015-05-17T08:06:04.000Z</time>
      </trkpt>
      <trkpt lat="47.45388" lon="6.72691">
        <ele>456</ele>
        <time>2015-05-17T08:06:05.001Z</time>
      </trkpt>
      <trkpt lat="47.45383" lon="6.72686">
        <ele>456</ele>
        <time>2015-05-17T08:06:06.000Z</time>
      </trkpt>
      <trkpt lat="47.4538" lon="6.72682">
        <ele>456</ele>
        <time>2015-05-17T08:06:07.000Z</time>
      </trkpt>
      <trkpt lat="47.45377" lon="6.72678">
        <ele>456</ele>
        <time>2015-05-17T08:06:08.000Z</time>
      </trkpt>
      <trkpt lat="47.45374" lon="6.72674">
        <ele>456</ele>
        <time>2015-05-17T08:06:09.000Z</time>
      </trkpt>
      <trkpt lat="47.4537" lon="6.72669">
        <ele>456</ele>
        <time>2015-05-17T08:06:10.001Z</time>
      </trkpt>
      <trkpt lat="47.45366" lon="6.72665">
        <ele>454</ele>
        <time>2015-05-17T08:06:11.000Z</time>
      </trkpt>
      <trkpt lat="47.45362" lon="6.7266">
        <ele>454</ele>
        <time>2015-05-17T08:06:12.000Z</time>
      </trkpt>
      <trkpt lat="47.45359" lon="6.72657">
        <ele>454</ele>
        <time>2015-05-17T08:06:13.000Z</time>
      </trkpt>
      <trkpt lat="47.45356" lon="6.72652">
        <ele>454</ele>
        <time>2015-05-17T08:06:14.000Z</time>
      </trkpt>
      <trkpt lat="47.45352" lon="6.72649">
        <ele>454</ele>
        <time>2015-05-17T08:06:15.000Z</time>
      </trkpt>
      <trkpt lat="47.45348" lon="6.72646">
        <ele>454</ele>
        <time>2015-05-17T08:06:16.000Z</time>
      </trkpt>
      <trkpt lat="47.45344" lon="6.72642">
        <ele>453</ele>
        <time>2015-05-17T08:06:17.000Z</time>
      </trkpt>
      <trkpt lat="47.45342" lon="6.72637">
        <ele>453</ele>
        <time>2015-05-17T08:06:18.000Z</time>
      </trkpt>
      <trkpt lat="47.45338" lon="6.72633">
        <ele>453</ele>
        <time>2015-05-17T08:06:19.000Z</time>
      </trkpt>
      <trkpt lat="47.45333" lon="6.72629">
        <ele>454</ele>
        <time>2015-05-17T08:06:20.000Z</time>
      </trkpt>
      <trkpt lat="47.45329" lon="6.72625">
        <ele>453</ele>
        <time>2015-05-17T08:06:21.000Z</time>
      </trkpt>
      <trkpt lat="47.45325" lon="6.72622">
        <ele>453</ele>
        <time>2015-05-17T08:06:22.000Z</time>
      </trkpt>
      <trkpt lat="47.4532" lon="6.72618">
        <ele>453</ele>
        <time>2015-05-17T08:06:23.000Z</time>
      </trkpt>
      <trkpt lat="47.45316" lon="6.72613">
        <ele>453</ele>
        <time>2015-05-17T08:06:24.000Z</time>
      </trkpt>
      <trkpt lat="47.45311" lon="6.7261">
        <ele>453</ele>
        <time>2015-05-17T08:06:25.000Z</time>
      </trkpt>
      <trkpt lat="47.45307" lon="6.72607">
        <ele>453</ele>
        <time>2015-05-17T08:06:26.000Z</time>
      </trkpt>
      <trkpt lat="47.45303" lon="6.72604">
        <ele>453</ele>
        <time>2015-05-17T08:06:27.000Z</time>
      </trkpt>
      <trkpt lat="47.45298" lon="6.72601">
        <ele>453</ele>
        <time>2015-05-17T08:06:28.000Z</time>
      </trkpt>
      <trkpt lat="47.45294" lon="6.72598">
        <ele>453</ele>
        <time>2015-05-17T08:06:29.000Z</time>
      </trkpt>
      <trkpt lat="47.45288" lon="6.72595">
        <ele>453</ele>
        <time>2015-05-17T08:06:30.000Z</time>
      </trkpt>
      <trkpt lat="47.45284" lon="6.72592">
        <ele>453</ele>
        <time>2015-05-17T08:06:31.000Z</time>
      </trkpt>
      <trkpt lat="47.45281" lon="6.72587">
        <ele>453</ele>
        <time>2015-05-17T08:06:32.000Z</time>
      </trkpt>
      <trkpt lat="47.45277" lon="6.72584">
        <ele>453</ele>
        <time>2015-05-17T08:06:33.000Z</time>
      </trkpt>
      <trkpt lat="47.45272" lon="6.7258">
        <ele>452</ele>
        <time>2015-05-17T08:06:34.000Z</time>
      </trkpt>
      <trkpt lat="47.45267" lon="6.72576">
        <ele>452</ele>
        <time>2015-05-17T08:06:35.000Z</time>
      </trkpt>
      <trkpt lat="47.45262" lon="6.72573">
        <ele>452</ele>
        <time>2015-05-17T08:06:36.000Z</time>
      </trkpt>
      <trkpt lat="47.45257" lon="6.72569">
        <ele>452</ele>
        <time>2015-05-17T08:06:37.000Z</time>
      </trkpt>
      <trkpt lat="47.45251" lon="6.72565">
        <ele>452</ele>
        <time>2015-05-17T08:06:38.000Z</time>
      </trkpt>
      <trkpt lat="47.45245" lon="6.72562">
        <ele>452</ele>
        <time>2015-05-17T08:06:39.000Z</time>
      </trkpt>
      <trkpt lat="47.45238" lon="6.72559">
        <ele>452</ele>
        <time>2015-05-17T08:06:40.000Z</time>
      </trkpt>
      <trkpt lat="47.45232" lon="6.72555">
        <ele>452</ele>
        <time>2015-05-17T08:06:41.000Z</time>
      </trkpt>
      <trkpt lat="47.45226" lon="6.72551">
        <ele>451</ele>
        <time>2015-05-17T08:06:42.000Z</time>
      </trkpt>
      <trkpt lat="47.4522" lon="6.72547">
        <ele>451</ele>
        <time>2015-05-17T08:06:43.000Z</time>
      </trkpt>
      <trkpt lat="47.45214" lon="6.72543">
        <ele>451</ele>
        <time>2015-05-17T08:06:44.000Z</time>
      </trkpt>
      <trkpt lat="47.45209" lon="6.72539">
        <ele>451</ele>
        <time>2015-05-17T08:06:45.000Z</time>
      </trkpt>
      <trkpt lat="47.45201" lon="6.72534">
        <ele>451</ele>
        <time>2015-05-17T08:06:46.000Z</time>
      </trkpt>
      <trkpt lat="47.45195" lon="6.72529">
        <ele>451</ele>
        <time>2015-05-17T08:06:47.000Z</time>
      </trkpt>
      <trkpt lat="47.4519" lon="6.72524">
        <ele>451</ele>
        <time>2015-05-17T08:06:48.000Z</time>
      </trkpt>
      <trkpt lat="47.45184" lon="6.72521">
        <ele>450</ele>
        <time>2015-05-17T08:06:49.000Z</time>
      </trkpt>
      <trkpt lat="47.45177" lon="6.72516">
        <ele>450</ele>
        <time>2015-05-17T08:06:50.000Z</time>
      </trkpt>
      <trkpt lat="47.45172" lon="6.72512">
        <ele>450</ele>
        <time>2015-05-17T08:06:51.000Z</time>
      </trkpt>
      <trkpt lat="47.45165" lon="6.72507">
        <ele>450</ele>
        <time>2015-05-17T08:06:52.000Z</time>
      </trkpt>
      <trkpt lat="47.45159" lon="6.72502">
        <ele>450</ele>
        <time>2015-05-17T08:06:53.000Z</time>
      </trkpt>
      <trkpt lat="47.45153" lon="6.72497">
        <ele>449</ele>
        <time>2015-05-17T08:06:54.000Z</time>
      </trkpt>
      <trkpt lat="47.45147" lon="6.72493">
        <ele>450</ele>
        <time>2015-05-17T08:06:55.000Z</time>
      </trkpt>
      <trkpt lat="47.45142" lon="6.72489">
        <ele>450</ele>
        <time>2015-05-17T08:06:56.000Z</time>
      </trkpt>
      <trkpt lat="47.45136" lon="6.72484">
        <ele>450</ele>
        <time>2015-05-17T08:06:57.000Z</time>
      </trkpt>
      <trkpt lat="47.45131" lon="6.72481">
        <ele>450</ele>
        <time>2015-05-17T08:06:58.000Z</time>
      </trkpt>
      <trkpt lat="47.45127" lon="6.72477">
        <ele>450</ele>
        <time>2015-05-17T08:06:59.000Z</time>
      </trkpt>
      <trkpt lat="47.45121" lon="6.72473">
        <ele>450</ele>
        <time>2015-05-17T08:07:00.000Z</time>
      </trkpt>
      <trkpt lat="47.45115" lon="6.72469">
        <ele>450</ele>
        <time>2015-05-17T08:07:01.000Z</time>
      </trkpt>
      <trkpt lat="47.45111" lon="6.72465">
        <ele>450</ele>
        <time>2015-05-17T08:07:02.000Z</time>
      </trkpt>
      <trkpt lat="47.45106" lon="6.72461">
        <ele>450</ele>
        <time>2015-05-17T08:07:03.000Z</time>
      </trkpt>
      <trkpt lat="47.45101" lon="6.72458">
        <ele>450</ele>
        <time>2015-05-17T08:07:04.000Z</time>
      </trkpt>
      <trkpt lat="47.45097" lon="6.72457">
        <ele>450</ele>
        <time>2015-05-17T08:07:05.000Z</time>
      </trkpt>
      <trkpt lat="47.45093" lon="6.72454">
        <ele>450</ele>
        <time>2015-05-17T08:07:06.000Z</time>
      </trkpt>
      <trkpt lat="47.45088" lon="6.72451">
        <ele>450</ele>
        <time>2015-05-17T08:07:07.000Z</time>
      </trkpt>
      <trkpt lat="47.45084" lon="6.72447">
        <ele>450</ele>
        <time>2015-05-17T08:07:08.000Z</time>
      </trkpt>
      <trkpt lat="47.45079" lon="6.72443">
        <ele>454</ele>
        <time>2015-05-17T08:07:09.000Z</time>
      </trkpt>
      <trkpt lat="47.45074" lon="6.72439">
        <ele>454</ele>
        <time>2015-05-17T08:07:10.000Z</time>
      </trkpt>
      <trkpt lat="47.45069" lon="6.72435">
        <ele>454</ele>
        <time>2015-05-17T08:07:11.000Z</time>
      </trkpt>
      <trkpt lat="47.45064" lon="6.72432">
        <ele>454</ele>
        <time>2015-05-17T08:07:12.000Z</time>
      </trkpt>
      <trkpt lat="47.4506" lon="6.72429">
        <ele>454</ele>
        <time>2015-05-17T08:07:13.000Z</time>
      </trkpt>
      <trkpt lat="47.45056" lon="6.72426">
        <ele>454</ele>
        <time>2015-05-17T08:07:14.000Z</time>
      </trkpt>
      <trkpt lat="47.45052" lon="6.72423">
        <ele>455</ele>
        <time>2015-05-17T08:07:14.999Z</time>
      </trkpt>
      <trkpt lat="47.45045" lon="6.72418">
        <ele>455</ele>
        <time>2015-05-17T08:07:16.000Z</time>
      </trkpt>
      <trkpt lat="47.45039" lon="6.72414">
        <ele>453</ele>
        <time>2015-05-17T08:07:17.000Z</time>
      </trkpt>
      <trkpt lat="47.45034" lon="6.72411">
        <ele>454</ele>
        <time>2015-05-17T08:07:18.000Z</time>
      </trkpt>
      <trkpt lat="47.45029" lon="6.72408">
        <ele>454</ele>
        <time>2015-05-17T08:07:19.000Z</time>
      </trkpt>
      <trkpt lat="47.45024" lon="6.72405">
        <ele>454</ele>
        <time>2015-05-17T08:07:20.000Z</time>
      </trkpt>
      <trkpt lat="47.4502" lon="6.72401">
        <ele>454</ele>
        <time>2015-05-17T08:07:21.000Z</time>
      </trkpt>
      <trkpt lat="47.45016" lon="6.72397">
        <ele>455</ele>
        <time>2015-05-17T08:07:22.000Z</time>
      </trkpt>
      <trkpt lat="47.45012" lon="6.72394">
        <ele>455</ele>
        <time>2015-05-17T08:07:23.000Z</time>
      </trkpt>
      <trkpt lat="47.45008" lon="6.72393">
        <ele>455</ele>
        <time>2015-05-17T08:07:24.000Z</time>
      </trkpt>
      <trkpt lat="47.45004" lon="6.7239">
        <ele>454</ele>
        <time>2015-05-17T08:07:25.000Z</time>
      </trkpt>
      <trkpt lat="47.45" lon="6.72387">
        <ele>460</ele>
        <time>2015-05-17T08:07:26.000Z</time>
      </trkpt>
      <trkpt lat="47.44996" lon="6.72384">
        <ele>461</ele>
        <time>2015-05-17T08:07:27.000Z</time>
      </trkpt>
      <trkpt lat="47.44991" lon="6.7238">
        <ele>461</ele>
        <time>2015-05-17T08:07:28.000Z</time>
      </trkpt>
      <trkpt lat="47.44987" lon="6.72377">
        <ele>461</ele>
        <time>2015-05-17T08:07:29.000Z</time>
      </trkpt>
      <trkpt lat="47.44983" lon="6.72374">
        <ele>461</ele>
        <time>2015-05-17T08:07:30.000Z</time>
      </trkpt>
      <trkpt lat="47.44979" lon="6.72371">
        <ele>461</ele>
        <time>2015-05-17T08:07:31.000Z</time>
      </trkpt>
      <trkpt lat="47.44975" lon="6.72368">
        <ele>461</ele>
        <time>2015-05-17T08:07:32.000Z</time>
      </trkpt>
      <trkpt lat="47.44973" lon="6.72364">
        <ele>461</ele>
        <time>2015-05-17T08:07:33.000Z</time>
      </trkpt>
      <trkpt lat="47.44969" lon="6.72361">
        <ele>461</ele>
        <time>2015-05-17T08:07:34.000Z</time>
      </trkpt>
      <trkpt lat="47.44966" lon="6.72357">
        <ele>461</ele>
        <time>2015-05-17T08:07:35.000Z</time>
      </trkpt>
      <trkpt lat="47.44961" lon="6.72353">
        <ele>461</ele>
        <time>2015-05-17T08:07:36.000Z</time>
      </trkpt>
      <trkpt lat="47.44957" lon="6.72349">
        <ele>462</ele>
        <time>2015-05-17T08:07:37.000Z</time>
      </trkpt>
      <trkpt lat="47.44954" lon="6.72345">
        <ele>462</ele>
        <time>2015-05-17T08:07:38.000Z</time>
      </trkpt>
      <trkpt lat="47.44951" lon="6.72342">
        <ele>462</ele>
        <time>2015-05-17T08:07:39.000Z</time>
      </trkpt>
      <trkpt lat="47.44948" lon="6.72339">
        <ele>462</ele>
        <time>2015-05-17T08:07:40.000Z</time>
      </trkpt>
      <trkpt lat="47.44944" lon="6.72336">
        <ele>463</ele>
        <time>2015-05-17T08:07:41.000Z</time>
      </trkpt>
      <trkpt lat="47.4494" lon="6.72333">
        <ele>459</ele>
        <time>2015-05-17T08:07:42.000Z</time>
      </trkpt>
      <trkpt lat="47.44936" lon="6.72331">
        <ele>460</ele>
        <time>2015-05-17T08:07:43.000Z</time>
      </trkpt>
      <trkpt lat="47.44932" lon="6.72328">
        <ele>461</ele>
        <time>2015-05-17T08:07:44.000Z</time>
      </trkpt>
      <trkpt lat="47.44929" lon="6.72325">
        <ele>461</ele>
        <time>2015-05-17T08:07:45.000Z</time>
      </trkpt>
      <trkpt lat="47.44926" lon="6.72321">
        <ele>461</ele>
        <time>2015-05-17T08:07:46.000Z</time>
      </trkpt>
      <trkpt lat="47.44922" lon="6.72318">
        <ele>461</ele>
        <time>2015-05-17T08:07:47.000Z</time>
      </trkpt>
      <trkpt lat="47.44918" lon="6.72315">
        <ele>460</ele>
        <time>2015-05-17T08:07:48.000Z</time>
      </trkpt>
      <trkpt lat="47.44914" lon="6.72312">
        <ele>466</ele>
        <time>2015-05-17T08:07:49.000Z</time>
      </trkpt>
      <trkpt lat="47.44911" lon="6.7231">
        <ele>466</ele>
        <time>2015-05-17T08:07:50.000Z</time>
      </trkpt>
      <trkpt lat="47.44908" lon="6.72307">
        <ele>466</ele>
        <time>2015-05-17T08:07:51.000Z</time>
      </trkpt>
      <trkpt lat="47.44905" lon="6.72305">
        <ele>466</ele>
        <time>2015-05-17T08:07:52.000Z</time>
      </trkpt>
      <trkpt lat="47.44903" lon="6.72301">
        <ele>466</ele>
        <time>2015-05-17T08:07:53.000Z</time>
      </trkpt>
      <trkpt lat="47.449" lon="6.72299">
        <ele>465</ele>
        <time>2015-05-17T08:07:54.000Z</time>
      </trkpt>
      <trkpt lat="47.44898" lon="6.72296">
        <ele>465</ele>
        <time>2015-05-17T08:07:55.000Z</time>
      </trkpt>
      <trkpt lat="47.44895" lon="6.72294">
        <ele>466</ele>
        <time>2015-05-17T08:07:56.000Z</time>
      </trkpt>
      <trkpt lat="47.44892" lon="6.72292">
        <ele>466</ele>
        <time>2015-05-17T08:07:57.000Z</time>
      </trkpt>
      <trkpt lat="47.44888" lon="6.7229">
        <ele>466</ele>
        <time>2015-05-17T08:07:58.000Z</time>
      </trkpt>
      <trkpt lat="47.44885" lon="6.72287">
        <ele>466</ele>
        <time>2015-05-17T08:07:59.000Z</time>
      </trkpt>
      <trkpt lat="47.44882" lon="6.72283">
        <ele>466</ele>
        <time>2015-05-17T08:08:00.000Z</time>
      </trkpt>
      <trkpt lat="47.44879" lon="6.7228">
        <ele>466</ele>
        <time>2015-05-17T08:08:01.000Z</time>
      </trkpt>
      <trkpt lat="47.44875" lon="6.72277">
        <ele>466</ele>
        <time>2015-05-17T08:08:02.000Z</time>
      </trkpt>
      <trkpt lat="47.44872" lon="6.72274">
        <ele>466</ele>
        <time>2015-05-17T08:08:03.000Z</time>
      </trkpt>
      <trkpt lat="47.44869" lon="6.72271">
        <ele>466</ele>
        <time>2015-05-17T08:08:04.000Z</time>
      </trkpt>
      <trkpt lat="47.44866" lon="6.72268">
        <ele>466</ele>
        <time>2015-05-17T08:08:05.000Z</time>
      </trkpt>
      <trkpt lat="47.44863" lon="6.72265">
        <ele>466</ele>
        <time>2015-05-17T08:08:06.000Z</time>
      </trkpt>
      <trkpt lat="47.44861" lon="6.72263">
        <ele>466</ele>
        <time>2015-05-17T08:08:07.000Z</time>
      </trkpt>
      <trkpt lat="47.44858" lon="6.7226">
        <ele>466</ele>
        <time>2015-05-17T08:08:08.000Z</time>
      </trkpt>
      <trkpt lat="47.44855" lon="6.72258">
        <ele>466</ele>
        <time>2015-05-17T08:08:09.000Z</time>
      </trkpt>
      <trkpt lat="47.44853" lon="6.72256">
        <ele>466</ele>
        <time>2015-05-17T08:08:10.000Z</time>
      </trkpt>
      <trkpt lat="47.44849" lon="6.72255">
        <ele>466</ele>
        <time>2015-05-17T08:08:11.000Z</time>
      </trkpt>
      <trkpt lat="47.44846" lon="6.72254">
        <ele>466</ele>
        <time>2015-05-17T08:08:12.000Z</time>
      </trkpt>
      <trkpt lat="47.44843" lon="6.72254">
        <ele>466</ele>
        <time>2015-05-17T08:08:13.000Z</time>
      </trkpt>
      <trkpt lat="47.44839" lon="6.72253">
        <ele>466</ele>
        <time>2015-05-17T08:08:14.000Z</time>
      </trkpt>
      <trkpt lat="47.44836" lon="6.72251">
        <ele>466</ele>
        <time>2015-05-17T08:08:15.000Z</time>
      </trkpt>
      <trkpt lat="47.44833" lon="6.7225">
        <ele>466</ele>
        <time>2015-05-17T08:08:16.000Z</time>
      </trkpt>
      <trkpt lat="47.4483" lon="6.7225">
        <ele>466</ele>
        <time>2015-05-17T08:08:17.000Z</time>
      </trkpt>
      <trkpt lat="47.44826" lon="6.7225">
        <ele>469</ele>
        <time>2015-05-17T08:08:18.000Z</time>
      </trkpt>
      <trkpt lat="47.44823" lon="6.72251">
        <ele>469</ele>
        <time>2015-05-17T08:08:19.000Z</time>
      </trkpt>
      <trkpt lat="47.4482" lon="6.72252">
        <ele>470</ele>
        <time>2015-05-17T08:08:20.000Z</time>
      </trkpt>
      <trkpt lat="47.44817" lon="6.72253">
        <ele>471</ele>
        <time>2015-05-17T08:08:21.000Z</time>
      </trkpt>
      <trkpt lat="47.44814" lon="6.72255">
        <ele>471</ele>
        <time>2015-05-17T08:08:22.000Z</time>
      </trkpt>
      <trkpt lat="47.44811" lon="6.72256">
        <ele>472</ele>
        <time>2015-05-17T08:08:23.000Z</time>
      </trkpt>
      <trkpt lat="47.44808" lon="6.72258">
        <ele>473</ele>
        <time>2015-05-17T08:08:24.000Z</time>
      </trkpt>
      <trkpt lat="47.44802" lon="6.72263">
        <ele>473</ele>
        <time>2015-05-17T08:08:25.000Z</time>
      </trkpt>
      <trkpt lat="47.44799" lon="6.72265">
        <ele>474</ele>
        <time>2015-05-17T08:08:26.000Z</time>
      </trkpt>
      <trkpt lat="47.44797" lon="6.72261">
        <ele>474</ele>
        <time>2015-05-17T08:08:27.000Z</time>
      </trkpt>
      <trkpt lat="47.44794" lon="6.72261">
        <ele>474</ele>
        <time>2015-05-17T08:08:28.000Z</time>
      </trkpt>
      <trkpt lat="47.44792" lon="6.72261">
        <ele>474</ele>
        <time>2015-05-17T08:08:29.000Z</time>
      </trkpt>
      <trkpt lat="47.44789" lon="6.7226">
        <ele>474</ele>
        <time>2015-05-17T08:08:30.000Z</time>
      </trkpt>
      <trkpt lat="47.44786" lon="6.72259">
        <ele>474</ele>
        <time>2015-05-17T08:08:31.000Z</time>
      </trkpt>
      <trkpt lat="47.44785" lon="6.72258">
        <ele>474</ele>
        <time>2015-05-17T08:08:32.000Z</time>
      </trkpt>
      <trkpt lat="47.4478" lon="6.72258">
        <ele>474</ele>
        <time>2015-05-17T08:08:33.000Z</time>
      </trkpt>
      <trkpt lat="47.44776" lon="6.72258">
        <ele>474</ele>
        <time>2015-05-17T08:08:34.000Z</time>
      </trkpt>
      <trkpt lat="47.44773" lon="6.72257">
        <ele>474</ele>
        <time>2015-05-17T08:08:35.000Z</time>
      </trkpt>
      <trkpt lat="47.44769" lon="6.72257">
        <ele>474</ele>
        <time>2015-05-17T08:08:36.000Z</time>
      </trkpt>
      <trkpt lat="47.44766" lon="6.72256">
        <ele>474</ele>
        <time>2015-05-17T08:08:37.000Z</time>
      </trkpt>
      <trkpt lat="47.44763" lon="6.72257">
        <ele>474</ele>
        <time>2015-05-17T08:08:38.000Z</time>
      </trkpt>
      <trkpt lat="47.4476" lon="6.72258">
        <ele>474</ele>
        <time>2015-05-17T08:08:39.000Z</time>
      </trkpt>
      <trkpt lat="47.44757" lon="6.72259">
        <ele>474</ele>
        <time>2015-05-17T08:08:40.000Z</time>
      </trkpt>
      <trkpt lat="47.44754" lon="6.7226">
        <ele>474</ele>
        <time>2015-05-17T08:08:41.000Z</time>
      </trkpt>
      <trkpt lat="47.44751" lon="6.72262">
        <ele>474</ele>
        <time>2015-05-17T08:08:42.000Z</time>
      </trkpt>
      <trkpt lat="47.44747" lon="6.72263">
        <ele>475</ele>
        <time>2015-05-17T08:08:43.000Z</time>
      </trkpt>
      <trkpt lat="47.44744" lon="6.72265">
        <ele>475</ele>
        <time>2015-05-17T08:08:44.000Z</time>
      </trkpt>
      <trkpt lat="47.4474" lon="6.72268">
        <ele>476</ele>
        <time>2015-05-17T08:08:45.000Z</time>
      </trkpt>
      <trkpt lat="47.44737" lon="6.7227">
        <ele>476</ele>
        <time>2015-05-17T08:08:46.000Z</time>
      </trkpt>
      <trkpt lat="47.44734" lon="6.72272">
        <ele>476</ele>
        <time>2015-05-17T08:08:47.000Z</time>
      </trkpt>
      <trkpt lat="47.44731" lon="6.72274">
        <ele>477</ele>
        <time>2015-05-17T08:08:48.000Z</time>
      </trkpt>
      <trkpt lat="47.44728" lon="6.72277">
        <ele>477</ele>
        <time>2015-05-17T08:08:49.000Z</time>
      </trkpt>
      <trkpt lat="47.44725" lon="6.72279">
        <ele>477</ele>
        <time>2015-05-17T08:08:50.000Z</time>
      </trkpt>
      <trkpt lat="47.44722" lon="6.72282">
        <ele>477</ele>
        <time>2015-05-17T08:08:51.000Z</time>
      </trkpt>
      <trkpt lat="47.44719" lon="6.72284">
        <ele>477</ele>
        <time>2015-05-17T08:08:52.000Z</time>
      </trkpt>
      <trkpt lat="47.44715" lon="6.72287">
        <ele>477</ele>
        <time>2015-05-17T08:08:53.000Z</time>
      </trkpt>
      <trkpt lat="47.44712" lon="6.72289">
        <ele>477</ele>
        <time>2015-05-17T08:08:54.000Z</time>
      </trkpt>
      <trkpt lat="47.44709" lon="6.72291">
        <ele>477</ele>
        <time>2015-05-17T08:08:55.000Z</time>
      </trkpt>
      <trkpt lat="47.44706" lon="6.72293">
        <ele>478</ele>
        <time>2015-05-17T08:08:56.000Z</time>
      </trkpt>
      <trkpt lat="47.44703" lon="6.72295">
        <ele>478</ele>
        <time>2015-05-17T08:08:57.000Z</time>
      </trkpt>
      <trkpt lat="47.44699" lon="6.72298">
        <ele>478</ele>
        <time>2015-05-17T08:08:58.000Z</time>
      </trkpt>
      <trkpt lat="47.44696" lon="6.723">
        <ele>478</ele>
        <time>2015-05-17T08:08:59.000Z</time>
      </trkpt>
      <trkpt lat="47.44692" lon="6.72302">
        <ele>478</ele>
        <time>2015-05-17T08:09:00.000Z</time>
      </trkpt>
      <trkpt lat="47.44688" lon="6.72304">
        <ele>478</ele>
        <time>2015-05-17T08:09:01.000Z</time>
      </trkpt>
      <trkpt lat="47.44685" lon="6.72306">
        <ele>478</ele>
        <time>2015-05-17T08:09:02.000Z</time>
      </trkpt>
      <trkpt lat="47.44681" lon="6.72307">
        <ele>478</ele>
        <time>2015-05-17T08:09:03.000Z</time>
      </trkpt>
      <trkpt lat="47.44676" lon="6.72309">
        <ele>478</ele>
        <time>2015-05-17T08:09:04.000Z</time>
      </trkpt>
      <trkpt lat="47.44671" lon="6.72312">
        <ele>478</ele>
        <time>2015-05-17T08:09:05.000Z</time>
      </trkpt>
      <trkpt lat="47.44665" lon="6.72314">
        <ele>477</ele>
        <time>2015-05-17T08:09:06.000Z</time>
      </trkpt>
      <trkpt lat="47.4466" lon="6.72314">
        <ele>477</ele>
        <time>2015-05-17T08:09:07.000Z</time>
      </trkpt>
      <trkpt lat="47.44654" lon="6.72314">
        <ele>476</ele>
        <time>2015-05-17T08:09:08.000Z</time>
      </trkpt>
      <trkpt lat="47.44648" lon="6.72315">
        <ele>476</ele>
        <time>2015-05-17T08:09:09.000Z</time>
      </trkpt>
      <trkpt lat="47.44642" lon="6.72314">
        <ele>476</ele>
        <time>2015-05-17T08:09:10.000Z</time>
      </trkpt>
      <trkpt lat="47.44636" lon="6.72313">
        <ele>476</ele>
        <time>2015-05-17T08:09:11.000Z</time>
      </trkpt>
      <trkpt lat="47.44631" lon="6.72313">
        <ele>475</ele>
        <time>2015-05-17T08:09:12.000Z</time>
      </trkpt>
      <trkpt lat="47.44625" lon="6.72312">
        <ele>475</ele>
        <time>2015-05-17T08:09:13.000Z</time>
      </trkpt>
      <trkpt lat="47.44619" lon="6.72312">
        <ele>475</ele>
        <time>2015-05-17T08:09:14.000Z</time>
      </trkpt>
      <trkpt lat="47.44613" lon="6.72314">
        <ele>475</ele>
        <time>2015-05-17T08:09:15.000Z</time>
      </trkpt>
      <trkpt lat="47.44607" lon="6.72317">
        <ele>476</ele>
        <time>2015-05-17T08:09:16.000Z</time>
      </trkpt>
      <trkpt lat="47.446" lon="6.72319">
        <ele>476</ele>
        <time>2015-05-17T08:09:17.000Z</time>
      </trkpt>
      <trkpt lat="47.44595" lon="6.72318">
        <ele>476</ele>
        <time>2015-05-17T08:09:18.000Z</time>
      </trkpt>
      <trkpt lat="47.44589" lon="6.72319">
        <ele>476</ele>
        <time>2015-05-17T08:09:19.000Z</time>
      </trkpt>
      <trkpt lat="47.44583" lon="6.7232">
        <ele>476</ele>
        <time>2015-05-17T08:09:20.000Z</time>
      </trkpt>
      <trkpt lat="47.44578" lon="6.7232">
        <ele>475</ele>
        <time>2015-05-17T08:09:21.000Z</time>
      </trkpt>
      <trkpt lat="47.44572" lon="6.7232">
        <ele>475</ele>
        <time>2015-05-17T08:09:22.000Z</time>
      </trkpt>
      <trkpt lat="47.44566" lon="6.7232">
        <ele>475</ele>
        <time>2015-05-17T08:09:23.000Z</time>
      </trkpt>
      <trkpt lat="47.4456" lon="6.72318">
        <ele>474</ele>
        <time>2015-05-17T08:09:24.000Z</time>
      </trkpt>
      <trkpt lat="47.44554" lon="6.72317">
        <ele>474</ele>
        <time>2015-05-17T08:09:25.000Z</time>
      </trkpt>
      <trkpt lat="47.44549" lon="6.72315">
        <ele>474</ele>
        <time>2015-05-17T08:09:26.000Z</time>
      </trkpt>
      <trkpt lat="47.44544" lon="6.72315">
        <ele>474</ele>
        <time>2015-05-17T08:09:27.000Z</time>
      </trkpt>
      <trkpt lat="47.4454" lon="6.72316">
        <ele>473</ele>
        <time>2015-05-17T08:09:28.000Z</time>
      </trkpt>
      <trkpt lat="47.44534" lon="6.72316">
        <ele>473</ele>
        <time>2015-05-17T08:09:29.000Z</time>
      </trkpt>
      <trkpt lat="47.44528" lon="6.72318">
        <ele>474</ele>
        <time>2015-05-17T08:09:30.000Z</time>
      </trkpt>
      <trkpt lat="47.44523" lon="6.72322">
        <ele>474</ele>
        <time>2015-05-17T08:09:31.000Z</time>
      </trkpt>
      <trkpt lat="47.44518" lon="6.72325">
        <ele>474</ele>
        <time>2015-05-17T08:09:32.000Z</time>
      </trkpt>
      <trkpt lat="47.44512" lon="6.72326">
        <ele>474</ele>
        <time>2015-05-17T08:09:33.000Z</time>
      </trkpt>
      <trkpt lat="47.44507" lon="6.72328">
        <ele>475</ele>
        <time>2015-05-17T08:09:34.000Z</time>
      </trkpt>
      <trkpt lat="47.44498" lon="6.7233">
        <ele>475</ele>
        <time>2015-05-17T08:09:35.000Z</time>
      </trkpt>
      <trkpt lat="47.44491" lon="6.72329">
        <ele>475</ele>
        <time>2015-05-17T08:09:36.000Z</time>
      </trkpt>
      <trkpt lat="47.44485" lon="6.72335">
        <ele>477</ele>
        <time>2015-05-17T08:09:37.000Z</time>
      </trkpt>
      <trkpt lat="47.44479" lon="6.72335">
        <ele>477</ele>
        <time>2015-05-17T08:09:38.000Z</time>
      </trkpt>
      <trkpt lat="47.44473" lon="6.72336">
        <ele>477</ele>
        <time>2015-05-17T08:09:39.000Z</time>
      </trkpt>
      <trkpt lat="47.44468" lon="6.72338">
        <ele>477</ele>
        <time>2015-05-17T08:09:40.000Z</time>
      </trkpt>
      <trkpt lat="47.44463" lon="6.7234">
        <ele>477</ele>
        <time>2015-05-17T08:09:41.000Z</time>
      </trkpt>
      <trkpt lat="47.44458" lon="6.72341">
        <ele>477</ele>
        <time>2015-05-17T08:09:42.000Z</time>
      </trkpt>
      <trkpt lat="47.44452" lon="6.72341">
        <ele>477</ele>
        <time>2015-05-17T08:09:43.000Z</time>
      </trkpt>
      <trkpt lat="47.44448" lon="6.72342">
        <ele>477</ele>
        <time>2015-05-17T08:09:44.000Z</time>
      </trkpt>
      <trkpt lat="47.44442" lon="6.72345">
        <ele>477</ele>
        <time>2015-05-17T08:09:45.000Z</time>
      </trkpt>
      <trkpt lat="47.44437" lon="6.72344">
        <ele>476</ele>
        <time>2015-05-17T08:09:46.000Z</time>
      </trkpt>
      <trkpt lat="47.4443" lon="6.72344">
        <ele>476</ele>
        <time>2015-05-17T08:09:47.000Z</time>
      </trkpt>
      <trkpt lat="47.44424" lon="6.72345">
        <ele>476</ele>
        <time>2015-05-17T08:09:48.000Z</time>
      </trkpt>
      <trkpt lat="47.44417" lon="6.72346">
        <ele>476</ele>
        <time>2015-05-17T08:09:49.000Z</time>
      </trkpt>
      <trkpt lat="47.44411" lon="6.72348">
        <ele>476</ele>
        <time>2015-05-17T08:09:50.000Z</time>
      </trkpt>
      <trkpt lat="47.44403" lon="6.72349">
        <ele>476</ele>
        <time>2015-05-17T08:09:51.000Z</time>
      </trkpt>
      <trkpt lat="47.44396" lon="6.72352">
        <ele>476</ele>
        <time>2015-05-17T08:09:52.000Z</time>
      </trkpt>
      <trkpt lat="47.4439" lon="6.72354">
        <ele>477</ele>
        <time>2015-05-17T08:09:53.000Z</time>
      </trkpt>
      <trkpt lat="47.44384" lon="6.72357">
        <ele>477</ele>
        <time>2015-05-17T08:09:54.000Z</time>
      </trkpt>
      <trkpt lat="47.44378" lon="6.72361">
        <ele>477</ele>
        <time>2015-05-17T08:09:55.000Z</time>
      </trkpt>
      <trkpt lat="47.44372" lon="6.72363">
        <ele>477</ele>
        <time>2015-05-17T08:09:56.000Z</time>
      </trkpt>
      <trkpt lat="47.44366" lon="6.72365">
        <ele>477</ele>
        <time>2015-05-17T08:09:57.000Z</time>
      </trkpt>
      <trkpt lat="47.4436" lon="6.72368">
        <ele>477</ele>
        <time>2015-05-17T08:09:58.000Z</time>
      </trkpt>
      <trkpt lat="47.44354" lon="6.7237">
        <ele>478</ele>
        <time>2015-05-17T08:09:59.000Z</time>
      </trkpt>
      <trkpt lat="47.44349" lon="6.7237">
        <ele>478</ele>
        <time>2015-05-17T08:10:00.000Z</time>
      </trkpt>
      <trkpt lat="47.44342" lon="6.72372">
        <ele>478</ele>
        <time>2015-05-17T08:10:01.000Z</time>
      </trkpt>
      <trkpt lat="47.44337" lon="6.72371">
        <ele>478</ele>
        <time>2015-05-17T08:10:02.000Z</time>
      </trkpt>
      <trkpt lat="47.44331" lon="6.7237">
        <ele>480</ele>
        <time>2015-05-17T08:10:03.000Z</time>
      </trkpt>
      <trkpt lat="47.44325" lon="6.7237">
        <ele>480</ele>
        <time>2015-05-17T08:10:04.000Z</time>
      </trkpt>
      <trkpt lat="47.44319" lon="6.7237">
        <ele>480</ele>
        <time>2015-05-17T08:10:05.000Z</time>
      </trkpt>
      <trkpt lat="47.44314" lon="6.72371">
        <ele>480</ele>
        <time>2015-05-17T08:10:06.000Z</time>
      </trkpt>
      <trkpt lat="47.44309" lon="6.7237">
        <ele>480</ele>
        <time>2015-05-17T08:10:07.000Z</time>
      </trkpt>
      <trkpt lat="47.44304" lon="6.7237">
        <ele>480</ele>
        <time>2015-05-17T08:10:08.000Z</time>
      </trkpt>
      <trkpt lat="47.44299" lon="6.72372">
        <ele>480</ele>
        <time>2015-05-17T08:10:09.000Z</time>
      </trkpt>
      <trkpt lat="47.44294" lon="6.72372">
        <ele>480</ele>
        <time>2015-05-17T08:10:10.000Z</time>
      </trkpt>
      <trkpt lat="47.44288" lon="6.72373">
        <ele>481</ele>
        <time>2015-05-17T08:10:11.000Z</time>
      </trkpt>
      <trkpt lat="47.44282" lon="6.72373">
        <ele>481</ele>
        <time>2015-05-17T08:10:12.000Z</time>
      </trkpt>
      <trkpt lat="47.44277" lon="6.72375">
        <ele>481</ele>
        <time>2015-05-17T08:10:13.000Z</time>
      </trkpt>
      <trkpt lat="47.44272" lon="6.72376">
        <ele>481</ele>
        <time>2015-05-17T08:10:14.000Z</time>
      </trkpt>
      <trkpt lat="47.44265" lon="6.72379">
        <ele>481</ele>
        <time>2015-05-17T08:10:15.000Z</time>
      </trkpt>
      <trkpt lat="47.44261" lon="6.7238">
        <ele>481</ele>
        <time>2015-05-17T08:10:16.000Z</time>
      </trkpt>
      <trkpt lat="47.44255" lon="6.7238">
        <ele>481</ele>
        <time>2015-05-17T08:10:17.000Z</time>
      </trkpt>
      <trkpt lat="47.44251" lon="6.7238">
        <ele>481</ele>
        <time>2015-05-17T08:10:18.000Z</time>
      </trkpt>
      <trkpt lat="47.44247" lon="6.72383">
        <ele>482</ele>
        <time>2015-05-17T08:10:19.000Z</time>
      </trkpt>
      <trkpt lat="47.44242" lon="6.72383">
        <ele>482</ele>
        <time>2015-05-17T08:10:20.000Z</time>
      </trkpt>
      <trkpt lat="47.44238" lon="6.72383">
        <ele>482</ele>
        <time>2015-05-17T08:10:21.000Z</time>
      </trkpt>
      <trkpt lat="47.44235" lon="6.72385">
        <ele>482</ele>
        <time>2015-05-17T08:10:22.000Z</time>
      </trkpt>
      <trkpt lat="47.44229" lon="6.72385">
        <ele>482</ele>
        <time>2015-05-17T08:10:23.000Z</time>
      </trkpt>
      <trkpt lat="47.44223" lon="6.72389">
        <ele>482</ele>
        <time>2015-05-17T08:10:24.000Z</time>
      </trkpt>
      <trkpt lat="47.44216" lon="6.72388">
        <ele>482</ele>
        <time>2015-05-17T08:10:25.000Z</time>
      </trkpt>
      <trkpt lat="47.44206" lon="6.72389">
        <ele>482</ele>
        <time>2015-05-17T08:10:26.000Z</time>
      </trkpt>
      <trkpt lat="47.44198" lon="6.72388">
        <ele>482</ele>
        <time>2015-05-17T08:10:27.000Z</time>
      </trkpt>
      <trkpt lat="47.44192" lon="6.72391">
        <ele>482</ele>
        <time>2015-05-17T08:10:28.000Z</time>
      </trkpt>
      <trkpt lat="47.44186" lon="6.72392">
        <ele>482</ele>
        <time>2015-05-17T08:10:29.000Z</time>
      </trkpt>
      <trkpt lat="47.44179" lon="6.72393">
        <ele>482</ele>
        <time>2015-05-17T08:10:30.000Z</time>
      </trkpt>
      <trkpt lat="47.44172" lon="6.72395">
        <ele>482</ele>
        <time>2015-05-17T08:10:31.000Z</time>
      </trkpt>
      <trkpt lat="47.44165" lon="6.72399">
        <ele>480</ele>
        <time>2015-05-17T08:10:32.000Z</time>
      </trkpt>
      <trkpt lat="47.4416" lon="6.72399">
        <ele>480</ele>
        <time>2015-05-17T08:10:33.000Z</time>
      </trkpt>
      <trkpt lat="47.44154" lon="6.72401">
        <ele>479</ele>
        <time>2015-05-17T08:10:34.000Z</time>
      </trkpt>
      <trkpt lat="47.4415" lon="6.72404">
        <ele>479</ele>
        <time>2015-05-17T08:10:35.000Z</time>
      </trkpt>
      <trkpt lat="47.44144" lon="6.72404">
        <ele>479</ele>
        <time>2015-05-17T08:10:36.000Z</time>
      </trkpt>
      <trkpt lat="47.4414" lon="6.72405">
        <ele>479</ele>
        <time>2015-05-17T08:10:37.000Z</time>
      </trkpt>
      <trkpt lat="47.44132" lon="6.72407">
        <ele>478</ele>
        <time>2015-05-17T08:10:38.000Z</time>
      </trkpt>
      <trkpt lat="47.44123" lon="6.7241">
        <ele>477</ele>
        <time>2015-05-17T08:10:39.000Z</time>
      </trkpt>
      <trkpt lat="47.44116" lon="6.72409">
        <ele>477</ele>
        <time>2015-05-17T08:10:40.000Z</time>
      </trkpt>
      <trkpt lat="47.44105" lon="6.7241">
        <ele>476</ele>
        <time>2015-05-17T08:10:41.000Z</time>
      </trkpt>
      <trkpt lat="47.44091" lon="6.72414">
        <ele>474</ele>
        <time>2015-05-17T08:10:42.000Z</time>
      </trkpt>
      <trkpt lat="47.44081" lon="6.72417">
        <ele>471</ele>
        <time>2015-05-17T08:10:43.000Z</time>
      </trkpt>
      <trkpt lat="47.4407" lon="6.72422">
        <ele>470</ele>
        <time>2015-05-17T08:10:44.000Z</time>
      </trkpt>
      <trkpt lat="47.44061" lon="6.72443">
        <ele>468</ele>
        <time>2015-05-17T08:10:45.000Z</time>
      </trkpt>
      <trkpt lat="47.44051" lon="6.72451">
        <ele>468</ele>
        <time>2015-05-17T08:10:46.000Z</time>
      </trkpt>
      <trkpt lat="47.44042" lon="6.72457">
        <ele>467</ele>
        <time>2015-05-17T08:10:47.000Z</time>
      </trkpt>
      <trkpt lat="47.44033" lon="6.72461">
        <ele>467</ele>
        <time>2015-05-17T08:10:48.000Z</time>
      </trkpt>
      <trkpt lat="47.44024" lon="6.72465">
        <ele>467</ele>
        <time>2015-05-17T08:10:49.000Z</time>
      </trkpt>
      <trkpt lat="47.44017" lon="6.72469">
        <ele>466</ele>
        <time>2015-05-17T08:10:50.000Z</time>
      </trkpt>
      <trkpt lat="47.44008" lon="6.72472">
        <ele>466</ele>
        <time>2015-05-17T08:10:51.000Z</time>
      </trkpt>
      <trkpt lat="47.44" lon="6.72477">
        <ele>464</ele>
        <time>2015-05-17T08:10:52.000Z</time>
      </trkpt>
      <trkpt lat="47.43993" lon="6.72481">
        <ele>464</ele>
        <time>2015-05-17T08:10:53.000Z</time>
      </trkpt>
      <trkpt lat="47.43985" lon="6.72484">
        <ele>464</ele>
        <time>2015-05-17T08:10:54.000Z</time>
      </trkpt>
      <trkpt lat="47.43979" lon="6.72488">
        <ele>464</ele>
        <time>2015-05-17T08:10:55.000Z</time>
      </trkpt>
      <trkpt lat="47.43972" lon="6.7249">
        <ele>464</ele>
        <time>2015-05-17T08:10:56.000Z</time>
      </trkpt>
      <trkpt lat="47.43965" lon="6.72492">
        <ele>464</ele>
        <time>2015-05-17T08:10:57.000Z</time>
      </trkpt>
      <trkpt lat="47.43959" lon="6.72496">
        <ele>464</ele>
        <time>2015-05-17T08:10:58.000Z</time>
      </trkpt>
      <trkpt lat="47.43953" lon="6.72498">
        <ele>464</ele>
        <time>2015-05-17T08:10:59.000Z</time>
      </trkpt>
      <trkpt lat="47.43946" lon="6.725">
        <ele>463</ele>
        <time>2015-05-17T08:11:00.000Z</time>
      </trkpt>
      <trkpt lat="47.43939" lon="6.72497">
        <ele>464</ele>
        <time>2015-05-17T08:11:01.000Z</time>
      </trkpt>
      <trkpt lat="47.43934" lon="6.72495">
        <ele>464</ele>
        <time>2015-05-17T08:11:02.000Z</time>
      </trkpt>
      <trkpt lat="47.43927" lon="6.7249">
        <ele>464</ele>
        <time>2015-05-17T08:11:03.000Z</time>
      </trkpt>
      <trkpt lat="47.43922" lon="6.72485">
        <ele>464</ele>
        <time>2015-05-17T08:11:04.000Z</time>
      </trkpt>
      <trkpt lat="47.43917" lon="6.72482">
        <ele>463</ele>
        <time>2015-05-17T08:11:05.000Z</time>
      </trkpt>
      <trkpt lat="47.43911" lon="6.72478">
        <ele>463</ele>
        <time>2015-05-17T08:11:06.000Z</time>
      </trkpt>
      <trkpt lat="47.43906" lon="6.72473">
        <ele>463</ele>
        <time>2015-05-17T08:11:07.000Z</time>
      </trkpt>
      <trkpt lat="47.439" lon="6.72468">
        <ele>463</ele>
        <time>2015-05-17T08:11:08.000Z</time>
      </trkpt>
      <trkpt lat="47.43895" lon="6.72463">
        <ele>463</ele>
        <time>2015-05-17T08:11:09.000Z</time>
      </trkpt>
      <trkpt lat="47.43889" lon="6.72459">
        <ele>463</ele>
        <time>2015-05-17T08:11:10.000Z</time>
      </trkpt>
      <trkpt lat="47.43883" lon="6.72453">
        <ele>463</ele>
        <time>2015-05-17T08:11:11.000Z</time>
      </trkpt>
      <trkpt lat="47.43878" lon="6.72447">
        <ele>463</ele>
        <time>2015-05-17T08:11:12.000Z</time>
      </trkpt>
      <trkpt lat="47.43872" lon="6.72442">
        <ele>463</ele>
        <time>2015-05-17T08:11:12.999Z</time>
      </trkpt>
      <trkpt lat="47.43866" lon="6.72436">
        <ele>463</ele>
        <time>2015-05-17T08:11:13.999Z</time>
      </trkpt>
      <trkpt lat="47.43861" lon="6.72432">
        <ele>463</ele>
        <time>2015-05-17T08:11:15.000Z</time>
      </trkpt>
      <trkpt lat="47.43855" lon="6.72426">
        <ele>463</ele>
        <time>2015-05-17T08:11:16.000Z</time>
      </trkpt>
      <trkpt lat="47.4385" lon="6.72422">
        <ele>462</ele>
        <time>2015-05-17T08:11:17.000Z</time>
      </trkpt>
      <trkpt lat="47.43846" lon="6.72415">
        <ele>463</ele>
        <time>2015-05-17T08:11:18.000Z</time>
      </trkpt>
      <trkpt lat="47.43841" lon="6.72409">
        <ele>463</ele>
        <time>2015-05-17T08:11:19.000Z</time>
      </trkpt>
      <trkpt lat="47.43835" lon="6.72405">
        <ele>463</ele>
        <time>2015-05-17T08:11:20.000Z</time>
      </trkpt>
      <trkpt lat="47.4383" lon="6.72398">
        <ele>462</ele>
        <time>2015-05-17T08:11:21.000Z</time>
      </trkpt>
      <trkpt lat="47.43824" lon="6.7239">
        <ele>462</ele>
        <time>2015-05-17T08:11:22.000Z</time>
      </trkpt>
      <trkpt lat="47.43818" lon="6.72382">
        <ele>462</ele>
        <time>2015-05-17T08:11:23.000Z</time>
      </trkpt>
      <trkpt lat="47.43812" lon="6.72376">
        <ele>462</ele>
        <time>2015-05-17T08:11:24.000Z</time>
      </trkpt>
      <trkpt lat="47.43805" lon="6.72371">
        <ele>462</ele>
        <time>2015-05-17T08:11:25.000Z</time>
      </trkpt>
      <trkpt lat="47.43798" lon="6.72364">
        <ele>462</ele>
        <time>2015-05-17T08:11:26.000Z</time>
      </trkpt>
      <trkpt lat="47.43793" lon="6.72359">
        <ele>462</ele>
        <time>2015-05-17T08:11:27.000Z</time>
      </trkpt>
      <trkpt lat="47.43788" lon="6.72353">
        <ele>461</ele>
        <time>2015-05-17T08:11:28.000Z</time>
      </trkpt>
      <trkpt lat="47.43783" lon="6.72347">
        <ele>461</ele>
        <time>2015-05-17T08:11:29.000Z</time>
      </trkpt>
      <trkpt lat="47.43777" lon="6.72342">
        <ele>461</ele>
        <time>2015-05-17T08:11:30.000Z</time>
      </trkpt>
      <trkpt lat="47.43773" lon="6.72335">
        <ele>461</ele>
        <time>2015-05-17T08:11:31.000Z</time>
      </trkpt>
      <trkpt lat="47.4377" lon="6.72329">
        <ele>461</ele>
        <time>2015-05-17T08:11:32.000Z</time>
      </trkpt>
      <trkpt lat="47.43765" lon="6.72324">
        <ele>461</ele>
        <time>2015-05-17T08:11:33.000Z</time>
      </trkpt>
      <trkpt lat="47.4376" lon="6.72317">
        <ele>460</ele>
        <time>2015-05-17T08:11:34.001Z</time>
      </trkpt>
      <trkpt lat="47.43758" lon="6.7231">
        <ele>461</ele>
        <time>2015-05-17T08:11:35.000Z</time>
      </trkpt>
      <trkpt lat="47.43753" lon="6.72303">
        <ele>460</ele>
        <time>2015-05-17T08:11:36.000Z</time>
      </trkpt>
      <trkpt lat="47.43746" lon="6.72299">
        <ele>460</ele>
        <time>2015-05-17T08:11:37.000Z</time>
      </trkpt>
      <trkpt lat="47.43741" lon="6.72299">
        <ele>460</ele>
        <time>2015-05-17T08:11:38.000Z</time>
      </trkpt>
      <trkpt lat="47.43735" lon="6.723">
        <ele>460</ele>
        <time>2015-05-17T08:11:39.000Z</time>
      </trkpt>
      <trkpt lat="47.43729" lon="6.72302">
        <ele>460</ele>
        <time>2015-05-17T08:11:40.000Z</time>
      </trkpt>
      <trkpt lat="47.43723" lon="6.72305">
        <ele>460</ele>
        <time>2015-05-17T08:11:41.000Z</time>
      </trkpt>
      <trkpt lat="47.43717" lon="6.72309">
        <ele>460</ele>
        <time>2015-05-17T08:11:42.000Z</time>
      </trkpt>
      <trkpt lat="47.43713" lon="6.72314">
        <ele>460</ele>
        <time>2015-05-17T08:11:43.000Z</time>
      </trkpt>
      <trkpt lat="47.43707" lon="6.72318">
        <ele>460</ele>
        <time>2015-05-17T08:11:44.000Z</time>
      </trkpt>
      <trkpt lat="47.43702" lon="6.72322">
        <ele>460</ele>
        <time>2015-05-17T08:11:45.000Z</time>
      </trkpt>
      <trkpt lat="47.43696" lon="6.72326">
        <ele>460</ele>
        <time>2015-05-17T08:11:46.000Z</time>
      </trkpt>
      <trkpt lat="47.43691" lon="6.72331">
        <ele>460</ele>
        <time>2015-05-17T08:11:47.000Z</time>
      </trkpt>
      <trkpt lat="47.43686" lon="6.72334">
        <ele>461</ele>
        <time>2015-05-17T08:11:48.000Z</time>
      </trkpt>
      <trkpt lat="47.43681" lon="6.72337">
        <ele>461</ele>
        <time>2015-05-17T08:11:49.000Z</time>
      </trkpt>
      <trkpt lat="47.43678" lon="6.72342">
        <ele>461</ele>
        <time>2015-05-17T08:11:50.000Z</time>
      </trkpt>
      <trkpt lat="47.43672" lon="6.72345">
        <ele>461</ele>
        <time>2015-05-17T08:11:51.000Z</time>
      </trkpt>
      <trkpt lat="47.43667" lon="6.72348">
        <ele>461</ele>
        <time>2015-05-17T08:11:52.000Z</time>
      </trkpt>
      <trkpt lat="47.43663" lon="6.72349">
        <ele>462</ele>
        <time>2015-05-17T08:11:53.000Z</time>
      </trkpt>
      <trkpt lat="47.4366" lon="6.7235">
        <ele>462</ele>
        <time>2015-05-17T08:11:54.000Z</time>
      </trkpt>
      <trkpt lat="47.43654" lon="6.72355">
        <ele>463</ele>
        <time>2015-05-17T08:11:55.000Z</time>
      </trkpt>
      <trkpt lat="47.43649" lon="6.72357">
        <ele>463</ele>
        <time>2015-05-17T08:11:56.000Z</time>
      </trkpt>
      <trkpt lat="47.43644" lon="6.72359">
        <ele>463</ele>
        <time>2015-05-17T08:11:57.000Z</time>
      </trkpt>
      <trkpt lat="47.4364" lon="6.72361">
        <ele>463</ele>
        <time>2015-05-17T08:11:58.000Z</time>
      </trkpt>
      <trkpt lat="47.43636" lon="6.72364">
        <ele>463</ele>
        <time>2015-05-17T08:11:58.999Z</time>
      </trkpt>
      <trkpt lat="47.43627" lon="6.72368">
        <ele>464</ele>
        <time>2015-05-17T08:12:00.000Z</time>
      </trkpt>
      <trkpt lat="47.43623" lon="6.7237">
        <ele>464</ele>
        <time>2015-05-17T08:12:01.000Z</time>
      </trkpt>
      <trkpt lat="47.43619" lon="6.72372">
        <ele>464</ele>
        <time>2015-05-17T08:12:02.000Z</time>
      </trkpt>
      <trkpt lat="47.43612" lon="6.72376">
        <ele>464</ele>
        <time>2015-05-17T08:12:03.000Z</time>
      </trkpt>
      <trkpt lat="47.43608" lon="6.72376">
        <ele>464</ele>
        <time>2015-05-17T08:12:04.000Z</time>
      </trkpt>
      <trkpt lat="47.43603" lon="6.72376">
        <ele>464</ele>
        <time>2015-05-17T08:12:05.000Z</time>
      </trkpt>
      <trkpt lat="47.43599" lon="6.72379">
        <ele>464</ele>
        <time>2015-05-17T08:12:06.000Z</time>
      </trkpt>
      <trkpt lat="47.43594" lon="6.7238">
        <ele>464</ele>
        <time>2015-05-17T08:12:07.000Z</time>
      </trkpt>
      <trkpt lat="47.4359" lon="6.72384">
        <ele>464</ele>
        <time>2015-05-17T08:12:08.000Z</time>
      </trkpt>
      <trkpt lat="47.43585" lon="6.72386">
        <ele>465</ele>
        <time>2015-05-17T08:12:09.000Z</time>
      </trkpt>
      <trkpt lat="47.43582" lon="6.72388">
        <ele>467</ele>
        <time>2015-05-17T08:12:10.000Z</time>
      </trkpt>
      <trkpt lat="47.43578" lon="6.72391">
        <ele>467</ele>
        <time>2015-05-17T08:12:11.000Z</time>
      </trkpt>
      <trkpt lat="47.43574" lon="6.72394">
        <ele>467</ele>
        <time>2015-05-17T08:12:12.000Z</time>
      </trkpt>
      <trkpt lat="47.43571" lon="6.72397">
        <ele>467</ele>
        <time>2015-05-17T08:12:13.000Z</time>
      </trkpt>
      <trkpt lat="47.43567" lon="6.72399">
        <ele>467</ele>
        <time>2015-05-17T08:12:14.000Z</time>
      </trkpt>
      <trkpt lat="47.43562" lon="6.72402">
        <ele>467</ele>
        <time>2015-05-17T08:12:15.000Z</time>
      </trkpt>
      <trkpt lat="47.43558" lon="6.72403">
        <ele>467</ele>
        <time>2015-05-17T08:12:16.000Z</time>
      </trkpt>
      <trkpt lat="47.43553" lon="6.72405">
        <ele>467</ele>
        <time>2015-05-17T08:12:17.000Z</time>
      </trkpt>
      <trkpt lat="47.43548" lon="6.72406">
        <ele>467</ele>
        <time>2015-05-17T08:12:18.000Z</time>
      </trkpt>
      <trkpt lat="47.43545" lon="6.72406">
        <ele>468</ele>
        <time>2015-05-17T08:12:19.000Z</time>
      </trkpt>
      <trkpt lat="47.43542" lon="6.72409">
        <ele>468</ele>
        <time>2015-05-17T08:12:20.000Z</time>
      </trkpt>
      <trkpt lat="47.43538" lon="6.72413">
        <ele>468</ele>
        <time>2015-05-17T08:12:21.000Z</time>
      </trkpt>
      <trkpt lat="47.43534" lon="6.72416">
        <ele>468</ele>
        <time>2015-05-17T08:12:22.000Z</time>
      </trkpt>
      <trkpt lat="47.43529" lon="6.72417">
        <ele>470</ele>
        <time>2015-05-17T08:12:23.000Z</time>
      </trkpt>
      <trkpt lat="47.43527" lon="6.72419">
        <ele>470</ele>
        <time>2015-05-17T08:12:24.000Z</time>
      </trkpt>
      <trkpt lat="47.43523" lon="6.72421">
        <ele>470</ele>
        <time>2015-05-17T08:12:25.001Z</time>
      </trkpt>
      <trkpt lat="47.43519" lon="6.72423">
        <ele>470</ele>
        <time>2015-05-17T08:12:26.001Z</time>
      </trkpt>
      <trkpt lat="47.43515" lon="6.72421">
        <ele>470</ele>
        <time>2015-05-17T08:12:27.000Z</time>
      </trkpt>
      <trkpt lat="47.43513" lon="6.72416">
        <ele>469</ele>
        <time>2015-05-17T08:12:28.000Z</time>
      </trkpt>
      <trkpt lat="47.4351" lon="6.72412">
        <ele>470</ele>
        <time>2015-05-17T08:12:29.000Z</time>
      </trkpt>
      <trkpt lat="47.43508" lon="6.72407">
        <ele>470</ele>
        <time>2015-05-17T08:12:30.000Z</time>
      </trkpt>
      <trkpt lat="47.43505" lon="6.72403">
        <ele>469</ele>
        <time>2015-05-17T08:12:31.000Z</time>
      </trkpt>
      <trkpt lat="47.43503" lon="6.72398">
        <ele>469</ele>
        <time>2015-05-17T08:12:32.000Z</time>
      </trkpt>
      <trkpt lat="47.435" lon="6.72393">
        <ele>471</ele>
        <time>2015-05-17T08:12:33.000Z</time>
      </trkpt>
      <trkpt lat="47.43497" lon="6.72386">
        <ele>471</ele>
        <time>2015-05-17T08:12:34.000Z</time>
      </trkpt>
      <trkpt lat="47.43495" lon="6.72382">
        <ele>471</ele>
        <time>2015-05-17T08:12:35.000Z</time>
      </trkpt>
      <trkpt lat="47.43492" lon="6.72377">
        <ele>471</ele>
        <time>2015-05-17T08:12:36.000Z</time>
      </trkpt>
      <trkpt lat="47.4349" lon="6.72373">
        <ele>471</ele>
        <time>2015-05-17T08:12:37.000Z</time>
      </trkpt>
      <trkpt lat="47.43487" lon="6.72369">
        <ele>471</ele>
        <time>2015-05-17T08:12:38.000Z</time>
      </trkpt>
      <trkpt lat="47.43484" lon="6.72364">
        <ele>471</ele>
        <time>2015-05-17T08:12:39.000Z</time>
      </trkpt>
      <trkpt lat="47.43482" lon="6.72359">
        <ele>471</ele>
        <time>2015-05-17T08:12:40.000Z</time>
      </trkpt>
      <trkpt lat="47.43479" lon="6.72354">
        <ele>471</ele>
        <time>2015-05-17T08:12:41.000Z</time>
      </trkpt>
      <trkpt lat="47.43475" lon="6.72348">
        <ele>470</ele>
        <time>2015-05-17T08:12:42.000Z</time>
      </trkpt>
      <trkpt lat="47.43471" lon="6.72344">
        <ele>471</ele>
        <time>2015-05-17T08:12:43.000Z</time>
      </trkpt>
      <trkpt lat="47.43469" lon="6.72339">
        <ele>471</ele>
        <time>2015-05-17T08:12:44.000Z</time>
      </trkpt>
      <trkpt lat="47.43465" lon="6.72334">
        <ele>471</ele>
        <time>2015-05-17T08:12:45.000Z</time>
      </trkpt>
      <trkpt lat="47.43463" lon="6.72328">
        <ele>468</ele>
        <time>2015-05-17T08:12:46.000Z</time>
      </trkpt>
      <trkpt lat="47.43458" lon="6.72323">
        <ele>468</ele>
        <time>2015-05-17T08:12:47.000Z</time>
      </trkpt>
      <trkpt lat="47.43454" lon="6.72318">
        <ele>468</ele>
        <time>2015-05-17T08:12:48.000Z</time>
      </trkpt>
      <trkpt lat="47.43451" lon="6.72312">
        <ele>468</ele>
        <time>2015-05-17T08:12:48.999Z</time>
      </trkpt>
      <trkpt lat="47.43447" lon="6.72306">
        <ele>468</ele>
        <time>2015-05-17T08:12:50.000Z</time>
      </trkpt>
      <trkpt lat="47.43443" lon="6.72301">
        <ele>468</ele>
        <time>2015-05-17T08:12:51.000Z</time>
      </trkpt>
      <trkpt lat="47.43441" lon="6.72295">
        <ele>468</ele>
        <time>2015-05-17T08:12:52.000Z</time>
      </trkpt>
      <trkpt lat="47.43439" lon="6.72289">
        <ele>468</ele>
        <time>2015-05-17T08:12:53.000Z</time>
      </trkpt>
      <trkpt lat="47.43436" lon="6.72283">
        <ele>468</ele>
        <time>2015-05-17T08:12:54.000Z</time>
      </trkpt>
      <trkpt lat="47.43434" lon="6.72278">
        <ele>467</ele>
        <time>2015-05-17T08:12:55.000Z</time>
      </trkpt>
      <trkpt lat="47.43429" lon="6.72273">
        <ele>467</ele>
        <time>2015-05-17T08:12:56.000Z</time>
      </trkpt>
      <trkpt lat="47.43426" lon="6.72268">
        <ele>467</ele>
        <time>2015-05-17T08:12:57.000Z</time>
      </trkpt>
      <trkpt lat="47.43423" lon="6.72262">
        <ele>467</ele>
        <time>2015-05-17T08:12:58.000Z</time>
      </trkpt>
      <trkpt lat="47.4342" lon="6.72256">
        <ele>467</ele>
        <time>2015-05-17T08:12:59.000Z</time>
      </trkpt>
      <trkpt lat="47.43417" lon="6.72251">
        <ele>467</ele>
        <time>2015-05-17T08:13:00.000Z</time>
      </trkpt>
      <trkpt lat="47.43414" lon="6.72246">
        <ele>467</ele>
        <time>2015-05-17T08:13:01.000Z</time>
      </trkpt>
      <trkpt lat="47.43409" lon="6.7224">
        <ele>468</ele>
        <time>2015-05-17T08:13:02.000Z</time>
      </trkpt>
      <trkpt lat="47.43405" lon="6.72235">
        <ele>468</ele>
        <time>2015-05-17T08:13:03.000Z</time>
      </trkpt>
      <trkpt lat="47.43403" lon="6.72231">
        <ele>468</ele>
        <time>2015-05-17T08:13:04.000Z</time>
      </trkpt>
      <trkpt lat="47.43399" lon="6.72226">
        <ele>468</ele>
        <time>2015-05-17T08:13:05.000Z</time>
      </trkpt>
      <trkpt lat="47.43396" lon="6.7222">
        <ele>468</ele>
        <time>2015-05-17T08:13:06.000Z</time>
      </trkpt>
      <trkpt lat="47.43394" lon="6.72213">
        <ele>468</ele>
        <time>2015-05-17T08:13:07.000Z</time>
      </trkpt>
      <trkpt lat="47.4339" lon="6.72208">
        <ele>468</ele>
        <time>2015-05-17T08:13:08.000Z</time>
      </trkpt>
      <trkpt lat="47.43387" lon="6.72202">
        <ele>468</ele>
        <time>2015-05-17T08:13:09.000Z</time>
      </trkpt>
      <trkpt lat="47.43383" lon="6.72196">
        <ele>468</ele>
        <time>2015-05-17T08:13:10.000Z</time>
      </trkpt>
      <trkpt lat="47.43379" lon="6.72191">
        <ele>468</ele>
        <time>2015-05-17T08:13:11.000Z</time>
      </trkpt>
      <trkpt lat="47.43375" lon="6.72185">
        <ele>468</ele>
        <time>2015-05-17T08:13:12.000Z</time>
      </trkpt>
      <trkpt lat="47.43371" lon="6.72178">
        <ele>468</ele>
        <time>2015-05-17T08:13:13.000Z</time>
      </trkpt>
      <trkpt lat="47.43367" lon="6.72173">
        <ele>468</ele>
        <time>2015-05-17T08:13:14.000Z</time>
      </trkpt>
      <trkpt lat="47.43362" lon="6.72168">
        <ele>468</ele>
        <time>2015-05-17T08:13:15.000Z</time>
      </trkpt>
      <trkpt lat="47.43358" lon="6.72163">
        <ele>466</ele>
        <time>2015-05-17T08:13:16.000Z</time>
      </trkpt>
      <trkpt lat="47.43354" lon="6.72158">
        <ele>466</ele>
        <time>2015-05-17T08:13:17.000Z</time>
      </trkpt>
      <trkpt lat="47.43351" lon="6.72154">
        <ele>466</ele>
        <time>2015-05-17T08:13:18.000Z</time>
      </trkpt>
      <trkpt lat="47.43348" lon="6.72148">
        <ele>466</ele>
        <time>2015-05-17T08:13:19.000Z</time>
      </trkpt>
      <trkpt lat="47.43345" lon="6.72143">
        <ele>466</ele>
        <time>2015-05-17T08:13:20.000Z</time>
      </trkpt>
      <trkpt lat="47.43342" lon="6.72138">
        <ele>466</ele>
        <time>2015-05-17T08:13:21.000Z</time>
      </trkpt>
      <trkpt lat="47.43338" lon="6.72132">
        <ele>466</ele>
        <time>2015-05-17T08:13:22.000Z</time>
      </trkpt>
      <trkpt lat="47.43334" lon="6.72127">
        <ele>465</ele>
        <time>2015-05-17T08:13:23.000Z</time>
      </trkpt>
      <trkpt lat="47.43331" lon="6.72121">
        <ele>470</ele>
        <time>2015-05-17T08:13:24.000Z</time>
      </trkpt>
      <trkpt lat="47.43328" lon="6.72113">
        <ele>470</ele>
        <time>2015-05-17T08:13:25.000Z</time>
      </trkpt>
      <trkpt lat="47.43324" lon="6.72109">
        <ele>469</ele>
        <time>2015-05-17T08:13:26.000Z</time>
      </trkpt>
      <trkpt lat="47.43321" lon="6.72104">
        <ele>469</ele>
        <time>2015-05-17T08:13:27.000Z</time>
      </trkpt>
      <trkpt lat="47.43317" lon="6.72098">
        <ele>469</ele>
        <time>2015-05-17T08:13:28.000Z</time>
      </trkpt>
      <trkpt lat="47.43314" lon="6.72093">
        <ele>469</ele>
        <time>2015-05-17T08:13:29.000Z</time>
      </trkpt>
      <trkpt lat="47.43309" lon="6.72088">
        <ele>469</ele>
        <time>2015-05-17T08:13:30.000Z</time>
      </trkpt>
      <trkpt lat="47.43305" lon="6.72083">
        <ele>468</ele>
        <time>2015-05-17T08:13:31.000Z</time>
      </trkpt>
      <trkpt lat="47.43301" lon="6.72077">
        <ele>468</ele>
        <time>2015-05-17T08:13:32.000Z</time>
      </trkpt>
      <trkpt lat="47.43298" lon="6.72073">
        <ele>468</ele>
        <time>2015-05-17T08:13:33.000Z</time>
      </trkpt>
      <trkpt lat="47.43295" lon="6.72067">
        <ele>468</ele>
        <time>2015-05-17T08:13:34.000Z</time>
      </trkpt>
      <trkpt lat="47.4329" lon="6.72062">
        <ele>468</ele>
        <time>2015-05-17T08:13:35.000Z</time>
      </trkpt>
      <trkpt lat="47.43287" lon="6.72057">
        <ele>468</ele>
        <time>2015-05-17T08:13:36.000Z</time>
      </trkpt>
      <trkpt lat="47.43284" lon="6.72052">
        <ele>468</ele>
        <time>2015-05-17T08:13:37.000Z</time>
      </trkpt>
      <trkpt lat="47.43281" lon="6.72047">
        <ele>468</ele>
        <time>2015-05-17T08:13:38.000Z</time>
      </trkpt>
      <trkpt lat="47.43278" lon="6.72041">
        <ele>468</ele>
        <time>2015-05-17T08:13:39.000Z</time>
      </trkpt>
      <trkpt lat="47.43275" lon="6.72036">
        <ele>468</ele>
        <time>2015-05-17T08:13:40.000Z</time>
      </trkpt>
      <trkpt lat="47.43272" lon="6.7203">
        <ele>468</ele>
        <time>2015-05-17T08:13:41.000Z</time>
      </trkpt>
      <trkpt lat="47.43268" lon="6.72025">
        <ele>469</ele>
        <time>2015-05-17T08:13:42.000Z</time>
      </trkpt>
      <trkpt lat="47.43265" lon="6.72021">
        <ele>469</ele>
        <time>2015-05-17T08:13:43.000Z</time>
      </trkpt>
      <trkpt lat="47.43263" lon="6.72016">
        <ele>469</ele>
        <time>2015-05-17T08:13:44.000Z</time>
      </trkpt>
      <trkpt lat="47.4326" lon="6.72011">
        <ele>469</ele>
        <time>2015-05-17T08:13:45.000Z</time>
      </trkpt>
      <trkpt lat="47.43257" lon="6.72006">
        <ele>469</ele>
        <time>2015-05-17T08:13:46.000Z</time>
      </trkpt>
      <trkpt lat="47.43254" lon="6.72001">
        <ele>470</ele>
        <time>2015-05-17T08:13:47.000Z</time>
      </trkpt>
      <trkpt lat="47.4325" lon="6.71996">
        <ele>469</ele>
        <time>2015-05-17T08:13:48.000Z</time>
      </trkpt>
      <trkpt lat="47.43248" lon="6.71992">
        <ele>471</ele>
        <time>2015-05-17T08:13:49.000Z</time>
      </trkpt>
      <trkpt lat="47.43245" lon="6.71986">
        <ele>471</ele>
        <time>2015-05-17T08:13:50.000Z</time>
      </trkpt>
      <trkpt lat="47.43243" lon="6.71981">
        <ele>471</ele>
        <time>2015-05-17T08:13:51.000Z</time>
      </trkpt>
      <trkpt lat="47.43239" lon="6.71976">
        <ele>471</ele>
        <time>2015-05-17T08:13:52.000Z</time>
      </trkpt>
      <trkpt lat="47.43235" lon="6.71972">
        <ele>471</ele>
        <time>2015-05-17T08:13:53.000Z</time>
      </trkpt>
      <trkpt lat="47.43234" lon="6.71967">
        <ele>471</ele>
        <time>2015-05-17T08:13:54.000Z</time>
      </trkpt>
      <trkpt lat="47.43231" lon="6.71961">
        <ele>471</ele>
        <time>2015-05-17T08:13:55.000Z</time>
      </trkpt>
      <trkpt lat="47.43228" lon="6.71957">
        <ele>471</ele>
        <time>2015-05-17T08:13:56.000Z</time>
      </trkpt>
      <trkpt lat="47.43224" lon="6.71953">
        <ele>471</ele>
        <time>2015-05-17T08:13:57.000Z</time>
      </trkpt>
      <trkpt lat="47.43221" lon="6.71948">
        <ele>471</ele>
        <time>2015-05-17T08:13:58.000Z</time>
      </trkpt>
      <trkpt lat="47.43219" lon="6.71943">
        <ele>471</ele>
        <time>2015-05-17T08:13:59.000Z</time>
      </trkpt>
      <trkpt lat="47.43215" lon="6.71938">
        <ele>471</ele>
        <time>2015-05-17T08:14:00.000Z</time>
      </trkpt>
      <trkpt lat="47.43213" lon="6.71934">
        <ele>471</ele>
        <time>2015-05-17T08:14:01.001Z</time>
      </trkpt>
      <trkpt lat="47.43209" lon="6.71929">
        <ele>472</ele>
        <time>2015-05-17T08:14:02.000Z</time>
      </trkpt>
      <trkpt lat="47.43206" lon="6.71925">
        <ele>472</ele>
        <time>2015-05-17T08:14:03.000Z</time>
      </trkpt>
      <trkpt lat="47.43204" lon="6.71921">
        <ele>472</ele>
        <time>2015-05-17T08:14:04.000Z</time>
      </trkpt>
      <trkpt lat="47.43201" lon="6.71917">
        <ele>472</ele>
        <time>2015-05-17T08:14:05.000Z</time>
      </trkpt>
      <trkpt lat="47.43198" lon="6.71913">
        <ele>470</ele>
        <time>2015-05-17T08:14:06.000Z</time>
      </trkpt>
      <trkpt lat="47.43195" lon="6.71909">
        <ele>471</ele>
        <time>2015-05-17T08:14:07.000Z</time>
      </trkpt>
      <trkpt lat="47.43192" lon="6.71905">
        <ele>471</ele>
        <time>2015-05-17T08:14:08.000Z</time>
      </trkpt>
      <trkpt lat="47.43189" lon="6.71902">
        <ele>471</ele>
        <time>2015-05-17T08:14:09.000Z</time>
      </trkpt>
      <trkpt lat="47.43186" lon="6.71899">
        <ele>471</ele>
        <time>2015-05-17T08:14:10.000Z</time>
      </trkpt>
      <trkpt lat="47.43183" lon="6.71898">
        <ele>471</ele>
        <time>2015-05-17T08:14:11.000Z</time>
      </trkpt>
      <trkpt lat="47.43181" lon="6.71898">
        <ele>471</ele>
        <time>2015-05-17T08:14:12.000Z</time>
      </trkpt>
      <trkpt lat="47.43176" lon="6.71899">
        <ele>472</ele>
        <time>2015-05-17T08:14:14.000Z</time>
      </trkpt>
      <trkpt lat="47.43174" lon="6.719">
        <ele>472</ele>
        <time>2015-05-17T08:14:15.000Z</time>
      </trkpt>
      <trkpt lat="47.43172" lon="6.71902">
        <ele>472</ele>
        <time>2015-05-17T08:14:16.000Z</time>
      </trkpt>
      <trkpt lat="47.43171" lon="6.71905">
        <ele>473</ele>
        <time>2015-05-17T08:14:17.000Z</time>
      </trkpt>
      <trkpt lat="47.43169" lon="6.71908">
        <ele>473</ele>
        <time>2015-05-17T08:14:18.000Z</time>
      </trkpt>
      <trkpt lat="47.43168" lon="6.71912">
        <ele>474</ele>
        <time>2015-05-17T08:14:19.000Z</time>
      </trkpt>
      <trkpt lat="47.43167" lon="6.71915">
        <ele>475</ele>
        <time>2015-05-17T08:14:20.000Z</time>
      </trkpt>
      <trkpt lat="47.43166" lon="6.71918">
        <ele>475</ele>
        <time>2015-05-17T08:14:21.000Z</time>
      </trkpt>
      <trkpt lat="47.43163" lon="6.71924">
        <ele>477</ele>
        <time>2015-05-17T08:14:23.000Z</time>
      </trkpt>
      <trkpt lat="47.43162" lon="6.71926">
        <ele>477</ele>
        <time>2015-05-17T08:14:24.000Z</time>
      </trkpt>
      <trkpt lat="47.4316" lon="6.71929">
        <ele>478</ele>
        <time>2015-05-17T08:14:26.000Z</time>
      </trkpt>
      <trkpt lat="47.43159" lon="6.7193">
        <ele>478</ele>
        <time>2015-05-17T08:14:27.000Z</time>
      </trkpt>
      <trkpt lat="47.43156" lon="6.71932">
        <ele>478</ele>
        <time>2015-05-17T08:14:28.999Z</time>
      </trkpt>
      <trkpt lat="47.43154" lon="6.71934">
        <ele>478</ele>
        <time>2015-05-17T08:14:30.000Z</time>
      </trkpt>
      <trkpt lat="47.4315" lon="6.71936">
        <ele>479</ele>
        <time>2015-05-17T08:14:32.000Z</time>
      </trkpt>
      <trkpt lat="47.43148" lon="6.71937">
        <ele>479</ele>
        <time>2015-05-17T08:14:33.000Z</time>
      </trkpt>
      <trkpt lat="47.43145" lon="6.71937">
        <ele>479</ele>
        <time>2015-05-17T08:14:35.001Z</time>
      </trkpt>
      <trkpt lat="47.43144" lon="6.71938">
        <ele>479</ele>
        <time>2015-05-17T08:14:36.000Z</time>
      </trkpt>
      <trkpt lat="47.43141" lon="6.7194">
        <ele>480</ele>
        <time>2015-05-17T08:14:38.000Z</time>
      </trkpt>
      <trkpt lat="47.43139" lon="6.71942">
        <ele>480</ele>
        <time>2015-05-17T08:14:39.000Z</time>
      </trkpt>
      <trkpt lat="47.43136" lon="6.71943">
        <ele>480</ele>
        <time>2015-05-17T08:14:41.000Z</time>
      </trkpt>
      <trkpt lat="47.43134" lon="6.71944">
        <ele>480</ele>
        <time>2015-05-17T08:14:42.000Z</time>
      </trkpt>
      <trkpt lat="47.43131" lon="6.71946">
        <ele>481</ele>
        <time>2015-05-17T08:14:44.000Z</time>
      </trkpt>
      <trkpt lat="47.4313" lon="6.71948">
        <ele>481</ele>
        <time>2015-05-17T08:14:45.000Z</time>
      </trkpt>
      <trkpt lat="47.43128" lon="6.71953">
        <ele>481</ele>
        <time>2015-05-17T08:14:47.000Z</time>
      </trkpt>
      <trkpt lat="47.43127" lon="6.71955">
        <ele>481</ele>
        <time>2015-05-17T08:14:48.000Z</time>
      </trkpt>
      <trkpt lat="47.43124" lon="6.71957">
        <ele>481</ele>
        <time>2015-05-17T08:14:50.000Z</time>
      </trkpt>
      <trkpt lat="47.43122" lon="6.71959">
        <ele>481</ele>
        <time>2015-05-17T08:14:51.000Z</time>
      </trkpt>
      <trkpt lat="47.43118" lon="6.71961">
        <ele>481</ele>
        <time>2015-05-17T08:14:53.000Z</time>
      </trkpt>
      <trkpt lat="47.43117" lon="6.71962">
        <ele>481</ele>
        <time>2015-05-17T08:14:54.000Z</time>
      </trkpt>
      <trkpt lat="47.43113" lon="6.71964">
        <ele>482</ele>
        <time>2015-05-17T08:14:56.000Z</time>
      </trkpt>
      <trkpt lat="47.43112" lon="6.71965">
        <ele>482</ele>
        <time>2015-05-17T08:14:56.999Z</time>
      </trkpt>
      <trkpt lat="47.43109" lon="6.71968">
        <ele>482</ele>
        <time>2015-05-17T08:14:59.000Z</time>
      </trkpt>
      <trkpt lat="47.43107" lon="6.71969">
        <ele>482</ele>
        <time>2015-05-17T08:15:00.000Z</time>
      </trkpt>
      <trkpt lat="47.43105" lon="6.71973">
        <ele>482</ele>
        <time>2015-05-17T08:15:02.000Z</time>
      </trkpt>
      <trkpt lat="47.43104" lon="6.71974">
        <ele>482</ele>
        <time>2015-05-17T08:15:03.000Z</time>
      </trkpt>
      <trkpt lat="47.431" lon="6.71977">
        <ele>483</ele>
        <time>2015-05-17T08:15:05.000Z</time>
      </trkpt>
      <trkpt lat="47.43098" lon="6.71978">
        <ele>483</ele>
        <time>2015-05-17T08:15:06.000Z</time>
      </trkpt>
      <trkpt lat="47.43094" lon="6.71981">
        <ele>483</ele>
        <time>2015-05-17T08:15:08.000Z</time>
      </trkpt>
      <trkpt lat="47.43092" lon="6.71982">
        <ele>483</ele>
        <time>2015-05-17T08:15:09.000Z</time>
      </trkpt>
      <trkpt lat="47.43088" lon="6.71985">
        <ele>484</ele>
        <time>2015-05-17T08:15:11.000Z</time>
      </trkpt>
      <trkpt lat="47.43086" lon="6.71987">
        <ele>484</ele>
        <time>2015-05-17T08:15:12.000Z</time>
      </trkpt>
      <trkpt lat="47.43084" lon="6.71988">
        <ele>484</ele>
        <time>2015-05-17T08:15:12.999Z</time>
      </trkpt>
      <trkpt lat="47.43082" lon="6.7199">
        <ele>487</ele>
        <time>2015-05-17T08:15:14.000Z</time>
      </trkpt>
      <trkpt lat="47.43077" lon="6.71992">
        <ele>487</ele>
        <time>2015-05-17T08:15:16.000Z</time>
      </trkpt>
      <trkpt lat="47.43076" lon="6.71993">
        <ele>487</ele>
        <time>2015-05-17T08:15:17.000Z</time>
      </trkpt>
      <trkpt lat="47.43072" lon="6.71996">
        <ele>487</ele>
        <time>2015-05-17T08:15:19.000Z</time>
      </trkpt>
      <trkpt lat="47.43071" lon="6.71997">
        <ele>488</ele>
        <time>2015-05-17T08:15:20.000Z</time>
      </trkpt>
      <trkpt lat="47.43067" lon="6.72">
        <ele>488</ele>
        <time>2015-05-17T08:15:22.000Z</time>
      </trkpt>
      <trkpt lat="47.43065" lon="6.72001">
        <ele>489</ele>
        <time>2015-05-17T08:15:23.000Z</time>
      </trkpt>
      <trkpt lat="47.43063" lon="6.72002">
        <ele>490</ele>
        <time>2015-05-17T08:15:23.999Z</time>
      </trkpt>
      <trkpt lat="47.43061" lon="6.72004">
        <ele>490</ele>
        <time>2015-05-17T08:15:25.000Z</time>
      </trkpt>
      <trkpt lat="47.43058" lon="6.72008">
        <ele>490</ele>
        <time>2015-05-17T08:15:27.000Z</time>
      </trkpt>
      <trkpt lat="47.43056" lon="6.7201">
        <ele>491</ele>
        <time>2015-05-17T08:15:28.000Z</time>
      </trkpt>
      <trkpt lat="47.43054" lon="6.72011">
        <ele>491</ele>
        <time>2015-05-17T08:15:29.000Z</time>
      </trkpt>
      <trkpt lat="47.43052" lon="6.72013">
        <ele>491</ele>
        <time>2015-05-17T08:15:30.000Z</time>
      </trkpt>
      <trkpt lat="47.4305" lon="6.72015">
        <ele>491</ele>
        <time>2015-05-17T08:15:31.000Z</time>
      </trkpt>
      <trkpt lat="47.43048" lon="6.72017">
        <ele>491</ele>
        <time>2015-05-17T08:15:32.000Z</time>
      </trkpt>
      <trkpt lat="47.43044" lon="6.7202">
        <ele>492</ele>
        <time>2015-05-17T08:15:34.000Z</time>
      </trkpt>
      <trkpt lat="47.43042" lon="6.72022">
        <ele>492</ele>
        <time>2015-05-17T08:15:35.000Z</time>
      </trkpt>
      <trkpt lat="47.43039" lon="6.72026">
        <ele>492</ele>
        <time>2015-05-17T08:15:37.000Z</time>
      </trkpt>
      <trkpt lat="47.43036" lon="6.72028">
        <ele>492</ele>
        <time>2015-05-17T08:15:38.000Z</time>
      </trkpt>
      <trkpt lat="47.43034" lon="6.72029">
        <ele>492</ele>
        <time>2015-05-17T08:15:39.000Z</time>
      </trkpt>
      <trkpt lat="47.43032" lon="6.72031">
        <ele>493</ele>
        <time>2015-05-17T08:15:40.000Z</time>
      </trkpt>
      <trkpt lat="47.43029" lon="6.72033">
        <ele>493</ele>
        <time>2015-05-17T08:15:42.000Z</time>
      </trkpt>
      <trkpt lat="47.43027" lon="6.72035">
        <ele>493</ele>
        <time>2015-05-17T08:15:43.000Z</time>
      </trkpt>
      <trkpt lat="47.43023" lon="6.72038">
        <ele>493</ele>
        <time>2015-05-17T08:15:45.000Z</time>
      </trkpt>
      <trkpt lat="47.43021" lon="6.72039">
        <ele>493</ele>
        <time>2015-05-17T08:15:46.000Z</time>
      </trkpt>
      <trkpt lat="47.43017" lon="6.72041">
        <ele>493</ele>
        <time>2015-05-17T08:15:48.000Z</time>
      </trkpt>
      <trkpt lat="47.43015" lon="6.72041">
        <ele>493</ele>
        <time>2015-05-17T08:15:49.000Z</time>
      </trkpt>
      <trkpt lat="47.43011" lon="6.72043">
        <ele>494</ele>
        <time>2015-05-17T08:15:51.000Z</time>
      </trkpt>
      <trkpt lat="47.4301" lon="6.72044">
        <ele>494</ele>
        <time>2015-05-17T08:15:52.000Z</time>
      </trkpt>
      <trkpt lat="47.43006" lon="6.72048">
        <ele>494</ele>
        <time>2015-05-17T08:15:54.000Z</time>
      </trkpt>
      <trkpt lat="47.43004" lon="6.7205">
        <ele>494</ele>
        <time>2015-05-17T08:15:55.000Z</time>
      </trkpt>
      <trkpt lat="47.43" lon="6.72049">
        <ele>498</ele>
        <time>2015-05-17T08:15:58.000Z</time>
      </trkpt>
      <trkpt lat="47.42999" lon="6.72046">
        <ele>498</ele>
        <time>2015-05-17T08:15:59.000Z</time>
      </trkpt>
      <trkpt lat="47.42998" lon="6.72041">
        <ele>498</ele>
        <time>2015-05-17T08:16:00.000Z</time>
      </trkpt>
      <trkpt lat="47.42996" lon="6.72036">
        <ele>498</ele>
        <time>2015-05-17T08:16:01.000Z</time>
      </trkpt>
      <trkpt lat="47.42994" lon="6.72031">
        <ele>498</ele>
        <time>2015-05-17T08:16:02.000Z</time>
      </trkpt>
      <trkpt lat="47.42992" lon="6.72026">
        <ele>498</ele>
        <time>2015-05-17T08:16:03.000Z</time>
      </trkpt>
      <trkpt lat="47.4299" lon="6.72021">
        <ele>497</ele>
        <time>2015-05-17T08:16:04.000Z</time>
      </trkpt>
      <trkpt lat="47.42987" lon="6.72016">
        <ele>497</ele>
        <time>2015-05-17T08:16:05.000Z</time>
      </trkpt>
      <trkpt lat="47.42985" lon="6.72011">
        <ele>497</ele>
        <time>2015-05-17T08:16:06.000Z</time>
      </trkpt>
      <trkpt lat="47.42982" lon="6.72006">
        <ele>497</ele>
        <time>2015-05-17T08:16:07.000Z</time>
      </trkpt>
      <trkpt lat="47.4298" lon="6.72001">
        <ele>497</ele>
        <time>2015-05-17T08:16:08.000Z</time>
      </trkpt>
      <trkpt lat="47.42977" lon="6.71995">
        <ele>496</ele>
        <time>2015-05-17T08:16:09.000Z</time>
      </trkpt>
      <trkpt lat="47.42975" lon="6.7199">
        <ele>496</ele>
        <time>2015-05-17T08:16:10.000Z</time>
      </trkpt>
      <trkpt lat="47.42972" lon="6.71985">
        <ele>496</ele>
        <time>2015-05-17T08:16:11.000Z</time>
      </trkpt>
      <trkpt lat="47.42969" lon="6.71979">
        <ele>496</ele>
        <time>2015-05-17T08:16:12.000Z</time>
      </trkpt>
      <trkpt lat="47.42965" lon="6.71972">
        <ele>496</ele>
        <time>2015-05-17T08:16:13.000Z</time>
      </trkpt>
      <trkpt lat="47.42962" lon="6.71967">
        <ele>496</ele>
        <time>2015-05-17T08:16:14.000Z</time>
      </trkpt>
      <trkpt lat="47.4296" lon="6.71961">
        <ele>496</ele>
        <time>2015-05-17T08:16:15.000Z</time>
      </trkpt>
      <trkpt lat="47.42958" lon="6.71956">
        <ele>496</ele>
        <time>2015-05-17T08:16:16.000Z</time>
      </trkpt>
      <trkpt lat="47.42955" lon="6.7195">
        <ele>497</ele>
        <time>2015-05-17T08:16:16.999Z</time>
      </trkpt>
      <trkpt lat="47.42952" lon="6.71944">
        <ele>497</ele>
        <time>2015-05-17T08:16:18.000Z</time>
      </trkpt>
      <trkpt lat="47.42951" lon="6.71939">
        <ele>497</ele>
        <time>2015-05-17T08:16:19.000Z</time>
      </trkpt>
      <trkpt lat="47.42946" lon="6.71934">
        <ele>497</ele>
        <time>2015-05-17T08:16:20.000Z</time>
      </trkpt>
      <trkpt lat="47.42941" lon="6.71928">
        <ele>497</ele>
        <time>2015-05-17T08:16:21.000Z</time>
      </trkpt>
      <trkpt lat="47.42936" lon="6.71921">
        <ele>497</ele>
        <time>2015-05-17T08:16:22.000Z</time>
      </trkpt>
      <trkpt lat="47.42933" lon="6.71917">
        <ele>498</ele>
        <time>2015-05-17T08:16:23.000Z</time>
      </trkpt>
      <trkpt lat="47.4293" lon="6.71911">
        <ele>497</ele>
        <time>2015-05-17T08:16:24.000Z</time>
      </trkpt>
      <trkpt lat="47.42923" lon="6.71905">
        <ele>497</ele>
        <time>2015-05-17T08:16:25.000Z</time>
      </trkpt>
      <trkpt lat="47.42921" lon="6.71899">
        <ele>496</ele>
        <time>2015-05-17T08:16:26.000Z</time>
      </trkpt>
      <trkpt lat="47.42919" lon="6.71892">
        <ele>496</ele>
        <time>2015-05-17T08:16:27.000Z</time>
      </trkpt>
      <trkpt lat="47.42916" lon="6.71885">
        <ele>498</ele>
        <time>2015-05-17T08:16:28.000Z</time>
      </trkpt>
      <trkpt lat="47.42914" lon="6.71878">
        <ele>498</ele>
        <time>2015-05-17T08:16:29.000Z</time>
      </trkpt>
      <trkpt lat="47.42912" lon="6.71872">
        <ele>498</ele>
        <time>2015-05-17T08:16:30.000Z</time>
      </trkpt>
      <trkpt lat="47.4291" lon="6.71864">
        <ele>498</ele>
        <time>2015-05-17T08:16:31.000Z</time>
      </trkpt>
      <trkpt lat="47.42908" lon="6.71856">
        <ele>497</ele>
        <time>2015-05-17T08:16:32.000Z</time>
      </trkpt>
      <trkpt lat="47.42906" lon="6.71848">
        <ele>497</ele>
        <time>2015-05-17T08:16:33.000Z</time>
      </trkpt>
      <trkpt lat="47.42904" lon="6.7184">
        <ele>496</ele>
        <time>2015-05-17T08:16:34.000Z</time>
      </trkpt>
      <trkpt lat="47.42903" lon="6.7183">
        <ele>494</ele>
        <time>2015-05-17T08:16:35.000Z</time>
      </trkpt>
      <trkpt lat="47.42901" lon="6.71821">
        <ele>494</ele>
        <time>2015-05-17T08:16:36.000Z</time>
      </trkpt>
      <trkpt lat="47.42899" lon="6.71813">
        <ele>494</ele>
        <time>2015-05-17T08:16:37.000Z</time>
      </trkpt>
      <trkpt lat="47.42897" lon="6.71805">
        <ele>494</ele>
        <time>2015-05-17T08:16:38.000Z</time>
      </trkpt>
      <trkpt lat="47.42897" lon="6.71796">
        <ele>493</ele>
        <time>2015-05-17T08:16:39.000Z</time>
      </trkpt>
      <trkpt lat="47.42894" lon="6.71788">
        <ele>493</ele>
        <time>2015-05-17T08:16:40.000Z</time>
      </trkpt>
      <trkpt lat="47.42891" lon="6.7178">
        <ele>493</ele>
        <time>2015-05-17T08:16:41.000Z</time>
      </trkpt>
      <trkpt lat="47.42888" lon="6.71772">
        <ele>493</ele>
        <time>2015-05-17T08:16:42.000Z</time>
      </trkpt>
      <trkpt lat="47.42885" lon="6.71764">
        <ele>493</ele>
        <time>2015-05-17T08:16:43.000Z</time>
      </trkpt>
      <trkpt lat="47.42882" lon="6.71757">
        <ele>493</ele>
        <time>2015-05-17T08:16:44.000Z</time>
      </trkpt>
      <trkpt lat="47.42878" lon="6.7175">
        <ele>489</ele>
        <time>2015-05-17T08:16:45.000Z</time>
      </trkpt>
      <trkpt lat="47.42874" lon="6.71742">
        <ele>489</ele>
        <time>2015-05-17T08:16:46.000Z</time>
      </trkpt>
      <trkpt lat="47.42873" lon="6.71734">
        <ele>489</ele>
        <time>2015-05-17T08:16:47.000Z</time>
      </trkpt>
      <trkpt lat="47.42871" lon="6.71727">
        <ele>489</ele>
        <time>2015-05-17T08:16:48.000Z</time>
      </trkpt>
      <trkpt lat="47.42869" lon="6.71719">
        <ele>489</ele>
        <time>2015-05-17T08:16:49.000Z</time>
      </trkpt>
      <trkpt lat="47.42866" lon="6.71711">
        <ele>489</ele>
        <time>2015-05-17T08:16:50.000Z</time>
      </trkpt>
      <trkpt lat="47.42863" lon="6.71703">
        <ele>489</ele>
        <time>2015-05-17T08:16:51.000Z</time>
      </trkpt>
      <trkpt lat="47.4286" lon="6.71694">
        <ele>489</ele>
        <time>2015-05-17T08:16:52.000Z</time>
      </trkpt>
      <trkpt lat="47.42858" lon="6.71686">
        <ele>489</ele>
        <time>2015-05-17T08:16:53.000Z</time>
      </trkpt>
      <trkpt lat="47.42854" lon="6.7168">
        <ele>489</ele>
        <time>2015-05-17T08:16:54.000Z</time>
      </trkpt>
      <trkpt lat="47.42852" lon="6.71674">
        <ele>489</ele>
        <time>2015-05-17T08:16:55.000Z</time>
      </trkpt>
      <trkpt lat="47.42848" lon="6.71668">
        <ele>489</ele>
        <time>2015-05-17T08:16:56.000Z</time>
      </trkpt>
      <trkpt lat="47.42844" lon="6.71661">
        <ele>487</ele>
        <time>2015-05-17T08:16:57.000Z</time>
      </trkpt>
      <trkpt lat="47.4284" lon="6.71656">
        <ele>487</ele>
        <time>2015-05-17T08:16:58.000Z</time>
      </trkpt>
      <trkpt lat="47.42835" lon="6.71649">
        <ele>486</ele>
        <time>2015-05-17T08:16:59.000Z</time>
      </trkpt>
      <trkpt lat="47.42831" lon="6.71644">
        <ele>488</ele>
        <time>2015-05-17T08:17:00.000Z</time>
      </trkpt>
      <trkpt lat="47.42827" lon="6.71638">
        <ele>488</ele>
        <time>2015-05-17T08:17:01.000Z</time>
      </trkpt>
      <trkpt lat="47.42823" lon="6.71632">
        <ele>488</ele>
        <time>2015-05-17T08:17:02.000Z</time>
      </trkpt>
      <trkpt lat="47.42818" lon="6.71625">
        <ele>488</ele>
        <time>2015-05-17T08:17:03.000Z</time>
      </trkpt>
      <trkpt lat="47.42814" lon="6.71619">
        <ele>488</ele>
        <time>2015-05-17T08:17:04.000Z</time>
      </trkpt>
      <trkpt lat="47.42809" lon="6.71613">
        <ele>488</ele>
        <time>2015-05-17T08:17:05.000Z</time>
      </trkpt>
      <trkpt lat="47.42805" lon="6.71608">
        <ele>487</ele>
        <time>2015-05-17T08:17:06.000Z</time>
      </trkpt>
      <trkpt lat="47.428" lon="6.71602">
        <ele>487</ele>
        <time>2015-05-17T08:17:07.000Z</time>
      </trkpt>
      <trkpt lat="47.42796" lon="6.71596">
        <ele>488</ele>
        <time>2015-05-17T08:17:08.000Z</time>
      </trkpt>
      <trkpt lat="47.42793" lon="6.7159">
        <ele>488</ele>
        <time>2015-05-17T08:17:09.000Z</time>
      </trkpt>
      <trkpt lat="47.42789" lon="6.71585">
        <ele>488</ele>
        <time>2015-05-17T08:17:10.000Z</time>
      </trkpt>
      <trkpt lat="47.42784" lon="6.71581">
        <ele>485</ele>
        <time>2015-05-17T08:17:11.000Z</time>
      </trkpt>
      <trkpt lat="47.42781" lon="6.71577">
        <ele>485</ele>
        <time>2015-05-17T08:17:12.000Z</time>
      </trkpt>
      <trkpt lat="47.42777" lon="6.71572">
        <ele>485</ele>
        <time>2015-05-17T08:17:13.000Z</time>
      </trkpt>
      <trkpt lat="47.42772" lon="6.71567">
        <ele>485</ele>
        <time>2015-05-17T08:17:14.000Z</time>
      </trkpt>
      <trkpt lat="47.42768" lon="6.71563">
        <ele>485</ele>
        <time>2015-05-17T08:17:15.000Z</time>
      </trkpt>
      <trkpt lat="47.42764" lon="6.71558">
        <ele>485</ele>
        <time>2015-05-17T08:17:16.000Z</time>
      </trkpt>
      <trkpt lat="47.42761" lon="6.71552">
        <ele>485</ele>
        <time>2015-05-17T08:17:17.000Z</time>
      </trkpt>
      <trkpt lat="47.42758" lon="6.71545">
        <ele>485</ele>
        <time>2015-05-17T08:17:18.000Z</time>
      </trkpt>
      <trkpt lat="47.42755" lon="6.71538">
        <ele>484</ele>
        <time>2015-05-17T08:17:19.000Z</time>
      </trkpt>
      <trkpt lat="47.42753" lon="6.7153">
        <ele>484</ele>
        <time>2015-05-17T08:17:20.000Z</time>
      </trkpt>
      <trkpt lat="47.4275" lon="6.71522">
        <ele>486</ele>
        <time>2015-05-17T08:17:21.000Z</time>
      </trkpt>
      <trkpt lat="47.42745" lon="6.71514">
        <ele>485</ele>
        <time>2015-05-17T08:17:22.000Z</time>
      </trkpt>
      <trkpt lat="47.42741" lon="6.71506">
        <ele>485</ele>
        <time>2015-05-17T08:17:23.000Z</time>
      </trkpt>
      <trkpt lat="47.42738" lon="6.71497">
        <ele>483</ele>
        <time>2015-05-17T08:17:24.000Z</time>
      </trkpt>
      <trkpt lat="47.42734" lon="6.71488">
        <ele>483</ele>
        <time>2015-05-17T08:17:25.000Z</time>
      </trkpt>
      <trkpt lat="47.42731" lon="6.7148">
        <ele>483</ele>
        <time>2015-05-17T08:17:26.000Z</time>
      </trkpt>
      <trkpt lat="47.42728" lon="6.71472">
        <ele>483</ele>
        <time>2015-05-17T08:17:27.000Z</time>
      </trkpt>
      <trkpt lat="47.42724" lon="6.71464">
        <ele>483</ele>
        <time>2015-05-17T08:17:28.000Z</time>
      </trkpt>
      <trkpt lat="47.42721" lon="6.71454">
        <ele>482</ele>
        <time>2015-05-17T08:17:29.000Z</time>
      </trkpt>
      <trkpt lat="47.42717" lon="6.71446">
        <ele>482</ele>
        <time>2015-05-17T08:17:30.000Z</time>
      </trkpt>
      <trkpt lat="47.42714" lon="6.71439">
        <ele>482</ele>
        <time>2015-05-17T08:17:31.000Z</time>
      </trkpt>
      <trkpt lat="47.42711" lon="6.71431">
        <ele>482</ele>
        <time>2015-05-17T08:17:32.000Z</time>
      </trkpt>
      <trkpt lat="47.42708" lon="6.71423">
        <ele>482</ele>
        <time>2015-05-17T08:17:33.000Z</time>
      </trkpt>
      <trkpt lat="47.42705" lon="6.71415">
        <ele>479</ele>
        <time>2015-05-17T08:17:34.000Z</time>
      </trkpt>
      <trkpt lat="47.42703" lon="6.71406">
        <ele>479</ele>
        <time>2015-05-17T08:17:35.000Z</time>
      </trkpt>
      <trkpt lat="47.427" lon="6.71399">
        <ele>479</ele>
        <time>2015-05-17T08:17:36.000Z</time>
      </trkpt>
      <trkpt lat="47.42697" lon="6.71391">
        <ele>479</ele>
        <time>2015-05-17T08:17:37.000Z</time>
      </trkpt>
      <trkpt lat="47.42694" lon="6.71382">
        <ele>479</ele>
        <time>2015-05-17T08:17:38.000Z</time>
      </trkpt>
      <trkpt lat="47.42691" lon="6.71374">
        <ele>479</ele>
        <time>2015-05-17T08:17:39.000Z</time>
      </trkpt>
      <trkpt lat="47.42688" lon="6.71365">
        <ele>479</ele>
        <time>2015-05-17T08:17:40.000Z</time>
      </trkpt>
      <trkpt lat="47.42685" lon="6.71356">
        <ele>479</ele>
        <time>2015-05-17T08:17:41.000Z</time>
      </trkpt>
      <trkpt lat="47.42682" lon="6.71348">
        <ele>479</ele>
        <time>2015-05-17T08:17:42.000Z</time>
      </trkpt>
      <trkpt lat="47.42678" lon="6.71339">
        <ele>479</ele>
        <time>2015-05-17T08:17:43.000Z</time>
      </trkpt>
      <trkpt lat="47.42675" lon="6.7133">
        <ele>477</ele>
        <time>2015-05-17T08:17:44.000Z</time>
      </trkpt>
      <trkpt lat="47.42673" lon="6.71321">
        <ele>477</ele>
        <time>2015-05-17T08:17:45.000Z</time>
      </trkpt>
      <trkpt lat="47.4267" lon="6.71311">
        <ele>476</ele>
        <time>2015-05-17T08:17:46.000Z</time>
      </trkpt>
      <trkpt lat="47.42668" lon="6.71302">
        <ele>475</ele>
        <time>2015-05-17T08:17:47.000Z</time>
      </trkpt>
      <trkpt lat="47.42666" lon="6.71293">
        <ele>477</ele>
        <time>2015-05-17T08:17:48.000Z</time>
      </trkpt>
      <trkpt lat="47.42662" lon="6.71284">
        <ele>477</ele>
        <time>2015-05-17T08:17:49.000Z</time>
      </trkpt>
      <trkpt lat="47.42659" lon="6.71276">
        <ele>477</ele>
        <time>2015-05-17T08:17:50.000Z</time>
      </trkpt>
      <trkpt lat="47.42656" lon="6.7127">
        <ele>476</ele>
        <time>2015-05-17T08:17:51.000Z</time>
      </trkpt>
      <trkpt lat="47.42653" lon="6.71265">
        <ele>476</ele>
        <time>2015-05-17T08:17:52.000Z</time>
      </trkpt>
      <trkpt lat="47.42648" lon="6.71263">
        <ele>476</ele>
        <time>2015-05-17T08:17:53.000Z</time>
      </trkpt>
      <trkpt lat="47.42642" lon="6.71263">
        <ele>477</ele>
        <time>2015-05-17T08:17:54.000Z</time>
      </trkpt>
      <trkpt lat="47.42639" lon="6.71264">
        <ele>477</ele>
        <time>2015-05-17T08:17:55.000Z</time>
      </trkpt>
      <trkpt lat="47.42636" lon="6.71267">
        <ele>477</ele>
        <time>2015-05-17T08:17:56.000Z</time>
      </trkpt>
      <trkpt lat="47.42633" lon="6.71269">
        <ele>477</ele>
        <time>2015-05-17T08:17:57.000Z</time>
      </trkpt>
      <trkpt lat="47.42629" lon="6.71272">
        <ele>477</ele>
        <time>2015-05-17T08:17:58.000Z</time>
      </trkpt>
      <trkpt lat="47.42629" lon="6.71274">
        <ele>478</ele>
        <time>2015-05-17T08:17:59.000Z</time>
      </trkpt>
      <trkpt lat="47.42626" lon="6.71278">
        <ele>478</ele>
        <time>2015-05-17T08:18:00.000Z</time>
      </trkpt>
      <trkpt lat="47.42623" lon="6.71281">
        <ele>478</ele>
        <time>2015-05-17T08:18:01.000Z</time>
      </trkpt>
      <trkpt lat="47.42621" lon="6.71285">
        <ele>478</ele>
        <time>2015-05-17T08:18:02.000Z</time>
      </trkpt>
      <trkpt lat="47.42618" lon="6.71288">
        <ele>478</ele>
        <time>2015-05-17T08:18:03.000Z</time>
      </trkpt>
      <trkpt lat="47.42616" lon="6.71291">
        <ele>478</ele>
        <time>2015-05-17T08:18:04.000Z</time>
      </trkpt>
      <trkpt lat="47.42613" lon="6.71294">
        <ele>478</ele>
        <time>2015-05-17T08:18:05.000Z</time>
      </trkpt>
      <trkpt lat="47.4261" lon="6.71297">
        <ele>478</ele>
        <time>2015-05-17T08:18:06.000Z</time>
      </trkpt>
      <trkpt lat="47.42607" lon="6.713">
        <ele>479</ele>
        <time>2015-05-17T08:18:07.000Z</time>
      </trkpt>
      <trkpt lat="47.42603" lon="6.71302">
        <ele>479</ele>
        <time>2015-05-17T08:18:08.000Z</time>
      </trkpt>
      <trkpt lat="47.426" lon="6.71305">
        <ele>479</ele>
        <time>2015-05-17T08:18:09.000Z</time>
      </trkpt>
      <trkpt lat="47.42597" lon="6.71306">
        <ele>479</ele>
        <time>2015-05-17T08:18:10.000Z</time>
      </trkpt>
      <trkpt lat="47.42593" lon="6.71308">
        <ele>479</ele>
        <time>2015-05-17T08:18:11.000Z</time>
      </trkpt>
      <trkpt lat="47.4259" lon="6.71309">
        <ele>479</ele>
        <time>2015-05-17T08:18:12.000Z</time>
      </trkpt>
      <trkpt lat="47.42586" lon="6.71311">
        <ele>479</ele>
        <time>2015-05-17T08:18:13.000Z</time>
      </trkpt>
      <trkpt lat="47.42582" lon="6.71313">
        <ele>480</ele>
        <time>2015-05-17T08:18:14.000Z</time>
      </trkpt>
      <trkpt lat="47.42578" lon="6.71314">
        <ele>480</ele>
        <time>2015-05-17T08:18:15.000Z</time>
      </trkpt>
      <trkpt lat="47.42574" lon="6.71315">
        <ele>480</ele>
        <time>2015-05-17T08:18:16.000Z</time>
      </trkpt>
      <trkpt lat="47.4257" lon="6.71317">
        <ele>480</ele>
        <time>2015-05-17T08:18:17.000Z</time>
      </trkpt>
      <trkpt lat="47.42563" lon="6.71318">
        <ele>480</ele>
        <time>2015-05-17T08:18:18.000Z</time>
      </trkpt>
      <trkpt lat="47.42559" lon="6.71319">
        <ele>480</ele>
        <time>2015-05-17T08:18:19.000Z</time>
      </trkpt>
      <trkpt lat="47.42555" lon="6.7132">
        <ele>480</ele>
        <time>2015-05-17T08:18:20.000Z</time>
      </trkpt>
      <trkpt lat="47.42551" lon="6.71323">
        <ele>480</ele>
        <time>2015-05-17T08:18:21.000Z</time>
      </trkpt>
      <trkpt lat="47.42548" lon="6.71326">
        <ele>480</ele>
        <time>2015-05-17T08:18:21.999Z</time>
      </trkpt>
      <trkpt lat="47.42544" lon="6.71328">
        <ele>480</ele>
        <time>2015-05-17T08:18:23.000Z</time>
      </trkpt>
      <trkpt lat="47.4254" lon="6.7133">
        <ele>480</ele>
        <time>2015-05-17T08:18:24.000Z</time>
      </trkpt>
      <trkpt lat="47.42538" lon="6.71335">
        <ele>483</ele>
        <time>2015-05-17T08:18:25.000Z</time>
      </trkpt>
      <trkpt lat="47.42535" lon="6.71337">
        <ele>483</ele>
        <time>2015-05-17T08:18:25.999Z</time>
      </trkpt>
      <trkpt lat="47.4253" lon="6.7134">
        <ele>483</ele>
        <time>2015-05-17T08:18:27.000Z</time>
      </trkpt>
      <trkpt lat="47.42526" lon="6.71341">
        <ele>483</ele>
        <time>2015-05-17T08:18:28.000Z</time>
      </trkpt>
      <trkpt lat="47.42523" lon="6.71343">
        <ele>483</ele>
        <time>2015-05-17T08:18:29.000Z</time>
      </trkpt>
      <trkpt lat="47.42518" lon="6.71345">
        <ele>483</ele>
        <time>2015-05-17T08:18:30.000Z</time>
      </trkpt>
      <trkpt lat="47.42514" lon="6.71346">
        <ele>483</ele>
        <time>2015-05-17T08:18:31.000Z</time>
      </trkpt>
      <trkpt lat="47.4251" lon="6.71348">
        <ele>483</ele>
        <time>2015-05-17T08:18:32.000Z</time>
      </trkpt>
      <trkpt lat="47.42506" lon="6.71349">
        <ele>483</ele>
        <time>2015-05-17T08:18:32.999Z</time>
      </trkpt>
      <trkpt lat="47.42503" lon="6.7135">
        <ele>483</ele>
        <time>2015-05-17T08:18:34.001Z</time>
      </trkpt>
      <trkpt lat="47.42499" lon="6.71352">
        <ele>482</ele>
        <time>2015-05-17T08:18:35.000Z</time>
      </trkpt>
      <trkpt lat="47.42496" lon="6.71354">
        <ele>482</ele>
        <time>2015-05-17T08:18:36.000Z</time>
      </trkpt>
      <trkpt lat="47.42494" lon="6.71356">
        <ele>482</ele>
        <time>2015-05-17T08:18:37.000Z</time>
      </trkpt>
      <trkpt lat="47.42492" lon="6.71357">
        <ele>482</ele>
        <time>2015-05-17T08:18:38.000Z</time>
      </trkpt>
      <trkpt lat="47.42489" lon="6.71355">
        <ele>482</ele>
        <time>2015-05-17T08:18:40.000Z</time>
      </trkpt>
      <trkpt lat="47.42488" lon="6.71352">
        <ele>482</ele>
        <time>2015-05-17T08:18:41.000Z</time>
      </trkpt>
      <trkpt lat="47.42487" lon="6.71343">
        <ele>482</ele>
        <time>2015-05-17T08:18:42.000Z</time>
      </trkpt>
      <trkpt lat="47.42487" lon="6.71335">
        <ele>482</ele>
        <time>2015-05-17T08:18:43.000Z</time>
      </trkpt>
      <trkpt lat="47.42487" lon="6.71327">
        <ele>480</ele>
        <time>2015-05-17T08:18:44.000Z</time>
      </trkpt>
      <trkpt lat="47.42486" lon="6.71318">
        <ele>479</ele>
        <time>2015-05-17T08:18:45.000Z</time>
      </trkpt>
      <trkpt lat="47.42488" lon="6.7131">
        <ele>479</ele>
        <time>2015-05-17T08:18:46.000Z</time>
      </trkpt>
      <trkpt lat="47.42488" lon="6.71299">
        <ele>478</ele>
        <time>2015-05-17T08:18:47.000Z</time>
      </trkpt>
      <trkpt lat="47.42488" lon="6.71288">
        <ele>477</ele>
        <time>2015-05-17T08:18:48.000Z</time>
      </trkpt>
      <trkpt lat="47.42488" lon="6.71277">
        <ele>477</ele>
        <time>2015-05-17T08:18:49.000Z</time>
      </trkpt>
      <trkpt lat="47.42487" lon="6.71266">
        <ele>477</ele>
        <time>2015-05-17T08:18:50.000Z</time>
      </trkpt>
      <trkpt lat="47.42487" lon="6.71252">
        <ele>477</ele>
        <time>2015-05-17T08:18:51.000Z</time>
      </trkpt>
      <trkpt lat="47.42486" lon="6.7124">
        <ele>473</ele>
        <time>2015-05-17T08:18:52.000Z</time>
      </trkpt>
      <trkpt lat="47.42485" lon="6.71228">
        <ele>472</ele>
        <time>2015-05-17T08:18:53.000Z</time>
      </trkpt>
      <trkpt lat="47.42484" lon="6.71215">
        <ele>470</ele>
        <time>2015-05-17T08:18:54.000Z</time>
      </trkpt>
      <trkpt lat="47.42484" lon="6.71202">
        <ele>470</ele>
        <time>2015-05-17T08:18:55.000Z</time>
      </trkpt>
      <trkpt lat="47.42483" lon="6.71188">
        <ele>469</ele>
        <time>2015-05-17T08:18:56.000Z</time>
      </trkpt>
      <trkpt lat="47.42482" lon="6.71175">
        <ele>469</ele>
        <time>2015-05-17T08:18:57.000Z</time>
      </trkpt>
      <trkpt lat="47.42481" lon="6.71161">
        <ele>464</ele>
        <time>2015-05-17T08:18:58.000Z</time>
      </trkpt>
      <trkpt lat="47.42479" lon="6.71151">
        <ele>463</ele>
        <time>2015-05-17T08:18:59.000Z</time>
      </trkpt>
      <trkpt lat="47.42476" lon="6.71139">
        <ele>462</ele>
        <time>2015-05-17T08:19:00.000Z</time>
      </trkpt>
      <trkpt lat="47.42473" lon="6.71127">
        <ele>461</ele>
        <time>2015-05-17T08:19:01.000Z</time>
      </trkpt>
      <trkpt lat="47.42471" lon="6.71116">
        <ele>460</ele>
        <time>2015-05-17T08:19:02.000Z</time>
      </trkpt>
      <trkpt lat="47.42469" lon="6.71105">
        <ele>460</ele>
        <time>2015-05-17T08:19:03.000Z</time>
      </trkpt>
      <trkpt lat="47.42467" lon="6.71094">
        <ele>459</ele>
        <time>2015-05-17T08:19:04.000Z</time>
      </trkpt>
      <trkpt lat="47.42464" lon="6.7108">
        <ele>456</ele>
        <time>2015-05-17T08:19:05.000Z</time>
      </trkpt>
      <trkpt lat="47.42461" lon="6.71068">
        <ele>455</ele>
        <time>2015-05-17T08:19:06.000Z</time>
      </trkpt>
      <trkpt lat="47.42458" lon="6.71058">
        <ele>454</ele>
        <time>2015-05-17T08:19:07.000Z</time>
      </trkpt>
      <trkpt lat="47.42455" lon="6.71048">
        <ele>454</ele>
        <time>2015-05-17T08:19:08.000Z</time>
      </trkpt>
      <trkpt lat="47.42452" lon="6.71039">
        <ele>454</ele>
        <time>2015-05-17T08:19:09.000Z</time>
      </trkpt>
      <trkpt lat="47.42447" lon="6.71028">
        <ele>453</ele>
        <time>2015-05-17T08:19:10.000Z</time>
      </trkpt>
      <trkpt lat="47.42441" lon="6.7102">
        <ele>452</ele>
        <time>2015-05-17T08:19:11.000Z</time>
      </trkpt>
      <trkpt lat="47.42434" lon="6.71008">
        <ele>450</ele>
        <time>2015-05-17T08:19:12.000Z</time>
      </trkpt>
      <trkpt lat="47.42427" lon="6.70999">
        <ele>448</ele>
        <time>2015-05-17T08:19:13.000Z</time>
      </trkpt>
      <trkpt lat="47.42419" lon="6.7099">
        <ele>448</ele>
        <time>2015-05-17T08:19:14.000Z</time>
      </trkpt>
      <trkpt lat="47.42411" lon="6.7098">
        <ele>440</ele>
        <time>2015-05-17T08:19:15.000Z</time>
      </trkpt>
      <trkpt lat="47.42404" lon="6.70974">
        <ele>438</ele>
        <time>2015-05-17T08:19:16.000Z</time>
      </trkpt>
      <trkpt lat="47.42395" lon="6.70965">
        <ele>437</ele>
        <time>2015-05-17T08:19:17.000Z</time>
      </trkpt>
      <trkpt lat="47.42388" lon="6.70951">
        <ele>436</ele>
        <time>2015-05-17T08:19:18.000Z</time>
      </trkpt>
      <trkpt lat="47.42386" lon="6.70937">
        <ele>437</ele>
        <time>2015-05-17T08:19:19.000Z</time>
      </trkpt>
      <trkpt lat="47.42382" lon="6.70928">
        <ele>436</ele>
        <time>2015-05-17T08:19:20.000Z</time>
      </trkpt>
      <trkpt lat="47.42379" lon="6.70915">
        <ele>436</ele>
        <time>2015-05-17T08:19:21.000Z</time>
      </trkpt>
      <trkpt lat="47.42375" lon="6.70904">
        <ele>435</ele>
        <time>2015-05-17T08:19:22.000Z</time>
      </trkpt>
      <trkpt lat="47.42375" lon="6.70894">
        <ele>435</ele>
        <time>2015-05-17T08:19:23.000Z</time>
      </trkpt>
      <trkpt lat="47.42372" lon="6.70883">
        <ele>435</ele>
        <time>2015-05-17T08:19:24.000Z</time>
      </trkpt>
      <trkpt lat="47.42368" lon="6.70869">
        <ele>434</ele>
        <time>2015-05-17T08:19:25.000Z</time>
      </trkpt>
      <trkpt lat="47.42364" lon="6.70858">
        <ele>433</ele>
        <time>2015-05-17T08:19:26.000Z</time>
      </trkpt>
      <trkpt lat="47.42358" lon="6.70846">
        <ele>432</ele>
        <time>2015-05-17T08:19:27.000Z</time>
      </trkpt>
      <trkpt lat="47.42355" lon="6.70834">
        <ele>431</ele>
        <time>2015-05-17T08:19:28.000Z</time>
      </trkpt>
      <trkpt lat="47.42349" lon="6.70823">
        <ele>431</ele>
        <time>2015-05-17T08:19:29.000Z</time>
      </trkpt>
      <trkpt lat="47.42345" lon="6.70811">
        <ele>433</ele>
        <time>2015-05-17T08:19:30.000Z</time>
      </trkpt>
      <trkpt lat="47.42339" lon="6.708">
        <ele>434</ele>
        <time>2015-05-17T08:19:31.000Z</time>
      </trkpt>
      <trkpt lat="47.42334" lon="6.70788">
        <ele>434</ele>
        <time>2015-05-17T08:19:32.000Z</time>
      </trkpt>
      <trkpt lat="47.42329" lon="6.70775">
        <ele>422</ele>
        <time>2015-05-17T08:19:33.000Z</time>
      </trkpt>
      <trkpt lat="47.42322" lon="6.70765">
        <ele>423</ele>
        <time>2015-05-17T08:19:34.000Z</time>
      </trkpt>
      <trkpt lat="47.42315" lon="6.70754">
        <ele>423</ele>
        <time>2015-05-17T08:19:35.000Z</time>
      </trkpt>
      <trkpt lat="47.42308" lon="6.70743">
        <ele>424</ele>
        <time>2015-05-17T08:19:36.000Z</time>
      </trkpt>
      <trkpt lat="47.42301" lon="6.70732">
        <ele>423</ele>
        <time>2015-05-17T08:19:37.000Z</time>
      </trkpt>
      <trkpt lat="47.42296" lon="6.70719">
        <ele>422</ele>
        <time>2015-05-17T08:19:38.000Z</time>
      </trkpt>
      <trkpt lat="47.4229" lon="6.70708">
        <ele>422</ele>
        <time>2015-05-17T08:19:39.000Z</time>
      </trkpt>
      <trkpt lat="47.42284" lon="6.70697">
        <ele>421</ele>
        <time>2015-05-17T08:19:40.000Z</time>
      </trkpt>
      <trkpt lat="47.42279" lon="6.70687">
        <ele>420</ele>
        <time>2015-05-17T08:19:41.000Z</time>
      </trkpt>
      <trkpt lat="47.42273" lon="6.70676">
        <ele>418</ele>
        <time>2015-05-17T08:19:42.000Z</time>
      </trkpt>
      <trkpt lat="47.42266" lon="6.70665">
        <ele>418</ele>
        <time>2015-05-17T08:19:43.000Z</time>
      </trkpt>
      <trkpt lat="47.42263" lon="6.70655">
        <ele>418</ele>
        <time>2015-05-17T08:19:44.000Z</time>
      </trkpt>
      <trkpt lat="47.42257" lon="6.70644">
        <ele>420</ele>
        <time>2015-05-17T08:19:45.000Z</time>
      </trkpt>
      <trkpt lat="47.42253" lon="6.70634">
        <ele>421</ele>
        <time>2015-05-17T08:19:46.000Z</time>
      </trkpt>
      <trkpt lat="47.42254" lon="6.70622">
        <ele>422</ele>
        <time>2015-05-17T08:19:47.000Z</time>
      </trkpt>
      <trkpt lat="47.4225" lon="6.7061">
        <ele>421</ele>
        <time>2015-05-17T08:19:48.000Z</time>
      </trkpt>
      <trkpt lat="47.42248" lon="6.70597">
        <ele>411</ele>
        <time>2015-05-17T08:19:49.000Z</time>
      </trkpt>
      <trkpt lat="47.42245" lon="6.70584">
        <ele>414</ele>
        <time>2015-05-17T08:19:50.000Z</time>
      </trkpt>
      <trkpt lat="47.42242" lon="6.70571">
        <ele>411</ele>
        <time>2015-05-17T08:19:51.000Z</time>
      </trkpt>
      <trkpt lat="47.4224" lon="6.70559">
        <ele>409</ele>
        <time>2015-05-17T08:19:52.000Z</time>
      </trkpt>
      <trkpt lat="47.42238" lon="6.70545">
        <ele>408</ele>
        <time>2015-05-17T08:19:53.000Z</time>
      </trkpt>
      <trkpt lat="47.42237" lon="6.70532">
        <ele>408</ele>
        <time>2015-05-17T08:19:54.000Z</time>
      </trkpt>
      <trkpt lat="47.42235" lon="6.7052">
        <ele>409</ele>
        <time>2015-05-17T08:19:55.000Z</time>
      </trkpt>
      <trkpt lat="47.42234" lon="6.70507">
        <ele>410</ele>
        <time>2015-05-17T08:19:56.000Z</time>
      </trkpt>
      <trkpt lat="47.42232" lon="6.70494">
        <ele>410</ele>
        <time>2015-05-17T08:19:57.000Z</time>
      </trkpt>
      <trkpt lat="47.42231" lon="6.70482">
        <ele>408</ele>
        <time>2015-05-17T08:19:58.001Z</time>
      </trkpt>
      <trkpt lat="47.42227" lon="6.7047">
        <ele>406</ele>
        <time>2015-05-17T08:19:59.000Z</time>
      </trkpt>
      <trkpt lat="47.42227" lon="6.70458">
        <ele>406</ele>
        <time>2015-05-17T08:20:00.000Z</time>
      </trkpt>
      <trkpt lat="47.42226" lon="6.70447">
        <ele>406</ele>
        <time>2015-05-17T08:20:01.000Z</time>
      </trkpt>
      <trkpt lat="47.42225" lon="6.70437">
        <ele>406</ele>
        <time>2015-05-17T08:20:02.000Z</time>
      </trkpt>
      <trkpt lat="47.42225" lon="6.70426">
        <ele>407</ele>
        <time>2015-05-17T08:20:03.000Z</time>
      </trkpt>
      <trkpt lat="47.42224" lon="6.70412">
        <ele>404</ele>
        <time>2015-05-17T08:20:04.000Z</time>
      </trkpt>
      <trkpt lat="47.42222" lon="6.704">
        <ele>403</ele>
        <time>2015-05-17T08:20:05.000Z</time>
      </trkpt>
      <trkpt lat="47.42222" lon="6.70387">
        <ele>402</ele>
        <time>2015-05-17T08:20:06.000Z</time>
      </trkpt>
      <trkpt lat="47.42221" lon="6.70373">
        <ele>402</ele>
        <time>2015-05-17T08:20:07.000Z</time>
      </trkpt>
      <trkpt lat="47.4222" lon="6.70358">
        <ele>401</ele>
        <time>2015-05-17T08:20:08.000Z</time>
      </trkpt>
      <trkpt lat="47.42219" lon="6.70344">
        <ele>401</ele>
        <time>2015-05-17T08:20:09.000Z</time>
      </trkpt>
      <trkpt lat="47.42219" lon="6.70331">
        <ele>399</ele>
        <time>2015-05-17T08:20:10.000Z</time>
      </trkpt>
      <trkpt lat="47.4222" lon="6.70318">
        <ele>399</ele>
        <time>2015-05-17T08:20:11.000Z</time>
      </trkpt>
      <trkpt lat="47.4222" lon="6.70304">
        <ele>398</ele>
        <time>2015-05-17T08:20:12.000Z</time>
      </trkpt>
      <trkpt lat="47.42222" lon="6.7029">
        <ele>398</ele>
        <time>2015-05-17T08:20:13.000Z</time>
      </trkpt>
      <trkpt lat="47.42223" lon="6.70277">
        <ele>398</ele>
        <time>2015-05-17T08:20:14.000Z</time>
      </trkpt>
      <trkpt lat="47.42224" lon="6.70262">
        <ele>399</ele>
        <time>2015-05-17T08:20:15.000Z</time>
      </trkpt>
      <trkpt lat="47.42224" lon="6.70247">
        <ele>396</ele>
        <time>2015-05-17T08:20:16.000Z</time>
      </trkpt>
      <trkpt lat="47.42223" lon="6.70233">
        <ele>395</ele>
        <time>2015-05-17T08:20:17.000Z</time>
      </trkpt>
      <trkpt lat="47.42224" lon="6.70218">
        <ele>393</ele>
        <time>2015-05-17T08:20:18.000Z</time>
      </trkpt>
      <trkpt lat="47.42225" lon="6.70203">
        <ele>393</ele>
        <time>2015-05-17T08:20:19.000Z</time>
      </trkpt>
      <trkpt lat="47.42227" lon="6.70189">
        <ele>392</ele>
        <time>2015-05-17T08:20:20.000Z</time>
      </trkpt>
      <trkpt lat="47.42228" lon="6.70173">
        <ele>393</ele>
        <time>2015-05-17T08:20:21.000Z</time>
      </trkpt>
      <trkpt lat="47.42232" lon="6.70159">
        <ele>388</ele>
        <time>2015-05-17T08:20:22.000Z</time>
      </trkpt>
      <trkpt lat="47.42234" lon="6.70144">
        <ele>387</ele>
        <time>2015-05-17T08:20:23.000Z</time>
      </trkpt>
      <trkpt lat="47.42238" lon="6.70128">
        <ele>385</ele>
        <time>2015-05-17T08:20:24.000Z</time>
      </trkpt>
      <trkpt lat="47.42241" lon="6.70112">
        <ele>384</ele>
        <time>2015-05-17T08:20:25.000Z</time>
      </trkpt>
      <trkpt lat="47.42243" lon="6.70096">
        <ele>383</ele>
        <time>2015-05-17T08:20:26.000Z</time>
      </trkpt>
      <trkpt lat="47.42246" lon="6.7008">
        <ele>381</ele>
        <time>2015-05-17T08:20:27.000Z</time>
      </trkpt>
      <trkpt lat="47.42249" lon="6.70066">
        <ele>378</ele>
        <time>2015-05-17T08:20:28.000Z</time>
      </trkpt>
      <trkpt lat="47.42253" lon="6.70054">
        <ele>380</ele>
        <time>2015-05-17T08:20:29.000Z</time>
      </trkpt>
      <trkpt lat="47.42257" lon="6.70041">
        <ele>379</ele>
        <time>2015-05-17T08:20:30.000Z</time>
      </trkpt>
      <trkpt lat="47.42259" lon="6.70028">
        <ele>377</ele>
        <time>2015-05-17T08:20:31.000Z</time>
      </trkpt>
      <trkpt lat="47.4226" lon="6.70014">
        <ele>376</ele>
        <time>2015-05-17T08:20:32.000Z</time>
      </trkpt>
      <trkpt lat="47.42261" lon="6.70001">
        <ele>374</ele>
        <time>2015-05-17T08:20:33.000Z</time>
      </trkpt>
      <trkpt lat="47.42262" lon="6.69988">
        <ele>372</ele>
        <time>2015-05-17T08:20:34.000Z</time>
      </trkpt>
      <trkpt lat="47.4226" lon="6.69974">
        <ele>372</ele>
        <time>2015-05-17T08:20:35.000Z</time>
      </trkpt>
      <trkpt lat="47.42259" lon="6.69958">
        <ele>371</ele>
        <time>2015-05-17T08:20:36.000Z</time>
      </trkpt>
      <trkpt lat="47.42257" lon="6.69942">
        <ele>371</ele>
        <time>2015-05-17T08:20:37.000Z</time>
      </trkpt>
      <trkpt lat="47.42257" lon="6.69927">
        <ele>370</ele>
        <time>2015-05-17T08:20:38.000Z</time>
      </trkpt>
      <trkpt lat="47.42255" lon="6.69911">
        <ele>369</ele>
        <time>2015-05-17T08:20:39.000Z</time>
      </trkpt>
      <trkpt lat="47.42253" lon="6.69895">
        <ele>369</ele>
        <time>2015-05-17T08:20:40.000Z</time>
      </trkpt>
      <trkpt lat="47.42251" lon="6.69882">
        <ele>369</ele>
        <time>2015-05-17T08:20:41.000Z</time>
      </trkpt>
      <trkpt lat="47.42248" lon="6.69869">
        <ele>366</ele>
        <time>2015-05-17T08:20:42.000Z</time>
      </trkpt>
      <trkpt lat="47.42245" lon="6.69857">
        <ele>365</ele>
        <time>2015-05-17T08:20:43.000Z</time>
      </trkpt>
      <trkpt lat="47.4224" lon="6.69848">
        <ele>365</ele>
        <time>2015-05-17T08:20:44.000Z</time>
      </trkpt>
      <trkpt lat="47.42237" lon="6.69839">
        <ele>365</ele>
        <time>2015-05-17T08:20:45.000Z</time>
      </trkpt>
      <trkpt lat="47.42234" lon="6.69833">
        <ele>364</ele>
        <time>2015-05-17T08:20:46.000Z</time>
      </trkpt>
      <trkpt lat="47.42232" lon="6.69828">
        <ele>363</ele>
        <time>2015-05-17T08:20:47.000Z</time>
      </trkpt>
      <trkpt lat="47.4223" lon="6.69824">
        <ele>363</ele>
        <time>2015-05-17T08:20:48.000Z</time>
      </trkpt>
      <trkpt lat="47.42225" lon="6.69821">
        <ele>363</ele>
        <time>2015-05-17T08:20:49.000Z</time>
      </trkpt>
      <trkpt lat="47.4222" lon="6.69823">
        <ele>362</ele>
        <time>2015-05-17T08:20:50.000Z</time>
      </trkpt>
      <trkpt lat="47.42215" lon="6.69827">
        <ele>362</ele>
        <time>2015-05-17T08:20:51.000Z</time>
      </trkpt>
      <trkpt lat="47.4221" lon="6.6983">
        <ele>362</ele>
        <time>2015-05-17T08:20:52.000Z</time>
      </trkpt>
      <trkpt lat="47.42205" lon="6.69833">
        <ele>362</ele>
        <time>2015-05-17T08:20:53.000Z</time>
      </trkpt>
      <trkpt lat="47.42199" lon="6.69837">
        <ele>364</ele>
        <time>2015-05-17T08:20:54.000Z</time>
      </trkpt>
      <trkpt lat="47.42193" lon="6.6984">
        <ele>364</ele>
        <time>2015-05-17T08:20:55.000Z</time>
      </trkpt>
      <trkpt lat="47.42187" lon="6.69844">
        <ele>363</ele>
        <time>2015-05-17T08:20:56.000Z</time>
      </trkpt>
      <trkpt lat="47.42181" lon="6.69848">
        <ele>363</ele>
        <time>2015-05-17T08:20:57.000Z</time>
      </trkpt>
      <trkpt lat="47.42175" lon="6.6985">
        <ele>363</ele>
        <time>2015-05-17T08:20:58.000Z</time>
      </trkpt>
      <trkpt lat="47.42168" lon="6.69855">
        <ele>363</ele>
        <time>2015-05-17T08:20:59.000Z</time>
      </trkpt>
      <trkpt lat="47.42162" lon="6.69857">
        <ele>363</ele>
        <time>2015-05-17T08:21:00.000Z</time>
      </trkpt>
      <trkpt lat="47.42155" lon="6.69854">
        <ele>363</ele>
        <time>2015-05-17T08:21:01.000Z</time>
      </trkpt>
      <trkpt lat="47.4215" lon="6.69859">
        <ele>363</ele>
        <time>2015-05-17T08:21:02.000Z</time>
      </trkpt>
      <trkpt lat="47.42144" lon="6.69865">
        <ele>363</ele>
        <time>2015-05-17T08:21:03.000Z</time>
      </trkpt>
      <trkpt lat="47.42138" lon="6.69873">
        <ele>364</ele>
        <time>2015-05-17T08:21:04.000Z</time>
      </trkpt>
      <trkpt lat="47.42133" lon="6.69877">
        <ele>364</ele>
        <time>2015-05-17T08:21:05.000Z</time>
      </trkpt>
      <trkpt lat="47.42128" lon="6.6988">
        <ele>364</ele>
        <time>2015-05-17T08:21:06.000Z</time>
      </trkpt>
      <trkpt lat="47.42123" lon="6.69882">
        <ele>364</ele>
        <time>2015-05-17T08:21:07.000Z</time>
      </trkpt>
      <trkpt lat="47.42119" lon="6.69885">
        <ele>365</ele>
        <time>2015-05-17T08:21:08.000Z</time>
      </trkpt>
      <trkpt lat="47.42114" lon="6.69888">
        <ele>365</ele>
        <time>2015-05-17T08:21:09.000Z</time>
      </trkpt>
      <trkpt lat="47.42112" lon="6.69889">
        <ele>365</ele>
        <time>2015-05-17T08:21:10.000Z</time>
      </trkpt>
      <trkpt lat="47.42108" lon="6.69891">
        <ele>365</ele>
        <time>2015-05-17T08:21:11.000Z</time>
      </trkpt>
      <trkpt lat="47.42104" lon="6.69895">
        <ele>366</ele>
        <time>2015-05-17T08:21:12.000Z</time>
      </trkpt>
      <trkpt lat="47.421" lon="6.69898">
        <ele>366</ele>
        <time>2015-05-17T08:21:13.000Z</time>
      </trkpt>
      <trkpt lat="47.42096" lon="6.69901">
        <ele>366</ele>
        <time>2015-05-17T08:21:14.000Z</time>
      </trkpt>
      <trkpt lat="47.42093" lon="6.69903">
        <ele>367</ele>
        <time>2015-05-17T08:21:15.000Z</time>
      </trkpt>
      <trkpt lat="47.4209" lon="6.69904">
        <ele>367</ele>
        <time>2015-05-17T08:21:16.000Z</time>
      </trkpt>
      <trkpt lat="47.42087" lon="6.69906">
        <ele>368</ele>
        <time>2015-05-17T08:21:17.000Z</time>
      </trkpt>
      <trkpt lat="47.42083" lon="6.69907">
        <ele>368</ele>
        <time>2015-05-17T08:21:18.000Z</time>
      </trkpt>
      <trkpt lat="47.42081" lon="6.69908">
        <ele>369</ele>
        <time>2015-05-17T08:21:18.998Z</time>
      </trkpt>
      <trkpt lat="47.42077" lon="6.69909">
        <ele>368</ele>
        <time>2015-05-17T08:21:20.000Z</time>
      </trkpt>
      <trkpt lat="47.42073" lon="6.69909">
        <ele>368</ele>
        <time>2015-05-17T08:21:21.000Z</time>
      </trkpt>
      <trkpt lat="47.42069" lon="6.6991">
        <ele>368</ele>
        <time>2015-05-17T08:21:22.000Z</time>
      </trkpt>
      <trkpt lat="47.42066" lon="6.69911">
        <ele>368</ele>
        <time>2015-05-17T08:21:23.000Z</time>
      </trkpt>
      <trkpt lat="47.42062" lon="6.69915">
        <ele>368</ele>
        <time>2015-05-17T08:21:24.000Z</time>
      </trkpt>
      <trkpt lat="47.42059" lon="6.69915">
        <ele>367</ele>
        <time>2015-05-17T08:21:25.000Z</time>
      </trkpt>
      <trkpt lat="47.42055" lon="6.69915">
        <ele>367</ele>
        <time>2015-05-17T08:21:26.000Z</time>
      </trkpt>
      <trkpt lat="47.42051" lon="6.69915">
        <ele>367</ele>
        <time>2015-05-17T08:21:27.000Z</time>
      </trkpt>
      <trkpt lat="47.42048" lon="6.69915">
        <ele>367</ele>
        <time>2015-05-17T08:21:27.999Z</time>
      </trkpt>
      <trkpt lat="47.42044" lon="6.69915">
        <ele>367</ele>
        <time>2015-05-17T08:21:29.000Z</time>
      </trkpt>
      <trkpt lat="47.42039" lon="6.69915">
        <ele>367</ele>
        <time>2015-05-17T08:21:30.000Z</time>
      </trkpt>
      <trkpt lat="47.42034" lon="6.69914">
        <ele>367</ele>
        <time>2015-05-17T08:21:31.000Z</time>
      </trkpt>
      <trkpt lat="47.42031" lon="6.69913">
        <ele>367</ele>
        <time>2015-05-17T08:21:32.001Z</time>
      </trkpt>
      <trkpt lat="47.42025" lon="6.69914">
        <ele>368</ele>
        <time>2015-05-17T08:21:33.000Z</time>
      </trkpt>
      <trkpt lat="47.4202" lon="6.69914">
        <ele>368</ele>
        <time>2015-05-17T08:21:34.000Z</time>
      </trkpt>
      <trkpt lat="47.42015" lon="6.69915">
        <ele>368</ele>
        <time>2015-05-17T08:21:35.000Z</time>
      </trkpt>
      <trkpt lat="47.42011" lon="6.69913">
        <ele>369</ele>
        <time>2015-05-17T08:21:36.000Z</time>
      </trkpt>
      <trkpt lat="47.42005" lon="6.69913">
        <ele>370</ele>
        <time>2015-05-17T08:21:37.000Z</time>
      </trkpt>
      <trkpt lat="47.42" lon="6.69915">
        <ele>371</ele>
        <time>2015-05-17T08:21:38.000Z</time>
      </trkpt>
      <trkpt lat="47.41995" lon="6.69916">
        <ele>369</ele>
        <time>2015-05-17T08:21:39.000Z</time>
      </trkpt>
      <trkpt lat="47.41989" lon="6.69916">
        <ele>368</ele>
        <time>2015-05-17T08:21:40.000Z</time>
      </trkpt>
      <trkpt lat="47.41984" lon="6.69918">
        <ele>373</ele>
        <time>2015-05-17T08:21:41.000Z</time>
      </trkpt>
      <trkpt lat="47.4198" lon="6.6992">
        <ele>374</ele>
        <time>2015-05-17T08:21:42.000Z</time>
      </trkpt>
      <trkpt lat="47.41975" lon="6.69921">
        <ele>374</ele>
        <time>2015-05-17T08:21:43.000Z</time>
      </trkpt>
      <trkpt lat="47.41969" lon="6.69923">
        <ele>374</ele>
        <time>2015-05-17T08:21:44.000Z</time>
      </trkpt>
      <trkpt lat="47.41963" lon="6.69925">
        <ele>374</ele>
        <time>2015-05-17T08:21:45.000Z</time>
      </trkpt>
      <trkpt lat="47.41957" lon="6.69926">
        <ele>374</ele>
        <time>2015-05-17T08:21:46.000Z</time>
      </trkpt>
      <trkpt lat="47.41952" lon="6.69928">
        <ele>374</ele>
        <time>2015-05-17T08:21:47.000Z</time>
      </trkpt>
      <trkpt lat="47.41947" lon="6.6993">
        <ele>373</ele>
        <time>2015-05-17T08:21:48.000Z</time>
      </trkpt>
      <trkpt lat="47.41942" lon="6.69932">
        <ele>373</ele>
        <time>2015-05-17T08:21:49.000Z</time>
      </trkpt>
      <trkpt lat="47.41937" lon="6.69935">
        <ele>373</ele>
        <time>2015-05-17T08:21:50.000Z</time>
      </trkpt>
      <trkpt lat="47.41933" lon="6.69938">
        <ele>373</ele>
        <time>2015-05-17T08:21:51.000Z</time>
      </trkpt>
      <trkpt lat="47.41928" lon="6.69937">
        <ele>372</ele>
        <time>2015-05-17T08:21:52.000Z</time>
      </trkpt>
      <trkpt lat="47.41922" lon="6.6994">
        <ele>372</ele>
        <time>2015-05-17T08:21:53.000Z</time>
      </trkpt>
      <trkpt lat="47.41916" lon="6.69942">
        <ele>369</ele>
        <time>2015-05-17T08:21:54.000Z</time>
      </trkpt>
      <trkpt lat="47.4191" lon="6.69946">
        <ele>369</ele>
        <time>2015-05-17T08:21:55.000Z</time>
      </trkpt>
      <trkpt lat="47.41904" lon="6.69949">
        <ele>369</ele>
        <time>2015-05-17T08:21:56.000Z</time>
      </trkpt>
      <trkpt lat="47.41898" lon="6.6995">
        <ele>369</ele>
        <time>2015-05-17T08:21:57.000Z</time>
      </trkpt>
      <trkpt lat="47.41894" lon="6.69953">
        <ele>370</ele>
        <time>2015-05-17T08:21:58.000Z</time>
      </trkpt>
      <trkpt lat="47.41888" lon="6.69958">
        <ele>370</ele>
        <time>2015-05-17T08:21:59.000Z</time>
      </trkpt>
      <trkpt lat="47.41882" lon="6.69962">
        <ele>370</ele>
        <time>2015-05-17T08:22:00.000Z</time>
      </trkpt>
      <trkpt lat="47.41877" lon="6.69965">
        <ele>370</ele>
        <time>2015-05-17T08:22:01.000Z</time>
      </trkpt>
      <trkpt lat="47.41871" lon="6.69969">
        <ele>370</ele>
        <time>2015-05-17T08:22:02.000Z</time>
      </trkpt>
      <trkpt lat="47.41866" lon="6.69972">
        <ele>370</ele>
        <time>2015-05-17T08:22:03.000Z</time>
      </trkpt>
      <trkpt lat="47.4186" lon="6.69977">
        <ele>370</ele>
        <time>2015-05-17T08:22:04.000Z</time>
      </trkpt>
      <trkpt lat="47.41855" lon="6.69983">
        <ele>370</ele>
        <time>2015-05-17T08:22:05.000Z</time>
      </trkpt>
      <trkpt lat="47.4185" lon="6.69988">
        <ele>370</ele>
        <time>2015-05-17T08:22:06.000Z</time>
      </trkpt>
      <trkpt lat="47.41843" lon="6.69989">
        <ele>370</ele>
        <time>2015-05-17T08:22:07.000Z</time>
      </trkpt>
      <trkpt lat="47.41837" lon="6.69988">
        <ele>370</ele>
        <time>2015-05-17T08:22:08.000Z</time>
      </trkpt>
      <trkpt lat="47.41831" lon="6.69984">
        <ele>369</ele>
        <time>2015-05-17T08:22:09.000Z</time>
      </trkpt>
      <trkpt lat="47.41826" lon="6.69983">
        <ele>368</ele>
        <time>2015-05-17T08:22:10.000Z</time>
      </trkpt>
      <trkpt lat="47.41819" lon="6.69983">
        <ele>368</ele>
        <time>2015-05-17T08:22:11.000Z</time>
      </trkpt>
      <trkpt lat="47.41814" lon="6.69985">
        <ele>368</ele>
        <time>2015-05-17T08:22:12.000Z</time>
      </trkpt>
      <trkpt lat="47.41808" lon="6.69987">
        <ele>368</ele>
        <time>2015-05-17T08:22:13.000Z</time>
      </trkpt>
      <trkpt lat="47.41803" lon="6.69987">
        <ele>368</ele>
        <time>2015-05-17T08:22:14.000Z</time>
      </trkpt>
      <trkpt lat="47.41797" lon="6.69988">
        <ele>368</ele>
        <time>2015-05-17T08:22:15.000Z</time>
      </trkpt>
      <trkpt lat="47.41792" lon="6.69989">
        <ele>368</ele>
        <time>2015-05-17T08:22:16.000Z</time>
      </trkpt>
      <trkpt lat="47.41786" lon="6.69987">
        <ele>369</ele>
        <time>2015-05-17T08:22:17.000Z</time>
      </trkpt>
      <trkpt lat="47.41781" lon="6.69987">
        <ele>369</ele>
        <time>2015-05-17T08:22:18.000Z</time>
      </trkpt>
      <trkpt lat="47.41776" lon="6.69987">
        <ele>369</ele>
        <time>2015-05-17T08:22:19.000Z</time>
      </trkpt>
      <trkpt lat="47.41772" lon="6.69987">
        <ele>369</ele>
        <time>2015-05-17T08:22:20.000Z</time>
      </trkpt>
      <trkpt lat="47.41766" lon="6.69985">
        <ele>369</ele>
        <time>2015-05-17T08:22:21.000Z</time>
      </trkpt>
      <trkpt lat="47.41761" lon="6.69986">
        <ele>370</ele>
        <time>2015-05-17T08:22:22.000Z</time>
      </trkpt>
      <trkpt lat="47.41755" lon="6.69987">
        <ele>370</ele>
        <time>2015-05-17T08:22:23.000Z</time>
      </trkpt>
      <trkpt lat="47.41749" lon="6.69988">
        <ele>370</ele>
        <time>2015-05-17T08:22:24.000Z</time>
      </trkpt>
      <trkpt lat="47.41742" lon="6.69987">
        <ele>370</ele>
        <time>2015-05-17T08:22:25.000Z</time>
      </trkpt>
      <trkpt lat="47.41737" lon="6.69988">
        <ele>370</ele>
        <time>2015-05-17T08:22:26.000Z</time>
      </trkpt>
      <trkpt lat="47.41731" lon="6.69986">
        <ele>369</ele>
        <time>2015-05-17T08:22:27.000Z</time>
      </trkpt>
      <trkpt lat="47.41725" lon="6.69985">
        <ele>369</ele>
        <time>2015-05-17T08:22:28.000Z</time>
      </trkpt>
      <trkpt lat="47.4172" lon="6.69985">
        <ele>369</ele>
        <time>2015-05-17T08:22:29.000Z</time>
      </trkpt>
      <trkpt lat="47.41714" lon="6.69985">
        <ele>369</ele>
        <time>2015-05-17T08:22:30.000Z</time>
      </trkpt>
      <trkpt lat="47.41708" lon="6.6999">
        <ele>369</ele>
        <time>2015-05-17T08:22:31.000Z</time>
      </trkpt>
      <trkpt lat="47.41703" lon="6.69994">
        <ele>369</ele>
        <time>2015-05-17T08:22:32.000Z</time>
      </trkpt>
      <trkpt lat="47.41698" lon="6.69997">
        <ele>369</ele>
        <time>2015-05-17T08:22:33.000Z</time>
      </trkpt>
      <trkpt lat="47.41693" lon="6.7">
        <ele>378</ele>
        <time>2015-05-17T08:22:34.000Z</time>
      </trkpt>
      <trkpt lat="47.41689" lon="6.70005">
        <ele>377</ele>
        <time>2015-05-17T08:22:35.000Z</time>
      </trkpt>
      <trkpt lat="47.41685" lon="6.70009">
        <ele>377</ele>
        <time>2015-05-17T08:22:36.000Z</time>
      </trkpt>
      <trkpt lat="47.4168" lon="6.70012">
        <ele>377</ele>
        <time>2015-05-17T08:22:37.000Z</time>
      </trkpt>
      <trkpt lat="47.41677" lon="6.70015">
        <ele>377</ele>
        <time>2015-05-17T08:22:38.000Z</time>
      </trkpt>
      <trkpt lat="47.41673" lon="6.70019">
        <ele>378</ele>
        <time>2015-05-17T08:22:39.000Z</time>
      </trkpt>
      <trkpt lat="47.41668" lon="6.7002">
        <ele>378</ele>
        <time>2015-05-17T08:22:40.000Z</time>
      </trkpt>
      <trkpt lat="47.41664" lon="6.70022">
        <ele>376</ele>
        <time>2015-05-17T08:22:41.000Z</time>
      </trkpt>
      <trkpt lat="47.41659" lon="6.70025">
        <ele>376</ele>
        <time>2015-05-17T08:22:42.000Z</time>
      </trkpt>
      <trkpt lat="47.41655" lon="6.70026">
        <ele>377</ele>
        <time>2015-05-17T08:22:43.000Z</time>
      </trkpt>
      <trkpt lat="47.41651" lon="6.70027">
        <ele>377</ele>
        <time>2015-05-17T08:22:44.000Z</time>
      </trkpt>
      <trkpt lat="47.41647" lon="6.7003">
        <ele>377</ele>
        <time>2015-05-17T08:22:45.000Z</time>
      </trkpt>
      <trkpt lat="47.41644" lon="6.70032">
        <ele>378</ele>
        <time>2015-05-17T08:22:46.000Z</time>
      </trkpt>
      <trkpt lat="47.41641" lon="6.70032">
        <ele>377</ele>
        <time>2015-05-17T08:22:47.000Z</time>
      </trkpt>
      <trkpt lat="47.41637" lon="6.70034">
        <ele>378</ele>
        <time>2015-05-17T08:22:48.000Z</time>
      </trkpt>
      <trkpt lat="47.41633" lon="6.70036">
        <ele>378</ele>
        <time>2015-05-17T08:22:49.000Z</time>
      </trkpt>
      <trkpt lat="47.4163" lon="6.70037">
        <ele>378</ele>
        <time>2015-05-17T08:22:50.000Z</time>
      </trkpt>
      <trkpt lat="47.41626" lon="6.7004">
        <ele>378</ele>
        <time>2015-05-17T08:22:51.000Z</time>
      </trkpt>
      <trkpt lat="47.41622" lon="6.70042">
        <ele>378</ele>
        <time>2015-05-17T08:22:52.000Z</time>
      </trkpt>
      <trkpt lat="47.41618" lon="6.70044">
        <ele>378</ele>
        <time>2015-05-17T08:22:53.000Z</time>
      </trkpt>
      <trkpt lat="47.41615" lon="6.70046">
        <ele>378</ele>
        <time>2015-05-17T08:22:54.000Z</time>
      </trkpt>
      <trkpt lat="47.41611" lon="6.70048">
        <ele>378</ele>
        <time>2015-05-17T08:22:55.000Z</time>
      </trkpt>
      <trkpt lat="47.41607" lon="6.70051">
        <ele>378</ele>
        <time>2015-05-17T08:22:56.000Z</time>
      </trkpt>
      <trkpt lat="47.41604" lon="6.70053">
        <ele>378</ele>
        <time>2015-05-17T08:22:57.000Z</time>
      </trkpt>
      <trkpt lat="47.416" lon="6.70057">
        <ele>379</ele>
        <time>2015-05-17T08:22:58.000Z</time>
      </trkpt>
      <trkpt lat="47.41597" lon="6.7006">
        <ele>379</ele>
        <time>2015-05-17T08:22:59.000Z</time>
      </trkpt>
      <trkpt lat="47.41593" lon="6.70065">
        <ele>380</ele>
        <time>2015-05-17T08:23:00.000Z</time>
      </trkpt>
      <trkpt lat="47.4159" lon="6.70069">
        <ele>380</ele>
        <time>2015-05-17T08:23:01.000Z</time>
      </trkpt>
      <trkpt lat="47.41586" lon="6.70073">
        <ele>380</ele>
        <time>2015-05-17T08:23:02.000Z</time>
      </trkpt>
      <trkpt lat="47.41583" lon="6.70077">
        <ele>379</ele>
        <time>2015-05-17T08:23:03.000Z</time>
      </trkpt>
      <trkpt lat="47.41578" lon="6.70079">
        <ele>379</ele>
        <time>2015-05-17T08:23:04.000Z</time>
      </trkpt>
      <trkpt lat="47.41575" lon="6.70083">
        <ele>379</ele>
        <time>2015-05-17T08:23:05.000Z</time>
      </trkpt>
      <trkpt lat="47.41571" lon="6.70089">
        <ele>382</ele>
        <time>2015-05-17T08:23:06.000Z</time>
      </trkpt>
      <trkpt lat="47.41568" lon="6.70094">
        <ele>382</ele>
        <time>2015-05-17T08:23:07.000Z</time>
      </trkpt>
      <trkpt lat="47.41565" lon="6.70099">
        <ele>382</ele>
        <time>2015-05-17T08:23:08.000Z</time>
      </trkpt>
      <trkpt lat="47.41562" lon="6.70104">
        <ele>382</ele>
        <time>2015-05-17T08:23:09.000Z</time>
      </trkpt>
      <trkpt lat="47.41559" lon="6.70111">
        <ele>382</ele>
        <time>2015-05-17T08:23:10.000Z</time>
      </trkpt>
      <trkpt lat="47.41556" lon="6.70115">
        <ele>382</ele>
        <time>2015-05-17T08:23:11.000Z</time>
      </trkpt>
      <trkpt lat="47.41552" lon="6.7012">
        <ele>383</ele>
        <time>2015-05-17T08:23:12.000Z</time>
      </trkpt>
      <trkpt lat="47.4155" lon="6.70124">
        <ele>383</ele>
        <time>2015-05-17T08:23:13.000Z</time>
      </trkpt>
      <trkpt lat="47.41546" lon="6.70127">
        <ele>383</ele>
        <time>2015-05-17T08:23:14.000Z</time>
      </trkpt>
      <trkpt lat="47.41541" lon="6.70129">
        <ele>382</ele>
        <time>2015-05-17T08:23:15.000Z</time>
      </trkpt>
      <trkpt lat="47.41537" lon="6.70132">
        <ele>382</ele>
        <time>2015-05-17T08:23:16.000Z</time>
      </trkpt>
      <trkpt lat="47.41533" lon="6.70135">
        <ele>382</ele>
        <time>2015-05-17T08:23:17.000Z</time>
      </trkpt>
      <trkpt lat="47.41529" lon="6.70139">
        <ele>382</ele>
        <time>2015-05-17T08:23:18.000Z</time>
      </trkpt>
      <trkpt lat="47.41526" lon="6.70142">
        <ele>382</ele>
        <time>2015-05-17T08:23:19.000Z</time>
      </trkpt>
      <trkpt lat="47.41523" lon="6.70145">
        <ele>382</ele>
        <time>2015-05-17T08:23:20.000Z</time>
      </trkpt>
      <trkpt lat="47.41518" lon="6.70148">
        <ele>381</ele>
        <time>2015-05-17T08:23:21.000Z</time>
      </trkpt>
      <trkpt lat="47.41513" lon="6.70149">
        <ele>381</ele>
        <time>2015-05-17T08:23:22.000Z</time>
      </trkpt>
      <trkpt lat="47.41508" lon="6.70151">
        <ele>381</ele>
        <time>2015-05-17T08:23:23.000Z</time>
      </trkpt>
      <trkpt lat="47.41504" lon="6.70153">
        <ele>381</ele>
        <time>2015-05-17T08:23:24.000Z</time>
      </trkpt>
      <trkpt lat="47.41499" lon="6.70154">
        <ele>376</ele>
        <time>2015-05-17T08:23:25.000Z</time>
      </trkpt>
      <trkpt lat="47.41494" lon="6.70156">
        <ele>376</ele>
        <time>2015-05-17T08:23:26.000Z</time>
      </trkpt>
      <trkpt lat="47.4149" lon="6.70159">
        <ele>376</ele>
        <time>2015-05-17T08:23:27.000Z</time>
      </trkpt>
      <trkpt lat="47.41485" lon="6.70158">
        <ele>375</ele>
        <time>2015-05-17T08:23:28.000Z</time>
      </trkpt>
      <trkpt lat="47.4148" lon="6.70158">
        <ele>374</ele>
        <time>2015-05-17T08:23:29.000Z</time>
      </trkpt>
      <trkpt lat="47.41475" lon="6.70162">
        <ele>374</ele>
        <time>2015-05-17T08:23:30.000Z</time>
      </trkpt>
      <trkpt lat="47.41469" lon="6.70165">
        <ele>373</ele>
        <time>2015-05-17T08:23:31.000Z</time>
      </trkpt>
      <trkpt lat="47.41464" lon="6.70168">
        <ele>379</ele>
        <time>2015-05-17T08:23:32.000Z</time>
      </trkpt>
      <trkpt lat="47.41459" lon="6.70172">
        <ele>378</ele>
        <time>2015-05-17T08:23:33.000Z</time>
      </trkpt>
      <trkpt lat="47.41454" lon="6.70176">
        <ele>378</ele>
        <time>2015-05-17T08:23:34.000Z</time>
      </trkpt>
      <trkpt lat="47.41449" lon="6.70179">
        <ele>377</ele>
        <time>2015-05-17T08:23:35.000Z</time>
      </trkpt>
      <trkpt lat="47.41443" lon="6.70186">
        <ele>377</ele>
        <time>2015-05-17T08:23:36.000Z</time>
      </trkpt>
      <trkpt lat="47.41437" lon="6.70191">
        <ele>377</ele>
        <time>2015-05-17T08:23:37.000Z</time>
      </trkpt>
      <trkpt lat="47.4143" lon="6.70197">
        <ele>377</ele>
        <time>2015-05-17T08:23:38.000Z</time>
      </trkpt>
      <trkpt lat="47.41424" lon="6.70207">
        <ele>377</ele>
        <time>2015-05-17T08:23:39.000Z</time>
      </trkpt>
      <trkpt lat="47.41419" lon="6.70218">
        <ele>378</ele>
        <time>2015-05-17T08:23:40.000Z</time>
      </trkpt>
      <trkpt lat="47.41414" lon="6.70228">
        <ele>373</ele>
        <time>2015-05-17T08:23:41.000Z</time>
      </trkpt>
      <trkpt lat="47.41408" lon="6.70237">
        <ele>373</ele>
        <time>2015-05-17T08:23:42.000Z</time>
      </trkpt>
      <trkpt lat="47.41403" lon="6.70247">
        <ele>374</ele>
        <time>2015-05-17T08:23:43.000Z</time>
      </trkpt>
      <trkpt lat="47.41398" lon="6.70259">
        <ele>377</ele>
        <time>2015-05-17T08:23:44.000Z</time>
      </trkpt>
      <trkpt lat="47.41395" lon="6.70269">
        <ele>377</ele>
        <time>2015-05-17T08:23:45.000Z</time>
      </trkpt>
      <trkpt lat="47.41392" lon="6.70278">
        <ele>377</ele>
        <time>2015-05-17T08:23:46.000Z</time>
      </trkpt>
      <trkpt lat="47.41388" lon="6.70285">
        <ele>377</ele>
        <time>2015-05-17T08:23:47.000Z</time>
      </trkpt>
      <trkpt lat="47.41383" lon="6.70291">
        <ele>378</ele>
        <time>2015-05-17T08:23:48.000Z</time>
      </trkpt>
      <trkpt lat="47.41379" lon="6.70297">
        <ele>378</ele>
        <time>2015-05-17T08:23:49.000Z</time>
      </trkpt>
      <trkpt lat="47.41373" lon="6.70302">
        <ele>378</ele>
        <time>2015-05-17T08:23:50.000Z</time>
      </trkpt>
      <trkpt lat="47.41368" lon="6.70306">
        <ele>378</ele>
        <time>2015-05-17T08:23:51.000Z</time>
      </trkpt>
      <trkpt lat="47.41363" lon="6.70312">
        <ele>378</ele>
        <time>2015-05-17T08:23:52.000Z</time>
      </trkpt>
      <trkpt lat="47.41359" lon="6.70318">
        <ele>378</ele>
        <time>2015-05-17T08:23:53.000Z</time>
      </trkpt>
      <trkpt lat="47.41354" lon="6.70324">
        <ele>378</ele>
        <time>2015-05-17T08:23:54.000Z</time>
      </trkpt>
      <trkpt lat="47.41351" lon="6.7033">
        <ele>377</ele>
        <time>2015-05-17T08:23:55.000Z</time>
      </trkpt>
      <trkpt lat="47.41347" lon="6.70336">
        <ele>383</ele>
        <time>2015-05-17T08:23:56.000Z</time>
      </trkpt>
      <trkpt lat="47.41344" lon="6.7034">
        <ele>383</ele>
        <time>2015-05-17T08:23:57.000Z</time>
      </trkpt>
      <trkpt lat="47.41341" lon="6.70344">
        <ele>383</ele>
        <time>2015-05-17T08:23:58.000Z</time>
      </trkpt>
      <trkpt lat="47.41338" lon="6.70349">
        <ele>384</ele>
        <time>2015-05-17T08:23:59.000Z</time>
      </trkpt>
      <trkpt lat="47.41335" lon="6.70353">
        <ele>385</ele>
        <time>2015-05-17T08:24:00.000Z</time>
      </trkpt>
      <trkpt lat="47.41333" lon="6.70354">
        <ele>380</ele>
        <time>2015-05-17T08:24:01.000Z</time>
      </trkpt>
      <trkpt lat="47.4133" lon="6.70355">
        <ele>381</ele>
        <time>2015-05-17T08:24:02.000Z</time>
      </trkpt>
      <trkpt lat="47.41325" lon="6.70357">
        <ele>381</ele>
        <time>2015-05-17T08:24:03.000Z</time>
      </trkpt>
      <trkpt lat="47.41323" lon="6.70357">
        <ele>381</ele>
        <time>2015-05-17T08:24:04.000Z</time>
      </trkpt>
      <trkpt lat="47.4132" lon="6.70362">
        <ele>381</ele>
        <time>2015-05-17T08:24:05.000Z</time>
      </trkpt>
      <trkpt lat="47.41317" lon="6.70368">
        <ele>382</ele>
        <time>2015-05-17T08:24:06.000Z</time>
      </trkpt>
      <trkpt lat="47.41313" lon="6.70371">
        <ele>382</ele>
        <time>2015-05-17T08:24:07.000Z</time>
      </trkpt>
      <trkpt lat="47.4131" lon="6.70376">
        <ele>383</ele>
        <time>2015-05-17T08:24:08.000Z</time>
      </trkpt>
      <trkpt lat="47.41306" lon="6.7038">
        <ele>383</ele>
        <time>2015-05-17T08:24:09.000Z</time>
      </trkpt>
      <trkpt lat="47.41303" lon="6.70383">
        <ele>383</ele>
        <time>2015-05-17T08:24:10.000Z</time>
      </trkpt>
      <trkpt lat="47.413" lon="6.70386">
        <ele>383</ele>
        <time>2015-05-17T08:24:11.000Z</time>
      </trkpt>
      <trkpt lat="47.41297" lon="6.70388">
        <ele>383</ele>
        <time>2015-05-17T08:24:12.000Z</time>
      </trkpt>
      <trkpt lat="47.41294" lon="6.70392">
        <ele>383</ele>
        <time>2015-05-17T08:24:13.000Z</time>
      </trkpt>
      <trkpt lat="47.41291" lon="6.70396">
        <ele>383</ele>
        <time>2015-05-17T08:24:14.000Z</time>
      </trkpt>
      <trkpt lat="47.41288" lon="6.70401">
        <ele>383</ele>
        <time>2015-05-17T08:24:15.000Z</time>
      </trkpt>
      <trkpt lat="47.41285" lon="6.70405">
        <ele>382</ele>
        <time>2015-05-17T08:24:16.000Z</time>
      </trkpt>
      <trkpt lat="47.41281" lon="6.70409">
        <ele>382</ele>
        <time>2015-05-17T08:24:17.000Z</time>
      </trkpt>
      <trkpt lat="47.41278" lon="6.70411">
        <ele>382</ele>
        <time>2015-05-17T08:24:18.000Z</time>
      </trkpt>
      <trkpt lat="47.41274" lon="6.70414">
        <ele>381</ele>
        <time>2015-05-17T08:24:19.000Z</time>
      </trkpt>
      <trkpt lat="47.4127" lon="6.70423">
        <ele>387</ele>
        <time>2015-05-17T08:24:20.000Z</time>
      </trkpt>
      <trkpt lat="47.41267" lon="6.7043">
        <ele>387</ele>
        <time>2015-05-17T08:24:21.000Z</time>
      </trkpt>
      <trkpt lat="47.41263" lon="6.70432">
        <ele>386</ele>
        <time>2015-05-17T08:24:22.000Z</time>
      </trkpt>
      <trkpt lat="47.41259" lon="6.70436">
        <ele>386</ele>
        <time>2015-05-17T08:24:23.000Z</time>
      </trkpt>
      <trkpt lat="47.41256" lon="6.70439">
        <ele>387</ele>
        <time>2015-05-17T08:24:24.000Z</time>
      </trkpt>
      <trkpt lat="47.41254" lon="6.70443">
        <ele>388</ele>
        <time>2015-05-17T08:24:25.000Z</time>
      </trkpt>
      <trkpt lat="47.41252" lon="6.70448">
        <ele>388</ele>
        <time>2015-05-17T08:24:26.000Z</time>
      </trkpt>
      <trkpt lat="47.41249" lon="6.70453">
        <ele>386</ele>
        <time>2015-05-17T08:24:27.000Z</time>
      </trkpt>
      <trkpt lat="47.41246" lon="6.70456">
        <ele>387</ele>
        <time>2015-05-17T08:24:28.000Z</time>
      </trkpt>
      <trkpt lat="47.41244" lon="6.70459">
        <ele>387</ele>
        <time>2015-05-17T08:24:29.000Z</time>
      </trkpt>
      <trkpt lat="47.41241" lon="6.70462">
        <ele>388</ele>
        <time>2015-05-17T08:24:30.000Z</time>
      </trkpt>
      <trkpt lat="47.41238" lon="6.70466">
        <ele>388</ele>
        <time>2015-05-17T08:24:31.000Z</time>
      </trkpt>
      <trkpt lat="47.41235" lon="6.70469">
        <ele>388</ele>
        <time>2015-05-17T08:24:32.000Z</time>
      </trkpt>
      <trkpt lat="47.41233" lon="6.70472">
        <ele>388</ele>
        <time>2015-05-17T08:24:33.000Z</time>
      </trkpt>
      <trkpt lat="47.41231" lon="6.70476">
        <ele>389</ele>
        <time>2015-05-17T08:24:34.000Z</time>
      </trkpt>
      <trkpt lat="47.41228" lon="6.70479">
        <ele>389</ele>
        <time>2015-05-17T08:24:35.000Z</time>
      </trkpt>
      <trkpt lat="47.41226" lon="6.70481">
        <ele>389</ele>
        <time>2015-05-17T08:24:36.000Z</time>
      </trkpt>
      <trkpt lat="47.41224" lon="6.70483">
        <ele>389</ele>
        <time>2015-05-17T08:24:37.000Z</time>
      </trkpt>
      <trkpt lat="47.41221" lon="6.70486">
        <ele>389</ele>
        <time>2015-05-17T08:24:38.000Z</time>
      </trkpt>
      <trkpt lat="47.41219" lon="6.70488">
        <ele>389</ele>
        <time>2015-05-17T08:24:39.000Z</time>
      </trkpt>
      <trkpt lat="47.41217" lon="6.70491">
        <ele>390</ele>
        <time>2015-05-17T08:24:40.000Z</time>
      </trkpt>
      <trkpt lat="47.41214" lon="6.70494">
        <ele>390</ele>
        <time>2015-05-17T08:24:41.000Z</time>
      </trkpt>
      <trkpt lat="47.41212" lon="6.70498">
        <ele>390</ele>
        <time>2015-05-17T08:24:42.000Z</time>
      </trkpt>
      <trkpt lat="47.4121" lon="6.70502">
        <ele>394</ele>
        <time>2015-05-17T08:24:43.000Z</time>
      </trkpt>
      <trkpt lat="47.41207" lon="6.70506">
        <ele>394</ele>
        <time>2015-05-17T08:24:44.000Z</time>
      </trkpt>
      <trkpt lat="47.41206" lon="6.70524">
        <ele>395</ele>
        <time>2015-05-17T08:24:45.000Z</time>
      </trkpt>
      <trkpt lat="47.41205" lon="6.70532">
        <ele>395</ele>
        <time>2015-05-17T08:24:46.000Z</time>
      </trkpt>
      <trkpt lat="47.41202" lon="6.70538">
        <ele>395</ele>
        <time>2015-05-17T08:24:47.000Z</time>
      </trkpt>
      <trkpt lat="47.41199" lon="6.70546">
        <ele>395</ele>
        <time>2015-05-17T08:24:48.000Z</time>
      </trkpt>
      <trkpt lat="47.41199" lon="6.70557">
        <ele>396</ele>
        <time>2015-05-17T08:24:49.000Z</time>
      </trkpt>
      <trkpt lat="47.41198" lon="6.70567">
        <ele>396</ele>
        <time>2015-05-17T08:24:50.000Z</time>
      </trkpt>
      <trkpt lat="47.41197" lon="6.70573">
        <ele>396</ele>
        <time>2015-05-17T08:24:51.000Z</time>
      </trkpt>
      <trkpt lat="47.41194" lon="6.70578">
        <ele>396</ele>
        <time>2015-05-17T08:24:52.000Z</time>
      </trkpt>
      <trkpt lat="47.41192" lon="6.70584">
        <ele>400</ele>
        <time>2015-05-17T08:24:53.000Z</time>
      </trkpt>
      <trkpt lat="47.41188" lon="6.70591">
        <ele>399</ele>
        <time>2015-05-17T08:24:54.000Z</time>
      </trkpt>
      <trkpt lat="47.41186" lon="6.70597">
        <ele>399</ele>
        <time>2015-05-17T08:24:55.000Z</time>
      </trkpt>
      <trkpt lat="47.41185" lon="6.70603">
        <ele>400</ele>
        <time>2015-05-17T08:24:56.000Z</time>
      </trkpt>
      <trkpt lat="47.41183" lon="6.70608">
        <ele>400</ele>
        <time>2015-05-17T08:24:57.000Z</time>
      </trkpt>
      <trkpt lat="47.4118" lon="6.70614">
        <ele>400</ele>
        <time>2015-05-17T08:24:58.000Z</time>
      </trkpt>
      <trkpt lat="47.41178" lon="6.7062">
        <ele>400</ele>
        <time>2015-05-17T08:24:59.000Z</time>
      </trkpt>
      <trkpt lat="47.41174" lon="6.70624">
        <ele>400</ele>
        <time>2015-05-17T08:25:00.000Z</time>
      </trkpt>
      <trkpt lat="47.41171" lon="6.7063">
        <ele>400</ele>
        <time>2015-05-17T08:25:01.000Z</time>
      </trkpt>
      <trkpt lat="47.41168" lon="6.70634">
        <ele>400</ele>
        <time>2015-05-17T08:25:02.000Z</time>
      </trkpt>
      <trkpt lat="47.41161" lon="6.70641">
        <ele>401</ele>
        <time>2015-05-17T08:25:03.000Z</time>
      </trkpt>
      <trkpt lat="47.4116" lon="6.70648">
        <ele>400</ele>
        <time>2015-05-17T08:25:04.000Z</time>
      </trkpt>
      <trkpt lat="47.41158" lon="6.70653">
        <ele>400</ele>
        <time>2015-05-17T08:25:05.000Z</time>
      </trkpt>
      <trkpt lat="47.41156" lon="6.70656">
        <ele>400</ele>
        <time>2015-05-17T08:25:06.000Z</time>
      </trkpt>
      <trkpt lat="47.41153" lon="6.70661">
        <ele>400</ele>
        <time>2015-05-17T08:25:07.000Z</time>
      </trkpt>
      <trkpt lat="47.4115" lon="6.70664">
        <ele>401</ele>
        <time>2015-05-17T08:25:08.000Z</time>
      </trkpt>
      <trkpt lat="47.41147" lon="6.7067">
        <ele>400</ele>
        <time>2015-05-17T08:25:09.000Z</time>
      </trkpt>
      <trkpt lat="47.41147" lon="6.70673">
        <ele>401</ele>
        <time>2015-05-17T08:25:10.000Z</time>
      </trkpt>
      <trkpt lat="47.41144" lon="6.70677">
        <ele>401</ele>
        <time>2015-05-17T08:25:11.000Z</time>
      </trkpt>
      <trkpt lat="47.41141" lon="6.7068">
        <ele>401</ele>
        <time>2015-05-17T08:25:12.000Z</time>
      </trkpt>
      <trkpt lat="47.41139" lon="6.70683">
        <ele>402</ele>
        <time>2015-05-17T08:25:13.000Z</time>
      </trkpt>
      <trkpt lat="47.41136" lon="6.70685">
        <ele>402</ele>
        <time>2015-05-17T08:25:14.000Z</time>
      </trkpt>
      <trkpt lat="47.41134" lon="6.70688">
        <ele>402</ele>
        <time>2015-05-17T08:25:15.000Z</time>
      </trkpt>
      <trkpt lat="47.41132" lon="6.7069">
        <ele>402</ele>
        <time>2015-05-17T08:25:16.000Z</time>
      </trkpt>
      <trkpt lat="47.41129" lon="6.70694">
        <ele>402</ele>
        <time>2015-05-17T08:25:17.000Z</time>
      </trkpt>
      <trkpt lat="47.41128" lon="6.70699">
        <ele>402</ele>
        <time>2015-05-17T08:25:18.000Z</time>
      </trkpt>
      <trkpt lat="47.41126" lon="6.70705">
        <ele>402</ele>
        <time>2015-05-17T08:25:19.000Z</time>
      </trkpt>
      <trkpt lat="47.41125" lon="6.7071">
        <ele>402</ele>
        <time>2015-05-17T08:25:20.000Z</time>
      </trkpt>
      <trkpt lat="47.41123" lon="6.70714">
        <ele>402</ele>
        <time>2015-05-17T08:25:21.000Z</time>
      </trkpt>
      <trkpt lat="47.41121" lon="6.70719">
        <ele>402</ele>
        <time>2015-05-17T08:25:22.000Z</time>
      </trkpt>
      <trkpt lat="47.4112" lon="6.70723">
        <ele>402</ele>
        <time>2015-05-17T08:25:23.000Z</time>
      </trkpt>
      <trkpt lat="47.41118" lon="6.70729">
        <ele>402</ele>
        <time>2015-05-17T08:25:24.000Z</time>
      </trkpt>
      <trkpt lat="47.41115" lon="6.70735">
        <ele>401</ele>
        <time>2015-05-17T08:25:25.000Z</time>
      </trkpt>
      <trkpt lat="47.41113" lon="6.70741">
        <ele>401</ele>
        <time>2015-05-17T08:25:26.000Z</time>
      </trkpt>
      <trkpt lat="47.41111" lon="6.70748">
        <ele>401</ele>
        <time>2015-05-17T08:25:27.000Z</time>
      </trkpt>
      <trkpt lat="47.41108" lon="6.70754">
        <ele>399</ele>
        <time>2015-05-17T08:25:28.000Z</time>
      </trkpt>
      <trkpt lat="47.41106" lon="6.7076">
        <ele>399</ele>
        <time>2015-05-17T08:25:29.000Z</time>
      </trkpt>
      <trkpt lat="47.41103" lon="6.70767">
        <ele>399</ele>
        <time>2015-05-17T08:25:30.000Z</time>
      </trkpt>
      <trkpt lat="47.41101" lon="6.70774">
        <ele>398</ele>
        <time>2015-05-17T08:25:31.000Z</time>
      </trkpt>
      <trkpt lat="47.41098" lon="6.7078">
        <ele>398</ele>
        <time>2015-05-17T08:25:32.000Z</time>
      </trkpt>
      <trkpt lat="47.41096" lon="6.70788">
        <ele>398</ele>
        <time>2015-05-17T08:25:33.000Z</time>
      </trkpt>
      <trkpt lat="47.41095" lon="6.70796">
        <ele>397</ele>
        <time>2015-05-17T08:25:34.000Z</time>
      </trkpt>
      <trkpt lat="47.41094" lon="6.70813">
        <ele>395</ele>
        <time>2015-05-17T08:25:35.000Z</time>
      </trkpt>
      <trkpt lat="47.41091" lon="6.70818">
        <ele>394</ele>
        <time>2015-05-17T08:25:36.000Z</time>
      </trkpt>
      <trkpt lat="47.4109" lon="6.70825">
        <ele>392</ele>
        <time>2015-05-17T08:25:37.000Z</time>
      </trkpt>
      <trkpt lat="47.41088" lon="6.70832">
        <ele>390</ele>
        <time>2015-05-17T08:25:38.000Z</time>
      </trkpt>
      <trkpt lat="47.41086" lon="6.70838">
        <ele>391</ele>
        <time>2015-05-17T08:25:39.000Z</time>
      </trkpt>
      <trkpt lat="47.41084" lon="6.70845">
        <ele>393</ele>
        <time>2015-05-17T08:25:40.000Z</time>
      </trkpt>
      <trkpt lat="47.41083" lon="6.70852">
        <ele>393</ele>
        <time>2015-05-17T08:25:41.000Z</time>
      </trkpt>
      <trkpt lat="47.41081" lon="6.70862">
        <ele>394</ele>
        <time>2015-05-17T08:25:42.000Z</time>
      </trkpt>
      <trkpt lat="47.41079" lon="6.70867">
        <ele>395</ele>
        <time>2015-05-17T08:25:43.000Z</time>
      </trkpt>
      <trkpt lat="47.41081" lon="6.70876">
        <ele>395</ele>
        <time>2015-05-17T08:25:44.000Z</time>
      </trkpt>
      <trkpt lat="47.4108" lon="6.70884">
        <ele>395</ele>
        <time>2015-05-17T08:25:45.000Z</time>
      </trkpt>
      <trkpt lat="47.41078" lon="6.7089">
        <ele>395</ele>
        <time>2015-05-17T08:25:46.000Z</time>
      </trkpt>
      <trkpt lat="47.41077" lon="6.70895">
        <ele>395</ele>
        <time>2015-05-17T08:25:47.000Z</time>
      </trkpt>
      <trkpt lat="47.41075" lon="6.70902">
        <ele>394</ele>
        <time>2015-05-17T08:25:48.000Z</time>
      </trkpt>
      <trkpt lat="47.41075" lon="6.7091">
        <ele>394</ele>
        <time>2015-05-17T08:25:49.000Z</time>
      </trkpt>
      <trkpt lat="47.41069" lon="6.70909">
        <ele>395</ele>
        <time>2015-05-17T08:25:50.000Z</time>
      </trkpt>
      <trkpt lat="47.41067" lon="6.70913">
        <ele>395</ele>
        <time>2015-05-17T08:25:51.000Z</time>
      </trkpt>
      <trkpt lat="47.41066" lon="6.70917">
        <ele>395</ele>
        <time>2015-05-17T08:25:52.000Z</time>
      </trkpt>
      <trkpt lat="47.41065" lon="6.70922">
        <ele>395</ele>
        <time>2015-05-17T08:25:53.000Z</time>
      </trkpt>
      <trkpt lat="47.41065" lon="6.70927">
        <ele>395</ele>
        <time>2015-05-17T08:25:54.000Z</time>
      </trkpt>
      <trkpt lat="47.41064" lon="6.70932">
        <ele>395</ele>
        <time>2015-05-17T08:25:55.000Z</time>
      </trkpt>
      <trkpt lat="47.41064" lon="6.70937">
        <ele>396</ele>
        <time>2015-05-17T08:25:56.000Z</time>
      </trkpt>
      <trkpt lat="47.41066" lon="6.70942">
        <ele>396</ele>
        <time>2015-05-17T08:25:57.000Z</time>
      </trkpt>
      <trkpt lat="47.41065" lon="6.70947">
        <ele>396</ele>
        <time>2015-05-17T08:25:58.000Z</time>
      </trkpt>
      <trkpt lat="47.41066" lon="6.70952">
        <ele>396</ele>
        <time>2015-05-17T08:25:59.000Z</time>
      </trkpt>
      <trkpt lat="47.41066" lon="6.70957">
        <ele>396</ele>
        <time>2015-05-17T08:26:00.000Z</time>
      </trkpt>
      <trkpt lat="47.41066" lon="6.70962">
        <ele>397</ele>
        <time>2015-05-17T08:26:01.000Z</time>
      </trkpt>
      <trkpt lat="47.41064" lon="6.70968">
        <ele>397</ele>
        <time>2015-05-17T08:26:02.000Z</time>
      </trkpt>
      <trkpt lat="47.41064" lon="6.70973">
        <ele>397</ele>
        <time>2015-05-17T08:26:03.000Z</time>
      </trkpt>
      <trkpt lat="47.41063" lon="6.70978">
        <ele>397</ele>
        <time>2015-05-17T08:26:04.000Z</time>
      </trkpt>
      <trkpt lat="47.41061" lon="6.70983">
        <ele>397</ele>
        <time>2015-05-17T08:26:05.000Z</time>
      </trkpt>
      <trkpt lat="47.41059" lon="6.70988">
        <ele>398</ele>
        <time>2015-05-17T08:26:06.000Z</time>
      </trkpt>
      <trkpt lat="47.41058" lon="6.70992">
        <ele>398</ele>
        <time>2015-05-17T08:26:07.000Z</time>
      </trkpt>
      <trkpt lat="47.41056" lon="6.70996">
        <ele>398</ele>
        <time>2015-05-17T08:26:08.000Z</time>
      </trkpt>
      <trkpt lat="47.41055" lon="6.70999">
        <ele>398</ele>
        <time>2015-05-17T08:26:09.000Z</time>
      </trkpt>
      <trkpt lat="47.41053" lon="6.71002">
        <ele>400</ele>
        <time>2015-05-17T08:26:10.000Z</time>
      </trkpt>
      <trkpt lat="47.41052" lon="6.71005">
        <ele>400</ele>
        <time>2015-05-17T08:26:11.000Z</time>
      </trkpt>
      <trkpt lat="47.4105" lon="6.71009">
        <ele>400</ele>
        <time>2015-05-17T08:26:12.000Z</time>
      </trkpt>
      <trkpt lat="47.41049" lon="6.71013">
        <ele>400</ele>
        <time>2015-05-17T08:26:13.000Z</time>
      </trkpt>
      <trkpt lat="47.41048" lon="6.71017">
        <ele>400</ele>
        <time>2015-05-17T08:26:14.000Z</time>
      </trkpt>
      <trkpt lat="47.41046" lon="6.71021">
        <ele>400</ele>
        <time>2015-05-17T08:26:15.000Z</time>
      </trkpt>
      <trkpt lat="47.41045" lon="6.71026">
        <ele>400</ele>
        <time>2015-05-17T08:26:16.000Z</time>
      </trkpt>
      <trkpt lat="47.41043" lon="6.71031">
        <ele>400</ele>
        <time>2015-05-17T08:26:17.000Z</time>
      </trkpt>
      <trkpt lat="47.41041" lon="6.71036">
        <ele>400</ele>
        <time>2015-05-17T08:26:18.000Z</time>
      </trkpt>
      <trkpt lat="47.41038" lon="6.71042">
        <ele>400</ele>
        <time>2015-05-17T08:26:19.000Z</time>
      </trkpt>
      <trkpt lat="47.41037" lon="6.71047">
        <ele>400</ele>
        <time>2015-05-17T08:26:20.000Z</time>
      </trkpt>
      <trkpt lat="47.41036" lon="6.71053">
        <ele>400</ele>
        <time>2015-05-17T08:26:21.000Z</time>
      </trkpt>
      <trkpt lat="47.41035" lon="6.71059">
        <ele>400</ele>
        <time>2015-05-17T08:26:22.000Z</time>
      </trkpt>
      <trkpt lat="47.41034" lon="6.71065">
        <ele>400</ele>
        <time>2015-05-17T08:26:23.000Z</time>
      </trkpt>
      <trkpt lat="47.41032" lon="6.7107">
        <ele>400</ele>
        <time>2015-05-17T08:26:24.000Z</time>
      </trkpt>
      <trkpt lat="47.41031" lon="6.71075">
        <ele>400</ele>
        <time>2015-05-17T08:26:25.000Z</time>
      </trkpt>
      <trkpt lat="47.4103" lon="6.71079">
        <ele>400</ele>
        <time>2015-05-17T08:26:26.000Z</time>
      </trkpt>
      <trkpt lat="47.41029" lon="6.71084">
        <ele>403</ele>
        <time>2015-05-17T08:26:27.000Z</time>
      </trkpt>
      <trkpt lat="47.41028" lon="6.71088">
        <ele>403</ele>
        <time>2015-05-17T08:26:28.000Z</time>
      </trkpt>
      <trkpt lat="47.41026" lon="6.71093">
        <ele>403</ele>
        <time>2015-05-17T08:26:29.000Z</time>
      </trkpt>
      <trkpt lat="47.41025" lon="6.71098">
        <ele>403</ele>
        <time>2015-05-17T08:26:30.000Z</time>
      </trkpt>
      <trkpt lat="47.41024" lon="6.71103">
        <ele>403</ele>
        <time>2015-05-17T08:26:31.000Z</time>
      </trkpt>
      <trkpt lat="47.41023" lon="6.71108">
        <ele>403</ele>
        <time>2015-05-17T08:26:32.000Z</time>
      </trkpt>
      <trkpt lat="47.41022" lon="6.71114">
        <ele>404</ele>
        <time>2015-05-17T08:26:33.000Z</time>
      </trkpt>
      <trkpt lat="47.4102" lon="6.7112">
        <ele>404</ele>
        <time>2015-05-17T08:26:34.000Z</time>
      </trkpt>
      <trkpt lat="47.41019" lon="6.71126">
        <ele>404</ele>
        <time>2015-05-17T08:26:35.000Z</time>
      </trkpt>
      <trkpt lat="47.41018" lon="6.71133">
        <ele>404</ele>
        <time>2015-05-17T08:26:36.000Z</time>
      </trkpt>
      <trkpt lat="47.4102" lon="6.71151">
        <ele>403</ele>
        <time>2015-05-17T08:26:38.000Z</time>
      </trkpt>
      <trkpt lat="47.41019" lon="6.71157">
        <ele>403</ele>
        <time>2015-05-17T08:26:39.000Z</time>
      </trkpt>
      <trkpt lat="47.41016" lon="6.71163">
        <ele>401</ele>
        <time>2015-05-17T08:26:40.000Z</time>
      </trkpt>
      <trkpt lat="47.41014" lon="6.71169">
        <ele>403</ele>
        <time>2015-05-17T08:26:41.000Z</time>
      </trkpt>
      <trkpt lat="47.41013" lon="6.71174">
        <ele>403</ele>
        <time>2015-05-17T08:26:42.000Z</time>
      </trkpt>
      <trkpt lat="47.41011" lon="6.7118">
        <ele>404</ele>
        <time>2015-05-17T08:26:43.000Z</time>
      </trkpt>
      <trkpt lat="47.4101" lon="6.71185">
        <ele>405</ele>
        <time>2015-05-17T08:26:44.000Z</time>
      </trkpt>
      <trkpt lat="47.41008" lon="6.71191">
        <ele>406</ele>
        <time>2015-05-17T08:26:45.000Z</time>
      </trkpt>
      <trkpt lat="47.41007" lon="6.71198">
        <ele>406</ele>
        <time>2015-05-17T08:26:46.000Z</time>
      </trkpt>
      <trkpt lat="47.41005" lon="6.71202">
        <ele>407</ele>
        <time>2015-05-17T08:26:47.000Z</time>
      </trkpt>
      <trkpt lat="47.41004" lon="6.71208">
        <ele>407</ele>
        <time>2015-05-17T08:26:48.000Z</time>
      </trkpt>
      <trkpt lat="47.41002" lon="6.71213">
        <ele>407</ele>
        <time>2015-05-17T08:26:49.000Z</time>
      </trkpt>
      <trkpt lat="47.41001" lon="6.71217">
        <ele>407</ele>
        <time>2015-05-17T08:26:50.000Z</time>
      </trkpt>
      <trkpt lat="47.40999" lon="6.71222">
        <ele>401</ele>
        <time>2015-05-17T08:26:51.000Z</time>
      </trkpt>
      <trkpt lat="47.40997" lon="6.71227">
        <ele>401</ele>
        <time>2015-05-17T08:26:52.000Z</time>
      </trkpt>
      <trkpt lat="47.40996" lon="6.71231">
        <ele>401</ele>
        <time>2015-05-17T08:26:53.000Z</time>
      </trkpt>
      <trkpt lat="47.40995" lon="6.71236">
        <ele>401</ele>
        <time>2015-05-17T08:26:54.000Z</time>
      </trkpt>
      <trkpt lat="47.40994" lon="6.7124">
        <ele>401</ele>
        <time>2015-05-17T08:26:55.000Z</time>
      </trkpt>
      <trkpt lat="47.40992" lon="6.71245">
        <ele>401</ele>
        <time>2015-05-17T08:26:56.000Z</time>
      </trkpt>
      <trkpt lat="47.40991" lon="6.71251">
        <ele>402</ele>
        <time>2015-05-17T08:26:57.000Z</time>
      </trkpt>
      <trkpt lat="47.4099" lon="6.71257">
        <ele>403</ele>
        <time>2015-05-17T08:26:58.000Z</time>
      </trkpt>
      <trkpt lat="47.40989" lon="6.71262">
        <ele>403</ele>
        <time>2015-05-17T08:26:59.000Z</time>
      </trkpt>
      <trkpt lat="47.40987" lon="6.71266">
        <ele>404</ele>
        <time>2015-05-17T08:27:00.000Z</time>
      </trkpt>
      <trkpt lat="47.40986" lon="6.7127">
        <ele>404</ele>
        <time>2015-05-17T08:27:01.000Z</time>
      </trkpt>
      <trkpt lat="47.40984" lon="6.71273">
        <ele>404</ele>
        <time>2015-05-17T08:27:02.000Z</time>
      </trkpt>
      <trkpt lat="47.40982" lon="6.71279">
        <ele>405</ele>
        <time>2015-05-17T08:27:04.000Z</time>
      </trkpt>
      <trkpt lat="47.40982" lon="6.71281">
        <ele>405</ele>
        <time>2015-05-17T08:27:05.000Z</time>
      </trkpt>
      <trkpt lat="47.40982" lon="6.71286">
        <ele>405</ele>
        <time>2015-05-17T08:27:10.000Z</time>
      </trkpt>
      <trkpt lat="47.40981" lon="6.71287">
        <ele>405</ele>
        <time>2015-05-17T08:27:11.000Z</time>
      </trkpt>
      <trkpt lat="47.40977" lon="6.7129">
        <ele>406</ele>
        <time>2015-05-17T08:27:14.000Z</time>
      </trkpt>
      <trkpt lat="47.40976" lon="6.71291">
        <ele>406</ele>
        <time>2015-05-17T08:27:15.000Z</time>
      </trkpt>
      <trkpt lat="47.40974" lon="6.71297">
        <ele>406</ele>
        <time>2015-05-17T08:27:18.000Z</time>
      </trkpt>
      <trkpt lat="47.40973" lon="6.71299">
        <ele>406</ele>
        <time>2015-05-17T08:27:19.000Z</time>
      </trkpt>
      <trkpt lat="47.40971" lon="6.71303">
        <ele>406</ele>
        <time>2015-05-17T08:27:22.000Z</time>
      </trkpt>
      <trkpt lat="47.40971" lon="6.71305">
        <ele>406</ele>
        <time>2015-05-17T08:27:23.000Z</time>
      </trkpt>
      <trkpt lat="47.40969" lon="6.71311">
        <ele>407</ele>
        <time>2015-05-17T08:27:25.000Z</time>
      </trkpt>
      <trkpt lat="47.40968" lon="6.71314">
        <ele>407</ele>
        <time>2015-05-17T08:27:26.000Z</time>
      </trkpt>
      <trkpt lat="47.40967" lon="6.71318">
        <ele>407</ele>
        <time>2015-05-17T08:27:28.000Z</time>
      </trkpt>
      <trkpt lat="47.40966" lon="6.7132">
        <ele>407</ele>
        <time>2015-05-17T08:27:29.000Z</time>
      </trkpt>
      <trkpt lat="47.40965" lon="6.71325">
        <ele>407</ele>
        <time>2015-05-17T08:27:36.000Z</time>
      </trkpt>
      <trkpt lat="47.40964" lon="6.71327">
        <ele>407</ele>
        <time>2015-05-17T08:27:37.000Z</time>
      </trkpt>
      <trkpt lat="47.40964" lon="6.71332">
        <ele>407</ele>
        <time>2015-05-17T08:27:39.000Z</time>
      </trkpt>
      <trkpt lat="47.40963" lon="6.71335">
        <ele>408</ele>
        <time>2015-05-17T08:27:40.000Z</time>
      </trkpt>
      <trkpt lat="47.40962" lon="6.7134">
        <ele>408</ele>
        <time>2015-05-17T08:27:41.000Z</time>
      </trkpt>
      <trkpt lat="47.40962" lon="6.71345">
        <ele>408</ele>
        <time>2015-05-17T08:27:42.000Z</time>
      </trkpt>
      <trkpt lat="47.40962" lon="6.7135">
        <ele>408</ele>
        <time>2015-05-17T08:27:43.000Z</time>
      </trkpt>
      <trkpt lat="47.40962" lon="6.71355">
        <ele>409</ele>
        <time>2015-05-17T08:27:44.000Z</time>
      </trkpt>
      <trkpt lat="47.40962" lon="6.7136">
        <ele>409</ele>
        <time>2015-05-17T08:27:45.000Z</time>
      </trkpt>
      <trkpt lat="47.40962" lon="6.71364">
        <ele>409</ele>
        <time>2015-05-17T08:27:46.000Z</time>
      </trkpt>
      <trkpt lat="47.40962" lon="6.71368">
        <ele>409</ele>
        <time>2015-05-17T08:27:47.000Z</time>
      </trkpt>
      <trkpt lat="47.40962" lon="6.71372">
        <ele>409</ele>
        <time>2015-05-17T08:27:48.000Z</time>
      </trkpt>
      <trkpt lat="47.40962" lon="6.71375">
        <ele>409</ele>
        <time>2015-05-17T08:27:49.000Z</time>
      </trkpt>
      <trkpt lat="47.40961" lon="6.71379">
        <ele>409</ele>
        <time>2015-05-17T08:27:50.000Z</time>
      </trkpt>
      <trkpt lat="47.40961" lon="6.71382">
        <ele>409</ele>
        <time>2015-05-17T08:27:51.000Z</time>
      </trkpt>
      <trkpt lat="47.40961" lon="6.71386">
        <ele>409</ele>
        <time>2015-05-17T08:27:52.000Z</time>
      </trkpt>
      <trkpt lat="47.40962" lon="6.71389">
        <ele>409</ele>
        <time>2015-05-17T08:27:53.000Z</time>
      </trkpt>
      <trkpt lat="47.40962" lon="6.71393">
        <ele>409</ele>
        <time>2015-05-17T08:27:54.000Z</time>
      </trkpt>
      <trkpt lat="47.40963" lon="6.71397">
        <ele>409</ele>
        <time>2015-05-17T08:27:55.000Z</time>
      </trkpt>
      <trkpt lat="47.40962" lon="6.714">
        <ele>409</ele>
        <time>2015-05-17T08:27:56.000Z</time>
      </trkpt>
      <trkpt lat="47.40961" lon="6.71407">
        <ele>409</ele>
        <time>2015-05-17T08:27:58.000Z</time>
      </trkpt>
      <trkpt lat="47.40961" lon="6.7141">
        <ele>409</ele>
        <time>2015-05-17T08:27:59.000Z</time>
      </trkpt>
      <trkpt lat="47.4096" lon="6.71415">
        <ele>409</ele>
        <time>2015-05-17T08:28:00.000Z</time>
      </trkpt>
      <trkpt lat="47.4096" lon="6.71419">
        <ele>409</ele>
        <time>2015-05-17T08:28:01.000Z</time>
      </trkpt>
      <trkpt lat="47.4096" lon="6.71422">
        <ele>409</ele>
        <time>2015-05-17T08:28:02.000Z</time>
      </trkpt>
      <trkpt lat="47.4096" lon="6.71425">
        <ele>409</ele>
        <time>2015-05-17T08:28:03.000Z</time>
      </trkpt>
      <trkpt lat="47.4096" lon="6.71428">
        <ele>409</ele>
        <time>2015-05-17T08:28:04.000Z</time>
      </trkpt>
      <trkpt lat="47.4096" lon="6.71432">
        <ele>409</ele>
        <time>2015-05-17T08:28:05.000Z</time>
      </trkpt>
      <trkpt lat="47.4096" lon="6.71436">
        <ele>409</ele>
        <time>2015-05-17T08:28:06.000Z</time>
      </trkpt>
      <trkpt lat="47.40959" lon="6.71441">
        <ele>410</ele>
        <time>2015-05-17T08:28:07.000Z</time>
      </trkpt>
      <trkpt lat="47.40958" lon="6.71446">
        <ele>410</ele>
        <time>2015-05-17T08:28:08.000Z</time>
      </trkpt>
      <trkpt lat="47.40957" lon="6.71452">
        <ele>410</ele>
        <time>2015-05-17T08:28:09.000Z</time>
      </trkpt>
      <trkpt lat="47.40956" lon="6.71457">
        <ele>410</ele>
        <time>2015-05-17T08:28:10.000Z</time>
      </trkpt>
      <trkpt lat="47.40955" lon="6.71462">
        <ele>410</ele>
        <time>2015-05-17T08:28:11.000Z</time>
      </trkpt>
      <trkpt lat="47.40954" lon="6.71467">
        <ele>410</ele>
        <time>2015-05-17T08:28:12.000Z</time>
      </trkpt>
      <trkpt lat="47.40954" lon="6.71473">
        <ele>410</ele>
        <time>2015-05-17T08:28:13.000Z</time>
      </trkpt>
      <trkpt lat="47.40953" lon="6.71478">
        <ele>410</ele>
        <time>2015-05-17T08:28:14.000Z</time>
      </trkpt>
      <trkpt lat="47.40954" lon="6.71484">
        <ele>410</ele>
        <time>2015-05-17T08:28:15.000Z</time>
      </trkpt>
      <trkpt lat="47.40955" lon="6.71489">
        <ele>410</ele>
        <time>2015-05-17T08:28:16.000Z</time>
      </trkpt>
      <trkpt lat="47.40956" lon="6.71493">
        <ele>410</ele>
        <time>2015-05-17T08:28:17.000Z</time>
      </trkpt>
      <trkpt lat="47.40957" lon="6.71496">
        <ele>410</ele>
        <time>2015-05-17T08:28:18.000Z</time>
      </trkpt>
      <trkpt lat="47.4096" lon="6.71501">
        <ele>411</ele>
        <time>2015-05-17T08:28:19.000Z</time>
      </trkpt>
      <trkpt lat="47.40962" lon="6.71506">
        <ele>411</ele>
        <time>2015-05-17T08:28:20.000Z</time>
      </trkpt>
      <trkpt lat="47.40964" lon="6.71511">
        <ele>411</ele>
        <time>2015-05-17T08:28:21.000Z</time>
      </trkpt>
      <trkpt lat="47.40965" lon="6.71516">
        <ele>411</ele>
        <time>2015-05-17T08:28:22.000Z</time>
      </trkpt>
      <trkpt lat="47.40965" lon="6.7152">
        <ele>411</ele>
        <time>2015-05-17T08:28:23.000Z</time>
      </trkpt>
      <trkpt lat="47.40965" lon="6.71524">
        <ele>411</ele>
        <time>2015-05-17T08:28:24.000Z</time>
      </trkpt>
      <trkpt lat="47.40964" lon="6.71528">
        <ele>411</ele>
        <time>2015-05-17T08:28:25.000Z</time>
      </trkpt>
      <trkpt lat="47.40964" lon="6.71532">
        <ele>411</ele>
        <time>2015-05-17T08:28:26.000Z</time>
      </trkpt>
      <trkpt lat="47.40964" lon="6.71536">
        <ele>411</ele>
        <time>2015-05-17T08:28:27.000Z</time>
      </trkpt>
      <trkpt lat="47.40963" lon="6.71541">
        <ele>411</ele>
        <time>2015-05-17T08:28:29.000Z</time>
      </trkpt>
      <trkpt lat="47.40962" lon="6.71543">
        <ele>411</ele>
        <time>2015-05-17T08:28:30.000Z</time>
      </trkpt>
      <trkpt lat="47.40959" lon="6.71547">
        <ele>411</ele>
        <time>2015-05-17T08:28:34.000Z</time>
      </trkpt>
      <trkpt lat="47.40959" lon="6.71548">
        <ele>411</ele>
        <time>2015-05-17T08:28:35.000Z</time>
      </trkpt>
      <trkpt lat="47.40956" lon="6.71554">
        <ele>411</ele>
        <time>2015-05-17T08:28:37.000Z</time>
      </trkpt>
      <trkpt lat="47.40955" lon="6.71559">
        <ele>411</ele>
        <time>2015-05-17T08:28:38.000Z</time>
      </trkpt>
      <trkpt lat="47.40953" lon="6.71563">
        <ele>411</ele>
        <time>2015-05-17T08:28:39.000Z</time>
      </trkpt>
      <trkpt lat="47.40952" lon="6.71567">
        <ele>411</ele>
        <time>2015-05-17T08:28:40.000Z</time>
      </trkpt>
      <trkpt lat="47.40951" lon="6.71572">
        <ele>411</ele>
        <time>2015-05-17T08:28:42.000Z</time>
      </trkpt>
      <trkpt lat="47.4095" lon="6.71573">
        <ele>410</ele>
        <time>2015-05-17T08:28:43.000Z</time>
      </trkpt>
      <trkpt lat="47.40948" lon="6.71578">
        <ele>410</ele>
        <time>2015-05-17T08:28:45.000Z</time>
      </trkpt>
      <trkpt lat="47.40947" lon="6.71581">
        <ele>410</ele>
        <time>2015-05-17T08:28:46.000Z</time>
      </trkpt>
      <trkpt lat="47.40945" lon="6.71585">
        <ele>412</ele>
        <time>2015-05-17T08:28:48.000Z</time>
      </trkpt>
      <trkpt lat="47.40944" lon="6.71587">
        <ele>412</ele>
        <time>2015-05-17T08:28:49.000Z</time>
      </trkpt>
      <trkpt lat="47.40942" lon="6.7159">
        <ele>412</ele>
        <time>2015-05-17T08:28:51.000Z</time>
      </trkpt>
      <trkpt lat="47.4094" lon="6.71592">
        <ele>412</ele>
        <time>2015-05-17T08:28:52.000Z</time>
      </trkpt>
      <trkpt lat="47.40938" lon="6.71595">
        <ele>412</ele>
        <time>2015-05-17T08:28:54.000Z</time>
      </trkpt>
      <trkpt lat="47.40937" lon="6.71596">
        <ele>412</ele>
        <time>2015-05-17T08:28:55.000Z</time>
      </trkpt>
      <trkpt lat="47.40933" lon="6.71596">
        <ele>412</ele>
        <time>2015-05-17T08:28:57.000Z</time>
      </trkpt>
      <trkpt lat="47.40932" lon="6.71596">
        <ele>411</ele>
        <time>2015-05-17T08:28:58.000Z</time>
      </trkpt>
      <trkpt lat="47.40929" lon="6.71597">
        <ele>411</ele>
        <time>2015-05-17T08:29:00.000Z</time>
      </trkpt>
      <trkpt lat="47.40927" lon="6.71598">
        <ele>411</ele>
        <time>2015-05-17T08:29:01.000Z</time>
      </trkpt>
      <trkpt lat="47.40924" lon="6.71602">
        <ele>411</ele>
        <time>2015-05-17T08:29:03.000Z</time>
      </trkpt>
      <trkpt lat="47.40923" lon="6.71604">
        <ele>411</ele>
        <time>2015-05-17T08:29:04.000Z</time>
      </trkpt>
      <trkpt lat="47.4092" lon="6.7161">
        <ele>412</ele>
        <time>2015-05-17T08:29:06.000Z</time>
      </trkpt>
      <trkpt lat="47.40919" lon="6.71612">
        <ele>412</ele>
        <time>2015-05-17T08:29:07.000Z</time>
      </trkpt>
      <trkpt lat="47.40917" lon="6.71617">
        <ele>412</ele>
        <time>2015-05-17T08:29:09.000Z</time>
      </trkpt>
      <trkpt lat="47.40916" lon="6.7162">
        <ele>417</ele>
        <time>2015-05-17T08:29:10.000Z</time>
      </trkpt>
      <trkpt lat="47.40914" lon="6.71626">
        <ele>417</ele>
        <time>2015-05-17T08:29:12.000Z</time>
      </trkpt>
      <trkpt lat="47.40912" lon="6.71628">
        <ele>417</ele>
        <time>2015-05-17T08:29:13.000Z</time>
      </trkpt>
      <trkpt lat="47.40911" lon="6.71631">
        <ele>418</ele>
        <time>2015-05-17T08:29:14.000Z</time>
      </trkpt>
      <trkpt lat="47.40908" lon="6.71633">
        <ele>418</ele>
        <time>2015-05-17T08:29:15.000Z</time>
      </trkpt>
      <trkpt lat="47.40906" lon="6.71636">
        <ele>418</ele>
        <time>2015-05-17T08:29:17.000Z</time>
      </trkpt>
      <trkpt lat="47.40904" lon="6.71637">
        <ele>418</ele>
        <time>2015-05-17T08:29:18.000Z</time>
      </trkpt>
      <trkpt lat="47.40902" lon="6.71639">
        <ele>418</ele>
        <time>2015-05-17T08:29:20.000Z</time>
      </trkpt>
      <trkpt lat="47.409" lon="6.7164">
        <ele>418</ele>
        <time>2015-05-17T08:29:21.000Z</time>
      </trkpt>
      <trkpt lat="47.40897" lon="6.71644">
        <ele>418</ele>
        <time>2015-05-17T08:29:23.000Z</time>
      </trkpt>
      <trkpt lat="47.40896" lon="6.71646">
        <ele>418</ele>
        <time>2015-05-17T08:29:24.000Z</time>
      </trkpt>
      <trkpt lat="47.40892" lon="6.7165">
        <ele>418</ele>
        <time>2015-05-17T08:29:26.000Z</time>
      </trkpt>
      <trkpt lat="47.40891" lon="6.71653">
        <ele>419</ele>
        <time>2015-05-17T08:29:27.000Z</time>
      </trkpt>
      <trkpt lat="47.40889" lon="6.71655">
        <ele>419</ele>
        <time>2015-05-17T08:29:28.000Z</time>
      </trkpt>
      <trkpt lat="47.40887" lon="6.71658">
        <ele>419</ele>
        <time>2015-05-17T08:29:29.000Z</time>
      </trkpt>
      <trkpt lat="47.40885" lon="6.71661">
        <ele>419</ele>
        <time>2015-05-17T08:29:30.000Z</time>
      </trkpt>
      <trkpt lat="47.40883" lon="6.71663">
        <ele>420</ele>
        <time>2015-05-17T08:29:31.000Z</time>
      </trkpt>
      <trkpt lat="47.40881" lon="6.71669">
        <ele>418</ele>
        <time>2015-05-17T08:29:33.000Z</time>
      </trkpt>
      <trkpt lat="47.4088" lon="6.71671">
        <ele>418</ele>
        <time>2015-05-17T08:29:34.000Z</time>
      </trkpt>
      <trkpt lat="47.40877" lon="6.71676">
        <ele>418</ele>
        <time>2015-05-17T08:29:36.000Z</time>
      </trkpt>
      <trkpt lat="47.40876" lon="6.71679">
        <ele>418</ele>
        <time>2015-05-17T08:29:37.000Z</time>
      </trkpt>
      <trkpt lat="47.40875" lon="6.71684">
        <ele>418</ele>
        <time>2015-05-17T08:29:39.000Z</time>
      </trkpt>
      <trkpt lat="47.40874" lon="6.71688">
        <ele>418</ele>
        <time>2015-05-17T08:29:40.000Z</time>
      </trkpt>
      <trkpt lat="47.40874" lon="6.71691">
        <ele>418</ele>
        <time>2015-05-17T08:29:41.000Z</time>
      </trkpt>
      <trkpt lat="47.40874" lon="6.71694">
        <ele>418</ele>
        <time>2015-05-17T08:29:42.000Z</time>
      </trkpt>
      <trkpt lat="47.40872" lon="6.71699">
        <ele>418</ele>
        <time>2015-05-17T08:29:44.000Z</time>
      </trkpt>
      <trkpt lat="47.40872" lon="6.71701">
        <ele>418</ele>
        <time>2015-05-17T08:29:45.000Z</time>
      </trkpt>
      <trkpt lat="47.4087" lon="6.71706">
        <ele>418</ele>
        <time>2015-05-17T08:29:47.000Z</time>
      </trkpt>
      <trkpt lat="47.40869" lon="6.71709">
        <ele>418</ele>
        <time>2015-05-17T08:29:48.000Z</time>
      </trkpt>
      <trkpt lat="47.40869" lon="6.71714">
        <ele>418</ele>
        <time>2015-05-17T08:29:50.000Z</time>
      </trkpt>
      <trkpt lat="47.40869" lon="6.71716">
        <ele>418</ele>
        <time>2015-05-17T08:29:51.000Z</time>
      </trkpt>
      <trkpt lat="47.40868" lon="6.71721">
        <ele>418</ele>
        <time>2015-05-17T08:29:53.000Z</time>
      </trkpt>
      <trkpt lat="47.40867" lon="6.71726">
        <ele>418</ele>
        <time>2015-05-17T08:29:54.000Z</time>
      </trkpt>
      <trkpt lat="47.40866" lon="6.71731">
        <ele>417</ele>
        <time>2015-05-17T08:29:55.000Z</time>
      </trkpt>
      <trkpt lat="47.40865" lon="6.71736">
        <ele>417</ele>
        <time>2015-05-17T08:29:56.000Z</time>
      </trkpt>
      <trkpt lat="47.40864" lon="6.71741">
        <ele>417</ele>
        <time>2015-05-17T08:29:57.000Z</time>
      </trkpt>
      <trkpt lat="47.40864" lon="6.71745">
        <ele>417</ele>
        <time>2015-05-17T08:29:58.000Z</time>
      </trkpt>
      <trkpt lat="47.40862" lon="6.71749">
        <ele>417</ele>
        <time>2015-05-17T08:29:59.000Z</time>
      </trkpt>
      <trkpt lat="47.4086" lon="6.71754">
        <ele>416</ele>
        <time>2015-05-17T08:30:00.000Z</time>
      </trkpt>
      <trkpt lat="47.40857" lon="6.71758">
        <ele>416</ele>
        <time>2015-05-17T08:30:01.000Z</time>
      </trkpt>
      <trkpt lat="47.40855" lon="6.71762">
        <ele>416</ele>
        <time>2015-05-17T08:30:02.000Z</time>
      </trkpt>
      <trkpt lat="47.40852" lon="6.71766">
        <ele>415</ele>
        <time>2015-05-17T08:30:03.000Z</time>
      </trkpt>
      <trkpt lat="47.40849" lon="6.7177">
        <ele>415</ele>
        <time>2015-05-17T08:30:04.000Z</time>
      </trkpt>
      <trkpt lat="47.40846" lon="6.71774">
        <ele>415</ele>
        <time>2015-05-17T08:30:05.000Z</time>
      </trkpt>
      <trkpt lat="47.40843" lon="6.71779">
        <ele>415</ele>
        <time>2015-05-17T08:30:06.000Z</time>
      </trkpt>
      <trkpt lat="47.40841" lon="6.71783">
        <ele>416</ele>
        <time>2015-05-17T08:30:07.000Z</time>
      </trkpt>
      <trkpt lat="47.40839" lon="6.71787">
        <ele>415</ele>
        <time>2015-05-17T08:30:08.000Z</time>
      </trkpt>
      <trkpt lat="47.40837" lon="6.71791">
        <ele>415</ele>
        <time>2015-05-17T08:30:09.000Z</time>
      </trkpt>
      <trkpt lat="47.40835" lon="6.71795">
        <ele>415</ele>
        <time>2015-05-17T08:30:10.000Z</time>
      </trkpt>
      <trkpt lat="47.40833" lon="6.71799">
        <ele>420</ele>
        <time>2015-05-17T08:30:11.000Z</time>
      </trkpt>
      <trkpt lat="47.40831" lon="6.71802">
        <ele>420</ele>
        <time>2015-05-17T08:30:12.000Z</time>
      </trkpt>
      <trkpt lat="47.40829" lon="6.71806">
        <ele>419</ele>
        <time>2015-05-17T08:30:13.000Z</time>
      </trkpt>
      <trkpt lat="47.40827" lon="6.7181">
        <ele>419</ele>
        <time>2015-05-17T08:30:14.000Z</time>
      </trkpt>
      <trkpt lat="47.40826" lon="6.71813">
        <ele>419</ele>
        <time>2015-05-17T08:30:15.000Z</time>
      </trkpt>
      <trkpt lat="47.40824" lon="6.71816">
        <ele>418</ele>
        <time>2015-05-17T08:30:16.000Z</time>
      </trkpt>
      <trkpt lat="47.40822" lon="6.71818">
        <ele>418</ele>
        <time>2015-05-17T08:30:17.000Z</time>
      </trkpt>
      <trkpt lat="47.40821" lon="6.71821">
        <ele>418</ele>
        <time>2015-05-17T08:30:18.000Z</time>
      </trkpt>
      <trkpt lat="47.40819" lon="6.71824">
        <ele>418</ele>
        <time>2015-05-17T08:30:19.000Z</time>
      </trkpt>
      <trkpt lat="47.40818" lon="6.71827">
        <ele>418</ele>
        <time>2015-05-17T08:30:20.000Z</time>
      </trkpt>
      <trkpt lat="47.40816" lon="6.71831">
        <ele>418</ele>
        <time>2015-05-17T08:30:21.000Z</time>
      </trkpt>
      <trkpt lat="47.40815" lon="6.71835">
        <ele>417</ele>
        <time>2015-05-17T08:30:22.000Z</time>
      </trkpt>
      <trkpt lat="47.40814" lon="6.71838">
        <ele>417</ele>
        <time>2015-05-17T08:30:23.000Z</time>
      </trkpt>
      <trkpt lat="47.40812" lon="6.71841">
        <ele>417</ele>
        <time>2015-05-17T08:30:24.000Z</time>
      </trkpt>
      <trkpt lat="47.40811" lon="6.71844">
        <ele>418</ele>
        <time>2015-05-17T08:30:25.000Z</time>
      </trkpt>
      <trkpt lat="47.40809" lon="6.71847">
        <ele>418</ele>
        <time>2015-05-17T08:30:26.000Z</time>
      </trkpt>
      <trkpt lat="47.40806" lon="6.7185">
        <ele>419</ele>
        <time>2015-05-17T08:30:27.000Z</time>
      </trkpt>
      <trkpt lat="47.40804" lon="6.71853">
        <ele>419</ele>
        <time>2015-05-17T08:30:28.000Z</time>
      </trkpt>
      <trkpt lat="47.40801" lon="6.71855">
        <ele>420</ele>
        <time>2015-05-17T08:30:29.000Z</time>
      </trkpt>
      <trkpt lat="47.40798" lon="6.71857">
        <ele>420</ele>
        <time>2015-05-17T08:30:30.000Z</time>
      </trkpt>
      <trkpt lat="47.40796" lon="6.71858">
        <ele>420</ele>
        <time>2015-05-17T08:30:31.000Z</time>
      </trkpt>
      <trkpt lat="47.40793" lon="6.7186">
        <ele>421</ele>
        <time>2015-05-17T08:30:32.000Z</time>
      </trkpt>
      <trkpt lat="47.40791" lon="6.71862">
        <ele>421</ele>
        <time>2015-05-17T08:30:33.000Z</time>
      </trkpt>
      <trkpt lat="47.40788" lon="6.71863">
        <ele>421</ele>
        <time>2015-05-17T08:30:34.000Z</time>
      </trkpt>
      <trkpt lat="47.40786" lon="6.71865">
        <ele>421</ele>
        <time>2015-05-17T08:30:35.000Z</time>
      </trkpt>
      <trkpt lat="47.40783" lon="6.71866">
        <ele>421</ele>
        <time>2015-05-17T08:30:36.000Z</time>
      </trkpt>
      <trkpt lat="47.40781" lon="6.71868">
        <ele>421</ele>
        <time>2015-05-17T08:30:37.000Z</time>
      </trkpt>
      <trkpt lat="47.40779" lon="6.71869">
        <ele>422</ele>
        <time>2015-05-17T08:30:38.000Z</time>
      </trkpt>
      <trkpt lat="47.40776" lon="6.71871">
        <ele>422</ele>
        <time>2015-05-17T08:30:39.000Z</time>
      </trkpt>
      <trkpt lat="47.40774" lon="6.71874">
        <ele>422</ele>
        <time>2015-05-17T08:30:40.000Z</time>
      </trkpt>
      <trkpt lat="47.40772" lon="6.71876">
        <ele>422</ele>
        <time>2015-05-17T08:30:41.000Z</time>
      </trkpt>
      <trkpt lat="47.40771" lon="6.71879">
        <ele>421</ele>
        <time>2015-05-17T08:30:42.000Z</time>
      </trkpt>
      <trkpt lat="47.40769" lon="6.71882">
        <ele>421</ele>
        <time>2015-05-17T08:30:43.000Z</time>
      </trkpt>
      <trkpt lat="47.40768" lon="6.71884">
        <ele>421</ele>
        <time>2015-05-17T08:30:44.000Z</time>
      </trkpt>
      <trkpt lat="47.40767" lon="6.71887">
        <ele>421</ele>
        <time>2015-05-17T08:30:45.000Z</time>
      </trkpt>
      <trkpt lat="47.40765" lon="6.7189">
        <ele>421</ele>
        <time>2015-05-17T08:30:46.000Z</time>
      </trkpt>
      <trkpt lat="47.40763" lon="6.71893">
        <ele>421</ele>
        <time>2015-05-17T08:30:47.000Z</time>
      </trkpt>
      <trkpt lat="47.40761" lon="6.71897">
        <ele>421</ele>
        <time>2015-05-17T08:30:48.000Z</time>
      </trkpt>
      <trkpt lat="47.40759" lon="6.71901">
        <ele>420</ele>
        <time>2015-05-17T08:30:49.000Z</time>
      </trkpt>
      <trkpt lat="47.40757" lon="6.71905">
        <ele>420</ele>
        <time>2015-05-17T08:30:50.000Z</time>
      </trkpt>
      <trkpt lat="47.40755" lon="6.71909">
        <ele>420</ele>
        <time>2015-05-17T08:30:51.000Z</time>
      </trkpt>
      <trkpt lat="47.40754" lon="6.71913">
        <ele>419</ele>
        <time>2015-05-17T08:30:52.000Z</time>
      </trkpt>
      <trkpt lat="47.40752" lon="6.71916">
        <ele>419</ele>
        <time>2015-05-17T08:30:53.000Z</time>
      </trkpt>
      <trkpt lat="47.4075" lon="6.7192">
        <ele>419</ele>
        <time>2015-05-17T08:30:54.000Z</time>
      </trkpt>
      <trkpt lat="47.40748" lon="6.71924">
        <ele>420</ele>
        <time>2015-05-17T08:30:55.000Z</time>
      </trkpt>
      <trkpt lat="47.40747" lon="6.71927">
        <ele>421</ele>
        <time>2015-05-17T08:30:56.000Z</time>
      </trkpt>
      <trkpt lat="47.40745" lon="6.71932">
        <ele>421</ele>
        <time>2015-05-17T08:30:57.000Z</time>
      </trkpt>
      <trkpt lat="47.40744" lon="6.71936">
        <ele>421</ele>
        <time>2015-05-17T08:30:58.000Z</time>
      </trkpt>
      <trkpt lat="47.40742" lon="6.7194">
        <ele>422</ele>
        <time>2015-05-17T08:30:59.000Z</time>
      </trkpt>
      <trkpt lat="47.4074" lon="6.71944">
        <ele>422</ele>
        <time>2015-05-17T08:31:00.000Z</time>
      </trkpt>
      <trkpt lat="47.40739" lon="6.71949">
        <ele>422</ele>
        <time>2015-05-17T08:31:01.000Z</time>
      </trkpt>
      <trkpt lat="47.40737" lon="6.71953">
        <ele>422</ele>
        <time>2015-05-17T08:31:02.000Z</time>
      </trkpt>
      <trkpt lat="47.40735" lon="6.71957">
        <ele>423</ele>
        <time>2015-05-17T08:31:03.000Z</time>
      </trkpt>
      <trkpt lat="47.40732" lon="6.71959">
        <ele>423</ele>
        <time>2015-05-17T08:31:04.000Z</time>
      </trkpt>
      <trkpt lat="47.4073" lon="6.71962">
        <ele>423</ele>
        <time>2015-05-17T08:31:05.000Z</time>
      </trkpt>
      <trkpt lat="47.40728" lon="6.71964">
        <ele>423</ele>
        <time>2015-05-17T08:31:06.000Z</time>
      </trkpt>
      <trkpt lat="47.40726" lon="6.71966">
        <ele>423</ele>
        <time>2015-05-17T08:31:07.000Z</time>
      </trkpt>
      <trkpt lat="47.40724" lon="6.71968">
        <ele>423</ele>
        <time>2015-05-17T08:31:08.000Z</time>
      </trkpt>
      <trkpt lat="47.40722" lon="6.7197">
        <ele>423</ele>
        <time>2015-05-17T08:31:09.000Z</time>
      </trkpt>
      <trkpt lat="47.4072" lon="6.71973">
        <ele>423</ele>
        <time>2015-05-17T08:31:10.000Z</time>
      </trkpt>
      <trkpt lat="47.40717" lon="6.71975">
        <ele>423</ele>
        <time>2015-05-17T08:31:11.000Z</time>
      </trkpt>
      <trkpt lat="47.40715" lon="6.71977">
        <ele>423</ele>
        <time>2015-05-17T08:31:12.000Z</time>
      </trkpt>
      <trkpt lat="47.40713" lon="6.71979">
        <ele>423</ele>
        <time>2015-05-17T08:31:13.000Z</time>
      </trkpt>
      <trkpt lat="47.4071" lon="6.71982">
        <ele>423</ele>
        <time>2015-05-17T08:31:14.000Z</time>
      </trkpt>
      <trkpt lat="47.40708" lon="6.71984">
        <ele>423</ele>
        <time>2015-05-17T08:31:15.000Z</time>
      </trkpt>
      <trkpt lat="47.40706" lon="6.71985">
        <ele>423</ele>
        <time>2015-05-17T08:31:16.000Z</time>
      </trkpt>
      <trkpt lat="47.40702" lon="6.71988">
        <ele>423</ele>
        <time>2015-05-17T08:31:18.000Z</time>
      </trkpt>
      <trkpt lat="47.40701" lon="6.71989">
        <ele>423</ele>
        <time>2015-05-17T08:31:19.000Z</time>
      </trkpt>
      <trkpt lat="47.40698" lon="6.71992">
        <ele>422</ele>
        <time>2015-05-17T08:31:21.000Z</time>
      </trkpt>
      <trkpt lat="47.40696" lon="6.71994">
        <ele>422</ele>
        <time>2015-05-17T08:31:22.000Z</time>
      </trkpt>
      <trkpt lat="47.40693" lon="6.71998">
        <ele>422</ele>
        <time>2015-05-17T08:31:24.000Z</time>
      </trkpt>
      <trkpt lat="47.40691" lon="6.71998">
        <ele>422</ele>
        <time>2015-05-17T08:31:25.000Z</time>
      </trkpt>
      <trkpt lat="47.40688" lon="6.71996">
        <ele>422</ele>
        <time>2015-05-17T08:31:27.000Z</time>
      </trkpt>
      <trkpt lat="47.40687" lon="6.71996">
        <ele>422</ele>
        <time>2015-05-17T08:31:28.000Z</time>
      </trkpt>
      <trkpt lat="47.40683" lon="6.71998">
        <ele>422</ele>
        <time>2015-05-17T08:31:31.000Z</time>
      </trkpt>
      <trkpt lat="47.40682" lon="6.71999">
        <ele>421</ele>
        <time>2015-05-17T08:31:32.000Z</time>
      </trkpt>
      <trkpt lat="47.40681" lon="6.72005">
        <ele>423</ele>
        <time>2015-05-17T08:31:41.000Z</time>
      </trkpt>
      <trkpt lat="47.4068" lon="6.72006">
        <ele>423</ele>
        <time>2015-05-17T08:31:42.000Z</time>
      </trkpt>
      <trkpt lat="47.40677" lon="6.72008">
        <ele>423</ele>
        <time>2015-05-17T08:31:44.000Z</time>
      </trkpt>
      <trkpt lat="47.40676" lon="6.7201">
        <ele>423</ele>
        <time>2015-05-17T08:31:45.000Z</time>
      </trkpt>
      <trkpt lat="47.40674" lon="6.72013">
        <ele>423</ele>
        <time>2015-05-17T08:31:46.000Z</time>
      </trkpt>
      <trkpt lat="47.40673" lon="6.72017">
        <ele>424</ele>
        <time>2015-05-17T08:31:47.000Z</time>
      </trkpt>
      <trkpt lat="47.40672" lon="6.72021">
        <ele>424</ele>
        <time>2015-05-17T08:31:48.000Z</time>
      </trkpt>
      <trkpt lat="47.40671" lon="6.72025">
        <ele>424</ele>
        <time>2015-05-17T08:31:49.000Z</time>
      </trkpt>
      <trkpt lat="47.40671" lon="6.72029">
        <ele>425</ele>
        <time>2015-05-17T08:31:50.000Z</time>
      </trkpt>
      <trkpt lat="47.40671" lon="6.72033">
        <ele>425</ele>
        <time>2015-05-17T08:31:51.000Z</time>
      </trkpt>
      <trkpt lat="47.40672" lon="6.72039">
        <ele>425</ele>
        <time>2015-05-17T08:31:54.000Z</time>
      </trkpt>
      <trkpt lat="47.40673" lon="6.72045">
        <ele>426</ele>
        <time>2015-05-17T08:31:55.000Z</time>
      </trkpt>
      <trkpt lat="47.40673" lon="6.72051">
        <ele>426</ele>
        <time>2015-05-17T08:31:59.000Z</time>
      </trkpt>
      <trkpt lat="47.40673" lon="6.72051">
        <ele>426</ele>
        <time>2015-05-17T08:32:00.000Z</time>
      </trkpt>
      <trkpt lat="47.40676" lon="6.72047">
        <ele>426</ele>
        <time>2015-05-17T08:32:44.000Z</time>
      </trkpt>
      <trkpt lat="47.40676" lon="6.72046">
        <ele>426</ele>
        <time>2015-05-17T08:32:45.000Z</time>
      </trkpt>
      <trkpt lat="47.40671" lon="6.72047">
        <ele>426</ele>
        <time>2015-05-17T08:32:54.000Z</time>
      </trkpt>
      <trkpt lat="47.40671" lon="6.72047">
        <ele>426</ele>
        <time>2015-05-17T08:32:55.000Z</time>
      </trkpt>
      <trkpt lat="47.4067" lon="6.72053">
        <ele>426</ele>
        <time>2015-05-17T08:33:02.000Z</time>
      </trkpt>
      <trkpt lat="47.40671" lon="6.72054">
        <ele>426</ele>
        <time>2015-05-17T08:33:03.000Z</time>
      </trkpt>
      <trkpt lat="47.4067" lon="6.72058">
        <ele>426</ele>
        <time>2015-05-17T08:33:20.000Z</time>
      </trkpt>
      <trkpt lat="47.40669" lon="6.72061">
        <ele>426</ele>
        <time>2015-05-17T08:33:21.000Z</time>
      </trkpt>
      <trkpt lat="47.40668" lon="6.72065">
        <ele>426</ele>
        <time>2015-05-17T08:33:22.000Z</time>
      </trkpt>
      <trkpt lat="47.40666" lon="6.72068">
        <ele>427</ele>
        <time>2015-05-17T08:33:23.000Z</time>
      </trkpt>
      <trkpt lat="47.40664" lon="6.72073">
        <ele>427</ele>
        <time>2015-05-17T08:33:25.000Z</time>
      </trkpt>
      <trkpt lat="47.40663" lon="6.72075">
        <ele>427</ele>
        <time>2015-05-17T08:33:26.000Z</time>
      </trkpt>
      <trkpt lat="47.40662" lon="6.72078">
        <ele>426</ele>
        <time>2015-05-17T08:33:27.000Z</time>
      </trkpt>
      <trkpt lat="47.4066" lon="6.72081">
        <ele>426</ele>
        <time>2015-05-17T08:33:28.000Z</time>
      </trkpt>
      <trkpt lat="47.40659" lon="6.72084">
        <ele>428</ele>
        <time>2015-05-17T08:33:29.000Z</time>
      </trkpt>
      <trkpt lat="47.40657" lon="6.72087">
        <ele>429</ele>
        <time>2015-05-17T08:33:30.000Z</time>
      </trkpt>
      <trkpt lat="47.40655" lon="6.72092">
        <ele>430</ele>
        <time>2015-05-17T08:33:32.000Z</time>
      </trkpt>
      <trkpt lat="47.40654" lon="6.72096">
        <ele>431</ele>
        <time>2015-05-17T08:33:33.000Z</time>
      </trkpt>
      <trkpt lat="47.40654" lon="6.72101">
        <ele>432</ele>
        <time>2015-05-17T08:33:34.000Z</time>
      </trkpt>
      <trkpt lat="47.40653" lon="6.72106">
        <ele>433</ele>
        <time>2015-05-17T08:33:35.000Z</time>
      </trkpt>
      <trkpt lat="47.40652" lon="6.7211">
        <ele>433</ele>
        <time>2015-05-17T08:33:36.000Z</time>
      </trkpt>
      <trkpt lat="47.40651" lon="6.72114">
        <ele>434</ele>
        <time>2015-05-17T08:33:37.000Z</time>
      </trkpt>
      <trkpt lat="47.4065" lon="6.7212">
        <ele>434</ele>
        <time>2015-05-17T08:33:41.000Z</time>
      </trkpt>
      <trkpt lat="47.4065" lon="6.7212">
        <ele>434</ele>
        <time>2015-05-17T08:33:42.000Z</time>
      </trkpt>
      <trkpt lat="47.40649" lon="6.72126">
        <ele>435</ele>
        <time>2015-05-17T08:33:45.000Z</time>
      </trkpt>
      <trkpt lat="47.40648" lon="6.72129">
        <ele>435</ele>
        <time>2015-05-17T08:33:46.000Z</time>
      </trkpt>
      <trkpt lat="47.40647" lon="6.72132">
        <ele>435</ele>
        <time>2015-05-17T08:33:47.000Z</time>
      </trkpt>
      <trkpt lat="47.40646" lon="6.72136">
        <ele>436</ele>
        <time>2015-05-17T08:33:48.000Z</time>
      </trkpt>
      <trkpt lat="47.40644" lon="6.7214">
        <ele>436</ele>
        <time>2015-05-17T08:33:49.000Z</time>
      </trkpt>
      <trkpt lat="47.40643" lon="6.72144">
        <ele>436</ele>
        <time>2015-05-17T08:33:50.000Z</time>
      </trkpt>
      <trkpt lat="47.40641" lon="6.72149">
        <ele>436</ele>
        <time>2015-05-17T08:33:51.000Z</time>
      </trkpt>
      <trkpt lat="47.4064" lon="6.72153">
        <ele>436</ele>
        <time>2015-05-17T08:33:52.000Z</time>
      </trkpt>
      <trkpt lat="47.40638" lon="6.72157">
        <ele>437</ele>
        <time>2015-05-17T08:33:53.000Z</time>
      </trkpt>
      <trkpt lat="47.40637" lon="6.72161">
        <ele>437</ele>
        <time>2015-05-17T08:33:54.000Z</time>
      </trkpt>
      <trkpt lat="47.40636" lon="6.72166">
        <ele>437</ele>
        <time>2015-05-17T08:33:55.000Z</time>
      </trkpt>
      <trkpt lat="47.40635" lon="6.72171">
        <ele>439</ele>
        <time>2015-05-17T08:33:56.000Z</time>
      </trkpt>
      <trkpt lat="47.40634" lon="6.72175">
        <ele>439</ele>
        <time>2015-05-17T08:33:57.000Z</time>
      </trkpt>
      <trkpt lat="47.40633" lon="6.7218">
        <ele>439</ele>
        <time>2015-05-17T08:33:58.000Z</time>
      </trkpt>
      <trkpt lat="47.40631" lon="6.72185">
        <ele>439</ele>
        <time>2015-05-17T08:33:59.000Z</time>
      </trkpt>
      <trkpt lat="47.4063" lon="6.72189">
        <ele>439</ele>
        <time>2015-05-17T08:34:00.000Z</time>
      </trkpt>
      <trkpt lat="47.4063" lon="6.72193">
        <ele>439</ele>
        <time>2015-05-17T08:34:01.000Z</time>
      </trkpt>
      <trkpt lat="47.40629" lon="6.72197">
        <ele>440</ele>
        <time>2015-05-17T08:34:02.000Z</time>
      </trkpt>
      <trkpt lat="47.40628" lon="6.722">
        <ele>440</ele>
        <time>2015-05-17T08:34:03.000Z</time>
      </trkpt>
      <trkpt lat="47.40628" lon="6.72203">
        <ele>440</ele>
        <time>2015-05-17T08:34:04.000Z</time>
      </trkpt>
      <trkpt lat="47.40627" lon="6.72207">
        <ele>440</ele>
        <time>2015-05-17T08:34:05.000Z</time>
      </trkpt>
      <trkpt lat="47.40626" lon="6.72211">
        <ele>440</ele>
        <time>2015-05-17T08:34:06.000Z</time>
      </trkpt>
      <trkpt lat="47.40625" lon="6.72215">
        <ele>440</ele>
        <time>2015-05-17T08:34:07.000Z</time>
      </trkpt>
      <trkpt lat="47.40625" lon="6.72218">
        <ele>440</ele>
        <time>2015-05-17T08:34:08.000Z</time>
      </trkpt>
      <trkpt lat="47.40623" lon="6.72222">
        <ele>440</ele>
        <time>2015-05-17T08:34:09.000Z</time>
      </trkpt>
      <trkpt lat="47.40622" lon="6.72224">
        <ele>440</ele>
        <time>2015-05-17T08:34:10.000Z</time>
      </trkpt>
      <trkpt lat="47.40621" lon="6.72227">
        <ele>440</ele>
        <time>2015-05-17T08:34:11.000Z</time>
      </trkpt>
      <trkpt lat="47.4062" lon="6.7223">
        <ele>440</ele>
        <time>2015-05-17T08:34:12.000Z</time>
      </trkpt>
      <trkpt lat="47.40618" lon="6.72233">
        <ele>440</ele>
        <time>2015-05-17T08:34:13.000Z</time>
      </trkpt>
      <trkpt lat="47.40617" lon="6.72238">
        <ele>440</ele>
        <time>2015-05-17T08:34:14.000Z</time>
      </trkpt>
      <trkpt lat="47.40616" lon="6.72244">
        <ele>440</ele>
        <time>2015-05-17T08:34:15.000Z</time>
      </trkpt>
      <trkpt lat="47.40615" lon="6.7225">
        <ele>441</ele>
        <time>2015-05-17T08:34:16.000Z</time>
      </trkpt>
      <trkpt lat="47.40615" lon="6.72257">
        <ele>441</ele>
        <time>2015-05-17T08:34:17.000Z</time>
      </trkpt>
      <trkpt lat="47.40614" lon="6.72262">
        <ele>441</ele>
        <time>2015-05-17T08:34:18.000Z</time>
      </trkpt>
      <trkpt lat="47.40613" lon="6.72267">
        <ele>441</ele>
        <time>2015-05-17T08:34:19.000Z</time>
      </trkpt>
      <trkpt lat="47.40612" lon="6.72272">
        <ele>441</ele>
        <time>2015-05-17T08:34:20.000Z</time>
      </trkpt>
      <trkpt lat="47.4061" lon="6.72275">
        <ele>441</ele>
        <time>2015-05-17T08:34:21.000Z</time>
      </trkpt>
      <trkpt lat="47.40609" lon="6.72279">
        <ele>441</ele>
        <time>2015-05-17T08:34:22.000Z</time>
      </trkpt>
      <trkpt lat="47.40607" lon="6.72283">
        <ele>441</ele>
        <time>2015-05-17T08:34:23.000Z</time>
      </trkpt>
      <trkpt lat="47.40606" lon="6.72286">
        <ele>440</ele>
        <time>2015-05-17T08:34:24.000Z</time>
      </trkpt>
      <trkpt lat="47.40604" lon="6.72289">
        <ele>440</ele>
        <time>2015-05-17T08:34:25.000Z</time>
      </trkpt>
      <trkpt lat="47.40602" lon="6.72293">
        <ele>440</ele>
        <time>2015-05-17T08:34:26.000Z</time>
      </trkpt>
      <trkpt lat="47.406" lon="6.72298">
        <ele>440</ele>
        <time>2015-05-17T08:34:27.000Z</time>
      </trkpt>
      <trkpt lat="47.40598" lon="6.72302">
        <ele>440</ele>
        <time>2015-05-17T08:34:28.000Z</time>
      </trkpt>
      <trkpt lat="47.40596" lon="6.72307">
        <ele>439</ele>
        <time>2015-05-17T08:34:29.000Z</time>
      </trkpt>
      <trkpt lat="47.40594" lon="6.72312">
        <ele>439</ele>
        <time>2015-05-17T08:34:30.000Z</time>
      </trkpt>
      <trkpt lat="47.40591" lon="6.72317">
        <ele>438</ele>
        <time>2015-05-17T08:34:31.000Z</time>
      </trkpt>
      <trkpt lat="47.40588" lon="6.72323">
        <ele>438</ele>
        <time>2015-05-17T08:34:32.000Z</time>
      </trkpt>
      <trkpt lat="47.40585" lon="6.72328">
        <ele>436</ele>
        <time>2015-05-17T08:34:33.000Z</time>
      </trkpt>
      <trkpt lat="47.40582" lon="6.72333">
        <ele>435</ele>
        <time>2015-05-17T08:34:34.000Z</time>
      </trkpt>
      <trkpt lat="47.4058" lon="6.72339">
        <ele>436</ele>
        <time>2015-05-17T08:34:35.000Z</time>
      </trkpt>
      <trkpt lat="47.40578" lon="6.72346">
        <ele>436</ele>
        <time>2015-05-17T08:34:36.000Z</time>
      </trkpt>
      <trkpt lat="47.40577" lon="6.72352">
        <ele>436</ele>
        <time>2015-05-17T08:34:37.000Z</time>
      </trkpt>
      <trkpt lat="47.40575" lon="6.72359">
        <ele>436</ele>
        <time>2015-05-17T08:34:38.000Z</time>
      </trkpt>
      <trkpt lat="47.40574" lon="6.72365">
        <ele>436</ele>
        <time>2015-05-17T08:34:39.000Z</time>
      </trkpt>
      <trkpt lat="47.40573" lon="6.72371">
        <ele>436</ele>
        <time>2015-05-17T08:34:40.000Z</time>
      </trkpt>
      <trkpt lat="47.40572" lon="6.72378">
        <ele>436</ele>
        <time>2015-05-17T08:34:41.000Z</time>
      </trkpt>
      <trkpt lat="47.40572" lon="6.72384">
        <ele>436</ele>
        <time>2015-05-17T08:34:42.000Z</time>
      </trkpt>
      <trkpt lat="47.40571" lon="6.72388">
        <ele>436</ele>
        <time>2015-05-17T08:34:43.000Z</time>
      </trkpt>
      <trkpt lat="47.40571" lon="6.72392">
        <ele>436</ele>
        <time>2015-05-17T08:34:44.000Z</time>
      </trkpt>
      <trkpt lat="47.4057" lon="6.72395">
        <ele>436</ele>
        <time>2015-05-17T08:34:45.000Z</time>
      </trkpt>
      <trkpt lat="47.40568" lon="6.72397">
        <ele>436</ele>
        <time>2015-05-17T08:34:46.000Z</time>
      </trkpt>
      <trkpt lat="47.40566" lon="6.72401">
        <ele>436</ele>
        <time>2015-05-17T08:34:47.000Z</time>
      </trkpt>
      <trkpt lat="47.40564" lon="6.72404">
        <ele>436</ele>
        <time>2015-05-17T08:34:48.000Z</time>
      </trkpt>
      <trkpt lat="47.40563" lon="6.72408">
        <ele>436</ele>
        <time>2015-05-17T08:34:49.000Z</time>
      </trkpt>
      <trkpt lat="47.40563" lon="6.72412">
        <ele>436</ele>
        <time>2015-05-17T08:34:50.000Z</time>
      </trkpt>
      <trkpt lat="47.40563" lon="6.72417">
        <ele>436</ele>
        <time>2015-05-17T08:34:51.000Z</time>
      </trkpt>
      <trkpt lat="47.40564" lon="6.72421">
        <ele>436</ele>
        <time>2015-05-17T08:34:52.000Z</time>
      </trkpt>
      <trkpt lat="47.40564" lon="6.72426">
        <ele>436</ele>
        <time>2015-05-17T08:34:53.000Z</time>
      </trkpt>
      <trkpt lat="47.40564" lon="6.72431">
        <ele>436</ele>
        <time>2015-05-17T08:34:54.000Z</time>
      </trkpt>
      <trkpt lat="47.40565" lon="6.72436">
        <ele>436</ele>
        <time>2015-05-17T08:34:55.000Z</time>
      </trkpt>
      <trkpt lat="47.40566" lon="6.7244">
        <ele>436</ele>
        <time>2015-05-17T08:34:56.000Z</time>
      </trkpt>
      <trkpt lat="47.40568" lon="6.72445">
        <ele>437</ele>
        <time>2015-05-17T08:34:57.000Z</time>
      </trkpt>
      <trkpt lat="47.4057" lon="6.72451">
        <ele>437</ele>
        <time>2015-05-17T08:34:58.000Z</time>
      </trkpt>
      <trkpt lat="47.40572" lon="6.72456">
        <ele>437</ele>
        <time>2015-05-17T08:34:59.000Z</time>
      </trkpt>
      <trkpt lat="47.40573" lon="6.72461">
        <ele>437</ele>
        <time>2015-05-17T08:35:00.000Z</time>
      </trkpt>
      <trkpt lat="47.40572" lon="6.72467">
        <ele>437</ele>
        <time>2015-05-17T08:35:01.000Z</time>
      </trkpt>
      <trkpt lat="47.40572" lon="6.72474">
        <ele>437</ele>
        <time>2015-05-17T08:35:02.000Z</time>
      </trkpt>
      <trkpt lat="47.40571" lon="6.72481">
        <ele>438</ele>
        <time>2015-05-17T08:35:03.000Z</time>
      </trkpt>
      <trkpt lat="47.4057" lon="6.72488">
        <ele>438</ele>
        <time>2015-05-17T08:35:04.000Z</time>
      </trkpt>
      <trkpt lat="47.40569" lon="6.72495">
        <ele>438</ele>
        <time>2015-05-17T08:35:05.000Z</time>
      </trkpt>
      <trkpt lat="47.40568" lon="6.72502">
        <ele>440</ele>
        <time>2015-05-17T08:35:06.000Z</time>
      </trkpt>
      <trkpt lat="47.40568" lon="6.72508">
        <ele>440</ele>
        <time>2015-05-17T08:35:07.000Z</time>
      </trkpt>
      <trkpt lat="47.40568" lon="6.72513">
        <ele>440</ele>
        <time>2015-05-17T08:35:08.000Z</time>
      </trkpt>
      <trkpt lat="47.40568" lon="6.72518">
        <ele>441</ele>
        <time>2015-05-17T08:35:09.000Z</time>
      </trkpt>
      <trkpt lat="47.40567" lon="6.72522">
        <ele>441</ele>
        <time>2015-05-17T08:35:10.000Z</time>
      </trkpt>
      <trkpt lat="47.40567" lon="6.72527">
        <ele>441</ele>
        <time>2015-05-17T08:35:11.000Z</time>
      </trkpt>
      <trkpt lat="47.40566" lon="6.7253">
        <ele>442</ele>
        <time>2015-05-17T08:35:12.000Z</time>
      </trkpt>
      <trkpt lat="47.40564" lon="6.72535">
        <ele>442</ele>
        <time>2015-05-17T08:35:14.000Z</time>
      </trkpt>
      <trkpt lat="47.40563" lon="6.72537">
        <ele>442</ele>
        <time>2015-05-17T08:35:15.000Z</time>
      </trkpt>
      <trkpt lat="47.40562" lon="6.72541">
        <ele>442</ele>
        <time>2015-05-17T08:35:17.000Z</time>
      </trkpt>
      <trkpt lat="47.40561" lon="6.72545">
        <ele>442</ele>
        <time>2015-05-17T08:35:18.000Z</time>
      </trkpt>
      <trkpt lat="47.4056" lon="6.72549">
        <ele>443</ele>
        <time>2015-05-17T08:35:19.000Z</time>
      </trkpt>
      <trkpt lat="47.4056" lon="6.72554">
        <ele>443</ele>
        <time>2015-05-17T08:35:20.000Z</time>
      </trkpt>
      <trkpt lat="47.4056" lon="6.7256">
        <ele>443</ele>
        <time>2015-05-17T08:35:21.000Z</time>
      </trkpt>
      <trkpt lat="47.4056" lon="6.72565">
        <ele>443</ele>
        <time>2015-05-17T08:35:22.000Z</time>
      </trkpt>
      <trkpt lat="47.40561" lon="6.7257">
        <ele>443</ele>
        <time>2015-05-17T08:35:23.000Z</time>
      </trkpt>
      <trkpt lat="47.40561" lon="6.72575">
        <ele>443</ele>
        <time>2015-05-17T08:35:24.000Z</time>
      </trkpt>
      <trkpt lat="47.40561" lon="6.72579">
        <ele>443</ele>
        <time>2015-05-17T08:35:25.000Z</time>
      </trkpt>
      <trkpt lat="47.40562" lon="6.72583">
        <ele>445</ele>
        <time>2015-05-17T08:35:26.000Z</time>
      </trkpt>
      <trkpt lat="47.40562" lon="6.72587">
        <ele>445</ele>
        <time>2015-05-17T08:35:27.000Z</time>
      </trkpt>
      <trkpt lat="47.40563" lon="6.72591">
        <ele>445</ele>
        <time>2015-05-17T08:35:28.000Z</time>
      </trkpt>
      <trkpt lat="47.40563" lon="6.72595">
        <ele>445</ele>
        <time>2015-05-17T08:35:29.000Z</time>
      </trkpt>
      <trkpt lat="47.40563" lon="6.72598">
        <ele>445</ele>
        <time>2015-05-17T08:35:30.000Z</time>
      </trkpt>
      <trkpt lat="47.40563" lon="6.72602">
        <ele>445</ele>
        <time>2015-05-17T08:35:31.000Z</time>
      </trkpt>
      <trkpt lat="47.40563" lon="6.72607">
        <ele>445</ele>
        <time>2015-05-17T08:35:32.000Z</time>
      </trkpt>
      <trkpt lat="47.40564" lon="6.72611">
        <ele>446</ele>
        <time>2015-05-17T08:35:33.000Z</time>
      </trkpt>
      <trkpt lat="47.40564" lon="6.72616">
        <ele>446</ele>
        <time>2015-05-17T08:35:34.000Z</time>
      </trkpt>
      <trkpt lat="47.40564" lon="6.72621">
        <ele>446</ele>
        <time>2015-05-17T08:35:35.000Z</time>
      </trkpt>
      <trkpt lat="47.40564" lon="6.72625">
        <ele>446</ele>
        <time>2015-05-17T08:35:36.000Z</time>
      </trkpt>
      <trkpt lat="47.40564" lon="6.72629">
        <ele>446</ele>
        <time>2015-05-17T08:35:37.000Z</time>
      </trkpt>
      <trkpt lat="47.40564" lon="6.72632">
        <ele>446</ele>
        <time>2015-05-17T08:35:38.000Z</time>
      </trkpt>
      <trkpt lat="47.40563" lon="6.72638">
        <ele>446</ele>
        <time>2015-05-17T08:35:40.000Z</time>
      </trkpt>
      <trkpt lat="47.40563" lon="6.72641">
        <ele>446</ele>
        <time>2015-05-17T08:35:41.000Z</time>
      </trkpt>
      <trkpt lat="47.40562" lon="6.72648">
        <ele>446</ele>
        <time>2015-05-17T08:35:43.000Z</time>
      </trkpt>
      <trkpt lat="47.40562" lon="6.72652">
        <ele>446</ele>
        <time>2015-05-17T08:35:44.000Z</time>
      </trkpt>
      <trkpt lat="47.40563" lon="6.72656">
        <ele>446</ele>
        <time>2015-05-17T08:35:45.000Z</time>
      </trkpt>
      <trkpt lat="47.40564" lon="6.7266">
        <ele>446</ele>
        <time>2015-05-17T08:35:46.000Z</time>
      </trkpt>
      <trkpt lat="47.40566" lon="6.72666">
        <ele>446</ele>
        <time>2015-05-17T08:35:48.000Z</time>
      </trkpt>
      <trkpt lat="47.40567" lon="6.72668">
        <ele>447</ele>
        <time>2015-05-17T08:35:49.000Z</time>
      </trkpt>
      <trkpt lat="47.40566" lon="6.72673">
        <ele>447</ele>
        <time>2015-05-17T08:35:51.000Z</time>
      </trkpt>
      <trkpt lat="47.40565" lon="6.72676">
        <ele>447</ele>
        <time>2015-05-17T08:35:52.000Z</time>
      </trkpt>
      <trkpt lat="47.40564" lon="6.72678">
        <ele>448</ele>
        <time>2015-05-17T08:35:53.000Z</time>
      </trkpt>
      <trkpt lat="47.40563" lon="6.72682">
        <ele>448</ele>
        <time>2015-05-17T08:35:54.000Z</time>
      </trkpt>
      <trkpt lat="47.40562" lon="6.72685">
        <ele>448</ele>
        <time>2015-05-17T08:35:55.000Z</time>
      </trkpt>
      <trkpt lat="47.40561" lon="6.72688">
        <ele>448</ele>
        <time>2015-05-17T08:35:56.000Z</time>
      </trkpt>
      <trkpt lat="47.40559" lon="6.72692">
        <ele>448</ele>
        <time>2015-05-17T08:35:58.000Z</time>
      </trkpt>
      <trkpt lat="47.40557" lon="6.72692">
        <ele>448</ele>
        <time>2015-05-17T08:35:59.000Z</time>
      </trkpt>
      <trkpt lat="47.40554" lon="6.72689">
        <ele>448</ele>
        <time>2015-05-17T08:36:01.000Z</time>
      </trkpt>
      <trkpt lat="47.40552" lon="6.72687">
        <ele>449</ele>
        <time>2015-05-17T08:36:02.000Z</time>
      </trkpt>
      <trkpt lat="47.40551" lon="6.72684">
        <ele>449</ele>
        <time>2015-05-17T08:36:03.000Z</time>
      </trkpt>
      <trkpt lat="47.40549" lon="6.72679">
        <ele>449</ele>
        <time>2015-05-17T08:36:04.000Z</time>
      </trkpt>
      <trkpt lat="47.40547" lon="6.72674">
        <ele>449</ele>
        <time>2015-05-17T08:36:05.000Z</time>
      </trkpt>
      <trkpt lat="47.40545" lon="6.7267">
        <ele>449</ele>
        <time>2015-05-17T08:36:06.000Z</time>
      </trkpt>
      <trkpt lat="47.40543" lon="6.72665">
        <ele>447</ele>
        <time>2015-05-17T08:36:07.000Z</time>
      </trkpt>
      <trkpt lat="47.40543" lon="6.72661">
        <ele>447</ele>
        <time>2015-05-17T08:36:08.000Z</time>
      </trkpt>
      <trkpt lat="47.40543" lon="6.72657">
        <ele>447</ele>
        <time>2015-05-17T08:36:09.000Z</time>
      </trkpt>
      <trkpt lat="47.40545" lon="6.72654">
        <ele>447</ele>
        <time>2015-05-17T08:36:10.000Z</time>
      </trkpt>
      <trkpt lat="47.40547" lon="6.7265">
        <ele>447</ele>
        <time>2015-05-17T08:36:11.000Z</time>
      </trkpt>
      <trkpt lat="47.40548" lon="6.72646">
        <ele>447</ele>
        <time>2015-05-17T08:36:12.000Z</time>
      </trkpt>
      <trkpt lat="47.40549" lon="6.72641">
        <ele>447</ele>
        <time>2015-05-17T08:36:13.000Z</time>
      </trkpt>
      <trkpt lat="47.40549" lon="6.72635">
        <ele>447</ele>
        <time>2015-05-17T08:36:14.000Z</time>
      </trkpt>
      <trkpt lat="47.40549" lon="6.7263">
        <ele>447</ele>
        <time>2015-05-17T08:36:15.000Z</time>
      </trkpt>
      <trkpt lat="47.40549" lon="6.72625">
        <ele>447</ele>
        <time>2015-05-17T08:36:16.000Z</time>
      </trkpt>
      <trkpt lat="47.40548" lon="6.7262">
        <ele>447</ele>
        <time>2015-05-17T08:36:17.000Z</time>
      </trkpt>
      <trkpt lat="47.40549" lon="6.72615">
        <ele>446</ele>
        <time>2015-05-17T08:36:18.000Z</time>
      </trkpt>
      <trkpt lat="47.4055" lon="6.72609">
        <ele>446</ele>
        <time>2015-05-17T08:36:19.000Z</time>
      </trkpt>
      <trkpt lat="47.40552" lon="6.72603">
        <ele>446</ele>
        <time>2015-05-17T08:36:20.000Z</time>
      </trkpt>
      <trkpt lat="47.40554" lon="6.72597">
        <ele>446</ele>
        <time>2015-05-17T08:36:21.000Z</time>
      </trkpt>
      <trkpt lat="47.40555" lon="6.72591">
        <ele>445</ele>
        <time>2015-05-17T08:36:22.000Z</time>
      </trkpt>
      <trkpt lat="47.40556" lon="6.72585">
        <ele>445</ele>
        <time>2015-05-17T08:36:23.000Z</time>
      </trkpt>
      <trkpt lat="47.40556" lon="6.72578">
        <ele>443</ele>
        <time>2015-05-17T08:36:24.000Z</time>
      </trkpt>
      <trkpt lat="47.40557" lon="6.72571">
        <ele>443</ele>
        <time>2015-05-17T08:36:25.000Z</time>
      </trkpt>
      <trkpt lat="47.40558" lon="6.72564">
        <ele>443</ele>
        <time>2015-05-17T08:36:26.000Z</time>
      </trkpt>
      <trkpt lat="47.40558" lon="6.72556">
        <ele>443</ele>
        <time>2015-05-17T08:36:27.000Z</time>
      </trkpt>
      <trkpt lat="47.40558" lon="6.72539">
        <ele>442</ele>
        <time>2015-05-17T08:36:28.000Z</time>
      </trkpt>
      <trkpt lat="47.40558" lon="6.72529">
        <ele>442</ele>
        <time>2015-05-17T08:36:29.000Z</time>
      </trkpt>
      <trkpt lat="47.40558" lon="6.72521">
        <ele>442</ele>
        <time>2015-05-17T08:36:30.000Z</time>
      </trkpt>
      <trkpt lat="47.40556" lon="6.72515">
        <ele>442</ele>
        <time>2015-05-17T08:36:31.000Z</time>
      </trkpt>
      <trkpt lat="47.40557" lon="6.72505">
        <ele>441</ele>
        <time>2015-05-17T08:36:32.000Z</time>
      </trkpt>
      <trkpt lat="47.40556" lon="6.72495">
        <ele>438</ele>
        <time>2015-05-17T08:36:33.000Z</time>
      </trkpt>
      <trkpt lat="47.40556" lon="6.72488">
        <ele>438</ele>
        <time>2015-05-17T08:36:34.000Z</time>
      </trkpt>
      <trkpt lat="47.40554" lon="6.72481">
        <ele>438</ele>
        <time>2015-05-17T08:36:35.000Z</time>
      </trkpt>
      <trkpt lat="47.40553" lon="6.72472">
        <ele>438</ele>
        <time>2015-05-17T08:36:36.000Z</time>
      </trkpt>
      <trkpt lat="47.40552" lon="6.72461">
        <ele>438</ele>
        <time>2015-05-17T08:36:37.000Z</time>
      </trkpt>
      <trkpt lat="47.40549" lon="6.72453">
        <ele>437</ele>
        <time>2015-05-17T08:36:38.000Z</time>
      </trkpt>
      <trkpt lat="47.40544" lon="6.72446">
        <ele>437</ele>
        <time>2015-05-17T08:36:39.000Z</time>
      </trkpt>
      <trkpt lat="47.40536" lon="6.72443">
        <ele>437</ele>
        <time>2015-05-17T08:36:40.000Z</time>
      </trkpt>
      <trkpt lat="47.40532" lon="6.72437">
        <ele>437</ele>
        <time>2015-05-17T08:36:41.000Z</time>
      </trkpt>
      <trkpt lat="47.40526" lon="6.72432">
        <ele>437</ele>
        <time>2015-05-17T08:36:42.000Z</time>
      </trkpt>
      <trkpt lat="47.40523" lon="6.72428">
        <ele>437</ele>
        <time>2015-05-17T08:36:43.000Z</time>
      </trkpt>
      <trkpt lat="47.40519" lon="6.72424">
        <ele>437</ele>
        <time>2015-05-17T08:36:44.000Z</time>
      </trkpt>
      <trkpt lat="47.40515" lon="6.72422">
        <ele>436</ele>
        <time>2015-05-17T08:36:45.000Z</time>
      </trkpt>
      <trkpt lat="47.40511" lon="6.7242">
        <ele>436</ele>
        <time>2015-05-17T08:36:46.000Z</time>
      </trkpt>
      <trkpt lat="47.40507" lon="6.72418">
        <ele>436</ele>
        <time>2015-05-17T08:36:47.000Z</time>
      </trkpt>
      <trkpt lat="47.40503" lon="6.72415">
        <ele>435</ele>
        <time>2015-05-17T08:36:48.000Z</time>
      </trkpt>
      <trkpt lat="47.40498" lon="6.72413">
        <ele>437</ele>
        <time>2015-05-17T08:36:49.000Z</time>
      </trkpt>
      <trkpt lat="47.40494" lon="6.7241">
        <ele>438</ele>
        <time>2015-05-17T08:36:50.000Z</time>
      </trkpt>
      <trkpt lat="47.40489" lon="6.72407">
        <ele>439</ele>
        <time>2015-05-17T08:36:51.000Z</time>
      </trkpt>
      <trkpt lat="47.40484" lon="6.72404">
        <ele>441</ele>
        <time>2015-05-17T08:36:52.000Z</time>
      </trkpt>
      <trkpt lat="47.40479" lon="6.724">
        <ele>442</ele>
        <time>2015-05-17T08:36:53.000Z</time>
      </trkpt>
      <trkpt lat="47.40465" lon="6.72393">
        <ele>444</ele>
        <time>2015-05-17T08:36:54.000Z</time>
      </trkpt>
      <trkpt lat="47.40459" lon="6.72388">
        <ele>444</ele>
        <time>2015-05-17T08:36:55.000Z</time>
      </trkpt>
      <trkpt lat="47.40455" lon="6.72387">
        <ele>445</ele>
        <time>2015-05-17T08:36:56.000Z</time>
      </trkpt>
      <trkpt lat="47.4045" lon="6.72384">
        <ele>445</ele>
        <time>2015-05-17T08:36:57.000Z</time>
      </trkpt>
      <trkpt lat="47.40446" lon="6.72384">
        <ele>445</ele>
        <time>2015-05-17T08:36:58.000Z</time>
      </trkpt>
      <trkpt lat="47.40443" lon="6.72382">
        <ele>445</ele>
        <time>2015-05-17T08:36:59.000Z</time>
      </trkpt>
      <trkpt lat="47.40439" lon="6.7238">
        <ele>446</ele>
        <time>2015-05-17T08:37:00.000Z</time>
      </trkpt>
      <trkpt lat="47.40435" lon="6.7238">
        <ele>446</ele>
        <time>2015-05-17T08:37:01.000Z</time>
      </trkpt>
      <trkpt lat="47.40431" lon="6.7238">
        <ele>446</ele>
        <time>2015-05-17T08:37:02.000Z</time>
      </trkpt>
      <trkpt lat="47.40426" lon="6.7238">
        <ele>446</ele>
        <time>2015-05-17T08:37:03.000Z</time>
      </trkpt>
      <trkpt lat="47.40424" lon="6.72378">
        <ele>446</ele>
        <time>2015-05-17T08:37:04.000Z</time>
      </trkpt>
      <trkpt lat="47.4042" lon="6.72377">
        <ele>446</ele>
        <time>2015-05-17T08:37:05.000Z</time>
      </trkpt>
      <trkpt lat="47.40416" lon="6.72377">
        <ele>452</ele>
        <time>2015-05-17T08:37:06.000Z</time>
      </trkpt>
      <trkpt lat="47.40413" lon="6.72376">
        <ele>452</ele>
        <time>2015-05-17T08:37:07.000Z</time>
      </trkpt>
      <trkpt lat="47.40409" lon="6.72375">
        <ele>452</ele>
        <time>2015-05-17T08:37:08.000Z</time>
      </trkpt>
      <trkpt lat="47.40406" lon="6.72374">
        <ele>453</ele>
        <time>2015-05-17T08:37:09.000Z</time>
      </trkpt>
      <trkpt lat="47.40403" lon="6.72373">
        <ele>453</ele>
        <time>2015-05-17T08:37:10.000Z</time>
      </trkpt>
      <trkpt lat="47.404" lon="6.72371">
        <ele>453</ele>
        <time>2015-05-17T08:37:11.000Z</time>
      </trkpt>
      <trkpt lat="47.40397" lon="6.7237">
        <ele>453</ele>
        <time>2015-05-17T08:37:12.000Z</time>
      </trkpt>
      <trkpt lat="47.40393" lon="6.72368">
        <ele>453</ele>
        <time>2015-05-17T08:37:13.000Z</time>
      </trkpt>
      <trkpt lat="47.4039" lon="6.72366">
        <ele>453</ele>
        <time>2015-05-17T08:37:14.000Z</time>
      </trkpt>
      <trkpt lat="47.40386" lon="6.72364">
        <ele>453</ele>
        <time>2015-05-17T08:37:15.000Z</time>
      </trkpt>
      <trkpt lat="47.40382" lon="6.72362">
        <ele>453</ele>
        <time>2015-05-17T08:37:16.000Z</time>
      </trkpt>
      <trkpt lat="47.40379" lon="6.72359">
        <ele>453</ele>
        <time>2015-05-17T08:37:17.000Z</time>
      </trkpt>
      <trkpt lat="47.40375" lon="6.72357">
        <ele>454</ele>
        <time>2015-05-17T08:37:18.000Z</time>
      </trkpt>
      <trkpt lat="47.40372" lon="6.72354">
        <ele>454</ele>
        <time>2015-05-17T08:37:19.000Z</time>
      </trkpt>
      <trkpt lat="47.40368" lon="6.72351">
        <ele>454</ele>
        <time>2015-05-17T08:37:20.000Z</time>
      </trkpt>
      <trkpt lat="47.40364" lon="6.72348">
        <ele>454</ele>
        <time>2015-05-17T08:37:21.000Z</time>
      </trkpt>
      <trkpt lat="47.4036" lon="6.72345">
        <ele>454</ele>
        <time>2015-05-17T08:37:22.000Z</time>
      </trkpt>
      <trkpt lat="47.40356" lon="6.72342">
        <ele>454</ele>
        <time>2015-05-17T08:37:23.000Z</time>
      </trkpt>
      <trkpt lat="47.40352" lon="6.72339">
        <ele>454</ele>
        <time>2015-05-17T08:37:24.000Z</time>
      </trkpt>
      <trkpt lat="47.40348" lon="6.72337">
        <ele>454</ele>
        <time>2015-05-17T08:37:25.000Z</time>
      </trkpt>
      <trkpt lat="47.40345" lon="6.72334">
        <ele>454</ele>
        <time>2015-05-17T08:37:26.000Z</time>
      </trkpt>
      <trkpt lat="47.40342" lon="6.72332">
        <ele>456</ele>
        <time>2015-05-17T08:37:27.000Z</time>
      </trkpt>
      <trkpt lat="47.40339" lon="6.72331">
        <ele>456</ele>
        <time>2015-05-17T08:37:28.000Z</time>
      </trkpt>
      <trkpt lat="47.40336" lon="6.7233">
        <ele>455</ele>
        <time>2015-05-17T08:37:29.000Z</time>
      </trkpt>
      <trkpt lat="47.40333" lon="6.72329">
        <ele>456</ele>
        <time>2015-05-17T08:37:30.000Z</time>
      </trkpt>
      <trkpt lat="47.4033" lon="6.72328">
        <ele>456</ele>
        <time>2015-05-17T08:37:31.000Z</time>
      </trkpt>
      <trkpt lat="47.40326" lon="6.72327">
        <ele>457</ele>
        <time>2015-05-17T08:37:32.000Z</time>
      </trkpt>
      <trkpt lat="47.40323" lon="6.72325">
        <ele>458</ele>
        <time>2015-05-17T08:37:33.000Z</time>
      </trkpt>
      <trkpt lat="47.4032" lon="6.72322">
        <ele>459</ele>
        <time>2015-05-17T08:37:34.000Z</time>
      </trkpt>
      <trkpt lat="47.40317" lon="6.72319">
        <ele>460</ele>
        <time>2015-05-17T08:37:35.000Z</time>
      </trkpt>
      <trkpt lat="47.40315" lon="6.72316">
        <ele>460</ele>
        <time>2015-05-17T08:37:36.000Z</time>
      </trkpt>
      <trkpt lat="47.40313" lon="6.72313">
        <ele>461</ele>
        <time>2015-05-17T08:37:37.000Z</time>
      </trkpt>
      <trkpt lat="47.4031" lon="6.72311">
        <ele>461</ele>
        <time>2015-05-17T08:37:38.000Z</time>
      </trkpt>
      <trkpt lat="47.40307" lon="6.72308">
        <ele>462</ele>
        <time>2015-05-17T08:37:39.000Z</time>
      </trkpt>
      <trkpt lat="47.40303" lon="6.72305">
        <ele>462</ele>
        <time>2015-05-17T08:37:40.000Z</time>
      </trkpt>
      <trkpt lat="47.403" lon="6.72302">
        <ele>462</ele>
        <time>2015-05-17T08:37:41.000Z</time>
      </trkpt>
      <trkpt lat="47.40296" lon="6.72299">
        <ele>463</ele>
        <time>2015-05-17T08:37:42.000Z</time>
      </trkpt>
      <trkpt lat="47.40292" lon="6.72297">
        <ele>463</ele>
        <time>2015-05-17T08:37:43.000Z</time>
      </trkpt>
      <trkpt lat="47.40289" lon="6.72296">
        <ele>463</ele>
        <time>2015-05-17T08:37:44.000Z</time>
      </trkpt>
      <trkpt lat="47.40286" lon="6.72294">
        <ele>463</ele>
        <time>2015-05-17T08:37:45.000Z</time>
      </trkpt>
      <trkpt lat="47.40283" lon="6.72293">
        <ele>463</ele>
        <time>2015-05-17T08:37:46.000Z</time>
      </trkpt>
      <trkpt lat="47.40279" lon="6.72292">
        <ele>463</ele>
        <time>2015-05-17T08:37:47.000Z</time>
      </trkpt>
      <trkpt lat="47.40276" lon="6.7229">
        <ele>463</ele>
        <time>2015-05-17T08:37:48.000Z</time>
      </trkpt>
      <trkpt lat="47.40273" lon="6.72289">
        <ele>463</ele>
        <time>2015-05-17T08:37:49.000Z</time>
      </trkpt>
      <trkpt lat="47.40269" lon="6.72287">
        <ele>463</ele>
        <time>2015-05-17T08:37:50.000Z</time>
      </trkpt>
      <trkpt lat="47.40266" lon="6.72285">
        <ele>463</ele>
        <time>2015-05-17T08:37:51.000Z</time>
      </trkpt>
      <trkpt lat="47.40262" lon="6.72283">
        <ele>463</ele>
        <time>2015-05-17T08:37:52.000Z</time>
      </trkpt>
      <trkpt lat="47.40259" lon="6.72281">
        <ele>463</ele>
        <time>2015-05-17T08:37:53.000Z</time>
      </trkpt>
      <trkpt lat="47.40256" lon="6.72278">
        <ele>463</ele>
        <time>2015-05-17T08:37:55.000Z</time>
      </trkpt>
      <trkpt lat="47.40254" lon="6.72277">
        <ele>463</ele>
        <time>2015-05-17T08:37:56.000Z</time>
      </trkpt>
      <trkpt lat="47.4025" lon="6.72277">
        <ele>463</ele>
        <time>2015-05-17T08:37:58.000Z</time>
      </trkpt>
      <trkpt lat="47.40247" lon="6.72277">
        <ele>464</ele>
        <time>2015-05-17T08:37:59.000Z</time>
      </trkpt>
      <trkpt lat="47.40245" lon="6.72276">
        <ele>464</ele>
        <time>2015-05-17T08:38:00.000Z</time>
      </trkpt>
      <trkpt lat="47.40243" lon="6.72276">
        <ele>464</ele>
        <time>2015-05-17T08:38:01.000Z</time>
      </trkpt>
      <trkpt lat="47.4024" lon="6.72276">
        <ele>464</ele>
        <time>2015-05-17T08:38:03.000Z</time>
      </trkpt>
      <trkpt lat="47.40238" lon="6.72276">
        <ele>464</ele>
        <time>2015-05-17T08:38:04.000Z</time>
      </trkpt>
      <trkpt lat="47.40235" lon="6.72275">
        <ele>464</ele>
        <time>2015-05-17T08:38:07.000Z</time>
      </trkpt>
      <trkpt lat="47.40233" lon="6.72274">
        <ele>464</ele>
        <time>2015-05-17T08:38:08.000Z</time>
      </trkpt>
      <trkpt lat="47.40231" lon="6.72273">
        <ele>464</ele>
        <time>2015-05-17T08:38:09.000Z</time>
      </trkpt>
      <trkpt lat="47.40228" lon="6.72272">
        <ele>464</ele>
        <time>2015-05-17T08:38:10.000Z</time>
      </trkpt>
      <trkpt lat="47.40225" lon="6.72271">
        <ele>464</ele>
        <time>2015-05-17T08:38:11.000Z</time>
      </trkpt>
      <trkpt lat="47.40222" lon="6.72271">
        <ele>464</ele>
        <time>2015-05-17T08:38:12.000Z</time>
      </trkpt>
      <trkpt lat="47.40219" lon="6.7227">
        <ele>464</ele>
        <time>2015-05-17T08:38:13.000Z</time>
      </trkpt>
      <trkpt lat="47.40216" lon="6.72269">
        <ele>464</ele>
        <time>2015-05-17T08:38:14.000Z</time>
      </trkpt>
      <trkpt lat="47.40213" lon="6.72268">
        <ele>464</ele>
        <time>2015-05-17T08:38:15.000Z</time>
      </trkpt>
      <trkpt lat="47.4021" lon="6.72267">
        <ele>464</ele>
        <time>2015-05-17T08:38:16.000Z</time>
      </trkpt>
      <trkpt lat="47.40208" lon="6.72266">
        <ele>464</ele>
        <time>2015-05-17T08:38:17.000Z</time>
      </trkpt>
      <trkpt lat="47.40206" lon="6.72265">
        <ele>464</ele>
        <time>2015-05-17T08:38:18.000Z</time>
      </trkpt>
      <trkpt lat="47.40202" lon="6.72263">
        <ele>464</ele>
        <time>2015-05-17T08:38:20.000Z</time>
      </trkpt>
      <trkpt lat="47.402" lon="6.72262">
        <ele>464</ele>
        <time>2015-05-17T08:38:21.000Z</time>
      </trkpt>
      <trkpt lat="47.40197" lon="6.72261">
        <ele>464</ele>
        <time>2015-05-17T08:38:22.000Z</time>
      </trkpt>
      <trkpt lat="47.40194" lon="6.7226">
        <ele>464</ele>
        <time>2015-05-17T08:38:23.000Z</time>
      </trkpt>
      <trkpt lat="47.40192" lon="6.72259">
        <ele>464</ele>
        <time>2015-05-17T08:38:24.000Z</time>
      </trkpt>
      <trkpt lat="47.40188" lon="6.72257">
        <ele>464</ele>
        <time>2015-05-17T08:38:25.000Z</time>
      </trkpt>
      <trkpt lat="47.40185" lon="6.72256">
        <ele>463</ele>
        <time>2015-05-17T08:38:26.000Z</time>
      </trkpt>
      <trkpt lat="47.40182" lon="6.72254">
        <ele>463</ele>
        <time>2015-05-17T08:38:27.000Z</time>
      </trkpt>
      <trkpt lat="47.4018" lon="6.72253">
        <ele>463</ele>
        <time>2015-05-17T08:38:28.000Z</time>
      </trkpt>
      <trkpt lat="47.40177" lon="6.72252">
        <ele>462</ele>
        <time>2015-05-17T08:38:29.000Z</time>
      </trkpt>
      <trkpt lat="47.40173" lon="6.72251">
        <ele>462</ele>
        <time>2015-05-17T08:38:31.000Z</time>
      </trkpt>
      <trkpt lat="47.40171" lon="6.72251">
        <ele>462</ele>
        <time>2015-05-17T08:38:32.000Z</time>
      </trkpt>
      <trkpt lat="47.40167" lon="6.7225">
        <ele>461</ele>
        <time>2015-05-17T08:38:34.000Z</time>
      </trkpt>
      <trkpt lat="47.40164" lon="6.7225">
        <ele>462</ele>
        <time>2015-05-17T08:38:35.000Z</time>
      </trkpt>
      <trkpt lat="47.40162" lon="6.7225">
        <ele>463</ele>
        <time>2015-05-17T08:38:36.000Z</time>
      </trkpt>
      <trkpt lat="47.4016" lon="6.7225">
        <ele>464</ele>
        <time>2015-05-17T08:38:37.000Z</time>
      </trkpt>
      <trkpt lat="47.40155" lon="6.7225">
        <ele>465</ele>
        <time>2015-05-17T08:38:39.000Z</time>
      </trkpt>
      <trkpt lat="47.40154" lon="6.7225">
        <ele>465</ele>
        <time>2015-05-17T08:38:40.000Z</time>
      </trkpt>
      <trkpt lat="47.40151" lon="6.72247">
        <ele>466</ele>
        <time>2015-05-17T08:38:42.000Z</time>
      </trkpt>
      <trkpt lat="47.40149" lon="6.72246">
        <ele>466</ele>
        <time>2015-05-17T08:38:43.000Z</time>
      </trkpt>
      <trkpt lat="47.40146" lon="6.72244">
        <ele>467</ele>
        <time>2015-05-17T08:38:45.000Z</time>
      </trkpt>
      <trkpt lat="47.40145" lon="6.72244">
        <ele>467</ele>
        <time>2015-05-17T08:38:46.000Z</time>
      </trkpt>
      <trkpt lat="47.40141" lon="6.72244">
        <ele>467</ele>
        <time>2015-05-17T08:38:48.000Z</time>
      </trkpt>
      <trkpt lat="47.40139" lon="6.72244">
        <ele>468</ele>
        <time>2015-05-17T08:38:49.000Z</time>
      </trkpt>
      <trkpt lat="47.40135" lon="6.72244">
        <ele>468</ele>
        <time>2015-05-17T08:38:51.000Z</time>
      </trkpt>
      <trkpt lat="47.40133" lon="6.72244">
        <ele>468</ele>
        <time>2015-05-17T08:38:52.000Z</time>
      </trkpt>
      <trkpt lat="47.40128" lon="6.72243">
        <ele>469</ele>
        <time>2015-05-17T08:38:54.000Z</time>
      </trkpt>
      <trkpt lat="47.40126" lon="6.72243">
        <ele>469</ele>
        <time>2015-05-17T08:38:55.000Z</time>
      </trkpt>
      <trkpt lat="47.40122" lon="6.72241">
        <ele>469</ele>
        <time>2015-05-17T08:38:57.000Z</time>
      </trkpt>
      <trkpt lat="47.40121" lon="6.72241">
        <ele>469</ele>
        <time>2015-05-17T08:38:58.000Z</time>
      </trkpt>
      <trkpt lat="47.40118" lon="6.72241">
        <ele>469</ele>
        <time>2015-05-17T08:38:59.000Z</time>
      </trkpt>
      <trkpt lat="47.40116" lon="6.7224">
        <ele>469</ele>
        <time>2015-05-17T08:39:00.000Z</time>
      </trkpt>
      <trkpt lat="47.40113" lon="6.7224">
        <ele>469</ele>
        <time>2015-05-17T08:39:01.000Z</time>
      </trkpt>
      <trkpt lat="47.4011" lon="6.7224">
        <ele>470</ele>
        <time>2015-05-17T08:39:02.000Z</time>
      </trkpt>
      <trkpt lat="47.40108" lon="6.7224">
        <ele>470</ele>
        <time>2015-05-17T08:39:03.000Z</time>
      </trkpt>
      <trkpt lat="47.40105" lon="6.72239">
        <ele>470</ele>
        <time>2015-05-17T08:39:04.000Z</time>
      </trkpt>
      <trkpt lat="47.40102" lon="6.72238">
        <ele>470</ele>
        <time>2015-05-17T08:39:06.000Z</time>
      </trkpt>
      <trkpt lat="47.40101" lon="6.72238">
        <ele>470</ele>
        <time>2015-05-17T08:39:07.000Z</time>
      </trkpt>
      <trkpt lat="47.40098" lon="6.72235">
        <ele>470</ele>
        <time>2015-05-17T08:39:09.000Z</time>
      </trkpt>
      <trkpt lat="47.40096" lon="6.72234">
        <ele>470</ele>
        <time>2015-05-17T08:39:10.000Z</time>
      </trkpt>
      <trkpt lat="47.40093" lon="6.72231">
        <ele>470</ele>
        <time>2015-05-17T08:39:12.000Z</time>
      </trkpt>
      <trkpt lat="47.40091" lon="6.7223">
        <ele>470</ele>
        <time>2015-05-17T08:39:13.000Z</time>
      </trkpt>
      <trkpt lat="47.40088" lon="6.72227">
        <ele>470</ele>
        <time>2015-05-17T08:39:16.000Z</time>
      </trkpt>
      <trkpt lat="47.40087" lon="6.72226">
        <ele>470</ele>
        <time>2015-05-17T08:39:17.000Z</time>
      </trkpt>
      <trkpt lat="47.40084" lon="6.72223">
        <ele>471</ele>
        <time>2015-05-17T08:39:20.000Z</time>
      </trkpt>
      <trkpt lat="47.40083" lon="6.72223">
        <ele>475</ele>
        <time>2015-05-17T08:39:21.000Z</time>
      </trkpt>
      <trkpt lat="47.40079" lon="6.7222">
        <ele>475</ele>
        <time>2015-05-17T08:39:24.000Z</time>
      </trkpt>
      <trkpt lat="47.40078" lon="6.72219">
        <ele>475</ele>
        <time>2015-05-17T08:39:25.000Z</time>
      </trkpt>
      <trkpt lat="47.40075" lon="6.72216">
        <ele>475</ele>
        <time>2015-05-17T08:39:27.000Z</time>
      </trkpt>
      <trkpt lat="47.40073" lon="6.72215">
        <ele>476</ele>
        <time>2015-05-17T08:39:28.000Z</time>
      </trkpt>
      <trkpt lat="47.4007" lon="6.72212">
        <ele>476</ele>
        <time>2015-05-17T08:39:30.000Z</time>
      </trkpt>
      <trkpt lat="47.40069" lon="6.7221">
        <ele>476</ele>
        <time>2015-05-17T08:39:31.000Z</time>
      </trkpt>
      <trkpt lat="47.40067" lon="6.72207">
        <ele>476</ele>
        <time>2015-05-17T08:39:33.000Z</time>
      </trkpt>
      <trkpt lat="47.40066" lon="6.72206">
        <ele>476</ele>
        <time>2015-05-17T08:39:34.000Z</time>
      </trkpt>
      <trkpt lat="47.40063" lon="6.72202">
        <ele>477</ele>
        <time>2015-05-17T08:39:36.000Z</time>
      </trkpt>
      <trkpt lat="47.40062" lon="6.72201">
        <ele>477</ele>
        <time>2015-05-17T08:39:37.000Z</time>
      </trkpt>
      <trkpt lat="47.40059" lon="6.72197">
        <ele>477</ele>
        <time>2015-05-17T08:39:39.000Z</time>
      </trkpt>
      <trkpt lat="47.40057" lon="6.72195">
        <ele>477</ele>
        <time>2015-05-17T08:39:40.000Z</time>
      </trkpt>
      <trkpt lat="47.40054" lon="6.72191">
        <ele>477</ele>
        <time>2015-05-17T08:39:43.000Z</time>
      </trkpt>
      <trkpt lat="47.40053" lon="6.72189">
        <ele>477</ele>
        <time>2015-05-17T08:39:44.000Z</time>
      </trkpt>
      <trkpt lat="47.4005" lon="6.72185">
        <ele>477</ele>
        <time>2015-05-17T08:39:46.000Z</time>
      </trkpt>
      <trkpt lat="47.40048" lon="6.72183">
        <ele>477</ele>
        <time>2015-05-17T08:39:47.000Z</time>
      </trkpt>
      <trkpt lat="47.40045" lon="6.7218">
        <ele>477</ele>
        <time>2015-05-17T08:39:49.000Z</time>
      </trkpt>
      <trkpt lat="47.40044" lon="6.72179">
        <ele>477</ele>
        <time>2015-05-17T08:39:50.000Z</time>
      </trkpt>
      <trkpt lat="47.4004" lon="6.72175">
        <ele>477</ele>
        <time>2015-05-17T08:39:53.000Z</time>
      </trkpt>
      <trkpt lat="47.40039" lon="6.72174">
        <ele>477</ele>
        <time>2015-05-17T08:39:54.000Z</time>
      </trkpt>
      <trkpt lat="47.40037" lon="6.72168">
        <ele>477</ele>
        <time>2015-05-17T08:39:57.000Z</time>
      </trkpt>
      <trkpt lat="47.40036" lon="6.72166">
        <ele>480</ele>
        <time>2015-05-17T08:39:58.000Z</time>
      </trkpt>
      <trkpt lat="47.40034" lon="6.72162">
        <ele>480</ele>
        <time>2015-05-17T08:40:00.000Z</time>
      </trkpt>
      <trkpt lat="47.40032" lon="6.7216">
        <ele>480</ele>
        <time>2015-05-17T08:40:01.000Z</time>
      </trkpt>
      <trkpt lat="47.40028" lon="6.72156">
        <ele>480</ele>
        <time>2015-05-17T08:40:03.000Z</time>
      </trkpt>
      <trkpt lat="47.40027" lon="6.72154">
        <ele>480</ele>
        <time>2015-05-17T08:40:04.000Z</time>
      </trkpt>
      <trkpt lat="47.40025" lon="6.7215">
        <ele>480</ele>
        <time>2015-05-17T08:40:06.000Z</time>
      </trkpt>
      <trkpt lat="47.40024" lon="6.72147">
        <ele>480</ele>
        <time>2015-05-17T08:40:07.000Z</time>
      </trkpt>
      <trkpt lat="47.40022" lon="6.72143">
        <ele>480</ele>
        <time>2015-05-17T08:40:09.000Z</time>
      </trkpt>
      <trkpt lat="47.4002" lon="6.72141">
        <ele>480</ele>
        <time>2015-05-17T08:40:10.000Z</time>
      </trkpt>
      <trkpt lat="47.40017" lon="6.72138">
        <ele>481</ele>
        <time>2015-05-17T08:40:12.000Z</time>
      </trkpt>
      <trkpt lat="47.40015" lon="6.72135">
        <ele>481</ele>
        <time>2015-05-17T08:40:13.000Z</time>
      </trkpt>
      <trkpt lat="47.40014" lon="6.72133">
        <ele>481</ele>
        <time>2015-05-17T08:40:14.000Z</time>
      </trkpt>
      <trkpt lat="47.40012" lon="6.7213">
        <ele>481</ele>
        <time>2015-05-17T08:40:15.000Z</time>
      </trkpt>
      <trkpt lat="47.4001" lon="6.72125">
        <ele>481</ele>
        <time>2015-05-17T08:40:17.000Z</time>
      </trkpt>
      <trkpt lat="47.40009" lon="6.72124">
        <ele>481</ele>
        <time>2015-05-17T08:40:18.000Z</time>
      </trkpt>
      <trkpt lat="47.40007" lon="6.72119">
        <ele>481</ele>
        <time>2015-05-17T08:40:21.000Z</time>
      </trkpt>
      <trkpt lat="47.40005" lon="6.72117">
        <ele>482</ele>
        <time>2015-05-17T08:40:22.000Z</time>
      </trkpt>
      <trkpt lat="47.40002" lon="6.72113">
        <ele>482</ele>
        <time>2015-05-17T08:40:24.000Z</time>
      </trkpt>
      <trkpt lat="47.40001" lon="6.72111">
        <ele>482</ele>
        <time>2015-05-17T08:40:25.000Z</time>
      </trkpt>
      <trkpt lat="47.39998" lon="6.72107">
        <ele>483</ele>
        <time>2015-05-17T08:40:27.000Z</time>
      </trkpt>
      <trkpt lat="47.39997" lon="6.72105">
        <ele>483</ele>
        <time>2015-05-17T08:40:28.000Z</time>
      </trkpt>
      <trkpt lat="47.39995" lon="6.72101">
        <ele>483</ele>
        <time>2015-05-17T08:40:30.000Z</time>
      </trkpt>
      <trkpt lat="47.39993" lon="6.72099">
        <ele>483</ele>
        <time>2015-05-17T08:40:31.000Z</time>
      </trkpt>
      <trkpt lat="47.39989" lon="6.72095">
        <ele>483</ele>
        <time>2015-05-17T08:40:33.000Z</time>
      </trkpt>
      <trkpt lat="47.39987" lon="6.72094">
        <ele>483</ele>
        <time>2015-05-17T08:40:34.000Z</time>
      </trkpt>
      <trkpt lat="47.39984" lon="6.72092">
        <ele>483</ele>
        <time>2015-05-17T08:40:36.000Z</time>
      </trkpt>
      <trkpt lat="47.39983" lon="6.7209">
        <ele>483</ele>
        <time>2015-05-17T08:40:37.000Z</time>
      </trkpt>
      <trkpt lat="47.3998" lon="6.72087">
        <ele>483</ele>
        <time>2015-05-17T08:40:39.000Z</time>
      </trkpt>
      <trkpt lat="47.39979" lon="6.72085">
        <ele>483</ele>
        <time>2015-05-17T08:40:40.000Z</time>
      </trkpt>
      <trkpt lat="47.39977" lon="6.7208">
        <ele>487</ele>
        <time>2015-05-17T08:40:43.000Z</time>
      </trkpt>
      <trkpt lat="47.39976" lon="6.72077">
        <ele>487</ele>
        <time>2015-05-17T08:40:44.000Z</time>
      </trkpt>
      <trkpt lat="47.39973" lon="6.72072">
        <ele>488</ele>
        <time>2015-05-17T08:40:47.000Z</time>
      </trkpt>
      <trkpt lat="47.39973" lon="6.72071">
        <ele>488</ele>
        <time>2015-05-17T08:40:48.000Z</time>
      </trkpt>
      <trkpt lat="47.39975" lon="6.72075">
        <ele>487</ele>
        <time>2015-05-17T08:40:54.000Z</time>
      </trkpt>
      <trkpt lat="47.39976" lon="6.72077">
        <ele>487</ele>
        <time>2015-05-17T08:40:55.000Z</time>
      </trkpt>
      <trkpt lat="47.39978" lon="6.72082">
        <ele>487</ele>
        <time>2015-05-17T08:40:57.000Z</time>
      </trkpt>
      <trkpt lat="47.39979" lon="6.72084">
        <ele>483</ele>
        <time>2015-05-17T08:40:58.000Z</time>
      </trkpt>
      <trkpt lat="47.39983" lon="6.72088">
        <ele>483</ele>
        <time>2015-05-17T08:41:01.000Z</time>
      </trkpt>
      <trkpt lat="47.39984" lon="6.7209">
        <ele>483</ele>
        <time>2015-05-17T08:41:02.000Z</time>
      </trkpt>
      <trkpt lat="47.39987" lon="6.72093">
        <ele>483</ele>
        <time>2015-05-17T08:41:05.000Z</time>
      </trkpt>
      <trkpt lat="47.39988" lon="6.72094">
        <ele>483</ele>
        <time>2015-05-17T08:41:06.000Z</time>
      </trkpt>
      <trkpt lat="47.39992" lon="6.72096">
        <ele>483</ele>
        <time>2015-05-17T08:41:09.000Z</time>
      </trkpt>
      <trkpt lat="47.39993" lon="6.72097">
        <ele>483</ele>
        <time>2015-05-17T08:41:10.000Z</time>
      </trkpt>
      <trkpt lat="47.39995" lon="6.721">
        <ele>483</ele>
        <time>2015-05-17T08:41:12.000Z</time>
      </trkpt>
      <trkpt lat="47.39997" lon="6.72101">
        <ele>483</ele>
        <time>2015-05-17T08:41:13.000Z</time>
      </trkpt>
      <trkpt lat="47.39999" lon="6.72104">
        <ele>483</ele>
        <time>2015-05-17T08:41:15.000Z</time>
      </trkpt>
      <trkpt lat="47.4" lon="6.72106">
        <ele>483</ele>
        <time>2015-05-17T08:41:16.000Z</time>
      </trkpt>
      <trkpt lat="47.40002" lon="6.72109">
        <ele>482</ele>
        <time>2015-05-17T08:41:18.000Z</time>
      </trkpt>
      <trkpt lat="47.40004" lon="6.7211">
        <ele>482</ele>
        <time>2015-05-17T08:41:19.000Z</time>
      </trkpt>
      <trkpt lat="47.40007" lon="6.72112">
        <ele>482</ele>
        <time>2015-05-17T08:41:21.000Z</time>
      </trkpt>
      <trkpt lat="47.40009" lon="6.72113">
        <ele>482</ele>
        <time>2015-05-17T08:41:22.000Z</time>
      </trkpt>
      <trkpt lat="47.40013" lon="6.72115">
        <ele>482</ele>
        <time>2015-05-17T08:41:24.000Z</time>
      </trkpt>
      <trkpt lat="47.40014" lon="6.72116">
        <ele>482</ele>
        <time>2015-05-17T08:41:25.000Z</time>
      </trkpt>
      <trkpt lat="47.40018" lon="6.72117">
        <ele>482</ele>
        <time>2015-05-17T08:41:27.000Z</time>
      </trkpt>
      <trkpt lat="47.4002" lon="6.72117">
        <ele>482</ele>
        <time>2015-05-17T08:41:28.000Z</time>
      </trkpt>
      <trkpt lat="47.40023" lon="6.72118">
        <ele>482</ele>
        <time>2015-05-17T08:41:31.000Z</time>
      </trkpt>
      <trkpt lat="47.40024" lon="6.72119">
        <ele>482</ele>
        <time>2015-05-17T08:41:32.000Z</time>
      </trkpt>
      <trkpt lat="47.40028" lon="6.72123">
        <ele>482</ele>
        <time>2015-05-17T08:41:35.000Z</time>
      </trkpt>
      <trkpt lat="47.40029" lon="6.72124">
        <ele>482</ele>
        <time>2015-05-17T08:41:36.000Z</time>
      </trkpt>
      <trkpt lat="47.40033" lon="6.72128">
        <ele>481</ele>
        <time>2015-05-17T08:41:39.000Z</time>
      </trkpt>
      <trkpt lat="47.40033" lon="6.72129">
        <ele>481</ele>
        <time>2015-05-17T08:41:40.000Z</time>
      </trkpt>
      <trkpt lat="47.40036" lon="6.72133">
        <ele>481</ele>
        <time>2015-05-17T08:41:43.000Z</time>
      </trkpt>
      <trkpt lat="47.40037" lon="6.72135">
        <ele>481</ele>
        <time>2015-05-17T08:41:44.000Z</time>
      </trkpt>
      <trkpt lat="47.4004" lon="6.72138">
        <ele>481</ele>
        <time>2015-05-17T08:41:46.000Z</time>
      </trkpt>
      <trkpt lat="47.40042" lon="6.72139">
        <ele>481</ele>
        <time>2015-05-17T08:41:47.000Z</time>
      </trkpt>
      <trkpt lat="47.40045" lon="6.72141">
        <ele>481</ele>
        <time>2015-05-17T08:41:49.000Z</time>
      </trkpt>
      <trkpt lat="47.40046" lon="6.72142">
        <ele>481</ele>
        <time>2015-05-17T08:41:50.000Z</time>
      </trkpt>
      <trkpt lat="47.4005" lon="6.72146">
        <ele>481</ele>
        <time>2015-05-17T08:41:53.000Z</time>
      </trkpt>
      <trkpt lat="47.40051" lon="6.72147">
        <ele>481</ele>
        <time>2015-05-17T08:41:54.000Z</time>
      </trkpt>
      <trkpt lat="47.40053" lon="6.72149">
        <ele>481</ele>
        <time>2015-05-17T08:41:56.000Z</time>
      </trkpt>
      <trkpt lat="47.40055" lon="6.72149">
        <ele>481</ele>
        <time>2015-05-17T08:41:57.000Z</time>
      </trkpt>
      <trkpt lat="47.40059" lon="6.72151">
        <ele>481</ele>
        <time>2015-05-17T08:41:59.000Z</time>
      </trkpt>
      <trkpt lat="47.40062" lon="6.72152">
        <ele>480</ele>
        <time>2015-05-17T08:42:00.000Z</time>
      </trkpt>
      <trkpt lat="47.40066" lon="6.72154">
        <ele>480</ele>
        <time>2015-05-17T08:42:02.000Z</time>
      </trkpt>
      <trkpt lat="47.40068" lon="6.72155">
        <ele>480</ele>
        <time>2015-05-17T08:42:03.000Z</time>
      </trkpt>
      <trkpt lat="47.40071" lon="6.72157">
        <ele>480</ele>
        <time>2015-05-17T08:42:05.000Z</time>
      </trkpt>
      <trkpt lat="47.40073" lon="6.72158">
        <ele>480</ele>
        <time>2015-05-17T08:42:06.000Z</time>
      </trkpt>
      <trkpt lat="47.40078" lon="6.72159">
        <ele>479</ele>
        <time>2015-05-17T08:42:08.000Z</time>
      </trkpt>
      <trkpt lat="47.4008" lon="6.72159">
        <ele>479</ele>
        <time>2015-05-17T08:42:09.000Z</time>
      </trkpt>
      <trkpt lat="47.40082" lon="6.7216">
        <ele>479</ele>
        <time>2015-05-17T08:42:10.000Z</time>
      </trkpt>
      <trkpt lat="47.40085" lon="6.72159">
        <ele>479</ele>
        <time>2015-05-17T08:42:11.000Z</time>
      </trkpt>
      <trkpt lat="47.40088" lon="6.72158">
        <ele>479</ele>
        <time>2015-05-17T08:42:12.000Z</time>
      </trkpt>
      <trkpt lat="47.40091" lon="6.72156">
        <ele>480</ele>
        <time>2015-05-17T08:42:13.000Z</time>
      </trkpt>
      <trkpt lat="47.40094" lon="6.72155">
        <ele>480</ele>
        <time>2015-05-17T08:42:14.000Z</time>
      </trkpt>
      <trkpt lat="47.40096" lon="6.72154">
        <ele>480</ele>
        <time>2015-05-17T08:42:15.000Z</time>
      </trkpt>
      <trkpt lat="47.40099" lon="6.72152">
        <ele>480</ele>
        <time>2015-05-17T08:42:16.000Z</time>
      </trkpt>
      <trkpt lat="47.40102" lon="6.7215">
        <ele>480</ele>
        <time>2015-05-17T08:42:17.000Z</time>
      </trkpt>
      <trkpt lat="47.40104" lon="6.72147">
        <ele>481</ele>
        <time>2015-05-17T08:42:18.000Z</time>
      </trkpt>
      <trkpt lat="47.40106" lon="6.72143">
        <ele>481</ele>
        <time>2015-05-17T08:42:19.000Z</time>
      </trkpt>
      <trkpt lat="47.40108" lon="6.72139">
        <ele>481</ele>
        <time>2015-05-17T08:42:20.000Z</time>
      </trkpt>
      <trkpt lat="47.4011" lon="6.72133">
        <ele>482</ele>
        <time>2015-05-17T08:42:21.000Z</time>
      </trkpt>
      <trkpt lat="47.40112" lon="6.72126">
        <ele>482</ele>
        <time>2015-05-17T08:42:22.000Z</time>
      </trkpt>
      <trkpt lat="47.40114" lon="6.72118">
        <ele>482</ele>
        <time>2015-05-17T08:42:23.000Z</time>
      </trkpt>
      <trkpt lat="47.40115" lon="6.72112">
        <ele>483</ele>
        <time>2015-05-17T08:42:24.000Z</time>
      </trkpt>
      <trkpt lat="47.40117" lon="6.72105">
        <ele>483</ele>
        <time>2015-05-17T08:42:25.000Z</time>
      </trkpt>
      <trkpt lat="47.40118" lon="6.72098">
        <ele>484</ele>
        <time>2015-05-17T08:42:26.000Z</time>
      </trkpt>
      <trkpt lat="47.4012" lon="6.72092">
        <ele>484</ele>
        <time>2015-05-17T08:42:27.000Z</time>
      </trkpt>
      <trkpt lat="47.40121" lon="6.72086">
        <ele>484</ele>
        <time>2015-05-17T08:42:28.000Z</time>
      </trkpt>
      <trkpt lat="47.40122" lon="6.72081">
        <ele>489</ele>
        <time>2015-05-17T08:42:29.000Z</time>
      </trkpt>
      <trkpt lat="47.40123" lon="6.72076">
        <ele>489</ele>
        <time>2015-05-17T08:42:30.000Z</time>
      </trkpt>
      <trkpt lat="47.40123" lon="6.72072">
        <ele>489</ele>
        <time>2015-05-17T08:42:31.000Z</time>
      </trkpt>
      <trkpt lat="47.40124" lon="6.72067">
        <ele>489</ele>
        <time>2015-05-17T08:42:32.000Z</time>
      </trkpt>
      <trkpt lat="47.40124" lon="6.72062">
        <ele>489</ele>
        <time>2015-05-17T08:42:33.000Z</time>
      </trkpt>
      <trkpt lat="47.40124" lon="6.72057">
        <ele>489</ele>
        <time>2015-05-17T08:42:34.000Z</time>
      </trkpt>
      <trkpt lat="47.40125" lon="6.72051">
        <ele>489</ele>
        <time>2015-05-17T08:42:35.000Z</time>
      </trkpt>
      <trkpt lat="47.40125" lon="6.72046">
        <ele>490</ele>
        <time>2015-05-17T08:42:36.000Z</time>
      </trkpt>
      <trkpt lat="47.40126" lon="6.7204">
        <ele>490</ele>
        <time>2015-05-17T08:42:37.000Z</time>
      </trkpt>
      <trkpt lat="47.40127" lon="6.72035">
        <ele>490</ele>
        <time>2015-05-17T08:42:38.000Z</time>
      </trkpt>
      <trkpt lat="47.40127" lon="6.72031">
        <ele>490</ele>
        <time>2015-05-17T08:42:39.000Z</time>
      </trkpt>
      <trkpt lat="47.40129" lon="6.72026">
        <ele>490</ele>
        <time>2015-05-17T08:42:40.000Z</time>
      </trkpt>
      <trkpt lat="47.4013" lon="6.72022">
        <ele>490</ele>
        <time>2015-05-17T08:42:41.000Z</time>
      </trkpt>
      <trkpt lat="47.40131" lon="6.72017">
        <ele>490</ele>
        <time>2015-05-17T08:42:42.000Z</time>
      </trkpt>
      <trkpt lat="47.40133" lon="6.72013">
        <ele>490</ele>
        <time>2015-05-17T08:42:43.000Z</time>
      </trkpt>
      <trkpt lat="47.40134" lon="6.7201">
        <ele>490</ele>
        <time>2015-05-17T08:42:44.000Z</time>
      </trkpt>
      <trkpt lat="47.40136" lon="6.72006">
        <ele>490</ele>
        <time>2015-05-17T08:42:45.000Z</time>
      </trkpt>
      <trkpt lat="47.40137" lon="6.72002">
        <ele>490</ele>
        <time>2015-05-17T08:42:46.000Z</time>
      </trkpt>
      <trkpt lat="47.40137" lon="6.71998">
        <ele>492</ele>
        <time>2015-05-17T08:42:47.000Z</time>
      </trkpt>
      <trkpt lat="47.40137" lon="6.71993">
        <ele>492</ele>
        <time>2015-05-17T08:42:48.000Z</time>
      </trkpt>
      <trkpt lat="47.40137" lon="6.71988">
        <ele>492</ele>
        <time>2015-05-17T08:42:49.000Z</time>
      </trkpt>
      <trkpt lat="47.40136" lon="6.71984">
        <ele>492</ele>
        <time>2015-05-17T08:42:50.000Z</time>
      </trkpt>
      <trkpt lat="47.40135" lon="6.7198">
        <ele>492</ele>
        <time>2015-05-17T08:42:51.000Z</time>
      </trkpt>
      <trkpt lat="47.40134" lon="6.71976">
        <ele>492</ele>
        <time>2015-05-17T08:42:52.000Z</time>
      </trkpt>
      <trkpt lat="47.40133" lon="6.71972">
        <ele>492</ele>
        <time>2015-05-17T08:42:53.000Z</time>
      </trkpt>
      <trkpt lat="47.40133" lon="6.71968">
        <ele>492</ele>
        <time>2015-05-17T08:42:54.000Z</time>
      </trkpt>
      <trkpt lat="47.40133" lon="6.71964">
        <ele>492</ele>
        <time>2015-05-17T08:42:55.000Z</time>
      </trkpt>
      <trkpt lat="47.40132" lon="6.7196">
        <ele>493</ele>
        <time>2015-05-17T08:42:56.000Z</time>
      </trkpt>
      <trkpt lat="47.40131" lon="6.71956">
        <ele>493</ele>
        <time>2015-05-17T08:42:57.000Z</time>
      </trkpt>
      <trkpt lat="47.40131" lon="6.71952">
        <ele>493</ele>
        <time>2015-05-17T08:42:58.000Z</time>
      </trkpt>
      <trkpt lat="47.4013" lon="6.71948">
        <ele>493</ele>
        <time>2015-05-17T08:42:59.000Z</time>
      </trkpt>
      <trkpt lat="47.4013" lon="6.71944">
        <ele>493</ele>
        <time>2015-05-17T08:43:00.000Z</time>
      </trkpt>
      <trkpt lat="47.40129" lon="6.7194">
        <ele>493</ele>
        <time>2015-05-17T08:43:01.000Z</time>
      </trkpt>
      <trkpt lat="47.40128" lon="6.71936">
        <ele>493</ele>
        <time>2015-05-17T08:43:02.000Z</time>
      </trkpt>
      <trkpt lat="47.40128" lon="6.71933">
        <ele>493</ele>
        <time>2015-05-17T08:43:03.000Z</time>
      </trkpt>
      <trkpt lat="47.40127" lon="6.71929">
        <ele>493</ele>
        <time>2015-05-17T08:43:04.000Z</time>
      </trkpt>
      <trkpt lat="47.40125" lon="6.71924">
        <ele>493</ele>
        <time>2015-05-17T08:43:06.000Z</time>
      </trkpt>
      <trkpt lat="47.40123" lon="6.71922">
        <ele>493</ele>
        <time>2015-05-17T08:43:07.000Z</time>
      </trkpt>
      <trkpt lat="47.40118" lon="6.71923">
        <ele>493</ele>
        <time>2015-05-17T08:44:37.000Z</time>
      </trkpt>
      <trkpt lat="47.40118" lon="6.71922">
        <ele>493</ele>
        <time>2015-05-17T08:44:38.000Z</time>
      </trkpt>
      <trkpt lat="47.40115" lon="6.71925">
        <ele>493</ele>
        <time>2015-05-17T08:45:53.000Z</time>
      </trkpt>
      <trkpt lat="47.40113" lon="6.71926">
        <ele>493</ele>
        <time>2015-05-17T08:45:54.000Z</time>
      </trkpt>
      <trkpt lat="47.40111" lon="6.71928">
        <ele>494</ele>
        <time>2015-05-17T08:45:55.000Z</time>
      </trkpt>
      <trkpt lat="47.40109" lon="6.7193">
        <ele>494</ele>
        <time>2015-05-17T08:45:56.000Z</time>
      </trkpt>
      <trkpt lat="47.40106" lon="6.71934">
        <ele>494</ele>
        <time>2015-05-17T08:45:57.000Z</time>
      </trkpt>
      <trkpt lat="47.40103" lon="6.71938">
        <ele>494</ele>
        <time>2015-05-17T08:45:58.000Z</time>
      </trkpt>
      <trkpt lat="47.401" lon="6.71941">
        <ele>494</ele>
        <time>2015-05-17T08:45:59.000Z</time>
      </trkpt>
      <trkpt lat="47.40097" lon="6.71945">
        <ele>494</ele>
        <time>2015-05-17T08:46:00.000Z</time>
      </trkpt>
      <trkpt lat="47.40094" lon="6.71948">
        <ele>494</ele>
        <time>2015-05-17T08:46:01.000Z</time>
      </trkpt>
      <trkpt lat="47.40091" lon="6.7195">
        <ele>494</ele>
        <time>2015-05-17T08:46:02.000Z</time>
      </trkpt>
      <trkpt lat="47.40088" lon="6.71953">
        <ele>494</ele>
        <time>2015-05-17T08:46:03.000Z</time>
      </trkpt>
      <trkpt lat="47.40085" lon="6.71956">
        <ele>494</ele>
        <time>2015-05-17T08:46:04.000Z</time>
      </trkpt>
      <trkpt lat="47.40082" lon="6.71959">
        <ele>496</ele>
        <time>2015-05-17T08:46:05.000Z</time>
      </trkpt>
      <trkpt lat="47.40079" lon="6.71961">
        <ele>496</ele>
        <time>2015-05-17T08:46:06.000Z</time>
      </trkpt>
      <trkpt lat="47.40076" lon="6.71964">
        <ele>496</ele>
        <time>2015-05-17T08:46:07.000Z</time>
      </trkpt>
      <trkpt lat="47.40073" lon="6.71966">
        <ele>496</ele>
        <time>2015-05-17T08:46:08.000Z</time>
      </trkpt>
      <trkpt lat="47.4007" lon="6.71968">
        <ele>496</ele>
        <time>2015-05-17T08:46:09.000Z</time>
      </trkpt>
      <trkpt lat="47.40067" lon="6.7197">
        <ele>496</ele>
        <time>2015-05-17T08:46:10.000Z</time>
      </trkpt>
      <trkpt lat="47.40064" lon="6.71972">
        <ele>496</ele>
        <time>2015-05-17T08:46:11.000Z</time>
      </trkpt>
      <trkpt lat="47.40061" lon="6.71973">
        <ele>496</ele>
        <time>2015-05-17T08:46:12.000Z</time>
      </trkpt>
      <trkpt lat="47.40059" lon="6.71974">
        <ele>497</ele>
        <time>2015-05-17T08:46:13.000Z</time>
      </trkpt>
      <trkpt lat="47.40056" lon="6.71975">
        <ele>497</ele>
        <time>2015-05-17T08:46:14.000Z</time>
      </trkpt>
      <trkpt lat="47.40054" lon="6.71975">
        <ele>497</ele>
        <time>2015-05-17T08:46:15.000Z</time>
      </trkpt>
      <trkpt lat="47.40051" lon="6.71975">
        <ele>497</ele>
        <time>2015-05-17T08:46:16.000Z</time>
      </trkpt>
      <trkpt lat="47.40048" lon="6.71974">
        <ele>497</ele>
        <time>2015-05-17T08:46:17.000Z</time>
      </trkpt>
      <trkpt lat="47.40046" lon="6.71973">
        <ele>497</ele>
        <time>2015-05-17T08:46:18.000Z</time>
      </trkpt>
      <trkpt lat="47.40043" lon="6.71972">
        <ele>497</ele>
        <time>2015-05-17T08:46:19.000Z</time>
      </trkpt>
      <trkpt lat="47.40041" lon="6.71971">
        <ele>497</ele>
        <time>2015-05-17T08:46:20.000Z</time>
      </trkpt>
      <trkpt lat="47.40039" lon="6.71969">
        <ele>497</ele>
        <time>2015-05-17T08:46:21.000Z</time>
      </trkpt>
      <trkpt lat="47.40036" lon="6.71966">
        <ele>497</ele>
        <time>2015-05-17T08:46:22.000Z</time>
      </trkpt>
      <trkpt lat="47.40034" lon="6.71963">
        <ele>497</ele>
        <time>2015-05-17T08:46:23.000Z</time>
      </trkpt>
      <trkpt lat="47.40032" lon="6.71958">
        <ele>497</ele>
        <time>2015-05-17T08:46:24.000Z</time>
      </trkpt>
      <trkpt lat="47.4003" lon="6.71954">
        <ele>497</ele>
        <time>2015-05-17T08:46:25.000Z</time>
      </trkpt>
      <trkpt lat="47.40028" lon="6.71951">
        <ele>497</ele>
        <time>2015-05-17T08:46:26.000Z</time>
      </trkpt>
      <trkpt lat="47.40026" lon="6.71947">
        <ele>497</ele>
        <time>2015-05-17T08:46:27.000Z</time>
      </trkpt>
      <trkpt lat="47.40024" lon="6.71945">
        <ele>498</ele>
        <time>2015-05-17T08:46:28.000Z</time>
      </trkpt>
      <trkpt lat="47.40022" lon="6.71944">
        <ele>498</ele>
        <time>2015-05-17T08:46:29.000Z</time>
      </trkpt>
      <trkpt lat="47.40019" lon="6.71942">
        <ele>498</ele>
        <time>2015-05-17T08:46:30.000Z</time>
      </trkpt>
      <trkpt lat="47.40016" lon="6.71942">
        <ele>498</ele>
        <time>2015-05-17T08:46:31.000Z</time>
      </trkpt>
      <trkpt lat="47.40013" lon="6.71941">
        <ele>498</ele>
        <time>2015-05-17T08:46:32.000Z</time>
      </trkpt>
      <trkpt lat="47.40011" lon="6.71939">
        <ele>498</ele>
        <time>2015-05-17T08:46:33.000Z</time>
      </trkpt>
      <trkpt lat="47.40008" lon="6.71938">
        <ele>498</ele>
        <time>2015-05-17T08:46:34.000Z</time>
      </trkpt>
      <trkpt lat="47.40004" lon="6.71938">
        <ele>498</ele>
        <time>2015-05-17T08:46:35.000Z</time>
      </trkpt>
      <trkpt lat="47.40001" lon="6.71937">
        <ele>498</ele>
        <time>2015-05-17T08:46:36.000Z</time>
      </trkpt>
      <trkpt lat="47.39998" lon="6.71937">
        <ele>500</ele>
        <time>2015-05-17T08:46:37.000Z</time>
      </trkpt>
      <trkpt lat="47.39995" lon="6.71937">
        <ele>500</ele>
        <time>2015-05-17T08:46:38.000Z</time>
      </trkpt>
      <trkpt lat="47.39992" lon="6.71936">
        <ele>500</ele>
        <time>2015-05-17T08:46:39.000Z</time>
      </trkpt>
      <trkpt lat="47.39989" lon="6.71936">
        <ele>501</ele>
        <time>2015-05-17T08:46:40.000Z</time>
      </trkpt>
      <trkpt lat="47.39986" lon="6.71936">
        <ele>501</ele>
        <time>2015-05-17T08:46:41.000Z</time>
      </trkpt>
      <trkpt lat="47.39982" lon="6.71936">
        <ele>501</ele>
        <time>2015-05-17T08:46:42.000Z</time>
      </trkpt>
      <trkpt lat="47.39979" lon="6.71936">
        <ele>501</ele>
        <time>2015-05-17T08:46:43.000Z</time>
      </trkpt>
      <trkpt lat="47.39976" lon="6.71935">
        <ele>501</ele>
        <time>2015-05-17T08:46:44.000Z</time>
      </trkpt>
      <trkpt lat="47.39973" lon="6.71934">
        <ele>501</ele>
        <time>2015-05-17T08:46:45.000Z</time>
      </trkpt>
      <trkpt lat="47.3997" lon="6.71933">
        <ele>501</ele>
        <time>2015-05-17T08:46:46.000Z</time>
      </trkpt>
      <trkpt lat="47.39967" lon="6.71932">
        <ele>501</ele>
        <time>2015-05-17T08:46:47.000Z</time>
      </trkpt>
      <trkpt lat="47.39964" lon="6.71932">
        <ele>501</ele>
        <time>2015-05-17T08:46:48.000Z</time>
      </trkpt>
      <trkpt lat="47.39962" lon="6.71932">
        <ele>502</ele>
        <time>2015-05-17T08:46:49.000Z</time>
      </trkpt>
      <trkpt lat="47.39959" lon="6.71932">
        <ele>502</ele>
        <time>2015-05-17T08:46:50.000Z</time>
      </trkpt>
      <trkpt lat="47.39956" lon="6.71931">
        <ele>502</ele>
        <time>2015-05-17T08:46:51.000Z</time>
      </trkpt>
      <trkpt lat="47.39954" lon="6.7193">
        <ele>502</ele>
        <time>2015-05-17T08:46:52.000Z</time>
      </trkpt>
      <trkpt lat="47.39951" lon="6.71929">
        <ele>502</ele>
        <time>2015-05-17T08:46:53.000Z</time>
      </trkpt>
      <trkpt lat="47.39949" lon="6.71927">
        <ele>503</ele>
        <time>2015-05-17T08:46:54.000Z</time>
      </trkpt>
      <trkpt lat="47.39946" lon="6.71926">
        <ele>503</ele>
        <time>2015-05-17T08:46:55.000Z</time>
      </trkpt>
      <trkpt lat="47.39944" lon="6.71925">
        <ele>503</ele>
        <time>2015-05-17T08:46:56.000Z</time>
      </trkpt>
      <trkpt lat="47.39941" lon="6.71925">
        <ele>504</ele>
        <time>2015-05-17T08:46:57.000Z</time>
      </trkpt>
      <trkpt lat="47.39939" lon="6.71924">
        <ele>504</ele>
        <time>2015-05-17T08:46:58.000Z</time>
      </trkpt>
      <trkpt lat="47.39936" lon="6.71923">
        <ele>504</ele>
        <time>2015-05-17T08:46:59.000Z</time>
      </trkpt>
      <trkpt lat="47.39934" lon="6.71923">
        <ele>505</ele>
        <time>2015-05-17T08:47:00.000Z</time>
      </trkpt>
      <trkpt lat="47.39931" lon="6.71923">
        <ele>505</ele>
        <time>2015-05-17T08:47:01.000Z</time>
      </trkpt>
      <trkpt lat="47.39928" lon="6.71922">
        <ele>506</ele>
        <time>2015-05-17T08:47:02.000Z</time>
      </trkpt>
      <trkpt lat="47.39926" lon="6.71922">
        <ele>506</ele>
        <time>2015-05-17T08:47:03.000Z</time>
      </trkpt>
      <trkpt lat="47.39923" lon="6.71921">
        <ele>507</ele>
        <time>2015-05-17T08:47:04.000Z</time>
      </trkpt>
      <trkpt lat="47.3992" lon="6.7192">
        <ele>507</ele>
        <time>2015-05-17T08:47:05.000Z</time>
      </trkpt>
      <trkpt lat="47.39918" lon="6.71919">
        <ele>508</ele>
        <time>2015-05-17T08:47:06.000Z</time>
      </trkpt>
      <trkpt lat="47.39915" lon="6.71919">
        <ele>509</ele>
        <time>2015-05-17T08:47:07.000Z</time>
      </trkpt>
      <trkpt lat="47.39912" lon="6.71917">
        <ele>509</ele>
        <time>2015-05-17T08:47:08.000Z</time>
      </trkpt>
      <trkpt lat="47.3991" lon="6.71917">
        <ele>510</ele>
        <time>2015-05-17T08:47:09.000Z</time>
      </trkpt>
      <trkpt lat="47.39908" lon="6.71915">
        <ele>511</ele>
        <time>2015-05-17T08:47:10.000Z</time>
      </trkpt>
      <trkpt lat="47.39905" lon="6.71914">
        <ele>511</ele>
        <time>2015-05-17T08:47:11.000Z</time>
      </trkpt>
      <trkpt lat="47.39903" lon="6.71913">
        <ele>511</ele>
        <time>2015-05-17T08:47:12.000Z</time>
      </trkpt>
      <trkpt lat="47.39901" lon="6.71912">
        <ele>512</ele>
        <time>2015-05-17T08:47:13.000Z</time>
      </trkpt>
      <trkpt lat="47.39898" lon="6.7191">
        <ele>512</ele>
        <time>2015-05-17T08:47:14.000Z</time>
      </trkpt>
      <trkpt lat="47.39896" lon="6.71909">
        <ele>512</ele>
        <time>2015-05-17T08:47:15.000Z</time>
      </trkpt>
      <trkpt lat="47.39894" lon="6.71908">
        <ele>512</ele>
        <time>2015-05-17T08:47:16.000Z</time>
      </trkpt>
      <trkpt lat="47.39892" lon="6.71907">
        <ele>513</ele>
        <time>2015-05-17T08:47:17.000Z</time>
      </trkpt>
      <trkpt lat="47.39889" lon="6.71906">
        <ele>513</ele>
        <time>2015-05-17T08:47:18.000Z</time>
      </trkpt>
      <trkpt lat="47.39886" lon="6.71905">
        <ele>513</ele>
        <time>2015-05-17T08:47:19.000Z</time>
      </trkpt>
      <trkpt lat="47.39883" lon="6.71903">
        <ele>513</ele>
        <time>2015-05-17T08:47:20.000Z</time>
      </trkpt>
      <trkpt lat="47.3988" lon="6.71902">
        <ele>514</ele>
        <time>2015-05-17T08:47:21.000Z</time>
      </trkpt>
      <trkpt lat="47.39878" lon="6.71901">
        <ele>514</ele>
        <time>2015-05-17T08:47:22.000Z</time>
      </trkpt>
      <trkpt lat="47.39876" lon="6.719">
        <ele>514</ele>
        <time>2015-05-17T08:47:23.000Z</time>
      </trkpt>
      <trkpt lat="47.39873" lon="6.71899">
        <ele>514</ele>
        <time>2015-05-17T08:47:24.000Z</time>
      </trkpt>
      <trkpt lat="47.3987" lon="6.71898">
        <ele>514</ele>
        <time>2015-05-17T08:47:25.000Z</time>
      </trkpt>
      <trkpt lat="47.39868" lon="6.71896">
        <ele>515</ele>
        <time>2015-05-17T08:47:26.000Z</time>
      </trkpt>
      <trkpt lat="47.39865" lon="6.71895">
        <ele>515</ele>
        <time>2015-05-17T08:47:27.000Z</time>
      </trkpt>
      <trkpt lat="47.39862" lon="6.71893">
        <ele>515</ele>
        <time>2015-05-17T08:47:28.000Z</time>
      </trkpt>
      <trkpt lat="47.3986" lon="6.71892">
        <ele>515</ele>
        <time>2015-05-17T08:47:29.000Z</time>
      </trkpt>
      <trkpt lat="47.39858" lon="6.7189">
        <ele>515</ele>
        <time>2015-05-17T08:47:30.000Z</time>
      </trkpt>
      <trkpt lat="47.39855" lon="6.71888">
        <ele>515</ele>
        <time>2015-05-17T08:47:31.000Z</time>
      </trkpt>
      <trkpt lat="47.39853" lon="6.71886">
        <ele>515</ele>
        <time>2015-05-17T08:47:32.000Z</time>
      </trkpt>
      <trkpt lat="47.39851" lon="6.71884">
        <ele>515</ele>
        <time>2015-05-17T08:47:33.000Z</time>
      </trkpt>
      <trkpt lat="47.39848" lon="6.71882">
        <ele>515</ele>
        <time>2015-05-17T08:47:34.000Z</time>
      </trkpt>
      <trkpt lat="47.39846" lon="6.7188">
        <ele>516</ele>
        <time>2015-05-17T08:47:35.000Z</time>
      </trkpt>
      <trkpt lat="47.39844" lon="6.71877">
        <ele>516</ele>
        <time>2015-05-17T08:47:36.000Z</time>
      </trkpt>
      <trkpt lat="47.39841" lon="6.71874">
        <ele>516</ele>
        <time>2015-05-17T08:47:37.000Z</time>
      </trkpt>
      <trkpt lat="47.39839" lon="6.71871">
        <ele>516</ele>
        <time>2015-05-17T08:47:38.000Z</time>
      </trkpt>
      <trkpt lat="47.39837" lon="6.71867">
        <ele>516</ele>
        <time>2015-05-17T08:47:39.000Z</time>
      </trkpt>
      <trkpt lat="47.39835" lon="6.71864">
        <ele>516</ele>
        <time>2015-05-17T08:47:40.000Z</time>
      </trkpt>
      <trkpt lat="47.39833" lon="6.71861">
        <ele>519</ele>
        <time>2015-05-17T08:47:41.000Z</time>
      </trkpt>
      <trkpt lat="47.39831" lon="6.71858">
        <ele>519</ele>
        <time>2015-05-17T08:47:42.000Z</time>
      </trkpt>
      <trkpt lat="47.39829" lon="6.71855">
        <ele>519</ele>
        <time>2015-05-17T08:47:43.000Z</time>
      </trkpt>
      <trkpt lat="47.39826" lon="6.71853">
        <ele>519</ele>
        <time>2015-05-17T08:47:44.000Z</time>
      </trkpt>
      <trkpt lat="47.39824" lon="6.7185">
        <ele>519</ele>
        <time>2015-05-17T08:47:45.000Z</time>
      </trkpt>
      <trkpt lat="47.39821" lon="6.71848">
        <ele>519</ele>
        <time>2015-05-17T08:47:46.000Z</time>
      </trkpt>
      <trkpt lat="47.39818" lon="6.71846">
        <ele>519</ele>
        <time>2015-05-17T08:47:47.000Z</time>
      </trkpt>
      <trkpt lat="47.39816" lon="6.71844">
        <ele>519</ele>
        <time>2015-05-17T08:47:48.000Z</time>
      </trkpt>
      <trkpt lat="47.39813" lon="6.71842">
        <ele>519</ele>
        <time>2015-05-17T08:47:49.000Z</time>
      </trkpt>
      <trkpt lat="47.39811" lon="6.7184">
        <ele>519</ele>
        <time>2015-05-17T08:47:50.000Z</time>
      </trkpt>
      <trkpt lat="47.39809" lon="6.71837">
        <ele>519</ele>
        <time>2015-05-17T08:47:51.000Z</time>
      </trkpt>
      <trkpt lat="47.39806" lon="6.71836">
        <ele>519</ele>
        <time>2015-05-17T08:47:52.000Z</time>
      </trkpt>
      <trkpt lat="47.39803" lon="6.71835">
        <ele>519</ele>
        <time>2015-05-17T08:47:53.000Z</time>
      </trkpt>
      <trkpt lat="47.398" lon="6.71835">
        <ele>519</ele>
        <time>2015-05-17T08:47:54.000Z</time>
      </trkpt>
      <trkpt lat="47.39796" lon="6.71835">
        <ele>519</ele>
        <time>2015-05-17T08:47:55.000Z</time>
      </trkpt>
      <trkpt lat="47.39793" lon="6.71834">
        <ele>520</ele>
        <time>2015-05-17T08:47:56.000Z</time>
      </trkpt>
      <trkpt lat="47.3979" lon="6.71834">
        <ele>520</ele>
        <time>2015-05-17T08:47:57.000Z</time>
      </trkpt>
      <trkpt lat="47.39787" lon="6.71833">
        <ele>521</ele>
        <time>2015-05-17T08:47:58.000Z</time>
      </trkpt>
      <trkpt lat="47.39784" lon="6.71832">
        <ele>521</ele>
        <time>2015-05-17T08:47:59.000Z</time>
      </trkpt>
      <trkpt lat="47.39781" lon="6.71831">
        <ele>521</ele>
        <time>2015-05-17T08:48:00.000Z</time>
      </trkpt>
      <trkpt lat="47.39777" lon="6.71829">
        <ele>521</ele>
        <time>2015-05-17T08:48:01.000Z</time>
      </trkpt>
      <trkpt lat="47.39773" lon="6.71828">
        <ele>521</ele>
        <time>2015-05-17T08:48:02.000Z</time>
      </trkpt>
      <trkpt lat="47.3977" lon="6.71826">
        <ele>521</ele>
        <time>2015-05-17T08:48:03.000Z</time>
      </trkpt>
      <trkpt lat="47.39766" lon="6.71823">
        <ele>521</ele>
        <time>2015-05-17T08:48:04.000Z</time>
      </trkpt>
      <trkpt lat="47.39763" lon="6.71821">
        <ele>521</ele>
        <time>2015-05-17T08:48:05.000Z</time>
      </trkpt>
      <trkpt lat="47.3976" lon="6.71819">
        <ele>521</ele>
        <time>2015-05-17T08:48:06.000Z</time>
      </trkpt>
      <trkpt lat="47.39757" lon="6.71817">
        <ele>521</ele>
        <time>2015-05-17T08:48:07.000Z</time>
      </trkpt>
      <trkpt lat="47.39754" lon="6.71815">
        <ele>521</ele>
        <time>2015-05-17T08:48:08.000Z</time>
      </trkpt>
      <trkpt lat="47.39751" lon="6.71814">
        <ele>522</ele>
        <time>2015-05-17T08:48:09.000Z</time>
      </trkpt>
      <trkpt lat="47.39748" lon="6.71812">
        <ele>525</ele>
        <time>2015-05-17T08:48:10.000Z</time>
      </trkpt>
      <trkpt lat="47.39746" lon="6.7181">
        <ele>525</ele>
        <time>2015-05-17T08:48:11.000Z</time>
      </trkpt>
      <trkpt lat="47.39743" lon="6.71808">
        <ele>525</ele>
        <time>2015-05-17T08:48:12.000Z</time>
      </trkpt>
      <trkpt lat="47.39739" lon="6.71806">
        <ele>525</ele>
        <time>2015-05-17T08:48:13.000Z</time>
      </trkpt>
      <trkpt lat="47.39736" lon="6.71804">
        <ele>526</ele>
        <time>2015-05-17T08:48:14.000Z</time>
      </trkpt>
      <trkpt lat="47.39733" lon="6.71802">
        <ele>526</ele>
        <time>2015-05-17T08:48:15.000Z</time>
      </trkpt>
      <trkpt lat="47.39729" lon="6.71801">
        <ele>526</ele>
        <time>2015-05-17T08:48:16.000Z</time>
      </trkpt>
      <trkpt lat="47.39726" lon="6.718">
        <ele>526</ele>
        <time>2015-05-17T08:48:17.000Z</time>
      </trkpt>
      <trkpt lat="47.39723" lon="6.71799">
        <ele>526</ele>
        <time>2015-05-17T08:48:18.000Z</time>
      </trkpt>
      <trkpt lat="47.39719" lon="6.718">
        <ele>527</ele>
        <time>2015-05-17T08:48:19.000Z</time>
      </trkpt>
      <trkpt lat="47.39716" lon="6.718">
        <ele>527</ele>
        <time>2015-05-17T08:48:20.000Z</time>
      </trkpt>
      <trkpt lat="47.39713" lon="6.718">
        <ele>527</ele>
        <time>2015-05-17T08:48:21.000Z</time>
      </trkpt>
      <trkpt lat="47.3971" lon="6.718">
        <ele>527</ele>
        <time>2015-05-17T08:48:22.000Z</time>
      </trkpt>
      <trkpt lat="47.39707" lon="6.718">
        <ele>527</ele>
        <time>2015-05-17T08:48:23.000Z</time>
      </trkpt>
      <trkpt lat="47.39704" lon="6.718">
        <ele>527</ele>
        <time>2015-05-17T08:48:24.000Z</time>
      </trkpt>
      <trkpt lat="47.39701" lon="6.718">
        <ele>527</ele>
        <time>2015-05-17T08:48:25.000Z</time>
      </trkpt>
      <trkpt lat="47.39698" lon="6.71801">
        <ele>528</ele>
        <time>2015-05-17T08:48:26.000Z</time>
      </trkpt>
      <trkpt lat="47.39696" lon="6.71803">
        <ele>528</ele>
        <time>2015-05-17T08:48:27.000Z</time>
      </trkpt>
      <trkpt lat="47.39693" lon="6.71805">
        <ele>528</ele>
        <time>2015-05-17T08:48:28.000Z</time>
      </trkpt>
      <trkpt lat="47.3969" lon="6.71806">
        <ele>528</ele>
        <time>2015-05-17T08:48:29.000Z</time>
      </trkpt>
      <trkpt lat="47.39687" lon="6.71807">
        <ele>528</ele>
        <time>2015-05-17T08:48:30.000Z</time>
      </trkpt>
      <trkpt lat="47.39684" lon="6.71809">
        <ele>528</ele>
        <time>2015-05-17T08:48:31.000Z</time>
      </trkpt>
      <trkpt lat="47.39682" lon="6.7181">
        <ele>528</ele>
        <time>2015-05-17T08:48:32.000Z</time>
      </trkpt>
      <trkpt lat="47.39679" lon="6.71812">
        <ele>528</ele>
        <time>2015-05-17T08:48:33.000Z</time>
      </trkpt>
      <trkpt lat="47.39676" lon="6.71813">
        <ele>528</ele>
        <time>2015-05-17T08:48:34.000Z</time>
      </trkpt>
      <trkpt lat="47.39672" lon="6.71815">
        <ele>528</ele>
        <time>2015-05-17T08:48:35.000Z</time>
      </trkpt>
      <trkpt lat="47.39669" lon="6.71817">
        <ele>528</ele>
        <time>2015-05-17T08:48:36.000Z</time>
      </trkpt>
      <trkpt lat="47.39667" lon="6.71818">
        <ele>532</ele>
        <time>2015-05-17T08:48:37.000Z</time>
      </trkpt>
      <trkpt lat="47.39664" lon="6.7182">
        <ele>532</ele>
        <time>2015-05-17T08:48:38.000Z</time>
      </trkpt>
      <trkpt lat="47.39661" lon="6.71821">
        <ele>532</ele>
        <time>2015-05-17T08:48:39.000Z</time>
      </trkpt>
      <trkpt lat="47.39659" lon="6.71822">
        <ele>532</ele>
        <time>2015-05-17T08:48:40.000Z</time>
      </trkpt>
      <trkpt lat="47.39656" lon="6.71823">
        <ele>532</ele>
        <time>2015-05-17T08:48:41.000Z</time>
      </trkpt>
      <trkpt lat="47.39654" lon="6.71824">
        <ele>532</ele>
        <time>2015-05-17T08:48:42.000Z</time>
      </trkpt>
      <trkpt lat="47.3965" lon="6.71824">
        <ele>532</ele>
        <time>2015-05-17T08:48:44.000Z</time>
      </trkpt>
      <trkpt lat="47.39648" lon="6.71824">
        <ele>533</ele>
        <time>2015-05-17T08:48:45.000Z</time>
      </trkpt>
      <trkpt lat="47.39643" lon="6.71823">
        <ele>533</ele>
        <time>2015-05-17T08:48:47.000Z</time>
      </trkpt>
      <trkpt lat="47.39641" lon="6.71823">
        <ele>533</ele>
        <time>2015-05-17T08:48:48.000Z</time>
      </trkpt>
      <trkpt lat="47.39638" lon="6.71824">
        <ele>534</ele>
        <time>2015-05-17T08:48:50.000Z</time>
      </trkpt>
      <trkpt lat="47.39636" lon="6.71825">
        <ele>534</ele>
        <time>2015-05-17T08:48:51.000Z</time>
      </trkpt>
      <trkpt lat="47.39633" lon="6.71827">
        <ele>534</ele>
        <time>2015-05-17T08:48:52.000Z</time>
      </trkpt>
      <trkpt lat="47.3963" lon="6.71828">
        <ele>534</ele>
        <time>2015-05-17T08:48:53.000Z</time>
      </trkpt>
      <trkpt lat="47.39628" lon="6.71828">
        <ele>534</ele>
        <time>2015-05-17T08:48:54.000Z</time>
      </trkpt>
      <trkpt lat="47.39625" lon="6.71828">
        <ele>534</ele>
        <time>2015-05-17T08:48:55.000Z</time>
      </trkpt>
      <trkpt lat="47.39622" lon="6.71825">
        <ele>535</ele>
        <time>2015-05-17T08:48:59.000Z</time>
      </trkpt>
      <trkpt lat="47.39622" lon="6.71822">
        <ele>535</ele>
        <time>2015-05-17T08:49:00.000Z</time>
      </trkpt>
      <trkpt lat="47.39623" lon="6.71818">
        <ele>535</ele>
        <time>2015-05-17T08:49:01.000Z</time>
      </trkpt>
      <trkpt lat="47.39623" lon="6.71816">
        <ele>535</ele>
        <time>2015-05-17T08:49:02.000Z</time>
      </trkpt>
      <trkpt lat="47.39623" lon="6.71812">
        <ele>535</ele>
        <time>2015-05-17T08:49:03.000Z</time>
      </trkpt>
      <trkpt lat="47.39624" lon="6.71808">
        <ele>535</ele>
        <time>2015-05-17T08:49:04.000Z</time>
      </trkpt>
      <trkpt lat="47.39625" lon="6.71802">
        <ele>535</ele>
        <time>2015-05-17T08:49:06.000Z</time>
      </trkpt>
      <trkpt lat="47.39625" lon="6.718">
        <ele>535</ele>
        <time>2015-05-17T08:49:07.000Z</time>
      </trkpt>
      <trkpt lat="47.39628" lon="6.71795">
        <ele>535</ele>
        <time>2015-05-17T08:49:10.000Z</time>
      </trkpt>
      <trkpt lat="47.39628" lon="6.71793">
        <ele>535</ele>
        <time>2015-05-17T08:49:11.000Z</time>
      </trkpt>
      <trkpt lat="47.39629" lon="6.71787">
        <ele>535</ele>
        <time>2015-05-17T08:49:13.000Z</time>
      </trkpt>
      <trkpt lat="47.39629" lon="6.71784">
        <ele>535</ele>
        <time>2015-05-17T08:49:14.000Z</time>
      </trkpt>
      <trkpt lat="47.39629" lon="6.7178">
        <ele>535</ele>
        <time>2015-05-17T08:49:15.000Z</time>
      </trkpt>
      <trkpt lat="47.39629" lon="6.71776">
        <ele>535</ele>
        <time>2015-05-17T08:49:16.000Z</time>
      </trkpt>
      <trkpt lat="47.3963" lon="6.71772">
        <ele>536</ele>
        <time>2015-05-17T08:49:17.000Z</time>
      </trkpt>
      <trkpt lat="47.3963" lon="6.71769">
        <ele>536</ele>
        <time>2015-05-17T08:49:18.000Z</time>
      </trkpt>
      <trkpt lat="47.3963" lon="6.71765">
        <ele>536</ele>
        <time>2015-05-17T08:49:19.000Z</time>
      </trkpt>
      <trkpt lat="47.39631" lon="6.71761">
        <ele>536</ele>
        <time>2015-05-17T08:49:20.000Z</time>
      </trkpt>
      <trkpt lat="47.39631" lon="6.71758">
        <ele>536</ele>
        <time>2015-05-17T08:49:21.000Z</time>
      </trkpt>
      <trkpt lat="47.39631" lon="6.71755">
        <ele>536</ele>
        <time>2015-05-17T08:49:22.000Z</time>
      </trkpt>
      <trkpt lat="47.39631" lon="6.71751">
        <ele>536</ele>
        <time>2015-05-17T08:49:23.000Z</time>
      </trkpt>
      <trkpt lat="47.39632" lon="6.71746">
        <ele>537</ele>
        <time>2015-05-17T08:49:24.000Z</time>
      </trkpt>
      <trkpt lat="47.39632" lon="6.71742">
        <ele>537</ele>
        <time>2015-05-17T08:49:25.000Z</time>
      </trkpt>
      <trkpt lat="47.39633" lon="6.71738">
        <ele>537</ele>
        <time>2015-05-17T08:49:26.000Z</time>
      </trkpt>
      <trkpt lat="47.39633" lon="6.71732">
        <ele>537</ele>
        <time>2015-05-17T08:49:28.000Z</time>
      </trkpt>
      <trkpt lat="47.39632" lon="6.71729">
        <ele>537</ele>
        <time>2015-05-17T08:49:29.000Z</time>
      </trkpt>
      <trkpt lat="47.39632" lon="6.71725">
        <ele>537</ele>
        <time>2015-05-17T08:49:30.000Z</time>
      </trkpt>
      <trkpt lat="47.39632" lon="6.7172">
        <ele>537</ele>
        <time>2015-05-17T08:49:31.000Z</time>
      </trkpt>
      <trkpt lat="47.39632" lon="6.71715">
        <ele>537</ele>
        <time>2015-05-17T08:49:32.000Z</time>
      </trkpt>
      <trkpt lat="47.39632" lon="6.71709">
        <ele>537</ele>
        <time>2015-05-17T08:49:33.000Z</time>
      </trkpt>
      <trkpt lat="47.39631" lon="6.71704">
        <ele>537</ele>
        <time>2015-05-17T08:49:34.000Z</time>
      </trkpt>
      <trkpt lat="47.3963" lon="6.71698">
        <ele>537</ele>
        <time>2015-05-17T08:49:35.000Z</time>
      </trkpt>
      <trkpt lat="47.3963" lon="6.71692">
        <ele>537</ele>
        <time>2015-05-17T08:49:36.000Z</time>
      </trkpt>
      <trkpt lat="47.3963" lon="6.71685">
        <ele>537</ele>
        <time>2015-05-17T08:49:37.000Z</time>
      </trkpt>
      <trkpt lat="47.3963" lon="6.71678">
        <ele>537</ele>
        <time>2015-05-17T08:49:38.000Z</time>
      </trkpt>
      <trkpt lat="47.39631" lon="6.71672">
        <ele>536</ele>
        <time>2015-05-17T08:49:39.000Z</time>
      </trkpt>
      <trkpt lat="47.39631" lon="6.71665">
        <ele>537</ele>
        <time>2015-05-17T08:49:40.000Z</time>
      </trkpt>
      <trkpt lat="47.39631" lon="6.71659">
        <ele>537</ele>
        <time>2015-05-17T08:49:41.000Z</time>
      </trkpt>
      <trkpt lat="47.39631" lon="6.71652">
        <ele>537</ele>
        <time>2015-05-17T08:49:42.000Z</time>
      </trkpt>
      <trkpt lat="47.39632" lon="6.71646">
        <ele>537</ele>
        <time>2015-05-17T08:49:43.000Z</time>
      </trkpt>
      <trkpt lat="47.39632" lon="6.7164">
        <ele>537</ele>
        <time>2015-05-17T08:49:44.000Z</time>
      </trkpt>
      <trkpt lat="47.39632" lon="6.71634">
        <ele>537</ele>
        <time>2015-05-17T08:49:45.000Z</time>
      </trkpt>
      <trkpt lat="47.39632" lon="6.71628">
        <ele>538</ele>
        <time>2015-05-17T08:49:46.000Z</time>
      </trkpt>
      <trkpt lat="47.39632" lon="6.71621">
        <ele>538</ele>
        <time>2015-05-17T08:49:47.000Z</time>
      </trkpt>
      <trkpt lat="47.39632" lon="6.71615">
        <ele>538</ele>
        <time>2015-05-17T08:49:48.000Z</time>
      </trkpt>
      <trkpt lat="47.39632" lon="6.71609">
        <ele>538</ele>
        <time>2015-05-17T08:49:49.000Z</time>
      </trkpt>
      <trkpt lat="47.39633" lon="6.71602">
        <ele>538</ele>
        <time>2015-05-17T08:49:50.000Z</time>
      </trkpt>
      <trkpt lat="47.39634" lon="6.71596">
        <ele>538</ele>
        <time>2015-05-17T08:49:51.000Z</time>
      </trkpt>
      <trkpt lat="47.39635" lon="6.7159">
        <ele>538</ele>
        <time>2015-05-17T08:49:52.000Z</time>
      </trkpt>
      <trkpt lat="47.39636" lon="6.71585">
        <ele>538</ele>
        <time>2015-05-17T08:49:52.999Z</time>
      </trkpt>
      <trkpt lat="47.39635" lon="6.71573">
        <ele>539</ele>
        <time>2015-05-17T08:49:54.000Z</time>
      </trkpt>
      <trkpt lat="47.39635" lon="6.71566">
        <ele>539</ele>
        <time>2015-05-17T08:49:55.000Z</time>
      </trkpt>
      <trkpt lat="47.39634" lon="6.71557">
        <ele>540</ele>
        <time>2015-05-17T08:49:56.000Z</time>
      </trkpt>
      <trkpt lat="47.39633" lon="6.71547">
        <ele>540</ele>
        <time>2015-05-17T08:49:57.000Z</time>
      </trkpt>
      <trkpt lat="47.39632" lon="6.71539">
        <ele>540</ele>
        <time>2015-05-17T08:49:58.000Z</time>
      </trkpt>
      <trkpt lat="47.39631" lon="6.71531">
        <ele>540</ele>
        <time>2015-05-17T08:49:59.000Z</time>
      </trkpt>
      <trkpt lat="47.3963" lon="6.71524">
        <ele>541</ele>
        <time>2015-05-17T08:50:00.000Z</time>
      </trkpt>
      <trkpt lat="47.3963" lon="6.71517">
        <ele>541</ele>
        <time>2015-05-17T08:50:01.000Z</time>
      </trkpt>
      <trkpt lat="47.3963" lon="6.71511">
        <ele>541</ele>
        <time>2015-05-17T08:50:02.000Z</time>
      </trkpt>
      <trkpt lat="47.3963" lon="6.71506">
        <ele>541</ele>
        <time>2015-05-17T08:50:03.000Z</time>
      </trkpt>
      <trkpt lat="47.39631" lon="6.715">
        <ele>541</ele>
        <time>2015-05-17T08:50:04.000Z</time>
      </trkpt>
      <trkpt lat="47.39631" lon="6.71495">
        <ele>541</ele>
        <time>2015-05-17T08:50:05.000Z</time>
      </trkpt>
      <trkpt lat="47.39631" lon="6.7149">
        <ele>541</ele>
        <time>2015-05-17T08:50:06.000Z</time>
      </trkpt>
      <trkpt lat="47.39631" lon="6.71486">
        <ele>541</ele>
        <time>2015-05-17T08:50:07.000Z</time>
      </trkpt>
      <trkpt lat="47.39632" lon="6.71482">
        <ele>541</ele>
        <time>2015-05-17T08:50:08.000Z</time>
      </trkpt>
      <trkpt lat="47.39632" lon="6.71476">
        <ele>541</ele>
        <time>2015-05-17T08:50:11.000Z</time>
      </trkpt>
      <trkpt lat="47.39633" lon="6.71475">
        <ele>541</ele>
        <time>2015-05-17T08:50:12.000Z</time>
      </trkpt>
      <trkpt lat="47.39634" lon="6.71471">
        <ele>541</ele>
        <time>2015-05-17T08:50:14.000Z</time>
      </trkpt>
      <trkpt lat="47.39635" lon="6.71469">
        <ele>541</ele>
        <time>2015-05-17T08:50:15.000Z</time>
      </trkpt>
      <trkpt lat="47.39638" lon="6.71465">
        <ele>541</ele>
        <time>2015-05-17T08:50:17.000Z</time>
      </trkpt>
      <trkpt lat="47.3964" lon="6.71464">
        <ele>541</ele>
        <time>2015-05-17T08:50:18.000Z</time>
      </trkpt>
      <trkpt lat="47.39643" lon="6.71463">
        <ele>541</ele>
        <time>2015-05-17T08:52:55.000Z</time>
      </trkpt>
      <trkpt lat="47.39645" lon="6.71462">
        <ele>541</ele>
        <time>2015-05-17T08:52:56.000Z</time>
      </trkpt>
      <trkpt lat="47.39648" lon="6.71461">
        <ele>540</ele>
        <time>2015-05-17T08:52:57.000Z</time>
      </trkpt>
      <trkpt lat="47.39652" lon="6.71458">
        <ele>540</ele>
        <time>2015-05-17T08:52:58.000Z</time>
      </trkpt>
      <trkpt lat="47.39662" lon="6.71455">
        <ele>540</ele>
        <time>2015-05-17T08:52:59.000Z</time>
      </trkpt>
      <trkpt lat="47.39667" lon="6.71453">
        <ele>532</ele>
        <time>2015-05-17T08:53:00.000Z</time>
      </trkpt>
      <trkpt lat="47.39674" lon="6.71452">
        <ele>532</ele>
        <time>2015-05-17T08:53:01.000Z</time>
      </trkpt>
      <trkpt lat="47.39682" lon="6.71446">
        <ele>532</ele>
        <time>2015-05-17T08:53:02.000Z</time>
      </trkpt>
      <trkpt lat="47.3969" lon="6.71442">
        <ele>532</ele>
        <time>2015-05-17T08:53:03.000Z</time>
      </trkpt>
      <trkpt lat="47.39698" lon="6.71438">
        <ele>531</ele>
        <time>2015-05-17T08:53:04.000Z</time>
      </trkpt>
      <trkpt lat="47.39708" lon="6.71432">
        <ele>531</ele>
        <time>2015-05-17T08:53:05.000Z</time>
      </trkpt>
      <trkpt lat="47.39719" lon="6.71422">
        <ele>530</ele>
        <time>2015-05-17T08:53:06.000Z</time>
      </trkpt>
      <trkpt lat="47.39728" lon="6.71417">
        <ele>529</ele>
        <time>2015-05-17T08:53:07.000Z</time>
      </trkpt>
      <trkpt lat="47.39738" lon="6.7141">
        <ele>529</ele>
        <time>2015-05-17T08:53:08.000Z</time>
      </trkpt>
      <trkpt lat="47.39748" lon="6.71404">
        <ele>529</ele>
        <time>2015-05-17T08:53:09.000Z</time>
      </trkpt>
      <trkpt lat="47.39757" lon="6.71399">
        <ele>525</ele>
        <time>2015-05-17T08:53:10.000Z</time>
      </trkpt>
      <trkpt lat="47.39765" lon="6.71389">
        <ele>525</ele>
        <time>2015-05-17T08:53:11.000Z</time>
      </trkpt>
      <trkpt lat="47.39774" lon="6.71382">
        <ele>524</ele>
        <time>2015-05-17T08:53:12.000Z</time>
      </trkpt>
      <trkpt lat="47.39783" lon="6.71376">
        <ele>524</ele>
        <time>2015-05-17T08:53:13.000Z</time>
      </trkpt>
      <trkpt lat="47.39792" lon="6.71368">
        <ele>524</ele>
        <time>2015-05-17T08:53:14.000Z</time>
      </trkpt>
      <trkpt lat="47.398" lon="6.71362">
        <ele>523</ele>
        <time>2015-05-17T08:53:15.000Z</time>
      </trkpt>
      <trkpt lat="47.39807" lon="6.71357">
        <ele>523</ele>
        <time>2015-05-17T08:53:16.000Z</time>
      </trkpt>
      <trkpt lat="47.39815" lon="6.71349">
        <ele>522</ele>
        <time>2015-05-17T08:53:17.000Z</time>
      </trkpt>
      <trkpt lat="47.39825" lon="6.71341">
        <ele>521</ele>
        <time>2015-05-17T08:53:18.000Z</time>
      </trkpt>
      <trkpt lat="47.39834" lon="6.71333">
        <ele>519</ele>
        <time>2015-05-17T08:53:19.000Z</time>
      </trkpt>
      <trkpt lat="47.39844" lon="6.71328">
        <ele>518</ele>
        <time>2015-05-17T08:53:20.000Z</time>
      </trkpt>
      <trkpt lat="47.39854" lon="6.71324">
        <ele>518</ele>
        <time>2015-05-17T08:53:21.000Z</time>
      </trkpt>
      <trkpt lat="47.39863" lon="6.7132">
        <ele>517</ele>
        <time>2015-05-17T08:53:22.000Z</time>
      </trkpt>
      <trkpt lat="47.39873" lon="6.7132">
        <ele>517</ele>
        <time>2015-05-17T08:53:23.000Z</time>
      </trkpt>
      <trkpt lat="47.39881" lon="6.71322">
        <ele>517</ele>
        <time>2015-05-17T08:53:24.000Z</time>
      </trkpt>
      <trkpt lat="47.3989" lon="6.71323">
        <ele>516</ele>
        <time>2015-05-17T08:53:25.000Z</time>
      </trkpt>
      <trkpt lat="47.399" lon="6.71325">
        <ele>516</ele>
        <time>2015-05-17T08:53:26.000Z</time>
      </trkpt>
      <trkpt lat="47.39907" lon="6.71327">
        <ele>515</ele>
        <time>2015-05-17T08:53:27.000Z</time>
      </trkpt>
      <trkpt lat="47.39915" lon="6.71328">
        <ele>515</ele>
        <time>2015-05-17T08:53:28.000Z</time>
      </trkpt>
      <trkpt lat="47.39924" lon="6.71321">
        <ele>515</ele>
        <time>2015-05-17T08:53:29.000Z</time>
      </trkpt>
      <trkpt lat="47.39931" lon="6.71314">
        <ele>516</ele>
        <time>2015-05-17T08:53:30.000Z</time>
      </trkpt>
      <trkpt lat="47.39938" lon="6.71307">
        <ele>516</ele>
        <time>2015-05-17T08:53:31.000Z</time>
      </trkpt>
      <trkpt lat="47.39944" lon="6.71297">
        <ele>516</ele>
        <time>2015-05-17T08:53:32.000Z</time>
      </trkpt>
      <trkpt lat="47.39951" lon="6.7129">
        <ele>517</ele>
        <time>2015-05-17T08:53:33.000Z</time>
      </trkpt>
      <trkpt lat="47.39957" lon="6.71282">
        <ele>517</ele>
        <time>2015-05-17T08:53:34.000Z</time>
      </trkpt>
      <trkpt lat="47.39962" lon="6.71273">
        <ele>517</ele>
        <time>2015-05-17T08:53:35.000Z</time>
      </trkpt>
      <trkpt lat="47.39966" lon="6.71265">
        <ele>517</ele>
        <time>2015-05-17T08:53:36.000Z</time>
      </trkpt>
      <trkpt lat="47.39972" lon="6.71256">
        <ele>517</ele>
        <time>2015-05-17T08:53:37.000Z</time>
      </trkpt>
      <trkpt lat="47.39977" lon="6.71246">
        <ele>517</ele>
        <time>2015-05-17T08:53:38.000Z</time>
      </trkpt>
      <trkpt lat="47.39981" lon="6.71237">
        <ele>517</ele>
        <time>2015-05-17T08:53:39.000Z</time>
      </trkpt>
      <trkpt lat="47.39986" lon="6.71229">
        <ele>517</ele>
        <time>2015-05-17T08:53:40.000Z</time>
      </trkpt>
      <trkpt lat="47.39992" lon="6.71221">
        <ele>517</ele>
        <time>2015-05-17T08:53:41.000Z</time>
      </trkpt>
      <trkpt lat="47.39997" lon="6.71215">
        <ele>517</ele>
        <time>2015-05-17T08:53:42.000Z</time>
      </trkpt>
      <trkpt lat="47.40001" lon="6.71212">
        <ele>516</ele>
        <time>2015-05-17T08:53:43.000Z</time>
      </trkpt>
      <trkpt lat="47.40002" lon="6.71209">
        <ele>516</ele>
        <time>2015-05-17T08:53:44.000Z</time>
      </trkpt>
      <trkpt lat="47.40003" lon="6.71203">
        <ele>516</ele>
        <time>2015-05-17T08:53:51.000Z</time>
      </trkpt>
      <trkpt lat="47.40003" lon="6.712">
        <ele>516</ele>
        <time>2015-05-17T08:53:52.000Z</time>
      </trkpt>
      <trkpt lat="47.40003" lon="6.71194">
        <ele>516</ele>
        <time>2015-05-17T08:53:54.000Z</time>
      </trkpt>
      <trkpt lat="47.40002" lon="6.71191">
        <ele>516</ele>
        <time>2015-05-17T08:53:55.000Z</time>
      </trkpt>
      <trkpt lat="47.40003" lon="6.71184">
        <ele>516</ele>
        <time>2015-05-17T08:53:57.000Z</time>
      </trkpt>
      <trkpt lat="47.40003" lon="6.71181">
        <ele>517</ele>
        <time>2015-05-17T08:53:58.000Z</time>
      </trkpt>
      <trkpt lat="47.40003" lon="6.71177">
        <ele>517</ele>
        <time>2015-05-17T08:53:59.000Z</time>
      </trkpt>
      <trkpt lat="47.40004" lon="6.71173">
        <ele>517</ele>
        <time>2015-05-17T08:54:00.000Z</time>
      </trkpt>
      <trkpt lat="47.40005" lon="6.71167">
        <ele>517</ele>
        <time>2015-05-17T08:54:01.000Z</time>
      </trkpt>
      <trkpt lat="47.40006" lon="6.71162">
        <ele>517</ele>
        <time>2015-05-17T08:54:02.000Z</time>
      </trkpt>
      <trkpt lat="47.40007" lon="6.71157">
        <ele>517</ele>
        <time>2015-05-17T08:54:03.000Z</time>
      </trkpt>
      <trkpt lat="47.40007" lon="6.71152">
        <ele>517</ele>
        <time>2015-05-17T08:54:04.000Z</time>
      </trkpt>
      <trkpt lat="47.40007" lon="6.71147">
        <ele>517</ele>
        <time>2015-05-17T08:54:05.000Z</time>
      </trkpt>
      <trkpt lat="47.40007" lon="6.71142">
        <ele>517</ele>
        <time>2015-05-17T08:54:06.000Z</time>
      </trkpt>
      <trkpt lat="47.40007" lon="6.71137">
        <ele>517</ele>
        <time>2015-05-17T08:54:07.000Z</time>
      </trkpt>
      <trkpt lat="47.40007" lon="6.71133">
        <ele>517</ele>
        <time>2015-05-17T08:54:08.000Z</time>
      </trkpt>
      <trkpt lat="47.40007" lon="6.71128">
        <ele>517</ele>
        <time>2015-05-17T08:54:09.000Z</time>
      </trkpt>
      <trkpt lat="47.40007" lon="6.71123">
        <ele>517</ele>
        <time>2015-05-17T08:54:10.000Z</time>
      </trkpt>
      <trkpt lat="47.40006" lon="6.71119">
        <ele>517</ele>
        <time>2015-05-17T08:54:11.000Z</time>
      </trkpt>
      <trkpt lat="47.40005" lon="6.71113">
        <ele>517</ele>
        <time>2015-05-17T08:54:12.000Z</time>
      </trkpt>
      <trkpt lat="47.40004" lon="6.71108">
        <ele>517</ele>
        <time>2015-05-17T08:54:13.000Z</time>
      </trkpt>
      <trkpt lat="47.40003" lon="6.71102">
        <ele>517</ele>
        <time>2015-05-17T08:54:14.000Z</time>
      </trkpt>
      <trkpt lat="47.40002" lon="6.71096">
        <ele>517</ele>
        <time>2015-05-17T08:54:15.000Z</time>
      </trkpt>
      <trkpt lat="47.40001" lon="6.71091">
        <ele>517</ele>
        <time>2015-05-17T08:54:16.000Z</time>
      </trkpt>
      <trkpt lat="47.40001" lon="6.71086">
        <ele>518</ele>
        <time>2015-05-17T08:54:17.000Z</time>
      </trkpt>
      <trkpt lat="47.40002" lon="6.71081">
        <ele>518</ele>
        <time>2015-05-17T08:54:18.000Z</time>
      </trkpt>
      <trkpt lat="47.40002" lon="6.71076">
        <ele>518</ele>
        <time>2015-05-17T08:54:19.000Z</time>
      </trkpt>
      <trkpt lat="47.40002" lon="6.71071">
        <ele>518</ele>
        <time>2015-05-17T08:54:20.000Z</time>
      </trkpt>
      <trkpt lat="47.40001" lon="6.71066">
        <ele>517</ele>
        <time>2015-05-17T08:54:21.000Z</time>
      </trkpt>
      <trkpt lat="47.4" lon="6.7106">
        <ele>517</ele>
        <time>2015-05-17T08:54:22.000Z</time>
      </trkpt>
      <trkpt lat="47.39999" lon="6.71055">
        <ele>518</ele>
        <time>2015-05-17T08:54:23.000Z</time>
      </trkpt>
      <trkpt lat="47.39998" lon="6.71049">
        <ele>518</ele>
        <time>2015-05-17T08:54:24.000Z</time>
      </trkpt>
      <trkpt lat="47.39997" lon="6.71043">
        <ele>518</ele>
        <time>2015-05-17T08:54:25.000Z</time>
      </trkpt>
      <trkpt lat="47.39996" lon="6.71036">
        <ele>518</ele>
        <time>2015-05-17T08:54:26.000Z</time>
      </trkpt>
      <trkpt lat="47.39994" lon="6.71029">
        <ele>518</ele>
        <time>2015-05-17T08:54:27.000Z</time>
      </trkpt>
      <trkpt lat="47.39992" lon="6.71021">
        <ele>519</ele>
        <time>2015-05-17T08:54:28.000Z</time>
      </trkpt>
      <trkpt lat="47.39991" lon="6.71013">
        <ele>519</ele>
        <time>2015-05-17T08:54:29.000Z</time>
      </trkpt>
      <trkpt lat="47.39985" lon="6.70993">
        <ele>518</ele>
        <time>2015-05-17T08:54:30.000Z</time>
      </trkpt>
      <trkpt lat="47.39983" lon="6.70983">
        <ele>518</ele>
        <time>2015-05-17T08:54:31.000Z</time>
      </trkpt>
      <trkpt lat="47.39982" lon="6.70975">
        <ele>517</ele>
        <time>2015-05-17T08:54:32.000Z</time>
      </trkpt>
      <trkpt lat="47.39983" lon="6.7097">
        <ele>517</ele>
        <time>2015-05-17T08:54:33.000Z</time>
      </trkpt>
      <trkpt lat="47.39981" lon="6.70962">
        <ele>517</ele>
        <time>2015-05-17T08:54:34.000Z</time>
      </trkpt>
      <trkpt lat="47.3998" lon="6.70956">
        <ele>517</ele>
        <time>2015-05-17T08:54:35.000Z</time>
      </trkpt>
      <trkpt lat="47.39979" lon="6.70953">
        <ele>516</ele>
        <time>2015-05-17T08:54:36.000Z</time>
      </trkpt>
      <trkpt lat="47.39979" lon="6.70948">
        <ele>516</ele>
        <time>2015-05-17T08:54:37.000Z</time>
      </trkpt>
      <trkpt lat="47.3998" lon="6.70944">
        <ele>516</ele>
        <time>2015-05-17T08:54:38.000Z</time>
      </trkpt>
      <trkpt lat="47.39981" lon="6.70938">
        <ele>516</ele>
        <time>2015-05-17T08:54:39.000Z</time>
      </trkpt>
      <trkpt lat="47.39982" lon="6.70934">
        <ele>516</ele>
        <time>2015-05-17T08:54:40.000Z</time>
      </trkpt>
      <trkpt lat="47.39983" lon="6.70932">
        <ele>516</ele>
        <time>2015-05-17T08:54:41.000Z</time>
      </trkpt>
      <trkpt lat="47.39984" lon="6.70928">
        <ele>516</ele>
        <time>2015-05-17T08:54:42.000Z</time>
      </trkpt>
      <trkpt lat="47.39985" lon="6.70923">
        <ele>516</ele>
        <time>2015-05-17T08:54:43.000Z</time>
      </trkpt>
      <trkpt lat="47.39986" lon="6.70919">
        <ele>516</ele>
        <time>2015-05-17T08:54:44.000Z</time>
      </trkpt>
      <trkpt lat="47.39987" lon="6.70916">
        <ele>513</ele>
        <time>2015-05-17T08:54:45.000Z</time>
      </trkpt>
      <trkpt lat="47.39988" lon="6.70912">
        <ele>513</ele>
        <time>2015-05-17T08:54:46.000Z</time>
      </trkpt>
      <trkpt lat="47.3999" lon="6.70909">
        <ele>513</ele>
        <time>2015-05-17T08:54:47.000Z</time>
      </trkpt>
      <trkpt lat="47.39991" lon="6.70905">
        <ele>513</ele>
        <time>2015-05-17T08:54:48.000Z</time>
      </trkpt>
      <trkpt lat="47.39992" lon="6.709">
        <ele>512</ele>
        <time>2015-05-17T08:54:49.000Z</time>
      </trkpt>
      <trkpt lat="47.39997" lon="6.70885">
        <ele>511</ele>
        <time>2015-05-17T08:54:50.000Z</time>
      </trkpt>
      <trkpt lat="47.39998" lon="6.70876">
        <ele>511</ele>
        <time>2015-05-17T08:54:51.000Z</time>
      </trkpt>
      <trkpt lat="47.39999" lon="6.7087">
        <ele>510</ele>
        <time>2015-05-17T08:54:52.000Z</time>
      </trkpt>
      <trkpt lat="47.40001" lon="6.70865">
        <ele>512</ele>
        <time>2015-05-17T08:54:53.000Z</time>
      </trkpt>
      <trkpt lat="47.40002" lon="6.70861">
        <ele>512</ele>
        <time>2015-05-17T08:54:54.000Z</time>
      </trkpt>
      <trkpt lat="47.40003" lon="6.70857">
        <ele>512</ele>
        <time>2015-05-17T08:54:55.000Z</time>
      </trkpt>
      <trkpt lat="47.40005" lon="6.70854">
        <ele>512</ele>
        <time>2015-05-17T08:54:56.000Z</time>
      </trkpt>
      <trkpt lat="47.40005" lon="6.70847">
        <ele>511</ele>
        <time>2015-05-17T08:54:57.000Z</time>
      </trkpt>
      <trkpt lat="47.40006" lon="6.70842">
        <ele>511</ele>
        <time>2015-05-17T08:54:58.000Z</time>
      </trkpt>
      <trkpt lat="47.40006" lon="6.7084">
        <ele>511</ele>
        <time>2015-05-17T08:54:59.000Z</time>
      </trkpt>
      <trkpt lat="47.40007" lon="6.70836">
        <ele>511</ele>
        <time>2015-05-17T08:55:00.000Z</time>
      </trkpt>
      <trkpt lat="47.40008" lon="6.70832">
        <ele>510</ele>
        <time>2015-05-17T08:55:01.000Z</time>
      </trkpt>
      <trkpt lat="47.4001" lon="6.70828">
        <ele>510</ele>
        <time>2015-05-17T08:55:02.000Z</time>
      </trkpt>
      <trkpt lat="47.40018" lon="6.70813">
        <ele>510</ele>
        <time>2015-05-17T08:55:03.000Z</time>
      </trkpt>
      <trkpt lat="47.4002" lon="6.70806">
        <ele>510</ele>
        <time>2015-05-17T08:55:04.000Z</time>
      </trkpt>
      <trkpt lat="47.40022" lon="6.70802">
        <ele>509</ele>
        <time>2015-05-17T08:55:05.000Z</time>
      </trkpt>
      <trkpt lat="47.40024" lon="6.70797">
        <ele>509</ele>
        <time>2015-05-17T08:55:06.000Z</time>
      </trkpt>
      <trkpt lat="47.40025" lon="6.70792">
        <ele>509</ele>
        <time>2015-05-17T08:55:07.000Z</time>
      </trkpt>
      <trkpt lat="47.40027" lon="6.70787">
        <ele>509</ele>
        <time>2015-05-17T08:55:08.000Z</time>
      </trkpt>
      <trkpt lat="47.40028" lon="6.70781">
        <ele>509</ele>
        <time>2015-05-17T08:55:09.000Z</time>
      </trkpt>
      <trkpt lat="47.40029" lon="6.70776">
        <ele>509</ele>
        <time>2015-05-17T08:55:10.000Z</time>
      </trkpt>
      <trkpt lat="47.40029" lon="6.70774">
        <ele>509</ele>
        <time>2015-05-17T08:55:11.000Z</time>
      </trkpt>
      <trkpt lat="47.40032" lon="6.70766">
        <ele>509</ele>
        <time>2015-05-17T08:55:12.000Z</time>
      </trkpt>
      <trkpt lat="47.40033" lon="6.70761">
        <ele>509</ele>
        <time>2015-05-17T08:55:13.000Z</time>
      </trkpt>
      <trkpt lat="47.40035" lon="6.70756">
        <ele>509</ele>
        <time>2015-05-17T08:55:14.000Z</time>
      </trkpt>
      <trkpt lat="47.40037" lon="6.70749">
        <ele>508</ele>
        <time>2015-05-17T08:55:15.000Z</time>
      </trkpt>
      <trkpt lat="47.40039" lon="6.70742">
        <ele>508</ele>
        <time>2015-05-17T08:55:16.000Z</time>
      </trkpt>
      <trkpt lat="47.40041" lon="6.70735">
        <ele>508</ele>
        <time>2015-05-17T08:55:17.000Z</time>
      </trkpt>
      <trkpt lat="47.40042" lon="6.70727">
        <ele>508</ele>
        <time>2015-05-17T08:55:18.000Z</time>
      </trkpt>
      <trkpt lat="47.40044" lon="6.70706">
        <ele>507</ele>
        <time>2015-05-17T08:55:19.000Z</time>
      </trkpt>
      <trkpt lat="47.40046" lon="6.70693">
        <ele>507</ele>
        <time>2015-05-17T08:55:20.000Z</time>
      </trkpt>
      <trkpt lat="47.40046" lon="6.70684">
        <ele>507</ele>
        <time>2015-05-17T08:55:21.000Z</time>
      </trkpt>
      <trkpt lat="47.40047" lon="6.70672">
        <ele>507</ele>
        <time>2015-05-17T08:55:22.000Z</time>
      </trkpt>
      <trkpt lat="47.40046" lon="6.70665">
        <ele>506</ele>
        <time>2015-05-17T08:55:23.000Z</time>
      </trkpt>
      <trkpt lat="47.40046" lon="6.70655">
        <ele>506</ele>
        <time>2015-05-17T08:55:24.000Z</time>
      </trkpt>
      <trkpt lat="47.40047" lon="6.70644">
        <ele>506</ele>
        <time>2015-05-17T08:55:25.000Z</time>
      </trkpt>
      <trkpt lat="47.40046" lon="6.70636">
        <ele>506</ele>
        <time>2015-05-17T08:55:26.000Z</time>
      </trkpt>
      <trkpt lat="47.40047" lon="6.70624">
        <ele>505</ele>
        <time>2015-05-17T08:55:27.000Z</time>
      </trkpt>
      <trkpt lat="47.40046" lon="6.70615">
        <ele>505</ele>
        <time>2015-05-17T08:55:28.000Z</time>
      </trkpt>
      <trkpt lat="47.40046" lon="6.70607">
        <ele>505</ele>
        <time>2015-05-17T08:55:29.000Z</time>
      </trkpt>
      <trkpt lat="47.40045" lon="6.70599">
        <ele>505</ele>
        <time>2015-05-17T08:55:30.000Z</time>
      </trkpt>
      <trkpt lat="47.40044" lon="6.7059">
        <ele>505</ele>
        <time>2015-05-17T08:55:31.000Z</time>
      </trkpt>
      <trkpt lat="47.40044" lon="6.7058">
        <ele>502</ele>
        <time>2015-05-17T08:55:32.000Z</time>
      </trkpt>
      <trkpt lat="47.40044" lon="6.70571">
        <ele>502</ele>
        <time>2015-05-17T08:55:33.000Z</time>
      </trkpt>
      <trkpt lat="47.40043" lon="6.70562">
        <ele>502</ele>
        <time>2015-05-17T08:55:34.000Z</time>
      </trkpt>
      <trkpt lat="47.40041" lon="6.70556">
        <ele>502</ele>
        <time>2015-05-17T08:55:35.000Z</time>
      </trkpt>
      <trkpt lat="47.40039" lon="6.70546">
        <ele>501</ele>
        <time>2015-05-17T08:55:36.000Z</time>
      </trkpt>
      <trkpt lat="47.40039" lon="6.70535">
        <ele>501</ele>
        <time>2015-05-17T08:55:37.000Z</time>
      </trkpt>
      <trkpt lat="47.4004" lon="6.70522">
        <ele>500</ele>
        <time>2015-05-17T08:55:38.000Z</time>
      </trkpt>
      <trkpt lat="47.40037" lon="6.70515">
        <ele>500</ele>
        <time>2015-05-17T08:55:39.000Z</time>
      </trkpt>
      <trkpt lat="47.40038" lon="6.70503">
        <ele>500</ele>
        <time>2015-05-17T08:55:40.000Z</time>
      </trkpt>
      <trkpt lat="47.40037" lon="6.70492">
        <ele>496</ele>
        <time>2015-05-17T08:55:41.000Z</time>
      </trkpt>
      <trkpt lat="47.40038" lon="6.70483">
        <ele>496</ele>
        <time>2015-05-17T08:55:42.000Z</time>
      </trkpt>
      <trkpt lat="47.40035" lon="6.70471">
        <ele>495</ele>
        <time>2015-05-17T08:55:43.000Z</time>
      </trkpt>
      <trkpt lat="47.40035" lon="6.70462">
        <ele>495</ele>
        <time>2015-05-17T08:55:44.000Z</time>
      </trkpt>
      <trkpt lat="47.40035" lon="6.70452">
        <ele>495</ele>
        <time>2015-05-17T08:55:45.000Z</time>
      </trkpt>
      <trkpt lat="47.40036" lon="6.70442">
        <ele>494</ele>
        <time>2015-05-17T08:55:46.000Z</time>
      </trkpt>
      <trkpt lat="47.40035" lon="6.70429">
        <ele>494</ele>
        <time>2015-05-17T08:55:47.000Z</time>
      </trkpt>
      <trkpt lat="47.40031" lon="6.70418">
        <ele>494</ele>
        <time>2015-05-17T08:55:48.000Z</time>
      </trkpt>
      <trkpt lat="47.40029" lon="6.70407">
        <ele>490</ele>
        <time>2015-05-17T08:55:49.000Z</time>
      </trkpt>
      <trkpt lat="47.4003" lon="6.70391">
        <ele>489</ele>
        <time>2015-05-17T08:55:50.000Z</time>
      </trkpt>
      <trkpt lat="47.40026" lon="6.70381">
        <ele>489</ele>
        <time>2015-05-17T08:55:51.000Z</time>
      </trkpt>
      <trkpt lat="47.40023" lon="6.70373">
        <ele>488</ele>
        <time>2015-05-17T08:55:52.000Z</time>
      </trkpt>
      <trkpt lat="47.4002" lon="6.70367">
        <ele>488</ele>
        <time>2015-05-17T08:55:53.000Z</time>
      </trkpt>
      <trkpt lat="47.40018" lon="6.70363">
        <ele>488</ele>
        <time>2015-05-17T08:55:54.000Z</time>
      </trkpt>
      <trkpt lat="47.40016" lon="6.70359">
        <ele>488</ele>
        <time>2015-05-17T08:55:55.000Z</time>
      </trkpt>
      <trkpt lat="47.40004" lon="6.70355">
        <ele>489</ele>
        <time>2015-05-17T08:55:56.000Z</time>
      </trkpt>
      <trkpt lat="47.40008" lon="6.70354">
        <ele>488</ele>
        <time>2015-05-17T08:56:02.000Z</time>
      </trkpt>
      <trkpt lat="47.4001" lon="6.70355">
        <ele>488</ele>
        <time>2015-05-17T08:56:03.000Z</time>
      </trkpt>
      <trkpt lat="47.40013" lon="6.70357">
        <ele>488</ele>
        <time>2015-05-17T08:56:04.000Z</time>
      </trkpt>
      <trkpt lat="47.40017" lon="6.70359">
        <ele>488</ele>
        <time>2015-05-17T08:56:05.000Z</time>
      </trkpt>
      <trkpt lat="47.40021" lon="6.7036">
        <ele>488</ele>
        <time>2015-05-17T08:56:06.000Z</time>
      </trkpt>
      <trkpt lat="47.40025" lon="6.70362">
        <ele>488</ele>
        <time>2015-05-17T08:56:07.000Z</time>
      </trkpt>
      <trkpt lat="47.4003" lon="6.70362">
        <ele>488</ele>
        <time>2015-05-17T08:56:08.000Z</time>
      </trkpt>
      <trkpt lat="47.40035" lon="6.70363">
        <ele>488</ele>
        <time>2015-05-17T08:56:09.000Z</time>
      </trkpt>
      <trkpt lat="47.4004" lon="6.70364">
        <ele>487</ele>
        <time>2015-05-17T08:56:10.000Z</time>
      </trkpt>
      <trkpt lat="47.40045" lon="6.70365">
        <ele>487</ele>
        <time>2015-05-17T08:56:11.000Z</time>
      </trkpt>
      <trkpt lat="47.40049" lon="6.70366">
        <ele>487</ele>
        <time>2015-05-17T08:56:12.000Z</time>
      </trkpt>
      <trkpt lat="47.40054" lon="6.70367">
        <ele>487</ele>
        <time>2015-05-17T08:56:13.000Z</time>
      </trkpt>
      <trkpt lat="47.40058" lon="6.70369">
        <ele>487</ele>
        <time>2015-05-17T08:56:14.000Z</time>
      </trkpt>
      <trkpt lat="47.40067" lon="6.70374">
        <ele>487</ele>
        <time>2015-05-17T08:56:15.000Z</time>
      </trkpt>
      <trkpt lat="47.40071" lon="6.70378">
        <ele>487</ele>
        <time>2015-05-17T08:56:16.000Z</time>
      </trkpt>
      <trkpt lat="47.40075" lon="6.70381">
        <ele>487</ele>
        <time>2015-05-17T08:56:17.000Z</time>
      </trkpt>
      <trkpt lat="47.4008" lon="6.70385">
        <ele>487</ele>
        <time>2015-05-17T08:56:18.000Z</time>
      </trkpt>
      <trkpt lat="47.40084" lon="6.70389">
        <ele>484</ele>
        <time>2015-05-17T08:56:19.000Z</time>
      </trkpt>
      <trkpt lat="47.40089" lon="6.70392">
        <ele>484</ele>
        <time>2015-05-17T08:56:20.000Z</time>
      </trkpt>
      <trkpt lat="47.40093" lon="6.70396">
        <ele>485</ele>
        <time>2015-05-17T08:56:21.000Z</time>
      </trkpt>
      <trkpt lat="47.40099" lon="6.70396">
        <ele>484</ele>
        <time>2015-05-17T08:56:22.000Z</time>
      </trkpt>
      <trkpt lat="47.40103" lon="6.70394">
        <ele>484</ele>
        <time>2015-05-17T08:56:23.000Z</time>
      </trkpt>
      <trkpt lat="47.40106" lon="6.70391">
        <ele>483</ele>
        <time>2015-05-17T08:56:24.000Z</time>
      </trkpt>
      <trkpt lat="47.40108" lon="6.70389">
        <ele>483</ele>
        <time>2015-05-17T08:56:25.000Z</time>
      </trkpt>
      <trkpt lat="47.4011" lon="6.70386">
        <ele>483</ele>
        <time>2015-05-17T08:56:26.000Z</time>
      </trkpt>
      <trkpt lat="47.40112" lon="6.70384">
        <ele>483</ele>
        <time>2015-05-17T08:56:28.000Z</time>
      </trkpt>
      <trkpt lat="47.40114" lon="6.70383">
        <ele>483</ele>
        <time>2015-05-17T08:56:29.000Z</time>
      </trkpt>
      <trkpt lat="47.40118" lon="6.70381">
        <ele>482</ele>
        <time>2015-05-17T08:56:31.000Z</time>
      </trkpt>
      <trkpt lat="47.40121" lon="6.7038">
        <ele>482</ele>
        <time>2015-05-17T08:56:32.000Z</time>
      </trkpt>
      <trkpt lat="47.40124" lon="6.7038">
        <ele>482</ele>
        <time>2015-05-17T08:56:33.000Z</time>
      </trkpt>
      <trkpt lat="47.40128" lon="6.7038">
        <ele>482</ele>
        <time>2015-05-17T08:56:34.000Z</time>
      </trkpt>
      <trkpt lat="47.40131" lon="6.70381">
        <ele>482</ele>
        <time>2015-05-17T08:56:35.000Z</time>
      </trkpt>
      <trkpt lat="47.40134" lon="6.70382">
        <ele>482</ele>
        <time>2015-05-17T08:56:36.000Z</time>
      </trkpt>
      <trkpt lat="47.40138" lon="6.70383">
        <ele>482</ele>
        <time>2015-05-17T08:56:37.000Z</time>
      </trkpt>
      <trkpt lat="47.40141" lon="6.70384">
        <ele>482</ele>
        <time>2015-05-17T08:56:38.000Z</time>
      </trkpt>
      <trkpt lat="47.40145" lon="6.70385">
        <ele>482</ele>
        <time>2015-05-17T08:56:39.000Z</time>
      </trkpt>
      <trkpt lat="47.40148" lon="6.70386">
        <ele>482</ele>
        <time>2015-05-17T08:56:40.000Z</time>
      </trkpt>
      <trkpt lat="47.40152" lon="6.70388">
        <ele>482</ele>
        <time>2015-05-17T08:56:41.000Z</time>
      </trkpt>
      <trkpt lat="47.40155" lon="6.70389">
        <ele>482</ele>
        <time>2015-05-17T08:56:42.000Z</time>
      </trkpt>
      <trkpt lat="47.40159" lon="6.70391">
        <ele>482</ele>
        <time>2015-05-17T08:56:43.000Z</time>
      </trkpt>
      <trkpt lat="47.40162" lon="6.70394">
        <ele>482</ele>
        <time>2015-05-17T08:56:44.000Z</time>
      </trkpt>
      <trkpt lat="47.40166" lon="6.70396">
        <ele>482</ele>
        <time>2015-05-17T08:56:45.000Z</time>
      </trkpt>
      <trkpt lat="47.4017" lon="6.70398">
        <ele>479</ele>
        <time>2015-05-17T08:56:46.000Z</time>
      </trkpt>
      <trkpt lat="47.40174" lon="6.70401">
        <ele>479</ele>
        <time>2015-05-17T08:56:47.000Z</time>
      </trkpt>
      <trkpt lat="47.40178" lon="6.70403">
        <ele>479</ele>
        <time>2015-05-17T08:56:48.000Z</time>
      </trkpt>
      <trkpt lat="47.40182" lon="6.70407">
        <ele>479</ele>
        <time>2015-05-17T08:56:49.000Z</time>
      </trkpt>
      <trkpt lat="47.40186" lon="6.7041">
        <ele>479</ele>
        <time>2015-05-17T08:56:50.000Z</time>
      </trkpt>
      <trkpt lat="47.40191" lon="6.70414">
        <ele>478</ele>
        <time>2015-05-17T08:56:51.000Z</time>
      </trkpt>
      <trkpt lat="47.40196" lon="6.70417">
        <ele>483</ele>
        <time>2015-05-17T08:56:52.000Z</time>
      </trkpt>
      <trkpt lat="47.40201" lon="6.70421">
        <ele>482</ele>
        <time>2015-05-17T08:56:53.000Z</time>
      </trkpt>
      <trkpt lat="47.40205" lon="6.70425">
        <ele>482</ele>
        <time>2015-05-17T08:56:54.000Z</time>
      </trkpt>
      <trkpt lat="47.40219" lon="6.70433">
        <ele>481</ele>
        <time>2015-05-17T08:56:55.000Z</time>
      </trkpt>
      <trkpt lat="47.40223" lon="6.70438">
        <ele>481</ele>
        <time>2015-05-17T08:56:56.000Z</time>
      </trkpt>
      <trkpt lat="47.4023" lon="6.70446">
        <ele>481</ele>
        <time>2015-05-17T08:56:57.000Z</time>
      </trkpt>
      <trkpt lat="47.40234" lon="6.70453">
        <ele>481</ele>
        <time>2015-05-17T08:56:58.000Z</time>
      </trkpt>
      <trkpt lat="47.4024" lon="6.70461">
        <ele>482</ele>
        <time>2015-05-17T08:56:59.000Z</time>
      </trkpt>
      <trkpt lat="47.40244" lon="6.70468">
        <ele>482</ele>
        <time>2015-05-17T08:57:00.000Z</time>
      </trkpt>
      <trkpt lat="47.40249" lon="6.70472">
        <ele>482</ele>
        <time>2015-05-17T08:57:01.000Z</time>
      </trkpt>
      <trkpt lat="47.40255" lon="6.70477">
        <ele>477</ele>
        <time>2015-05-17T08:57:02.000Z</time>
      </trkpt>
      <trkpt lat="47.4026" lon="6.70481">
        <ele>477</ele>
        <time>2015-05-17T08:57:03.000Z</time>
      </trkpt>
      <trkpt lat="47.40266" lon="6.70486">
        <ele>477</ele>
        <time>2015-05-17T08:57:04.000Z</time>
      </trkpt>
      <trkpt lat="47.40271" lon="6.70494">
        <ele>477</ele>
        <time>2015-05-17T08:57:05.000Z</time>
      </trkpt>
      <trkpt lat="47.40276" lon="6.705">
        <ele>476</ele>
        <time>2015-05-17T08:57:06.000Z</time>
      </trkpt>
      <trkpt lat="47.40281" lon="6.70506">
        <ele>480</ele>
        <time>2015-05-17T08:57:07.000Z</time>
      </trkpt>
      <trkpt lat="47.40287" lon="6.70522">
        <ele>480</ele>
        <time>2015-05-17T08:57:08.000Z</time>
      </trkpt>
      <trkpt lat="47.40293" lon="6.70525">
        <ele>480</ele>
        <time>2015-05-17T08:57:09.000Z</time>
      </trkpt>
      <trkpt lat="47.40299" lon="6.7053">
        <ele>480</ele>
        <time>2015-05-17T08:57:10.000Z</time>
      </trkpt>
      <trkpt lat="47.40307" lon="6.70535">
        <ele>479</ele>
        <time>2015-05-17T08:57:11.000Z</time>
      </trkpt>
      <trkpt lat="47.40315" lon="6.7054">
        <ele>479</ele>
        <time>2015-05-17T08:57:12.000Z</time>
      </trkpt>
      <trkpt lat="47.40322" lon="6.70546">
        <ele>479</ele>
        <time>2015-05-17T08:57:13.000Z</time>
      </trkpt>
      <trkpt lat="47.40331" lon="6.70551">
        <ele>479</ele>
        <time>2015-05-17T08:57:14.000Z</time>
      </trkpt>
      <trkpt lat="47.4034" lon="6.70552">
        <ele>472</ele>
        <time>2015-05-17T08:57:15.000Z</time>
      </trkpt>
      <trkpt lat="47.40344" lon="6.70558">
        <ele>473</ele>
        <time>2015-05-17T08:57:16.000Z</time>
      </trkpt>
      <trkpt lat="47.40349" lon="6.70565">
        <ele>473</ele>
        <time>2015-05-17T08:57:17.000Z</time>
      </trkpt>
      <trkpt lat="47.40354" lon="6.70572">
        <ele>473</ele>
        <time>2015-05-17T08:57:18.000Z</time>
      </trkpt>
      <trkpt lat="47.40359" lon="6.70582">
        <ele>473</ele>
        <time>2015-05-17T08:57:19.000Z</time>
      </trkpt>
      <trkpt lat="47.40361" lon="6.70588">
        <ele>477</ele>
        <time>2015-05-17T08:57:20.000Z</time>
      </trkpt>
      <trkpt lat="47.40365" lon="6.70593">
        <ele>476</ele>
        <time>2015-05-17T08:57:21.000Z</time>
      </trkpt>
      <trkpt lat="47.40369" lon="6.70594">
        <ele>476</ele>
        <time>2015-05-17T08:57:22.000Z</time>
      </trkpt>
      <trkpt lat="47.4037" lon="6.70593">
        <ele>476</ele>
        <time>2015-05-17T08:57:23.000Z</time>
      </trkpt>
      <trkpt lat="47.40373" lon="6.7059">
        <ele>476</ele>
        <time>2015-05-17T08:57:25.000Z</time>
      </trkpt>
      <trkpt lat="47.40375" lon="6.7059">
        <ele>475</ele>
        <time>2015-05-17T08:57:26.000Z</time>
      </trkpt>
      <trkpt lat="47.40378" lon="6.70596">
        <ele>475</ele>
        <time>2015-05-17T08:57:27.000Z</time>
      </trkpt>
      <trkpt lat="47.4038" lon="6.70599">
        <ele>475</ele>
        <time>2015-05-17T08:57:28.000Z</time>
      </trkpt>
      <trkpt lat="47.40383" lon="6.706">
        <ele>475</ele>
        <time>2015-05-17T08:57:29.000Z</time>
      </trkpt>
      <trkpt lat="47.40386" lon="6.70604">
        <ele>475</ele>
        <time>2015-05-17T08:57:31.000Z</time>
      </trkpt>
      <trkpt lat="47.40387" lon="6.70606">
        <ele>475</ele>
        <time>2015-05-17T08:57:32.000Z</time>
      </trkpt>
      <trkpt lat="47.40389" lon="6.70609">
        <ele>475</ele>
        <time>2015-05-17T08:57:33.000Z</time>
      </trkpt>
      <trkpt lat="47.40391" lon="6.70612">
        <ele>475</ele>
        <time>2015-05-17T08:57:34.000Z</time>
      </trkpt>
      <trkpt lat="47.40393" lon="6.70615">
        <ele>475</ele>
        <time>2015-05-17T08:57:35.000Z</time>
      </trkpt>
      <trkpt lat="47.40395" lon="6.70618">
        <ele>475</ele>
        <time>2015-05-17T08:57:35.998Z</time>
      </trkpt>
      <trkpt lat="47.40398" lon="6.70622">
        <ele>475</ele>
        <time>2015-05-17T08:57:37.000Z</time>
      </trkpt>
      <trkpt lat="47.40401" lon="6.70626">
        <ele>475</ele>
        <time>2015-05-17T08:57:38.000Z</time>
      </trkpt>
      <trkpt lat="47.40404" lon="6.70631">
        <ele>475</ele>
        <time>2015-05-17T08:57:39.000Z</time>
      </trkpt>
      <trkpt lat="47.40415" lon="6.70641">
        <ele>475</ele>
        <time>2015-05-17T08:57:40.000Z</time>
      </trkpt>
      <trkpt lat="47.40421" lon="6.70647">
        <ele>470</ele>
        <time>2015-05-17T08:57:41.000Z</time>
      </trkpt>
      <trkpt lat="47.40427" lon="6.70656">
        <ele>471</ele>
        <time>2015-05-17T08:57:42.000Z</time>
      </trkpt>
      <trkpt lat="47.40432" lon="6.70665">
        <ele>471</ele>
        <time>2015-05-17T08:57:43.000Z</time>
      </trkpt>
      <trkpt lat="47.40438" lon="6.70671">
        <ele>473</ele>
        <time>2015-05-17T08:57:44.000Z</time>
      </trkpt>
      <trkpt lat="47.40442" lon="6.70677">
        <ele>472</ele>
        <time>2015-05-17T08:57:45.000Z</time>
      </trkpt>
      <trkpt lat="47.40445" lon="6.7068">
        <ele>472</ele>
        <time>2015-05-17T08:57:46.000Z</time>
      </trkpt>
      <trkpt lat="47.40453" lon="6.70682">
        <ele>471</ele>
        <time>2015-05-17T08:57:47.000Z</time>
      </trkpt>
      <trkpt lat="47.4046" lon="6.70682">
        <ele>471</ele>
        <time>2015-05-17T08:57:48.000Z</time>
      </trkpt>
      <trkpt lat="47.40466" lon="6.7068">
        <ele>470</ele>
        <time>2015-05-17T08:57:49.000Z</time>
      </trkpt>
      <trkpt lat="47.40474" lon="6.70676">
        <ele>470</ele>
        <time>2015-05-17T08:57:50.000Z</time>
      </trkpt>
      <trkpt lat="47.40481" lon="6.70676">
        <ele>469</ele>
        <time>2015-05-17T08:57:51.000Z</time>
      </trkpt>
      <trkpt lat="47.40486" lon="6.70675">
        <ele>469</ele>
        <time>2015-05-17T08:57:52.000Z</time>
      </trkpt>
      <trkpt lat="47.4049" lon="6.70674">
        <ele>468</ele>
        <time>2015-05-17T08:57:53.000Z</time>
      </trkpt>
      <trkpt lat="47.40496" lon="6.70673">
        <ele>467</ele>
        <time>2015-05-17T08:57:54.000Z</time>
      </trkpt>
      <trkpt lat="47.40501" lon="6.70672">
        <ele>466</ele>
        <time>2015-05-17T08:57:55.000Z</time>
      </trkpt>
      <trkpt lat="47.40507" lon="6.70672">
        <ele>465</ele>
        <time>2015-05-17T08:57:56.000Z</time>
      </trkpt>
      <trkpt lat="47.40512" lon="6.70671">
        <ele>465</ele>
        <time>2015-05-17T08:57:57.000Z</time>
      </trkpt>
      <trkpt lat="47.40526" lon="6.70666">
        <ele>461</ele>
        <time>2015-05-17T08:57:58.000Z</time>
      </trkpt>
      <trkpt lat="47.40532" lon="6.70663">
        <ele>461</ele>
        <time>2015-05-17T08:57:59.000Z</time>
      </trkpt>
      <trkpt lat="47.40539" lon="6.70662">
        <ele>460</ele>
        <time>2015-05-17T08:58:00.000Z</time>
      </trkpt>
      <trkpt lat="47.40545" lon="6.70659">
        <ele>460</ele>
        <time>2015-05-17T08:58:01.000Z</time>
      </trkpt>
      <trkpt lat="47.40552" lon="6.70653">
        <ele>460</ele>
        <time>2015-05-17T08:58:02.000Z</time>
      </trkpt>
      <trkpt lat="47.4056" lon="6.70643">
        <ele>459</ele>
        <time>2015-05-17T08:58:03.000Z</time>
      </trkpt>
      <trkpt lat="47.40565" lon="6.70636">
        <ele>459</ele>
        <time>2015-05-17T08:58:04.000Z</time>
      </trkpt>
      <trkpt lat="47.4057" lon="6.70636">
        <ele>459</ele>
        <time>2015-05-17T08:58:05.000Z</time>
      </trkpt>
      <trkpt lat="47.40575" lon="6.70637">
        <ele>459</ele>
        <time>2015-05-17T08:58:06.000Z</time>
      </trkpt>
      <trkpt lat="47.4058" lon="6.70634">
        <ele>459</ele>
        <time>2015-05-17T08:58:07.000Z</time>
      </trkpt>
      <trkpt lat="47.40587" lon="6.70627">
        <ele>456</ele>
        <time>2015-05-17T08:58:08.000Z</time>
      </trkpt>
      <trkpt lat="47.40598" lon="6.70615">
        <ele>456</ele>
        <time>2015-05-17T08:58:09.000Z</time>
      </trkpt>
      <trkpt lat="47.40605" lon="6.70609">
        <ele>456</ele>
        <time>2015-05-17T08:58:10.000Z</time>
      </trkpt>
      <trkpt lat="47.40612" lon="6.706">
        <ele>455</ele>
        <time>2015-05-17T08:58:11.000Z</time>
      </trkpt>
      <trkpt lat="47.40619" lon="6.7059">
        <ele>455</ele>
        <time>2015-05-17T08:58:12.000Z</time>
      </trkpt>
      <trkpt lat="47.40625" lon="6.70582">
        <ele>450</ele>
        <time>2015-05-17T08:58:13.000Z</time>
      </trkpt>
      <trkpt lat="47.40632" lon="6.70575">
        <ele>450</ele>
        <time>2015-05-17T08:58:14.000Z</time>
      </trkpt>
      <trkpt lat="47.40639" lon="6.70569">
        <ele>450</ele>
        <time>2015-05-17T08:58:15.000Z</time>
      </trkpt>
      <trkpt lat="47.40645" lon="6.70561">
        <ele>450</ele>
        <time>2015-05-17T08:58:16.000Z</time>
      </trkpt>
      <trkpt lat="47.40653" lon="6.70554">
        <ele>449</ele>
        <time>2015-05-17T08:58:17.000Z</time>
      </trkpt>
      <trkpt lat="47.40657" lon="6.70549">
        <ele>449</ele>
        <time>2015-05-17T08:58:18.000Z</time>
      </trkpt>
      <trkpt lat="47.4066" lon="6.70542">
        <ele>449</ele>
        <time>2015-05-17T08:58:19.000Z</time>
      </trkpt>
      <trkpt lat="47.40665" lon="6.70535">
        <ele>448</ele>
        <time>2015-05-17T08:58:20.000Z</time>
      </trkpt>
      <trkpt lat="47.4067" lon="6.70528">
        <ele>448</ele>
        <time>2015-05-17T08:58:21.000Z</time>
      </trkpt>
      <trkpt lat="47.40674" lon="6.70526">
        <ele>448</ele>
        <time>2015-05-17T08:58:22.000Z</time>
      </trkpt>
      <trkpt lat="47.40676" lon="6.70523">
        <ele>447</ele>
        <time>2015-05-17T08:58:23.000Z</time>
      </trkpt>
      <trkpt lat="47.40678" lon="6.70519">
        <ele>447</ele>
        <time>2015-05-17T08:58:24.000Z</time>
      </trkpt>
      <trkpt lat="47.4068" lon="6.70514">
        <ele>447</ele>
        <time>2015-05-17T08:58:25.000Z</time>
      </trkpt>
      <trkpt lat="47.40682" lon="6.70508">
        <ele>447</ele>
        <time>2015-05-17T08:58:26.000Z</time>
      </trkpt>
      <trkpt lat="47.40683" lon="6.70503">
        <ele>447</ele>
        <time>2015-05-17T08:58:27.000Z</time>
      </trkpt>
      <trkpt lat="47.40684" lon="6.70499">
        <ele>443</ele>
        <time>2015-05-17T08:58:28.000Z</time>
      </trkpt>
      <trkpt lat="47.40686" lon="6.70495">
        <ele>443</ele>
        <time>2015-05-17T08:58:29.000Z</time>
      </trkpt>
      <trkpt lat="47.40686" lon="6.7049">
        <ele>443</ele>
        <time>2015-05-17T08:58:30.000Z</time>
      </trkpt>
      <trkpt lat="47.40687" lon="6.70484">
        <ele>442</ele>
        <time>2015-05-17T08:58:31.000Z</time>
      </trkpt>
      <trkpt lat="47.40688" lon="6.70477">
        <ele>442</ele>
        <time>2015-05-17T08:58:32.000Z</time>
      </trkpt>
      <trkpt lat="47.40689" lon="6.7047">
        <ele>441</ele>
        <time>2015-05-17T08:58:33.000Z</time>
      </trkpt>
      <trkpt lat="47.40692" lon="6.70453">
        <ele>440</ele>
        <time>2015-05-17T08:58:34.000Z</time>
      </trkpt>
      <trkpt lat="47.40693" lon="6.70442">
        <ele>439</ele>
        <time>2015-05-17T08:58:35.000Z</time>
      </trkpt>
      <trkpt lat="47.40693" lon="6.70436">
        <ele>439</ele>
        <time>2015-05-17T08:58:36.000Z</time>
      </trkpt>
      <trkpt lat="47.40696" lon="6.7043">
        <ele>439</ele>
        <time>2015-05-17T08:58:37.000Z</time>
      </trkpt>
      <trkpt lat="47.40695" lon="6.70426">
        <ele>439</ele>
        <time>2015-05-17T08:58:38.000Z</time>
      </trkpt>
      <trkpt lat="47.40694" lon="6.70423">
        <ele>438</ele>
        <time>2015-05-17T08:58:39.000Z</time>
      </trkpt>
      <trkpt lat="47.40696" lon="6.70419">
        <ele>438</ele>
        <time>2015-05-17T08:58:44.000Z</time>
      </trkpt>
      <trkpt lat="47.40699" lon="6.70419">
        <ele>438</ele>
        <time>2015-05-17T08:58:45.000Z</time>
      </trkpt>
      <trkpt lat="47.40701" lon="6.70419">
        <ele>438</ele>
        <time>2015-05-17T08:58:46.000Z</time>
      </trkpt>
      <trkpt lat="47.40704" lon="6.70418">
        <ele>438</ele>
        <time>2015-05-17T08:58:47.000Z</time>
      </trkpt>
      <trkpt lat="47.40706" lon="6.70418">
        <ele>438</ele>
        <time>2015-05-17T08:58:48.000Z</time>
      </trkpt>
      <trkpt lat="47.40709" lon="6.70417">
        <ele>438</ele>
        <time>2015-05-17T08:58:49.000Z</time>
      </trkpt>
      <trkpt lat="47.40713" lon="6.70417">
        <ele>429</ele>
        <time>2015-05-17T08:58:50.000Z</time>
      </trkpt>
      <trkpt lat="47.40717" lon="6.70417">
        <ele>438</ele>
        <time>2015-05-17T08:58:51.000Z</time>
      </trkpt>
      <trkpt lat="47.40722" lon="6.70418">
        <ele>438</ele>
        <time>2015-05-17T08:58:52.000Z</time>
      </trkpt>
      <trkpt lat="47.40727" lon="6.70419">
        <ele>438</ele>
        <time>2015-05-17T08:58:53.000Z</time>
      </trkpt>
      <trkpt lat="47.40732" lon="6.70421">
        <ele>438</ele>
        <time>2015-05-17T08:58:54.000Z</time>
      </trkpt>
      <trkpt lat="47.40736" lon="6.70423">
        <ele>437</ele>
        <time>2015-05-17T08:58:55.000Z</time>
      </trkpt>
      <trkpt lat="47.40739" lon="6.70423">
        <ele>437</ele>
        <time>2015-05-17T08:58:56.000Z</time>
      </trkpt>
      <trkpt lat="47.4074" lon="6.70417">
        <ele>437</ele>
        <time>2015-05-17T08:58:59.000Z</time>
      </trkpt>
      <trkpt lat="47.40741" lon="6.70416">
        <ele>432</ele>
        <time>2015-05-17T08:59:00.000Z</time>
      </trkpt>
      <trkpt lat="47.40744" lon="6.70416">
        <ele>433</ele>
        <time>2015-05-17T08:59:11.000Z</time>
      </trkpt>
      <trkpt lat="47.40746" lon="6.70418">
        <ele>436</ele>
        <time>2015-05-17T08:59:12.000Z</time>
      </trkpt>
      <trkpt lat="47.40748" lon="6.70421">
        <ele>436</ele>
        <time>2015-05-17T08:59:14.000Z</time>
      </trkpt>
      <trkpt lat="47.4075" lon="6.70422">
        <ele>436</ele>
        <time>2015-05-17T08:59:15.000Z</time>
      </trkpt>
      <trkpt lat="47.40752" lon="6.70423">
        <ele>436</ele>
        <time>2015-05-17T08:59:16.000Z</time>
      </trkpt>
      <trkpt lat="47.40754" lon="6.70425">
        <ele>436</ele>
        <time>2015-05-17T08:59:17.000Z</time>
      </trkpt>
      <trkpt lat="47.40756" lon="6.70426">
        <ele>436</ele>
        <time>2015-05-17T08:59:18.000Z</time>
      </trkpt>
      <trkpt lat="47.40759" lon="6.70428">
        <ele>437</ele>
        <time>2015-05-17T08:59:19.000Z</time>
      </trkpt>
      <trkpt lat="47.40761" lon="6.7043">
        <ele>437</ele>
        <time>2015-05-17T08:59:20.000Z</time>
      </trkpt>
      <trkpt lat="47.40763" lon="6.70432">
        <ele>437</ele>
        <time>2015-05-17T08:59:21.000Z</time>
      </trkpt>
      <trkpt lat="47.40765" lon="6.70434">
        <ele>437</ele>
        <time>2015-05-17T08:59:22.000Z</time>
      </trkpt>
      <trkpt lat="47.40767" lon="6.70435">
        <ele>437</ele>
        <time>2015-05-17T08:59:23.000Z</time>
      </trkpt>
      <trkpt lat="47.4077" lon="6.70436">
        <ele>437</ele>
        <time>2015-05-17T08:59:24.000Z</time>
      </trkpt>
      <trkpt lat="47.40772" lon="6.70437">
        <ele>438</ele>
        <time>2015-05-17T08:59:25.000Z</time>
      </trkpt>
      <trkpt lat="47.40775" lon="6.70438">
        <ele>438</ele>
        <time>2015-05-17T08:59:26.000Z</time>
      </trkpt>
      <trkpt lat="47.40779" lon="6.70439">
        <ele>438</ele>
        <time>2015-05-17T08:59:27.000Z</time>
      </trkpt>
      <trkpt lat="47.40783" lon="6.7044">
        <ele>438</ele>
        <time>2015-05-17T08:59:28.000Z</time>
      </trkpt>
      <trkpt lat="47.40786" lon="6.70441">
        <ele>438</ele>
        <time>2015-05-17T08:59:29.000Z</time>
      </trkpt>
      <trkpt lat="47.4079" lon="6.70442">
        <ele>438</ele>
        <time>2015-05-17T08:59:30.000Z</time>
      </trkpt>
      <trkpt lat="47.40793" lon="6.70444">
        <ele>438</ele>
        <time>2015-05-17T08:59:31.000Z</time>
      </trkpt>
      <trkpt lat="47.40796" lon="6.70446">
        <ele>438</ele>
        <time>2015-05-17T08:59:32.000Z</time>
      </trkpt>
      <trkpt lat="47.408" lon="6.70448">
        <ele>438</ele>
        <time>2015-05-17T08:59:33.000Z</time>
      </trkpt>
      <trkpt lat="47.40803" lon="6.7045">
        <ele>438</ele>
        <time>2015-05-17T08:59:34.000Z</time>
      </trkpt>
      <trkpt lat="47.40807" lon="6.70451">
        <ele>438</ele>
        <time>2015-05-17T08:59:35.000Z</time>
      </trkpt>
      <trkpt lat="47.40811" lon="6.70452">
        <ele>438</ele>
        <time>2015-05-17T08:59:36.000Z</time>
      </trkpt>
      <trkpt lat="47.40815" lon="6.70453">
        <ele>438</ele>
        <time>2015-05-17T08:59:37.000Z</time>
      </trkpt>
      <trkpt lat="47.40819" lon="6.70454">
        <ele>438</ele>
        <time>2015-05-17T08:59:38.000Z</time>
      </trkpt>
      <trkpt lat="47.40823" lon="6.70455">
        <ele>438</ele>
        <time>2015-05-17T08:59:39.000Z</time>
      </trkpt>
      <trkpt lat="47.40826" lon="6.70457">
        <ele>438</ele>
        <time>2015-05-17T08:59:40.000Z</time>
      </trkpt>
      <trkpt lat="47.4083" lon="6.70459">
        <ele>439</ele>
        <time>2015-05-17T08:59:41.000Z</time>
      </trkpt>
      <trkpt lat="47.40834" lon="6.70461">
        <ele>435</ele>
        <time>2015-05-17T08:59:42.000Z</time>
      </trkpt>
      <trkpt lat="47.40837" lon="6.70463">
        <ele>435</ele>
        <time>2015-05-17T08:59:43.000Z</time>
      </trkpt>
      <trkpt lat="47.40842" lon="6.70464">
        <ele>435</ele>
        <time>2015-05-17T08:59:44.000Z</time>
      </trkpt>
      <trkpt lat="47.40847" lon="6.70464">
        <ele>435</ele>
        <time>2015-05-17T08:59:45.000Z</time>
      </trkpt>
      <trkpt lat="47.40853" lon="6.70463">
        <ele>435</ele>
        <time>2015-05-17T08:59:46.000Z</time>
      </trkpt>
      <trkpt lat="47.40873" lon="6.70456">
        <ele>433</ele>
        <time>2015-05-17T08:59:47.000Z</time>
      </trkpt>
      <trkpt lat="47.40881" lon="6.70453">
        <ele>432</ele>
        <time>2015-05-17T08:59:48.000Z</time>
      </trkpt>
      <trkpt lat="47.40889" lon="6.70451">
        <ele>432</ele>
        <time>2015-05-17T08:59:49.000Z</time>
      </trkpt>
      <trkpt lat="47.40897" lon="6.70446">
        <ele>431</ele>
        <time>2015-05-17T08:59:50.000Z</time>
      </trkpt>
      <trkpt lat="47.40905" lon="6.70441">
        <ele>430</ele>
        <time>2015-05-17T08:59:51.000Z</time>
      </trkpt>
      <trkpt lat="47.40907" lon="6.70439">
        <ele>430</ele>
        <time>2015-05-17T08:59:52.000Z</time>
      </trkpt>
      <trkpt lat="47.40912" lon="6.70431">
        <ele>428</ele>
        <time>2015-05-17T08:59:53.000Z</time>
      </trkpt>
      <trkpt lat="47.40914" lon="6.70426">
        <ele>427</ele>
        <time>2015-05-17T08:59:54.000Z</time>
      </trkpt>
      <trkpt lat="47.40918" lon="6.70417">
        <ele>425</ele>
        <time>2015-05-17T08:59:55.000Z</time>
      </trkpt>
      <trkpt lat="47.4092" lon="6.70412">
        <ele>423</ele>
        <time>2015-05-17T08:59:59.000Z</time>
      </trkpt>
      <trkpt lat="47.40921" lon="6.70411">
        <ele>423</ele>
        <time>2015-05-17T09:00:00.000Z</time>
      </trkpt>
      <trkpt lat="47.40923" lon="6.70407">
        <ele>421</ele>
        <time>2015-05-17T09:00:09.000Z</time>
      </trkpt>
      <trkpt lat="47.40922" lon="6.70405">
        <ele>421</ele>
        <time>2015-05-17T09:00:10.000Z</time>
      </trkpt>
      <trkpt lat="47.40925" lon="6.70401">
        <ele>420</ele>
        <time>2015-05-17T09:00:25.000Z</time>
      </trkpt>
      <trkpt lat="47.40925" lon="6.704">
        <ele>420</ele>
        <time>2015-05-17T09:00:26.000Z</time>
      </trkpt>
      <trkpt lat="47.40929" lon="6.704">
        <ele>419</ele>
        <time>2015-05-17T09:02:24.000Z</time>
      </trkpt>
      <trkpt lat="47.4093" lon="6.704">
        <ele>419</ele>
        <time>2015-05-17T09:02:25.000Z</time>
      </trkpt>
      <trkpt lat="47.40933" lon="6.70397">
        <ele>419</ele>
        <time>2015-05-17T09:02:27.000Z</time>
      </trkpt>
      <trkpt lat="47.40935" lon="6.70395">
        <ele>418</ele>
        <time>2015-05-17T09:02:28.000Z</time>
      </trkpt>
      <trkpt lat="47.40938" lon="6.70392">
        <ele>418</ele>
        <time>2015-05-17T09:02:29.000Z</time>
      </trkpt>
      <trkpt lat="47.40941" lon="6.7039">
        <ele>417</ele>
        <time>2015-05-17T09:02:30.000Z</time>
      </trkpt>
      <trkpt lat="47.40943" lon="6.70389">
        <ele>417</ele>
        <time>2015-05-17T09:02:31.000Z</time>
      </trkpt>
      <trkpt lat="47.40946" lon="6.7039">
        <ele>417</ele>
        <time>2015-05-17T09:02:32.000Z</time>
      </trkpt>
      <trkpt lat="47.40948" lon="6.70391">
        <ele>417</ele>
        <time>2015-05-17T09:02:33.000Z</time>
      </trkpt>
      <trkpt lat="47.40951" lon="6.70392">
        <ele>417</ele>
        <time>2015-05-17T09:02:34.000Z</time>
      </trkpt>
      <trkpt lat="47.40953" lon="6.70394">
        <ele>417</ele>
        <time>2015-05-17T09:02:35.000Z</time>
      </trkpt>
      <trkpt lat="47.40957" lon="6.70396">
        <ele>416</ele>
        <time>2015-05-17T09:02:36.000Z</time>
      </trkpt>
      <trkpt lat="47.4096" lon="6.70398">
        <ele>416</ele>
        <time>2015-05-17T09:02:37.000Z</time>
      </trkpt>
      <trkpt lat="47.40963" lon="6.704">
        <ele>416</ele>
        <time>2015-05-17T09:02:38.000Z</time>
      </trkpt>
      <trkpt lat="47.40967" lon="6.70401">
        <ele>416</ele>
        <time>2015-05-17T09:02:39.000Z</time>
      </trkpt>
      <trkpt lat="47.4097" lon="6.70403">
        <ele>416</ele>
        <time>2015-05-17T09:02:40.000Z</time>
      </trkpt>
      <trkpt lat="47.40974" lon="6.70405">
        <ele>416</ele>
        <time>2015-05-17T09:02:41.000Z</time>
      </trkpt>
      <trkpt lat="47.40977" lon="6.70407">
        <ele>416</ele>
        <time>2015-05-17T09:02:42.000Z</time>
      </trkpt>
      <trkpt lat="47.4098" lon="6.7041">
        <ele>416</ele>
        <time>2015-05-17T09:02:43.000Z</time>
      </trkpt>
      <trkpt lat="47.40983" lon="6.70412">
        <ele>415</ele>
        <time>2015-05-17T09:02:44.000Z</time>
      </trkpt>
      <trkpt lat="47.40986" lon="6.70415">
        <ele>415</ele>
        <time>2015-05-17T09:02:45.000Z</time>
      </trkpt>
      <trkpt lat="47.4099" lon="6.70417">
        <ele>417</ele>
        <time>2015-05-17T09:02:46.000Z</time>
      </trkpt>
      <trkpt lat="47.40993" lon="6.7042">
        <ele>417</ele>
        <time>2015-05-17T09:02:47.000Z</time>
      </trkpt>
      <trkpt lat="47.41004" lon="6.7042">
        <ele>414</ele>
        <time>2015-05-17T09:02:48.000Z</time>
      </trkpt>
      <trkpt lat="47.4101" lon="6.70422">
        <ele>413</ele>
        <time>2015-05-17T09:02:49.000Z</time>
      </trkpt>
      <trkpt lat="47.41015" lon="6.70424">
        <ele>412</ele>
        <time>2015-05-17T09:02:50.000Z</time>
      </trkpt>
      <trkpt lat="47.41022" lon="6.70429">
        <ele>412</ele>
        <time>2015-05-17T09:02:51.000Z</time>
      </trkpt>
      <trkpt lat="47.41026" lon="6.70433">
        <ele>411</ele>
        <time>2015-05-17T09:02:52.000Z</time>
      </trkpt>
      <trkpt lat="47.4103" lon="6.70434">
        <ele>411</ele>
        <time>2015-05-17T09:02:53.000Z</time>
      </trkpt>
      <trkpt lat="47.41036" lon="6.70434">
        <ele>410</ele>
        <time>2015-05-17T09:02:54.000Z</time>
      </trkpt>
      <trkpt lat="47.4104" lon="6.70434">
        <ele>410</ele>
        <time>2015-05-17T09:02:55.000Z</time>
      </trkpt>
      <trkpt lat="47.41043" lon="6.70434">
        <ele>410</ele>
        <time>2015-05-17T09:02:56.000Z</time>
      </trkpt>
      <trkpt lat="47.41046" lon="6.70434">
        <ele>410</ele>
        <time>2015-05-17T09:02:57.000Z</time>
      </trkpt>
      <trkpt lat="47.41048" lon="6.70436">
        <ele>410</ele>
        <time>2015-05-17T09:02:58.000Z</time>
      </trkpt>
      <trkpt lat="47.41051" lon="6.70436">
        <ele>409</ele>
        <time>2015-05-17T09:02:59.000Z</time>
      </trkpt>
      <trkpt lat="47.41055" lon="6.70435">
        <ele>409</ele>
        <time>2015-05-17T09:03:00.000Z</time>
      </trkpt>
      <trkpt lat="47.41059" lon="6.70435">
        <ele>409</ele>
        <time>2015-05-17T09:03:01.000Z</time>
      </trkpt>
      <trkpt lat="47.41062" lon="6.70436">
        <ele>409</ele>
        <time>2015-05-17T09:03:02.000Z</time>
      </trkpt>
      <trkpt lat="47.41066" lon="6.70437">
        <ele>408</ele>
        <time>2015-05-17T09:03:03.000Z</time>
      </trkpt>
      <trkpt lat="47.4107" lon="6.70437">
        <ele>408</ele>
        <time>2015-05-17T09:03:04.000Z</time>
      </trkpt>
      <trkpt lat="47.41074" lon="6.70438">
        <ele>408</ele>
        <time>2015-05-17T09:03:05.000Z</time>
      </trkpt>
      <trkpt lat="47.41078" lon="6.70436">
        <ele>408</ele>
        <time>2015-05-17T09:03:06.000Z</time>
      </trkpt>
      <trkpt lat="47.41082" lon="6.70433">
        <ele>407</ele>
        <time>2015-05-17T09:03:07.000Z</time>
      </trkpt>
      <trkpt lat="47.41086" lon="6.70428">
        <ele>403</ele>
        <time>2015-05-17T09:03:08.000Z</time>
      </trkpt>
      <trkpt lat="47.41092" lon="6.70405">
        <ele>402</ele>
        <time>2015-05-17T09:03:09.000Z</time>
      </trkpt>
      <trkpt lat="47.41094" lon="6.70398">
        <ele>401</ele>
        <time>2015-05-17T09:03:10.000Z</time>
      </trkpt>
      <trkpt lat="47.41097" lon="6.70391">
        <ele>401</ele>
        <time>2015-05-17T09:03:11.000Z</time>
      </trkpt>
      <trkpt lat="47.41101" lon="6.70383">
        <ele>400</ele>
        <time>2015-05-17T09:03:12.000Z</time>
      </trkpt>
      <trkpt lat="47.41106" lon="6.70374">
        <ele>400</ele>
        <time>2015-05-17T09:03:13.000Z</time>
      </trkpt>
      <trkpt lat="47.41107" lon="6.70366">
        <ele>400</ele>
        <time>2015-05-17T09:03:14.000Z</time>
      </trkpt>
      <trkpt lat="47.4111" lon="6.70359">
        <ele>400</ele>
        <time>2015-05-17T09:03:15.000Z</time>
      </trkpt>
      <trkpt lat="47.41114" lon="6.70351">
        <ele>399</ele>
        <time>2015-05-17T09:03:16.000Z</time>
      </trkpt>
      <trkpt lat="47.41119" lon="6.70342">
        <ele>399</ele>
        <time>2015-05-17T09:03:17.000Z</time>
      </trkpt>
      <trkpt lat="47.41122" lon="6.70334">
        <ele>399</ele>
        <time>2015-05-17T09:03:18.000Z</time>
      </trkpt>
      <trkpt lat="47.41127" lon="6.70325">
        <ele>396</ele>
        <time>2015-05-17T09:03:19.000Z</time>
      </trkpt>
      <trkpt lat="47.41131" lon="6.70317">
        <ele>395</ele>
        <time>2015-05-17T09:03:20.000Z</time>
      </trkpt>
      <trkpt lat="47.41135" lon="6.70309">
        <ele>395</ele>
        <time>2015-05-17T09:03:21.000Z</time>
      </trkpt>
      <trkpt lat="47.41138" lon="6.70299">
        <ele>394</ele>
        <time>2015-05-17T09:03:22.000Z</time>
      </trkpt>
      <trkpt lat="47.41137" lon="6.70288">
        <ele>394</ele>
        <time>2015-05-17T09:03:23.000Z</time>
      </trkpt>
      <trkpt lat="47.41138" lon="6.70278">
        <ele>393</ele>
        <time>2015-05-17T09:03:24.000Z</time>
      </trkpt>
      <trkpt lat="47.4114" lon="6.70267">
        <ele>393</ele>
        <time>2015-05-17T09:03:25.000Z</time>
      </trkpt>
      <trkpt lat="47.4114" lon="6.70258">
        <ele>392</ele>
        <time>2015-05-17T09:03:26.000Z</time>
      </trkpt>
      <trkpt lat="47.41142" lon="6.70251">
        <ele>392</ele>
        <time>2015-05-17T09:03:27.000Z</time>
      </trkpt>
      <trkpt lat="47.41144" lon="6.70244">
        <ele>390</ele>
        <time>2015-05-17T09:03:28.000Z</time>
      </trkpt>
      <trkpt lat="47.41145" lon="6.7024">
        <ele>390</ele>
        <time>2015-05-17T09:03:29.000Z</time>
      </trkpt>
      <trkpt lat="47.41148" lon="6.70237">
        <ele>389</ele>
        <time>2015-05-17T09:03:30.000Z</time>
      </trkpt>
      <trkpt lat="47.4115" lon="6.70233">
        <ele>389</ele>
        <time>2015-05-17T09:03:31.000Z</time>
      </trkpt>
      <trkpt lat="47.41152" lon="6.70232">
        <ele>389</ele>
        <time>2015-05-17T09:03:32.000Z</time>
      </trkpt>
      <trkpt lat="47.41155" lon="6.70233">
        <ele>389</ele>
        <time>2015-05-17T09:03:36.000Z</time>
      </trkpt>
      <trkpt lat="47.41156" lon="6.7023">
        <ele>389</ele>
        <time>2015-05-17T09:03:37.000Z</time>
      </trkpt>
      <trkpt lat="47.41156" lon="6.70224">
        <ele>390</ele>
        <time>2015-05-17T09:03:39.000Z</time>
      </trkpt>
      <trkpt lat="47.41156" lon="6.70221">
        <ele>390</ele>
        <time>2015-05-17T09:03:40.000Z</time>
      </trkpt>
      <trkpt lat="47.41155" lon="6.70216">
        <ele>390</ele>
        <time>2015-05-17T09:03:42.000Z</time>
      </trkpt>
      <trkpt lat="47.41156" lon="6.70213">
        <ele>390</ele>
        <time>2015-05-17T09:03:43.000Z</time>
      </trkpt>
      <trkpt lat="47.41157" lon="6.70209">
        <ele>390</ele>
        <time>2015-05-17T09:03:45.000Z</time>
      </trkpt>
      <trkpt lat="47.41157" lon="6.70207">
        <ele>390</ele>
        <time>2015-05-17T09:03:46.000Z</time>
      </trkpt>
      <trkpt lat="47.41159" lon="6.70201">
        <ele>390</ele>
        <time>2015-05-17T09:04:20.000Z</time>
      </trkpt>
      <trkpt lat="47.41159" lon="6.702">
        <ele>390</ele>
        <time>2015-05-17T09:04:21.000Z</time>
      </trkpt>
      <trkpt lat="47.4116" lon="6.70195">
        <ele>390</ele>
        <time>2015-05-17T09:04:23.000Z</time>
      </trkpt>
      <trkpt lat="47.41161" lon="6.70191">
        <ele>390</ele>
        <time>2015-05-17T09:04:24.000Z</time>
      </trkpt>
      <trkpt lat="47.41162" lon="6.70187">
        <ele>390</ele>
        <time>2015-05-17T09:04:25.000Z</time>
      </trkpt>
      <trkpt lat="47.41163" lon="6.70184">
        <ele>390</ele>
        <time>2015-05-17T09:04:26.000Z</time>
      </trkpt>
      <trkpt lat="47.4116" lon="6.70188">
        <ele>390</ele>
        <time>2015-05-17T09:04:38.000Z</time>
      </trkpt>
      <trkpt lat="47.4116" lon="6.70189">
        <ele>390</ele>
        <time>2015-05-17T09:04:39.000Z</time>
      </trkpt>
      <trkpt lat="47.41162" lon="6.70185">
        <ele>390</ele>
        <time>2015-05-17T09:05:03.000Z</time>
      </trkpt>
      <trkpt lat="47.41163" lon="6.70185">
        <ele>390</ele>
        <time>2015-05-17T09:05:04.000Z</time>
      </trkpt>
      <trkpt lat="47.41167" lon="6.70186">
        <ele>386</ele>
        <time>2015-05-17T09:05:07.000Z</time>
      </trkpt>
      <trkpt lat="47.41168" lon="6.70186">
        <ele>386</ele>
        <time>2015-05-17T09:05:08.000Z</time>
      </trkpt>
      <trkpt lat="47.41173" lon="6.70186">
        <ele>386</ele>
        <time>2015-05-17T09:05:10.000Z</time>
      </trkpt>
      <trkpt lat="47.41175" lon="6.70186">
        <ele>386</ele>
        <time>2015-05-17T09:05:11.000Z</time>
      </trkpt>
      <trkpt lat="47.41179" lon="6.70186">
        <ele>385</ele>
        <time>2015-05-17T09:05:12.000Z</time>
      </trkpt>
      <trkpt lat="47.41182" lon="6.70187">
        <ele>385</ele>
        <time>2015-05-17T09:05:13.000Z</time>
      </trkpt>
      <trkpt lat="47.41186" lon="6.70188">
        <ele>385</ele>
        <time>2015-05-17T09:05:14.000Z</time>
      </trkpt>
      <trkpt lat="47.4119" lon="6.70189">
        <ele>384</ele>
        <time>2015-05-17T09:05:15.000Z</time>
      </trkpt>
      <trkpt lat="47.41195" lon="6.70189">
        <ele>384</ele>
        <time>2015-05-17T09:05:16.000Z</time>
      </trkpt>
      <trkpt lat="47.412" lon="6.70188">
        <ele>384</ele>
        <time>2015-05-17T09:05:17.000Z</time>
      </trkpt>
      <trkpt lat="47.41204" lon="6.70188">
        <ele>383</ele>
        <time>2015-05-17T09:05:18.000Z</time>
      </trkpt>
      <trkpt lat="47.41208" lon="6.70189">
        <ele>383</ele>
        <time>2015-05-17T09:05:19.000Z</time>
      </trkpt>
      <trkpt lat="47.41211" lon="6.70189">
        <ele>383</ele>
        <time>2015-05-17T09:05:20.000Z</time>
      </trkpt>
      <trkpt lat="47.41215" lon="6.7019">
        <ele>383</ele>
        <time>2015-05-17T09:05:21.000Z</time>
      </trkpt>
      <trkpt lat="47.41218" lon="6.7019">
        <ele>382</ele>
        <time>2015-05-17T09:05:22.000Z</time>
      </trkpt>
      <trkpt lat="47.41222" lon="6.70191">
        <ele>382</ele>
        <time>2015-05-17T09:05:23.000Z</time>
      </trkpt>
      <trkpt lat="47.41225" lon="6.70191">
        <ele>382</ele>
        <time>2015-05-17T09:05:24.000Z</time>
      </trkpt>
      <trkpt lat="47.41229" lon="6.70191">
        <ele>382</ele>
        <time>2015-05-17T09:05:25.000Z</time>
      </trkpt>
      <trkpt lat="47.41233" lon="6.70192">
        <ele>381</ele>
        <time>2015-05-17T09:05:26.000Z</time>
      </trkpt>
      <trkpt lat="47.41237" lon="6.70193">
        <ele>381</ele>
        <time>2015-05-17T09:05:27.000Z</time>
      </trkpt>
      <trkpt lat="47.41242" lon="6.70193">
        <ele>381</ele>
        <time>2015-05-17T09:05:28.000Z</time>
      </trkpt>
      <trkpt lat="47.41246" lon="6.70193">
        <ele>381</ele>
        <time>2015-05-17T09:05:29.000Z</time>
      </trkpt>
      <trkpt lat="47.41249" lon="6.70194">
        <ele>381</ele>
        <time>2015-05-17T09:05:30.000Z</time>
      </trkpt>
      <trkpt lat="47.41253" lon="6.70195">
        <ele>375</ele>
        <time>2015-05-17T09:05:31.000Z</time>
      </trkpt>
      <trkpt lat="47.41255" lon="6.70197">
        <ele>375</ele>
        <time>2015-05-17T09:05:32.000Z</time>
      </trkpt>
      <trkpt lat="47.41257" lon="6.70198">
        <ele>375</ele>
        <time>2015-05-17T09:05:33.000Z</time>
      </trkpt>
      <trkpt lat="47.41262" lon="6.70198">
        <ele>375</ele>
        <time>2015-05-17T09:05:35.000Z</time>
      </trkpt>
      <trkpt lat="47.41263" lon="6.70198">
        <ele>375</ele>
        <time>2015-05-17T09:05:36.000Z</time>
      </trkpt>
      <trkpt lat="47.41267" lon="6.70197">
        <ele>375</ele>
        <time>2015-05-17T09:05:38.000Z</time>
      </trkpt>
      <trkpt lat="47.4127" lon="6.70197">
        <ele>375</ele>
        <time>2015-05-17T09:05:39.000Z</time>
      </trkpt>
      <trkpt lat="47.41273" lon="6.70196">
        <ele>374</ele>
        <time>2015-05-17T09:05:40.000Z</time>
      </trkpt>
      <trkpt lat="47.41276" lon="6.70194">
        <ele>374</ele>
        <time>2015-05-17T09:05:41.000Z</time>
      </trkpt>
      <trkpt lat="47.4128" lon="6.70192">
        <ele>374</ele>
        <time>2015-05-17T09:05:42.000Z</time>
      </trkpt>
      <trkpt lat="47.41283" lon="6.70189">
        <ele>374</ele>
        <time>2015-05-17T09:05:43.000Z</time>
      </trkpt>
      <trkpt lat="47.41287" lon="6.70186">
        <ele>374</ele>
        <time>2015-05-17T09:05:44.000Z</time>
      </trkpt>
      <trkpt lat="47.41292" lon="6.70182">
        <ele>373</ele>
        <time>2015-05-17T09:05:45.000Z</time>
      </trkpt>
      <trkpt lat="47.41296" lon="6.70179">
        <ele>373</ele>
        <time>2015-05-17T09:05:46.000Z</time>
      </trkpt>
      <trkpt lat="47.413" lon="6.70176">
        <ele>373</ele>
        <time>2015-05-17T09:05:47.000Z</time>
      </trkpt>
      <trkpt lat="47.41304" lon="6.70172">
        <ele>372</ele>
        <time>2015-05-17T09:05:48.000Z</time>
      </trkpt>
      <trkpt lat="47.41309" lon="6.70168">
        <ele>372</ele>
        <time>2015-05-17T09:05:49.000Z</time>
      </trkpt>
      <trkpt lat="47.41313" lon="6.70163">
        <ele>376</ele>
        <time>2015-05-17T09:05:50.000Z</time>
      </trkpt>
      <trkpt lat="47.41318" lon="6.70158">
        <ele>375</ele>
        <time>2015-05-17T09:05:51.000Z</time>
      </trkpt>
      <trkpt lat="47.41322" lon="6.70153">
        <ele>375</ele>
        <time>2015-05-17T09:05:52.000Z</time>
      </trkpt>
      <trkpt lat="47.41326" lon="6.70148">
        <ele>376</ele>
        <time>2015-05-17T09:05:53.000Z</time>
      </trkpt>
      <trkpt lat="47.41329" lon="6.70143">
        <ele>376</ele>
        <time>2015-05-17T09:05:54.000Z</time>
      </trkpt>
      <trkpt lat="47.41333" lon="6.70139">
        <ele>377</ele>
        <time>2015-05-17T09:05:55.000Z</time>
      </trkpt>
      <trkpt lat="47.41337" lon="6.70134">
        <ele>371</ele>
        <time>2015-05-17T09:05:56.000Z</time>
      </trkpt>
      <trkpt lat="47.41341" lon="6.7013">
        <ele>372</ele>
        <time>2015-05-17T09:05:57.000Z</time>
      </trkpt>
      <trkpt lat="47.41345" lon="6.70125">
        <ele>372</ele>
        <time>2015-05-17T09:05:58.000Z</time>
      </trkpt>
      <trkpt lat="47.41349" lon="6.7012">
        <ele>372</ele>
        <time>2015-05-17T09:05:59.000Z</time>
      </trkpt>
      <trkpt lat="47.41353" lon="6.70113">
        <ele>372</ele>
        <time>2015-05-17T09:06:00.000Z</time>
      </trkpt>
      <trkpt lat="47.41357" lon="6.70106">
        <ele>373</ele>
        <time>2015-05-17T09:06:01.000Z</time>
      </trkpt>
      <trkpt lat="47.41364" lon="6.70089">
        <ele>373</ele>
        <time>2015-05-17T09:06:02.000Z</time>
      </trkpt>
      <trkpt lat="47.41369" lon="6.70087">
        <ele>372</ele>
        <time>2015-05-17T09:06:03.000Z</time>
      </trkpt>
      <trkpt lat="47.41373" lon="6.70084">
        <ele>372</ele>
        <time>2015-05-17T09:06:04.000Z</time>
      </trkpt>
      <trkpt lat="47.41377" lon="6.70079">
        <ele>376</ele>
        <time>2015-05-17T09:06:05.000Z</time>
      </trkpt>
      <trkpt lat="47.41379" lon="6.7007">
        <ele>376</ele>
        <time>2015-05-17T09:06:06.000Z</time>
      </trkpt>
      <trkpt lat="47.4138" lon="6.70064">
        <ele>377</ele>
        <time>2015-05-17T09:06:07.000Z</time>
      </trkpt>
      <trkpt lat="47.41384" lon="6.70054">
        <ele>377</ele>
        <time>2015-05-17T09:06:08.000Z</time>
      </trkpt>
      <trkpt lat="47.41386" lon="6.70045">
        <ele>378</ele>
        <time>2015-05-17T09:06:09.000Z</time>
      </trkpt>
      <trkpt lat="47.4139" lon="6.70046">
        <ele>377</ele>
        <time>2015-05-17T09:06:12.000Z</time>
      </trkpt>
      <trkpt lat="47.41394" lon="6.70048">
        <ele>377</ele>
        <time>2015-05-17T09:06:13.000Z</time>
      </trkpt>
      <trkpt lat="47.41399" lon="6.70047">
        <ele>377</ele>
        <time>2015-05-17T09:06:14.000Z</time>
      </trkpt>
      <trkpt lat="47.41404" lon="6.70049">
        <ele>376</ele>
        <time>2015-05-17T09:06:15.000Z</time>
      </trkpt>
      <trkpt lat="47.41409" lon="6.70052">
        <ele>376</ele>
        <time>2015-05-17T09:06:16.000Z</time>
      </trkpt>
      <trkpt lat="47.41415" lon="6.70051">
        <ele>376</ele>
        <time>2015-05-17T09:06:17.000Z</time>
      </trkpt>
      <trkpt lat="47.41422" lon="6.7005">
        <ele>371</ele>
        <time>2015-05-17T09:06:18.000Z</time>
      </trkpt>
      <trkpt lat="47.41428" lon="6.7005">
        <ele>371</ele>
        <time>2015-05-17T09:06:19.000Z</time>
      </trkpt>
      <trkpt lat="47.41435" lon="6.70051">
        <ele>371</ele>
        <time>2015-05-17T09:06:20.000Z</time>
      </trkpt>
      <trkpt lat="47.41442" lon="6.70052">
        <ele>370</ele>
        <time>2015-05-17T09:06:21.000Z</time>
      </trkpt>
      <trkpt lat="47.41447" lon="6.70054">
        <ele>370</ele>
        <time>2015-05-17T09:06:22.000Z</time>
      </trkpt>
      <trkpt lat="47.41453" lon="6.70055">
        <ele>370</ele>
        <time>2015-05-17T09:06:23.000Z</time>
      </trkpt>
      <trkpt lat="47.41456" lon="6.70057">
        <ele>370</ele>
        <time>2015-05-17T09:06:24.000Z</time>
      </trkpt>
      <trkpt lat="47.41466" lon="6.70056">
        <ele>370</ele>
        <time>2015-05-17T09:06:25.000Z</time>
      </trkpt>
      <trkpt lat="47.41471" lon="6.70056">
        <ele>370</ele>
        <time>2015-05-17T09:06:26.000Z</time>
      </trkpt>
      <trkpt lat="47.41477" lon="6.70056">
        <ele>369</ele>
        <time>2015-05-17T09:06:27.000Z</time>
      </trkpt>
      <trkpt lat="47.41482" lon="6.70055">
        <ele>369</ele>
        <time>2015-05-17T09:06:28.000Z</time>
      </trkpt>
      <trkpt lat="47.41489" lon="6.70052">
        <ele>369</ele>
        <time>2015-05-17T09:06:29.000Z</time>
      </trkpt>
      <trkpt lat="47.41495" lon="6.70048">
        <ele>369</ele>
        <time>2015-05-17T09:06:30.000Z</time>
      </trkpt>
      <trkpt lat="47.41502" lon="6.70043">
        <ele>369</ele>
        <time>2015-05-17T09:06:31.000Z</time>
      </trkpt>
      <trkpt lat="47.41507" lon="6.7004">
        <ele>369</ele>
        <time>2015-05-17T09:06:32.000Z</time>
      </trkpt>
      <trkpt lat="47.41514" lon="6.70038">
        <ele>370</ele>
        <time>2015-05-17T09:06:33.000Z</time>
      </trkpt>
      <trkpt lat="47.4152" lon="6.70033">
        <ele>370</ele>
        <time>2015-05-17T09:06:34.000Z</time>
      </trkpt>
      <trkpt lat="47.41526" lon="6.7003">
        <ele>370</ele>
        <time>2015-05-17T09:06:35.000Z</time>
      </trkpt>
      <trkpt lat="47.41532" lon="6.70029">
        <ele>370</ele>
        <time>2015-05-17T09:06:36.000Z</time>
      </trkpt>
      <trkpt lat="47.41539" lon="6.70027">
        <ele>370</ele>
        <time>2015-05-17T09:06:37.000Z</time>
      </trkpt>
      <trkpt lat="47.41545" lon="6.70024">
        <ele>370</ele>
        <time>2015-05-17T09:06:38.000Z</time>
      </trkpt>
      <trkpt lat="47.41552" lon="6.70023">
        <ele>370</ele>
        <time>2015-05-17T09:06:39.000Z</time>
      </trkpt>
      <trkpt lat="47.41559" lon="6.7002">
        <ele>369</ele>
        <time>2015-05-17T09:06:40.000Z</time>
      </trkpt>
      <trkpt lat="47.41565" lon="6.70017">
        <ele>369</ele>
        <time>2015-05-17T09:06:41.000Z</time>
      </trkpt>
      <trkpt lat="47.41571" lon="6.70015">
        <ele>368</ele>
        <time>2015-05-17T09:06:42.000Z</time>
      </trkpt>
      <trkpt lat="47.41576" lon="6.70015">
        <ele>368</ele>
        <time>2015-05-17T09:06:43.000Z</time>
      </trkpt>
      <trkpt lat="47.41583" lon="6.70013">
        <ele>368</ele>
        <time>2015-05-17T09:06:44.000Z</time>
      </trkpt>
      <trkpt lat="47.41589" lon="6.70011">
        <ele>370</ele>
        <time>2015-05-17T09:06:45.000Z</time>
      </trkpt>
      <trkpt lat="47.41595" lon="6.70009">
        <ele>371</ele>
        <time>2015-05-17T09:06:46.000Z</time>
      </trkpt>
      <trkpt lat="47.41601" lon="6.70007">
        <ele>372</ele>
        <time>2015-05-17T09:06:47.000Z</time>
      </trkpt>
      <trkpt lat="47.41607" lon="6.70006">
        <ele>373</ele>
        <time>2015-05-17T09:06:48.000Z</time>
      </trkpt>
      <trkpt lat="47.41614" lon="6.70004">
        <ele>373</ele>
        <time>2015-05-17T09:06:49.000Z</time>
      </trkpt>
      <trkpt lat="47.4162" lon="6.70003">
        <ele>374</ele>
        <time>2015-05-17T09:06:50.000Z</time>
      </trkpt>
      <trkpt lat="47.41626" lon="6.70002">
        <ele>374</ele>
        <time>2015-05-17T09:06:51.000Z</time>
      </trkpt>
      <trkpt lat="47.41632" lon="6.70001">
        <ele>374</ele>
        <time>2015-05-17T09:06:52.000Z</time>
      </trkpt>
      <trkpt lat="47.41638" lon="6.69999">
        <ele>367</ele>
        <time>2015-05-17T09:06:53.000Z</time>
      </trkpt>
      <trkpt lat="47.41644" lon="6.69998">
        <ele>367</ele>
        <time>2015-05-17T09:06:54.000Z</time>
      </trkpt>
      <trkpt lat="47.4165" lon="6.69997">
        <ele>368</ele>
        <time>2015-05-17T09:06:55.000Z</time>
      </trkpt>
      <trkpt lat="47.41656" lon="6.69995">
        <ele>369</ele>
        <time>2015-05-17T09:06:56.000Z</time>
      </trkpt>
      <trkpt lat="47.4166" lon="6.69998">
        <ele>370</ele>
        <time>2015-05-17T09:06:57.000Z</time>
      </trkpt>
      <trkpt lat="47.41664" lon="6.7">
        <ele>370</ele>
        <time>2015-05-17T09:06:58.000Z</time>
      </trkpt>
      <trkpt lat="47.41669" lon="6.69999">
        <ele>371</ele>
        <time>2015-05-17T09:06:59.000Z</time>
      </trkpt>
      <trkpt lat="47.41673" lon="6.7">
        <ele>374</ele>
        <time>2015-05-17T09:07:00.000Z</time>
      </trkpt>
      <trkpt lat="47.41678" lon="6.7">
        <ele>375</ele>
        <time>2015-05-17T09:07:01.000Z</time>
      </trkpt>
      <trkpt lat="47.41682" lon="6.7">
        <ele>376</ele>
        <time>2015-05-17T09:07:02.000Z</time>
      </trkpt>
      <trkpt lat="47.41686" lon="6.70001">
        <ele>377</ele>
        <time>2015-05-17T09:07:03.000Z</time>
      </trkpt>
      <trkpt lat="47.41689" lon="6.70002">
        <ele>377</ele>
        <time>2015-05-17T09:07:04.000Z</time>
      </trkpt>
      <trkpt lat="47.41693" lon="6.70004">
        <ele>378</ele>
        <time>2015-05-17T09:07:05.000Z</time>
      </trkpt>
      <trkpt lat="47.41696" lon="6.70005">
        <ele>378</ele>
        <time>2015-05-17T09:07:06.000Z</time>
      </trkpt>
      <trkpt lat="47.417" lon="6.70006">
        <ele>378</ele>
        <time>2015-05-17T09:07:07.000Z</time>
      </trkpt>
      <trkpt lat="47.41703" lon="6.70006">
        <ele>379</ele>
        <time>2015-05-17T09:07:08.000Z</time>
      </trkpt>
      <trkpt lat="47.41707" lon="6.70007">
        <ele>379</ele>
        <time>2015-05-17T09:07:09.000Z</time>
      </trkpt>
      <trkpt lat="47.41712" lon="6.70006">
        <ele>379</ele>
        <time>2015-05-17T09:07:10.000Z</time>
      </trkpt>
      <trkpt lat="47.41717" lon="6.70006">
        <ele>379</ele>
        <time>2015-05-17T09:07:11.000Z</time>
      </trkpt>
      <trkpt lat="47.41723" lon="6.70005">
        <ele>378</ele>
        <time>2015-05-17T09:07:12.000Z</time>
      </trkpt>
      <trkpt lat="47.41729" lon="6.70003">
        <ele>378</ele>
        <time>2015-05-17T09:07:13.000Z</time>
      </trkpt>
      <trkpt lat="47.41735" lon="6.70001">
        <ele>377</ele>
        <time>2015-05-17T09:07:14.000Z</time>
      </trkpt>
      <trkpt lat="47.41739" lon="6.70002">
        <ele>376</ele>
        <time>2015-05-17T09:07:15.000Z</time>
      </trkpt>
      <trkpt lat="47.41744" lon="6.7">
        <ele>374</ele>
        <time>2015-05-17T09:07:16.000Z</time>
      </trkpt>
      <trkpt lat="47.4175" lon="6.7">
        <ele>372</ele>
        <time>2015-05-17T09:07:17.000Z</time>
      </trkpt>
      <trkpt lat="47.41755" lon="6.7">
        <ele>373</ele>
        <time>2015-05-17T09:07:18.000Z</time>
      </trkpt>
      <trkpt lat="47.41761" lon="6.7">
        <ele>370</ele>
        <time>2015-05-17T09:07:19.000Z</time>
      </trkpt>
      <trkpt lat="47.41767" lon="6.69999">
        <ele>370</ele>
        <time>2015-05-17T09:07:20.000Z</time>
      </trkpt>
      <trkpt lat="47.41772" lon="6.69999">
        <ele>369</ele>
        <time>2015-05-17T09:07:21.000Z</time>
      </trkpt>
      <trkpt lat="47.41777" lon="6.69999">
        <ele>369</ele>
        <time>2015-05-17T09:07:22.000Z</time>
      </trkpt>
      <trkpt lat="47.41782" lon="6.69999">
        <ele>369</ele>
        <time>2015-05-17T09:07:23.000Z</time>
      </trkpt>
      <trkpt lat="47.41785" lon="6.7">
        <ele>369</ele>
        <time>2015-05-17T09:07:24.000Z</time>
      </trkpt>
      <trkpt lat="47.41793" lon="6.69996">
        <ele>369</ele>
        <time>2015-05-17T09:07:25.000Z</time>
      </trkpt>
      <trkpt lat="47.41797" lon="6.69998">
        <ele>369</ele>
        <time>2015-05-17T09:07:26.000Z</time>
      </trkpt>
      <trkpt lat="47.41801" lon="6.7">
        <ele>369</ele>
        <time>2015-05-17T09:07:27.000Z</time>
      </trkpt>
      <trkpt lat="47.41807" lon="6.69999">
        <ele>369</ele>
        <time>2015-05-17T09:07:28.000Z</time>
      </trkpt>
      <trkpt lat="47.41814" lon="6.69995">
        <ele>369</ele>
        <time>2015-05-17T09:07:29.000Z</time>
      </trkpt>
      <trkpt lat="47.4182" lon="6.69992">
        <ele>369</ele>
        <time>2015-05-17T09:07:30.000Z</time>
      </trkpt>
      <trkpt lat="47.41827" lon="6.6999">
        <ele>369</ele>
        <time>2015-05-17T09:07:31.000Z</time>
      </trkpt>
      <trkpt lat="47.41832" lon="6.69991">
        <ele>369</ele>
        <time>2015-05-17T09:07:32.000Z</time>
      </trkpt>
      <trkpt lat="47.41836" lon="6.69993">
        <ele>370</ele>
        <time>2015-05-17T09:07:33.000Z</time>
      </trkpt>
      <trkpt lat="47.41842" lon="6.69992">
        <ele>370</ele>
        <time>2015-05-17T09:07:34.000Z</time>
      </trkpt>
      <trkpt lat="47.41848" lon="6.6999">
        <ele>370</ele>
        <time>2015-05-17T09:07:35.000Z</time>
      </trkpt>
      <trkpt lat="47.41853" lon="6.69989">
        <ele>370</ele>
        <time>2015-05-17T09:07:36.000Z</time>
      </trkpt>
      <trkpt lat="47.41858" lon="6.69985">
        <ele>370</ele>
        <time>2015-05-17T09:07:37.000Z</time>
      </trkpt>
      <trkpt lat="47.41863" lon="6.69981">
        <ele>370</ele>
        <time>2015-05-17T09:07:38.000Z</time>
      </trkpt>
      <trkpt lat="47.41868" lon="6.69978">
        <ele>370</ele>
        <time>2015-05-17T09:07:39.000Z</time>
      </trkpt>
      <trkpt lat="47.41872" lon="6.69975">
        <ele>370</ele>
        <time>2015-05-17T09:07:40.000Z</time>
      </trkpt>
      <trkpt lat="47.41877" lon="6.69972">
        <ele>371</ele>
        <time>2015-05-17T09:07:41.000Z</time>
      </trkpt>
      <trkpt lat="47.41881" lon="6.69969">
        <ele>371</ele>
        <time>2015-05-17T09:07:42.000Z</time>
      </trkpt>
      <trkpt lat="47.41885" lon="6.69968">
        <ele>371</ele>
        <time>2015-05-17T09:07:43.000Z</time>
      </trkpt>
      <trkpt lat="47.41889" lon="6.69965">
        <ele>371</ele>
        <time>2015-05-17T09:07:44.000Z</time>
      </trkpt>
      <trkpt lat="47.41893" lon="6.69964">
        <ele>371</ele>
        <time>2015-05-17T09:07:45.000Z</time>
      </trkpt>
      <trkpt lat="47.41898" lon="6.69961">
        <ele>371</ele>
        <time>2015-05-17T09:07:46.000Z</time>
      </trkpt>
      <trkpt lat="47.41902" lon="6.6996">
        <ele>371</ele>
        <time>2015-05-17T09:07:47.000Z</time>
      </trkpt>
      <trkpt lat="47.41907" lon="6.69957">
        <ele>370</ele>
        <time>2015-05-17T09:07:48.000Z</time>
      </trkpt>
      <trkpt lat="47.41912" lon="6.69955">
        <ele>370</ele>
        <time>2015-05-17T09:07:49.000Z</time>
      </trkpt>
      <trkpt lat="47.41917" lon="6.69954">
        <ele>375</ele>
        <time>2015-05-17T09:07:50.000Z</time>
      </trkpt>
      <trkpt lat="47.41919" lon="6.69955">
        <ele>375</ele>
        <time>2015-05-17T09:07:51.000Z</time>
      </trkpt>
      <trkpt lat="47.41926" lon="6.69952">
        <ele>375</ele>
        <time>2015-05-17T09:07:52.000Z</time>
      </trkpt>
      <trkpt lat="47.4193" lon="6.69952">
        <ele>375</ele>
        <time>2015-05-17T09:07:53.000Z</time>
      </trkpt>
      <trkpt lat="47.41934" lon="6.6995">
        <ele>375</ele>
        <time>2015-05-17T09:07:54.000Z</time>
      </trkpt>
      <trkpt lat="47.41939" lon="6.6995">
        <ele>375</ele>
        <time>2015-05-17T09:07:55.000Z</time>
      </trkpt>
      <trkpt lat="47.41943" lon="6.69949">
        <ele>375</ele>
        <time>2015-05-17T09:07:56.000Z</time>
      </trkpt>
      <trkpt lat="47.41947" lon="6.69948">
        <ele>375</ele>
        <time>2015-05-17T09:07:57.000Z</time>
      </trkpt>
      <trkpt lat="47.41953" lon="6.69947">
        <ele>376</ele>
        <time>2015-05-17T09:07:58.000Z</time>
      </trkpt>
      <trkpt lat="47.41958" lon="6.69946">
        <ele>376</ele>
        <time>2015-05-17T09:07:59.000Z</time>
      </trkpt>
      <trkpt lat="47.41963" lon="6.69945">
        <ele>376</ele>
        <time>2015-05-17T09:08:00.000Z</time>
      </trkpt>
      <trkpt lat="47.41968" lon="6.69944">
        <ele>376</ele>
        <time>2015-05-17T09:08:01.000Z</time>
      </trkpt>
      <trkpt lat="47.41973" lon="6.69943">
        <ele>376</ele>
        <time>2015-05-17T09:08:02.000Z</time>
      </trkpt>
      <trkpt lat="47.41977" lon="6.6994">
        <ele>376</ele>
        <time>2015-05-17T09:08:03.000Z</time>
      </trkpt>
      <trkpt lat="47.41981" lon="6.6994">
        <ele>376</ele>
        <time>2015-05-17T09:08:04.000Z</time>
      </trkpt>
      <trkpt lat="47.41985" lon="6.69939">
        <ele>375</ele>
        <time>2015-05-17T09:08:05.000Z</time>
      </trkpt>
      <trkpt lat="47.4199" lon="6.69938">
        <ele>375</ele>
        <time>2015-05-17T09:08:06.000Z</time>
      </trkpt>
      <trkpt lat="47.41995" lon="6.69937">
        <ele>375</ele>
        <time>2015-05-17T09:08:07.000Z</time>
      </trkpt>
      <trkpt lat="47.42" lon="6.69936">
        <ele>375</ele>
        <time>2015-05-17T09:08:08.000Z</time>
      </trkpt>
      <trkpt lat="47.42004" lon="6.69937">
        <ele>376</ele>
        <time>2015-05-17T09:08:09.000Z</time>
      </trkpt>
      <trkpt lat="47.42008" lon="6.69935">
        <ele>376</ele>
        <time>2015-05-17T09:08:10.000Z</time>
      </trkpt>
      <trkpt lat="47.42012" lon="6.69935">
        <ele>376</ele>
        <time>2015-05-17T09:08:11.000Z</time>
      </trkpt>
      <trkpt lat="47.42018" lon="6.69934">
        <ele>376</ele>
        <time>2015-05-17T09:08:12.000Z</time>
      </trkpt>
      <trkpt lat="47.42022" lon="6.69934">
        <ele>376</ele>
        <time>2015-05-17T09:08:13.000Z</time>
      </trkpt>
      <trkpt lat="47.42026" lon="6.69933">
        <ele>376</ele>
        <time>2015-05-17T09:08:14.000Z</time>
      </trkpt>
      <trkpt lat="47.42031" lon="6.69932">
        <ele>376</ele>
        <time>2015-05-17T09:08:15.000Z</time>
      </trkpt>
      <trkpt lat="47.42034" lon="6.69934">
        <ele>377</ele>
        <time>2015-05-17T09:08:16.000Z</time>
      </trkpt>
      <trkpt lat="47.42038" lon="6.69933">
        <ele>377</ele>
        <time>2015-05-17T09:08:17.000Z</time>
      </trkpt>
      <trkpt lat="47.42041" lon="6.69934">
        <ele>377</ele>
        <time>2015-05-17T09:08:18.000Z</time>
      </trkpt>
      <trkpt lat="47.42046" lon="6.69932">
        <ele>376</ele>
        <time>2015-05-17T09:08:19.000Z</time>
      </trkpt>
      <trkpt lat="47.42052" lon="6.69931">
        <ele>376</ele>
        <time>2015-05-17T09:08:20.000Z</time>
      </trkpt>
      <trkpt lat="47.42057" lon="6.6993">
        <ele>376</ele>
        <time>2015-05-17T09:08:21.000Z</time>
      </trkpt>
      <trkpt lat="47.42062" lon="6.6993">
        <ele>375</ele>
        <time>2015-05-17T09:08:22.000Z</time>
      </trkpt>
      <trkpt lat="47.42067" lon="6.69929">
        <ele>375</ele>
        <time>2015-05-17T09:08:23.000Z</time>
      </trkpt>
      <trkpt lat="47.42071" lon="6.6993">
        <ele>374</ele>
        <time>2015-05-17T09:08:24.000Z</time>
      </trkpt>
      <trkpt lat="47.42078" lon="6.69928">
        <ele>373</ele>
        <time>2015-05-17T09:08:25.000Z</time>
      </trkpt>
      <trkpt lat="47.42086" lon="6.69925">
        <ele>371</ele>
        <time>2015-05-17T09:08:26.000Z</time>
      </trkpt>
      <trkpt lat="47.42093" lon="6.69922">
        <ele>370</ele>
        <time>2015-05-17T09:08:27.000Z</time>
      </trkpt>
      <trkpt lat="47.42099" lon="6.69918">
        <ele>370</ele>
        <time>2015-05-17T09:08:28.000Z</time>
      </trkpt>
      <trkpt lat="47.42105" lon="6.69915">
        <ele>366</ele>
        <time>2015-05-17T09:08:29.000Z</time>
      </trkpt>
      <trkpt lat="47.42113" lon="6.6991">
        <ele>366</ele>
        <time>2015-05-17T09:08:30.000Z</time>
      </trkpt>
      <trkpt lat="47.42119" lon="6.69906">
        <ele>365</ele>
        <time>2015-05-17T09:08:31.000Z</time>
      </trkpt>
      <trkpt lat="47.42126" lon="6.69902">
        <ele>365</ele>
        <time>2015-05-17T09:08:32.000Z</time>
      </trkpt>
      <trkpt lat="47.42135" lon="6.69896">
        <ele>364</ele>
        <time>2015-05-17T09:08:33.000Z</time>
      </trkpt>
      <trkpt lat="47.42143" lon="6.69889">
        <ele>364</ele>
        <time>2015-05-17T09:08:34.000Z</time>
      </trkpt>
      <trkpt lat="47.4215" lon="6.69884">
        <ele>364</ele>
        <time>2015-05-17T09:08:35.000Z</time>
      </trkpt>
      <trkpt lat="47.42156" lon="6.6988">
        <ele>364</ele>
        <time>2015-05-17T09:08:36.000Z</time>
      </trkpt>
      <trkpt lat="47.42163" lon="6.69875">
        <ele>363</ele>
        <time>2015-05-17T09:08:37.000Z</time>
      </trkpt>
      <trkpt lat="47.42171" lon="6.6987">
        <ele>364</ele>
        <time>2015-05-17T09:08:38.000Z</time>
      </trkpt>
      <trkpt lat="47.42178" lon="6.69863">
        <ele>364</ele>
        <time>2015-05-17T09:08:39.000Z</time>
      </trkpt>
      <trkpt lat="47.42187" lon="6.69858">
        <ele>364</ele>
        <time>2015-05-17T09:08:40.000Z</time>
      </trkpt>
      <trkpt lat="47.42192" lon="6.69853">
        <ele>364</ele>
        <time>2015-05-17T09:08:41.000Z</time>
      </trkpt>
      <trkpt lat="47.42197" lon="6.69851">
        <ele>364</ele>
        <time>2015-05-17T09:08:42.000Z</time>
      </trkpt>
      <trkpt lat="47.42202" lon="6.69849">
        <ele>364</ele>
        <time>2015-05-17T09:08:43.000Z</time>
      </trkpt>
      <trkpt lat="47.42206" lon="6.69847">
        <ele>364</ele>
        <time>2015-05-17T09:08:44.000Z</time>
      </trkpt>
      <trkpt lat="47.4221" lon="6.69845">
        <ele>364</ele>
        <time>2015-05-17T09:08:45.000Z</time>
      </trkpt>
      <trkpt lat="47.42215" lon="6.69842">
        <ele>365</ele>
        <time>2015-05-17T09:08:46.000Z</time>
      </trkpt>
      <trkpt lat="47.4222" lon="6.6984">
        <ele>365</ele>
        <time>2015-05-17T09:08:47.000Z</time>
      </trkpt>
      <trkpt lat="47.42225" lon="6.69839">
        <ele>365</ele>
        <time>2015-05-17T09:08:48.000Z</time>
      </trkpt>
      <trkpt lat="47.42226" lon="6.69846">
        <ele>365</ele>
        <time>2015-05-17T09:08:49.000Z</time>
      </trkpt>
      <trkpt lat="47.42229" lon="6.69849">
        <ele>365</ele>
        <time>2015-05-17T09:08:50.000Z</time>
      </trkpt>
      <trkpt lat="47.42233" lon="6.69855">
        <ele>365</ele>
        <time>2015-05-17T09:08:51.000Z</time>
      </trkpt>
      <trkpt lat="47.42235" lon="6.69858">
        <ele>365</ele>
        <time>2015-05-17T09:08:52.000Z</time>
      </trkpt>
      <trkpt lat="47.42235" lon="6.69863">
        <ele>365</ele>
        <time>2015-05-17T09:08:53.000Z</time>
      </trkpt>
      <trkpt lat="47.42237" lon="6.69867">
        <ele>365</ele>
        <time>2015-05-17T09:08:54.000Z</time>
      </trkpt>
      <trkpt lat="47.4224" lon="6.69871">
        <ele>365</ele>
        <time>2015-05-17T09:08:55.000Z</time>
      </trkpt>
      <trkpt lat="47.42243" lon="6.69872">
        <ele>365</ele>
        <time>2015-05-17T09:08:56.000Z</time>
      </trkpt>
      <trkpt lat="47.42246" lon="6.69873">
        <ele>366</ele>
        <time>2015-05-17T09:08:57.000Z</time>
      </trkpt>
      <trkpt lat="47.4225" lon="6.69872">
        <ele>366</ele>
        <time>2015-05-17T09:08:58.000Z</time>
      </trkpt>
      <trkpt lat="47.42253" lon="6.69874">
        <ele>369</ele>
        <time>2015-05-17T09:08:59.000Z</time>
      </trkpt>
      <trkpt lat="47.42257" lon="6.69874">
        <ele>369</ele>
        <time>2015-05-17T09:09:00.000Z</time>
      </trkpt>
      <trkpt lat="47.42261" lon="6.69874">
        <ele>369</ele>
        <time>2015-05-17T09:09:01.000Z</time>
      </trkpt>
      <trkpt lat="47.42265" lon="6.69874">
        <ele>369</ele>
        <time>2015-05-17T09:09:02.000Z</time>
      </trkpt>
      <trkpt lat="47.42269" lon="6.69874">
        <ele>369</ele>
        <time>2015-05-17T09:09:03.000Z</time>
      </trkpt>
      <trkpt lat="47.42274" lon="6.69875">
        <ele>370</ele>
        <time>2015-05-17T09:09:04.000Z</time>
      </trkpt>
      <trkpt lat="47.42279" lon="6.69875">
        <ele>370</ele>
        <time>2015-05-17T09:09:05.000Z</time>
      </trkpt>
      <trkpt lat="47.42283" lon="6.69877">
        <ele>370</ele>
        <time>2015-05-17T09:09:06.000Z</time>
      </trkpt>
      <trkpt lat="47.42287" lon="6.69877">
        <ele>370</ele>
        <time>2015-05-17T09:09:07.000Z</time>
      </trkpt>
      <trkpt lat="47.42292" lon="6.69876">
        <ele>370</ele>
        <time>2015-05-17T09:09:08.000Z</time>
      </trkpt>
      <trkpt lat="47.42296" lon="6.69877">
        <ele>370</ele>
        <time>2015-05-17T09:09:09.000Z</time>
      </trkpt>
      <trkpt lat="47.42298" lon="6.69879">
        <ele>371</ele>
        <time>2015-05-17T09:09:10.000Z</time>
      </trkpt>
      <trkpt lat="47.42302" lon="6.69881">
        <ele>371</ele>
        <time>2015-05-17T09:09:11.000Z</time>
      </trkpt>
      <trkpt lat="47.42306" lon="6.6988">
        <ele>371</ele>
        <time>2015-05-17T09:09:12.000Z</time>
      </trkpt>
      <trkpt lat="47.4231" lon="6.6988">
        <ele>371</ele>
        <time>2015-05-17T09:09:13.000Z</time>
      </trkpt>
      <trkpt lat="47.42314" lon="6.69881">
        <ele>371</ele>
        <time>2015-05-17T09:09:14.000Z</time>
      </trkpt>
      <trkpt lat="47.42317" lon="6.69882">
        <ele>371</ele>
        <time>2015-05-17T09:09:15.000Z</time>
      </trkpt>
      <trkpt lat="47.42322" lon="6.6988">
        <ele>371</ele>
        <time>2015-05-17T09:09:16.000Z</time>
      </trkpt>
      <trkpt lat="47.42325" lon="6.69881">
        <ele>371</ele>
        <time>2015-05-17T09:09:17.000Z</time>
      </trkpt>
      <trkpt lat="47.42328" lon="6.69882">
        <ele>371</ele>
        <time>2015-05-17T09:09:18.000Z</time>
      </trkpt>
      <trkpt lat="47.42331" lon="6.6988">
        <ele>371</ele>
        <time>2015-05-17T09:09:19.000Z</time>
      </trkpt>
      <trkpt lat="47.42334" lon="6.69878">
        <ele>381</ele>
        <time>2015-05-17T09:09:20.000Z</time>
      </trkpt>
      <trkpt lat="47.42336" lon="6.69874">
        <ele>381</ele>
        <time>2015-05-17T09:09:21.000Z</time>
      </trkpt>
      <trkpt lat="47.42337" lon="6.69871">
        <ele>381</ele>
        <time>2015-05-17T09:09:22.000Z</time>
      </trkpt>
      <trkpt lat="47.42336" lon="6.69865">
        <ele>381</ele>
        <time>2015-05-17T09:09:23.000Z</time>
      </trkpt>
      <trkpt lat="47.42337" lon="6.69858">
        <ele>380</ele>
        <time>2015-05-17T09:09:24.000Z</time>
      </trkpt>
      <trkpt lat="47.42338" lon="6.69852">
        <ele>380</ele>
        <time>2015-05-17T09:09:25.000Z</time>
      </trkpt>
      <trkpt lat="47.42338" lon="6.69847">
        <ele>379</ele>
        <time>2015-05-17T09:09:26.000Z</time>
      </trkpt>
      <trkpt lat="47.42337" lon="6.69842">
        <ele>377</ele>
        <time>2015-05-17T09:09:27.000Z</time>
      </trkpt>
      <trkpt lat="47.42336" lon="6.69837">
        <ele>376</ele>
        <time>2015-05-17T09:09:28.000Z</time>
      </trkpt>
      <trkpt lat="47.42336" lon="6.69831">
        <ele>375</ele>
        <time>2015-05-17T09:09:29.000Z</time>
      </trkpt>
      <trkpt lat="47.42335" lon="6.69826">
        <ele>377</ele>
        <time>2015-05-17T09:09:30.000Z</time>
      </trkpt>
      <trkpt lat="47.42335" lon="6.69822">
        <ele>378</ele>
        <time>2015-05-17T09:09:31.000Z</time>
      </trkpt>
      <trkpt lat="47.42335" lon="6.69817">
        <ele>378</ele>
        <time>2015-05-17T09:09:32.000Z</time>
      </trkpt>
      <trkpt lat="47.42336" lon="6.69813">
        <ele>379</ele>
        <time>2015-05-17T09:09:33.000Z</time>
      </trkpt>
      <trkpt lat="47.42335" lon="6.69809">
        <ele>379</ele>
        <time>2015-05-17T09:09:34.000Z</time>
      </trkpt>
      <trkpt lat="47.42335" lon="6.69806">
        <ele>380</ele>
        <time>2015-05-17T09:09:35.000Z</time>
      </trkpt>
      <trkpt lat="47.42334" lon="6.69802">
        <ele>380</ele>
        <time>2015-05-17T09:09:36.000Z</time>
      </trkpt>
      <trkpt lat="47.42334" lon="6.69799">
        <ele>380</ele>
        <time>2015-05-17T09:09:37.000Z</time>
      </trkpt>
      <trkpt lat="47.42334" lon="6.69795">
        <ele>380</ele>
        <time>2015-05-17T09:09:38.000Z</time>
      </trkpt>
      <trkpt lat="47.42334" lon="6.6979">
        <ele>380</ele>
        <time>2015-05-17T09:09:39.000Z</time>
      </trkpt>
      <trkpt lat="47.42335" lon="6.69784">
        <ele>380</ele>
        <time>2015-05-17T09:09:40.000Z</time>
      </trkpt>
      <trkpt lat="47.42337" lon="6.69778">
        <ele>379</ele>
        <time>2015-05-17T09:09:41.000Z</time>
      </trkpt>
      <trkpt lat="47.42338" lon="6.69771">
        <ele>379</ele>
        <time>2015-05-17T09:09:42.000Z</time>
      </trkpt>
      <trkpt lat="47.4234" lon="6.69765">
        <ele>378</ele>
        <time>2015-05-17T09:09:43.000Z</time>
      </trkpt>
      <trkpt lat="47.42341" lon="6.6976">
        <ele>377</ele>
        <time>2015-05-17T09:09:44.000Z</time>
      </trkpt>
      <trkpt lat="47.42342" lon="6.69755">
        <ele>377</ele>
        <time>2015-05-17T09:09:45.000Z</time>
      </trkpt>
      <trkpt lat="47.42343" lon="6.6975">
        <ele>375</ele>
        <time>2015-05-17T09:09:46.000Z</time>
      </trkpt>
      <trkpt lat="47.42345" lon="6.69745">
        <ele>376</ele>
        <time>2015-05-17T09:09:47.000Z</time>
      </trkpt>
      <trkpt lat="47.42346" lon="6.6974">
        <ele>376</ele>
        <time>2015-05-17T09:09:48.000Z</time>
      </trkpt>
      <trkpt lat="47.42346" lon="6.69735">
        <ele>376</ele>
        <time>2015-05-17T09:09:49.000Z</time>
      </trkpt>
      <trkpt lat="47.42347" lon="6.6973">
        <ele>377</ele>
        <time>2015-05-17T09:09:50.000Z</time>
      </trkpt>
      <trkpt lat="47.42348" lon="6.69725">
        <ele>377</ele>
        <time>2015-05-17T09:09:51.000Z</time>
      </trkpt>
      <trkpt lat="47.42349" lon="6.6972">
        <ele>377</ele>
        <time>2015-05-17T09:09:52.000Z</time>
      </trkpt>
      <trkpt lat="47.4235" lon="6.69714">
        <ele>377</ele>
        <time>2015-05-17T09:09:53.000Z</time>
      </trkpt>
      <trkpt lat="47.42351" lon="6.69709">
        <ele>377</ele>
        <time>2015-05-17T09:09:54.000Z</time>
      </trkpt>
      <trkpt lat="47.42352" lon="6.69704">
        <ele>377</ele>
        <time>2015-05-17T09:09:55.000Z</time>
      </trkpt>
      <trkpt lat="47.42353" lon="6.69699">
        <ele>376</ele>
        <time>2015-05-17T09:09:56.000Z</time>
      </trkpt>
      <trkpt lat="47.42354" lon="6.69694">
        <ele>376</ele>
        <time>2015-05-17T09:09:57.000Z</time>
      </trkpt>
      <trkpt lat="47.42355" lon="6.6969">
        <ele>376</ele>
        <time>2015-05-17T09:09:58.000Z</time>
      </trkpt>
      <trkpt lat="47.42357" lon="6.69685">
        <ele>376</ele>
        <time>2015-05-17T09:09:59.000Z</time>
      </trkpt>
      <trkpt lat="47.42359" lon="6.69681">
        <ele>376</ele>
        <time>2015-05-17T09:10:00.000Z</time>
      </trkpt>
      <trkpt lat="47.4236" lon="6.69677">
        <ele>376</ele>
        <time>2015-05-17T09:10:01.000Z</time>
      </trkpt>
      <trkpt lat="47.42362" lon="6.69673">
        <ele>376</ele>
        <time>2015-05-17T09:10:02.000Z</time>
      </trkpt>
      <trkpt lat="47.42364" lon="6.6967">
        <ele>376</ele>
        <time>2015-05-17T09:10:03.000Z</time>
      </trkpt>
      <trkpt lat="47.42366" lon="6.69667">
        <ele>377</ele>
        <time>2015-05-17T09:10:04.000Z</time>
      </trkpt>
      <trkpt lat="47.42368" lon="6.69664">
        <ele>373</ele>
        <time>2015-05-17T09:10:05.000Z</time>
      </trkpt>
      <trkpt lat="47.42371" lon="6.69662">
        <ele>373</ele>
        <time>2015-05-17T09:10:06.000Z</time>
      </trkpt>
      <trkpt lat="47.42373" lon="6.6966">
        <ele>373</ele>
        <time>2015-05-17T09:10:07.000Z</time>
      </trkpt>
      <trkpt lat="47.42376" lon="6.69658">
        <ele>374</ele>
        <time>2015-05-17T09:10:08.000Z</time>
      </trkpt>
      <trkpt lat="47.42378" lon="6.69656">
        <ele>374</ele>
        <time>2015-05-17T09:10:09.000Z</time>
      </trkpt>
      <trkpt lat="47.42381" lon="6.69654">
        <ele>374</ele>
        <time>2015-05-17T09:10:10.000Z</time>
      </trkpt>
      <trkpt lat="47.42383" lon="6.69651">
        <ele>375</ele>
        <time>2015-05-17T09:10:11.000Z</time>
      </trkpt>
      <trkpt lat="47.42386" lon="6.69648">
        <ele>375</ele>
        <time>2015-05-17T09:10:12.000Z</time>
      </trkpt>
      <trkpt lat="47.42389" lon="6.69644">
        <ele>375</ele>
        <time>2015-05-17T09:10:13.000Z</time>
      </trkpt>
      <trkpt lat="47.42392" lon="6.69641">
        <ele>375</ele>
        <time>2015-05-17T09:10:14.000Z</time>
      </trkpt>
      <trkpt lat="47.42395" lon="6.69638">
        <ele>376</ele>
        <time>2015-05-17T09:10:15.000Z</time>
      </trkpt>
      <trkpt lat="47.42398" lon="6.69635">
        <ele>376</ele>
        <time>2015-05-17T09:10:16.000Z</time>
      </trkpt>
      <trkpt lat="47.42401" lon="6.69633">
        <ele>376</ele>
        <time>2015-05-17T09:10:17.000Z</time>
      </trkpt>
      <trkpt lat="47.42404" lon="6.6963">
        <ele>376</ele>
        <time>2015-05-17T09:10:18.000Z</time>
      </trkpt>
      <trkpt lat="47.42406" lon="6.69628">
        <ele>376</ele>
        <time>2015-05-17T09:10:19.000Z</time>
      </trkpt>
      <trkpt lat="47.42409" lon="6.69625">
        <ele>376</ele>
        <time>2015-05-17T09:10:20.000Z</time>
      </trkpt>
      <trkpt lat="47.42412" lon="6.69621">
        <ele>376</ele>
        <time>2015-05-17T09:10:21.000Z</time>
      </trkpt>
      <trkpt lat="47.42415" lon="6.69617">
        <ele>376</ele>
        <time>2015-05-17T09:10:22.000Z</time>
      </trkpt>
      <trkpt lat="47.42418" lon="6.69614">
        <ele>386</ele>
        <time>2015-05-17T09:10:23.000Z</time>
      </trkpt>
      <trkpt lat="47.42421" lon="6.6961">
        <ele>385</ele>
        <time>2015-05-17T09:10:24.000Z</time>
      </trkpt>
      <trkpt lat="47.42423" lon="6.69607">
        <ele>385</ele>
        <time>2015-05-17T09:10:25.000Z</time>
      </trkpt>
      <trkpt lat="47.42426" lon="6.69603">
        <ele>385</ele>
        <time>2015-05-17T09:10:26.000Z</time>
      </trkpt>
      <trkpt lat="47.42429" lon="6.696">
        <ele>385</ele>
        <time>2015-05-17T09:10:27.000Z</time>
      </trkpt>
      <trkpt lat="47.42431" lon="6.69597">
        <ele>384</ele>
        <time>2015-05-17T09:10:28.000Z</time>
      </trkpt>
      <trkpt lat="47.42433" lon="6.69593">
        <ele>384</ele>
        <time>2015-05-17T09:10:29.000Z</time>
      </trkpt>
      <trkpt lat="47.42435" lon="6.69588">
        <ele>384</ele>
        <time>2015-05-17T09:10:30.000Z</time>
      </trkpt>
      <trkpt lat="47.42437" lon="6.69584">
        <ele>385</ele>
        <time>2015-05-17T09:10:31.000Z</time>
      </trkpt>
      <trkpt lat="47.42438" lon="6.69581">
        <ele>381</ele>
        <time>2015-05-17T09:10:32.000Z</time>
      </trkpt>
      <trkpt lat="47.42442" lon="6.69577">
        <ele>382</ele>
        <time>2015-05-17T09:10:33.000Z</time>
      </trkpt>
      <trkpt lat="47.42446" lon="6.69575">
        <ele>382</ele>
        <time>2015-05-17T09:10:34.000Z</time>
      </trkpt>
      <trkpt lat="47.42449" lon="6.69574">
        <ele>382</ele>
        <time>2015-05-17T09:10:35.000Z</time>
      </trkpt>
      <trkpt lat="47.42452" lon="6.69575">
        <ele>383</ele>
        <time>2015-05-17T09:10:36.000Z</time>
      </trkpt>
      <trkpt lat="47.42456" lon="6.69575">
        <ele>383</ele>
        <time>2015-05-17T09:10:37.000Z</time>
      </trkpt>
      <trkpt lat="47.42459" lon="6.69577">
        <ele>383</ele>
        <time>2015-05-17T09:10:39.000Z</time>
      </trkpt>
      <trkpt lat="47.4246" lon="6.6958">
        <ele>384</ele>
        <time>2015-05-17T09:10:40.000Z</time>
      </trkpt>
      <trkpt lat="47.42461" lon="6.69582">
        <ele>384</ele>
        <time>2015-05-17T09:10:41.000Z</time>
      </trkpt>
      <trkpt lat="47.42461" lon="6.69587">
        <ele>388</ele>
        <time>2015-05-17T09:10:42.000Z</time>
      </trkpt>
      <trkpt lat="47.4246" lon="6.69591">
        <ele>388</ele>
        <time>2015-05-17T09:10:43.000Z</time>
      </trkpt>
      <trkpt lat="47.42458" lon="6.69595">
        <ele>388</ele>
        <time>2015-05-17T09:10:44.000Z</time>
      </trkpt>
      <trkpt lat="47.42456" lon="6.69599">
        <ele>388</ele>
        <time>2015-05-17T09:10:45.000Z</time>
      </trkpt>
      <trkpt lat="47.42455" lon="6.69602">
        <ele>388</ele>
        <time>2015-05-17T09:10:46.000Z</time>
      </trkpt>
      <trkpt lat="47.42453" lon="6.69606">
        <ele>388</ele>
        <time>2015-05-17T09:10:47.000Z</time>
      </trkpt>
      <trkpt lat="47.4245" lon="6.6961">
        <ele>388</ele>
        <time>2015-05-17T09:10:48.000Z</time>
      </trkpt>
      <trkpt lat="47.42448" lon="6.69614">
        <ele>388</ele>
        <time>2015-05-17T09:10:49.000Z</time>
      </trkpt>
      <trkpt lat="47.42445" lon="6.69618">
        <ele>388</ele>
        <time>2015-05-17T09:10:50.000Z</time>
      </trkpt>
      <trkpt lat="47.42443" lon="6.69622">
        <ele>388</ele>
        <time>2015-05-17T09:10:51.000Z</time>
      </trkpt>
      <trkpt lat="47.42441" lon="6.69625">
        <ele>388</ele>
        <time>2015-05-17T09:10:52.000Z</time>
      </trkpt>
      <trkpt lat="47.42438" lon="6.69629">
        <ele>388</ele>
        <time>2015-05-17T09:10:53.000Z</time>
      </trkpt>
      <trkpt lat="47.42436" lon="6.69633">
        <ele>388</ele>
        <time>2015-05-17T09:10:54.000Z</time>
      </trkpt>
      <trkpt lat="47.42434" lon="6.69638">
        <ele>388</ele>
        <time>2015-05-17T09:10:55.000Z</time>
      </trkpt>
      <trkpt lat="47.42433" lon="6.69643">
        <ele>388</ele>
        <time>2015-05-17T09:10:56.000Z</time>
      </trkpt>
      <trkpt lat="47.42431" lon="6.69648">
        <ele>388</ele>
        <time>2015-05-17T09:10:57.000Z</time>
      </trkpt>
      <trkpt lat="47.42429" lon="6.69653">
        <ele>388</ele>
        <time>2015-05-17T09:10:58.000Z</time>
      </trkpt>
      <trkpt lat="47.42428" lon="6.69658">
        <ele>387</ele>
        <time>2015-05-17T09:10:59.000Z</time>
      </trkpt>
      <trkpt lat="47.42426" lon="6.69663">
        <ele>387</ele>
        <time>2015-05-17T09:11:00.000Z</time>
      </trkpt>
      <trkpt lat="47.42425" lon="6.69668">
        <ele>389</ele>
        <time>2015-05-17T09:11:01.000Z</time>
      </trkpt>
      <trkpt lat="47.42424" lon="6.69673">
        <ele>389</ele>
        <time>2015-05-17T09:11:02.000Z</time>
      </trkpt>
      <trkpt lat="47.42423" lon="6.69678">
        <ele>390</ele>
        <time>2015-05-17T09:11:03.000Z</time>
      </trkpt>
      <trkpt lat="47.42422" lon="6.69683">
        <ele>390</ele>
        <time>2015-05-17T09:11:04.000Z</time>
      </trkpt>
      <trkpt lat="47.42422" lon="6.69689">
        <ele>391</ele>
        <time>2015-05-17T09:11:05.000Z</time>
      </trkpt>
      <trkpt lat="47.42421" lon="6.69694">
        <ele>392</ele>
        <time>2015-05-17T09:11:06.000Z</time>
      </trkpt>
      <trkpt lat="47.42421" lon="6.69699">
        <ele>392</ele>
        <time>2015-05-17T09:11:07.000Z</time>
      </trkpt>
      <trkpt lat="47.4242" lon="6.69704">
        <ele>393</ele>
        <time>2015-05-17T09:11:08.000Z</time>
      </trkpt>
      <trkpt lat="47.4242" lon="6.69708">
        <ele>393</ele>
        <time>2015-05-17T09:11:09.000Z</time>
      </trkpt>
      <trkpt lat="47.4242" lon="6.69713">
        <ele>393</ele>
        <time>2015-05-17T09:11:10.000Z</time>
      </trkpt>
      <trkpt lat="47.42419" lon="6.69718">
        <ele>393</ele>
        <time>2015-05-17T09:11:11.000Z</time>
      </trkpt>
      <trkpt lat="47.42418" lon="6.69723">
        <ele>393</ele>
        <time>2015-05-17T09:11:12.000Z</time>
      </trkpt>
      <trkpt lat="47.42418" lon="6.69727">
        <ele>393</ele>
        <time>2015-05-17T09:11:13.000Z</time>
      </trkpt>
      <trkpt lat="47.42417" lon="6.69732">
        <ele>393</ele>
        <time>2015-05-17T09:11:14.000Z</time>
      </trkpt>
      <trkpt lat="47.42416" lon="6.69737">
        <ele>386</ele>
        <time>2015-05-17T09:11:15.000Z</time>
      </trkpt>
      <trkpt lat="47.42415" lon="6.69741">
        <ele>388</ele>
        <time>2015-05-17T09:11:16.000Z</time>
      </trkpt>
      <trkpt lat="47.42415" lon="6.69746">
        <ele>389</ele>
        <time>2015-05-17T09:11:17.000Z</time>
      </trkpt>
      <trkpt lat="47.42414" lon="6.69751">
        <ele>390</ele>
        <time>2015-05-17T09:11:18.000Z</time>
      </trkpt>
      <trkpt lat="47.42413" lon="6.69756">
        <ele>389</ele>
        <time>2015-05-17T09:11:19.000Z</time>
      </trkpt>
      <trkpt lat="47.42412" lon="6.6976">
        <ele>389</ele>
        <time>2015-05-17T09:11:20.000Z</time>
      </trkpt>
      <trkpt lat="47.42412" lon="6.69765">
        <ele>388</ele>
        <time>2015-05-17T09:11:21.000Z</time>
      </trkpt>
      <trkpt lat="47.42411" lon="6.6977">
        <ele>388</ele>
        <time>2015-05-17T09:11:22.000Z</time>
      </trkpt>
      <trkpt lat="47.4241" lon="6.69775">
        <ele>387</ele>
        <time>2015-05-17T09:11:23.000Z</time>
      </trkpt>
      <trkpt lat="47.42409" lon="6.69779">
        <ele>387</ele>
        <time>2015-05-17T09:11:24.000Z</time>
      </trkpt>
      <trkpt lat="47.42409" lon="6.69784">
        <ele>387</ele>
        <time>2015-05-17T09:11:25.000Z</time>
      </trkpt>
      <trkpt lat="47.42408" lon="6.69788">
        <ele>387</ele>
        <time>2015-05-17T09:11:26.000Z</time>
      </trkpt>
      <trkpt lat="47.42407" lon="6.69793">
        <ele>388</ele>
        <time>2015-05-17T09:11:27.000Z</time>
      </trkpt>
      <trkpt lat="47.42406" lon="6.69798">
        <ele>388</ele>
        <time>2015-05-17T09:11:28.000Z</time>
      </trkpt>
      <trkpt lat="47.42405" lon="6.69802">
        <ele>388</ele>
        <time>2015-05-17T09:11:29.000Z</time>
      </trkpt>
      <trkpt lat="47.42404" lon="6.69807">
        <ele>389</ele>
        <time>2015-05-17T09:11:30.000Z</time>
      </trkpt>
      <trkpt lat="47.42404" lon="6.69812">
        <ele>389</ele>
        <time>2015-05-17T09:11:31.000Z</time>
      </trkpt>
      <trkpt lat="47.42404" lon="6.69816">
        <ele>390</ele>
        <time>2015-05-17T09:11:32.000Z</time>
      </trkpt>
      <trkpt lat="47.42404" lon="6.69821">
        <ele>391</ele>
        <time>2015-05-17T09:11:33.000Z</time>
      </trkpt>
      <trkpt lat="47.42405" lon="6.69825">
        <ele>392</ele>
        <time>2015-05-17T09:11:34.000Z</time>
      </trkpt>
      <trkpt lat="47.42405" lon="6.6983">
        <ele>393</ele>
        <time>2015-05-17T09:11:35.000Z</time>
      </trkpt>
      <trkpt lat="47.42406" lon="6.69835">
        <ele>393</ele>
        <time>2015-05-17T09:11:36.000Z</time>
      </trkpt>
      <trkpt lat="47.42407" lon="6.69841">
        <ele>393</ele>
        <time>2015-05-17T09:11:37.000Z</time>
      </trkpt>
      <trkpt lat="47.42408" lon="6.69846">
        <ele>392</ele>
        <time>2015-05-17T09:11:38.000Z</time>
      </trkpt>
      <trkpt lat="47.42409" lon="6.6985">
        <ele>392</ele>
        <time>2015-05-17T09:11:39.000Z</time>
      </trkpt>
      <trkpt lat="47.42409" lon="6.69855">
        <ele>391</ele>
        <time>2015-05-17T09:11:40.000Z</time>
      </trkpt>
      <trkpt lat="47.4241" lon="6.6986">
        <ele>391</ele>
        <time>2015-05-17T09:11:41.000Z</time>
      </trkpt>
      <trkpt lat="47.42411" lon="6.69864">
        <ele>390</ele>
        <time>2015-05-17T09:11:42.000Z</time>
      </trkpt>
      <trkpt lat="47.42412" lon="6.69869">
        <ele>390</ele>
        <time>2015-05-17T09:11:43.000Z</time>
      </trkpt>
      <trkpt lat="47.42413" lon="6.69873">
        <ele>390</ele>
        <time>2015-05-17T09:11:44.000Z</time>
      </trkpt>
      <trkpt lat="47.42414" lon="6.69878">
        <ele>390</ele>
        <time>2015-05-17T09:11:45.000Z</time>
      </trkpt>
      <trkpt lat="47.42415" lon="6.69882">
        <ele>390</ele>
        <time>2015-05-17T09:11:46.000Z</time>
      </trkpt>
      <trkpt lat="47.42416" lon="6.69886">
        <ele>390</ele>
        <time>2015-05-17T09:11:47.000Z</time>
      </trkpt>
      <trkpt lat="47.42418" lon="6.6989">
        <ele>402</ele>
        <time>2015-05-17T09:11:48.000Z</time>
      </trkpt>
      <trkpt lat="47.42418" lon="6.69895">
        <ele>401</ele>
        <time>2015-05-17T09:11:49.000Z</time>
      </trkpt>
      <trkpt lat="47.42419" lon="6.69899">
        <ele>401</ele>
        <time>2015-05-17T09:11:50.000Z</time>
      </trkpt>
      <trkpt lat="47.42419" lon="6.69903">
        <ele>400</ele>
        <time>2015-05-17T09:11:51.000Z</time>
      </trkpt>
      <trkpt lat="47.4242" lon="6.69908">
        <ele>400</ele>
        <time>2015-05-17T09:11:52.000Z</time>
      </trkpt>
      <trkpt lat="47.42422" lon="6.69912">
        <ele>399</ele>
        <time>2015-05-17T09:11:53.000Z</time>
      </trkpt>
      <trkpt lat="47.42423" lon="6.69915">
        <ele>399</ele>
        <time>2015-05-17T09:11:54.000Z</time>
      </trkpt>
      <trkpt lat="47.42425" lon="6.69919">
        <ele>399</ele>
        <time>2015-05-17T09:11:55.000Z</time>
      </trkpt>
      <trkpt lat="47.42427" lon="6.69921">
        <ele>399</ele>
        <time>2015-05-17T09:11:56.000Z</time>
      </trkpt>
      <trkpt lat="47.42429" lon="6.69924">
        <ele>400</ele>
        <time>2015-05-17T09:11:57.000Z</time>
      </trkpt>
      <trkpt lat="47.42431" lon="6.69927">
        <ele>400</ele>
        <time>2015-05-17T09:11:58.000Z</time>
      </trkpt>
      <trkpt lat="47.42433" lon="6.69931">
        <ele>400</ele>
        <time>2015-05-17T09:11:59.000Z</time>
      </trkpt>
      <trkpt lat="47.42436" lon="6.69934">
        <ele>401</ele>
        <time>2015-05-17T09:12:00.000Z</time>
      </trkpt>
      <trkpt lat="47.42438" lon="6.69937">
        <ele>401</ele>
        <time>2015-05-17T09:12:01.000Z</time>
      </trkpt>
      <trkpt lat="47.42439" lon="6.69939">
        <ele>401</ele>
        <time>2015-05-17T09:12:02.000Z</time>
      </trkpt>
      <trkpt lat="47.42442" lon="6.69944">
        <ele>402</ele>
        <time>2015-05-17T09:12:04.000Z</time>
      </trkpt>
      <trkpt lat="47.42444" lon="6.69946">
        <ele>402</ele>
        <time>2015-05-17T09:12:05.000Z</time>
      </trkpt>
      <trkpt lat="47.42447" lon="6.69948">
        <ele>402</ele>
        <time>2015-05-17T09:12:06.000Z</time>
      </trkpt>
      <trkpt lat="47.42449" lon="6.69951">
        <ele>402</ele>
        <time>2015-05-17T09:12:07.000Z</time>
      </trkpt>
      <trkpt lat="47.42451" lon="6.69953">
        <ele>402</ele>
        <time>2015-05-17T09:12:08.000Z</time>
      </trkpt>
      <trkpt lat="47.42453" lon="6.69956">
        <ele>403</ele>
        <time>2015-05-17T09:12:09.000Z</time>
      </trkpt>
      <trkpt lat="47.42456" lon="6.69958">
        <ele>403</ele>
        <time>2015-05-17T09:12:10.000Z</time>
      </trkpt>
      <trkpt lat="47.42458" lon="6.69961">
        <ele>403</ele>
        <time>2015-05-17T09:12:11.000Z</time>
      </trkpt>
      <trkpt lat="47.42459" lon="6.69966">
        <ele>403</ele>
        <time>2015-05-17T09:12:12.000Z</time>
      </trkpt>
      <trkpt lat="47.42461" lon="6.69971">
        <ele>403</ele>
        <time>2015-05-17T09:12:13.000Z</time>
      </trkpt>
      <trkpt lat="47.42462" lon="6.69975">
        <ele>403</ele>
        <time>2015-05-17T09:12:14.000Z</time>
      </trkpt>
      <trkpt lat="47.42464" lon="6.69979">
        <ele>403</ele>
        <time>2015-05-17T09:12:15.000Z</time>
      </trkpt>
      <trkpt lat="47.42466" lon="6.69981">
        <ele>404</ele>
        <time>2015-05-17T09:12:16.000Z</time>
      </trkpt>
      <trkpt lat="47.42468" lon="6.69985">
        <ele>404</ele>
        <time>2015-05-17T09:12:17.000Z</time>
      </trkpt>
      <trkpt lat="47.42469" lon="6.69988">
        <ele>404</ele>
        <time>2015-05-17T09:12:18.000Z</time>
      </trkpt>
      <trkpt lat="47.42471" lon="6.69992">
        <ele>404</ele>
        <time>2015-05-17T09:12:19.000Z</time>
      </trkpt>
      <trkpt lat="47.42472" lon="6.69997">
        <ele>405</ele>
        <time>2015-05-17T09:12:20.000Z</time>
      </trkpt>
      <trkpt lat="47.42474" lon="6.69999">
        <ele>405</ele>
        <time>2015-05-17T09:12:21.000Z</time>
      </trkpt>
      <trkpt lat="47.42476" lon="6.70002">
        <ele>402</ele>
        <time>2015-05-17T09:12:22.000Z</time>
      </trkpt>
      <trkpt lat="47.42478" lon="6.70004">
        <ele>403</ele>
        <time>2015-05-17T09:12:23.000Z</time>
      </trkpt>
      <trkpt lat="47.42481" lon="6.70006">
        <ele>403</ele>
        <time>2015-05-17T09:12:24.000Z</time>
      </trkpt>
      <trkpt lat="47.42483" lon="6.70008">
        <ele>404</ele>
        <time>2015-05-17T09:12:25.000Z</time>
      </trkpt>
      <trkpt lat="47.42485" lon="6.7001">
        <ele>404</ele>
        <time>2015-05-17T09:12:26.000Z</time>
      </trkpt>
      <trkpt lat="47.42488" lon="6.70012">
        <ele>404</ele>
        <time>2015-05-17T09:12:27.000Z</time>
      </trkpt>
      <trkpt lat="47.42489" lon="6.70016">
        <ele>403</ele>
        <time>2015-05-17T09:12:28.000Z</time>
      </trkpt>
      <trkpt lat="47.4249" lon="6.7002">
        <ele>403</ele>
        <time>2015-05-17T09:12:29.000Z</time>
      </trkpt>
      <trkpt lat="47.42492" lon="6.70023">
        <ele>402</ele>
        <time>2015-05-17T09:12:30.000Z</time>
      </trkpt>
      <trkpt lat="47.42494" lon="6.70026">
        <ele>402</ele>
        <time>2015-05-17T09:12:31.000Z</time>
      </trkpt>
      <trkpt lat="47.42497" lon="6.70028">
        <ele>402</ele>
        <time>2015-05-17T09:12:32.000Z</time>
      </trkpt>
      <trkpt lat="47.42499" lon="6.7003">
        <ele>402</ele>
        <time>2015-05-17T09:12:33.000Z</time>
      </trkpt>
      <trkpt lat="47.42501" lon="6.70033">
        <ele>411</ele>
        <time>2015-05-17T09:12:34.000Z</time>
      </trkpt>
      <trkpt lat="47.42503" lon="6.70035">
        <ele>411</ele>
        <time>2015-05-17T09:12:35.000Z</time>
      </trkpt>
      <trkpt lat="47.42507" lon="6.70038">
        <ele>411</ele>
        <time>2015-05-17T09:12:37.000Z</time>
      </trkpt>
      <trkpt lat="47.42509" lon="6.7004">
        <ele>411</ele>
        <time>2015-05-17T09:12:38.000Z</time>
      </trkpt>
      <trkpt lat="47.42511" lon="6.70042">
        <ele>411</ele>
        <time>2015-05-17T09:12:39.000Z</time>
      </trkpt>
      <trkpt lat="47.42514" lon="6.70045">
        <ele>410</ele>
        <time>2015-05-17T09:12:40.000Z</time>
      </trkpt>
      <trkpt lat="47.42516" lon="6.70048">
        <ele>410</ele>
        <time>2015-05-17T09:12:41.000Z</time>
      </trkpt>
      <trkpt lat="47.42518" lon="6.70051">
        <ele>410</ele>
        <time>2015-05-17T09:12:42.000Z</time>
      </trkpt>
      <trkpt lat="47.4252" lon="6.70054">
        <ele>410</ele>
        <time>2015-05-17T09:12:43.000Z</time>
      </trkpt>
      <trkpt lat="47.42522" lon="6.70056">
        <ele>410</ele>
        <time>2015-05-17T09:12:44.000Z</time>
      </trkpt>
      <trkpt lat="47.42525" lon="6.70057">
        <ele>410</ele>
        <time>2015-05-17T09:12:45.000Z</time>
      </trkpt>
      <trkpt lat="47.42528" lon="6.70059">
        <ele>410</ele>
        <time>2015-05-17T09:12:46.000Z</time>
      </trkpt>
      <trkpt lat="47.42532" lon="6.70059">
        <ele>411</ele>
        <time>2015-05-17T09:12:47.000Z</time>
      </trkpt>
      <trkpt lat="47.42537" lon="6.70059">
        <ele>411</ele>
        <time>2015-05-17T09:12:48.000Z</time>
      </trkpt>
      <trkpt lat="47.42542" lon="6.70059">
        <ele>412</ele>
        <time>2015-05-17T09:12:49.000Z</time>
      </trkpt>
      <trkpt lat="47.42547" lon="6.70058">
        <ele>413</ele>
        <time>2015-05-17T09:12:50.000Z</time>
      </trkpt>
      <trkpt lat="47.42551" lon="6.70059">
        <ele>413</ele>
        <time>2015-05-17T09:12:51.000Z</time>
      </trkpt>
      <trkpt lat="47.42554" lon="6.7006">
        <ele>413</ele>
        <time>2015-05-17T09:12:52.000Z</time>
      </trkpt>
      <trkpt lat="47.42556" lon="6.70064">
        <ele>413</ele>
        <time>2015-05-17T09:12:54.000Z</time>
      </trkpt>
      <trkpt lat="47.42557" lon="6.70066">
        <ele>413</ele>
        <time>2015-05-17T09:12:55.000Z</time>
      </trkpt>
      <trkpt lat="47.42558" lon="6.70071">
        <ele>413</ele>
        <time>2015-05-17T09:12:57.000Z</time>
      </trkpt>
      <trkpt lat="47.42559" lon="6.70073">
        <ele>413</ele>
        <time>2015-05-17T09:12:58.000Z</time>
      </trkpt>
      <trkpt lat="47.42561" lon="6.70075">
        <ele>414</ele>
        <time>2015-05-17T09:12:59.000Z</time>
      </trkpt>
      <trkpt lat="47.42562" lon="6.70077">
        <ele>414</ele>
        <time>2015-05-17T09:13:00.000Z</time>
      </trkpt>
      <trkpt lat="47.42564" lon="6.7008">
        <ele>414</ele>
        <time>2015-05-17T09:13:01.000Z</time>
      </trkpt>
      <trkpt lat="47.42569" lon="6.70081">
        <ele>414</ele>
        <time>2015-05-17T09:13:02.000Z</time>
      </trkpt>
      <trkpt lat="47.42573" lon="6.70083">
        <ele>412</ele>
        <time>2015-05-17T09:13:03.000Z</time>
      </trkpt>
      <trkpt lat="47.42578" lon="6.70086">
        <ele>413</ele>
        <time>2015-05-17T09:13:04.000Z</time>
      </trkpt>
      <trkpt lat="47.42582" lon="6.70088">
        <ele>414</ele>
        <time>2015-05-17T09:13:05.000Z</time>
      </trkpt>
      <trkpt lat="47.42585" lon="6.7009">
        <ele>417</ele>
        <time>2015-05-17T09:13:06.000Z</time>
      </trkpt>
      <trkpt lat="47.42588" lon="6.70092">
        <ele>417</ele>
        <time>2015-05-17T09:13:07.000Z</time>
      </trkpt>
      <trkpt lat="47.42591" lon="6.70094">
        <ele>417</ele>
        <time>2015-05-17T09:13:08.000Z</time>
      </trkpt>
      <trkpt lat="47.42594" lon="6.70096">
        <ele>417</ele>
        <time>2015-05-17T09:13:09.000Z</time>
      </trkpt>
      <trkpt lat="47.42597" lon="6.70099">
        <ele>417</ele>
        <time>2015-05-17T09:13:10.000Z</time>
      </trkpt>
      <trkpt lat="47.426" lon="6.70101">
        <ele>417</ele>
        <time>2015-05-17T09:13:11.000Z</time>
      </trkpt>
      <trkpt lat="47.42603" lon="6.70104">
        <ele>418</ele>
        <time>2015-05-17T09:13:12.000Z</time>
      </trkpt>
      <trkpt lat="47.42606" lon="6.70107">
        <ele>418</ele>
        <time>2015-05-17T09:13:13.000Z</time>
      </trkpt>
      <trkpt lat="47.42608" lon="6.70111">
        <ele>418</ele>
        <time>2015-05-17T09:13:14.000Z</time>
      </trkpt>
      <trkpt lat="47.42611" lon="6.70114">
        <ele>418</ele>
        <time>2015-05-17T09:13:15.000Z</time>
      </trkpt>
      <trkpt lat="47.42613" lon="6.70117">
        <ele>418</ele>
        <time>2015-05-17T09:13:16.000Z</time>
      </trkpt>
      <trkpt lat="47.42616" lon="6.70119">
        <ele>418</ele>
        <time>2015-05-17T09:13:17.000Z</time>
      </trkpt>
      <trkpt lat="47.42618" lon="6.70121">
        <ele>418</ele>
        <time>2015-05-17T09:13:18.000Z</time>
      </trkpt>
      <trkpt lat="47.4262" lon="6.70123">
        <ele>418</ele>
        <time>2015-05-17T09:13:19.000Z</time>
      </trkpt>
      <trkpt lat="47.42623" lon="6.70124">
        <ele>418</ele>
        <time>2015-05-17T09:13:20.000Z</time>
      </trkpt>
      <trkpt lat="47.42625" lon="6.70126">
        <ele>418</ele>
        <time>2015-05-17T09:13:21.000Z</time>
      </trkpt>
      <trkpt lat="47.42628" lon="6.70128">
        <ele>419</ele>
        <time>2015-05-17T09:13:22.000Z</time>
      </trkpt>
      <trkpt lat="47.42631" lon="6.7013">
        <ele>419</ele>
        <time>2015-05-17T09:13:23.000Z</time>
      </trkpt>
      <trkpt lat="47.42633" lon="6.70133">
        <ele>419</ele>
        <time>2015-05-17T09:13:24.000Z</time>
      </trkpt>
      <trkpt lat="47.42635" lon="6.70137">
        <ele>419</ele>
        <time>2015-05-17T09:13:25.000Z</time>
      </trkpt>
      <trkpt lat="47.42636" lon="6.70141">
        <ele>418</ele>
        <time>2015-05-17T09:13:26.000Z</time>
      </trkpt>
      <trkpt lat="47.42638" lon="6.70145">
        <ele>418</ele>
        <time>2015-05-17T09:13:27.000Z</time>
      </trkpt>
      <trkpt lat="47.4264" lon="6.70147">
        <ele>419</ele>
        <time>2015-05-17T09:13:28.000Z</time>
      </trkpt>
      <trkpt lat="47.42642" lon="6.7015">
        <ele>419</ele>
        <time>2015-05-17T09:13:29.000Z</time>
      </trkpt>
      <trkpt lat="47.42645" lon="6.70152">
        <ele>419</ele>
        <time>2015-05-17T09:13:30.000Z</time>
      </trkpt>
      <trkpt lat="47.42648" lon="6.70155">
        <ele>419</ele>
        <time>2015-05-17T09:13:31.000Z</time>
      </trkpt>
      <trkpt lat="47.4265" lon="6.70158">
        <ele>419</ele>
        <time>2015-05-17T09:13:32.000Z</time>
      </trkpt>
      <trkpt lat="47.42651" lon="6.70162">
        <ele>419</ele>
        <time>2015-05-17T09:13:33.000Z</time>
      </trkpt>
      <trkpt lat="47.42653" lon="6.70165">
        <ele>420</ele>
        <time>2015-05-17T09:13:34.000Z</time>
      </trkpt>
      <trkpt lat="47.42654" lon="6.70168">
        <ele>416</ele>
        <time>2015-05-17T09:13:35.000Z</time>
      </trkpt>
      <trkpt lat="47.42656" lon="6.7017">
        <ele>416</ele>
        <time>2015-05-17T09:13:36.000Z</time>
      </trkpt>
      <trkpt lat="47.42657" lon="6.70173">
        <ele>416</ele>
        <time>2015-05-17T09:13:37.000Z</time>
      </trkpt>
      <trkpt lat="47.42659" lon="6.70175">
        <ele>416</ele>
        <time>2015-05-17T09:13:38.000Z</time>
      </trkpt>
      <trkpt lat="47.4266" lon="6.70178">
        <ele>416</ele>
        <time>2015-05-17T09:13:39.000Z</time>
      </trkpt>
      <trkpt lat="47.42662" lon="6.70181">
        <ele>415</ele>
        <time>2015-05-17T09:13:40.000Z</time>
      </trkpt>
      <trkpt lat="47.42664" lon="6.70184">
        <ele>415</ele>
        <time>2015-05-17T09:13:41.000Z</time>
      </trkpt>
      <trkpt lat="47.42666" lon="6.70186">
        <ele>414</ele>
        <time>2015-05-17T09:13:42.000Z</time>
      </trkpt>
      <trkpt lat="47.42668" lon="6.70189">
        <ele>422</ele>
        <time>2015-05-17T09:13:43.000Z</time>
      </trkpt>
      <trkpt lat="47.42671" lon="6.70191">
        <ele>422</ele>
        <time>2015-05-17T09:13:44.000Z</time>
      </trkpt>
      <trkpt lat="47.42674" lon="6.70194">
        <ele>422</ele>
        <time>2015-05-17T09:13:45.000Z</time>
      </trkpt>
      <trkpt lat="47.42677" lon="6.70196">
        <ele>422</ele>
        <time>2015-05-17T09:13:46.000Z</time>
      </trkpt>
      <trkpt lat="47.4268" lon="6.70199">
        <ele>422</ele>
        <time>2015-05-17T09:13:47.000Z</time>
      </trkpt>
      <trkpt lat="47.42683" lon="6.70203">
        <ele>422</ele>
        <time>2015-05-17T09:13:48.000Z</time>
      </trkpt>
      <trkpt lat="47.42686" lon="6.70207">
        <ele>422</ele>
        <time>2015-05-17T09:13:49.000Z</time>
      </trkpt>
      <trkpt lat="47.42688" lon="6.70211">
        <ele>422</ele>
        <time>2015-05-17T09:13:50.000Z</time>
      </trkpt>
      <trkpt lat="47.42691" lon="6.70214">
        <ele>422</ele>
        <time>2015-05-17T09:13:51.000Z</time>
      </trkpt>
      <trkpt lat="47.42695" lon="6.70217">
        <ele>422</ele>
        <time>2015-05-17T09:13:52.000Z</time>
      </trkpt>
      <trkpt lat="47.42698" lon="6.70218">
        <ele>422</ele>
        <time>2015-05-17T09:13:53.000Z</time>
      </trkpt>
      <trkpt lat="47.42701" lon="6.70219">
        <ele>422</ele>
        <time>2015-05-17T09:13:54.000Z</time>
      </trkpt>
      <trkpt lat="47.42705" lon="6.70221">
        <ele>423</ele>
        <time>2015-05-17T09:13:55.000Z</time>
      </trkpt>
      <trkpt lat="47.42709" lon="6.70222">
        <ele>423</ele>
        <time>2015-05-17T09:13:56.000Z</time>
      </trkpt>
      <trkpt lat="47.42713" lon="6.70224">
        <ele>423</ele>
        <time>2015-05-17T09:13:57.000Z</time>
      </trkpt>
      <trkpt lat="47.42716" lon="6.70225">
        <ele>424</ele>
        <time>2015-05-17T09:13:58.000Z</time>
      </trkpt>
      <trkpt lat="47.4272" lon="6.70228">
        <ele>424</ele>
        <time>2015-05-17T09:14:00.000Z</time>
      </trkpt>
      <trkpt lat="47.42722" lon="6.70229">
        <ele>424</ele>
        <time>2015-05-17T09:14:01.000Z</time>
      </trkpt>
      <trkpt lat="47.42724" lon="6.70231">
        <ele>424</ele>
        <time>2015-05-17T09:14:02.000Z</time>
      </trkpt>
      <trkpt lat="47.42727" lon="6.70232">
        <ele>425</ele>
        <time>2015-05-17T09:14:03.000Z</time>
      </trkpt>
      <trkpt lat="47.42729" lon="6.70234">
        <ele>425</ele>
        <time>2015-05-17T09:14:04.000Z</time>
      </trkpt>
      <trkpt lat="47.42731" lon="6.70236">
        <ele>425</ele>
        <time>2015-05-17T09:14:05.000Z</time>
      </trkpt>
      <trkpt lat="47.42734" lon="6.7024">
        <ele>425</ele>
        <time>2015-05-17T09:14:07.000Z</time>
      </trkpt>
      <trkpt lat="47.42735" lon="6.70242">
        <ele>425</ele>
        <time>2015-05-17T09:14:08.000Z</time>
      </trkpt>
      <trkpt lat="47.42737" lon="6.70244">
        <ele>425</ele>
        <time>2015-05-17T09:14:09.000Z</time>
      </trkpt>
      <trkpt lat="47.42739" lon="6.70246">
        <ele>426</ele>
        <time>2015-05-17T09:14:10.000Z</time>
      </trkpt>
      <trkpt lat="47.42741" lon="6.70249">
        <ele>426</ele>
        <time>2015-05-17T09:14:11.000Z</time>
      </trkpt>
      <trkpt lat="47.42744" lon="6.70253">
        <ele>424</ele>
        <time>2015-05-17T09:14:12.000Z</time>
      </trkpt>
      <trkpt lat="47.42747" lon="6.70256">
        <ele>424</ele>
        <time>2015-05-17T09:14:13.000Z</time>
      </trkpt>
      <trkpt lat="47.4275" lon="6.70259">
        <ele>424</ele>
        <time>2015-05-17T09:14:14.000Z</time>
      </trkpt>
      <trkpt lat="47.42752" lon="6.70262">
        <ele>428</ele>
        <time>2015-05-17T09:14:15.000Z</time>
      </trkpt>
      <trkpt lat="47.42754" lon="6.70265">
        <ele>429</ele>
        <time>2015-05-17T09:14:16.000Z</time>
      </trkpt>
      <trkpt lat="47.42756" lon="6.70269">
        <ele>429</ele>
        <time>2015-05-17T09:14:17.000Z</time>
      </trkpt>
      <trkpt lat="47.42758" lon="6.70272">
        <ele>429</ele>
        <time>2015-05-17T09:14:18.000Z</time>
      </trkpt>
      <trkpt lat="47.42759" lon="6.70275">
        <ele>429</ele>
        <time>2015-05-17T09:14:19.000Z</time>
      </trkpt>
      <trkpt lat="47.42762" lon="6.70278">
        <ele>429</ele>
        <time>2015-05-17T09:14:20.000Z</time>
      </trkpt>
      <trkpt lat="47.42764" lon="6.7028">
        <ele>429</ele>
        <time>2015-05-17T09:14:21.000Z</time>
      </trkpt>
      <trkpt lat="47.42767" lon="6.70282">
        <ele>429</ele>
        <time>2015-05-17T09:14:22.000Z</time>
      </trkpt>
      <trkpt lat="47.4277" lon="6.70283">
        <ele>430</ele>
        <time>2015-05-17T09:14:23.000Z</time>
      </trkpt>
      <trkpt lat="47.42774" lon="6.70284">
        <ele>430</ele>
        <time>2015-05-17T09:14:24.000Z</time>
      </trkpt>
      <trkpt lat="47.42777" lon="6.70286">
        <ele>430</ele>
        <time>2015-05-17T09:14:25.000Z</time>
      </trkpt>
      <trkpt lat="47.42779" lon="6.70287">
        <ele>430</ele>
        <time>2015-05-17T09:14:26.000Z</time>
      </trkpt>
      <trkpt lat="47.42782" lon="6.70288">
        <ele>430</ele>
        <time>2015-05-17T09:14:27.000Z</time>
      </trkpt>
      <trkpt lat="47.42784" lon="6.7029">
        <ele>430</ele>
        <time>2015-05-17T09:14:28.000Z</time>
      </trkpt>
      <trkpt lat="47.42787" lon="6.70292">
        <ele>430</ele>
        <time>2015-05-17T09:14:29.000Z</time>
      </trkpt>
      <trkpt lat="47.42789" lon="6.70295">
        <ele>431</ele>
        <time>2015-05-17T09:14:30.000Z</time>
      </trkpt>
      <trkpt lat="47.42791" lon="6.70298">
        <ele>431</ele>
        <time>2015-05-17T09:14:31.000Z</time>
      </trkpt>
      <trkpt lat="47.42793" lon="6.70302">
        <ele>431</ele>
        <time>2015-05-17T09:14:32.000Z</time>
      </trkpt>
      <trkpt lat="47.42795" lon="6.70306">
        <ele>431</ele>
        <time>2015-05-17T09:14:33.000Z</time>
      </trkpt>
      <trkpt lat="47.42798" lon="6.70309">
        <ele>431</ele>
        <time>2015-05-17T09:14:34.000Z</time>
      </trkpt>
      <trkpt lat="47.42799" lon="6.70312">
        <ele>431</ele>
        <time>2015-05-17T09:14:35.000Z</time>
      </trkpt>
      <trkpt lat="47.428" lon="6.70316">
        <ele>431</ele>
        <time>2015-05-17T09:14:36.000Z</time>
      </trkpt>
      <trkpt lat="47.42801" lon="6.70319">
        <ele>431</ele>
        <time>2015-05-17T09:14:37.000Z</time>
      </trkpt>
      <trkpt lat="47.42802" lon="6.70323">
        <ele>431</ele>
        <time>2015-05-17T09:14:38.000Z</time>
      </trkpt>
      <trkpt lat="47.42804" lon="6.70326">
        <ele>431</ele>
        <time>2015-05-17T09:14:39.000Z</time>
      </trkpt>
      <trkpt lat="47.42806" lon="6.7033">
        <ele>431</ele>
        <time>2015-05-17T09:14:40.000Z</time>
      </trkpt>
      <trkpt lat="47.42808" lon="6.70334">
        <ele>429</ele>
        <time>2015-05-17T09:14:41.000Z</time>
      </trkpt>
      <trkpt lat="47.42811" lon="6.70338">
        <ele>429</ele>
        <time>2015-05-17T09:14:42.000Z</time>
      </trkpt>
      <trkpt lat="47.42813" lon="6.70343">
        <ele>429</ele>
        <time>2015-05-17T09:14:43.000Z</time>
      </trkpt>
      <trkpt lat="47.42816" lon="6.70348">
        <ele>429</ele>
        <time>2015-05-17T09:14:44.000Z</time>
      </trkpt>
      <trkpt lat="47.42819" lon="6.70352">
        <ele>429</ele>
        <time>2015-05-17T09:14:45.000Z</time>
      </trkpt>
      <trkpt lat="47.42821" lon="6.70355">
        <ele>429</ele>
        <time>2015-05-17T09:14:46.000Z</time>
      </trkpt>
      <trkpt lat="47.42824" lon="6.70359">
        <ele>429</ele>
        <time>2015-05-17T09:14:47.000Z</time>
      </trkpt>
      <trkpt lat="47.42826" lon="6.70361">
        <ele>429</ele>
        <time>2015-05-17T09:14:48.000Z</time>
      </trkpt>
      <trkpt lat="47.42828" lon="6.70364">
        <ele>429</ele>
        <time>2015-05-17T09:14:49.000Z</time>
      </trkpt>
      <trkpt lat="47.4283" lon="6.70367">
        <ele>429</ele>
        <time>2015-05-17T09:14:50.000Z</time>
      </trkpt>
      <trkpt lat="47.42832" lon="6.70371">
        <ele>429</ele>
        <time>2015-05-17T09:14:51.000Z</time>
      </trkpt>
      <trkpt lat="47.42834" lon="6.70374">
        <ele>437</ele>
        <time>2015-05-17T09:14:52.000Z</time>
      </trkpt>
      <trkpt lat="47.42836" lon="6.70378">
        <ele>437</ele>
        <time>2015-05-17T09:14:53.000Z</time>
      </trkpt>
      <trkpt lat="47.42838" lon="6.70382">
        <ele>436</ele>
        <time>2015-05-17T09:14:54.000Z</time>
      </trkpt>
      <trkpt lat="47.4284" lon="6.70386">
        <ele>436</ele>
        <time>2015-05-17T09:14:55.000Z</time>
      </trkpt>
      <trkpt lat="47.42841" lon="6.7039">
        <ele>436</ele>
        <time>2015-05-17T09:14:56.000Z</time>
      </trkpt>
      <trkpt lat="47.42841" lon="6.70394">
        <ele>436</ele>
        <time>2015-05-17T09:14:57.000Z</time>
      </trkpt>
      <trkpt lat="47.4284" lon="6.70398">
        <ele>435</ele>
        <time>2015-05-17T09:14:58.000Z</time>
      </trkpt>
      <trkpt lat="47.4284" lon="6.70403">
        <ele>434</ele>
        <time>2015-05-17T09:14:59.000Z</time>
      </trkpt>
      <trkpt lat="47.42839" lon="6.70408">
        <ele>433</ele>
        <time>2015-05-17T09:15:00.000Z</time>
      </trkpt>
      <trkpt lat="47.42839" lon="6.70412">
        <ele>432</ele>
        <time>2015-05-17T09:15:01.000Z</time>
      </trkpt>
      <trkpt lat="47.42839" lon="6.70416">
        <ele>432</ele>
        <time>2015-05-17T09:15:02.000Z</time>
      </trkpt>
      <trkpt lat="47.42839" lon="6.7042">
        <ele>432</ele>
        <time>2015-05-17T09:15:03.000Z</time>
      </trkpt>
      <trkpt lat="47.42839" lon="6.70424">
        <ele>432</ele>
        <time>2015-05-17T09:15:04.000Z</time>
      </trkpt>
      <trkpt lat="47.42839" lon="6.7043">
        <ele>433</ele>
        <time>2015-05-17T09:15:06.000Z</time>
      </trkpt>
      <trkpt lat="47.4284" lon="6.70433">
        <ele>433</ele>
        <time>2015-05-17T09:15:07.000Z</time>
      </trkpt>
      <trkpt lat="47.42843" lon="6.70436">
        <ele>434</ele>
        <time>2015-05-17T09:15:08.000Z</time>
      </trkpt>
      <trkpt lat="47.42845" lon="6.7044">
        <ele>434</ele>
        <time>2015-05-17T09:15:09.000Z</time>
      </trkpt>
      <trkpt lat="47.42847" lon="6.70444">
        <ele>435</ele>
        <time>2015-05-17T09:15:10.000Z</time>
      </trkpt>
      <trkpt lat="47.42849" lon="6.70448">
        <ele>435</ele>
        <time>2015-05-17T09:15:11.000Z</time>
      </trkpt>
      <trkpt lat="47.42851" lon="6.70452">
        <ele>435</ele>
        <time>2015-05-17T09:15:12.000Z</time>
      </trkpt>
      <trkpt lat="47.42852" lon="6.70457">
        <ele>436</ele>
        <time>2015-05-17T09:15:13.000Z</time>
      </trkpt>
      <trkpt lat="47.42854" lon="6.70462">
        <ele>436</ele>
        <time>2015-05-17T09:15:15.000Z</time>
      </trkpt>
      <trkpt lat="47.42854" lon="6.70463">
        <ele>436</ele>
        <time>2015-05-17T09:15:16.000Z</time>
      </trkpt>
      <trkpt lat="47.42853" lon="6.70468">
        <ele>436</ele>
        <time>2015-05-17T09:15:19.000Z</time>
      </trkpt>
      <trkpt lat="47.42852" lon="6.7047">
        <ele>436</ele>
        <time>2015-05-17T09:15:20.000Z</time>
      </trkpt>
      <trkpt lat="47.4285" lon="6.70473">
        <ele>436</ele>
        <time>2015-05-17T09:15:22.000Z</time>
      </trkpt>
      <trkpt lat="47.42848" lon="6.70474">
        <ele>435</ele>
        <time>2015-05-17T09:15:23.000Z</time>
      </trkpt>
      <trkpt lat="47.42845" lon="6.70477">
        <ele>435</ele>
        <time>2015-05-17T09:15:25.000Z</time>
      </trkpt>
      <trkpt lat="47.42843" lon="6.7048">
        <ele>435</ele>
        <time>2015-05-17T09:15:26.000Z</time>
      </trkpt>
      <trkpt lat="47.42842" lon="6.70483">
        <ele>435</ele>
        <time>2015-05-17T09:15:27.000Z</time>
      </trkpt>
      <trkpt lat="47.42841" lon="6.70486">
        <ele>435</ele>
        <time>2015-05-17T09:15:28.000Z</time>
      </trkpt>
      <trkpt lat="47.42839" lon="6.70489">
        <ele>435</ele>
        <time>2015-05-17T09:15:29.000Z</time>
      </trkpt>
      <trkpt lat="47.42837" lon="6.70491">
        <ele>435</ele>
        <time>2015-05-17T09:15:30.000Z</time>
      </trkpt>
      <trkpt lat="47.42835" lon="6.70493">
        <ele>435</ele>
        <time>2015-05-17T09:15:31.000Z</time>
      </trkpt>
      <trkpt lat="47.42833" lon="6.70496">
        <ele>434</ele>
        <time>2015-05-17T09:15:32.000Z</time>
      </trkpt>
      <trkpt lat="47.42832" lon="6.70498">
        <ele>434</ele>
        <time>2015-05-17T09:15:33.000Z</time>
      </trkpt>
      <trkpt lat="47.4283" lon="6.705">
        <ele>434</ele>
        <time>2015-05-17T09:15:34.000Z</time>
      </trkpt>
      <trkpt lat="47.42829" lon="6.70503">
        <ele>434</ele>
        <time>2015-05-17T09:15:35.000Z</time>
      </trkpt>
      <trkpt lat="47.42827" lon="6.70505">
        <ele>435</ele>
        <time>2015-05-17T09:15:36.000Z</time>
      </trkpt>
      <trkpt lat="47.42825" lon="6.70508">
        <ele>435</ele>
        <time>2015-05-17T09:15:37.000Z</time>
      </trkpt>
      <trkpt lat="47.42824" lon="6.70511">
        <ele>435</ele>
        <time>2015-05-17T09:15:38.000Z</time>
      </trkpt>
      <trkpt lat="47.42822" lon="6.70515">
        <ele>435</ele>
        <time>2015-05-17T09:15:40.000Z</time>
      </trkpt>
      <trkpt lat="47.42821" lon="6.70516">
        <ele>435</ele>
        <time>2015-05-17T09:15:41.000Z</time>
      </trkpt>
      <trkpt lat="47.4282" lon="6.70522">
        <ele>436</ele>
        <time>2015-05-17T09:15:45.000Z</time>
      </trkpt>
      <trkpt lat="47.42819" lon="6.70523">
        <ele>436</ele>
        <time>2015-05-17T09:15:46.000Z</time>
      </trkpt>
      <trkpt lat="47.42818" lon="6.70528">
        <ele>436</ele>
        <time>2015-05-17T09:15:50.000Z</time>
      </trkpt>
      <trkpt lat="47.42819" lon="6.70531">
        <ele>436</ele>
        <time>2015-05-17T09:15:51.000Z</time>
      </trkpt>
      <trkpt lat="47.42821" lon="6.70533">
        <ele>436</ele>
        <time>2015-05-17T09:15:53.000Z</time>
      </trkpt>
      <trkpt lat="47.42823" lon="6.70534">
        <ele>436</ele>
        <time>2015-05-17T09:15:54.000Z</time>
      </trkpt>
      <trkpt lat="47.42825" lon="6.70537">
        <ele>436</ele>
        <time>2015-05-17T09:15:56.000Z</time>
      </trkpt>
      <trkpt lat="47.42826" lon="6.70539">
        <ele>436</ele>
        <time>2015-05-17T09:15:57.000Z</time>
      </trkpt>
      <trkpt lat="47.42829" lon="6.70542">
        <ele>436</ele>
        <time>2015-05-17T09:16:00.000Z</time>
      </trkpt>
      <trkpt lat="47.4283" lon="6.70543">
        <ele>437</ele>
        <time>2015-05-17T09:16:01.000Z</time>
      </trkpt>
      <trkpt lat="47.42832" lon="6.70549">
        <ele>437</ele>
        <time>2015-05-17T09:16:15.000Z</time>
      </trkpt>
      <trkpt lat="47.42833" lon="6.70551">
        <ele>437</ele>
        <time>2015-05-17T09:16:16.000Z</time>
      </trkpt>
      <trkpt lat="47.42834" lon="6.70556">
        <ele>437</ele>
        <time>2015-05-17T09:16:18.000Z</time>
      </trkpt>
      <trkpt lat="47.42835" lon="6.70558">
        <ele>437</ele>
        <time>2015-05-17T09:16:19.000Z</time>
      </trkpt>
      <trkpt lat="47.42836" lon="6.70563">
        <ele>437</ele>
        <time>2015-05-17T09:16:21.000Z</time>
      </trkpt>
      <trkpt lat="47.42837" lon="6.70565">
        <ele>437</ele>
        <time>2015-05-17T09:16:22.000Z</time>
      </trkpt>
      <trkpt lat="47.42838" lon="6.70569">
        <ele>437</ele>
        <time>2015-05-17T09:16:24.000Z</time>
      </trkpt>
      <trkpt lat="47.4284" lon="6.70571">
        <ele>437</ele>
        <time>2015-05-17T09:16:25.000Z</time>
      </trkpt>
      <trkpt lat="47.42842" lon="6.70576">
        <ele>438</ele>
        <time>2015-05-17T09:16:27.000Z</time>
      </trkpt>
      <trkpt lat="47.42844" lon="6.70579">
        <ele>438</ele>
        <time>2015-05-17T09:16:28.000Z</time>
      </trkpt>
      <trkpt lat="47.42846" lon="6.70584">
        <ele>438</ele>
        <time>2015-05-17T09:16:30.000Z</time>
      </trkpt>
      <trkpt lat="47.42848" lon="6.70585">
        <ele>439</ele>
        <time>2015-05-17T09:16:31.000Z</time>
      </trkpt>
      <trkpt lat="47.4285" lon="6.70589">
        <ele>439</ele>
        <time>2015-05-17T09:16:33.000Z</time>
      </trkpt>
      <trkpt lat="47.42851" lon="6.70591">
        <ele>439</ele>
        <time>2015-05-17T09:16:34.000Z</time>
      </trkpt>
      <trkpt lat="47.42852" lon="6.70596">
        <ele>439</ele>
        <time>2015-05-17T09:16:36.000Z</time>
      </trkpt>
      <trkpt lat="47.42853" lon="6.70599">
        <ele>439</ele>
        <time>2015-05-17T09:16:37.000Z</time>
      </trkpt>
      <trkpt lat="47.42854" lon="6.70602">
        <ele>439</ele>
        <time>2015-05-17T09:16:38.000Z</time>
      </trkpt>
      <trkpt lat="47.42855" lon="6.70605">
        <ele>439</ele>
        <time>2015-05-17T09:16:39.000Z</time>
      </trkpt>
      <trkpt lat="47.42856" lon="6.70608">
        <ele>439</ele>
        <time>2015-05-17T09:16:40.000Z</time>
      </trkpt>
      <trkpt lat="47.42857" lon="6.7061">
        <ele>439</ele>
        <time>2015-05-17T09:16:41.000Z</time>
      </trkpt>
      <trkpt lat="47.42859" lon="6.70613">
        <ele>439</ele>
        <time>2015-05-17T09:16:42.000Z</time>
      </trkpt>
      <trkpt lat="47.4286" lon="6.70617">
        <ele>439</ele>
        <time>2015-05-17T09:16:43.000Z</time>
      </trkpt>
      <trkpt lat="47.42862" lon="6.7062">
        <ele>439</ele>
        <time>2015-05-17T09:16:44.000Z</time>
      </trkpt>
      <trkpt lat="47.42863" lon="6.70622">
        <ele>439</ele>
        <time>2015-05-17T09:16:45.000Z</time>
      </trkpt>
      <trkpt lat="47.42865" lon="6.70625">
        <ele>439</ele>
        <time>2015-05-17T09:16:46.001Z</time>
      </trkpt>
      <trkpt lat="47.42866" lon="6.70628">
        <ele>439</ele>
        <time>2015-05-17T09:16:47.001Z</time>
      </trkpt>
      <trkpt lat="47.42868" lon="6.70631">
        <ele>439</ele>
        <time>2015-05-17T09:16:48.000Z</time>
      </trkpt>
      <trkpt lat="47.42869" lon="6.70634">
        <ele>439</ele>
        <time>2015-05-17T09:16:49.000Z</time>
      </trkpt>
      <trkpt lat="47.42871" lon="6.70638">
        <ele>439</ele>
        <time>2015-05-17T09:16:50.000Z</time>
      </trkpt>
      <trkpt lat="47.42872" lon="6.70641">
        <ele>440</ele>
        <time>2015-05-17T09:16:51.000Z</time>
      </trkpt>
      <trkpt lat="47.42874" lon="6.70645">
        <ele>440</ele>
        <time>2015-05-17T09:16:52.000Z</time>
      </trkpt>
      <trkpt lat="47.42875" lon="6.70648">
        <ele>440</ele>
        <time>2015-05-17T09:16:53.000Z</time>
      </trkpt>
      <trkpt lat="47.42877" lon="6.70652">
        <ele>440</ele>
        <time>2015-05-17T09:16:54.000Z</time>
      </trkpt>
      <trkpt lat="47.42878" lon="6.70656">
        <ele>440</ele>
        <time>2015-05-17T09:16:55.000Z</time>
      </trkpt>
      <trkpt lat="47.4288" lon="6.7066">
        <ele>440</ele>
        <time>2015-05-17T09:16:56.000Z</time>
      </trkpt>
      <trkpt lat="47.42881" lon="6.70663">
        <ele>440</ele>
        <time>2015-05-17T09:16:57.000Z</time>
      </trkpt>
      <trkpt lat="47.42883" lon="6.70666">
        <ele>440</ele>
        <time>2015-05-17T09:16:58.000Z</time>
      </trkpt>
      <trkpt lat="47.42884" lon="6.7067">
        <ele>442</ele>
        <time>2015-05-17T09:16:59.000Z</time>
      </trkpt>
      <trkpt lat="47.42886" lon="6.70673">
        <ele>442</ele>
        <time>2015-05-17T09:17:00.000Z</time>
      </trkpt>
      <trkpt lat="47.42887" lon="6.70677">
        <ele>442</ele>
        <time>2015-05-17T09:17:01.000Z</time>
      </trkpt>
      <trkpt lat="47.42888" lon="6.70681">
        <ele>442</ele>
        <time>2015-05-17T09:17:02.000Z</time>
      </trkpt>
      <trkpt lat="47.42888" lon="6.70685">
        <ele>442</ele>
        <time>2015-05-17T09:17:03.000Z</time>
      </trkpt>
      <trkpt lat="47.42889" lon="6.70689">
        <ele>442</ele>
        <time>2015-05-17T09:17:04.000Z</time>
      </trkpt>
      <trkpt lat="47.42891" lon="6.70692">
        <ele>442</ele>
        <time>2015-05-17T09:17:05.000Z</time>
      </trkpt>
      <trkpt lat="47.42892" lon="6.70696">
        <ele>442</ele>
        <time>2015-05-17T09:17:06.000Z</time>
      </trkpt>
      <trkpt lat="47.42893" lon="6.70699">
        <ele>442</ele>
        <time>2015-05-17T09:17:06.998Z</time>
      </trkpt>
      <trkpt lat="47.42895" lon="6.70702">
        <ele>442</ele>
        <time>2015-05-17T09:17:08.000Z</time>
      </trkpt>
      <trkpt lat="47.42896" lon="6.70705">
        <ele>442</ele>
        <time>2015-05-17T09:17:09.000Z</time>
      </trkpt>
      <trkpt lat="47.42898" lon="6.70709">
        <ele>443</ele>
        <time>2015-05-17T09:17:10.000Z</time>
      </trkpt>
      <trkpt lat="47.42899" lon="6.70712">
        <ele>443</ele>
        <time>2015-05-17T09:17:11.000Z</time>
      </trkpt>
      <trkpt lat="47.42901" lon="6.70715">
        <ele>443</ele>
        <time>2015-05-17T09:17:12.000Z</time>
      </trkpt>
      <trkpt lat="47.42902" lon="6.70719">
        <ele>443</ele>
        <time>2015-05-17T09:17:13.000Z</time>
      </trkpt>
      <trkpt lat="47.42904" lon="6.70722">
        <ele>443</ele>
        <time>2015-05-17T09:17:14.000Z</time>
      </trkpt>
      <trkpt lat="47.42906" lon="6.70725">
        <ele>443</ele>
        <time>2015-05-17T09:17:15.000Z</time>
      </trkpt>
      <trkpt lat="47.42908" lon="6.70728">
        <ele>443</ele>
        <time>2015-05-17T09:17:16.000Z</time>
      </trkpt>
      <trkpt lat="47.4291" lon="6.70731">
        <ele>443</ele>
        <time>2015-05-17T09:17:17.000Z</time>
      </trkpt>
      <trkpt lat="47.42912" lon="6.70735">
        <ele>443</ele>
        <time>2015-05-17T09:17:18.000Z</time>
      </trkpt>
      <trkpt lat="47.42914" lon="6.70738">
        <ele>444</ele>
        <time>2015-05-17T09:17:19.000Z</time>
      </trkpt>
      <trkpt lat="47.42916" lon="6.70742">
        <ele>444</ele>
        <time>2015-05-17T09:17:20.000Z</time>
      </trkpt>
      <trkpt lat="47.42918" lon="6.70747">
        <ele>444</ele>
        <time>2015-05-17T09:17:21.000Z</time>
      </trkpt>
      <trkpt lat="47.4292" lon="6.70751">
        <ele>444</ele>
        <time>2015-05-17T09:17:22.000Z</time>
      </trkpt>
      <trkpt lat="47.42923" lon="6.70755">
        <ele>444</ele>
        <time>2015-05-17T09:17:23.000Z</time>
      </trkpt>
      <trkpt lat="47.42925" lon="6.7076">
        <ele>444</ele>
        <time>2015-05-17T09:17:24.000Z</time>
      </trkpt>
      <trkpt lat="47.42927" lon="6.70764">
        <ele>445</ele>
        <time>2015-05-17T09:17:25.000Z</time>
      </trkpt>
      <trkpt lat="47.42929" lon="6.70768">
        <ele>445</ele>
        <time>2015-05-17T09:17:26.000Z</time>
      </trkpt>
      <trkpt lat="47.42932" lon="6.70772">
        <ele>445</ele>
        <time>2015-05-17T09:17:27.000Z</time>
      </trkpt>
      <trkpt lat="47.42933" lon="6.70776">
        <ele>445</ele>
        <time>2015-05-17T09:17:28.000Z</time>
      </trkpt>
      <trkpt lat="47.42935" lon="6.70781">
        <ele>445</ele>
        <time>2015-05-17T09:17:29.000Z</time>
      </trkpt>
      <trkpt lat="47.42936" lon="6.70786">
        <ele>445</ele>
        <time>2015-05-17T09:17:30.000Z</time>
      </trkpt>
      <trkpt lat="47.42938" lon="6.70791">
        <ele>445</ele>
        <time>2015-05-17T09:17:31.000Z</time>
      </trkpt>
      <trkpt lat="47.42939" lon="6.70796">
        <ele>445</ele>
        <time>2015-05-17T09:17:32.000Z</time>
      </trkpt>
      <trkpt lat="47.42941" lon="6.70801">
        <ele>445</ele>
        <time>2015-05-17T09:17:33.000Z</time>
      </trkpt>
      <trkpt lat="47.42942" lon="6.70805">
        <ele>445</ele>
        <time>2015-05-17T09:17:34.000Z</time>
      </trkpt>
      <trkpt lat="47.42944" lon="6.70809">
        <ele>445</ele>
        <time>2015-05-17T09:17:35.000Z</time>
      </trkpt>
      <trkpt lat="47.42946" lon="6.70813">
        <ele>445</ele>
        <time>2015-05-17T09:17:36.000Z</time>
      </trkpt>
      <trkpt lat="47.42947" lon="6.70818">
        <ele>445</ele>
        <time>2015-05-17T09:17:37.000Z</time>
      </trkpt>
      <trkpt lat="47.42949" lon="6.70823">
        <ele>445</ele>
        <time>2015-05-17T09:17:38.000Z</time>
      </trkpt>
      <trkpt lat="47.4295" lon="6.70828">
        <ele>445</ele>
        <time>2015-05-17T09:17:39.000Z</time>
      </trkpt>
      <trkpt lat="47.42952" lon="6.70833">
        <ele>445</ele>
        <time>2015-05-17T09:17:40.000Z</time>
      </trkpt>
      <trkpt lat="47.42953" lon="6.70839">
        <ele>446</ele>
        <time>2015-05-17T09:17:41.000Z</time>
      </trkpt>
      <trkpt lat="47.42954" lon="6.70845">
        <ele>446</ele>
        <time>2015-05-17T09:17:42.000Z</time>
      </trkpt>
      <trkpt lat="47.42955" lon="6.7085">
        <ele>446</ele>
        <time>2015-05-17T09:17:43.000Z</time>
      </trkpt>
      <trkpt lat="47.42956" lon="6.70855">
        <ele>446</ele>
        <time>2015-05-17T09:17:44.000Z</time>
      </trkpt>
      <trkpt lat="47.42957" lon="6.7086">
        <ele>446</ele>
        <time>2015-05-17T09:17:45.000Z</time>
      </trkpt>
      <trkpt lat="47.42958" lon="6.70866">
        <ele>446</ele>
        <time>2015-05-17T09:17:46.000Z</time>
      </trkpt>
      <trkpt lat="47.42958" lon="6.70871">
        <ele>446</ele>
        <time>2015-05-17T09:17:47.000Z</time>
      </trkpt>
      <trkpt lat="47.42959" lon="6.70877">
        <ele>446</ele>
        <time>2015-05-17T09:17:48.000Z</time>
      </trkpt>
      <trkpt lat="47.42962" lon="6.70884">
        <ele>446</ele>
        <time>2015-05-17T09:17:49.000Z</time>
      </trkpt>
      <trkpt lat="47.42964" lon="6.7089">
        <ele>446</ele>
        <time>2015-05-17T09:17:50.000Z</time>
      </trkpt>
      <trkpt lat="47.42965" lon="6.70897">
        <ele>446</ele>
        <time>2015-05-17T09:17:51.000Z</time>
      </trkpt>
      <trkpt lat="47.42967" lon="6.70903">
        <ele>446</ele>
        <time>2015-05-17T09:17:52.000Z</time>
      </trkpt>
      <trkpt lat="47.42968" lon="6.70909">
        <ele>446</ele>
        <time>2015-05-17T09:17:53.000Z</time>
      </trkpt>
      <trkpt lat="47.4297" lon="6.70916">
        <ele>446</ele>
        <time>2015-05-17T09:17:54.000Z</time>
      </trkpt>
      <trkpt lat="47.42972" lon="6.70922">
        <ele>446</ele>
        <time>2015-05-17T09:17:55.000Z</time>
      </trkpt>
      <trkpt lat="47.42974" lon="6.70929">
        <ele>446</ele>
        <time>2015-05-17T09:17:56.000Z</time>
      </trkpt>
      <trkpt lat="47.42976" lon="6.70935">
        <ele>446</ele>
        <time>2015-05-17T09:17:57.000Z</time>
      </trkpt>
      <trkpt lat="47.42978" lon="6.70943">
        <ele>446</ele>
        <time>2015-05-17T09:17:58.000Z</time>
      </trkpt>
      <trkpt lat="47.42981" lon="6.7095">
        <ele>446</ele>
        <time>2015-05-17T09:17:59.000Z</time>
      </trkpt>
      <trkpt lat="47.42983" lon="6.70958">
        <ele>446</ele>
        <time>2015-05-17T09:18:00.000Z</time>
      </trkpt>
      <trkpt lat="47.42986" lon="6.70967">
        <ele>445</ele>
        <time>2015-05-17T09:18:01.000Z</time>
      </trkpt>
      <trkpt lat="47.42989" lon="6.70976">
        <ele>445</ele>
        <time>2015-05-17T09:18:02.000Z</time>
      </trkpt>
      <trkpt lat="47.42992" lon="6.70984">
        <ele>445</ele>
        <time>2015-05-17T09:18:03.000Z</time>
      </trkpt>
      <trkpt lat="47.42994" lon="6.70991">
        <ele>444</ele>
        <time>2015-05-17T09:18:04.000Z</time>
      </trkpt>
      <trkpt lat="47.42997" lon="6.71">
        <ele>443</ele>
        <time>2015-05-17T09:18:05.000Z</time>
      </trkpt>
      <trkpt lat="47.43" lon="6.71006">
        <ele>443</ele>
        <time>2015-05-17T09:18:06.000Z</time>
      </trkpt>
      <trkpt lat="47.43003" lon="6.71013">
        <ele>443</ele>
        <time>2015-05-17T09:18:07.000Z</time>
      </trkpt>
      <trkpt lat="47.43006" lon="6.71021">
        <ele>443</ele>
        <time>2015-05-17T09:18:08.000Z</time>
      </trkpt>
      <trkpt lat="47.43008" lon="6.71028">
        <ele>443</ele>
        <time>2015-05-17T09:18:09.000Z</time>
      </trkpt>
      <trkpt lat="47.4301" lon="6.71035">
        <ele>443</ele>
        <time>2015-05-17T09:18:10.000Z</time>
      </trkpt>
      <trkpt lat="47.43013" lon="6.71043">
        <ele>442</ele>
        <time>2015-05-17T09:18:11.000Z</time>
      </trkpt>
      <trkpt lat="47.43015" lon="6.7105">
        <ele>442</ele>
        <time>2015-05-17T09:18:12.000Z</time>
      </trkpt>
      <trkpt lat="47.43017" lon="6.71058">
        <ele>442</ele>
        <time>2015-05-17T09:18:13.000Z</time>
      </trkpt>
      <trkpt lat="47.4302" lon="6.71064">
        <ele>442</ele>
        <time>2015-05-17T09:18:14.000Z</time>
      </trkpt>
      <trkpt lat="47.43023" lon="6.71071">
        <ele>442</ele>
        <time>2015-05-17T09:18:15.000Z</time>
      </trkpt>
      <trkpt lat="47.43026" lon="6.71079">
        <ele>442</ele>
        <time>2015-05-17T09:18:16.000Z</time>
      </trkpt>
      <trkpt lat="47.43029" lon="6.71085">
        <ele>443</ele>
        <time>2015-05-17T09:18:17.000Z</time>
      </trkpt>
      <trkpt lat="47.43031" lon="6.71092">
        <ele>443</ele>
        <time>2015-05-17T09:18:18.000Z</time>
      </trkpt>
      <trkpt lat="47.43034" lon="6.71098">
        <ele>444</ele>
        <time>2015-05-17T09:18:19.000Z</time>
      </trkpt>
      <trkpt lat="47.43038" lon="6.71105">
        <ele>444</ele>
        <time>2015-05-17T09:18:20.000Z</time>
      </trkpt>
      <trkpt lat="47.43042" lon="6.71111">
        <ele>444</ele>
        <time>2015-05-17T09:18:21.000Z</time>
      </trkpt>
      <trkpt lat="47.43046" lon="6.71117">
        <ele>444</ele>
        <time>2015-05-17T09:18:22.000Z</time>
      </trkpt>
      <trkpt lat="47.4305" lon="6.71122">
        <ele>444</ele>
        <time>2015-05-17T09:18:23.000Z</time>
      </trkpt>
      <trkpt lat="47.43055" lon="6.71125">
        <ele>444</ele>
        <time>2015-05-17T09:18:24.000Z</time>
      </trkpt>
      <trkpt lat="47.43058" lon="6.71131">
        <ele>444</ele>
        <time>2015-05-17T09:18:25.000Z</time>
      </trkpt>
      <trkpt lat="47.43062" lon="6.71136">
        <ele>445</ele>
        <time>2015-05-17T09:18:26.000Z</time>
      </trkpt>
      <trkpt lat="47.43066" lon="6.71141">
        <ele>445</ele>
        <time>2015-05-17T09:18:27.000Z</time>
      </trkpt>
      <trkpt lat="47.43069" lon="6.71145">
        <ele>445</ele>
        <time>2015-05-17T09:18:28.000Z</time>
      </trkpt>
      <trkpt lat="47.43072" lon="6.71149">
        <ele>445</ele>
        <time>2015-05-17T09:18:29.000Z</time>
      </trkpt>
      <trkpt lat="47.43076" lon="6.71153">
        <ele>446</ele>
        <time>2015-05-17T09:18:30.000Z</time>
      </trkpt>
      <trkpt lat="47.43078" lon="6.71159">
        <ele>446</ele>
        <time>2015-05-17T09:18:31.000Z</time>
      </trkpt>
      <trkpt lat="47.43081" lon="6.71164">
        <ele>447</ele>
        <time>2015-05-17T09:18:32.000Z</time>
      </trkpt>
      <trkpt lat="47.43084" lon="6.71169">
        <ele>447</ele>
        <time>2015-05-17T09:18:33.000Z</time>
      </trkpt>
      <trkpt lat="47.43088" lon="6.71173">
        <ele>447</ele>
        <time>2015-05-17T09:18:34.000Z</time>
      </trkpt>
      <trkpt lat="47.4309" lon="6.71178">
        <ele>447</ele>
        <time>2015-05-17T09:18:35.000Z</time>
      </trkpt>
      <trkpt lat="47.43093" lon="6.71183">
        <ele>448</ele>
        <time>2015-05-17T09:18:36.000Z</time>
      </trkpt>
      <trkpt lat="47.43099" lon="6.71192">
        <ele>448</ele>
        <time>2015-05-17T09:18:38.000Z</time>
      </trkpt>
      <trkpt lat="47.43102" lon="6.71196">
        <ele>448</ele>
        <time>2015-05-17T09:18:39.000Z</time>
      </trkpt>
      <trkpt lat="47.43105" lon="6.71199">
        <ele>448</ele>
        <time>2015-05-17T09:18:40.000Z</time>
      </trkpt>
      <trkpt lat="47.43109" lon="6.71201">
        <ele>448</ele>
        <time>2015-05-17T09:18:41.000Z</time>
      </trkpt>
      <trkpt lat="47.43112" lon="6.71204">
        <ele>448</ele>
        <time>2015-05-17T09:18:42.000Z</time>
      </trkpt>
      <trkpt lat="47.43114" lon="6.71208">
        <ele>448</ele>
        <time>2015-05-17T09:18:43.000Z</time>
      </trkpt>
      <trkpt lat="47.43117" lon="6.71211">
        <ele>448</ele>
        <time>2015-05-17T09:18:44.000Z</time>
      </trkpt>
      <trkpt lat="47.43119" lon="6.71215">
        <ele>448</ele>
        <time>2015-05-17T09:18:45.000Z</time>
      </trkpt>
      <trkpt lat="47.43122" lon="6.71219">
        <ele>448</ele>
        <time>2015-05-17T09:18:46.000Z</time>
      </trkpt>
      <trkpt lat="47.43124" lon="6.71223">
        <ele>448</ele>
        <time>2015-05-17T09:18:47.000Z</time>
      </trkpt>
      <trkpt lat="47.43127" lon="6.71226">
        <ele>448</ele>
        <time>2015-05-17T09:18:48.000Z</time>
      </trkpt>
      <trkpt lat="47.4313" lon="6.71229">
        <ele>448</ele>
        <time>2015-05-17T09:18:49.000Z</time>
      </trkpt>
      <trkpt lat="47.43129" lon="6.71235">
        <ele>449</ele>
        <time>2015-05-17T09:18:50.000Z</time>
      </trkpt>
      <trkpt lat="47.43132" lon="6.71238">
        <ele>449</ele>
        <time>2015-05-17T09:18:51.000Z</time>
      </trkpt>
      <trkpt lat="47.43135" lon="6.71242">
        <ele>449</ele>
        <time>2015-05-17T09:18:52.000Z</time>
      </trkpt>
      <trkpt lat="47.43137" lon="6.71246">
        <ele>449</ele>
        <time>2015-05-17T09:18:53.000Z</time>
      </trkpt>
      <trkpt lat="47.4314" lon="6.7125">
        <ele>451</ele>
        <time>2015-05-17T09:18:54.000Z</time>
      </trkpt>
      <trkpt lat="47.43143" lon="6.71255">
        <ele>451</ele>
        <time>2015-05-17T09:18:55.000Z</time>
      </trkpt>
      <trkpt lat="47.43145" lon="6.71259">
        <ele>451</ele>
        <time>2015-05-17T09:18:56.000Z</time>
      </trkpt>
      <trkpt lat="47.43148" lon="6.71263">
        <ele>451</ele>
        <time>2015-05-17T09:18:57.000Z</time>
      </trkpt>
      <trkpt lat="47.43151" lon="6.71267">
        <ele>451</ele>
        <time>2015-05-17T09:18:58.000Z</time>
      </trkpt>
      <trkpt lat="47.43154" lon="6.71272">
        <ele>451</ele>
        <time>2015-05-17T09:18:59.000Z</time>
      </trkpt>
      <trkpt lat="47.43157" lon="6.71276">
        <ele>451</ele>
        <time>2015-05-17T09:19:00.000Z</time>
      </trkpt>
      <trkpt lat="47.4316" lon="6.71281">
        <ele>451</ele>
        <time>2015-05-17T09:19:01.000Z</time>
      </trkpt>
      <trkpt lat="47.43162" lon="6.71288">
        <ele>452</ele>
        <time>2015-05-17T09:19:02.000Z</time>
      </trkpt>
      <trkpt lat="47.43165" lon="6.71292">
        <ele>452</ele>
        <time>2015-05-17T09:19:03.000Z</time>
      </trkpt>
      <trkpt lat="47.43169" lon="6.71296">
        <ele>451</ele>
        <time>2015-05-17T09:19:04.000Z</time>
      </trkpt>
      <trkpt lat="47.43171" lon="6.71301">
        <ele>451</ele>
        <time>2015-05-17T09:19:05.000Z</time>
      </trkpt>
      <trkpt lat="47.43174" lon="6.71306">
        <ele>451</ele>
        <time>2015-05-17T09:19:06.000Z</time>
      </trkpt>
      <trkpt lat="47.43177" lon="6.71311">
        <ele>452</ele>
        <time>2015-05-17T09:19:07.000Z</time>
      </trkpt>
      <trkpt lat="47.43179" lon="6.71316">
        <ele>452</ele>
        <time>2015-05-17T09:19:08.000Z</time>
      </trkpt>
      <trkpt lat="47.43182" lon="6.71321">
        <ele>452</ele>
        <time>2015-05-17T09:19:09.000Z</time>
      </trkpt>
      <trkpt lat="47.43186" lon="6.71325">
        <ele>452</ele>
        <time>2015-05-17T09:19:10.000Z</time>
      </trkpt>
      <trkpt lat="47.43188" lon="6.7133">
        <ele>452</ele>
        <time>2015-05-17T09:19:11.000Z</time>
      </trkpt>
      <trkpt lat="47.43191" lon="6.71335">
        <ele>454</ele>
        <time>2015-05-17T09:19:12.000Z</time>
      </trkpt>
      <trkpt lat="47.43193" lon="6.71339">
        <ele>454</ele>
        <time>2015-05-17T09:19:13.000Z</time>
      </trkpt>
      <trkpt lat="47.43196" lon="6.71344">
        <ele>454</ele>
        <time>2015-05-17T09:19:14.000Z</time>
      </trkpt>
      <trkpt lat="47.43199" lon="6.71348">
        <ele>454</ele>
        <time>2015-05-17T09:19:15.000Z</time>
      </trkpt>
      <trkpt lat="47.43201" lon="6.71353">
        <ele>454</ele>
        <time>2015-05-17T09:19:16.000Z</time>
      </trkpt>
      <trkpt lat="47.43204" lon="6.71358">
        <ele>454</ele>
        <time>2015-05-17T09:19:17.000Z</time>
      </trkpt>
      <trkpt lat="47.43206" lon="6.71366">
        <ele>454</ele>
        <time>2015-05-17T09:19:18.000Z</time>
      </trkpt>
      <trkpt lat="47.43208" lon="6.71371">
        <ele>454</ele>
        <time>2015-05-17T09:19:19.000Z</time>
      </trkpt>
      <trkpt lat="47.43211" lon="6.71377">
        <ele>454</ele>
        <time>2015-05-17T09:19:20.000Z</time>
      </trkpt>
      <trkpt lat="47.43213" lon="6.71383">
        <ele>454</ele>
        <time>2015-05-17T09:19:21.000Z</time>
      </trkpt>
      <trkpt lat="47.43215" lon="6.71389">
        <ele>454</ele>
        <time>2015-05-17T09:19:22.000Z</time>
      </trkpt>
      <trkpt lat="47.43217" lon="6.71395">
        <ele>454</ele>
        <time>2015-05-17T09:19:23.000Z</time>
      </trkpt>
      <trkpt lat="47.4322" lon="6.714">
        <ele>454</ele>
        <time>2015-05-17T09:19:24.000Z</time>
      </trkpt>
      <trkpt lat="47.43223" lon="6.71404">
        <ele>454</ele>
        <time>2015-05-17T09:19:25.000Z</time>
      </trkpt>
      <trkpt lat="47.43226" lon="6.71409">
        <ele>454</ele>
        <time>2015-05-17T09:19:26.000Z</time>
      </trkpt>
      <trkpt lat="47.43229" lon="6.71413">
        <ele>454</ele>
        <time>2015-05-17T09:19:27.000Z</time>
      </trkpt>
      <trkpt lat="47.43231" lon="6.71418">
        <ele>454</ele>
        <time>2015-05-17T09:19:28.000Z</time>
      </trkpt>
      <trkpt lat="47.43234" lon="6.71422">
        <ele>454</ele>
        <time>2015-05-17T09:19:29.000Z</time>
      </trkpt>
      <trkpt lat="47.43236" lon="6.71428">
        <ele>454</ele>
        <time>2015-05-17T09:19:30.000Z</time>
      </trkpt>
      <trkpt lat="47.43238" lon="6.71433">
        <ele>454</ele>
        <time>2015-05-17T09:19:31.000Z</time>
      </trkpt>
      <trkpt lat="47.4324" lon="6.71438">
        <ele>454</ele>
        <time>2015-05-17T09:19:32.000Z</time>
      </trkpt>
      <trkpt lat="47.43242" lon="6.71443">
        <ele>454</ele>
        <time>2015-05-17T09:19:33.000Z</time>
      </trkpt>
      <trkpt lat="47.43244" lon="6.71449">
        <ele>455</ele>
        <time>2015-05-17T09:19:34.000Z</time>
      </trkpt>
      <trkpt lat="47.43246" lon="6.71455">
        <ele>455</ele>
        <time>2015-05-17T09:19:35.000Z</time>
      </trkpt>
      <trkpt lat="47.43249" lon="6.71461">
        <ele>455</ele>
        <time>2015-05-17T09:19:36.000Z</time>
      </trkpt>
      <trkpt lat="47.43252" lon="6.71465">
        <ele>453</ele>
        <time>2015-05-17T09:19:37.000Z</time>
      </trkpt>
      <trkpt lat="47.43256" lon="6.71471">
        <ele>453</ele>
        <time>2015-05-17T09:19:38.000Z</time>
      </trkpt>
      <trkpt lat="47.4326" lon="6.71476">
        <ele>453</ele>
        <time>2015-05-17T09:19:39.000Z</time>
      </trkpt>
      <trkpt lat="47.43265" lon="6.71482">
        <ele>453</ele>
        <time>2015-05-17T09:19:40.000Z</time>
      </trkpt>
      <trkpt lat="47.43269" lon="6.71488">
        <ele>453</ele>
        <time>2015-05-17T09:19:41.000Z</time>
      </trkpt>
      <trkpt lat="47.43274" lon="6.71497">
        <ele>453</ele>
        <time>2015-05-17T09:19:42.000Z</time>
      </trkpt>
      <trkpt lat="47.43278" lon="6.71505">
        <ele>453</ele>
        <time>2015-05-17T09:19:43.000Z</time>
      </trkpt>
      <trkpt lat="47.43285" lon="6.71511">
        <ele>453</ele>
        <time>2015-05-17T09:19:44.000Z</time>
      </trkpt>
      <trkpt lat="47.43291" lon="6.71518">
        <ele>453</ele>
        <time>2015-05-17T09:19:45.000Z</time>
      </trkpt>
      <trkpt lat="47.43297" lon="6.71526">
        <ele>452</ele>
        <time>2015-05-17T09:19:46.000Z</time>
      </trkpt>
      <trkpt lat="47.43304" lon="6.71532">
        <ele>452</ele>
        <time>2015-05-17T09:19:47.000Z</time>
      </trkpt>
      <trkpt lat="47.43309" lon="6.7154">
        <ele>452</ele>
        <time>2015-05-17T09:19:48.000Z</time>
      </trkpt>
      <trkpt lat="47.43315" lon="6.71548">
        <ele>452</ele>
        <time>2015-05-17T09:19:49.000Z</time>
      </trkpt>
      <trkpt lat="47.43321" lon="6.71557">
        <ele>451</ele>
        <time>2015-05-17T09:19:50.000Z</time>
      </trkpt>
      <trkpt lat="47.43327" lon="6.71565">
        <ele>451</ele>
        <time>2015-05-17T09:19:51.000Z</time>
      </trkpt>
      <trkpt lat="47.43333" lon="6.71573">
        <ele>450</ele>
        <time>2015-05-17T09:19:52.000Z</time>
      </trkpt>
      <trkpt lat="47.43339" lon="6.71581">
        <ele>448</ele>
        <time>2015-05-17T09:19:53.000Z</time>
      </trkpt>
      <trkpt lat="47.43345" lon="6.7159">
        <ele>447</ele>
        <time>2015-05-17T09:19:54.000Z</time>
      </trkpt>
      <trkpt lat="47.43351" lon="6.716">
        <ele>447</ele>
        <time>2015-05-17T09:19:55.000Z</time>
      </trkpt>
      <trkpt lat="47.43357" lon="6.71608">
        <ele>447</ele>
        <time>2015-05-17T09:19:56.000Z</time>
      </trkpt>
      <trkpt lat="47.43362" lon="6.71617">
        <ele>447</ele>
        <time>2015-05-17T09:19:57.000Z</time>
      </trkpt>
      <trkpt lat="47.43367" lon="6.71626">
        <ele>447</ele>
        <time>2015-05-17T09:19:58.000Z</time>
      </trkpt>
      <trkpt lat="47.43373" lon="6.71635">
        <ele>447</ele>
        <time>2015-05-17T09:19:59.000Z</time>
      </trkpt>
      <trkpt lat="47.43378" lon="6.71644">
        <ele>446</ele>
        <time>2015-05-17T09:20:00.000Z</time>
      </trkpt>
      <trkpt lat="47.43384" lon="6.71653">
        <ele>446</ele>
        <time>2015-05-17T09:20:01.000Z</time>
      </trkpt>
      <trkpt lat="47.43389" lon="6.71662">
        <ele>446</ele>
        <time>2015-05-17T09:20:02.000Z</time>
      </trkpt>
      <trkpt lat="47.43395" lon="6.71671">
        <ele>446</ele>
        <time>2015-05-17T09:20:03.000Z</time>
      </trkpt>
      <trkpt lat="47.434" lon="6.7168">
        <ele>446</ele>
        <time>2015-05-17T09:20:04.000Z</time>
      </trkpt>
      <trkpt lat="47.43405" lon="6.71691">
        <ele>446</ele>
        <time>2015-05-17T09:20:05.000Z</time>
      </trkpt>
      <trkpt lat="47.43411" lon="6.717">
        <ele>446</ele>
        <time>2015-05-17T09:20:06.000Z</time>
      </trkpt>
      <trkpt lat="47.43417" lon="6.71709">
        <ele>446</ele>
        <time>2015-05-17T09:20:07.000Z</time>
      </trkpt>
      <trkpt lat="47.43422" lon="6.71718">
        <ele>443</ele>
        <time>2015-05-17T09:20:08.000Z</time>
      </trkpt>
      <trkpt lat="47.43427" lon="6.71727">
        <ele>443</ele>
        <time>2015-05-17T09:20:09.000Z</time>
      </trkpt>
      <trkpt lat="47.43431" lon="6.71737">
        <ele>444</ele>
        <time>2015-05-17T09:20:10.000Z</time>
      </trkpt>
      <trkpt lat="47.43436" lon="6.71747">
        <ele>444</ele>
        <time>2015-05-17T09:20:11.000Z</time>
      </trkpt>
      <trkpt lat="47.4344" lon="6.71756">
        <ele>444</ele>
        <time>2015-05-17T09:20:12.000Z</time>
      </trkpt>
      <trkpt lat="47.43444" lon="6.71766">
        <ele>444</ele>
        <time>2015-05-17T09:20:13.000Z</time>
      </trkpt>
      <trkpt lat="47.43447" lon="6.71776">
        <ele>444</ele>
        <time>2015-05-17T09:20:14.000Z</time>
      </trkpt>
      <trkpt lat="47.4345" lon="6.71786">
        <ele>444</ele>
        <time>2015-05-17T09:20:15.000Z</time>
      </trkpt>
      <trkpt lat="47.43453" lon="6.71796">
        <ele>444</ele>
        <time>2015-05-17T09:20:16.000Z</time>
      </trkpt>
      <trkpt lat="47.43456" lon="6.71806">
        <ele>444</ele>
        <time>2015-05-17T09:20:17.000Z</time>
      </trkpt>
      <trkpt lat="47.43459" lon="6.71816">
        <ele>444</ele>
        <time>2015-05-17T09:20:18.000Z</time>
      </trkpt>
      <trkpt lat="47.43461" lon="6.71826">
        <ele>444</ele>
        <time>2015-05-17T09:20:19.000Z</time>
      </trkpt>
      <trkpt lat="47.43464" lon="6.71835">
        <ele>446</ele>
        <time>2015-05-17T09:20:20.000Z</time>
      </trkpt>
      <trkpt lat="47.43466" lon="6.71845">
        <ele>446</ele>
        <time>2015-05-17T09:20:21.000Z</time>
      </trkpt>
      <trkpt lat="47.43469" lon="6.71854">
        <ele>446</ele>
        <time>2015-05-17T09:20:22.000Z</time>
      </trkpt>
      <trkpt lat="47.43471" lon="6.71863">
        <ele>446</ele>
        <time>2015-05-17T09:20:23.000Z</time>
      </trkpt>
      <trkpt lat="47.43473" lon="6.71872">
        <ele>447</ele>
        <time>2015-05-17T09:20:24.000Z</time>
      </trkpt>
      <trkpt lat="47.43475" lon="6.71882">
        <ele>447</ele>
        <time>2015-05-17T09:20:25.000Z</time>
      </trkpt>
      <trkpt lat="47.43477" lon="6.71891">
        <ele>447</ele>
        <time>2015-05-17T09:20:26.000Z</time>
      </trkpt>
      <trkpt lat="47.43479" lon="6.719">
        <ele>447</ele>
        <time>2015-05-17T09:20:27.000Z</time>
      </trkpt>
      <trkpt lat="47.43482" lon="6.71908">
        <ele>447</ele>
        <time>2015-05-17T09:20:28.000Z</time>
      </trkpt>
      <trkpt lat="47.43485" lon="6.71917">
        <ele>448</ele>
        <time>2015-05-17T09:20:29.000Z</time>
      </trkpt>
      <trkpt lat="47.43487" lon="6.71926">
        <ele>449</ele>
        <time>2015-05-17T09:20:30.000Z</time>
      </trkpt>
      <trkpt lat="47.43489" lon="6.71934">
        <ele>449</ele>
        <time>2015-05-17T09:20:31.000Z</time>
      </trkpt>
      <trkpt lat="47.43491" lon="6.71943">
        <ele>450</ele>
        <time>2015-05-17T09:20:32.000Z</time>
      </trkpt>
      <trkpt lat="47.43493" lon="6.7195">
        <ele>450</ele>
        <time>2015-05-17T09:20:33.000Z</time>
      </trkpt>
      <trkpt lat="47.43495" lon="6.71959">
        <ele>450</ele>
        <time>2015-05-17T09:20:34.000Z</time>
      </trkpt>
      <trkpt lat="47.43497" lon="6.71966">
        <ele>451</ele>
        <time>2015-05-17T09:20:35.000Z</time>
      </trkpt>
      <trkpt lat="47.43498" lon="6.71972">
        <ele>451</ele>
        <time>2015-05-17T09:20:36.001Z</time>
      </trkpt>
      <trkpt lat="47.435" lon="6.71979">
        <ele>451</ele>
        <time>2015-05-17T09:20:37.000Z</time>
      </trkpt>
      <trkpt lat="47.43503" lon="6.71984">
        <ele>449</ele>
        <time>2015-05-17T09:20:38.000Z</time>
      </trkpt>
      <trkpt lat="47.43505" lon="6.7199">
        <ele>450</ele>
        <time>2015-05-17T09:20:39.001Z</time>
      </trkpt>
      <trkpt lat="47.43506" lon="6.71998">
        <ele>450</ele>
        <time>2015-05-17T09:20:40.000Z</time>
      </trkpt>
      <trkpt lat="47.43508" lon="6.72004">
        <ele>451</ele>
        <time>2015-05-17T09:20:41.000Z</time>
      </trkpt>
      <trkpt lat="47.43509" lon="6.7201">
        <ele>451</ele>
        <time>2015-05-17T09:20:42.001Z</time>
      </trkpt>
      <trkpt lat="47.4351" lon="6.72016">
        <ele>451</ele>
        <time>2015-05-17T09:20:43.000Z</time>
      </trkpt>
      <trkpt lat="47.43512" lon="6.72024">
        <ele>451</ele>
        <time>2015-05-17T09:20:44.000Z</time>
      </trkpt>
      <trkpt lat="47.43512" lon="6.72029">
        <ele>451</ele>
        <time>2015-05-17T09:20:45.000Z</time>
      </trkpt>
      <trkpt lat="47.43513" lon="6.72035">
        <ele>451</ele>
        <time>2015-05-17T09:20:45.999Z</time>
      </trkpt>
      <trkpt lat="47.43516" lon="6.72042">
        <ele>451</ele>
        <time>2015-05-17T09:20:47.000Z</time>
      </trkpt>
      <trkpt lat="47.43518" lon="6.72049">
        <ele>452</ele>
        <time>2015-05-17T09:20:48.000Z</time>
      </trkpt>
      <trkpt lat="47.4352" lon="6.72055">
        <ele>452</ele>
        <time>2015-05-17T09:20:49.000Z</time>
      </trkpt>
      <trkpt lat="47.43522" lon="6.72062">
        <ele>452</ele>
        <time>2015-05-17T09:20:50.000Z</time>
      </trkpt>
      <trkpt lat="47.43525" lon="6.72069">
        <ele>452</ele>
        <time>2015-05-17T09:20:51.000Z</time>
      </trkpt>
      <trkpt lat="47.43528" lon="6.72076">
        <ele>452</ele>
        <time>2015-05-17T09:20:52.000Z</time>
      </trkpt>
      <trkpt lat="47.43531" lon="6.72082">
        <ele>452</ele>
        <time>2015-05-17T09:20:53.000Z</time>
      </trkpt>
      <trkpt lat="47.43533" lon="6.72089">
        <ele>454</ele>
        <time>2015-05-17T09:20:53.999Z</time>
      </trkpt>
      <trkpt lat="47.43537" lon="6.72093">
        <ele>454</ele>
        <time>2015-05-17T09:20:55.000Z</time>
      </trkpt>
      <trkpt lat="47.4354" lon="6.72099">
        <ele>454</ele>
        <time>2015-05-17T09:20:56.001Z</time>
      </trkpt>
      <trkpt lat="47.43542" lon="6.72104">
        <ele>454</ele>
        <time>2015-05-17T09:20:57.000Z</time>
      </trkpt>
      <trkpt lat="47.43544" lon="6.7211">
        <ele>454</ele>
        <time>2015-05-17T09:20:57.999Z</time>
      </trkpt>
      <trkpt lat="47.43547" lon="6.72116">
        <ele>454</ele>
        <time>2015-05-17T09:20:59.000Z</time>
      </trkpt>
      <trkpt lat="47.43549" lon="6.72121">
        <ele>454</ele>
        <time>2015-05-17T09:21:00.000Z</time>
      </trkpt>
      <trkpt lat="47.43552" lon="6.72126">
        <ele>454</ele>
        <time>2015-05-17T09:21:01.000Z</time>
      </trkpt>
      <trkpt lat="47.43554" lon="6.72131">
        <ele>454</ele>
        <time>2015-05-17T09:21:02.000Z</time>
      </trkpt>
      <trkpt lat="47.43556" lon="6.72137">
        <ele>454</ele>
        <time>2015-05-17T09:21:03.000Z</time>
      </trkpt>
      <trkpt lat="47.43558" lon="6.72141">
        <ele>454</ele>
        <time>2015-05-17T09:21:04.000Z</time>
      </trkpt>
      <trkpt lat="47.43559" lon="6.72147">
        <ele>454</ele>
        <time>2015-05-17T09:21:05.000Z</time>
      </trkpt>
      <trkpt lat="47.43561" lon="6.72153">
        <ele>455</ele>
        <time>2015-05-17T09:21:06.000Z</time>
      </trkpt>
      <trkpt lat="47.43562" lon="6.72158">
        <ele>455</ele>
        <time>2015-05-17T09:21:07.000Z</time>
      </trkpt>
      <trkpt lat="47.43564" lon="6.72163">
        <ele>455</ele>
        <time>2015-05-17T09:21:08.000Z</time>
      </trkpt>
      <trkpt lat="47.43566" lon="6.72168">
        <ele>457</ele>
        <time>2015-05-17T09:21:09.000Z</time>
      </trkpt>
      <trkpt lat="47.43567" lon="6.72174">
        <ele>457</ele>
        <time>2015-05-17T09:21:10.000Z</time>
      </trkpt>
      <trkpt lat="47.43568" lon="6.72179">
        <ele>457</ele>
        <time>2015-05-17T09:21:11.000Z</time>
      </trkpt>
      <trkpt lat="47.43569" lon="6.72185">
        <ele>457</ele>
        <time>2015-05-17T09:21:11.999Z</time>
      </trkpt>
      <trkpt lat="47.43574" lon="6.72187">
        <ele>457</ele>
        <time>2015-05-17T09:21:13.000Z</time>
      </trkpt>
      <trkpt lat="47.43575" lon="6.72193">
        <ele>457</ele>
        <time>2015-05-17T09:21:14.000Z</time>
      </trkpt>
      <trkpt lat="47.43577" lon="6.72198">
        <ele>458</ele>
        <time>2015-05-17T09:21:15.000Z</time>
      </trkpt>
      <trkpt lat="47.4358" lon="6.72203">
        <ele>458</ele>
        <time>2015-05-17T09:21:16.000Z</time>
      </trkpt>
      <trkpt lat="47.43583" lon="6.72208">
        <ele>458</ele>
        <time>2015-05-17T09:21:17.000Z</time>
      </trkpt>
      <trkpt lat="47.43586" lon="6.72213">
        <ele>458</ele>
        <time>2015-05-17T09:21:18.000Z</time>
      </trkpt>
      <trkpt lat="47.43587" lon="6.72219">
        <ele>458</ele>
        <time>2015-05-17T09:21:19.000Z</time>
      </trkpt>
      <trkpt lat="47.4359" lon="6.72225">
        <ele>458</ele>
        <time>2015-05-17T09:21:20.000Z</time>
      </trkpt>
      <trkpt lat="47.43592" lon="6.72231">
        <ele>458</ele>
        <time>2015-05-17T09:21:20.998Z</time>
      </trkpt>
      <trkpt lat="47.43597" lon="6.72235">
        <ele>458</ele>
        <time>2015-05-17T09:21:22.000Z</time>
      </trkpt>
      <trkpt lat="47.43599" lon="6.72239">
        <ele>458</ele>
        <time>2015-05-17T09:21:23.000Z</time>
      </trkpt>
      <trkpt lat="47.43602" lon="6.72243">
        <ele>458</ele>
        <time>2015-05-17T09:21:23.999Z</time>
      </trkpt>
      <trkpt lat="47.43605" lon="6.72249">
        <ele>458</ele>
        <time>2015-05-17T09:21:25.000Z</time>
      </trkpt>
      <trkpt lat="47.43607" lon="6.72254">
        <ele>460</ele>
        <time>2015-05-17T09:21:26.000Z</time>
      </trkpt>
      <trkpt lat="47.4361" lon="6.72259">
        <ele>461</ele>
        <time>2015-05-17T09:21:27.000Z</time>
      </trkpt>
      <trkpt lat="47.43612" lon="6.72264">
        <ele>461</ele>
        <time>2015-05-17T09:21:27.999Z</time>
      </trkpt>
      <trkpt lat="47.43615" lon="6.72268">
        <ele>461</ele>
        <time>2015-05-17T09:21:29.000Z</time>
      </trkpt>
      <trkpt lat="47.43618" lon="6.72271">
        <ele>461</ele>
        <time>2015-05-17T09:21:30.000Z</time>
      </trkpt>
      <trkpt lat="47.43621" lon="6.72276">
        <ele>461</ele>
        <time>2015-05-17T09:21:31.000Z</time>
      </trkpt>
      <trkpt lat="47.43624" lon="6.72281">
        <ele>461</ele>
        <time>2015-05-17T09:21:31.999Z</time>
      </trkpt>
      <trkpt lat="47.43628" lon="6.72284">
        <ele>461</ele>
        <time>2015-05-17T09:21:33.000Z</time>
      </trkpt>
      <trkpt lat="47.43631" lon="6.72289">
        <ele>461</ele>
        <time>2015-05-17T09:21:34.000Z</time>
      </trkpt>
      <trkpt lat="47.43634" lon="6.72295">
        <ele>461</ele>
        <time>2015-05-17T09:21:35.000Z</time>
      </trkpt>
      <trkpt lat="47.43636" lon="6.72302">
        <ele>461</ele>
        <time>2015-05-17T09:21:36.000Z</time>
      </trkpt>
      <trkpt lat="47.4364" lon="6.72305">
        <ele>461</ele>
        <time>2015-05-17T09:21:37.000Z</time>
      </trkpt>
      <trkpt lat="47.43644" lon="6.7231">
        <ele>461</ele>
        <time>2015-05-17T09:21:38.000Z</time>
      </trkpt>
      <trkpt lat="47.43647" lon="6.72315">
        <ele>461</ele>
        <time>2015-05-17T09:21:39.000Z</time>
      </trkpt>
      <trkpt lat="47.43649" lon="6.72322">
        <ele>461</ele>
        <time>2015-05-17T09:21:40.001Z</time>
      </trkpt>
      <trkpt lat="47.43652" lon="6.72327">
        <ele>461</ele>
        <time>2015-05-17T09:21:41.000Z</time>
      </trkpt>
      <trkpt lat="47.43654" lon="6.72333">
        <ele>461</ele>
        <time>2015-05-17T09:21:42.000Z</time>
      </trkpt>
      <trkpt lat="47.43657" lon="6.72337">
        <ele>462</ele>
        <time>2015-05-17T09:21:43.000Z</time>
      </trkpt>
      <trkpt lat="47.4366" lon="6.72341">
        <ele>462</ele>
        <time>2015-05-17T09:21:44.000Z</time>
      </trkpt>
      <trkpt lat="47.43664" lon="6.72343">
        <ele>462</ele>
        <time>2015-05-17T09:21:45.000Z</time>
      </trkpt>
      <trkpt lat="47.43669" lon="6.72344">
        <ele>461</ele>
        <time>2015-05-17T09:21:46.000Z</time>
      </trkpt>
      <trkpt lat="47.43674" lon="6.72342">
        <ele>461</ele>
        <time>2015-05-17T09:21:47.000Z</time>
      </trkpt>
      <trkpt lat="47.43678" lon="6.72341">
        <ele>461</ele>
        <time>2015-05-17T09:21:48.000Z</time>
      </trkpt>
      <trkpt lat="47.43683" lon="6.72337">
        <ele>461</ele>
        <time>2015-05-17T09:21:49.000Z</time>
      </trkpt>
      <trkpt lat="47.43687" lon="6.72334">
        <ele>461</ele>
        <time>2015-05-17T09:21:50.000Z</time>
      </trkpt>
      <trkpt lat="47.43692" lon="6.72331">
        <ele>460</ele>
        <time>2015-05-17T09:21:51.000Z</time>
      </trkpt>
      <trkpt lat="47.43697" lon="6.72328">
        <ele>460</ele>
        <time>2015-05-17T09:21:52.000Z</time>
      </trkpt>
      <trkpt lat="47.43702" lon="6.72324">
        <ele>460</ele>
        <time>2015-05-17T09:21:53.000Z</time>
      </trkpt>
      <trkpt lat="47.43706" lon="6.72321">
        <ele>460</ele>
        <time>2015-05-17T09:21:54.000Z</time>
      </trkpt>
      <trkpt lat="47.43711" lon="6.72317">
        <ele>460</ele>
        <time>2015-05-17T09:21:55.000Z</time>
      </trkpt>
      <trkpt lat="47.43716" lon="6.72313">
        <ele>460</ele>
        <time>2015-05-17T09:21:56.000Z</time>
      </trkpt>
      <trkpt lat="47.43721" lon="6.7231">
        <ele>460</ele>
        <time>2015-05-17T09:21:57.000Z</time>
      </trkpt>
      <trkpt lat="47.43726" lon="6.72306">
        <ele>460</ele>
        <time>2015-05-17T09:21:58.000Z</time>
      </trkpt>
      <trkpt lat="47.43731" lon="6.72303">
        <ele>460</ele>
        <time>2015-05-17T09:21:59.000Z</time>
      </trkpt>
      <trkpt lat="47.43736" lon="6.72301">
        <ele>460</ele>
        <time>2015-05-17T09:22:00.000Z</time>
      </trkpt>
      <trkpt lat="47.43741" lon="6.723">
        <ele>460</ele>
        <time>2015-05-17T09:22:01.000Z</time>
      </trkpt>
      <trkpt lat="47.43746" lon="6.72304">
        <ele>460</ele>
        <time>2015-05-17T09:22:02.000Z</time>
      </trkpt>
      <trkpt lat="47.4375" lon="6.72308">
        <ele>460</ele>
        <time>2015-05-17T09:22:03.000Z</time>
      </trkpt>
      <trkpt lat="47.43753" lon="6.72314">
        <ele>460</ele>
        <time>2015-05-17T09:22:04.000Z</time>
      </trkpt>
      <trkpt lat="47.43756" lon="6.72319">
        <ele>460</ele>
        <time>2015-05-17T09:22:05.000Z</time>
      </trkpt>
      <trkpt lat="47.43759" lon="6.72325">
        <ele>460</ele>
        <time>2015-05-17T09:22:06.000Z</time>
      </trkpt>
      <trkpt lat="47.43762" lon="6.72329">
        <ele>460</ele>
        <time>2015-05-17T09:22:07.000Z</time>
      </trkpt>
      <trkpt lat="47.43765" lon="6.72335">
        <ele>461</ele>
        <time>2015-05-17T09:22:08.000Z</time>
      </trkpt>
      <trkpt lat="47.43769" lon="6.72339">
        <ele>461</ele>
        <time>2015-05-17T09:22:09.000Z</time>
      </trkpt>
      <trkpt lat="47.43773" lon="6.72343">
        <ele>461</ele>
        <time>2015-05-17T09:22:10.000Z</time>
      </trkpt>
      <trkpt lat="47.43776" lon="6.72348">
        <ele>461</ele>
        <time>2015-05-17T09:22:11.000Z</time>
      </trkpt>
      <trkpt lat="47.4378" lon="6.72352">
        <ele>461</ele>
        <time>2015-05-17T09:22:12.000Z</time>
      </trkpt>
      <trkpt lat="47.43784" lon="6.72358">
        <ele>461</ele>
        <time>2015-05-17T09:22:13.000Z</time>
      </trkpt>
      <trkpt lat="47.43788" lon="6.72363">
        <ele>461</ele>
        <time>2015-05-17T09:22:14.000Z</time>
      </trkpt>
      <trkpt lat="47.43791" lon="6.72369">
        <ele>461</ele>
        <time>2015-05-17T09:22:15.000Z</time>
      </trkpt>
      <trkpt lat="47.43794" lon="6.72375">
        <ele>462</ele>
        <time>2015-05-17T09:22:16.000Z</time>
      </trkpt>
      <trkpt lat="47.43798" lon="6.72379">
        <ele>462</ele>
        <time>2015-05-17T09:22:17.000Z</time>
      </trkpt>
      <trkpt lat="47.438" lon="6.72383">
        <ele>462</ele>
        <time>2015-05-17T09:22:18.000Z</time>
      </trkpt>
      <trkpt lat="47.43803" lon="6.72387">
        <ele>462</ele>
        <time>2015-05-17T09:22:18.999Z</time>
      </trkpt>
      <trkpt lat="47.43809" lon="6.72393">
        <ele>462</ele>
        <time>2015-05-17T09:22:20.000Z</time>
      </trkpt>
      <trkpt lat="47.43813" lon="6.72396">
        <ele>462</ele>
        <time>2015-05-17T09:22:21.000Z</time>
      </trkpt>
      <trkpt lat="47.43817" lon="6.724">
        <ele>462</ele>
        <time>2015-05-17T09:22:22.000Z</time>
      </trkpt>
      <trkpt lat="47.43821" lon="6.72403">
        <ele>462</ele>
        <time>2015-05-17T09:22:23.000Z</time>
      </trkpt>
      <trkpt lat="47.43825" lon="6.7241">
        <ele>462</ele>
        <time>2015-05-17T09:22:24.000Z</time>
      </trkpt>
      <trkpt lat="47.43829" lon="6.72414">
        <ele>462</ele>
        <time>2015-05-17T09:22:25.000Z</time>
      </trkpt>
      <trkpt lat="47.43834" lon="6.72418">
        <ele>462</ele>
        <time>2015-05-17T09:22:26.000Z</time>
      </trkpt>
      <trkpt lat="47.43839" lon="6.7242">
        <ele>462</ele>
        <time>2015-05-17T09:22:27.000Z</time>
      </trkpt>
      <trkpt lat="47.43843" lon="6.72425">
        <ele>462</ele>
        <time>2015-05-17T09:22:28.000Z</time>
      </trkpt>
      <trkpt lat="47.43847" lon="6.72429">
        <ele>462</ele>
        <time>2015-05-17T09:22:29.000Z</time>
      </trkpt>
      <trkpt lat="47.43852" lon="6.72433">
        <ele>463</ele>
        <time>2015-05-17T09:22:30.000Z</time>
      </trkpt>
      <trkpt lat="47.43856" lon="6.72437">
        <ele>463</ele>
        <time>2015-05-17T09:22:31.000Z</time>
      </trkpt>
      <trkpt lat="47.4386" lon="6.72441">
        <ele>463</ele>
        <time>2015-05-17T09:22:32.000Z</time>
      </trkpt>
      <trkpt lat="47.43864" lon="6.72445">
        <ele>463</ele>
        <time>2015-05-17T09:22:33.000Z</time>
      </trkpt>
      <trkpt lat="47.43867" lon="6.7245">
        <ele>463</ele>
        <time>2015-05-17T09:22:34.000Z</time>
      </trkpt>
      <trkpt lat="47.43872" lon="6.72454">
        <ele>463</ele>
        <time>2015-05-17T09:22:35.000Z</time>
      </trkpt>
      <trkpt lat="47.43876" lon="6.72458">
        <ele>463</ele>
        <time>2015-05-17T09:22:36.000Z</time>
      </trkpt>
      <trkpt lat="47.4388" lon="6.72462">
        <ele>463</ele>
        <time>2015-05-17T09:22:37.000Z</time>
      </trkpt>
      <trkpt lat="47.43885" lon="6.72466">
        <ele>463</ele>
        <time>2015-05-17T09:22:38.000Z</time>
      </trkpt>
      <trkpt lat="47.4389" lon="6.72469">
        <ele>463</ele>
        <time>2015-05-17T09:22:39.000Z</time>
      </trkpt>
      <trkpt lat="47.43895" lon="6.72473">
        <ele>463</ele>
        <time>2015-05-17T09:22:40.000Z</time>
      </trkpt>
      <trkpt lat="47.43899" lon="6.72477">
        <ele>463</ele>
        <time>2015-05-17T09:22:41.000Z</time>
      </trkpt>
      <trkpt lat="47.43903" lon="6.72481">
        <ele>463</ele>
        <time>2015-05-17T09:22:42.000Z</time>
      </trkpt>
      <trkpt lat="47.43907" lon="6.72485">
        <ele>463</ele>
        <time>2015-05-17T09:22:43.000Z</time>
      </trkpt>
      <trkpt lat="47.43911" lon="6.72489">
        <ele>463</ele>
        <time>2015-05-17T09:22:44.000Z</time>
      </trkpt>
      <trkpt lat="47.43915" lon="6.72492">
        <ele>463</ele>
        <time>2015-05-17T09:22:45.000Z</time>
      </trkpt>
      <trkpt lat="47.43919" lon="6.72495">
        <ele>463</ele>
        <time>2015-05-17T09:22:46.000Z</time>
      </trkpt>
      <trkpt lat="47.43924" lon="6.72498">
        <ele>463</ele>
        <time>2015-05-17T09:22:47.000Z</time>
      </trkpt>
      <trkpt lat="47.43928" lon="6.72499">
        <ele>463</ele>
        <time>2015-05-17T09:22:48.000Z</time>
      </trkpt>
      <trkpt lat="47.43933" lon="6.725">
        <ele>463</ele>
        <time>2015-05-17T09:22:49.000Z</time>
      </trkpt>
      <trkpt lat="47.43938" lon="6.72501">
        <ele>463</ele>
        <time>2015-05-17T09:22:50.000Z</time>
      </trkpt>
      <trkpt lat="47.43944" lon="6.725">
        <ele>463</ele>
        <time>2015-05-17T09:22:51.000Z</time>
      </trkpt>
      <trkpt lat="47.4395" lon="6.72499">
        <ele>464</ele>
        <time>2015-05-17T09:22:52.000Z</time>
      </trkpt>
      <trkpt lat="47.43956" lon="6.72498">
        <ele>464</ele>
        <time>2015-05-17T09:22:53.000Z</time>
      </trkpt>
      <trkpt lat="47.43959" lon="6.72497">
        <ele>464</ele>
        <time>2015-05-17T09:22:54.000Z</time>
      </trkpt>
      <trkpt lat="47.43965" lon="6.72495">
        <ele>464</ele>
        <time>2015-05-17T09:22:55.000Z</time>
      </trkpt>
      <trkpt lat="47.4397" lon="6.72494">
        <ele>464</ele>
        <time>2015-05-17T09:22:56.000Z</time>
      </trkpt>
      <trkpt lat="47.43975" lon="6.72491">
        <ele>464</ele>
        <time>2015-05-17T09:22:57.000Z</time>
      </trkpt>
      <trkpt lat="47.43979" lon="6.72489">
        <ele>464</ele>
        <time>2015-05-17T09:22:58.000Z</time>
      </trkpt>
      <trkpt lat="47.43984" lon="6.72488">
        <ele>464</ele>
        <time>2015-05-17T09:22:59.000Z</time>
      </trkpt>
      <trkpt lat="47.4399" lon="6.72486">
        <ele>464</ele>
        <time>2015-05-17T09:23:00.000Z</time>
      </trkpt>
      <trkpt lat="47.43995" lon="6.72483">
        <ele>464</ele>
        <time>2015-05-17T09:23:01.000Z</time>
      </trkpt>
      <trkpt lat="47.44" lon="6.72482">
        <ele>466</ele>
        <time>2015-05-17T09:23:02.000Z</time>
      </trkpt>
      <trkpt lat="47.44005" lon="6.7248">
        <ele>466</ele>
        <time>2015-05-17T09:23:03.000Z</time>
      </trkpt>
      <trkpt lat="47.4401" lon="6.72478">
        <ele>466</ele>
        <time>2015-05-17T09:23:04.000Z</time>
      </trkpt>
      <trkpt lat="47.44015" lon="6.72477">
        <ele>466</ele>
        <time>2015-05-17T09:23:05.000Z</time>
      </trkpt>
      <trkpt lat="47.4402" lon="6.72477">
        <ele>466</ele>
        <time>2015-05-17T09:23:06.000Z</time>
      </trkpt>
      <trkpt lat="47.44025" lon="6.72475">
        <ele>466</ele>
        <time>2015-05-17T09:23:07.000Z</time>
      </trkpt>
      <trkpt lat="47.44031" lon="6.72473">
        <ele>467</ele>
        <time>2015-05-17T09:23:08.000Z</time>
      </trkpt>
      <trkpt lat="47.44036" lon="6.72471">
        <ele>467</ele>
        <time>2015-05-17T09:23:09.000Z</time>
      </trkpt>
      <trkpt lat="47.44042" lon="6.72469">
        <ele>467</ele>
        <time>2015-05-17T09:23:10.000Z</time>
      </trkpt>
      <trkpt lat="47.44047" lon="6.72467">
        <ele>467</ele>
        <time>2015-05-17T09:23:11.000Z</time>
      </trkpt>
      <trkpt lat="47.44053" lon="6.72465">
        <ele>467</ele>
        <time>2015-05-17T09:23:12.000Z</time>
      </trkpt>
      <trkpt lat="47.44059" lon="6.72464">
        <ele>468</ele>
        <time>2015-05-17T09:23:13.000Z</time>
      </trkpt>
      <trkpt lat="47.44064" lon="6.72463">
        <ele>468</ele>
        <time>2015-05-17T09:23:14.000Z</time>
      </trkpt>
      <trkpt lat="47.44069" lon="6.72461">
        <ele>468</ele>
        <time>2015-05-17T09:23:15.000Z</time>
      </trkpt>
      <trkpt lat="47.44073" lon="6.7246">
        <ele>468</ele>
        <time>2015-05-17T09:23:16.000Z</time>
      </trkpt>
      <trkpt lat="47.44078" lon="6.72459">
        <ele>468</ele>
        <time>2015-05-17T09:23:17.000Z</time>
      </trkpt>
      <trkpt lat="47.44081" lon="6.72457">
        <ele>468</ele>
        <time>2015-05-17T09:23:18.000Z</time>
      </trkpt>
      <trkpt lat="47.44085" lon="6.72455">
        <ele>473</ele>
        <time>2015-05-17T09:23:19.000Z</time>
      </trkpt>
      <trkpt lat="47.44089" lon="6.72455">
        <ele>473</ele>
        <time>2015-05-17T09:23:20.000Z</time>
      </trkpt>
      <trkpt lat="47.44092" lon="6.72454">
        <ele>473</ele>
        <time>2015-05-17T09:23:21.000Z</time>
      </trkpt>
      <trkpt lat="47.44096" lon="6.72453">
        <ele>473</ele>
        <time>2015-05-17T09:23:22.000Z</time>
      </trkpt>
      <trkpt lat="47.44099" lon="6.72452">
        <ele>473</ele>
        <time>2015-05-17T09:23:23.000Z</time>
      </trkpt>
      <trkpt lat="47.44102" lon="6.72452">
        <ele>474</ele>
        <time>2015-05-17T09:23:24.000Z</time>
      </trkpt>
      <trkpt lat="47.44104" lon="6.72452">
        <ele>474</ele>
        <time>2015-05-17T09:23:25.000Z</time>
      </trkpt>
      <trkpt lat="47.44108" lon="6.72453">
        <ele>474</ele>
        <time>2015-05-17T09:23:26.000Z</time>
      </trkpt>
      <trkpt lat="47.44111" lon="6.72454">
        <ele>474</ele>
        <time>2015-05-17T09:23:27.000Z</time>
      </trkpt>
      <trkpt lat="47.44113" lon="6.72455">
        <ele>474</ele>
        <time>2015-05-17T09:23:28.000Z</time>
      </trkpt>
      <trkpt lat="47.44116" lon="6.72456">
        <ele>474</ele>
        <time>2015-05-17T09:23:29.000Z</time>
      </trkpt>
      <trkpt lat="47.44119" lon="6.72457">
        <ele>474</ele>
        <time>2015-05-17T09:23:30.000Z</time>
      </trkpt>
      <trkpt lat="47.44122" lon="6.72458">
        <ele>475</ele>
        <time>2015-05-17T09:23:31.000Z</time>
      </trkpt>
      <trkpt lat="47.44125" lon="6.72458">
        <ele>475</ele>
        <time>2015-05-17T09:23:32.000Z</time>
      </trkpt>
      <trkpt lat="47.44129" lon="6.72459">
        <ele>475</ele>
        <time>2015-05-17T09:23:33.000Z</time>
      </trkpt>
      <trkpt lat="47.44132" lon="6.72458">
        <ele>475</ele>
        <time>2015-05-17T09:23:34.000Z</time>
      </trkpt>
      <trkpt lat="47.44135" lon="6.72458">
        <ele>475</ele>
        <time>2015-05-17T09:23:35.000Z</time>
      </trkpt>
      <trkpt lat="47.44138" lon="6.72459">
        <ele>476</ele>
        <time>2015-05-17T09:23:36.000Z</time>
      </trkpt>
      <trkpt lat="47.44146" lon="6.72459">
        <ele>476</ele>
        <time>2015-05-17T09:23:38.000Z</time>
      </trkpt>
      <trkpt lat="47.44149" lon="6.72459">
        <ele>476</ele>
        <time>2015-05-17T09:23:39.000Z</time>
      </trkpt>
      <trkpt lat="47.44152" lon="6.7246">
        <ele>476</ele>
        <time>2015-05-17T09:23:40.000Z</time>
      </trkpt>
      <trkpt lat="47.44156" lon="6.7246">
        <ele>476</ele>
        <time>2015-05-17T09:23:41.000Z</time>
      </trkpt>
      <trkpt lat="47.4416" lon="6.7246">
        <ele>477</ele>
        <time>2015-05-17T09:23:42.000Z</time>
      </trkpt>
      <trkpt lat="47.44163" lon="6.72461">
        <ele>477</ele>
        <time>2015-05-17T09:23:43.000Z</time>
      </trkpt>
      <trkpt lat="47.44167" lon="6.72461">
        <ele>477</ele>
        <time>2015-05-17T09:23:44.000Z</time>
      </trkpt>
      <trkpt lat="47.4417" lon="6.72461">
        <ele>481</ele>
        <time>2015-05-17T09:23:45.000Z</time>
      </trkpt>
      <trkpt lat="47.44174" lon="6.72462">
        <ele>481</ele>
        <time>2015-05-17T09:23:46.000Z</time>
      </trkpt>
      <trkpt lat="47.44178" lon="6.72462">
        <ele>481</ele>
        <time>2015-05-17T09:23:47.000Z</time>
      </trkpt>
      <trkpt lat="47.44182" lon="6.72461">
        <ele>481</ele>
        <time>2015-05-17T09:23:48.000Z</time>
      </trkpt>
      <trkpt lat="47.44186" lon="6.72461">
        <ele>481</ele>
        <time>2015-05-17T09:23:49.000Z</time>
      </trkpt>
      <trkpt lat="47.44191" lon="6.7246">
        <ele>481</ele>
        <time>2015-05-17T09:23:50.000Z</time>
      </trkpt>
      <trkpt lat="47.44195" lon="6.72459">
        <ele>481</ele>
        <time>2015-05-17T09:23:51.000Z</time>
      </trkpt>
      <trkpt lat="47.44199" lon="6.72458">
        <ele>481</ele>
        <time>2015-05-17T09:23:52.000Z</time>
      </trkpt>
      <trkpt lat="47.44203" lon="6.72458">
        <ele>481</ele>
        <time>2015-05-17T09:23:53.000Z</time>
      </trkpt>
      <trkpt lat="47.44207" lon="6.72458">
        <ele>481</ele>
        <time>2015-05-17T09:23:54.000Z</time>
      </trkpt>
      <trkpt lat="47.44211" lon="6.72458">
        <ele>481</ele>
        <time>2015-05-17T09:23:55.000Z</time>
      </trkpt>
      <trkpt lat="47.44214" lon="6.72459">
        <ele>481</ele>
        <time>2015-05-17T09:23:56.000Z</time>
      </trkpt>
      <trkpt lat="47.44218" lon="6.72458">
        <ele>481</ele>
        <time>2015-05-17T09:23:57.000Z</time>
      </trkpt>
      <trkpt lat="47.44222" lon="6.72458">
        <ele>481</ele>
        <time>2015-05-17T09:23:58.000Z</time>
      </trkpt>
      <trkpt lat="47.44227" lon="6.72458">
        <ele>482</ele>
        <time>2015-05-17T09:23:59.000Z</time>
      </trkpt>
      <trkpt lat="47.44232" lon="6.72457">
        <ele>482</ele>
        <time>2015-05-17T09:24:00.000Z</time>
      </trkpt>
      <trkpt lat="47.44238" lon="6.72456">
        <ele>482</ele>
        <time>2015-05-17T09:24:01.000Z</time>
      </trkpt>
      <trkpt lat="47.44258" lon="6.72444">
        <ele>482</ele>
        <time>2015-05-17T09:24:02.000Z</time>
      </trkpt>
      <trkpt lat="47.44268" lon="6.72438">
        <ele>482</ele>
        <time>2015-05-17T09:24:03.000Z</time>
      </trkpt>
      <trkpt lat="47.44278" lon="6.72433">
        <ele>482</ele>
        <time>2015-05-17T09:24:04.000Z</time>
      </trkpt>
      <trkpt lat="47.44286" lon="6.72427">
        <ele>482</ele>
        <time>2015-05-17T09:24:05.000Z</time>
      </trkpt>
      <trkpt lat="47.44295" lon="6.72422">
        <ele>482</ele>
        <time>2015-05-17T09:24:06.000Z</time>
      </trkpt>
      <trkpt lat="47.44303" lon="6.72419">
        <ele>482</ele>
        <time>2015-05-17T09:24:07.000Z</time>
      </trkpt>
      <trkpt lat="47.44312" lon="6.72413">
        <ele>481</ele>
        <time>2015-05-17T09:24:08.000Z</time>
      </trkpt>
      <trkpt lat="47.44319" lon="6.7241">
        <ele>481</ele>
        <time>2015-05-17T09:24:09.000Z</time>
      </trkpt>
      <trkpt lat="47.44328" lon="6.72404">
        <ele>481</ele>
        <time>2015-05-17T09:24:10.000Z</time>
      </trkpt>
      <trkpt lat="47.44335" lon="6.72401">
        <ele>479</ele>
        <time>2015-05-17T09:24:11.000Z</time>
      </trkpt>
      <trkpt lat="47.4434" lon="6.72399">
        <ele>479</ele>
        <time>2015-05-17T09:24:12.000Z</time>
      </trkpt>
      <trkpt lat="47.44348" lon="6.7239">
        <ele>478</ele>
        <time>2015-05-17T09:24:13.000Z</time>
      </trkpt>
      <trkpt lat="47.44354" lon="6.72388">
        <ele>478</ele>
        <time>2015-05-17T09:24:14.000Z</time>
      </trkpt>
      <trkpt lat="47.44359" lon="6.72385">
        <ele>478</ele>
        <time>2015-05-17T09:24:15.000Z</time>
      </trkpt>
      <trkpt lat="47.44365" lon="6.72382">
        <ele>478</ele>
        <time>2015-05-17T09:24:16.000Z</time>
      </trkpt>
      <trkpt lat="47.44371" lon="6.7238">
        <ele>478</ele>
        <time>2015-05-17T09:24:17.000Z</time>
      </trkpt>
      <trkpt lat="47.44378" lon="6.72378">
        <ele>478</ele>
        <time>2015-05-17T09:24:18.000Z</time>
      </trkpt>
      <trkpt lat="47.44384" lon="6.72376">
        <ele>477</ele>
        <time>2015-05-17T09:24:19.000Z</time>
      </trkpt>
      <trkpt lat="47.4439" lon="6.72374">
        <ele>477</ele>
        <time>2015-05-17T09:24:20.000Z</time>
      </trkpt>
      <trkpt lat="47.44395" lon="6.72373">
        <ele>477</ele>
        <time>2015-05-17T09:24:21.000Z</time>
      </trkpt>
      <trkpt lat="47.44402" lon="6.72369">
        <ele>477</ele>
        <time>2015-05-17T09:24:22.000Z</time>
      </trkpt>
      <trkpt lat="47.44409" lon="6.72366">
        <ele>477</ele>
        <time>2015-05-17T09:24:23.000Z</time>
      </trkpt>
      <trkpt lat="47.44415" lon="6.72365">
        <ele>477</ele>
        <time>2015-05-17T09:24:24.000Z</time>
      </trkpt>
      <trkpt lat="47.44423" lon="6.72362">
        <ele>477</ele>
        <time>2015-05-17T09:24:25.000Z</time>
      </trkpt>
      <trkpt lat="47.4443" lon="6.7236">
        <ele>477</ele>
        <time>2015-05-17T09:24:26.000Z</time>
      </trkpt>
      <trkpt lat="47.44437" lon="6.72358">
        <ele>477</ele>
        <time>2015-05-17T09:24:27.000Z</time>
      </trkpt>
      <trkpt lat="47.44444" lon="6.72357">
        <ele>477</ele>
        <time>2015-05-17T09:24:28.000Z</time>
      </trkpt>
      <trkpt lat="47.4445" lon="6.72357">
        <ele>477</ele>
        <time>2015-05-17T09:24:29.000Z</time>
      </trkpt>
      <trkpt lat="47.44455" lon="6.72356">
        <ele>477</ele>
        <time>2015-05-17T09:24:30.000Z</time>
      </trkpt>
      <trkpt lat="47.4446" lon="6.72355">
        <ele>478</ele>
        <time>2015-05-17T09:24:31.000Z</time>
      </trkpt>
      <trkpt lat="47.44464" lon="6.72355">
        <ele>478</ele>
        <time>2015-05-17T09:24:32.000Z</time>
      </trkpt>
      <trkpt lat="47.44469" lon="6.72354">
        <ele>478</ele>
        <time>2015-05-17T09:24:33.000Z</time>
      </trkpt>
      <trkpt lat="47.44474" lon="6.72353">
        <ele>478</ele>
        <time>2015-05-17T09:24:34.000Z</time>
      </trkpt>
      <trkpt lat="47.44477" lon="6.72352">
        <ele>478</ele>
        <time>2015-05-17T09:24:35.000Z</time>
      </trkpt>
      <trkpt lat="47.44482" lon="6.72355">
        <ele>478</ele>
        <time>2015-05-17T09:24:36.000Z</time>
      </trkpt>
      <trkpt lat="47.4449" lon="6.72352">
        <ele>477</ele>
        <time>2015-05-17T09:24:37.000Z</time>
      </trkpt>
      <trkpt lat="47.44497" lon="6.72351">
        <ele>477</ele>
        <time>2015-05-17T09:24:38.000Z</time>
      </trkpt>
      <trkpt lat="47.44503" lon="6.7235">
        <ele>478</ele>
        <time>2015-05-17T09:24:39.000Z</time>
      </trkpt>
      <trkpt lat="47.44507" lon="6.72351">
        <ele>479</ele>
        <time>2015-05-17T09:24:41.000Z</time>
      </trkpt>
      <trkpt lat="47.44513" lon="6.72351">
        <ele>479</ele>
        <time>2015-05-17T09:24:42.000Z</time>
      </trkpt>
      <trkpt lat="47.44521" lon="6.72351">
        <ele>479</ele>
        <time>2015-05-17T09:24:43.000Z</time>
      </trkpt>
      <trkpt lat="47.44525" lon="6.7235">
        <ele>479</ele>
        <time>2015-05-17T09:24:44.000Z</time>
      </trkpt>
      <trkpt lat="47.44533" lon="6.72346">
        <ele>479</ele>
        <time>2015-05-17T09:24:45.000Z</time>
      </trkpt>
      <trkpt lat="47.44539" lon="6.72343">
        <ele>479</ele>
        <time>2015-05-17T09:24:46.000Z</time>
      </trkpt>
      <trkpt lat="47.44543" lon="6.72344">
        <ele>480</ele>
        <time>2015-05-17T09:24:47.000Z</time>
      </trkpt>
      <trkpt lat="47.44549" lon="6.72345">
        <ele>480</ele>
        <time>2015-05-17T09:24:48.000Z</time>
      </trkpt>
      <trkpt lat="47.44555" lon="6.72346">
        <ele>480</ele>
        <time>2015-05-17T09:24:49.000Z</time>
      </trkpt>
      <trkpt lat="47.44561" lon="6.72346">
        <ele>480</ele>
        <time>2015-05-17T09:24:50.000Z</time>
      </trkpt>
      <trkpt lat="47.44567" lon="6.72344">
        <ele>479</ele>
        <time>2015-05-17T09:24:51.000Z</time>
      </trkpt>
      <trkpt lat="47.44574" lon="6.72341">
        <ele>479</ele>
        <time>2015-05-17T09:24:52.000Z</time>
      </trkpt>
      <trkpt lat="47.44581" lon="6.72341">
        <ele>479</ele>
        <time>2015-05-17T09:24:53.000Z</time>
      </trkpt>
      <trkpt lat="47.44591" lon="6.72335">
        <ele>479</ele>
        <time>2015-05-17T09:24:54.000Z</time>
      </trkpt>
      <trkpt lat="47.44599" lon="6.72332">
        <ele>476</ele>
        <time>2015-05-17T09:24:55.000Z</time>
      </trkpt>
      <trkpt lat="47.44606" lon="6.72331">
        <ele>476</ele>
        <time>2015-05-17T09:24:56.000Z</time>
      </trkpt>
      <trkpt lat="47.44612" lon="6.7233">
        <ele>476</ele>
        <time>2015-05-17T09:24:57.000Z</time>
      </trkpt>
      <trkpt lat="47.44618" lon="6.7233">
        <ele>476</ele>
        <time>2015-05-17T09:24:58.000Z</time>
      </trkpt>
      <trkpt lat="47.44623" lon="6.72332">
        <ele>476</ele>
        <time>2015-05-17T09:24:59.000Z</time>
      </trkpt>
      <trkpt lat="47.44629" lon="6.72333">
        <ele>476</ele>
        <time>2015-05-17T09:25:00.000Z</time>
      </trkpt>
      <trkpt lat="47.44636" lon="6.72333">
        <ele>476</ele>
        <time>2015-05-17T09:25:01.000Z</time>
      </trkpt>
      <trkpt lat="47.44642" lon="6.72333">
        <ele>477</ele>
        <time>2015-05-17T09:25:02.000Z</time>
      </trkpt>
      <trkpt lat="47.44652" lon="6.7233">
        <ele>477</ele>
        <time>2015-05-17T09:25:03.000Z</time>
      </trkpt>
      <trkpt lat="47.44662" lon="6.72325">
        <ele>478</ele>
        <time>2015-05-17T09:25:04.000Z</time>
      </trkpt>
      <trkpt lat="47.44671" lon="6.7232">
        <ele>479</ele>
        <time>2015-05-17T09:25:05.000Z</time>
      </trkpt>
      <trkpt lat="47.44681" lon="6.72316">
        <ele>479</ele>
        <time>2015-05-17T09:25:06.000Z</time>
      </trkpt>
      <trkpt lat="47.4469" lon="6.72315">
        <ele>478</ele>
        <time>2015-05-17T09:25:07.000Z</time>
      </trkpt>
      <trkpt lat="47.44697" lon="6.72314">
        <ele>479</ele>
        <time>2015-05-17T09:25:08.000Z</time>
      </trkpt>
      <trkpt lat="47.44704" lon="6.7231">
        <ele>479</ele>
        <time>2015-05-17T09:25:09.000Z</time>
      </trkpt>
      <trkpt lat="47.44714" lon="6.72303">
        <ele>478</ele>
        <time>2015-05-17T09:25:10.000Z</time>
      </trkpt>
      <trkpt lat="47.44721" lon="6.72298">
        <ele>478</ele>
        <time>2015-05-17T09:25:11.000Z</time>
      </trkpt>
      <trkpt lat="47.4473" lon="6.72292">
        <ele>478</ele>
        <time>2015-05-17T09:25:12.000Z</time>
      </trkpt>
      <trkpt lat="47.44737" lon="6.72287">
        <ele>478</ele>
        <time>2015-05-17T09:25:13.000Z</time>
      </trkpt>
      <trkpt lat="47.44746" lon="6.72283">
        <ele>477</ele>
        <time>2015-05-17T09:25:14.000Z</time>
      </trkpt>
      <trkpt lat="47.44754" lon="6.7228">
        <ele>476</ele>
        <time>2015-05-17T09:25:15.000Z</time>
      </trkpt>
      <trkpt lat="47.44762" lon="6.7228">
        <ele>476</ele>
        <time>2015-05-17T09:25:16.000Z</time>
      </trkpt>
      <trkpt lat="47.4477" lon="6.72277">
        <ele>476</ele>
        <time>2015-05-17T09:25:17.000Z</time>
      </trkpt>
      <trkpt lat="47.4478" lon="6.72276">
        <ele>475</ele>
        <time>2015-05-17T09:25:18.000Z</time>
      </trkpt>
      <trkpt lat="47.4479" lon="6.72272">
        <ele>475</ele>
        <time>2015-05-17T09:25:19.000Z</time>
      </trkpt>
      <trkpt lat="47.44801" lon="6.72271">
        <ele>474</ele>
        <time>2015-05-17T09:25:20.000Z</time>
      </trkpt>
      <trkpt lat="47.44812" lon="6.72267">
        <ele>473</ele>
        <time>2015-05-17T09:25:21.000Z</time>
      </trkpt>
      <trkpt lat="47.44822" lon="6.72266">
        <ele>472</ele>
        <time>2015-05-17T09:25:22.000Z</time>
      </trkpt>
      <trkpt lat="47.44833" lon="6.72265">
        <ele>471</ele>
        <time>2015-05-17T09:25:23.000Z</time>
      </trkpt>
      <trkpt lat="47.44842" lon="6.7227">
        <ele>467</ele>
        <time>2015-05-17T09:25:24.000Z</time>
      </trkpt>
      <trkpt lat="47.44854" lon="6.72274">
        <ele>467</ele>
        <time>2015-05-17T09:25:25.000Z</time>
      </trkpt>
      <trkpt lat="47.44864" lon="6.72279">
        <ele>467</ele>
        <time>2015-05-17T09:25:26.000Z</time>
      </trkpt>
      <trkpt lat="47.44874" lon="6.72291">
        <ele>467</ele>
        <time>2015-05-17T09:25:27.000Z</time>
      </trkpt>
      <trkpt lat="47.44884" lon="6.72299">
        <ele>467</ele>
        <time>2015-05-17T09:25:28.000Z</time>
      </trkpt>
      <trkpt lat="47.44893" lon="6.72308">
        <ele>466</ele>
        <time>2015-05-17T09:25:29.000Z</time>
      </trkpt>
      <trkpt lat="47.44903" lon="6.72316">
        <ele>466</ele>
        <time>2015-05-17T09:25:30.000Z</time>
      </trkpt>
      <trkpt lat="47.44914" lon="6.72324">
        <ele>466</ele>
        <time>2015-05-17T09:25:31.000Z</time>
      </trkpt>
      <trkpt lat="47.44925" lon="6.72332">
        <ele>462</ele>
        <time>2015-05-17T09:25:32.000Z</time>
      </trkpt>
      <trkpt lat="47.44935" lon="6.72339">
        <ele>463</ele>
        <time>2015-05-17T09:25:33.000Z</time>
      </trkpt>
      <trkpt lat="47.44944" lon="6.7235">
        <ele>463</ele>
        <time>2015-05-17T09:25:34.000Z</time>
      </trkpt>
      <trkpt lat="47.44954" lon="6.72357">
        <ele>462</ele>
        <time>2015-05-17T09:25:35.000Z</time>
      </trkpt>
      <trkpt lat="47.44964" lon="6.72368">
        <ele>462</ele>
        <time>2015-05-17T09:25:36.000Z</time>
      </trkpt>
      <trkpt lat="47.44974" lon="6.72377">
        <ele>461</ele>
        <time>2015-05-17T09:25:37.000Z</time>
      </trkpt>
      <trkpt lat="47.44984" lon="6.72385">
        <ele>461</ele>
        <time>2015-05-17T09:25:38.000Z</time>
      </trkpt>
      <trkpt lat="47.44993" lon="6.72393">
        <ele>461</ele>
        <time>2015-05-17T09:25:39.000Z</time>
      </trkpt>
      <trkpt lat="47.45003" lon="6.724">
        <ele>456</ele>
        <time>2015-05-17T09:25:40.000Z</time>
      </trkpt>
      <trkpt lat="47.45013" lon="6.72407">
        <ele>456</ele>
        <time>2015-05-17T09:25:41.000Z</time>
      </trkpt>
      <trkpt lat="47.45023" lon="6.72416">
        <ele>455</ele>
        <time>2015-05-17T09:25:42.000Z</time>
      </trkpt>
      <trkpt lat="47.45032" lon="6.72423">
        <ele>456</ele>
        <time>2015-05-17T09:25:43.000Z</time>
      </trkpt>
      <trkpt lat="47.45042" lon="6.72428">
        <ele>456</ele>
        <time>2015-05-17T09:25:44.000Z</time>
      </trkpt>
      <trkpt lat="47.45052" lon="6.72435">
        <ele>455</ele>
        <time>2015-05-17T09:25:45.000Z</time>
      </trkpt>
      <trkpt lat="47.45062" lon="6.72441">
        <ele>455</ele>
        <time>2015-05-17T09:25:46.000Z</time>
      </trkpt>
      <trkpt lat="47.45071" lon="6.72448">
        <ele>454</ele>
        <time>2015-05-17T09:25:47.000Z</time>
      </trkpt>
      <trkpt lat="47.45081" lon="6.72455">
        <ele>454</ele>
        <time>2015-05-17T09:25:48.000Z</time>
      </trkpt>
      <trkpt lat="47.4509" lon="6.72461">
        <ele>450</ele>
        <time>2015-05-17T09:25:49.000Z</time>
      </trkpt>
      <trkpt lat="47.45101" lon="6.72467">
        <ele>450</ele>
        <time>2015-05-17T09:25:50.000Z</time>
      </trkpt>
      <trkpt lat="47.45111" lon="6.72473">
        <ele>450</ele>
        <time>2015-05-17T09:25:51.000Z</time>
      </trkpt>
      <trkpt lat="47.4512" lon="6.72479">
        <ele>450</ele>
        <time>2015-05-17T09:25:52.000Z</time>
      </trkpt>
      <trkpt lat="47.45129" lon="6.72485">
        <ele>450</ele>
        <time>2015-05-17T09:25:53.000Z</time>
      </trkpt>
      <trkpt lat="47.45138" lon="6.72491">
        <ele>450</ele>
        <time>2015-05-17T09:25:54.000Z</time>
      </trkpt>
      <trkpt lat="47.45147" lon="6.72497">
        <ele>450</ele>
        <time>2015-05-17T09:25:55.000Z</time>
      </trkpt>
      <trkpt lat="47.45155" lon="6.72503">
        <ele>450</ele>
        <time>2015-05-17T09:25:56.000Z</time>
      </trkpt>
      <trkpt lat="47.45165" lon="6.7251">
        <ele>450</ele>
        <time>2015-05-17T09:25:57.000Z</time>
      </trkpt>
      <trkpt lat="47.45172" lon="6.72517">
        <ele>450</ele>
        <time>2015-05-17T09:25:58.000Z</time>
      </trkpt>
      <trkpt lat="47.4518" lon="6.72522">
        <ele>450</ele>
        <time>2015-05-17T09:25:59.000Z</time>
      </trkpt>
      <trkpt lat="47.45188" lon="6.72528">
        <ele>451</ele>
        <time>2015-05-17T09:26:00.000Z</time>
      </trkpt>
      <trkpt lat="47.45195" lon="6.72533">
        <ele>451</ele>
        <time>2015-05-17T09:26:01.000Z</time>
      </trkpt>
      <trkpt lat="47.45203" lon="6.72538">
        <ele>451</ele>
        <time>2015-05-17T09:26:02.000Z</time>
      </trkpt>
      <trkpt lat="47.4521" lon="6.72544">
        <ele>451</ele>
        <time>2015-05-17T09:26:03.000Z</time>
      </trkpt>
      <trkpt lat="47.45217" lon="6.72549">
        <ele>451</ele>
        <time>2015-05-17T09:26:04.000Z</time>
      </trkpt>
      <trkpt lat="47.45224" lon="6.72553">
        <ele>451</ele>
        <time>2015-05-17T09:26:05.000Z</time>
      </trkpt>
      <trkpt lat="47.45231" lon="6.72558">
        <ele>452</ele>
        <time>2015-05-17T09:26:06.000Z</time>
      </trkpt>
      <trkpt lat="47.45237" lon="6.72563">
        <ele>452</ele>
        <time>2015-05-17T09:26:07.000Z</time>
      </trkpt>
      <trkpt lat="47.45243" lon="6.72568">
        <ele>452</ele>
        <time>2015-05-17T09:26:08.000Z</time>
      </trkpt>
      <trkpt lat="47.45249" lon="6.72572">
        <ele>452</ele>
        <time>2015-05-17T09:26:08.999Z</time>
      </trkpt>
      <trkpt lat="47.45254" lon="6.72574">
        <ele>452</ele>
        <time>2015-05-17T09:26:10.000Z</time>
      </trkpt>
      <trkpt lat="47.4526" lon="6.72578">
        <ele>452</ele>
        <time>2015-05-17T09:26:11.001Z</time>
      </trkpt>
      <trkpt lat="47.45264" lon="6.72583">
        <ele>452</ele>
        <time>2015-05-17T09:26:12.000Z</time>
      </trkpt>
      <trkpt lat="47.45269" lon="6.72586">
        <ele>453</ele>
        <time>2015-05-17T09:26:13.000Z</time>
      </trkpt>
      <trkpt lat="47.45274" lon="6.72589">
        <ele>453</ele>
        <time>2015-05-17T09:26:14.000Z</time>
      </trkpt>
      <trkpt lat="47.45281" lon="6.72591">
        <ele>453</ele>
        <time>2015-05-17T09:26:15.000Z</time>
      </trkpt>
      <trkpt lat="47.45287" lon="6.72595">
        <ele>453</ele>
        <time>2015-05-17T09:26:16.000Z</time>
      </trkpt>
      <trkpt lat="47.45292" lon="6.72598">
        <ele>453</ele>
        <time>2015-05-17T09:26:17.000Z</time>
      </trkpt>
      <trkpt lat="47.45297" lon="6.72601">
        <ele>453</ele>
        <time>2015-05-17T09:26:18.000Z</time>
      </trkpt>
      <trkpt lat="47.45302" lon="6.72605">
        <ele>453</ele>
        <time>2015-05-17T09:26:18.999Z</time>
      </trkpt>
      <trkpt lat="47.45307" lon="6.72609">
        <ele>453</ele>
        <time>2015-05-17T09:26:20.000Z</time>
      </trkpt>
      <trkpt lat="47.45311" lon="6.72615">
        <ele>453</ele>
        <time>2015-05-17T09:26:21.000Z</time>
      </trkpt>
      <trkpt lat="47.45316" lon="6.7262">
        <ele>453</ele>
        <time>2015-05-17T09:26:22.000Z</time>
      </trkpt>
      <trkpt lat="47.4532" lon="6.72624">
        <ele>453</ele>
        <time>2015-05-17T09:26:23.000Z</time>
      </trkpt>
      <trkpt lat="47.45324" lon="6.7263">
        <ele>454</ele>
        <time>2015-05-17T09:26:24.000Z</time>
      </trkpt>
      <trkpt lat="47.4533" lon="6.72635">
        <ele>454</ele>
        <time>2015-05-17T09:26:25.000Z</time>
      </trkpt>
      <trkpt lat="47.45335" lon="6.72641">
        <ele>454</ele>
        <time>2015-05-17T09:26:26.000Z</time>
      </trkpt>
      <trkpt lat="47.4534" lon="6.72648">
        <ele>454</ele>
        <time>2015-05-17T09:26:27.000Z</time>
      </trkpt>
      <trkpt lat="47.45345" lon="6.72653">
        <ele>454</ele>
        <time>2015-05-17T09:26:28.000Z</time>
      </trkpt>
      <trkpt lat="47.45348" lon="6.72657">
        <ele>454</ele>
        <time>2015-05-17T09:26:29.001Z</time>
      </trkpt>
      <trkpt lat="47.45352" lon="6.72662">
        <ele>454</ele>
        <time>2015-05-17T09:26:30.000Z</time>
      </trkpt>
      <trkpt lat="47.45355" lon="6.72667">
        <ele>454</ele>
        <time>2015-05-17T09:26:31.000Z</time>
      </trkpt>
      <trkpt lat="47.4536" lon="6.72672">
        <ele>456</ele>
        <time>2015-05-17T09:26:32.000Z</time>
      </trkpt>
      <trkpt lat="47.45364" lon="6.72677">
        <ele>456</ele>
        <time>2015-05-17T09:26:33.000Z</time>
      </trkpt>
      <trkpt lat="47.45368" lon="6.72681">
        <ele>456</ele>
        <time>2015-05-17T09:26:34.000Z</time>
      </trkpt>
      <trkpt lat="47.45373" lon="6.72685">
        <ele>456</ele>
        <time>2015-05-17T09:26:35.000Z</time>
      </trkpt>
      <trkpt lat="47.45376" lon="6.7269">
        <ele>456</ele>
        <time>2015-05-17T09:26:36.000Z</time>
      </trkpt>
      <trkpt lat="47.45381" lon="6.72695">
        <ele>456</ele>
        <time>2015-05-17T09:26:37.000Z</time>
      </trkpt>
      <trkpt lat="47.45385" lon="6.72699">
        <ele>456</ele>
        <time>2015-05-17T09:26:38.000Z</time>
      </trkpt>
      <trkpt lat="47.45389" lon="6.72705">
        <ele>456</ele>
        <time>2015-05-17T09:26:39.000Z</time>
      </trkpt>
      <trkpt lat="47.45394" lon="6.72708">
        <ele>456</ele>
        <time>2015-05-17T09:26:40.000Z</time>
      </trkpt>
      <trkpt lat="47.45398" lon="6.72712">
        <ele>457</ele>
        <time>2015-05-17T09:26:41.000Z</time>
      </trkpt>
      <trkpt lat="47.45403" lon="6.72716">
        <ele>457</ele>
        <time>2015-05-17T09:26:42.000Z</time>
      </trkpt>
      <trkpt lat="47.45407" lon="6.72718">
        <ele>457</ele>
        <time>2015-05-17T09:26:43.000Z</time>
      </trkpt>
      <trkpt lat="47.45411" lon="6.72721">
        <ele>457</ele>
        <time>2015-05-17T09:26:44.000Z</time>
      </trkpt>
      <trkpt lat="47.45415" lon="6.72724">
        <ele>457</ele>
        <time>2015-05-17T09:26:45.000Z</time>
      </trkpt>
      <trkpt lat="47.45419" lon="6.72723">
        <ele>456</ele>
        <time>2015-05-17T09:26:46.000Z</time>
      </trkpt>
      <trkpt lat="47.45424" lon="6.72721">
        <ele>456</ele>
        <time>2015-05-17T09:26:47.000Z</time>
      </trkpt>
      <trkpt lat="47.45429" lon="6.72721">
        <ele>456</ele>
        <time>2015-05-17T09:26:48.000Z</time>
      </trkpt>
      <trkpt lat="47.45433" lon="6.72721">
        <ele>456</ele>
        <time>2015-05-17T09:26:49.000Z</time>
      </trkpt>
      <trkpt lat="47.45438" lon="6.72722">
        <ele>456</ele>
        <time>2015-05-17T09:26:50.000Z</time>
      </trkpt>
      <trkpt lat="47.45443" lon="6.72723">
        <ele>456</ele>
        <time>2015-05-17T09:26:51.000Z</time>
      </trkpt>
      <trkpt lat="47.45446" lon="6.72726">
        <ele>456</ele>
        <time>2015-05-17T09:26:52.000Z</time>
      </trkpt>
      <trkpt lat="47.45448" lon="6.72731">
        <ele>456</ele>
        <time>2015-05-17T09:26:53.000Z</time>
      </trkpt>
      <trkpt lat="47.4545" lon="6.72735">
        <ele>456</ele>
        <time>2015-05-17T09:26:54.017Z</time>
      </trkpt>
      <trkpt lat="47.45448" lon="6.72738">
        <ele>456</ele>
        <time>2015-05-17T09:26:55.000Z</time>
      </trkpt>
      <trkpt lat="47.45448" lon="6.72742">
        <ele>456</ele>
        <time>2015-05-17T09:26:56.000Z</time>
      </trkpt>
      <trkpt lat="47.45446" lon="6.72745">
        <ele>456</ele>
        <time>2015-05-17T09:26:57.000Z</time>
      </trkpt>
      <trkpt lat="47.45445" lon="6.72748">
        <ele>456</ele>
        <time>2015-05-17T09:26:58.000Z</time>
      </trkpt>
      <trkpt lat="47.45444" lon="6.72751">
        <ele>461</ele>
        <time>2015-05-17T09:26:59.000Z</time>
      </trkpt>
      <trkpt lat="47.45442" lon="6.72756">
        <ele>461</ele>
        <time>2015-05-17T09:27:01.000Z</time>
      </trkpt>
      <trkpt lat="47.45442" lon="6.72759">
        <ele>461</ele>
        <time>2015-05-17T09:27:02.000Z</time>
      </trkpt>
      <trkpt lat="47.45442" lon="6.72764">
        <ele>461</ele>
        <time>2015-05-17T09:27:08.000Z</time>
      </trkpt>
      <trkpt lat="47.45443" lon="6.72765">
        <ele>461</ele>
        <time>2015-05-17T09:27:09.000Z</time>
      </trkpt>
      <trkpt lat="47.45446" lon="6.7277">
        <ele>462</ele>
        <time>2015-05-17T09:27:22.000Z</time>
      </trkpt>
      <trkpt lat="47.45447" lon="6.72772">
        <ele>462</ele>
        <time>2015-05-17T09:27:23.000Z</time>
      </trkpt>
      <trkpt lat="47.45447" lon="6.72775">
        <ele>462</ele>
        <time>2015-05-17T09:27:24.000Z</time>
      </trkpt>
      <trkpt lat="47.45448" lon="6.72778">
        <ele>462</ele>
        <time>2015-05-17T09:27:25.000Z</time>
      </trkpt>
      <trkpt lat="47.45449" lon="6.72782">
        <ele>462</ele>
        <time>2015-05-17T09:27:26.000Z</time>
      </trkpt>
      <trkpt lat="47.45449" lon="6.72786">
        <ele>463</ele>
        <time>2015-05-17T09:27:27.000Z</time>
      </trkpt>
      <trkpt lat="47.4545" lon="6.7279">
        <ele>463</ele>
        <time>2015-05-17T09:27:28.000Z</time>
      </trkpt>
      <trkpt lat="47.4545" lon="6.72794">
        <ele>463</ele>
        <time>2015-05-17T09:27:29.000Z</time>
      </trkpt>
      <trkpt lat="47.45451" lon="6.72798">
        <ele>463</ele>
        <time>2015-05-17T09:27:30.000Z</time>
      </trkpt>
      <trkpt lat="47.45451" lon="6.72802">
        <ele>464</ele>
        <time>2015-05-17T09:27:31.000Z</time>
      </trkpt>
      <trkpt lat="47.45452" lon="6.72806">
        <ele>464</ele>
        <time>2015-05-17T09:27:32.000Z</time>
      </trkpt>
      <trkpt lat="47.45452" lon="6.72809">
        <ele>464</ele>
        <time>2015-05-17T09:27:33.000Z</time>
      </trkpt>
      <trkpt lat="47.45453" lon="6.72813">
        <ele>464</ele>
        <time>2015-05-17T09:27:34.000Z</time>
      </trkpt>
      <trkpt lat="47.45454" lon="6.72818">
        <ele>465</ele>
        <time>2015-05-17T09:27:35.000Z</time>
      </trkpt>
      <trkpt lat="47.45455" lon="6.72823">
        <ele>465</ele>
        <time>2015-05-17T09:27:36.000Z</time>
      </trkpt>
      <trkpt lat="47.45456" lon="6.72828">
        <ele>465</ele>
        <time>2015-05-17T09:27:37.000Z</time>
      </trkpt>
      <trkpt lat="47.45457" lon="6.72833">
        <ele>465</ele>
        <time>2015-05-17T09:27:38.000Z</time>
      </trkpt>
      <trkpt lat="47.45458" lon="6.72837">
        <ele>469</ele>
        <time>2015-05-17T09:27:39.000Z</time>
      </trkpt>
      <trkpt lat="47.45459" lon="6.7284">
        <ele>469</ele>
        <time>2015-05-17T09:27:40.000Z</time>
      </trkpt>
      <trkpt lat="47.4546" lon="6.72845">
        <ele>469</ele>
        <time>2015-05-17T09:27:41.000Z</time>
      </trkpt>
      <trkpt lat="47.4546" lon="6.72849">
        <ele>469</ele>
        <time>2015-05-17T09:27:42.000Z</time>
      </trkpt>
      <trkpt lat="47.45461" lon="6.72853">
        <ele>469</ele>
        <time>2015-05-17T09:27:43.000Z</time>
      </trkpt>
      <trkpt lat="47.45461" lon="6.72858">
        <ele>469</ele>
        <time>2015-05-17T09:27:44.000Z</time>
      </trkpt>
      <trkpt lat="47.45461" lon="6.72862">
        <ele>469</ele>
        <time>2015-05-17T09:27:45.000Z</time>
      </trkpt>
      <trkpt lat="47.45462" lon="6.72865">
        <ele>469</ele>
        <time>2015-05-17T09:27:46.000Z</time>
      </trkpt>
      <trkpt lat="47.45463" lon="6.72869">
        <ele>469</ele>
        <time>2015-05-17T09:27:47.000Z</time>
      </trkpt>
      <trkpt lat="47.45464" lon="6.72873">
        <ele>469</ele>
        <time>2015-05-17T09:27:48.000Z</time>
      </trkpt>
      <trkpt lat="47.45465" lon="6.72876">
        <ele>469</ele>
        <time>2015-05-17T09:27:49.000Z</time>
      </trkpt>
      <trkpt lat="47.45466" lon="6.72879">
        <ele>469</ele>
        <time>2015-05-17T09:27:50.000Z</time>
      </trkpt>
      <trkpt lat="47.45467" lon="6.72883">
        <ele>469</ele>
        <time>2015-05-17T09:27:51.000Z</time>
      </trkpt>
      <trkpt lat="47.45469" lon="6.72888">
        <ele>469</ele>
        <time>2015-05-17T09:27:52.000Z</time>
      </trkpt>
      <trkpt lat="47.4547" lon="6.72892">
        <ele>469</ele>
        <time>2015-05-17T09:27:53.000Z</time>
      </trkpt>
      <trkpt lat="47.45472" lon="6.72896">
        <ele>469</ele>
        <time>2015-05-17T09:27:54.000Z</time>
      </trkpt>
      <trkpt lat="47.45474" lon="6.72899">
        <ele>469</ele>
        <time>2015-05-17T09:27:55.000Z</time>
      </trkpt>
      <trkpt lat="47.45475" lon="6.72902">
        <ele>470</ele>
        <time>2015-05-17T09:27:56.000Z</time>
      </trkpt>
      <trkpt lat="47.45476" lon="6.72905">
        <ele>470</ele>
        <time>2015-05-17T09:27:57.000Z</time>
      </trkpt>
      <trkpt lat="47.45478" lon="6.7291">
        <ele>470</ele>
        <time>2015-05-17T09:28:01.000Z</time>
      </trkpt>
      <trkpt lat="47.45479" lon="6.72912">
        <ele>470</ele>
        <time>2015-05-17T09:28:02.000Z</time>
      </trkpt>
      <trkpt lat="47.45481" lon="6.72916">
        <ele>470</ele>
        <time>2015-05-17T09:28:05.000Z</time>
      </trkpt>
      <trkpt lat="47.45482" lon="6.72919">
        <ele>470</ele>
        <time>2015-05-17T09:28:06.000Z</time>
      </trkpt>
      <trkpt lat="47.45484" lon="6.72925">
        <ele>470</ele>
        <time>2015-05-17T09:28:08.000Z</time>
      </trkpt>
      <trkpt lat="47.45485" lon="6.72927">
        <ele>470</ele>
        <time>2015-05-17T09:28:09.000Z</time>
      </trkpt>
      <trkpt lat="47.45488" lon="6.72933">
        <ele>470</ele>
        <time>2015-05-17T09:28:11.000Z</time>
      </trkpt>
      <trkpt lat="47.45489" lon="6.72936">
        <ele>470</ele>
        <time>2015-05-17T09:28:12.000Z</time>
      </trkpt>
      <trkpt lat="47.4549" lon="6.7294">
        <ele>470</ele>
        <time>2015-05-17T09:28:13.000Z</time>
      </trkpt>
      <trkpt lat="47.45491" lon="6.72945">
        <ele>469</ele>
        <time>2015-05-17T09:28:14.000Z</time>
      </trkpt>
      <trkpt lat="47.45493" lon="6.7295">
        <ele>469</ele>
        <time>2015-05-17T09:28:15.000Z</time>
      </trkpt>
      <trkpt lat="47.45494" lon="6.72955">
        <ele>469</ele>
        <time>2015-05-17T09:28:16.000Z</time>
      </trkpt>
      <trkpt lat="47.45496" lon="6.72959">
        <ele>469</ele>
        <time>2015-05-17T09:28:17.000Z</time>
      </trkpt>
      <trkpt lat="47.45497" lon="6.72963">
        <ele>469</ele>
        <time>2015-05-17T09:28:18.000Z</time>
      </trkpt>
      <trkpt lat="47.45498" lon="6.72967">
        <ele>469</ele>
        <time>2015-05-17T09:28:19.000Z</time>
      </trkpt>
      <trkpt lat="47.45499" lon="6.72971">
        <ele>469</ele>
        <time>2015-05-17T09:28:20.000Z</time>
      </trkpt>
      <trkpt lat="47.45501" lon="6.72974">
        <ele>469</ele>
        <time>2015-05-17T09:28:21.000Z</time>
      </trkpt>
      <trkpt lat="47.45503" lon="6.72977">
        <ele>469</ele>
        <time>2015-05-17T09:28:22.000Z</time>
      </trkpt>
      <trkpt lat="47.45505" lon="6.7298">
        <ele>469</ele>
        <time>2015-05-17T09:28:23.000Z</time>
      </trkpt>
      <trkpt lat="47.45507" lon="6.72983">
        <ele>469</ele>
        <time>2015-05-17T09:28:24.000Z</time>
      </trkpt>
      <trkpt lat="47.45509" lon="6.72986">
        <ele>469</ele>
        <time>2015-05-17T09:28:25.000Z</time>
      </trkpt>
      <trkpt lat="47.45512" lon="6.7299">
        <ele>469</ele>
        <time>2015-05-17T09:28:26.000Z</time>
      </trkpt>
      <trkpt lat="47.45514" lon="6.72994">
        <ele>469</ele>
        <time>2015-05-17T09:28:27.000Z</time>
      </trkpt>
      <trkpt lat="47.45517" lon="6.72998">
        <ele>469</ele>
        <time>2015-05-17T09:28:28.000Z</time>
      </trkpt>
      <trkpt lat="47.45519" lon="6.73002">
        <ele>469</ele>
        <time>2015-05-17T09:28:29.000Z</time>
      </trkpt>
      <trkpt lat="47.45521" lon="6.73006">
        <ele>469</ele>
        <time>2015-05-17T09:28:30.000Z</time>
      </trkpt>
      <trkpt lat="47.45523" lon="6.7301">
        <ele>469</ele>
        <time>2015-05-17T09:28:31.000Z</time>
      </trkpt>
      <trkpt lat="47.45525" lon="6.73014">
        <ele>469</ele>
        <time>2015-05-17T09:28:32.000Z</time>
      </trkpt>
      <trkpt lat="47.45526" lon="6.73019">
        <ele>469</ele>
        <time>2015-05-17T09:28:33.000Z</time>
      </trkpt>
      <trkpt lat="47.45528" lon="6.73024">
        <ele>469</ele>
        <time>2015-05-17T09:28:34.000Z</time>
      </trkpt>
      <trkpt lat="47.45529" lon="6.73029">
        <ele>469</ele>
        <time>2015-05-17T09:28:35.000Z</time>
      </trkpt>
      <trkpt lat="47.45531" lon="6.73033">
        <ele>469</ele>
        <time>2015-05-17T09:28:36.000Z</time>
      </trkpt>
      <trkpt lat="47.45534" lon="6.73038">
        <ele>468</ele>
        <time>2015-05-17T09:28:37.000Z</time>
      </trkpt>
      <trkpt lat="47.45535" lon="6.73042">
        <ele>468</ele>
        <time>2015-05-17T09:28:38.000Z</time>
      </trkpt>
      <trkpt lat="47.45537" lon="6.73046">
        <ele>468</ele>
        <time>2015-05-17T09:28:39.000Z</time>
      </trkpt>
      <trkpt lat="47.45539" lon="6.7305">
        <ele>468</ele>
        <time>2015-05-17T09:28:40.000Z</time>
      </trkpt>
      <trkpt lat="47.4554" lon="6.73054">
        <ele>468</ele>
        <time>2015-05-17T09:28:41.000Z</time>
      </trkpt>
      <trkpt lat="47.45542" lon="6.73058">
        <ele>468</ele>
        <time>2015-05-17T09:28:42.000Z</time>
      </trkpt>
      <trkpt lat="47.45543" lon="6.73062">
        <ele>468</ele>
        <time>2015-05-17T09:28:43.000Z</time>
      </trkpt>
      <trkpt lat="47.45544" lon="6.73065">
        <ele>468</ele>
        <time>2015-05-17T09:28:44.000Z</time>
      </trkpt>
      <trkpt lat="47.45545" lon="6.7307">
        <ele>468</ele>
        <time>2015-05-17T09:28:45.000Z</time>
      </trkpt>
      <trkpt lat="47.45546" lon="6.73075">
        <ele>468</ele>
        <time>2015-05-17T09:28:46.000Z</time>
      </trkpt>
      <trkpt lat="47.45547" lon="6.73081">
        <ele>468</ele>
        <time>2015-05-17T09:28:47.000Z</time>
      </trkpt>
      <trkpt lat="47.45548" lon="6.73086">
        <ele>468</ele>
        <time>2015-05-17T09:28:48.000Z</time>
      </trkpt>
      <trkpt lat="47.45551" lon="6.7309">
        <ele>468</ele>
        <time>2015-05-17T09:28:49.000Z</time>
      </trkpt>
      <trkpt lat="47.45553" lon="6.73092">
        <ele>468</ele>
        <time>2015-05-17T09:28:50.000Z</time>
      </trkpt>
      <trkpt lat="47.45557" lon="6.73092">
        <ele>468</ele>
        <time>2015-05-17T09:28:52.000Z</time>
      </trkpt>
      <trkpt lat="47.45558" lon="6.73091">
        <ele>468</ele>
        <time>2015-05-17T09:28:53.000Z</time>
      </trkpt>
      <trkpt lat="47.45562" lon="6.73089">
        <ele>468</ele>
        <time>2015-05-17T09:28:57.000Z</time>
      </trkpt>
      <trkpt lat="47.45563" lon="6.7309">
        <ele>468</ele>
        <time>2015-05-17T09:28:58.000Z</time>
      </trkpt>
      <trkpt lat="47.45564" lon="6.73093">
        <ele>468</ele>
        <time>2015-05-17T09:28:59.000Z</time>
      </trkpt>
      <trkpt lat="47.45566" lon="6.73099">
        <ele>468</ele>
        <time>2015-05-17T09:29:00.000Z</time>
      </trkpt>
      <trkpt lat="47.45568" lon="6.73106">
        <ele>468</ele>
        <time>2015-05-17T09:29:01.000Z</time>
      </trkpt>
      <trkpt lat="47.4557" lon="6.73112">
        <ele>468</ele>
        <time>2015-05-17T09:29:02.000Z</time>
      </trkpt>
      <trkpt lat="47.45572" lon="6.73119">
        <ele>468</ele>
        <time>2015-05-17T09:29:03.000Z</time>
      </trkpt>
      <trkpt lat="47.45573" lon="6.73125">
        <ele>468</ele>
        <time>2015-05-17T09:29:04.000Z</time>
      </trkpt>
      <trkpt lat="47.45574" lon="6.7313">
        <ele>468</ele>
        <time>2015-05-17T09:29:05.000Z</time>
      </trkpt>
      <trkpt lat="47.45574" lon="6.73134">
        <ele>468</ele>
        <time>2015-05-17T09:29:06.000Z</time>
      </trkpt>
      <trkpt lat="47.45574" lon="6.73138">
        <ele>468</ele>
        <time>2015-05-17T09:29:07.000Z</time>
      </trkpt>
      <trkpt lat="47.45573" lon="6.73141">
        <ele>469</ele>
        <time>2015-05-17T09:29:08.000Z</time>
      </trkpt>
      <trkpt lat="47.45573" lon="6.73145">
        <ele>469</ele>
        <time>2015-05-17T09:29:09.000Z</time>
      </trkpt>
      <trkpt lat="47.45573" lon="6.73148">
        <ele>469</ele>
        <time>2015-05-17T09:29:10.000Z</time>
      </trkpt>
      <trkpt lat="47.45572" lon="6.73152">
        <ele>469</ele>
        <time>2015-05-17T09:29:11.000Z</time>
      </trkpt>
      <trkpt lat="47.45572" lon="6.73157">
        <ele>469</ele>
        <time>2015-05-17T09:29:12.000Z</time>
      </trkpt>
      <trkpt lat="47.45572" lon="6.73162">
        <ele>469</ele>
        <time>2015-05-17T09:29:13.000Z</time>
      </trkpt>
      <trkpt lat="47.45572" lon="6.73168">
        <ele>469</ele>
        <time>2015-05-17T09:29:14.000Z</time>
      </trkpt>
      <trkpt lat="47.45572" lon="6.73174">
        <ele>469</ele>
        <time>2015-05-17T09:29:15.000Z</time>
      </trkpt>
      <trkpt lat="47.45571" lon="6.7318">
        <ele>468</ele>
        <time>2015-05-17T09:29:16.000Z</time>
      </trkpt>
      <trkpt lat="47.4557" lon="6.73185">
        <ele>468</ele>
        <time>2015-05-17T09:29:17.000Z</time>
      </trkpt>
      <trkpt lat="47.45569" lon="6.73189">
        <ele>467</ele>
        <time>2015-05-17T09:29:18.000Z</time>
      </trkpt>
      <trkpt lat="47.45567" lon="6.73192">
        <ele>467</ele>
        <time>2015-05-17T09:29:19.000Z</time>
      </trkpt>
      <trkpt lat="47.45564" lon="6.73195">
        <ele>467</ele>
        <time>2015-05-17T09:29:20.000Z</time>
      </trkpt>
      <trkpt lat="47.45562" lon="6.73198">
        <ele>466</ele>
        <time>2015-05-17T09:29:21.000Z</time>
      </trkpt>
      <trkpt lat="47.45559" lon="6.732">
        <ele>466</ele>
        <time>2015-05-17T09:29:22.000Z</time>
      </trkpt>
      <trkpt lat="47.45556" lon="6.73203">
        <ele>466</ele>
        <time>2015-05-17T09:29:23.000Z</time>
      </trkpt>
      <trkpt lat="47.45553" lon="6.73206">
        <ele>466</ele>
        <time>2015-05-17T09:29:24.000Z</time>
      </trkpt>
      <trkpt lat="47.4555" lon="6.7321">
        <ele>466</ele>
        <time>2015-05-17T09:29:25.000Z</time>
      </trkpt>
      <trkpt lat="47.45546" lon="6.73213">
        <ele>465</ele>
        <time>2015-05-17T09:29:26.000Z</time>
      </trkpt>
      <trkpt lat="47.45542" lon="6.73217">
        <ele>465</ele>
        <time>2015-05-17T09:29:27.000Z</time>
      </trkpt>
      <trkpt lat="47.45538" lon="6.73221">
        <ele>465</ele>
        <time>2015-05-17T09:29:28.000Z</time>
      </trkpt>
      <trkpt lat="47.45534" lon="6.73225">
        <ele>465</ele>
        <time>2015-05-17T09:29:29.000Z</time>
      </trkpt>
      <trkpt lat="47.4553" lon="6.73229">
        <ele>464</ele>
        <time>2015-05-17T09:29:30.000Z</time>
      </trkpt>
      <trkpt lat="47.45526" lon="6.73232">
        <ele>464</ele>
        <time>2015-05-17T09:29:31.000Z</time>
      </trkpt>
      <trkpt lat="47.45522" lon="6.73235">
        <ele>464</ele>
        <time>2015-05-17T09:29:32.000Z</time>
      </trkpt>
      <trkpt lat="47.45518" lon="6.73238">
        <ele>463</ele>
        <time>2015-05-17T09:29:33.000Z</time>
      </trkpt>
      <trkpt lat="47.45514" lon="6.73241">
        <ele>463</ele>
        <time>2015-05-17T09:29:34.000Z</time>
      </trkpt>
      <trkpt lat="47.4551" lon="6.73244">
        <ele>462</ele>
        <time>2015-05-17T09:29:35.000Z</time>
      </trkpt>
      <trkpt lat="47.45505" lon="6.73248">
        <ele>462</ele>
        <time>2015-05-17T09:29:36.000Z</time>
      </trkpt>
      <trkpt lat="47.45501" lon="6.73253">
        <ele>461</ele>
        <time>2015-05-17T09:29:37.000Z</time>
      </trkpt>
      <trkpt lat="47.45498" lon="6.73255">
        <ele>461</ele>
        <time>2015-05-17T09:29:37.999Z</time>
      </trkpt>
      <trkpt lat="47.4549" lon="6.73262">
        <ele>462</ele>
        <time>2015-05-17T09:29:39.000Z</time>
      </trkpt>
      <trkpt lat="47.45486" lon="6.73266">
        <ele>462</ele>
        <time>2015-05-17T09:29:40.000Z</time>
      </trkpt>
      <trkpt lat="47.45482" lon="6.7327">
        <ele>462</ele>
        <time>2015-05-17T09:29:41.000Z</time>
      </trkpt>
      <trkpt lat="47.45476" lon="6.73273">
        <ele>462</ele>
        <time>2015-05-17T09:29:42.000Z</time>
      </trkpt>
      <trkpt lat="47.45472" lon="6.73277">
        <ele>462</ele>
        <time>2015-05-17T09:29:43.000Z</time>
      </trkpt>
      <trkpt lat="47.45469" lon="6.73283">
        <ele>462</ele>
        <time>2015-05-17T09:29:44.000Z</time>
      </trkpt>
      <trkpt lat="47.45466" lon="6.73289">
        <ele>462</ele>
        <time>2015-05-17T09:29:45.000Z</time>
      </trkpt>
      <trkpt lat="47.45464" lon="6.73296">
        <ele>462</ele>
        <time>2015-05-17T09:29:46.000Z</time>
      </trkpt>
      <trkpt lat="47.45463" lon="6.73304">
        <ele>462</ele>
        <time>2015-05-17T09:29:47.000Z</time>
      </trkpt>
      <trkpt lat="47.45464" lon="6.73312">
        <ele>462</ele>
        <time>2015-05-17T09:29:48.000Z</time>
      </trkpt>
      <trkpt lat="47.45464" lon="6.73318">
        <ele>462</ele>
        <time>2015-05-17T09:29:49.000Z</time>
      </trkpt>
      <trkpt lat="47.45464" lon="6.73324">
        <ele>462</ele>
        <time>2015-05-17T09:29:50.000Z</time>
      </trkpt>
      <trkpt lat="47.45464" lon="6.73328">
        <ele>463</ele>
        <time>2015-05-17T09:29:51.000Z</time>
      </trkpt>
      <trkpt lat="47.45464" lon="6.73333">
        <ele>463</ele>
        <time>2015-05-17T09:29:52.000Z</time>
      </trkpt>
      <trkpt lat="47.45464" lon="6.73338">
        <ele>464</ele>
        <time>2015-05-17T09:29:53.000Z</time>
      </trkpt>
      <trkpt lat="47.45463" lon="6.73343">
        <ele>464</ele>
        <time>2015-05-17T09:29:54.000Z</time>
      </trkpt>
      <trkpt lat="47.45461" lon="6.73348">
        <ele>464</ele>
        <time>2015-05-17T09:29:55.000Z</time>
      </trkpt>
      <trkpt lat="47.45459" lon="6.73353">
        <ele>464</ele>
        <time>2015-05-17T09:29:56.000Z</time>
      </trkpt>
      <trkpt lat="47.45457" lon="6.73357">
        <ele>464</ele>
        <time>2015-05-17T09:29:57.000Z</time>
      </trkpt>
      <trkpt lat="47.45455" lon="6.73362">
        <ele>464</ele>
        <time>2015-05-17T09:29:58.000Z</time>
      </trkpt>
      <trkpt lat="47.45453" lon="6.73367">
        <ele>464</ele>
        <time>2015-05-17T09:29:59.000Z</time>
      </trkpt>
      <trkpt lat="47.45451" lon="6.73371">
        <ele>464</ele>
        <time>2015-05-17T09:30:00.000Z</time>
      </trkpt>
      <trkpt lat="47.45449" lon="6.73375">
        <ele>464</ele>
        <time>2015-05-17T09:30:01.000Z</time>
      </trkpt>
      <trkpt lat="47.45448" lon="6.7338">
        <ele>464</ele>
        <time>2015-05-17T09:30:02.000Z</time>
      </trkpt>
      <trkpt lat="47.45447" lon="6.73384">
        <ele>464</ele>
        <time>2015-05-17T09:30:03.000Z</time>
      </trkpt>
      <trkpt lat="47.45447" lon="6.73389">
        <ele>464</ele>
        <time>2015-05-17T09:30:04.000Z</time>
      </trkpt>
      <trkpt lat="47.45447" lon="6.73394">
        <ele>464</ele>
        <time>2015-05-17T09:30:05.000Z</time>
      </trkpt>
      <trkpt lat="47.45448" lon="6.734">
        <ele>464</ele>
        <time>2015-05-17T09:30:06.000Z</time>
      </trkpt>
      <trkpt lat="47.45449" lon="6.73406">
        <ele>464</ele>
        <time>2015-05-17T09:30:07.000Z</time>
      </trkpt>
      <trkpt lat="47.4545" lon="6.73412">
        <ele>464</ele>
        <time>2015-05-17T09:30:08.000Z</time>
      </trkpt>
      <trkpt lat="47.45451" lon="6.73419">
        <ele>465</ele>
        <time>2015-05-17T09:30:09.000Z</time>
      </trkpt>
      <trkpt lat="47.45452" lon="6.73426">
        <ele>465</ele>
        <time>2015-05-17T09:30:10.000Z</time>
      </trkpt>
      <trkpt lat="47.45452" lon="6.73432">
        <ele>465</ele>
        <time>2015-05-17T09:30:11.000Z</time>
      </trkpt>
      <trkpt lat="47.45453" lon="6.73439">
        <ele>465</ele>
        <time>2015-05-17T09:30:12.000Z</time>
      </trkpt>
      <trkpt lat="47.45453" lon="6.73446">
        <ele>465</ele>
        <time>2015-05-17T09:30:13.000Z</time>
      </trkpt>
      <trkpt lat="47.45453" lon="6.73453">
        <ele>465</ele>
        <time>2015-05-17T09:30:14.000Z</time>
      </trkpt>
      <trkpt lat="47.45453" lon="6.73459">
        <ele>465</ele>
        <time>2015-05-17T09:30:15.000Z</time>
      </trkpt>
      <trkpt lat="47.45454" lon="6.73465">
        <ele>465</ele>
        <time>2015-05-17T09:30:16.000Z</time>
      </trkpt>
      <trkpt lat="47.45455" lon="6.73471">
        <ele>465</ele>
        <time>2015-05-17T09:30:17.000Z</time>
      </trkpt>
      <trkpt lat="47.45456" lon="6.73476">
        <ele>465</ele>
        <time>2015-05-17T09:30:18.000Z</time>
      </trkpt>
      <trkpt lat="47.45457" lon="6.73482">
        <ele>465</ele>
        <time>2015-05-17T09:30:19.000Z</time>
      </trkpt>
      <trkpt lat="47.45458" lon="6.73488">
        <ele>465</ele>
        <time>2015-05-17T09:30:20.000Z</time>
      </trkpt>
      <trkpt lat="47.4546" lon="6.73494">
        <ele>465</ele>
        <time>2015-05-17T09:30:21.000Z</time>
      </trkpt>
      <trkpt lat="47.45461" lon="6.735">
        <ele>465</ele>
        <time>2015-05-17T09:30:22.000Z</time>
      </trkpt>
      <trkpt lat="47.45462" lon="6.73506">
        <ele>464</ele>
        <time>2015-05-17T09:30:23.000Z</time>
      </trkpt>
      <trkpt lat="47.45464" lon="6.73511">
        <ele>464</ele>
        <time>2015-05-17T09:30:24.000Z</time>
      </trkpt>
      <trkpt lat="47.45465" lon="6.73517">
        <ele>464</ele>
        <time>2015-05-17T09:30:25.000Z</time>
      </trkpt>
      <trkpt lat="47.45466" lon="6.73525">
        <ele>464</ele>
        <time>2015-05-17T09:30:26.000Z</time>
      </trkpt>
      <trkpt lat="47.45467" lon="6.73533">
        <ele>464</ele>
        <time>2015-05-17T09:30:27.000Z</time>
      </trkpt>
      <trkpt lat="47.45467" lon="6.73542">
        <ele>464</ele>
        <time>2015-05-17T09:30:28.000Z</time>
      </trkpt>
      <trkpt lat="47.45468" lon="6.73551">
        <ele>464</ele>
        <time>2015-05-17T09:30:29.000Z</time>
      </trkpt>
      <trkpt lat="47.45469" lon="6.73558">
        <ele>464</ele>
        <time>2015-05-17T09:30:30.000Z</time>
      </trkpt>
      <trkpt lat="47.45471" lon="6.73565">
        <ele>464</ele>
        <time>2015-05-17T09:30:31.000Z</time>
      </trkpt>
      <trkpt lat="47.45473" lon="6.73572">
        <ele>464</ele>
        <time>2015-05-17T09:30:32.000Z</time>
      </trkpt>
      <trkpt lat="47.45474" lon="6.73578">
        <ele>465</ele>
        <time>2015-05-17T09:30:33.000Z</time>
      </trkpt>
      <trkpt lat="47.45476" lon="6.73584">
        <ele>463</ele>
        <time>2015-05-17T09:30:34.000Z</time>
      </trkpt>
      <trkpt lat="47.45478" lon="6.73589">
        <ele>463</ele>
        <time>2015-05-17T09:30:35.000Z</time>
      </trkpt>
      <trkpt lat="47.4548" lon="6.73594">
        <ele>463</ele>
        <time>2015-05-17T09:30:36.000Z</time>
      </trkpt>
      <trkpt lat="47.45482" lon="6.73599">
        <ele>463</ele>
        <time>2015-05-17T09:30:37.000Z</time>
      </trkpt>
      <trkpt lat="47.45484" lon="6.73604">
        <ele>463</ele>
        <time>2015-05-17T09:30:38.000Z</time>
      </trkpt>
      <trkpt lat="47.45487" lon="6.73609">
        <ele>463</ele>
        <time>2015-05-17T09:30:39.000Z</time>
      </trkpt>
      <trkpt lat="47.45489" lon="6.73614">
        <ele>463</ele>
        <time>2015-05-17T09:30:40.000Z</time>
      </trkpt>
      <trkpt lat="47.45492" lon="6.73619">
        <ele>463</ele>
        <time>2015-05-17T09:30:41.000Z</time>
      </trkpt>
      <trkpt lat="47.45495" lon="6.73623">
        <ele>463</ele>
        <time>2015-05-17T09:30:42.000Z</time>
      </trkpt>
      <trkpt lat="47.45498" lon="6.73627">
        <ele>463</ele>
        <time>2015-05-17T09:30:43.000Z</time>
      </trkpt>
      <trkpt lat="47.45502" lon="6.73629">
        <ele>462</ele>
        <time>2015-05-17T09:30:44.000Z</time>
      </trkpt>
      <trkpt lat="47.45505" lon="6.73632">
        <ele>462</ele>
        <time>2015-05-17T09:30:45.000Z</time>
      </trkpt>
      <trkpt lat="47.45508" lon="6.73634">
        <ele>462</ele>
        <time>2015-05-17T09:30:46.000Z</time>
      </trkpt>
      <trkpt lat="47.45511" lon="6.73637">
        <ele>462</ele>
        <time>2015-05-17T09:30:47.000Z</time>
      </trkpt>
      <trkpt lat="47.45514" lon="6.73641">
        <ele>462</ele>
        <time>2015-05-17T09:30:48.000Z</time>
      </trkpt>
      <trkpt lat="47.45517" lon="6.73643">
        <ele>462</ele>
        <time>2015-05-17T09:30:49.000Z</time>
      </trkpt>
      <trkpt lat="47.45521" lon="6.73644">
        <ele>462</ele>
        <time>2015-05-17T09:30:50.000Z</time>
      </trkpt>
      <trkpt lat="47.45525" lon="6.73646">
        <ele>462</ele>
        <time>2015-05-17T09:30:51.000Z</time>
      </trkpt>
      <trkpt lat="47.45529" lon="6.73649">
        <ele>461</ele>
        <time>2015-05-17T09:30:52.000Z</time>
      </trkpt>
      <trkpt lat="47.45533" lon="6.73653">
        <ele>461</ele>
        <time>2015-05-17T09:30:53.000Z</time>
      </trkpt>
      <trkpt lat="47.45537" lon="6.73656">
        <ele>461</ele>
        <time>2015-05-17T09:30:54.000Z</time>
      </trkpt>
      <trkpt lat="47.4554" lon="6.73659">
        <ele>461</ele>
        <time>2015-05-17T09:30:55.000Z</time>
      </trkpt>
      <trkpt lat="47.45543" lon="6.73662">
        <ele>461</ele>
        <time>2015-05-17T09:30:56.000Z</time>
      </trkpt>
      <trkpt lat="47.45545" lon="6.73664">
        <ele>461</ele>
        <time>2015-05-17T09:30:57.000Z</time>
      </trkpt>
      <trkpt lat="47.45547" lon="6.73667">
        <ele>461</ele>
        <time>2015-05-17T09:30:58.000Z</time>
      </trkpt>
      <trkpt lat="47.4555" lon="6.73669">
        <ele>461</ele>
        <time>2015-05-17T09:30:59.000Z</time>
      </trkpt>
      <trkpt lat="47.45552" lon="6.73671">
        <ele>461</ele>
        <time>2015-05-17T09:31:00.000Z</time>
      </trkpt>
      <trkpt lat="47.45555" lon="6.73673">
        <ele>461</ele>
        <time>2015-05-17T09:31:01.000Z</time>
      </trkpt>
      <trkpt lat="47.45557" lon="6.73675">
        <ele>461</ele>
        <time>2015-05-17T09:31:02.000Z</time>
      </trkpt>
      <trkpt lat="47.4556" lon="6.73678">
        <ele>461</ele>
        <time>2015-05-17T09:31:03.000Z</time>
      </trkpt>
      <trkpt lat="47.45563" lon="6.73681">
        <ele>461</ele>
        <time>2015-05-17T09:31:04.000Z</time>
      </trkpt>
      <trkpt lat="47.45566" lon="6.73681">
        <ele>461</ele>
        <time>2015-05-17T09:31:05.000Z</time>
      </trkpt>
      <trkpt lat="47.45571" lon="6.73679">
        <ele>461</ele>
        <time>2015-05-17T09:31:06.000Z</time>
      </trkpt>
      <trkpt lat="47.45575" lon="6.73675">
        <ele>461</ele>
        <time>2015-05-17T09:31:07.000Z</time>
      </trkpt>
      <trkpt lat="47.4558" lon="6.73672">
        <ele>460</ele>
        <time>2015-05-17T09:31:08.000Z</time>
      </trkpt>
      <trkpt lat="47.45585" lon="6.73671">
        <ele>459</ele>
        <time>2015-05-17T09:31:09.000Z</time>
      </trkpt>
      <trkpt lat="47.4559" lon="6.73672">
        <ele>459</ele>
        <time>2015-05-17T09:31:10.000Z</time>
      </trkpt>
      <trkpt lat="47.45593" lon="6.73675">
        <ele>459</ele>
        <time>2015-05-17T09:31:11.000Z</time>
      </trkpt>
      <trkpt lat="47.45596" lon="6.73679">
        <ele>459</ele>
        <time>2015-05-17T09:31:12.000Z</time>
      </trkpt>
      <trkpt lat="47.45598" lon="6.73683">
        <ele>458</ele>
        <time>2015-05-17T09:31:13.000Z</time>
      </trkpt>
      <trkpt lat="47.456" lon="6.73687">
        <ele>458</ele>
        <time>2015-05-17T09:31:14.000Z</time>
      </trkpt>
      <trkpt lat="47.45602" lon="6.73691">
        <ele>458</ele>
        <time>2015-05-17T09:31:15.000Z</time>
      </trkpt>
      <trkpt lat="47.45605" lon="6.73695">
        <ele>458</ele>
        <time>2015-05-17T09:31:16.000Z</time>
      </trkpt>
      <trkpt lat="47.45607" lon="6.73699">
        <ele>458</ele>
        <time>2015-05-17T09:31:18.000Z</time>
      </trkpt>
      <trkpt lat="47.45607" lon="6.737">
        <ele>458</ele>
        <time>2015-05-17T09:31:19.000Z</time>
      </trkpt>
      <trkpt lat="47.45611" lon="6.73703">
        <ele>458</ele>
        <time>2015-05-17T09:31:31.000Z</time>
      </trkpt>
      <trkpt lat="47.45612" lon="6.73704">
        <ele>458</ele>
        <time>2015-05-17T09:31:32.000Z</time>
      </trkpt>
      <trkpt lat="47.45614" lon="6.73703">
        <ele>457</ele>
        <time>2015-05-17T09:31:33.000Z</time>
      </trkpt>
      <trkpt lat="47.45618" lon="6.73702">
        <ele>457</ele>
        <time>2015-05-17T09:31:34.000Z</time>
      </trkpt>
      <trkpt lat="47.45622" lon="6.73701">
        <ele>457</ele>
        <time>2015-05-17T09:31:35.000Z</time>
      </trkpt>
      <trkpt lat="47.45625" lon="6.737">
        <ele>457</ele>
        <time>2015-05-17T09:31:36.000Z</time>
      </trkpt>
      <trkpt lat="47.45628" lon="6.73701">
        <ele>457</ele>
        <time>2015-05-17T09:31:37.000Z</time>
      </trkpt>
      <trkpt lat="47.4563" lon="6.73703">
        <ele>457</ele>
        <time>2015-05-17T09:31:38.000Z</time>
      </trkpt>
      <trkpt lat="47.45631" lon="6.73706">
        <ele>457</ele>
        <time>2015-05-17T09:31:39.000Z</time>
      </trkpt>
      <trkpt lat="47.45631" lon="6.7371">
        <ele>457</ele>
        <time>2015-05-17T09:31:40.000Z</time>
      </trkpt>
      <trkpt lat="47.45631" lon="6.73713">
        <ele>457</ele>
        <time>2015-05-17T09:31:41.000Z</time>
      </trkpt>
      <trkpt lat="47.4563" lon="6.73717">
        <ele>457</ele>
        <time>2015-05-17T09:31:42.000Z</time>
      </trkpt>
      <trkpt lat="47.45628" lon="6.73723">
        <ele>457</ele>
        <time>2015-05-17T09:31:44.000Z</time>
      </trkpt>
      <trkpt lat="47.45628" lon="6.73725">
        <ele>457</ele>
        <time>2015-05-17T09:31:45.000Z</time>
      </trkpt>
      <trkpt lat="47.45626" lon="6.7373">
        <ele>457</ele>
        <time>2015-05-17T09:31:47.000Z</time>
      </trkpt>
      <trkpt lat="47.45625" lon="6.73733">
        <ele>457</ele>
        <time>2015-05-17T09:31:48.000Z</time>
      </trkpt>
      <trkpt lat="47.45624" lon="6.73736">
        <ele>457</ele>
        <time>2015-05-17T09:31:49.000Z</time>
      </trkpt>
      <trkpt lat="47.45623" lon="6.7374">
        <ele>457</ele>
        <time>2015-05-17T09:31:50.000Z</time>
      </trkpt>
      <trkpt lat="47.45622" lon="6.73744">
        <ele>457</ele>
        <time>2015-05-17T09:31:51.000Z</time>
      </trkpt>
      <trkpt lat="47.45621" lon="6.7375">
        <ele>457</ele>
        <time>2015-05-17T09:31:52.000Z</time>
      </trkpt>
      <trkpt lat="47.4562" lon="6.73771">
        <ele>457</ele>
        <time>2015-05-17T09:31:53.000Z</time>
      </trkpt>
      <trkpt lat="47.45619" lon="6.7378">
        <ele>457</ele>
        <time>2015-05-17T09:31:54.000Z</time>
      </trkpt>
      <trkpt lat="47.45619" lon="6.73786">
        <ele>457</ele>
        <time>2015-05-17T09:31:55.000Z</time>
      </trkpt>
      <trkpt lat="47.45618" lon="6.73792">
        <ele>457</ele>
        <time>2015-05-17T09:31:56.000Z</time>
      </trkpt>
      <trkpt lat="47.45615" lon="6.73798">
        <ele>457</ele>
        <time>2015-05-17T09:31:57.000Z</time>
      </trkpt>
      <trkpt lat="47.45611" lon="6.738">
        <ele>457</ele>
        <time>2015-05-17T09:31:59.000Z</time>
      </trkpt>
      <trkpt lat="47.4561" lon="6.73802">
        <ele>457</ele>
        <time>2015-05-17T09:32:00.000Z</time>
      </trkpt>
      <trkpt lat="47.45607" lon="6.73808">
        <ele>457</ele>
        <time>2015-05-17T09:32:01.000Z</time>
      </trkpt>
      <trkpt lat="47.45607" lon="6.73812">
        <ele>457</ele>
        <time>2015-05-17T09:32:02.000Z</time>
      </trkpt>
      <trkpt lat="47.45606" lon="6.73818">
        <ele>457</ele>
        <time>2015-05-17T09:32:03.000Z</time>
      </trkpt>
      <trkpt lat="47.45606" lon="6.73827">
        <ele>457</ele>
        <time>2015-05-17T09:32:04.000Z</time>
      </trkpt>
      <trkpt lat="47.45607" lon="6.73834">
        <ele>457</ele>
        <time>2015-05-17T09:32:05.000Z</time>
      </trkpt>
      <trkpt lat="47.45607" lon="6.73842">
        <ele>457</ele>
        <time>2015-05-17T09:32:06.000Z</time>
      </trkpt>
      <trkpt lat="47.45607" lon="6.73841">
        <ele>457</ele>
        <time>2015-05-17T09:32:07.000Z</time>
      </trkpt>
      <trkpt lat="47.45609" lon="6.7385">
        <ele>456</ele>
        <time>2015-05-17T09:32:08.000Z</time>
      </trkpt>
      <trkpt lat="47.45611" lon="6.73857">
        <ele>456</ele>
        <time>2015-05-17T09:32:09.000Z</time>
      </trkpt>
      <trkpt lat="47.45616" lon="6.73865">
        <ele>456</ele>
        <time>2015-05-17T09:32:10.000Z</time>
      </trkpt>
      <trkpt lat="47.4562" lon="6.73874">
        <ele>456</ele>
        <time>2015-05-17T09:32:11.000Z</time>
      </trkpt>
      <trkpt lat="47.45625" lon="6.73883">
        <ele>456</ele>
        <time>2015-05-17T09:32:12.000Z</time>
      </trkpt>
      <trkpt lat="47.45631" lon="6.73894">
        <ele>455</ele>
        <time>2015-05-17T09:32:13.000Z</time>
      </trkpt>
      <trkpt lat="47.45638" lon="6.73912">
        <ele>455</ele>
        <time>2015-05-17T09:32:14.000Z</time>
      </trkpt>
      <trkpt lat="47.45645" lon="6.73928">
        <ele>454</ele>
        <time>2015-05-17T09:32:15.000Z</time>
      </trkpt>
      <trkpt lat="47.4565" lon="6.73943">
        <ele>455</ele>
        <time>2015-05-17T09:32:16.000Z</time>
      </trkpt>
      <trkpt lat="47.45656" lon="6.73956">
        <ele>455</ele>
        <time>2015-05-17T09:32:17.000Z</time>
      </trkpt>
      <trkpt lat="47.45663" lon="6.73969">
        <ele>455</ele>
        <time>2015-05-17T09:32:18.000Z</time>
      </trkpt>
      <trkpt lat="47.45668" lon="6.73981">
        <ele>450</ele>
        <time>2015-05-17T09:32:19.000Z</time>
      </trkpt>
      <trkpt lat="47.45672" lon="6.73991">
        <ele>451</ele>
        <time>2015-05-17T09:32:20.000Z</time>
      </trkpt>
      <trkpt lat="47.45675" lon="6.73999">
        <ele>451</ele>
        <time>2015-05-17T09:32:21.000Z</time>
      </trkpt>
      <trkpt lat="47.45679" lon="6.74008">
        <ele>450</ele>
        <time>2015-05-17T09:32:22.000Z</time>
      </trkpt>
      <trkpt lat="47.45686" lon="6.74017">
        <ele>448</ele>
        <time>2015-05-17T09:32:23.000Z</time>
      </trkpt>
      <trkpt lat="47.45694" lon="6.74024">
        <ele>447</ele>
        <time>2015-05-17T09:32:24.000Z</time>
      </trkpt>
      <trkpt lat="47.45699" lon="6.74025">
        <ele>447</ele>
        <time>2015-05-17T09:32:25.000Z</time>
      </trkpt>
      <trkpt lat="47.45705" lon="6.74031">
        <ele>446</ele>
        <time>2015-05-17T09:32:26.000Z</time>
      </trkpt>
      <trkpt lat="47.45709" lon="6.74039">
        <ele>446</ele>
        <time>2015-05-17T09:32:27.000Z</time>
      </trkpt>
      <trkpt lat="47.45712" lon="6.74046">
        <ele>445</ele>
        <time>2015-05-17T09:32:28.000Z</time>
      </trkpt>
      <trkpt lat="47.45715" lon="6.74053">
        <ele>445</ele>
        <time>2015-05-17T09:32:29.000Z</time>
      </trkpt>
      <trkpt lat="47.45717" lon="6.74058">
        <ele>444</ele>
        <time>2015-05-17T09:32:30.000Z</time>
      </trkpt>
      <trkpt lat="47.45721" lon="6.74061">
        <ele>444</ele>
        <time>2015-05-17T09:32:31.000Z</time>
      </trkpt>
      <trkpt lat="47.45724" lon="6.74064">
        <ele>443</ele>
        <time>2015-05-17T09:32:32.000Z</time>
      </trkpt>
      <trkpt lat="47.45729" lon="6.74069">
        <ele>443</ele>
        <time>2015-05-17T09:32:33.000Z</time>
      </trkpt>
      <trkpt lat="47.45734" lon="6.74073">
        <ele>442</ele>
        <time>2015-05-17T09:32:34.000Z</time>
      </trkpt>
      <trkpt lat="47.45736" lon="6.74083">
        <ele>441</ele>
        <time>2015-05-17T09:32:35.000Z</time>
      </trkpt>
      <trkpt lat="47.45739" lon="6.74094">
        <ele>439</ele>
        <time>2015-05-17T09:32:36.000Z</time>
      </trkpt>
      <trkpt lat="47.45743" lon="6.74105">
        <ele>439</ele>
        <time>2015-05-17T09:32:37.000Z</time>
      </trkpt>
      <trkpt lat="47.45748" lon="6.74115">
        <ele>439</ele>
        <time>2015-05-17T09:32:38.000Z</time>
      </trkpt>
      <trkpt lat="47.45753" lon="6.74124">
        <ele>433</ele>
        <time>2015-05-17T09:32:39.000Z</time>
      </trkpt>
      <trkpt lat="47.45756" lon="6.74131">
        <ele>433</ele>
        <time>2015-05-17T09:32:40.000Z</time>
      </trkpt>
      <trkpt lat="47.45758" lon="6.74143">
        <ele>432</ele>
        <time>2015-05-17T09:32:41.000Z</time>
      </trkpt>
      <trkpt lat="47.45762" lon="6.74151">
        <ele>432</ele>
        <time>2015-05-17T09:32:42.000Z</time>
      </trkpt>
      <trkpt lat="47.45763" lon="6.74157">
        <ele>432</ele>
        <time>2015-05-17T09:32:43.000Z</time>
      </trkpt>
      <trkpt lat="47.45767" lon="6.7416">
        <ele>432</ele>
        <time>2015-05-17T09:32:44.000Z</time>
      </trkpt>
      <trkpt lat="47.45771" lon="6.74163">
        <ele>432</ele>
        <time>2015-05-17T09:32:45.000Z</time>
      </trkpt>
      <trkpt lat="47.45774" lon="6.74165">
        <ele>432</ele>
        <time>2015-05-17T09:32:46.000Z</time>
      </trkpt>
      <trkpt lat="47.45778" lon="6.74168">
        <ele>427</ele>
        <time>2015-05-17T09:32:47.000Z</time>
      </trkpt>
      <trkpt lat="47.45781" lon="6.74174">
        <ele>426</ele>
        <time>2015-05-17T09:32:48.000Z</time>
      </trkpt>
      <trkpt lat="47.45785" lon="6.7418">
        <ele>426</ele>
        <time>2015-05-17T09:32:49.000Z</time>
      </trkpt>
      <trkpt lat="47.45789" lon="6.74184">
        <ele>426</ele>
        <time>2015-05-17T09:32:50.000Z</time>
      </trkpt>
      <trkpt lat="47.45793" lon="6.74188">
        <ele>425</ele>
        <time>2015-05-17T09:32:51.000Z</time>
      </trkpt>
      <trkpt lat="47.45797" lon="6.74191">
        <ele>425</ele>
        <time>2015-05-17T09:32:52.000Z</time>
      </trkpt>
      <trkpt lat="47.45801" lon="6.74195">
        <ele>424</ele>
        <time>2015-05-17T09:32:53.000Z</time>
      </trkpt>
      <trkpt lat="47.45804" lon="6.74198">
        <ele>424</ele>
        <time>2015-05-17T09:32:54.000Z</time>
      </trkpt>
      <trkpt lat="47.45809" lon="6.74201">
        <ele>424</ele>
        <time>2015-05-17T09:32:55.000Z</time>
      </trkpt>
      <trkpt lat="47.45813" lon="6.74204">
        <ele>423</ele>
        <time>2015-05-17T09:32:56.000Z</time>
      </trkpt>
      <trkpt lat="47.45817" lon="6.74206">
        <ele>423</ele>
        <time>2015-05-17T09:32:57.000Z</time>
      </trkpt>
      <trkpt lat="47.45821" lon="6.74208">
        <ele>423</ele>
        <time>2015-05-17T09:32:58.000Z</time>
      </trkpt>
      <trkpt lat="47.45826" lon="6.7421">
        <ele>422</ele>
        <time>2015-05-17T09:32:59.000Z</time>
      </trkpt>
      <trkpt lat="47.4583" lon="6.74211">
        <ele>422</ele>
        <time>2015-05-17T09:33:00.000Z</time>
      </trkpt>
      <trkpt lat="47.45835" lon="6.74212">
        <ele>418</ele>
        <time>2015-05-17T09:33:01.000Z</time>
      </trkpt>
      <trkpt lat="47.45839" lon="6.74213">
        <ele>418</ele>
        <time>2015-05-17T09:33:02.000Z</time>
      </trkpt>
      <trkpt lat="47.45844" lon="6.74214">
        <ele>418</ele>
        <time>2015-05-17T09:33:03.000Z</time>
      </trkpt>
      <trkpt lat="47.45848" lon="6.74215">
        <ele>418</ele>
        <time>2015-05-17T09:33:04.000Z</time>
      </trkpt>
      <trkpt lat="47.45852" lon="6.74215">
        <ele>418</ele>
        <time>2015-05-17T09:33:05.000Z</time>
      </trkpt>
      <trkpt lat="47.45857" lon="6.74217">
        <ele>417</ele>
        <time>2015-05-17T09:33:06.000Z</time>
      </trkpt>
      <trkpt lat="47.45862" lon="6.74217">
        <ele>417</ele>
        <time>2015-05-17T09:33:07.000Z</time>
      </trkpt>
      <trkpt lat="47.45867" lon="6.74217">
        <ele>417</ele>
        <time>2015-05-17T09:33:08.000Z</time>
      </trkpt>
      <trkpt lat="47.45871" lon="6.74217">
        <ele>417</ele>
        <time>2015-05-17T09:33:09.000Z</time>
      </trkpt>
      <trkpt lat="47.45875" lon="6.74217">
        <ele>417</ele>
        <time>2015-05-17T09:33:10.000Z</time>
      </trkpt>
      <trkpt lat="47.45879" lon="6.74217">
        <ele>417</ele>
        <time>2015-05-17T09:33:11.000Z</time>
      </trkpt>
      <trkpt lat="47.45882" lon="6.74217">
        <ele>417</ele>
        <time>2015-05-17T09:33:12.000Z</time>
      </trkpt>
      <trkpt lat="47.45886" lon="6.74217">
        <ele>417</ele>
        <time>2015-05-17T09:33:13.000Z</time>
      </trkpt>
      <trkpt lat="47.45889" lon="6.74218">
        <ele>416</ele>
        <time>2015-05-17T09:33:14.000Z</time>
      </trkpt>
      <trkpt lat="47.45893" lon="6.74218">
        <ele>416</ele>
        <time>2015-05-17T09:33:15.000Z</time>
      </trkpt>
      <trkpt lat="47.45897" lon="6.74219">
        <ele>416</ele>
        <time>2015-05-17T09:33:16.000Z</time>
      </trkpt>
      <trkpt lat="47.459" lon="6.74219">
        <ele>416</ele>
        <time>2015-05-17T09:33:17.000Z</time>
      </trkpt>
      <trkpt lat="47.45903" lon="6.74219">
        <ele>416</ele>
        <time>2015-05-17T09:33:18.000Z</time>
      </trkpt>
      <trkpt lat="47.45906" lon="6.7422">
        <ele>415</ele>
        <time>2015-05-17T09:33:19.000Z</time>
      </trkpt>
      <trkpt lat="47.45909" lon="6.74222">
        <ele>415</ele>
        <time>2015-05-17T09:33:20.000Z</time>
      </trkpt>
      <trkpt lat="47.45912" lon="6.74223">
        <ele>415</ele>
        <time>2015-05-17T09:33:21.000Z</time>
      </trkpt>
      <trkpt lat="47.45915" lon="6.74225">
        <ele>414</ele>
        <time>2015-05-17T09:33:22.000Z</time>
      </trkpt>
      <trkpt lat="47.45918" lon="6.74225">
        <ele>413</ele>
        <time>2015-05-17T09:33:23.000Z</time>
      </trkpt>
      <trkpt lat="47.45921" lon="6.74225">
        <ele>413</ele>
        <time>2015-05-17T09:33:24.000Z</time>
      </trkpt>
      <trkpt lat="47.45924" lon="6.74225">
        <ele>413</ele>
        <time>2015-05-17T09:33:25.000Z</time>
      </trkpt>
      <trkpt lat="47.45927" lon="6.74225">
        <ele>414</ele>
        <time>2015-05-17T09:33:26.000Z</time>
      </trkpt>
      <trkpt lat="47.45931" lon="6.74225">
        <ele>414</ele>
        <time>2015-05-17T09:33:27.000Z</time>
      </trkpt>
      <trkpt lat="47.45935" lon="6.74225">
        <ele>414</ele>
        <time>2015-05-17T09:33:28.000Z</time>
      </trkpt>
      <trkpt lat="47.45938" lon="6.74227">
        <ele>414</ele>
        <time>2015-05-17T09:33:29.000Z</time>
      </trkpt>
      <trkpt lat="47.45942" lon="6.74228">
        <ele>414</ele>
        <time>2015-05-17T09:33:30.000Z</time>
      </trkpt>
      <trkpt lat="47.45945" lon="6.7423">
        <ele>414</ele>
        <time>2015-05-17T09:33:31.000Z</time>
      </trkpt>
      <trkpt lat="47.45948" lon="6.74233">
        <ele>414</ele>
        <time>2015-05-17T09:33:32.000Z</time>
      </trkpt>
      <trkpt lat="47.45952" lon="6.74236">
        <ele>414</ele>
        <time>2015-05-17T09:33:33.000Z</time>
      </trkpt>
      <trkpt lat="47.45956" lon="6.74239">
        <ele>414</ele>
        <time>2015-05-17T09:33:34.000Z</time>
      </trkpt>
      <trkpt lat="47.45961" lon="6.74243">
        <ele>414</ele>
        <time>2015-05-17T09:33:35.000Z</time>
      </trkpt>
      <trkpt lat="47.45966" lon="6.74245">
        <ele>414</ele>
        <time>2015-05-17T09:33:36.000Z</time>
      </trkpt>
      <trkpt lat="47.4597" lon="6.74247">
        <ele>414</ele>
        <time>2015-05-17T09:33:37.000Z</time>
      </trkpt>
      <trkpt lat="47.45975" lon="6.74247">
        <ele>413</ele>
        <time>2015-05-17T09:33:38.000Z</time>
      </trkpt>
      <trkpt lat="47.45979" lon="6.74246">
        <ele>413</ele>
        <time>2015-05-17T09:33:39.000Z</time>
      </trkpt>
      <trkpt lat="47.45983" lon="6.74245">
        <ele>413</ele>
        <time>2015-05-17T09:33:40.000Z</time>
      </trkpt>
      <trkpt lat="47.45987" lon="6.74244">
        <ele>413</ele>
        <time>2015-05-17T09:33:41.000Z</time>
      </trkpt>
      <trkpt lat="47.4599" lon="6.74243">
        <ele>413</ele>
        <time>2015-05-17T09:33:42.000Z</time>
      </trkpt>
      <trkpt lat="47.45994" lon="6.74242">
        <ele>413</ele>
        <time>2015-05-17T09:33:43.000Z</time>
      </trkpt>
      <trkpt lat="47.45998" lon="6.74241">
        <ele>412</ele>
        <time>2015-05-17T09:33:44.000Z</time>
      </trkpt>
      <trkpt lat="47.46002" lon="6.74241">
        <ele>413</ele>
        <time>2015-05-17T09:33:45.000Z</time>
      </trkpt>
      <trkpt lat="47.46006" lon="6.7424">
        <ele>413</ele>
        <time>2015-05-17T09:33:46.000Z</time>
      </trkpt>
      <trkpt lat="47.4601" lon="6.74239">
        <ele>414</ele>
        <time>2015-05-17T09:33:47.000Z</time>
      </trkpt>
      <trkpt lat="47.46014" lon="6.74238">
        <ele>414</ele>
        <time>2015-05-17T09:33:48.000Z</time>
      </trkpt>
      <trkpt lat="47.46017" lon="6.74237">
        <ele>415</ele>
        <time>2015-05-17T09:33:49.000Z</time>
      </trkpt>
      <trkpt lat="47.4602" lon="6.74236">
        <ele>415</ele>
        <time>2015-05-17T09:33:50.000Z</time>
      </trkpt>
      <trkpt lat="47.46022" lon="6.74236">
        <ele>415</ele>
        <time>2015-05-17T09:33:51.000Z</time>
      </trkpt>
      <trkpt lat="47.46025" lon="6.74235">
        <ele>415</ele>
        <time>2015-05-17T09:33:52.000Z</time>
      </trkpt>
      <trkpt lat="47.46028" lon="6.74235">
        <ele>416</ele>
        <time>2015-05-17T09:33:53.000Z</time>
      </trkpt>
      <trkpt lat="47.4603" lon="6.74236">
        <ele>416</ele>
        <time>2015-05-17T09:33:54.000Z</time>
      </trkpt>
      <trkpt lat="47.46033" lon="6.74236">
        <ele>416</ele>
        <time>2015-05-17T09:33:55.000Z</time>
      </trkpt>
      <trkpt lat="47.46037" lon="6.74237">
        <ele>416</ele>
        <time>2015-05-17T09:33:56.000Z</time>
      </trkpt>
      <trkpt lat="47.4604" lon="6.74237">
        <ele>416</ele>
        <time>2015-05-17T09:33:57.000Z</time>
      </trkpt>
      <trkpt lat="47.46044" lon="6.74237">
        <ele>416</ele>
        <time>2015-05-17T09:33:58.000Z</time>
      </trkpt>
      <trkpt lat="47.46047" lon="6.74236">
        <ele>416</ele>
        <time>2015-05-17T09:33:59.000Z</time>
      </trkpt>
      <trkpt lat="47.46051" lon="6.74235">
        <ele>416</ele>
        <time>2015-05-17T09:34:00.000Z</time>
      </trkpt>
      <trkpt lat="47.46054" lon="6.74234">
        <ele>416</ele>
        <time>2015-05-17T09:34:01.000Z</time>
      </trkpt>
      <trkpt lat="47.46058" lon="6.74233">
        <ele>416</ele>
        <time>2015-05-17T09:34:02.000Z</time>
      </trkpt>
      <trkpt lat="47.46061" lon="6.74233">
        <ele>416</ele>
        <time>2015-05-17T09:34:03.000Z</time>
      </trkpt>
      <trkpt lat="47.46064" lon="6.74234">
        <ele>416</ele>
        <time>2015-05-17T09:34:04.000Z</time>
      </trkpt>
      <trkpt lat="47.46067" lon="6.74234">
        <ele>416</ele>
        <time>2015-05-17T09:34:05.000Z</time>
      </trkpt>
      <trkpt lat="47.46069" lon="6.74235">
        <ele>416</ele>
        <time>2015-05-17T09:34:06.000Z</time>
      </trkpt>
      <trkpt lat="47.46072" lon="6.74236">
        <ele>416</ele>
        <time>2015-05-17T09:34:07.000Z</time>
      </trkpt>
      <trkpt lat="47.46075" lon="6.74238">
        <ele>416</ele>
        <time>2015-05-17T09:34:08.000Z</time>
      </trkpt>
      <trkpt lat="47.46078" lon="6.74241">
        <ele>415</ele>
        <time>2015-05-17T09:34:09.000Z</time>
      </trkpt>
      <trkpt lat="47.46081" lon="6.74243">
        <ele>415</ele>
        <time>2015-05-17T09:34:10.000Z</time>
      </trkpt>
      <trkpt lat="47.46085" lon="6.74246">
        <ele>415</ele>
        <time>2015-05-17T09:34:11.000Z</time>
      </trkpt>
      <trkpt lat="47.46089" lon="6.74248">
        <ele>415</ele>
        <time>2015-05-17T09:34:12.000Z</time>
      </trkpt>
      <trkpt lat="47.46092" lon="6.74249">
        <ele>415</ele>
        <time>2015-05-17T09:34:13.000Z</time>
      </trkpt>
      <trkpt lat="47.46096" lon="6.74249">
        <ele>416</ele>
        <time>2015-05-17T09:34:14.000Z</time>
      </trkpt>
      <trkpt lat="47.46099" lon="6.7425">
        <ele>416</ele>
        <time>2015-05-17T09:34:15.000Z</time>
      </trkpt>
      <trkpt lat="47.46102" lon="6.74251">
        <ele>409</ele>
        <time>2015-05-17T09:34:16.000Z</time>
      </trkpt>
      <trkpt lat="47.46106" lon="6.74251">
        <ele>409</ele>
        <time>2015-05-17T09:34:17.000Z</time>
      </trkpt>
      <trkpt lat="47.4611" lon="6.74253">
        <ele>408</ele>
        <time>2015-05-17T09:34:18.000Z</time>
      </trkpt>
      <trkpt lat="47.46114" lon="6.74254">
        <ele>408</ele>
        <time>2015-05-17T09:34:19.000Z</time>
      </trkpt>
      <trkpt lat="47.46118" lon="6.74255">
        <ele>408</ele>
        <time>2015-05-17T09:34:20.000Z</time>
      </trkpt>
      <trkpt lat="47.46122" lon="6.74256">
        <ele>408</ele>
        <time>2015-05-17T09:34:21.000Z</time>
      </trkpt>
      <trkpt lat="47.46126" lon="6.74257">
        <ele>407</ele>
        <time>2015-05-17T09:34:22.000Z</time>
      </trkpt>
      <trkpt lat="47.46129" lon="6.74258">
        <ele>408</ele>
        <time>2015-05-17T09:34:23.000Z</time>
      </trkpt>
      <trkpt lat="47.46133" lon="6.74258">
        <ele>408</ele>
        <time>2015-05-17T09:34:24.000Z</time>
      </trkpt>
      <trkpt lat="47.46136" lon="6.74258">
        <ele>408</ele>
        <time>2015-05-17T09:34:25.000Z</time>
      </trkpt>
      <trkpt lat="47.46139" lon="6.74258">
        <ele>408</ele>
        <time>2015-05-17T09:34:26.000Z</time>
      </trkpt>
      <trkpt lat="47.46143" lon="6.74257">
        <ele>409</ele>
        <time>2015-05-17T09:34:27.000Z</time>
      </trkpt>
      <trkpt lat="47.46146" lon="6.74256">
        <ele>409</ele>
        <time>2015-05-17T09:34:28.000Z</time>
      </trkpt>
      <trkpt lat="47.4615" lon="6.74255">
        <ele>410</ele>
        <time>2015-05-17T09:34:29.000Z</time>
      </trkpt>
      <trkpt lat="47.46153" lon="6.74254">
        <ele>410</ele>
        <time>2015-05-17T09:34:30.000Z</time>
      </trkpt>
      <trkpt lat="47.46158" lon="6.74255">
        <ele>411</ele>
        <time>2015-05-17T09:34:31.000Z</time>
      </trkpt>
      <trkpt lat="47.46162" lon="6.74256">
        <ele>412</ele>
        <time>2015-05-17T09:34:32.000Z</time>
      </trkpt>
      <trkpt lat="47.46166" lon="6.74258">
        <ele>412</ele>
        <time>2015-05-17T09:34:33.000Z</time>
      </trkpt>
      <trkpt lat="47.4617" lon="6.7426">
        <ele>412</ele>
        <time>2015-05-17T09:34:34.000Z</time>
      </trkpt>
      <trkpt lat="47.46173" lon="6.74261">
        <ele>411</ele>
        <time>2015-05-17T09:34:35.000Z</time>
      </trkpt>
      <trkpt lat="47.46177" lon="6.74262">
        <ele>410</ele>
        <time>2015-05-17T09:34:36.000Z</time>
      </trkpt>
      <trkpt lat="47.46181" lon="6.74264">
        <ele>409</ele>
        <time>2015-05-17T09:34:37.000Z</time>
      </trkpt>
      <trkpt lat="47.46185" lon="6.74265">
        <ele>409</ele>
        <time>2015-05-17T09:34:38.000Z</time>
      </trkpt>
      <trkpt lat="47.46189" lon="6.74267">
        <ele>408</ele>
        <time>2015-05-17T09:34:39.000Z</time>
      </trkpt>
      <trkpt lat="47.46192" lon="6.74268">
        <ele>408</ele>
        <time>2015-05-17T09:34:40.000Z</time>
      </trkpt>
      <trkpt lat="47.46196" lon="6.74269">
        <ele>408</ele>
        <time>2015-05-17T09:34:41.000Z</time>
      </trkpt>
      <trkpt lat="47.462" lon="6.7427">
        <ele>407</ele>
        <time>2015-05-17T09:34:42.000Z</time>
      </trkpt>
      <trkpt lat="47.46204" lon="6.74272">
        <ele>407</ele>
        <time>2015-05-17T09:34:43.000Z</time>
      </trkpt>
      <trkpt lat="47.46208" lon="6.74273">
        <ele>407</ele>
        <time>2015-05-17T09:34:44.000Z</time>
      </trkpt>
      <trkpt lat="47.46212" lon="6.74275">
        <ele>407</ele>
        <time>2015-05-17T09:34:45.000Z</time>
      </trkpt>
      <trkpt lat="47.46216" lon="6.74276">
        <ele>407</ele>
        <time>2015-05-17T09:34:46.000Z</time>
      </trkpt>
      <trkpt lat="47.4622" lon="6.74278">
        <ele>407</ele>
        <time>2015-05-17T09:34:47.000Z</time>
      </trkpt>
      <trkpt lat="47.46224" lon="6.74278">
        <ele>407</ele>
        <time>2015-05-17T09:34:48.000Z</time>
      </trkpt>
      <trkpt lat="47.46229" lon="6.74279">
        <ele>407</ele>
        <time>2015-05-17T09:34:49.000Z</time>
      </trkpt>
      <trkpt lat="47.46233" lon="6.7428">
        <ele>407</ele>
        <time>2015-05-17T09:34:50.000Z</time>
      </trkpt>
      <trkpt lat="47.46237" lon="6.74281">
        <ele>407</ele>
        <time>2015-05-17T09:34:51.000Z</time>
      </trkpt>
      <trkpt lat="47.46242" lon="6.74283">
        <ele>406</ele>
        <time>2015-05-17T09:34:52.000Z</time>
      </trkpt>
      <trkpt lat="47.46247" lon="6.74284">
        <ele>406</ele>
        <time>2015-05-17T09:34:53.000Z</time>
      </trkpt>
      <trkpt lat="47.46251" lon="6.74286">
        <ele>407</ele>
        <time>2015-05-17T09:34:54.000Z</time>
      </trkpt>
      <trkpt lat="47.46255" lon="6.74288">
        <ele>407</ele>
        <time>2015-05-17T09:34:55.000Z</time>
      </trkpt>
      <trkpt lat="47.46259" lon="6.74288">
        <ele>407</ele>
        <time>2015-05-17T09:34:56.000Z</time>
      </trkpt>
      <trkpt lat="47.46262" lon="6.74287">
        <ele>407</ele>
        <time>2015-05-17T09:34:57.000Z</time>
      </trkpt>
      <trkpt lat="47.46265" lon="6.74285">
        <ele>407</ele>
        <time>2015-05-17T09:34:58.000Z</time>
      </trkpt>
      <trkpt lat="47.46268" lon="6.74284">
        <ele>408</ele>
        <time>2015-05-17T09:34:59.000Z</time>
      </trkpt>
      <trkpt lat="47.4627" lon="6.74283">
        <ele>408</ele>
        <time>2015-05-17T09:35:00.000Z</time>
      </trkpt>
      <trkpt lat="47.46275" lon="6.74284">
        <ele>408</ele>
        <time>2015-05-17T09:35:04.000Z</time>
      </trkpt>
      <trkpt lat="47.46277" lon="6.74286">
        <ele>407</ele>
        <time>2015-05-17T09:35:05.000Z</time>
      </trkpt>
      <trkpt lat="47.4628" lon="6.74289">
        <ele>407</ele>
        <time>2015-05-17T09:35:06.000Z</time>
      </trkpt>
      <trkpt lat="47.46283" lon="6.74292">
        <ele>407</ele>
        <time>2015-05-17T09:35:07.000Z</time>
      </trkpt>
      <trkpt lat="47.46286" lon="6.74294">
        <ele>407</ele>
        <time>2015-05-17T09:35:08.000Z</time>
      </trkpt>
      <trkpt lat="47.46288" lon="6.74295">
        <ele>407</ele>
        <time>2015-05-17T09:35:09.000Z</time>
      </trkpt>
      <trkpt lat="47.46291" lon="6.74295">
        <ele>407</ele>
        <time>2015-05-17T09:35:10.000Z</time>
      </trkpt>
      <trkpt lat="47.46293" lon="6.74295">
        <ele>407</ele>
        <time>2015-05-17T09:35:11.000Z</time>
      </trkpt>
      <trkpt lat="47.46298" lon="6.74295">
        <ele>407</ele>
        <time>2015-05-17T09:35:13.000Z</time>
      </trkpt>
      <trkpt lat="47.463" lon="6.74295">
        <ele>407</ele>
        <time>2015-05-17T09:35:14.000Z</time>
      </trkpt>
      <trkpt lat="47.46303" lon="6.74298">
        <ele>407</ele>
        <time>2015-05-17T09:35:16.000Z</time>
      </trkpt>
      <trkpt lat="47.46305" lon="6.743">
        <ele>407</ele>
        <time>2015-05-17T09:35:17.000Z</time>
      </trkpt>
      <trkpt lat="47.46308" lon="6.74302">
        <ele>407</ele>
        <time>2015-05-17T09:35:18.000Z</time>
      </trkpt>
      <trkpt lat="47.4631" lon="6.74304">
        <ele>407</ele>
        <time>2015-05-17T09:35:19.000Z</time>
      </trkpt>
      <trkpt lat="47.46313" lon="6.74306">
        <ele>407</ele>
        <time>2015-05-17T09:35:20.000Z</time>
      </trkpt>
      <trkpt lat="47.46316" lon="6.74306">
        <ele>407</ele>
        <time>2015-05-17T09:35:21.000Z</time>
      </trkpt>
      <trkpt lat="47.4632" lon="6.74307">
        <ele>407</ele>
        <time>2015-05-17T09:35:23.000Z</time>
      </trkpt>
      <trkpt lat="47.46322" lon="6.74308">
        <ele>406</ele>
        <time>2015-05-17T09:35:24.000Z</time>
      </trkpt>
      <trkpt lat="47.46324" lon="6.7431">
        <ele>406</ele>
        <time>2015-05-17T09:35:25.000Z</time>
      </trkpt>
      <trkpt lat="47.46327" lon="6.74311">
        <ele>406</ele>
        <time>2015-05-17T09:35:26.000Z</time>
      </trkpt>
      <trkpt lat="47.46329" lon="6.74312">
        <ele>406</ele>
        <time>2015-05-17T09:35:27.000Z</time>
      </trkpt>
      <trkpt lat="47.46331" lon="6.74313">
        <ele>406</ele>
        <time>2015-05-17T09:35:28.000Z</time>
      </trkpt>
      <trkpt lat="47.46334" lon="6.74315">
        <ele>406</ele>
        <time>2015-05-17T09:35:29.000Z</time>
      </trkpt>
      <trkpt lat="47.46336" lon="6.74316">
        <ele>406</ele>
        <time>2015-05-17T09:35:30.000Z</time>
      </trkpt>
      <trkpt lat="47.46339" lon="6.74318">
        <ele>406</ele>
        <time>2015-05-17T09:35:31.000Z</time>
      </trkpt>
      <trkpt lat="47.46342" lon="6.7432">
        <ele>406</ele>
        <time>2015-05-17T09:35:32.000Z</time>
      </trkpt>
      <trkpt lat="47.46345" lon="6.74322">
        <ele>406</ele>
        <time>2015-05-17T09:35:33.000Z</time>
      </trkpt>
      <trkpt lat="47.46349" lon="6.74324">
        <ele>406</ele>
        <time>2015-05-17T09:35:34.000Z</time>
      </trkpt>
      <trkpt lat="47.46352" lon="6.74326">
        <ele>406</ele>
        <time>2015-05-17T09:35:35.000Z</time>
      </trkpt>
      <trkpt lat="47.46355" lon="6.74327">
        <ele>406</ele>
        <time>2015-05-17T09:35:36.000Z</time>
      </trkpt>
      <trkpt lat="47.46358" lon="6.7433">
        <ele>406</ele>
        <time>2015-05-17T09:35:37.000Z</time>
      </trkpt>
      <trkpt lat="47.46362" lon="6.74332">
        <ele>406</ele>
        <time>2015-05-17T09:35:38.000Z</time>
      </trkpt>
      <trkpt lat="47.46366" lon="6.74334">
        <ele>398</ele>
        <time>2015-05-17T09:35:39.000Z</time>
      </trkpt>
      <trkpt lat="47.46371" lon="6.74337">
        <ele>398</ele>
        <time>2015-05-17T09:35:40.000Z</time>
      </trkpt>
      <trkpt lat="47.46376" lon="6.74339">
        <ele>398</ele>
        <time>2015-05-17T09:35:41.000Z</time>
      </trkpt>
      <trkpt lat="47.4638" lon="6.74341">
        <ele>398</ele>
        <time>2015-05-17T09:35:42.000Z</time>
      </trkpt>
      <trkpt lat="47.46383" lon="6.74343">
        <ele>398</ele>
        <time>2015-05-17T09:35:43.000Z</time>
      </trkpt>
      <trkpt lat="47.46387" lon="6.74345">
        <ele>398</ele>
        <time>2015-05-17T09:35:44.000Z</time>
      </trkpt>
      <trkpt lat="47.4639" lon="6.74346">
        <ele>398</ele>
        <time>2015-05-17T09:35:45.000Z</time>
      </trkpt>
      <trkpt lat="47.46392" lon="6.74347">
        <ele>398</ele>
        <time>2015-05-17T09:35:46.000Z</time>
      </trkpt>
      <trkpt lat="47.46395" lon="6.74348">
        <ele>399</ele>
        <time>2015-05-17T09:35:47.000Z</time>
      </trkpt>
      <trkpt lat="47.46397" lon="6.74349">
        <ele>399</ele>
        <time>2015-05-17T09:35:48.000Z</time>
      </trkpt>
      <trkpt lat="47.464" lon="6.74349">
        <ele>399</ele>
        <time>2015-05-17T09:35:49.000Z</time>
      </trkpt>
      <trkpt lat="47.46402" lon="6.7435">
        <ele>399</ele>
        <time>2015-05-17T09:35:50.000Z</time>
      </trkpt>
      <trkpt lat="47.46404" lon="6.7435">
        <ele>399</ele>
        <time>2015-05-17T09:35:51.000Z</time>
      </trkpt>
      <trkpt lat="47.46408" lon="6.7435">
        <ele>400</ele>
        <time>2015-05-17T09:35:53.000Z</time>
      </trkpt>
      <trkpt lat="47.46409" lon="6.74349">
        <ele>400</ele>
        <time>2015-05-17T09:35:54.000Z</time>
      </trkpt>
      <trkpt lat="47.46414" lon="6.7435">
        <ele>400</ele>
        <time>2015-05-17T09:36:00.000Z</time>
      </trkpt>
      <trkpt lat="47.46414" lon="6.7435">
        <ele>400</ele>
        <time>2015-05-17T09:36:01.000Z</time>
      </trkpt>
      <trkpt lat="47.46417" lon="6.74353">
        <ele>402</ele>
        <time>2015-05-17T09:36:03.000Z</time>
      </trkpt>
      <trkpt lat="47.46419" lon="6.74354">
        <ele>402</ele>
        <time>2015-05-17T09:36:04.000Z</time>
      </trkpt>
      <trkpt lat="47.46423" lon="6.74355">
        <ele>402</ele>
        <time>2015-05-17T09:36:06.000Z</time>
      </trkpt>
      <trkpt lat="47.46424" lon="6.74356">
        <ele>402</ele>
        <time>2015-05-17T09:36:07.000Z</time>
      </trkpt>
      <trkpt lat="47.46428" lon="6.74356">
        <ele>402</ele>
        <time>2015-05-17T09:36:13.000Z</time>
      </trkpt>
      <trkpt lat="47.46429" lon="6.74357">
        <ele>401</ele>
        <time>2015-05-17T09:36:14.000Z</time>
      </trkpt>
      <trkpt lat="47.46431" lon="6.74361">
        <ele>401</ele>
        <time>2015-05-17T09:36:16.000Z</time>
      </trkpt>
      <trkpt lat="47.46432" lon="6.74365">
        <ele>401</ele>
        <time>2015-05-17T09:36:17.000Z</time>
      </trkpt>
      <trkpt lat="47.46434" lon="6.7437">
        <ele>400</ele>
        <time>2015-05-17T09:36:18.000Z</time>
      </trkpt>
      <trkpt lat="47.46436" lon="6.74376">
        <ele>400</ele>
        <time>2015-05-17T09:36:19.000Z</time>
      </trkpt>
      <trkpt lat="47.46439" lon="6.74382">
        <ele>399</ele>
        <time>2015-05-17T09:36:20.000Z</time>
      </trkpt>
      <trkpt lat="47.46443" lon="6.74388">
        <ele>399</ele>
        <time>2015-05-17T09:36:21.000Z</time>
      </trkpt>
      <trkpt lat="47.46447" lon="6.74394">
        <ele>398</ele>
        <time>2015-05-17T09:36:22.000Z</time>
      </trkpt>
      <trkpt lat="47.46451" lon="6.744">
        <ele>398</ele>
        <time>2015-05-17T09:36:23.000Z</time>
      </trkpt>
      <trkpt lat="47.46454" lon="6.74405">
        <ele>398</ele>
        <time>2015-05-17T09:36:24.000Z</time>
      </trkpt>
      <trkpt lat="47.46459" lon="6.74411">
        <ele>398</ele>
        <time>2015-05-17T09:36:25.000Z</time>
      </trkpt>
      <trkpt lat="47.46472" lon="6.74424">
        <ele>390</ele>
        <time>2015-05-17T09:36:26.000Z</time>
      </trkpt>
      <trkpt lat="47.46478" lon="6.74435">
        <ele>390</ele>
        <time>2015-05-17T09:36:27.000Z</time>
      </trkpt>
      <trkpt lat="47.46485" lon="6.74447">
        <ele>389</ele>
        <time>2015-05-17T09:36:28.000Z</time>
      </trkpt>
      <trkpt lat="47.46492" lon="6.74457">
        <ele>388</ele>
        <time>2015-05-17T09:36:29.000Z</time>
      </trkpt>
      <trkpt lat="47.46498" lon="6.74466">
        <ele>387</ele>
        <time>2015-05-17T09:36:30.000Z</time>
      </trkpt>
      <trkpt lat="47.46502" lon="6.74474">
        <ele>392</ele>
        <time>2015-05-17T09:36:31.000Z</time>
      </trkpt>
      <trkpt lat="47.46506" lon="6.74479">
        <ele>391</ele>
        <time>2015-05-17T09:36:32.000Z</time>
      </trkpt>
      <trkpt lat="47.46509" lon="6.74484">
        <ele>390</ele>
        <time>2015-05-17T09:36:33.000Z</time>
      </trkpt>
      <trkpt lat="47.46511" lon="6.74492">
        <ele>389</ele>
        <time>2015-05-17T09:36:34.000Z</time>
      </trkpt>
      <trkpt lat="47.46518" lon="6.74505">
        <ele>383</ele>
        <time>2015-05-17T09:36:35.000Z</time>
      </trkpt>
      <trkpt lat="47.46525" lon="6.74514">
        <ele>382</ele>
        <time>2015-05-17T09:36:36.000Z</time>
      </trkpt>
      <trkpt lat="47.46529" lon="6.74523">
        <ele>382</ele>
        <time>2015-05-17T09:36:37.000Z</time>
      </trkpt>
      <trkpt lat="47.46537" lon="6.74533">
        <ele>382</ele>
        <time>2015-05-17T09:36:38.000Z</time>
      </trkpt>
      <trkpt lat="47.46543" lon="6.74547">
        <ele>381</ele>
        <time>2015-05-17T09:36:39.000Z</time>
      </trkpt>
      <trkpt lat="47.46549" lon="6.74556">
        <ele>380</ele>
        <time>2015-05-17T09:36:40.000Z</time>
      </trkpt>
      <trkpt lat="47.46554" lon="6.74565">
        <ele>380</ele>
        <time>2015-05-17T09:36:41.000Z</time>
      </trkpt>
      <trkpt lat="47.4656" lon="6.74575">
        <ele>380</ele>
        <time>2015-05-17T09:36:42.000Z</time>
      </trkpt>
      <trkpt lat="47.46565" lon="6.74585">
        <ele>373</ele>
        <time>2015-05-17T09:36:43.000Z</time>
      </trkpt>
      <trkpt lat="47.46571" lon="6.74595">
        <ele>373</ele>
        <time>2015-05-17T09:36:44.000Z</time>
      </trkpt>
      <trkpt lat="47.46577" lon="6.74604">
        <ele>372</ele>
        <time>2015-05-17T09:36:45.000Z</time>
      </trkpt>
      <trkpt lat="47.46582" lon="6.74613">
        <ele>370</ele>
        <time>2015-05-17T09:36:46.000Z</time>
      </trkpt>
      <trkpt lat="47.46587" lon="6.7462">
        <ele>373</ele>
        <time>2015-05-17T09:36:47.000Z</time>
      </trkpt>
      <trkpt lat="47.46592" lon="6.74627">
        <ele>372</ele>
        <time>2015-05-17T09:36:48.000Z</time>
      </trkpt>
      <trkpt lat="47.46594" lon="6.74633">
        <ele>371</ele>
        <time>2015-05-17T09:36:49.000Z</time>
      </trkpt>
      <trkpt lat="47.46597" lon="6.7464">
        <ele>370</ele>
        <time>2015-05-17T09:36:50.000Z</time>
      </trkpt>
      <trkpt lat="47.46601" lon="6.74646">
        <ele>369</ele>
        <time>2015-05-17T09:36:51.000Z</time>
      </trkpt>
      <trkpt lat="47.46606" lon="6.74654">
        <ele>368</ele>
        <time>2015-05-17T09:36:52.000Z</time>
      </trkpt>
      <trkpt lat="47.46611" lon="6.74661">
        <ele>368</ele>
        <time>2015-05-17T09:36:53.000Z</time>
      </trkpt>
      <trkpt lat="47.46617" lon="6.74669">
        <ele>361</ele>
        <time>2015-05-17T09:36:54.000Z</time>
      </trkpt>
      <trkpt lat="47.46623" lon="6.74678">
        <ele>361</ele>
        <time>2015-05-17T09:36:55.000Z</time>
      </trkpt>
      <trkpt lat="47.46632" lon="6.74688">
        <ele>361</ele>
        <time>2015-05-17T09:36:56.000Z</time>
      </trkpt>
      <trkpt lat="47.46645" lon="6.74701">
        <ele>361</ele>
        <time>2015-05-17T09:36:57.000Z</time>
      </trkpt>
      <trkpt lat="47.46655" lon="6.74716">
        <ele>360</ele>
        <time>2015-05-17T09:36:58.000Z</time>
      </trkpt>
      <trkpt lat="47.46663" lon="6.74729">
        <ele>359</ele>
        <time>2015-05-17T09:36:59.000Z</time>
      </trkpt>
      <trkpt lat="47.46669" lon="6.74736">
        <ele>356</ele>
        <time>2015-05-17T09:37:00.000Z</time>
      </trkpt>
      <trkpt lat="47.46678" lon="6.74731">
        <ele>356</ele>
        <time>2015-05-17T09:37:01.000Z</time>
      </trkpt>
      <trkpt lat="47.46682" lon="6.74731">
        <ele>356</ele>
        <time>2015-05-17T09:37:02.000Z</time>
      </trkpt>
      <trkpt lat="47.46689" lon="6.74724">
        <ele>356</ele>
        <time>2015-05-17T09:37:03.000Z</time>
      </trkpt>
      <trkpt lat="47.46696" lon="6.74719">
        <ele>356</ele>
        <time>2015-05-17T09:37:04.000Z</time>
      </trkpt>
      <trkpt lat="47.46698" lon="6.74715">
        <ele>356</ele>
        <time>2015-05-17T09:37:05.000Z</time>
      </trkpt>
      <trkpt lat="47.46701" lon="6.74712">
        <ele>357</ele>
        <time>2015-05-17T09:37:06.000Z</time>
      </trkpt>
      <trkpt lat="47.46704" lon="6.74711">
        <ele>356</ele>
        <time>2015-05-17T09:37:07.000Z</time>
      </trkpt>
      <trkpt lat="47.46707" lon="6.74711">
        <ele>356</ele>
        <time>2015-05-17T09:37:08.000Z</time>
      </trkpt>
      <trkpt lat="47.46709" lon="6.74708">
        <ele>357</ele>
        <time>2015-05-17T09:37:09.000Z</time>
      </trkpt>
      <trkpt lat="47.46712" lon="6.74707">
        <ele>356</ele>
        <time>2015-05-17T09:37:10.000Z</time>
      </trkpt>
      <trkpt lat="47.46715" lon="6.74706">
        <ele>356</ele>
        <time>2015-05-17T09:37:12.000Z</time>
      </trkpt>
      <trkpt lat="47.46717" lon="6.74706">
        <ele>356</ele>
        <time>2015-05-17T09:37:13.000Z</time>
      </trkpt>
      <trkpt lat="47.46719" lon="6.74707">
        <ele>356</ele>
        <time>2015-05-17T09:37:14.000Z</time>
      </trkpt>
      <trkpt lat="47.46721" lon="6.74708">
        <ele>356</ele>
        <time>2015-05-17T09:37:15.000Z</time>
      </trkpt>
      <trkpt lat="47.46724" lon="6.74708">
        <ele>356</ele>
        <time>2015-05-17T09:37:16.000Z</time>
      </trkpt>
      <trkpt lat="47.46727" lon="6.74708">
        <ele>356</ele>
        <time>2015-05-17T09:37:17.000Z</time>
      </trkpt>
      <trkpt lat="47.46729" lon="6.74708">
        <ele>356</ele>
        <time>2015-05-17T09:37:18.000Z</time>
      </trkpt>
      <trkpt lat="47.46732" lon="6.74708">
        <ele>356</ele>
        <time>2015-05-17T09:37:19.000Z</time>
      </trkpt>
      <trkpt lat="47.46736" lon="6.74708">
        <ele>356</ele>
        <time>2015-05-17T09:37:21.000Z</time>
      </trkpt>
      <trkpt lat="47.46738" lon="6.74709">
        <ele>356</ele>
        <time>2015-05-17T09:37:22.000Z</time>
      </trkpt>
      <trkpt lat="47.46741" lon="6.7471">
        <ele>355</ele>
        <time>2015-05-17T09:37:24.000Z</time>
      </trkpt>
      <trkpt lat="47.46743" lon="6.7471">
        <ele>355</ele>
        <time>2015-05-17T09:37:25.000Z</time>
      </trkpt>
      <trkpt lat="47.46747" lon="6.7471">
        <ele>355</ele>
        <time>2015-05-17T09:37:29.000Z</time>
      </trkpt>
      <trkpt lat="47.46748" lon="6.74709">
        <ele>355</ele>
        <time>2015-05-17T09:37:30.000Z</time>
      </trkpt>
      <trkpt lat="47.4675" lon="6.74704">
        <ele>351</ele>
        <time>2015-05-17T09:37:32.000Z</time>
      </trkpt>
      <trkpt lat="47.46751" lon="6.74701">
        <ele>351</ele>
        <time>2015-05-17T09:37:33.000Z</time>
      </trkpt>
      <trkpt lat="47.46753" lon="6.74698">
        <ele>352</ele>
        <time>2015-05-17T09:37:34.000Z</time>
      </trkpt>
      <trkpt lat="47.46754" lon="6.74695">
        <ele>352</ele>
        <time>2015-05-17T09:37:35.000Z</time>
      </trkpt>
      <trkpt lat="47.46758" lon="6.74692">
        <ele>352</ele>
        <time>2015-05-17T09:37:54.000Z</time>
      </trkpt>
      <trkpt lat="47.46759" lon="6.7469">
        <ele>353</ele>
        <time>2015-05-17T09:37:55.000Z</time>
      </trkpt>
      <trkpt lat="47.46762" lon="6.74686">
        <ele>353</ele>
        <time>2015-05-17T09:37:57.000Z</time>
      </trkpt>
      <trkpt lat="47.46764" lon="6.74683">
        <ele>353</ele>
        <time>2015-05-17T09:37:58.000Z</time>
      </trkpt>
      <trkpt lat="47.46767" lon="6.7468">
        <ele>354</ele>
        <time>2015-05-17T09:37:59.000Z</time>
      </trkpt>
      <trkpt lat="47.4677" lon="6.74677">
        <ele>353</ele>
        <time>2015-05-17T09:38:00.000Z</time>
      </trkpt>
      <trkpt lat="47.46773" lon="6.74675">
        <ele>353</ele>
        <time>2015-05-17T09:38:01.000Z</time>
      </trkpt>
      <trkpt lat="47.46777" lon="6.74672">
        <ele>352</ele>
        <time>2015-05-17T09:38:02.000Z</time>
      </trkpt>
      <trkpt lat="47.4678" lon="6.7467">
        <ele>352</ele>
        <time>2015-05-17T09:38:03.000Z</time>
      </trkpt>
      <trkpt lat="47.46784" lon="6.74668">
        <ele>351</ele>
        <time>2015-05-17T09:38:04.000Z</time>
      </trkpt>
      <trkpt lat="47.46788" lon="6.74666">
        <ele>359</ele>
        <time>2015-05-17T09:38:05.000Z</time>
      </trkpt>
      <trkpt lat="47.46794" lon="6.74664">
        <ele>359</ele>
        <time>2015-05-17T09:38:06.000Z</time>
      </trkpt>
      <trkpt lat="47.46799" lon="6.74662">
        <ele>358</ele>
        <time>2015-05-17T09:38:07.000Z</time>
      </trkpt>
      <trkpt lat="47.46804" lon="6.74662">
        <ele>357</ele>
        <time>2015-05-17T09:38:08.000Z</time>
      </trkpt>
      <trkpt lat="47.46808" lon="6.7466">
        <ele>356</ele>
        <time>2015-05-17T09:38:09.000Z</time>
      </trkpt>
      <trkpt lat="47.46813" lon="6.74658">
        <ele>355</ele>
        <time>2015-05-17T09:38:10.000Z</time>
      </trkpt>
      <trkpt lat="47.46817" lon="6.74656">
        <ele>355</ele>
        <time>2015-05-17T09:38:11.000Z</time>
      </trkpt>
      <trkpt lat="47.46823" lon="6.74653">
        <ele>354</ele>
        <time>2015-05-17T09:38:12.000Z</time>
      </trkpt>
      <trkpt lat="47.46827" lon="6.74649">
        <ele>354</ele>
        <time>2015-05-17T09:38:13.000Z</time>
      </trkpt>
      <trkpt lat="47.46831" lon="6.74646">
        <ele>355</ele>
        <time>2015-05-17T09:38:14.000Z</time>
      </trkpt>
      <trkpt lat="47.46836" lon="6.74643">
        <ele>348</ele>
        <time>2015-05-17T09:38:15.000Z</time>
      </trkpt>
      <trkpt lat="47.46841" lon="6.74637">
        <ele>348</ele>
        <time>2015-05-17T09:38:16.000Z</time>
      </trkpt>
      <trkpt lat="47.46846" lon="6.74631">
        <ele>349</ele>
        <time>2015-05-17T09:38:17.000Z</time>
      </trkpt>
      <trkpt lat="47.4685" lon="6.74627">
        <ele>349</ele>
        <time>2015-05-17T09:38:18.000Z</time>
      </trkpt>
      <trkpt lat="47.46855" lon="6.74621">
        <ele>349</ele>
        <time>2015-05-17T09:38:19.000Z</time>
      </trkpt>
      <trkpt lat="47.4686" lon="6.74617">
        <ele>349</ele>
        <time>2015-05-17T09:38:20.000Z</time>
      </trkpt>
      <trkpt lat="47.46864" lon="6.74612">
        <ele>350</ele>
        <time>2015-05-17T09:38:21.000Z</time>
      </trkpt>
      <trkpt lat="47.46868" lon="6.74607">
        <ele>350</ele>
        <time>2015-05-17T09:38:22.000Z</time>
      </trkpt>
      <trkpt lat="47.46873" lon="6.74603">
        <ele>349</ele>
        <time>2015-05-17T09:38:23.000Z</time>
      </trkpt>
      <trkpt lat="47.46878" lon="6.74602">
        <ele>349</ele>
        <time>2015-05-17T09:38:24.000Z</time>
      </trkpt>
      <trkpt lat="47.46883" lon="6.74599">
        <ele>349</ele>
        <time>2015-05-17T09:38:25.000Z</time>
      </trkpt>
      <trkpt lat="47.46887" lon="6.74596">
        <ele>348</ele>
        <time>2015-05-17T09:38:26.000Z</time>
      </trkpt>
      <trkpt lat="47.46892" lon="6.74594">
        <ele>348</ele>
        <time>2015-05-17T09:38:27.000Z</time>
      </trkpt>
      <trkpt lat="47.46897" lon="6.74593">
        <ele>348</ele>
        <time>2015-05-17T09:38:28.000Z</time>
      </trkpt>
      <trkpt lat="47.46902" lon="6.7459">
        <ele>348</ele>
        <time>2015-05-17T09:38:29.000Z</time>
      </trkpt>
      <trkpt lat="47.46906" lon="6.74588">
        <ele>347</ele>
        <time>2015-05-17T09:38:30.000Z</time>
      </trkpt>
      <trkpt lat="47.4691" lon="6.74587">
        <ele>347</ele>
        <time>2015-05-17T09:38:31.000Z</time>
      </trkpt>
      <trkpt lat="47.46915" lon="6.74585">
        <ele>347</ele>
        <time>2015-05-17T09:38:32.000Z</time>
      </trkpt>
      <trkpt lat="47.46919" lon="6.74583">
        <ele>347</ele>
        <time>2015-05-17T09:38:33.000Z</time>
      </trkpt>
      <trkpt lat="47.46923" lon="6.74581">
        <ele>347</ele>
        <time>2015-05-17T09:38:34.000Z</time>
      </trkpt>
      <trkpt lat="47.46926" lon="6.74578">
        <ele>347</ele>
        <time>2015-05-17T09:38:35.000Z</time>
      </trkpt>
      <trkpt lat="47.4693" lon="6.74576">
        <ele>347</ele>
        <time>2015-05-17T09:38:36.000Z</time>
      </trkpt>
      <trkpt lat="47.46934" lon="6.74573">
        <ele>347</ele>
        <time>2015-05-17T09:38:37.000Z</time>
      </trkpt>
      <trkpt lat="47.46937" lon="6.74571">
        <ele>347</ele>
        <time>2015-05-17T09:38:38.000Z</time>
      </trkpt>
      <trkpt lat="47.46942" lon="6.74569">
        <ele>347</ele>
        <time>2015-05-17T09:38:39.000Z</time>
      </trkpt>
      <trkpt lat="47.46946" lon="6.74567">
        <ele>347</ele>
        <time>2015-05-17T09:38:39.999Z</time>
      </trkpt>
      <trkpt lat="47.4695" lon="6.74566">
        <ele>347</ele>
        <time>2015-05-17T09:38:41.001Z</time>
      </trkpt>
      <trkpt lat="47.46954" lon="6.74566">
        <ele>347</ele>
        <time>2015-05-17T09:38:42.000Z</time>
      </trkpt>
      <trkpt lat="47.46959" lon="6.74565">
        <ele>347</ele>
        <time>2015-05-17T09:38:42.999Z</time>
      </trkpt>
      <trkpt lat="47.46964" lon="6.74565">
        <ele>347</ele>
        <time>2015-05-17T09:38:44.000Z</time>
      </trkpt>
      <trkpt lat="47.46968" lon="6.74565">
        <ele>347</ele>
        <time>2015-05-17T09:38:45.000Z</time>
      </trkpt>
      <trkpt lat="47.46973" lon="6.74564">
        <ele>347</ele>
        <time>2015-05-17T09:38:46.000Z</time>
      </trkpt>
      <trkpt lat="47.46978" lon="6.74565">
        <ele>346</ele>
        <time>2015-05-17T09:38:47.000Z</time>
      </trkpt>
      <trkpt lat="47.46983" lon="6.74564">
        <ele>346</ele>
        <time>2015-05-17T09:38:48.000Z</time>
      </trkpt>
      <trkpt lat="47.46988" lon="6.74564">
        <ele>346</ele>
        <time>2015-05-17T09:38:48.999Z</time>
      </trkpt>
      <trkpt lat="47.46992" lon="6.74566">
        <ele>346</ele>
        <time>2015-05-17T09:38:50.000Z</time>
      </trkpt>
      <trkpt lat="47.46997" lon="6.74568">
        <ele>346</ele>
        <time>2015-05-17T09:38:51.000Z</time>
      </trkpt>
      <trkpt lat="47.47001" lon="6.74569">
        <ele>344</ele>
        <time>2015-05-17T09:38:52.000Z</time>
      </trkpt>
      <trkpt lat="47.47006" lon="6.74569">
        <ele>344</ele>
        <time>2015-05-17T09:38:53.000Z</time>
      </trkpt>
      <trkpt lat="47.47011" lon="6.74569">
        <ele>343</ele>
        <time>2015-05-17T09:38:54.000Z</time>
      </trkpt>
      <trkpt lat="47.47016" lon="6.74569">
        <ele>343</ele>
        <time>2015-05-17T09:38:55.000Z</time>
      </trkpt>
      <trkpt lat="47.47021" lon="6.74567">
        <ele>343</ele>
        <time>2015-05-17T09:38:56.000Z</time>
      </trkpt>
      <trkpt lat="47.47026" lon="6.74566">
        <ele>343</ele>
        <time>2015-05-17T09:38:57.000Z</time>
      </trkpt>
      <trkpt lat="47.47031" lon="6.74565">
        <ele>343</ele>
        <time>2015-05-17T09:38:57.998Z</time>
      </trkpt>
      <trkpt lat="47.47036" lon="6.74564">
        <ele>343</ele>
        <time>2015-05-17T09:38:59.000Z</time>
      </trkpt>
      <trkpt lat="47.47042" lon="6.74565">
        <ele>343</ele>
        <time>2015-05-17T09:39:00.000Z</time>
      </trkpt>
      <trkpt lat="47.47046" lon="6.74571">
        <ele>343</ele>
        <time>2015-05-17T09:39:01.000Z</time>
      </trkpt>
      <trkpt lat="47.47046" lon="6.74577">
        <ele>343</ele>
        <time>2015-05-17T09:39:02.000Z</time>
      </trkpt>
      <trkpt lat="47.47044" lon="6.74585">
        <ele>341</ele>
        <time>2015-05-17T09:39:03.000Z</time>
      </trkpt>
      <trkpt lat="47.47042" lon="6.74591">
        <ele>341</ele>
        <time>2015-05-17T09:39:04.000Z</time>
      </trkpt>
      <trkpt lat="47.47038" lon="6.74595">
        <ele>341</ele>
        <time>2015-05-17T09:39:05.000Z</time>
      </trkpt>
      <trkpt lat="47.47035" lon="6.746">
        <ele>341</ele>
        <time>2015-05-17T09:39:06.000Z</time>
      </trkpt>
      <trkpt lat="47.47033" lon="6.74603">
        <ele>341</ele>
        <time>2015-05-17T09:39:07.000Z</time>
      </trkpt>
      <trkpt lat="47.4703" lon="6.7461">
        <ele>341</ele>
        <time>2015-05-17T09:39:08.000Z</time>
      </trkpt>
      <trkpt lat="47.47027" lon="6.74618">
        <ele>341</ele>
        <time>2015-05-17T09:39:09.000Z</time>
      </trkpt>
      <trkpt lat="47.47025" lon="6.74623">
        <ele>341</ele>
        <time>2015-05-17T09:39:10.000Z</time>
      </trkpt>
      <trkpt lat="47.47022" lon="6.74629">
        <ele>341</ele>
        <time>2015-05-17T09:39:11.000Z</time>
      </trkpt>
      <trkpt lat="47.47018" lon="6.74639">
        <ele>340</ele>
        <time>2015-05-17T09:39:12.000Z</time>
      </trkpt>
      <trkpt lat="47.47015" lon="6.74647">
        <ele>340</ele>
        <time>2015-05-17T09:39:12.999Z</time>
      </trkpt>
      <trkpt lat="47.47013" lon="6.74656">
        <ele>339</ele>
        <time>2015-05-17T09:39:14.000Z</time>
      </trkpt>
      <trkpt lat="47.4701" lon="6.74665">
        <ele>339</ele>
        <time>2015-05-17T09:39:15.000Z</time>
      </trkpt>
      <trkpt lat="47.47008" lon="6.74677">
        <ele>338</ele>
        <time>2015-05-17T09:39:16.000Z</time>
      </trkpt>
      <trkpt lat="47.47006" lon="6.74687">
        <ele>338</ele>
        <time>2015-05-17T09:39:17.000Z</time>
      </trkpt>
      <trkpt lat="47.47004" lon="6.74699">
        <ele>337</ele>
        <time>2015-05-17T09:39:18.000Z</time>
      </trkpt>
      <trkpt lat="47.47001" lon="6.74711">
        <ele>337</ele>
        <time>2015-05-17T09:39:19.000Z</time>
      </trkpt>
      <trkpt lat="47.47" lon="6.74722">
        <ele>336</ele>
        <time>2015-05-17T09:39:20.000Z</time>
      </trkpt>
      <trkpt lat="47.46999" lon="6.74735">
        <ele>336</ele>
        <time>2015-05-17T09:39:21.000Z</time>
      </trkpt>
      <trkpt lat="47.46999" lon="6.74746">
        <ele>335</ele>
        <time>2015-05-17T09:39:21.999Z</time>
      </trkpt>
      <trkpt lat="47.46999" lon="6.74757">
        <ele>335</ele>
        <time>2015-05-17T09:39:23.000Z</time>
      </trkpt>
      <trkpt lat="47.46998" lon="6.74768">
        <ele>335</ele>
        <time>2015-05-17T09:39:24.000Z</time>
      </trkpt>
      <trkpt lat="47.46999" lon="6.7478">
        <ele>335</ele>
        <time>2015-05-17T09:39:25.000Z</time>
      </trkpt>
      <trkpt lat="47.46999" lon="6.74792">
        <ele>335</ele>
        <time>2015-05-17T09:39:26.000Z</time>
      </trkpt>
      <trkpt lat="47.46999" lon="6.74804">
        <ele>335</ele>
        <time>2015-05-17T09:39:27.000Z</time>
      </trkpt>
      <trkpt lat="47.46999" lon="6.74816">
        <ele>334</ele>
        <time>2015-05-17T09:39:28.000Z</time>
      </trkpt>
      <trkpt lat="47.46999" lon="6.74828">
        <ele>333</ele>
        <time>2015-05-17T09:39:29.000Z</time>
      </trkpt>
      <trkpt lat="47.46998" lon="6.7484">
        <ele>333</ele>
        <time>2015-05-17T09:39:30.000Z</time>
      </trkpt>
      <trkpt lat="47.46998" lon="6.7485">
        <ele>333</ele>
        <time>2015-05-17T09:39:31.000Z</time>
      </trkpt>
      <trkpt lat="47.46998" lon="6.7486">
        <ele>333</ele>
        <time>2015-05-17T09:39:31.999Z</time>
      </trkpt>
      <trkpt lat="47.46999" lon="6.74873">
        <ele>333</ele>
        <time>2015-05-17T09:39:33.000Z</time>
      </trkpt>
      <trkpt lat="47.46999" lon="6.74885">
        <ele>333</ele>
        <time>2015-05-17T09:39:34.000Z</time>
      </trkpt>
      <trkpt lat="47.46999" lon="6.74896">
        <ele>333</ele>
        <time>2015-05-17T09:39:35.000Z</time>
      </trkpt>
      <trkpt lat="47.46998" lon="6.74907">
        <ele>332</ele>
        <time>2015-05-17T09:39:36.000Z</time>
      </trkpt>
      <trkpt lat="47.46998" lon="6.74918">
        <ele>331</ele>
        <time>2015-05-17T09:39:37.001Z</time>
      </trkpt>
      <trkpt lat="47.46998" lon="6.74928">
        <ele>332</ele>
        <time>2015-05-17T09:39:38.000Z</time>
      </trkpt>
      <trkpt lat="47.46998" lon="6.74938">
        <ele>332</ele>
        <time>2015-05-17T09:39:39.000Z</time>
      </trkpt>
      <trkpt lat="47.46998" lon="6.74947">
        <ele>332</ele>
        <time>2015-05-17T09:39:40.000Z</time>
      </trkpt>
      <trkpt lat="47.46998" lon="6.74957">
        <ele>332</ele>
        <time>2015-05-17T09:39:41.000Z</time>
      </trkpt>
      <trkpt lat="47.46999" lon="6.74967">
        <ele>332</ele>
        <time>2015-05-17T09:39:42.000Z</time>
      </trkpt>
      <trkpt lat="47.46999" lon="6.74976">
        <ele>332</ele>
        <time>2015-05-17T09:39:43.000Z</time>
      </trkpt>
      <trkpt lat="47.47" lon="6.74985">
        <ele>332</ele>
        <time>2015-05-17T09:39:44.000Z</time>
      </trkpt>
      <trkpt lat="47.47" lon="6.74994">
        <ele>331</ele>
        <time>2015-05-17T09:39:45.000Z</time>
      </trkpt>
      <trkpt lat="47.47" lon="6.75003">
        <ele>331</ele>
        <time>2015-05-17T09:39:46.000Z</time>
      </trkpt>
      <trkpt lat="47.47" lon="6.75012">
        <ele>332</ele>
        <time>2015-05-17T09:39:47.000Z</time>
      </trkpt>
      <trkpt lat="47.47001" lon="6.75021">
        <ele>331</ele>
        <time>2015-05-17T09:39:48.000Z</time>
      </trkpt>
      <trkpt lat="47.47002" lon="6.75029">
        <ele>331</ele>
        <time>2015-05-17T09:39:49.000Z</time>
      </trkpt>
      <trkpt lat="47.47004" lon="6.75037">
        <ele>332</ele>
        <time>2015-05-17T09:39:50.000Z</time>
      </trkpt>
      <trkpt lat="47.47005" lon="6.75046">
        <ele>332</ele>
        <time>2015-05-17T09:39:51.000Z</time>
      </trkpt>
      <trkpt lat="47.47006" lon="6.75055">
        <ele>332</ele>
        <time>2015-05-17T09:39:52.000Z</time>
      </trkpt>
      <trkpt lat="47.47007" lon="6.75063">
        <ele>332</ele>
        <time>2015-05-17T09:39:53.000Z</time>
      </trkpt>
      <trkpt lat="47.47008" lon="6.75071">
        <ele>332</ele>
        <time>2015-05-17T09:39:54.001Z</time>
      </trkpt>
      <trkpt lat="47.47011" lon="6.75078">
        <ele>332</ele>
        <time>2015-05-17T09:39:55.000Z</time>
      </trkpt>
      <trkpt lat="47.47013" lon="6.75084">
        <ele>333</ele>
        <time>2015-05-17T09:39:56.000Z</time>
      </trkpt>
      <trkpt lat="47.47015" lon="6.7509">
        <ele>333</ele>
        <time>2015-05-17T09:39:57.000Z</time>
      </trkpt>
      <trkpt lat="47.47017" lon="6.75097">
        <ele>333</ele>
        <time>2015-05-17T09:39:58.000Z</time>
      </trkpt>
      <trkpt lat="47.47019" lon="6.75104">
        <ele>333</ele>
        <time>2015-05-17T09:39:59.000Z</time>
      </trkpt>
      <trkpt lat="47.47022" lon="6.75111">
        <ele>333</ele>
        <time>2015-05-17T09:40:00.000Z</time>
      </trkpt>
      <trkpt lat="47.47025" lon="6.75117">
        <ele>333</ele>
        <time>2015-05-17T09:40:01.000Z</time>
      </trkpt>
      <trkpt lat="47.47028" lon="6.75124">
        <ele>333</ele>
        <time>2015-05-17T09:40:02.000Z</time>
      </trkpt>
      <trkpt lat="47.4703" lon="6.75131">
        <ele>333</ele>
        <time>2015-05-17T09:40:03.000Z</time>
      </trkpt>
      <trkpt lat="47.47031" lon="6.75138">
        <ele>333</ele>
        <time>2015-05-17T09:40:04.000Z</time>
      </trkpt>
      <trkpt lat="47.47033" lon="6.75145">
        <ele>333</ele>
        <time>2015-05-17T09:40:05.000Z</time>
      </trkpt>
      <trkpt lat="47.47035" lon="6.75152">
        <ele>333</ele>
        <time>2015-05-17T09:40:06.000Z</time>
      </trkpt>
      <trkpt lat="47.47036" lon="6.75159">
        <ele>333</ele>
        <time>2015-05-17T09:40:07.000Z</time>
      </trkpt>
      <trkpt lat="47.47038" lon="6.75166">
        <ele>333</ele>
        <time>2015-05-17T09:40:08.000Z</time>
      </trkpt>
      <trkpt lat="47.4704" lon="6.75174">
        <ele>333</ele>
        <time>2015-05-17T09:40:09.000Z</time>
      </trkpt>
      <trkpt lat="47.47042" lon="6.75181">
        <ele>332</ele>
        <time>2015-05-17T09:40:10.000Z</time>
      </trkpt>
      <trkpt lat="47.47043" lon="6.75188">
        <ele>332</ele>
        <time>2015-05-17T09:40:10.999Z</time>
      </trkpt>
      <trkpt lat="47.47045" lon="6.75197">
        <ele>332</ele>
        <time>2015-05-17T09:40:12.000Z</time>
      </trkpt>
      <trkpt lat="47.47046" lon="6.75205">
        <ele>332</ele>
        <time>2015-05-17T09:40:13.000Z</time>
      </trkpt>
      <trkpt lat="47.47048" lon="6.75214">
        <ele>332</ele>
        <time>2015-05-17T09:40:14.000Z</time>
      </trkpt>
      <trkpt lat="47.4705" lon="6.75222">
        <ele>332</ele>
        <time>2015-05-17T09:40:15.000Z</time>
      </trkpt>
      <trkpt lat="47.47052" lon="6.7523">
        <ele>332</ele>
        <time>2015-05-17T09:40:16.001Z</time>
      </trkpt>
      <trkpt lat="47.47054" lon="6.75241">
        <ele>332</ele>
        <time>2015-05-17T09:40:17.000Z</time>
      </trkpt>
      <trkpt lat="47.47055" lon="6.75252">
        <ele>331</ele>
        <time>2015-05-17T09:40:18.000Z</time>
      </trkpt>
      <trkpt lat="47.47057" lon="6.75263">
        <ele>331</ele>
        <time>2015-05-17T09:40:19.000Z</time>
      </trkpt>
      <trkpt lat="47.47057" lon="6.75274">
        <ele>331</ele>
        <time>2015-05-17T09:40:20.000Z</time>
      </trkpt>
      <trkpt lat="47.47059" lon="6.75285">
        <ele>331</ele>
        <time>2015-05-17T09:40:21.001Z</time>
      </trkpt>
      <trkpt lat="47.47059" lon="6.75296">
        <ele>331</ele>
        <time>2015-05-17T09:40:22.000Z</time>
      </trkpt>
      <trkpt lat="47.47059" lon="6.75307">
        <ele>331</ele>
        <time>2015-05-17T09:40:23.000Z</time>
      </trkpt>
      <trkpt lat="47.47059" lon="6.75317">
        <ele>331</ele>
        <time>2015-05-17T09:40:24.000Z</time>
      </trkpt>
      <trkpt lat="47.4706" lon="6.75327">
        <ele>330</ele>
        <time>2015-05-17T09:40:25.000Z</time>
      </trkpt>
      <trkpt lat="47.47061" lon="6.75337">
        <ele>330</ele>
        <time>2015-05-17T09:40:25.999Z</time>
      </trkpt>
      <trkpt lat="47.4706" lon="6.75346">
        <ele>330</ele>
        <time>2015-05-17T09:40:27.000Z</time>
      </trkpt>
      <trkpt lat="47.4706" lon="6.75353">
        <ele>330</ele>
        <time>2015-05-17T09:40:28.000Z</time>
      </trkpt>
      <trkpt lat="47.47059" lon="6.7536">
        <ele>330</ele>
        <time>2015-05-17T09:40:29.000Z</time>
      </trkpt>
      <trkpt lat="47.47064" lon="6.75363">
        <ele>330</ele>
        <time>2015-05-17T09:40:30.000Z</time>
      </trkpt>
      <trkpt lat="47.47063" lon="6.75371">
        <ele>330</ele>
        <time>2015-05-17T09:40:31.000Z</time>
      </trkpt>
      <trkpt lat="47.47063" lon="6.7538">
        <ele>331</ele>
        <time>2015-05-17T09:40:32.000Z</time>
      </trkpt>
      <trkpt lat="47.47064" lon="6.7539">
        <ele>331</ele>
        <time>2015-05-17T09:40:33.000Z</time>
      </trkpt>
      <trkpt lat="47.47064" lon="6.754">
        <ele>331</ele>
        <time>2015-05-17T09:40:34.000Z</time>
      </trkpt>
      <trkpt lat="47.47065" lon="6.75409">
        <ele>331</ele>
        <time>2015-05-17T09:40:35.000Z</time>
      </trkpt>
      <trkpt lat="47.47067" lon="6.75418">
        <ele>331</ele>
        <time>2015-05-17T09:40:36.000Z</time>
      </trkpt>
      <trkpt lat="47.47069" lon="6.75431">
        <ele>331</ele>
        <time>2015-05-17T09:40:37.000Z</time>
      </trkpt>
      <trkpt lat="47.4707" lon="6.75441">
        <ele>331</ele>
        <time>2015-05-17T09:40:38.000Z</time>
      </trkpt>
      <trkpt lat="47.47071" lon="6.75452">
        <ele>331</ele>
        <time>2015-05-17T09:40:39.000Z</time>
      </trkpt>
      <trkpt lat="47.47071" lon="6.75461">
        <ele>332</ele>
        <time>2015-05-17T09:40:40.000Z</time>
      </trkpt>
      <trkpt lat="47.47072" lon="6.75468">
        <ele>332</ele>
        <time>2015-05-17T09:40:41.000Z</time>
      </trkpt>
      <trkpt lat="47.4707" lon="6.75476">
        <ele>332</ele>
        <time>2015-05-17T09:40:42.000Z</time>
      </trkpt>
      <trkpt lat="47.4707" lon="6.75483">
        <ele>332</ele>
        <time>2015-05-17T09:40:43.000Z</time>
      </trkpt>
      <trkpt lat="47.4707" lon="6.75491">
        <ele>332</ele>
        <time>2015-05-17T09:40:44.000Z</time>
      </trkpt>
      <trkpt lat="47.47068" lon="6.75499">
        <ele>332</ele>
        <time>2015-05-17T09:40:45.000Z</time>
      </trkpt>
      <trkpt lat="47.47067" lon="6.75507">
        <ele>333</ele>
        <time>2015-05-17T09:40:46.000Z</time>
      </trkpt>
      <trkpt lat="47.47067" lon="6.75515">
        <ele>333</ele>
        <time>2015-05-17T09:40:47.000Z</time>
      </trkpt>
      <trkpt lat="47.47067" lon="6.75521">
        <ele>333</ele>
        <time>2015-05-17T09:40:48.000Z</time>
      </trkpt>
      <trkpt lat="47.47067" lon="6.75527">
        <ele>333</ele>
        <time>2015-05-17T09:40:49.000Z</time>
      </trkpt>
      <trkpt lat="47.47068" lon="6.75533">
        <ele>334</ele>
        <time>2015-05-17T09:40:50.000Z</time>
      </trkpt>
      <trkpt lat="47.47068" lon="6.7554">
        <ele>334</ele>
        <time>2015-05-17T09:40:51.000Z</time>
      </trkpt>
      <trkpt lat="47.47069" lon="6.75547">
        <ele>334</ele>
        <time>2015-05-17T09:40:52.000Z</time>
      </trkpt>
      <trkpt lat="47.47069" lon="6.75554">
        <ele>334</ele>
        <time>2015-05-17T09:40:53.000Z</time>
      </trkpt>
      <trkpt lat="47.4707" lon="6.75561">
        <ele>334</ele>
        <time>2015-05-17T09:40:53.999Z</time>
      </trkpt>
      <trkpt lat="47.47071" lon="6.75567">
        <ele>334</ele>
        <time>2015-05-17T09:40:55.000Z</time>
      </trkpt>
      <trkpt lat="47.4707" lon="6.75572">
        <ele>335</ele>
        <time>2015-05-17T09:40:56.000Z</time>
      </trkpt>
      <trkpt lat="47.47071" lon="6.75578">
        <ele>335</ele>
        <time>2015-05-17T09:40:57.000Z</time>
      </trkpt>
      <trkpt lat="47.47072" lon="6.75585">
        <ele>336</ele>
        <time>2015-05-17T09:40:58.000Z</time>
      </trkpt>
      <trkpt lat="47.47072" lon="6.75591">
        <ele>336</ele>
        <time>2015-05-17T09:40:59.000Z</time>
      </trkpt>
      <trkpt lat="47.47072" lon="6.75598">
        <ele>336</ele>
        <time>2015-05-17T09:41:00.000Z</time>
      </trkpt>
      <trkpt lat="47.47072" lon="6.75604">
        <ele>336</ele>
        <time>2015-05-17T09:41:01.000Z</time>
      </trkpt>
      <trkpt lat="47.47074" lon="6.75612">
        <ele>336</ele>
        <time>2015-05-17T09:41:02.000Z</time>
      </trkpt>
      <trkpt lat="47.47074" lon="6.75618">
        <ele>337</ele>
        <time>2015-05-17T09:41:03.000Z</time>
      </trkpt>
      <trkpt lat="47.47074" lon="6.75625">
        <ele>337</ele>
        <time>2015-05-17T09:41:04.000Z</time>
      </trkpt>
      <trkpt lat="47.47074" lon="6.75631">
        <ele>337</ele>
        <time>2015-05-17T09:41:04.999Z</time>
      </trkpt>
      <trkpt lat="47.47075" lon="6.75637">
        <ele>337</ele>
        <time>2015-05-17T09:41:06.000Z</time>
      </trkpt>
      <trkpt lat="47.47075" lon="6.75643">
        <ele>337</ele>
        <time>2015-05-17T09:41:07.001Z</time>
      </trkpt>
      <trkpt lat="47.47075" lon="6.75649">
        <ele>337</ele>
        <time>2015-05-17T09:41:08.000Z</time>
      </trkpt>
      <trkpt lat="47.47075" lon="6.75656">
        <ele>337</ele>
        <time>2015-05-17T09:41:09.000Z</time>
      </trkpt>
      <trkpt lat="47.47074" lon="6.75665">
        <ele>337</ele>
        <time>2015-05-17T09:41:10.000Z</time>
      </trkpt>
      <trkpt lat="47.47075" lon="6.75672">
        <ele>338</ele>
        <time>2015-05-17T09:41:10.999Z</time>
      </trkpt>
      <trkpt lat="47.47075" lon="6.75678">
        <ele>338</ele>
        <time>2015-05-17T09:41:12.000Z</time>
      </trkpt>
      <trkpt lat="47.47076" lon="6.75685">
        <ele>338</ele>
        <time>2015-05-17T09:41:13.000Z</time>
      </trkpt>
      <trkpt lat="47.47077" lon="6.75691">
        <ele>338</ele>
        <time>2015-05-17T09:41:14.000Z</time>
      </trkpt>
      <trkpt lat="47.47078" lon="6.75697">
        <ele>339</ele>
        <time>2015-05-17T09:41:15.000Z</time>
      </trkpt>
      <trkpt lat="47.47079" lon="6.75703">
        <ele>339</ele>
        <time>2015-05-17T09:41:16.000Z</time>
      </trkpt>
      <trkpt lat="47.4708" lon="6.75709">
        <ele>339</ele>
        <time>2015-05-17T09:41:17.000Z</time>
      </trkpt>
      <trkpt lat="47.4708" lon="6.75716">
        <ele>339</ele>
        <time>2015-05-17T09:41:18.000Z</time>
      </trkpt>
      <trkpt lat="47.47081" lon="6.75722">
        <ele>339</ele>
        <time>2015-05-17T09:41:19.000Z</time>
      </trkpt>
      <trkpt lat="47.47082" lon="6.75729">
        <ele>339</ele>
        <time>2015-05-17T09:41:20.000Z</time>
      </trkpt>
      <trkpt lat="47.47082" lon="6.75735">
        <ele>339</ele>
        <time>2015-05-17T09:41:21.000Z</time>
      </trkpt>
      <trkpt lat="47.47082" lon="6.75741">
        <ele>339</ele>
        <time>2015-05-17T09:41:22.000Z</time>
      </trkpt>
      <trkpt lat="47.47083" lon="6.75746">
        <ele>339</ele>
        <time>2015-05-17T09:41:23.000Z</time>
      </trkpt>
      <trkpt lat="47.47085" lon="6.75752">
        <ele>339</ele>
        <time>2015-05-17T09:41:24.000Z</time>
      </trkpt>
      <trkpt lat="47.47086" lon="6.75757">
        <ele>339</ele>
        <time>2015-05-17T09:41:25.000Z</time>
      </trkpt>
      <trkpt lat="47.47087" lon="6.75763">
        <ele>339</ele>
        <time>2015-05-17T09:41:26.000Z</time>
      </trkpt>
      <trkpt lat="47.47088" lon="6.75769">
        <ele>339</ele>
        <time>2015-05-17T09:41:27.000Z</time>
      </trkpt>
      <trkpt lat="47.47089" lon="6.75775">
        <ele>339</ele>
        <time>2015-05-17T09:41:28.000Z</time>
      </trkpt>
      <trkpt lat="47.4709" lon="6.75781">
        <ele>339</ele>
        <time>2015-05-17T09:41:29.000Z</time>
      </trkpt>
      <trkpt lat="47.47091" lon="6.75786">
        <ele>339</ele>
        <time>2015-05-17T09:41:30.000Z</time>
      </trkpt>
      <trkpt lat="47.47091" lon="6.75792">
        <ele>339</ele>
        <time>2015-05-17T09:41:31.000Z</time>
      </trkpt>
      <trkpt lat="47.47093" lon="6.75798">
        <ele>339</ele>
        <time>2015-05-17T09:41:32.000Z</time>
      </trkpt>
      <trkpt lat="47.47093" lon="6.75802">
        <ele>339</ele>
        <time>2015-05-17T09:41:33.000Z</time>
      </trkpt>
      <trkpt lat="47.47093" lon="6.75807">
        <ele>340</ele>
        <time>2015-05-17T09:41:34.000Z</time>
      </trkpt>
      <trkpt lat="47.47093" lon="6.75812">
        <ele>340</ele>
        <time>2015-05-17T09:41:35.000Z</time>
      </trkpt>
      <trkpt lat="47.47093" lon="6.75818">
        <ele>340</ele>
        <time>2015-05-17T09:41:36.000Z</time>
      </trkpt>
      <trkpt lat="47.47094" lon="6.75823">
        <ele>340</ele>
        <time>2015-05-17T09:41:37.000Z</time>
      </trkpt>
      <trkpt lat="47.47094" lon="6.7583">
        <ele>340</ele>
        <time>2015-05-17T09:41:38.000Z</time>
      </trkpt>
      <trkpt lat="47.47093" lon="6.75835">
        <ele>340</ele>
        <time>2015-05-17T09:41:39.000Z</time>
      </trkpt>
      <trkpt lat="47.47094" lon="6.75841">
        <ele>340</ele>
        <time>2015-05-17T09:41:40.000Z</time>
      </trkpt>
      <trkpt lat="47.47094" lon="6.75848">
        <ele>340</ele>
        <time>2015-05-17T09:41:41.000Z</time>
      </trkpt>
      <trkpt lat="47.47094" lon="6.75854">
        <ele>340</ele>
        <time>2015-05-17T09:41:42.000Z</time>
      </trkpt>
      <trkpt lat="47.47094" lon="6.7586">
        <ele>340</ele>
        <time>2015-05-17T09:41:43.000Z</time>
      </trkpt>
      <trkpt lat="47.47094" lon="6.75867">
        <ele>340</ele>
        <time>2015-05-17T09:41:44.000Z</time>
      </trkpt>
      <trkpt lat="47.47094" lon="6.75874">
        <ele>340</ele>
        <time>2015-05-17T09:41:45.000Z</time>
      </trkpt>
      <trkpt lat="47.47094" lon="6.7588">
        <ele>340</ele>
        <time>2015-05-17T09:41:46.000Z</time>
      </trkpt>
      <trkpt lat="47.47094" lon="6.75886">
        <ele>340</ele>
        <time>2015-05-17T09:41:47.000Z</time>
      </trkpt>
      <trkpt lat="47.47094" lon="6.75894">
        <ele>340</ele>
        <time>2015-05-17T09:41:48.000Z</time>
      </trkpt>
      <trkpt lat="47.47094" lon="6.75901">
        <ele>340</ele>
        <time>2015-05-17T09:41:49.000Z</time>
      </trkpt>
      <trkpt lat="47.47094" lon="6.75908">
        <ele>340</ele>
        <time>2015-05-17T09:41:50.000Z</time>
      </trkpt>
      <trkpt lat="47.47093" lon="6.75915">
        <ele>340</ele>
        <time>2015-05-17T09:41:51.000Z</time>
      </trkpt>
      <trkpt lat="47.47093" lon="6.75921">
        <ele>339</ele>
        <time>2015-05-17T09:41:52.000Z</time>
      </trkpt>
      <trkpt lat="47.47092" lon="6.75928">
        <ele>339</ele>
        <time>2015-05-17T09:41:53.000Z</time>
      </trkpt>
      <trkpt lat="47.47092" lon="6.75936">
        <ele>339</ele>
        <time>2015-05-17T09:41:54.000Z</time>
      </trkpt>
      <trkpt lat="47.47092" lon="6.75945">
        <ele>339</ele>
        <time>2015-05-17T09:41:55.000Z</time>
      </trkpt>
      <trkpt lat="47.47092" lon="6.75954">
        <ele>338</ele>
        <time>2015-05-17T09:41:56.000Z</time>
      </trkpt>
      <trkpt lat="47.47092" lon="6.75962">
        <ele>338</ele>
        <time>2015-05-17T09:41:57.000Z</time>
      </trkpt>
      <trkpt lat="47.47091" lon="6.7597">
        <ele>338</ele>
        <time>2015-05-17T09:41:58.000Z</time>
      </trkpt>
      <trkpt lat="47.47092" lon="6.75979">
        <ele>338</ele>
        <time>2015-05-17T09:41:59.000Z</time>
      </trkpt>
      <trkpt lat="47.47092" lon="6.75985">
        <ele>338</ele>
        <time>2015-05-17T09:42:00.000Z</time>
      </trkpt>
      <trkpt lat="47.47093" lon="6.75991">
        <ele>337</ele>
        <time>2015-05-17T09:42:01.000Z</time>
      </trkpt>
      <trkpt lat="47.47095" lon="6.75998">
        <ele>337</ele>
        <time>2015-05-17T09:42:02.000Z</time>
      </trkpt>
      <trkpt lat="47.47101" lon="6.76">
        <ele>337</ele>
        <time>2015-05-17T09:42:03.000Z</time>
      </trkpt>
      <trkpt lat="47.47107" lon="6.76003">
        <ele>336</ele>
        <time>2015-05-17T09:42:04.000Z</time>
      </trkpt>
      <trkpt lat="47.47113" lon="6.76004">
        <ele>336</ele>
        <time>2015-05-17T09:42:05.000Z</time>
      </trkpt>
      <trkpt lat="47.47119" lon="6.76006">
        <ele>336</ele>
        <time>2015-05-17T09:42:06.000Z</time>
      </trkpt>
      <trkpt lat="47.47124" lon="6.76008">
        <ele>336</ele>
        <time>2015-05-17T09:42:07.000Z</time>
      </trkpt>
      <trkpt lat="47.4713" lon="6.7601">
        <ele>336</ele>
        <time>2015-05-17T09:42:08.000Z</time>
      </trkpt>
      <trkpt lat="47.47135" lon="6.76011">
        <ele>336</ele>
        <time>2015-05-17T09:42:08.999Z</time>
      </trkpt>
      <trkpt lat="47.47141" lon="6.76013">
        <ele>336</ele>
        <time>2015-05-17T09:42:10.000Z</time>
      </trkpt>
      <trkpt lat="47.47147" lon="6.76015">
        <ele>336</ele>
        <time>2015-05-17T09:42:11.000Z</time>
      </trkpt>
      <trkpt lat="47.47152" lon="6.76016">
        <ele>336</ele>
        <time>2015-05-17T09:42:12.000Z</time>
      </trkpt>
      <trkpt lat="47.47159" lon="6.76017">
        <ele>337</ele>
        <time>2015-05-17T09:42:13.000Z</time>
      </trkpt>
      <trkpt lat="47.47163" lon="6.76019">
        <ele>336</ele>
        <time>2015-05-17T09:42:14.000Z</time>
      </trkpt>
      <trkpt lat="47.47169" lon="6.76021">
        <ele>337</ele>
        <time>2015-05-17T09:42:15.000Z</time>
      </trkpt>
      <trkpt lat="47.47174" lon="6.76022">
        <ele>337</ele>
        <time>2015-05-17T09:42:16.000Z</time>
      </trkpt>
      <trkpt lat="47.47179" lon="6.76023">
        <ele>336</ele>
        <time>2015-05-17T09:42:17.000Z</time>
      </trkpt>
      <trkpt lat="47.47184" lon="6.76024">
        <ele>336</ele>
        <time>2015-05-17T09:42:18.000Z</time>
      </trkpt>
      <trkpt lat="47.47189" lon="6.76026">
        <ele>336</ele>
        <time>2015-05-17T09:42:19.000Z</time>
      </trkpt>
      <trkpt lat="47.47194" lon="6.76028">
        <ele>336</ele>
        <time>2015-05-17T09:42:20.000Z</time>
      </trkpt>
      <trkpt lat="47.47199" lon="6.76028">
        <ele>336</ele>
        <time>2015-05-17T09:42:21.000Z</time>
      </trkpt>
      <trkpt lat="47.47204" lon="6.76029">
        <ele>336</ele>
        <time>2015-05-17T09:42:22.000Z</time>
      </trkpt>
      <trkpt lat="47.4721" lon="6.76031">
        <ele>336</ele>
        <time>2015-05-17T09:42:23.000Z</time>
      </trkpt>
      <trkpt lat="47.47215" lon="6.76032">
        <ele>336</ele>
        <time>2015-05-17T09:42:24.000Z</time>
      </trkpt>
      <trkpt lat="47.4722" lon="6.76034">
        <ele>336</ele>
        <time>2015-05-17T09:42:25.000Z</time>
      </trkpt>
      <trkpt lat="47.47225" lon="6.76036">
        <ele>336</ele>
        <time>2015-05-17T09:42:26.000Z</time>
      </trkpt>
      <trkpt lat="47.4723" lon="6.76038">
        <ele>336</ele>
        <time>2015-05-17T09:42:27.000Z</time>
      </trkpt>
      <trkpt lat="47.47235" lon="6.76039">
        <ele>336</ele>
        <time>2015-05-17T09:42:28.000Z</time>
      </trkpt>
      <trkpt lat="47.4724" lon="6.76041">
        <ele>336</ele>
        <time>2015-05-17T09:42:29.000Z</time>
      </trkpt>
      <trkpt lat="47.47245" lon="6.76043">
        <ele>336</ele>
        <time>2015-05-17T09:42:30.000Z</time>
      </trkpt>
      <trkpt lat="47.47251" lon="6.76043">
        <ele>336</ele>
        <time>2015-05-17T09:42:31.000Z</time>
      </trkpt>
      <trkpt lat="47.47255" lon="6.76045">
        <ele>336</ele>
        <time>2015-05-17T09:42:32.000Z</time>
      </trkpt>
      <trkpt lat="47.47259" lon="6.76047">
        <ele>336</ele>
        <time>2015-05-17T09:42:33.000Z</time>
      </trkpt>
      <trkpt lat="47.47265" lon="6.76049">
        <ele>336</ele>
        <time>2015-05-17T09:42:34.000Z</time>
      </trkpt>
      <trkpt lat="47.4727" lon="6.76052">
        <ele>336</ele>
        <time>2015-05-17T09:42:35.000Z</time>
      </trkpt>
      <trkpt lat="47.47275" lon="6.76055">
        <ele>336</ele>
        <time>2015-05-17T09:42:36.000Z</time>
      </trkpt>
      <trkpt lat="47.4728" lon="6.76058">
        <ele>336</ele>
        <time>2015-05-17T09:42:37.000Z</time>
      </trkpt>
      <trkpt lat="47.47285" lon="6.7606">
        <ele>336</ele>
        <time>2015-05-17T09:42:38.000Z</time>
      </trkpt>
      <trkpt lat="47.47289" lon="6.76065">
        <ele>336</ele>
        <time>2015-05-17T09:42:39.000Z</time>
      </trkpt>
      <trkpt lat="47.47294" lon="6.76069">
        <ele>337</ele>
        <time>2015-05-17T09:42:40.000Z</time>
      </trkpt>
      <trkpt lat="47.47297" lon="6.76076">
        <ele>337</ele>
        <time>2015-05-17T09:42:41.000Z</time>
      </trkpt>
      <trkpt lat="47.473" lon="6.76081">
        <ele>337</ele>
        <time>2015-05-17T09:42:42.000Z</time>
      </trkpt>
      <trkpt lat="47.47304" lon="6.76086">
        <ele>336</ele>
        <time>2015-05-17T09:42:42.999Z</time>
      </trkpt>
      <trkpt lat="47.47307" lon="6.76093">
        <ele>336</ele>
        <time>2015-05-17T09:42:44.000Z</time>
      </trkpt>
      <trkpt lat="47.47309" lon="6.76099">
        <ele>336</ele>
        <time>2015-05-17T09:42:45.000Z</time>
      </trkpt>
      <trkpt lat="47.47313" lon="6.76103">
        <ele>336</ele>
        <time>2015-05-17T09:42:46.000Z</time>
      </trkpt>
      <trkpt lat="47.47317" lon="6.76108">
        <ele>336</ele>
        <time>2015-05-17T09:42:47.000Z</time>
      </trkpt>
      <trkpt lat="47.47321" lon="6.76113">
        <ele>336</ele>
        <time>2015-05-17T09:42:48.000Z</time>
      </trkpt>
      <trkpt lat="47.47324" lon="6.76118">
        <ele>336</ele>
        <time>2015-05-17T09:42:49.000Z</time>
      </trkpt>
      <trkpt lat="47.47326" lon="6.76122">
        <ele>336</ele>
        <time>2015-05-17T09:42:50.000Z</time>
      </trkpt>
      <trkpt lat="47.47329" lon="6.76127">
        <ele>335</ele>
        <time>2015-05-17T09:42:51.000Z</time>
      </trkpt>
      <trkpt lat="47.47333" lon="6.76132">
        <ele>335</ele>
        <time>2015-05-17T09:42:52.000Z</time>
      </trkpt>
      <trkpt lat="47.47337" lon="6.76135">
        <ele>332</ele>
        <time>2015-05-17T09:42:53.000Z</time>
      </trkpt>
      <trkpt lat="47.4734" lon="6.7614">
        <ele>332</ele>
        <time>2015-05-17T09:42:54.000Z</time>
      </trkpt>
      <trkpt lat="47.47345" lon="6.76144">
        <ele>332</ele>
        <time>2015-05-17T09:42:55.000Z</time>
      </trkpt>
      <trkpt lat="47.47348" lon="6.76149">
        <ele>332</ele>
        <time>2015-05-17T09:42:56.000Z</time>
      </trkpt>
      <trkpt lat="47.47351" lon="6.76154">
        <ele>332</ele>
        <time>2015-05-17T09:42:57.000Z</time>
      </trkpt>
      <trkpt lat="47.47354" lon="6.76159">
        <ele>332</ele>
        <time>2015-05-17T09:42:58.000Z</time>
      </trkpt>
      <trkpt lat="47.47358" lon="6.76164">
        <ele>332</ele>
        <time>2015-05-17T09:42:59.000Z</time>
      </trkpt>
      <trkpt lat="47.47362" lon="6.76169">
        <ele>331</ele>
        <time>2015-05-17T09:43:00.000Z</time>
      </trkpt>
      <trkpt lat="47.47366" lon="6.76175">
        <ele>331</ele>
        <time>2015-05-17T09:43:01.000Z</time>
      </trkpt>
      <trkpt lat="47.47371" lon="6.76181">
        <ele>330</ele>
        <time>2015-05-17T09:43:02.000Z</time>
      </trkpt>
      <trkpt lat="47.47375" lon="6.76187">
        <ele>330</ele>
        <time>2015-05-17T09:43:02.999Z</time>
      </trkpt>
      <trkpt lat="47.47378" lon="6.76195">
        <ele>330</ele>
        <time>2015-05-17T09:43:04.000Z</time>
      </trkpt>
      <trkpt lat="47.47382" lon="6.76202">
        <ele>330</ele>
        <time>2015-05-17T09:43:05.000Z</time>
      </trkpt>
      <trkpt lat="47.47386" lon="6.76209">
        <ele>329</ele>
        <time>2015-05-17T09:43:06.001Z</time>
      </trkpt>
      <trkpt lat="47.47393" lon="6.76213">
        <ele>329</ele>
        <time>2015-05-17T09:43:07.000Z</time>
      </trkpt>
      <trkpt lat="47.47398" lon="6.76218">
        <ele>329</ele>
        <time>2015-05-17T09:43:08.000Z</time>
      </trkpt>
      <trkpt lat="47.47402" lon="6.76223">
        <ele>329</ele>
        <time>2015-05-17T09:43:09.000Z</time>
      </trkpt>
      <trkpt lat="47.47407" lon="6.76228">
        <ele>329</ele>
        <time>2015-05-17T09:43:10.000Z</time>
      </trkpt>
      <trkpt lat="47.47409" lon="6.76234">
        <ele>328</ele>
        <time>2015-05-17T09:43:11.000Z</time>
      </trkpt>
      <trkpt lat="47.47411" lon="6.76242">
        <ele>328</ele>
        <time>2015-05-17T09:43:12.000Z</time>
      </trkpt>
      <trkpt lat="47.47413" lon="6.76249">
        <ele>327</ele>
        <time>2015-05-17T09:43:13.000Z</time>
      </trkpt>
      <trkpt lat="47.47414" lon="6.76258">
        <ele>327</ele>
        <time>2015-05-17T09:43:14.000Z</time>
      </trkpt>
      <trkpt lat="47.47416" lon="6.76264">
        <ele>326</ele>
        <time>2015-05-17T09:43:15.000Z</time>
      </trkpt>
      <trkpt lat="47.47418" lon="6.76272">
        <ele>322</ele>
        <time>2015-05-17T09:43:16.000Z</time>
      </trkpt>
      <trkpt lat="47.4742" lon="6.7628">
        <ele>321</ele>
        <time>2015-05-17T09:43:16.999Z</time>
      </trkpt>
      <trkpt lat="47.47421" lon="6.7629">
        <ele>320</ele>
        <time>2015-05-17T09:43:18.000Z</time>
      </trkpt>
      <trkpt lat="47.47422" lon="6.763">
        <ele>320</ele>
        <time>2015-05-17T09:43:19.000Z</time>
      </trkpt>
      <trkpt lat="47.47422" lon="6.76309">
        <ele>320</ele>
        <time>2015-05-17T09:43:20.000Z</time>
      </trkpt>
      <trkpt lat="47.47421" lon="6.76317">
        <ele>320</ele>
        <time>2015-05-17T09:43:21.000Z</time>
      </trkpt>
      <trkpt lat="47.47418" lon="6.76325">
        <ele>320</ele>
        <time>2015-05-17T09:43:22.000Z</time>
      </trkpt>
      <trkpt lat="47.47416" lon="6.76333">
        <ele>321</ele>
        <time>2015-05-17T09:43:23.000Z</time>
      </trkpt>
      <trkpt lat="47.47412" lon="6.76337">
        <ele>320</ele>
        <time>2015-05-17T09:43:24.000Z</time>
      </trkpt>
      <trkpt lat="47.47407" lon="6.76344">
        <ele>320</ele>
        <time>2015-05-17T09:43:25.000Z</time>
      </trkpt>
      <trkpt lat="47.47403" lon="6.76351">
        <ele>319</ele>
        <time>2015-05-17T09:43:26.000Z</time>
      </trkpt>
      <trkpt lat="47.474" lon="6.76357">
        <ele>319</ele>
        <time>2015-05-17T09:43:27.000Z</time>
      </trkpt>
      <trkpt lat="47.47395" lon="6.76363">
        <ele>318</ele>
        <time>2015-05-17T09:43:28.000Z</time>
      </trkpt>
      <trkpt lat="47.47392" lon="6.76367">
        <ele>318</ele>
        <time>2015-05-17T09:43:29.000Z</time>
      </trkpt>
      <trkpt lat="47.47389" lon="6.76372">
        <ele>318</ele>
        <time>2015-05-17T09:43:30.000Z</time>
      </trkpt>
      <trkpt lat="47.47386" lon="6.76378">
        <ele>318</ele>
        <time>2015-05-17T09:43:31.000Z</time>
      </trkpt>
      <trkpt lat="47.47385" lon="6.76384">
        <ele>317</ele>
        <time>2015-05-17T09:43:32.000Z</time>
      </trkpt>
      <trkpt lat="47.47384" lon="6.7639">
        <ele>317</ele>
        <time>2015-05-17T09:43:33.000Z</time>
      </trkpt>
      <trkpt lat="47.47386" lon="6.76397">
        <ele>317</ele>
        <time>2015-05-17T09:43:34.000Z</time>
      </trkpt>
      <trkpt lat="47.4739" lon="6.76402">
        <ele>316</ele>
        <time>2015-05-17T09:43:35.000Z</time>
      </trkpt>
      <trkpt lat="47.47394" lon="6.76407">
        <ele>316</ele>
        <time>2015-05-17T09:43:36.000Z</time>
      </trkpt>
      <trkpt lat="47.47399" lon="6.76413">
        <ele>316</ele>
        <time>2015-05-17T09:43:37.000Z</time>
      </trkpt>
      <trkpt lat="47.47404" lon="6.76418">
        <ele>313</ele>
        <time>2015-05-17T09:43:38.000Z</time>
      </trkpt>
      <trkpt lat="47.4741" lon="6.76424">
        <ele>313</ele>
        <time>2015-05-17T09:43:39.000Z</time>
      </trkpt>
      <trkpt lat="47.47416" lon="6.7643">
        <ele>313</ele>
        <time>2015-05-17T09:43:40.000Z</time>
      </trkpt>
      <trkpt lat="47.47421" lon="6.76435">
        <ele>312</ele>
        <time>2015-05-17T09:43:41.000Z</time>
      </trkpt>
      <trkpt lat="47.47426" lon="6.7644">
        <ele>311</ele>
        <time>2015-05-17T09:43:42.000Z</time>
      </trkpt>
      <trkpt lat="47.47429" lon="6.76444">
        <ele>311</ele>
        <time>2015-05-17T09:43:43.000Z</time>
      </trkpt>
      <trkpt lat="47.47433" lon="6.76449">
        <ele>311</ele>
        <time>2015-05-17T09:43:45.000Z</time>
      </trkpt>
      <trkpt lat="47.47433" lon="6.76449">
        <ele>311</ele>
        <time>2015-05-17T09:43:46.000Z</time>
      </trkpt>
      <trkpt lat="47.47435" lon="6.76452">
        <ele>311</ele>
        <time>2015-05-17T09:43:48.000Z</time>
      </trkpt>
      <trkpt lat="47.47436" lon="6.76455">
        <ele>311</ele>
        <time>2015-05-17T09:43:49.001Z</time>
      </trkpt>
      <trkpt lat="47.47438" lon="6.76461">
        <ele>311</ele>
        <time>2015-05-17T09:43:52.000Z</time>
      </trkpt>
      <trkpt lat="47.47439" lon="6.76462">
        <ele>311</ele>
        <time>2015-05-17T09:43:53.000Z</time>
      </trkpt>
      <trkpt lat="47.47442" lon="6.76461">
        <ele>311</ele>
        <time>2015-05-17T09:43:55.000Z</time>
      </trkpt>
      <trkpt lat="47.47445" lon="6.76458">
        <ele>311</ele>
        <time>2015-05-17T09:43:56.000Z</time>
      </trkpt>
      <trkpt lat="47.47447" lon="6.76454">
        <ele>311</ele>
        <time>2015-05-17T09:43:57.000Z</time>
      </trkpt>
      <trkpt lat="47.4745" lon="6.76449">
        <ele>311</ele>
        <time>2015-05-17T09:43:58.000Z</time>
      </trkpt>
      <trkpt lat="47.47457" lon="6.76441">
        <ele>311</ele>
        <time>2015-05-17T09:43:59.000Z</time>
      </trkpt>
      <trkpt lat="47.47463" lon="6.76439">
        <ele>310</ele>
        <time>2015-05-17T09:44:00.000Z</time>
      </trkpt>
      <trkpt lat="47.4747" lon="6.76438">
        <ele>310</ele>
        <time>2015-05-17T09:44:00.998Z</time>
      </trkpt>
      <trkpt lat="47.47475" lon="6.76437">
        <ele>310</ele>
        <time>2015-05-17T09:44:02.000Z</time>
      </trkpt>
      <trkpt lat="47.47482" lon="6.76438">
        <ele>310</ele>
        <time>2015-05-17T09:44:03.000Z</time>
      </trkpt>
      <trkpt lat="47.47488" lon="6.76438">
        <ele>310</ele>
        <time>2015-05-17T09:44:04.000Z</time>
      </trkpt>
      <trkpt lat="47.47493" lon="6.76435">
        <ele>310</ele>
        <time>2015-05-17T09:44:05.000Z</time>
      </trkpt>
      <trkpt lat="47.47498" lon="6.76432">
        <ele>310</ele>
        <time>2015-05-17T09:44:05.999Z</time>
      </trkpt>
      <trkpt lat="47.47501" lon="6.76438">
        <ele>309</ele>
        <time>2015-05-17T09:44:07.000Z</time>
      </trkpt>
      <trkpt lat="47.47504" lon="6.76444">
        <ele>309</ele>
        <time>2015-05-17T09:44:08.000Z</time>
      </trkpt>
      <trkpt lat="47.47508" lon="6.76449">
        <ele>309</ele>
        <time>2015-05-17T09:44:09.001Z</time>
      </trkpt>
      <trkpt lat="47.47515" lon="6.76444">
        <ele>309</ele>
        <time>2015-05-17T09:44:10.000Z</time>
      </trkpt>
      <trkpt lat="47.47518" lon="6.76442">
        <ele>309</ele>
        <time>2015-05-17T09:44:11.000Z</time>
      </trkpt>
      <trkpt lat="47.47521" lon="6.76439">
        <ele>309</ele>
        <time>2015-05-17T09:44:12.000Z</time>
      </trkpt>
      <trkpt lat="47.47524" lon="6.76432">
        <ele>309</ele>
        <time>2015-05-17T09:44:13.000Z</time>
      </trkpt>
      <trkpt lat="47.47527" lon="6.76427">
        <ele>309</ele>
        <time>2015-05-17T09:44:14.000Z</time>
      </trkpt>
      <trkpt lat="47.47532" lon="6.76423">
        <ele>309</ele>
        <time>2015-05-17T09:44:14.998Z</time>
      </trkpt>
      <trkpt lat="47.47536" lon="6.76417">
        <ele>309</ele>
        <time>2015-05-17T09:44:16.000Z</time>
      </trkpt>
      <trkpt lat="47.47539" lon="6.76414">
        <ele>309</ele>
        <time>2015-05-17T09:44:17.000Z</time>
      </trkpt>
      <trkpt lat="47.4754" lon="6.76412">
        <ele>309</ele>
        <time>2015-05-17T09:44:18.000Z</time>
      </trkpt>
      <trkpt lat="47.47542" lon="6.7641">
        <ele>309</ele>
        <time>2015-05-17T09:44:19.001Z</time>
      </trkpt>
      <trkpt lat="47.47545" lon="6.76404">
        <ele>310</ele>
        <time>2015-05-17T09:44:20.000Z</time>
      </trkpt>
      <trkpt lat="47.47547" lon="6.764">
        <ele>310</ele>
        <time>2015-05-17T09:44:20.999Z</time>
      </trkpt>
      <trkpt lat="47.47549" lon="6.76395">
        <ele>310</ele>
        <time>2015-05-17T09:44:22.000Z</time>
      </trkpt>
      <trkpt lat="47.47552" lon="6.76383">
        <ele>310</ele>
        <time>2015-05-17T09:44:23.000Z</time>
      </trkpt>
      <trkpt lat="47.47555" lon="6.76373">
        <ele>310</ele>
        <time>2015-05-17T09:44:24.000Z</time>
      </trkpt>
      <trkpt lat="47.47559" lon="6.76366">
        <ele>310</ele>
        <time>2015-05-17T09:44:25.001Z</time>
      </trkpt>
      <trkpt lat="47.4756" lon="6.76361">
        <ele>310</ele>
        <time>2015-05-17T09:44:26.000Z</time>
      </trkpt>
      <trkpt lat="47.47562" lon="6.76358">
        <ele>310</ele>
        <time>2015-05-17T09:44:27.000Z</time>
      </trkpt>
      <trkpt lat="47.47564" lon="6.76356">
        <ele>311</ele>
        <time>2015-05-17T09:44:28.000Z</time>
      </trkpt>
      <trkpt lat="47.47566" lon="6.76353">
        <ele>311</ele>
        <time>2015-05-17T09:44:28.999Z</time>
      </trkpt>
      <trkpt lat="47.4757" lon="6.76355">
        <ele>311</ele>
        <time>2015-05-17T09:44:30.000Z</time>
      </trkpt>
      <trkpt lat="47.47572" lon="6.76355">
        <ele>311</ele>
        <time>2015-05-17T09:44:31.000Z</time>
      </trkpt>
      <trkpt lat="47.47575" lon="6.76344">
        <ele>311</ele>
        <time>2015-05-17T09:44:32.000Z</time>
      </trkpt>
      <trkpt lat="47.47578" lon="6.76338">
        <ele>312</ele>
        <time>2015-05-17T09:44:33.000Z</time>
      </trkpt>
      <trkpt lat="47.47581" lon="6.76332">
        <ele>312</ele>
        <time>2015-05-17T09:44:34.000Z</time>
      </trkpt>
      <trkpt lat="47.47584" lon="6.76327">
        <ele>312</ele>
        <time>2015-05-17T09:44:35.000Z</time>
      </trkpt>
      <trkpt lat="47.4759" lon="6.76319">
        <ele>311</ele>
        <time>2015-05-17T09:44:36.000Z</time>
      </trkpt>
      <trkpt lat="47.47592" lon="6.76308">
        <ele>311</ele>
        <time>2015-05-17T09:44:38.000Z</time>
      </trkpt>
      <trkpt lat="47.47594" lon="6.76303">
        <ele>311</ele>
        <time>2015-05-17T09:44:39.000Z</time>
      </trkpt>
      <trkpt lat="47.47596" lon="6.76293">
        <ele>311</ele>
        <time>2015-05-17T09:44:40.000Z</time>
      </trkpt>
      <trkpt lat="47.476" lon="6.76288">
        <ele>311</ele>
        <time>2015-05-17T09:44:41.000Z</time>
      </trkpt>
      <trkpt lat="47.47603" lon="6.76282">
        <ele>311</ele>
        <time>2015-05-17T09:44:42.000Z</time>
      </trkpt>
      <trkpt lat="47.47607" lon="6.76266">
        <ele>311</ele>
        <time>2015-05-17T09:44:43.000Z</time>
      </trkpt>
      <trkpt lat="47.47611" lon="6.76256">
        <ele>311</ele>
        <time>2015-05-17T09:44:44.000Z</time>
      </trkpt>
      <trkpt lat="47.47616" lon="6.76245">
        <ele>311</ele>
        <time>2015-05-17T09:44:45.000Z</time>
      </trkpt>
      <trkpt lat="47.47618" lon="6.76238">
        <ele>311</ele>
        <time>2015-05-17T09:44:46.000Z</time>
      </trkpt>
      <trkpt lat="47.4762" lon="6.76232">
        <ele>311</ele>
        <time>2015-05-17T09:44:47.000Z</time>
      </trkpt>
      <trkpt lat="47.47624" lon="6.76225">
        <ele>311</ele>
        <time>2015-05-17T09:44:48.000Z</time>
      </trkpt>
      <trkpt lat="47.47627" lon="6.76218">
        <ele>311</ele>
        <time>2015-05-17T09:44:49.000Z</time>
      </trkpt>
      <trkpt lat="47.4763" lon="6.76208">
        <ele>311</ele>
        <time>2015-05-17T09:44:50.000Z</time>
      </trkpt>
      <trkpt lat="47.47633" lon="6.76201">
        <ele>311</ele>
        <time>2015-05-17T09:44:51.000Z</time>
      </trkpt>
      <trkpt lat="47.47635" lon="6.76195">
        <ele>311</ele>
        <time>2015-05-17T09:44:52.000Z</time>
      </trkpt>
      <trkpt lat="47.47641" lon="6.76183">
        <ele>311</ele>
        <time>2015-05-17T09:44:53.000Z</time>
      </trkpt>
      <trkpt lat="47.47645" lon="6.76171">
        <ele>311</ele>
        <time>2015-05-17T09:44:54.000Z</time>
      </trkpt>
      <trkpt lat="47.47649" lon="6.76162">
        <ele>311</ele>
        <time>2015-05-17T09:44:55.000Z</time>
      </trkpt>
      <trkpt lat="47.47652" lon="6.76154">
        <ele>311</ele>
        <time>2015-05-17T09:44:56.000Z</time>
      </trkpt>
      <trkpt lat="47.47655" lon="6.76148">
        <ele>311</ele>
        <time>2015-05-17T09:44:57.000Z</time>
      </trkpt>
      <trkpt lat="47.47656" lon="6.76143">
        <ele>311</ele>
        <time>2015-05-17T09:44:58.000Z</time>
      </trkpt>
      <trkpt lat="47.47659" lon="6.76136">
        <ele>311</ele>
        <time>2015-05-17T09:44:59.000Z</time>
      </trkpt>
      <trkpt lat="47.47664" lon="6.76128">
        <ele>311</ele>
        <time>2015-05-17T09:45:00.000Z</time>
      </trkpt>
      <trkpt lat="47.4767" lon="6.76117">
        <ele>310</ele>
        <time>2015-05-17T09:45:01.000Z</time>
      </trkpt>
      <trkpt lat="47.47673" lon="6.76109">
        <ele>310</ele>
        <time>2015-05-17T09:45:02.000Z</time>
      </trkpt>
      <trkpt lat="47.47675" lon="6.76099">
        <ele>310</ele>
        <time>2015-05-17T09:45:03.000Z</time>
      </trkpt>
      <trkpt lat="47.47677" lon="6.76092">
        <ele>310</ele>
        <time>2015-05-17T09:45:04.000Z</time>
      </trkpt>
      <trkpt lat="47.47682" lon="6.76092">
        <ele>310</ele>
        <time>2015-05-17T09:45:07.000Z</time>
      </trkpt>
      <trkpt lat="47.47683" lon="6.76096">
        <ele>310</ele>
        <time>2015-05-17T09:45:08.000Z</time>
      </trkpt>
      <trkpt lat="47.47684" lon="6.76099">
        <ele>310</ele>
        <time>2015-05-17T09:45:09.000Z</time>
      </trkpt>
      <trkpt lat="47.47686" lon="6.76103">
        <ele>310</ele>
        <time>2015-05-17T09:45:10.000Z</time>
      </trkpt>
      <trkpt lat="47.4769" lon="6.76107">
        <ele>310</ele>
        <time>2015-05-17T09:45:11.000Z</time>
      </trkpt>
      <trkpt lat="47.47694" lon="6.76111">
        <ele>310</ele>
        <time>2015-05-17T09:45:12.000Z</time>
      </trkpt>
      <trkpt lat="47.47697" lon="6.76116">
        <ele>310</ele>
        <time>2015-05-17T09:45:13.000Z</time>
      </trkpt>
      <trkpt lat="47.477" lon="6.76125">
        <ele>310</ele>
        <time>2015-05-17T09:45:14.000Z</time>
      </trkpt>
      <trkpt lat="47.47703" lon="6.76131">
        <ele>310</ele>
        <time>2015-05-17T09:45:15.001Z</time>
      </trkpt>
      <trkpt lat="47.47706" lon="6.76132">
        <ele>310</ele>
        <time>2015-05-17T09:45:16.001Z</time>
      </trkpt>
      <trkpt lat="47.47709" lon="6.76138">
        <ele>309</ele>
        <time>2015-05-17T09:45:17.000Z</time>
      </trkpt>
      <trkpt lat="47.47712" lon="6.76144">
        <ele>309</ele>
        <time>2015-05-17T09:45:18.000Z</time>
      </trkpt>
      <trkpt lat="47.47716" lon="6.76149">
        <ele>309</ele>
        <time>2015-05-17T09:45:19.000Z</time>
      </trkpt>
      <trkpt lat="47.47719" lon="6.76152">
        <ele>309</ele>
        <time>2015-05-17T09:45:20.000Z</time>
      </trkpt>
      <trkpt lat="47.47723" lon="6.76157">
        <ele>309</ele>
        <time>2015-05-17T09:45:21.000Z</time>
      </trkpt>
      <trkpt lat="47.47726" lon="6.76163">
        <ele>309</ele>
        <time>2015-05-17T09:45:22.000Z</time>
      </trkpt>
      <trkpt lat="47.47731" lon="6.76169">
        <ele>308</ele>
        <time>2015-05-17T09:45:23.000Z</time>
      </trkpt>
      <trkpt lat="47.47734" lon="6.76174">
        <ele>308</ele>
        <time>2015-05-17T09:45:24.000Z</time>
      </trkpt>
      <trkpt lat="47.47739" lon="6.7618">
        <ele>308</ele>
        <time>2015-05-17T09:45:25.000Z</time>
      </trkpt>
      <trkpt lat="47.47742" lon="6.76187">
        <ele>308</ele>
        <time>2015-05-17T09:45:26.000Z</time>
      </trkpt>
      <trkpt lat="47.47746" lon="6.76192">
        <ele>309</ele>
        <time>2015-05-17T09:45:27.000Z</time>
      </trkpt>
      <trkpt lat="47.4775" lon="6.76196">
        <ele>309</ele>
        <time>2015-05-17T09:45:28.000Z</time>
      </trkpt>
      <trkpt lat="47.47753" lon="6.76201">
        <ele>309</ele>
        <time>2015-05-17T09:45:29.000Z</time>
      </trkpt>
      <trkpt lat="47.47756" lon="6.76204">
        <ele>309</ele>
        <time>2015-05-17T09:45:30.000Z</time>
      </trkpt>
      <trkpt lat="47.47758" lon="6.7621">
        <ele>309</ele>
        <time>2015-05-17T09:45:31.000Z</time>
      </trkpt>
      <trkpt lat="47.47762" lon="6.76216">
        <ele>309</ele>
        <time>2015-05-17T09:45:32.000Z</time>
      </trkpt>
      <trkpt lat="47.47764" lon="6.76224">
        <ele>309</ele>
        <time>2015-05-17T09:45:33.000Z</time>
      </trkpt>
      <trkpt lat="47.4777" lon="6.7623">
        <ele>309</ele>
        <time>2015-05-17T09:45:34.000Z</time>
      </trkpt>
      <trkpt lat="47.47774" lon="6.76236">
        <ele>309</ele>
        <time>2015-05-17T09:45:35.000Z</time>
      </trkpt>
      <trkpt lat="47.47777" lon="6.76242">
        <ele>309</ele>
        <time>2015-05-17T09:45:36.000Z</time>
      </trkpt>
      <trkpt lat="47.47781" lon="6.76247">
        <ele>309</ele>
        <time>2015-05-17T09:45:37.000Z</time>
      </trkpt>
      <trkpt lat="47.47787" lon="6.76252">
        <ele>310</ele>
        <time>2015-05-17T09:45:38.000Z</time>
      </trkpt>
      <trkpt lat="47.47793" lon="6.76256">
        <ele>310</ele>
        <time>2015-05-17T09:45:39.000Z</time>
      </trkpt>
      <trkpt lat="47.47799" lon="6.76259">
        <ele>310</ele>
        <time>2015-05-17T09:45:40.000Z</time>
      </trkpt>
      <trkpt lat="47.47804" lon="6.76262">
        <ele>310</ele>
        <time>2015-05-17T09:45:41.000Z</time>
      </trkpt>
      <trkpt lat="47.47811" lon="6.76266">
        <ele>310</ele>
        <time>2015-05-17T09:45:42.000Z</time>
      </trkpt>
      <trkpt lat="47.47817" lon="6.76268">
        <ele>310</ele>
        <time>2015-05-17T09:45:43.000Z</time>
      </trkpt>
      <trkpt lat="47.47822" lon="6.76271">
        <ele>310</ele>
        <time>2015-05-17T09:45:44.000Z</time>
      </trkpt>
      <trkpt lat="47.47828" lon="6.76274">
        <ele>310</ele>
        <time>2015-05-17T09:45:45.000Z</time>
      </trkpt>
      <trkpt lat="47.47834" lon="6.76279">
        <ele>311</ele>
        <time>2015-05-17T09:45:45.999Z</time>
      </trkpt>
      <trkpt lat="47.47839" lon="6.76284">
        <ele>311</ele>
        <time>2015-05-17T09:45:47.000Z</time>
      </trkpt>
      <trkpt lat="47.47845" lon="6.76288">
        <ele>310</ele>
        <time>2015-05-17T09:45:48.000Z</time>
      </trkpt>
      <trkpt lat="47.47849" lon="6.76294">
        <ele>310</ele>
        <time>2015-05-17T09:45:48.998Z</time>
      </trkpt>
      <trkpt lat="47.47853" lon="6.763">
        <ele>310</ele>
        <time>2015-05-17T09:45:50.000Z</time>
      </trkpt>
      <trkpt lat="47.47856" lon="6.76308">
        <ele>310</ele>
        <time>2015-05-17T09:45:51.000Z</time>
      </trkpt>
      <trkpt lat="47.47859" lon="6.76317">
        <ele>310</ele>
        <time>2015-05-17T09:45:52.000Z</time>
      </trkpt>
      <trkpt lat="47.47862" lon="6.76324">
        <ele>310</ele>
        <time>2015-05-17T09:45:53.000Z</time>
      </trkpt>
      <trkpt lat="47.47867" lon="6.76331">
        <ele>310</ele>
        <time>2015-05-17T09:45:54.000Z</time>
      </trkpt>
      <trkpt lat="47.47871" lon="6.76339">
        <ele>311</ele>
        <time>2015-05-17T09:45:55.000Z</time>
      </trkpt>
      <trkpt lat="47.47875" lon="6.76345">
        <ele>311</ele>
        <time>2015-05-17T09:45:56.000Z</time>
      </trkpt>
      <trkpt lat="47.47878" lon="6.76354">
        <ele>311</ele>
        <time>2015-05-17T09:45:57.000Z</time>
      </trkpt>
      <trkpt lat="47.47882" lon="6.76361">
        <ele>311</ele>
        <time>2015-05-17T09:45:58.000Z</time>
      </trkpt>
      <trkpt lat="47.47886" lon="6.7637">
        <ele>311</ele>
        <time>2015-05-17T09:45:59.000Z</time>
      </trkpt>
      <trkpt lat="47.47889" lon="6.76379">
        <ele>311</ele>
        <time>2015-05-17T09:46:00.000Z</time>
      </trkpt>
      <trkpt lat="47.47893" lon="6.76385">
        <ele>311</ele>
        <time>2015-05-17T09:46:01.000Z</time>
      </trkpt>
      <trkpt lat="47.47897" lon="6.76392">
        <ele>311</ele>
        <time>2015-05-17T09:46:02.000Z</time>
      </trkpt>
      <trkpt lat="47.479" lon="6.764">
        <ele>311</ele>
        <time>2015-05-17T09:46:03.000Z</time>
      </trkpt>
      <trkpt lat="47.47903" lon="6.76407">
        <ele>311</ele>
        <time>2015-05-17T09:46:04.000Z</time>
      </trkpt>
      <trkpt lat="47.47904" lon="6.76416">
        <ele>311</ele>
        <time>2015-05-17T09:46:05.000Z</time>
      </trkpt>
      <trkpt lat="47.47906" lon="6.76428">
        <ele>311</ele>
        <time>2015-05-17T09:46:06.000Z</time>
      </trkpt>
      <trkpt lat="47.47908" lon="6.76436">
        <ele>311</ele>
        <time>2015-05-17T09:46:07.000Z</time>
      </trkpt>
      <trkpt lat="47.4791" lon="6.76444">
        <ele>311</ele>
        <time>2015-05-17T09:46:08.000Z</time>
      </trkpt>
      <trkpt lat="47.47914" lon="6.76451">
        <ele>311</ele>
        <time>2015-05-17T09:46:09.000Z</time>
      </trkpt>
      <trkpt lat="47.47917" lon="6.76459">
        <ele>311</ele>
        <time>2015-05-17T09:46:10.000Z</time>
      </trkpt>
      <trkpt lat="47.47918" lon="6.76466">
        <ele>311</ele>
        <time>2015-05-17T09:46:11.000Z</time>
      </trkpt>
      <trkpt lat="47.47922" lon="6.76476">
        <ele>311</ele>
        <time>2015-05-17T09:46:12.000Z</time>
      </trkpt>
      <trkpt lat="47.47925" lon="6.76483">
        <ele>311</ele>
        <time>2015-05-17T09:46:13.000Z</time>
      </trkpt>
      <trkpt lat="47.47927" lon="6.7649">
        <ele>311</ele>
        <time>2015-05-17T09:46:14.000Z</time>
      </trkpt>
      <trkpt lat="47.47929" lon="6.76499">
        <ele>310</ele>
        <time>2015-05-17T09:46:15.000Z</time>
      </trkpt>
      <trkpt lat="47.47931" lon="6.76508">
        <ele>310</ele>
        <time>2015-05-17T09:46:16.000Z</time>
      </trkpt>
      <trkpt lat="47.47934" lon="6.76515">
        <ele>311</ele>
        <time>2015-05-17T09:46:17.000Z</time>
      </trkpt>
      <trkpt lat="47.47935" lon="6.76523">
        <ele>311</ele>
        <time>2015-05-17T09:46:18.000Z</time>
      </trkpt>
      <trkpt lat="47.47938" lon="6.76532">
        <ele>311</ele>
        <time>2015-05-17T09:46:19.000Z</time>
      </trkpt>
      <trkpt lat="47.47941" lon="6.76541">
        <ele>311</ele>
        <time>2015-05-17T09:46:20.000Z</time>
      </trkpt>
      <trkpt lat="47.47943" lon="6.76548">
        <ele>311</ele>
        <time>2015-05-17T09:46:20.998Z</time>
      </trkpt>
      <trkpt lat="47.47945" lon="6.76558">
        <ele>311</ele>
        <time>2015-05-17T09:46:22.000Z</time>
      </trkpt>
      <trkpt lat="47.47945" lon="6.76567">
        <ele>311</ele>
        <time>2015-05-17T09:46:23.000Z</time>
      </trkpt>
      <trkpt lat="47.47944" lon="6.76576">
        <ele>311</ele>
        <time>2015-05-17T09:46:24.000Z</time>
      </trkpt>
      <trkpt lat="47.47945" lon="6.76584">
        <ele>311</ele>
        <time>2015-05-17T09:46:25.000Z</time>
      </trkpt>
      <trkpt lat="47.47946" lon="6.76593">
        <ele>311</ele>
        <time>2015-05-17T09:46:26.000Z</time>
      </trkpt>
      <trkpt lat="47.47947" lon="6.766">
        <ele>311</ele>
        <time>2015-05-17T09:46:27.000Z</time>
      </trkpt>
      <trkpt lat="47.47948" lon="6.76604">
        <ele>311</ele>
        <time>2015-05-17T09:46:28.000Z</time>
      </trkpt>
      <trkpt lat="47.47948" lon="6.76608">
        <ele>311</ele>
        <time>2015-05-17T09:46:28.999Z</time>
      </trkpt>
      <trkpt lat="47.47949" lon="6.76613">
        <ele>311</ele>
        <time>2015-05-17T09:46:31.000Z</time>
      </trkpt>
      <trkpt lat="47.47949" lon="6.76615">
        <ele>311</ele>
        <time>2015-05-17T09:46:32.000Z</time>
      </trkpt>
      <trkpt lat="47.47953" lon="6.76619">
        <ele>311</ele>
        <time>2015-05-17T09:46:34.000Z</time>
      </trkpt>
      <trkpt lat="47.47956" lon="6.76622">
        <ele>311</ele>
        <time>2015-05-17T09:46:35.000Z</time>
      </trkpt>
      <trkpt lat="47.47959" lon="6.76622">
        <ele>311</ele>
        <time>2015-05-17T09:46:36.000Z</time>
      </trkpt>
      <trkpt lat="47.47962" lon="6.76622">
        <ele>311</ele>
        <time>2015-05-17T09:46:37.000Z</time>
      </trkpt>
      <trkpt lat="47.47966" lon="6.76621">
        <ele>311</ele>
        <time>2015-05-17T09:46:38.000Z</time>
      </trkpt>
      <trkpt lat="47.47969" lon="6.76619">
        <ele>311</ele>
        <time>2015-05-17T09:46:39.000Z</time>
      </trkpt>
      <trkpt lat="47.47973" lon="6.76618">
        <ele>311</ele>
        <time>2015-05-17T09:46:40.000Z</time>
      </trkpt>
      <trkpt lat="47.47976" lon="6.76619">
        <ele>311</ele>
        <time>2015-05-17T09:46:41.000Z</time>
      </trkpt>
      <trkpt lat="47.47982" lon="6.76618">
        <ele>311</ele>
        <time>2015-05-17T09:46:42.000Z</time>
      </trkpt>
      <trkpt lat="47.47986" lon="6.76613">
        <ele>311</ele>
        <time>2015-05-17T09:46:43.000Z</time>
      </trkpt>
      <trkpt lat="47.47991" lon="6.76611">
        <ele>312</ele>
        <time>2015-05-17T09:46:44.000Z</time>
      </trkpt>
      <trkpt lat="47.47995" lon="6.76606">
        <ele>312</ele>
        <time>2015-05-17T09:46:45.000Z</time>
      </trkpt>
      <trkpt lat="47.48" lon="6.76609">
        <ele>312</ele>
        <time>2015-05-17T09:46:46.000Z</time>
      </trkpt>
      <trkpt lat="47.48003" lon="6.7661">
        <ele>312</ele>
        <time>2015-05-17T09:46:47.000Z</time>
      </trkpt>
      <trkpt lat="47.48009" lon="6.76606">
        <ele>312</ele>
        <time>2015-05-17T09:46:48.000Z</time>
      </trkpt>
      <trkpt lat="47.48014" lon="6.76601">
        <ele>312</ele>
        <time>2015-05-17T09:46:49.000Z</time>
      </trkpt>
      <trkpt lat="47.4802" lon="6.76597">
        <ele>312</ele>
        <time>2015-05-17T09:46:50.000Z</time>
      </trkpt>
      <trkpt lat="47.48026" lon="6.76594">
        <ele>312</ele>
        <time>2015-05-17T09:46:50.999Z</time>
      </trkpt>
      <trkpt lat="47.48031" lon="6.76587">
        <ele>312</ele>
        <time>2015-05-17T09:46:52.000Z</time>
      </trkpt>
      <trkpt lat="47.48036" lon="6.76581">
        <ele>312</ele>
        <time>2015-05-17T09:46:53.000Z</time>
      </trkpt>
      <trkpt lat="47.48042" lon="6.76576">
        <ele>312</ele>
        <time>2015-05-17T09:46:54.000Z</time>
      </trkpt>
      <trkpt lat="47.48047" lon="6.7657">
        <ele>312</ele>
        <time>2015-05-17T09:46:55.000Z</time>
      </trkpt>
      <trkpt lat="47.48053" lon="6.76565">
        <ele>312</ele>
        <time>2015-05-17T09:46:56.000Z</time>
      </trkpt>
      <trkpt lat="47.48058" lon="6.7656">
        <ele>312</ele>
        <time>2015-05-17T09:46:57.000Z</time>
      </trkpt>
      <trkpt lat="47.48063" lon="6.76558">
        <ele>312</ele>
        <time>2015-05-17T09:46:58.000Z</time>
      </trkpt>
      <trkpt lat="47.48068" lon="6.76555">
        <ele>312</ele>
        <time>2015-05-17T09:46:59.000Z</time>
      </trkpt>
      <trkpt lat="47.48076" lon="6.76548">
        <ele>312</ele>
        <time>2015-05-17T09:46:59.999Z</time>
      </trkpt>
      <trkpt lat="47.4808" lon="6.76544">
        <ele>312</ele>
        <time>2015-05-17T09:47:01.002Z</time>
      </trkpt>
      <trkpt lat="47.48087" lon="6.76539">
        <ele>317</ele>
        <time>2015-05-17T09:47:02.000Z</time>
      </trkpt>
      <trkpt lat="47.48092" lon="6.76534">
        <ele>318</ele>
        <time>2015-05-17T09:47:03.000Z</time>
      </trkpt>
      <trkpt lat="47.48097" lon="6.76529">
        <ele>318</ele>
        <time>2015-05-17T09:47:04.000Z</time>
      </trkpt>
      <trkpt lat="47.48102" lon="6.76525">
        <ele>318</ele>
        <time>2015-05-17T09:47:05.000Z</time>
      </trkpt>
      <trkpt lat="47.48106" lon="6.76519">
        <ele>319</ele>
        <time>2015-05-17T09:47:06.000Z</time>
      </trkpt>
      <trkpt lat="47.48108" lon="6.76525">
        <ele>319</ele>
        <time>2015-05-17T09:47:07.000Z</time>
      </trkpt>
      <trkpt lat="47.48111" lon="6.76527">
        <ele>319</ele>
        <time>2015-05-17T09:47:08.000Z</time>
      </trkpt>
      <trkpt lat="47.48114" lon="6.76533">
        <ele>319</ele>
        <time>2015-05-17T09:47:09.000Z</time>
      </trkpt>
      <trkpt lat="47.48116" lon="6.76538">
        <ele>319</ele>
        <time>2015-05-17T09:47:10.000Z</time>
      </trkpt>
      <trkpt lat="47.48118" lon="6.76542">
        <ele>319</ele>
        <time>2015-05-17T09:47:11.000Z</time>
      </trkpt>
      <trkpt lat="47.48119" lon="6.76549">
        <ele>319</ele>
        <time>2015-05-17T09:47:12.000Z</time>
      </trkpt>
      <trkpt lat="47.48116" lon="6.76556">
        <ele>318</ele>
        <time>2015-05-17T09:47:13.000Z</time>
      </trkpt>
      <trkpt lat="47.48113" lon="6.76561">
        <ele>318</ele>
        <time>2015-05-17T09:47:14.000Z</time>
      </trkpt>
      <trkpt lat="47.48108" lon="6.76568">
        <ele>317</ele>
        <time>2015-05-17T09:47:15.000Z</time>
      </trkpt>
      <trkpt lat="47.48104" lon="6.76574">
        <ele>316</ele>
        <time>2015-05-17T09:47:16.000Z</time>
      </trkpt>
      <trkpt lat="47.481" lon="6.76578">
        <ele>316</ele>
        <time>2015-05-17T09:47:17.000Z</time>
      </trkpt>
      <trkpt lat="47.48096" lon="6.76581">
        <ele>315</ele>
        <time>2015-05-17T09:47:18.000Z</time>
      </trkpt>
      <trkpt lat="47.48094" lon="6.76588">
        <ele>313</ele>
        <time>2015-05-17T09:47:19.000Z</time>
      </trkpt>
      <trkpt lat="47.48093" lon="6.76597">
        <ele>313</ele>
        <time>2015-05-17T09:47:20.000Z</time>
      </trkpt>
      <trkpt lat="47.48094" lon="6.76607">
        <ele>313</ele>
        <time>2015-05-17T09:47:21.000Z</time>
      </trkpt>
      <trkpt lat="47.48096" lon="6.76615">
        <ele>313</ele>
        <time>2015-05-17T09:47:22.000Z</time>
      </trkpt>
      <trkpt lat="47.48099" lon="6.76627">
        <ele>313</ele>
        <time>2015-05-17T09:47:23.000Z</time>
      </trkpt>
      <trkpt lat="47.48102" lon="6.76638">
        <ele>313</ele>
        <time>2015-05-17T09:47:24.000Z</time>
      </trkpt>
      <trkpt lat="47.48105" lon="6.76645">
        <ele>312</ele>
        <time>2015-05-17T09:47:25.000Z</time>
      </trkpt>
      <trkpt lat="47.48108" lon="6.76652">
        <ele>312</ele>
        <time>2015-05-17T09:47:26.000Z</time>
      </trkpt>
      <trkpt lat="47.48113" lon="6.7666">
        <ele>312</ele>
        <time>2015-05-17T09:47:27.000Z</time>
      </trkpt>
      <trkpt lat="47.48117" lon="6.76668">
        <ele>312</ele>
        <time>2015-05-17T09:47:28.000Z</time>
      </trkpt>
      <trkpt lat="47.4812" lon="6.76675">
        <ele>312</ele>
        <time>2015-05-17T09:47:29.001Z</time>
      </trkpt>
      <trkpt lat="47.48124" lon="6.76686">
        <ele>312</ele>
        <time>2015-05-17T09:47:30.000Z</time>
      </trkpt>
      <trkpt lat="47.48129" lon="6.76695">
        <ele>312</ele>
        <time>2015-05-17T09:47:31.000Z</time>
      </trkpt>
      <trkpt lat="47.48135" lon="6.76706">
        <ele>312</ele>
        <time>2015-05-17T09:47:32.000Z</time>
      </trkpt>
      <trkpt lat="47.4814" lon="6.76711">
        <ele>312</ele>
        <time>2015-05-17T09:47:33.000Z</time>
      </trkpt>
      <trkpt lat="47.48144" lon="6.7672">
        <ele>312</ele>
        <time>2015-05-17T09:47:34.000Z</time>
      </trkpt>
      <trkpt lat="47.48148" lon="6.76729">
        <ele>312</ele>
        <time>2015-05-17T09:47:35.000Z</time>
      </trkpt>
      <trkpt lat="47.48153" lon="6.76737">
        <ele>312</ele>
        <time>2015-05-17T09:47:36.000Z</time>
      </trkpt>
      <trkpt lat="47.48157" lon="6.76744">
        <ele>313</ele>
        <time>2015-05-17T09:47:37.000Z</time>
      </trkpt>
      <trkpt lat="47.48161" lon="6.76752">
        <ele>313</ele>
        <time>2015-05-17T09:47:38.000Z</time>
      </trkpt>
      <trkpt lat="47.48167" lon="6.76758">
        <ele>313</ele>
        <time>2015-05-17T09:47:39.000Z</time>
      </trkpt>
      <trkpt lat="47.48174" lon="6.76763">
        <ele>313</ele>
        <time>2015-05-17T09:47:40.000Z</time>
      </trkpt>
      <trkpt lat="47.4818" lon="6.76769">
        <ele>312</ele>
        <time>2015-05-17T09:47:41.000Z</time>
      </trkpt>
      <trkpt lat="47.48185" lon="6.76774">
        <ele>312</ele>
        <time>2015-05-17T09:47:42.000Z</time>
      </trkpt>
      <trkpt lat="47.48191" lon="6.76779">
        <ele>312</ele>
        <time>2015-05-17T09:47:43.000Z</time>
      </trkpt>
      <trkpt lat="47.48197" lon="6.76784">
        <ele>312</ele>
        <time>2015-05-17T09:47:44.000Z</time>
      </trkpt>
      <trkpt lat="47.48203" lon="6.76788">
        <ele>312</ele>
        <time>2015-05-17T09:47:45.000Z</time>
      </trkpt>
      <trkpt lat="47.48208" lon="6.76789">
        <ele>312</ele>
        <time>2015-05-17T09:47:46.000Z</time>
      </trkpt>
      <trkpt lat="47.48213" lon="6.76792">
        <ele>312</ele>
        <time>2015-05-17T09:47:47.000Z</time>
      </trkpt>
      <trkpt lat="47.48218" lon="6.76795">
        <ele>312</ele>
        <time>2015-05-17T09:47:48.000Z</time>
      </trkpt>
      <trkpt lat="47.48224" lon="6.76798">
        <ele>312</ele>
        <time>2015-05-17T09:47:49.000Z</time>
      </trkpt>
      <trkpt lat="47.4823" lon="6.76802">
        <ele>312</ele>
        <time>2015-05-17T09:47:50.000Z</time>
      </trkpt>
      <trkpt lat="47.48236" lon="6.76806">
        <ele>312</ele>
        <time>2015-05-17T09:47:51.000Z</time>
      </trkpt>
      <trkpt lat="47.48241" lon="6.7681">
        <ele>312</ele>
        <time>2015-05-17T09:47:52.000Z</time>
      </trkpt>
      <trkpt lat="47.48246" lon="6.76813">
        <ele>312</ele>
        <time>2015-05-17T09:47:53.000Z</time>
      </trkpt>
      <trkpt lat="47.48251" lon="6.76819">
        <ele>312</ele>
        <time>2015-05-17T09:47:54.000Z</time>
      </trkpt>
      <trkpt lat="47.48257" lon="6.76823">
        <ele>312</ele>
        <time>2015-05-17T09:47:55.000Z</time>
      </trkpt>
      <trkpt lat="47.48262" lon="6.7683">
        <ele>312</ele>
        <time>2015-05-17T09:47:56.000Z</time>
      </trkpt>
      <trkpt lat="47.48267" lon="6.76837">
        <ele>311</ele>
        <time>2015-05-17T09:47:57.000Z</time>
      </trkpt>
      <trkpt lat="47.48272" lon="6.76843">
        <ele>311</ele>
        <time>2015-05-17T09:47:58.000Z</time>
      </trkpt>
      <trkpt lat="47.48276" lon="6.76849">
        <ele>311</ele>
        <time>2015-05-17T09:47:59.000Z</time>
      </trkpt>
      <trkpt lat="47.48281" lon="6.76855">
        <ele>310</ele>
        <time>2015-05-17T09:48:00.000Z</time>
      </trkpt>
      <trkpt lat="47.48285" lon="6.76862">
        <ele>310</ele>
        <time>2015-05-17T09:48:01.000Z</time>
      </trkpt>
      <trkpt lat="47.48289" lon="6.76868">
        <ele>310</ele>
        <time>2015-05-17T09:48:02.000Z</time>
      </trkpt>
      <trkpt lat="47.48293" lon="6.76873">
        <ele>310</ele>
        <time>2015-05-17T09:48:03.000Z</time>
      </trkpt>
      <trkpt lat="47.48299" lon="6.76878">
        <ele>310</ele>
        <time>2015-05-17T09:48:04.000Z</time>
      </trkpt>
      <trkpt lat="47.48304" lon="6.76882">
        <ele>310</ele>
        <time>2015-05-17T09:48:05.000Z</time>
      </trkpt>
      <trkpt lat="47.4831" lon="6.76886">
        <ele>310</ele>
        <time>2015-05-17T09:48:06.000Z</time>
      </trkpt>
      <trkpt lat="47.48316" lon="6.76891">
        <ele>310</ele>
        <time>2015-05-17T09:48:07.000Z</time>
      </trkpt>
      <trkpt lat="47.48323" lon="6.76896">
        <ele>310</ele>
        <time>2015-05-17T09:48:08.000Z</time>
      </trkpt>
      <trkpt lat="47.48328" lon="6.76899">
        <ele>310</ele>
        <time>2015-05-17T09:48:09.000Z</time>
      </trkpt>
      <trkpt lat="47.48334" lon="6.76902">
        <ele>310</ele>
        <time>2015-05-17T09:48:10.000Z</time>
      </trkpt>
      <trkpt lat="47.4834" lon="6.76904">
        <ele>310</ele>
        <time>2015-05-17T09:48:11.000Z</time>
      </trkpt>
      <trkpt lat="47.48345" lon="6.7691">
        <ele>310</ele>
        <time>2015-05-17T09:48:12.000Z</time>
      </trkpt>
      <trkpt lat="47.48351" lon="6.76914">
        <ele>310</ele>
        <time>2015-05-17T09:48:13.000Z</time>
      </trkpt>
      <trkpt lat="47.48357" lon="6.76918">
        <ele>311</ele>
        <time>2015-05-17T09:48:13.999Z</time>
      </trkpt>
      <trkpt lat="47.48362" lon="6.76922">
        <ele>311</ele>
        <time>2015-05-17T09:48:15.000Z</time>
      </trkpt>
      <trkpt lat="47.48367" lon="6.76926">
        <ele>311</ele>
        <time>2015-05-17T09:48:16.000Z</time>
      </trkpt>
      <trkpt lat="47.48373" lon="6.76929">
        <ele>312</ele>
        <time>2015-05-17T09:48:17.000Z</time>
      </trkpt>
      <trkpt lat="47.4838" lon="6.76933">
        <ele>312</ele>
        <time>2015-05-17T09:48:18.000Z</time>
      </trkpt>
      <trkpt lat="47.48386" lon="6.76937">
        <ele>312</ele>
        <time>2015-05-17T09:48:19.000Z</time>
      </trkpt>
      <trkpt lat="47.48391" lon="6.76941">
        <ele>312</ele>
        <time>2015-05-17T09:48:20.000Z</time>
      </trkpt>
      <trkpt lat="47.48396" lon="6.76943">
        <ele>312</ele>
        <time>2015-05-17T09:48:21.000Z</time>
      </trkpt>
      <trkpt lat="47.48401" lon="6.76947">
        <ele>312</ele>
        <time>2015-05-17T09:48:22.000Z</time>
      </trkpt>
      <trkpt lat="47.48406" lon="6.7695">
        <ele>312</ele>
        <time>2015-05-17T09:48:23.000Z</time>
      </trkpt>
      <trkpt lat="47.48413" lon="6.76954">
        <ele>312</ele>
        <time>2015-05-17T09:48:24.000Z</time>
      </trkpt>
      <trkpt lat="47.4842" lon="6.76957">
        <ele>314</ele>
        <time>2015-05-17T09:48:25.000Z</time>
      </trkpt>
      <trkpt lat="47.48425" lon="6.76961">
        <ele>314</ele>
        <time>2015-05-17T09:48:26.000Z</time>
      </trkpt>
      <trkpt lat="47.4843" lon="6.76963">
        <ele>314</ele>
        <time>2015-05-17T09:48:27.000Z</time>
      </trkpt>
      <trkpt lat="47.48437" lon="6.76967">
        <ele>314</ele>
        <time>2015-05-17T09:48:28.000Z</time>
      </trkpt>
      <trkpt lat="47.48443" lon="6.76971">
        <ele>315</ele>
        <time>2015-05-17T09:48:29.000Z</time>
      </trkpt>
      <trkpt lat="47.48449" lon="6.76975">
        <ele>315</ele>
        <time>2015-05-17T09:48:30.000Z</time>
      </trkpt>
      <trkpt lat="47.48455" lon="6.76979">
        <ele>315</ele>
        <time>2015-05-17T09:48:31.000Z</time>
      </trkpt>
      <trkpt lat="47.4846" lon="6.76984">
        <ele>315</ele>
        <time>2015-05-17T09:48:32.000Z</time>
      </trkpt>
      <trkpt lat="47.48465" lon="6.76988">
        <ele>315</ele>
        <time>2015-05-17T09:48:33.000Z</time>
      </trkpt>
      <trkpt lat="47.48472" lon="6.76993">
        <ele>315</ele>
        <time>2015-05-17T09:48:34.000Z</time>
      </trkpt>
      <trkpt lat="47.48478" lon="6.76998">
        <ele>315</ele>
        <time>2015-05-17T09:48:35.000Z</time>
      </trkpt>
      <trkpt lat="47.48483" lon="6.77">
        <ele>315</ele>
        <time>2015-05-17T09:48:36.000Z</time>
      </trkpt>
      <trkpt lat="47.4849" lon="6.77002">
        <ele>315</ele>
        <time>2015-05-17T09:48:37.000Z</time>
      </trkpt>
      <trkpt lat="47.48496" lon="6.77006">
        <ele>315</ele>
        <time>2015-05-17T09:48:38.000Z</time>
      </trkpt>
      <trkpt lat="47.48502" lon="6.7701">
        <ele>315</ele>
        <time>2015-05-17T09:48:39.000Z</time>
      </trkpt>
      <trkpt lat="47.48507" lon="6.77014">
        <ele>315</ele>
        <time>2015-05-17T09:48:40.000Z</time>
      </trkpt>
      <trkpt lat="47.48512" lon="6.77018">
        <ele>315</ele>
        <time>2015-05-17T09:48:41.000Z</time>
      </trkpt>
      <trkpt lat="47.48517" lon="6.77022">
        <ele>315</ele>
        <time>2015-05-17T09:48:42.000Z</time>
      </trkpt>
      <trkpt lat="47.48522" lon="6.77027">
        <ele>314</ele>
        <time>2015-05-17T09:48:43.000Z</time>
      </trkpt>
      <trkpt lat="47.48526" lon="6.77033">
        <ele>314</ele>
        <time>2015-05-17T09:48:44.000Z</time>
      </trkpt>
      <trkpt lat="47.48531" lon="6.77038">
        <ele>314</ele>
        <time>2015-05-17T09:48:45.000Z</time>
      </trkpt>
      <trkpt lat="47.48536" lon="6.77042">
        <ele>314</ele>
        <time>2015-05-17T09:48:46.000Z</time>
      </trkpt>
      <trkpt lat="47.48542" lon="6.77044">
        <ele>314</ele>
        <time>2015-05-17T09:48:47.000Z</time>
      </trkpt>
      <trkpt lat="47.48548" lon="6.77046">
        <ele>314</ele>
        <time>2015-05-17T09:48:48.000Z</time>
      </trkpt>
      <trkpt lat="47.48554" lon="6.77048">
        <ele>314</ele>
        <time>2015-05-17T09:48:49.000Z</time>
      </trkpt>
      <trkpt lat="47.4856" lon="6.77048">
        <ele>314</ele>
        <time>2015-05-17T09:48:50.000Z</time>
      </trkpt>
      <trkpt lat="47.48564" lon="6.7705">
        <ele>314</ele>
        <time>2015-05-17T09:48:51.000Z</time>
      </trkpt>
      <trkpt lat="47.48569" lon="6.77053">
        <ele>314</ele>
        <time>2015-05-17T09:48:52.000Z</time>
      </trkpt>
      <trkpt lat="47.48573" lon="6.77054">
        <ele>314</ele>
        <time>2015-05-17T09:48:53.000Z</time>
      </trkpt>
      <trkpt lat="47.48578" lon="6.77057">
        <ele>314</ele>
        <time>2015-05-17T09:48:54.000Z</time>
      </trkpt>
      <trkpt lat="47.48583" lon="6.7706">
        <ele>314</ele>
        <time>2015-05-17T09:48:55.000Z</time>
      </trkpt>
      <trkpt lat="47.48587" lon="6.77063">
        <ele>313</ele>
        <time>2015-05-17T09:48:56.000Z</time>
      </trkpt>
      <trkpt lat="47.48594" lon="6.77067">
        <ele>313</ele>
        <time>2015-05-17T09:48:57.000Z</time>
      </trkpt>
      <trkpt lat="47.48599" lon="6.7707">
        <ele>313</ele>
        <time>2015-05-17T09:48:58.000Z</time>
      </trkpt>
      <trkpt lat="47.48604" lon="6.77074">
        <ele>313</ele>
        <time>2015-05-17T09:48:59.000Z</time>
      </trkpt>
      <trkpt lat="47.4861" lon="6.77078">
        <ele>313</ele>
        <time>2015-05-17T09:49:00.000Z</time>
      </trkpt>
      <trkpt lat="47.48615" lon="6.77082">
        <ele>313</ele>
        <time>2015-05-17T09:49:01.000Z</time>
      </trkpt>
      <trkpt lat="47.48621" lon="6.77086">
        <ele>312</ele>
        <time>2015-05-17T09:49:02.000Z</time>
      </trkpt>
      <trkpt lat="47.48626" lon="6.77089">
        <ele>312</ele>
        <time>2015-05-17T09:49:03.000Z</time>
      </trkpt>
      <trkpt lat="47.4863" lon="6.77093">
        <ele>312</ele>
        <time>2015-05-17T09:49:04.000Z</time>
      </trkpt>
      <trkpt lat="47.48635" lon="6.77098">
        <ele>312</ele>
        <time>2015-05-17T09:49:05.000Z</time>
      </trkpt>
      <trkpt lat="47.4864" lon="6.77102">
        <ele>312</ele>
        <time>2015-05-17T09:49:06.000Z</time>
      </trkpt>
      <trkpt lat="47.48643" lon="6.77106">
        <ele>312</ele>
        <time>2015-05-17T09:49:07.000Z</time>
      </trkpt>
      <trkpt lat="47.48647" lon="6.77111">
        <ele>312</ele>
        <time>2015-05-17T09:49:08.000Z</time>
      </trkpt>
      <trkpt lat="47.48651" lon="6.77115">
        <ele>312</ele>
        <time>2015-05-17T09:49:09.000Z</time>
      </trkpt>
      <trkpt lat="47.48654" lon="6.77119">
        <ele>312</ele>
        <time>2015-05-17T09:49:10.000Z</time>
      </trkpt>
      <trkpt lat="47.48658" lon="6.77123">
        <ele>312</ele>
        <time>2015-05-17T09:49:11.001Z</time>
      </trkpt>
      <trkpt lat="47.48661" lon="6.77127">
        <ele>312</ele>
        <time>2015-05-17T09:49:12.000Z</time>
      </trkpt>
      <trkpt lat="47.48664" lon="6.77131">
        <ele>312</ele>
        <time>2015-05-17T09:49:13.000Z</time>
      </trkpt>
      <trkpt lat="47.48667" lon="6.77134">
        <ele>312</ele>
        <time>2015-05-17T09:49:14.000Z</time>
      </trkpt>
      <trkpt lat="47.48672" lon="6.77136">
        <ele>312</ele>
        <time>2015-05-17T09:49:15.000Z</time>
      </trkpt>
      <trkpt lat="47.48675" lon="6.77139">
        <ele>311</ele>
        <time>2015-05-17T09:49:16.000Z</time>
      </trkpt>
      <trkpt lat="47.48679" lon="6.77142">
        <ele>311</ele>
        <time>2015-05-17T09:49:17.000Z</time>
      </trkpt>
      <trkpt lat="47.48683" lon="6.77147">
        <ele>311</ele>
        <time>2015-05-17T09:49:18.000Z</time>
      </trkpt>
      <trkpt lat="47.48688" lon="6.77153">
        <ele>311</ele>
        <time>2015-05-17T09:49:19.000Z</time>
      </trkpt>
      <trkpt lat="47.48691" lon="6.77158">
        <ele>311</ele>
        <time>2015-05-17T09:49:20.000Z</time>
      </trkpt>
      <trkpt lat="47.48696" lon="6.77162">
        <ele>311</ele>
        <time>2015-05-17T09:49:21.000Z</time>
      </trkpt>
      <trkpt lat="47.487" lon="6.77167">
        <ele>311</ele>
        <time>2015-05-17T09:49:22.000Z</time>
      </trkpt>
      <trkpt lat="47.48705" lon="6.77171">
        <ele>311</ele>
        <time>2015-05-17T09:49:23.000Z</time>
      </trkpt>
      <trkpt lat="47.48711" lon="6.77175">
        <ele>311</ele>
        <time>2015-05-17T09:49:24.000Z</time>
      </trkpt>
      <trkpt lat="47.48716" lon="6.77179">
        <ele>310</ele>
        <time>2015-05-17T09:49:25.000Z</time>
      </trkpt>
      <trkpt lat="47.48721" lon="6.77184">
        <ele>310</ele>
        <time>2015-05-17T09:49:26.000Z</time>
      </trkpt>
      <trkpt lat="47.48726" lon="6.77187">
        <ele>310</ele>
        <time>2015-05-17T09:49:27.000Z</time>
      </trkpt>
      <trkpt lat="47.4873" lon="6.7719">
        <ele>310</ele>
        <time>2015-05-17T09:49:28.000Z</time>
      </trkpt>
      <trkpt lat="47.48736" lon="6.77193">
        <ele>310</ele>
        <time>2015-05-17T09:49:29.000Z</time>
      </trkpt>
      <trkpt lat="47.4874" lon="6.77196">
        <ele>310</ele>
        <time>2015-05-17T09:49:30.000Z</time>
      </trkpt>
      <trkpt lat="47.48744" lon="6.77199">
        <ele>310</ele>
        <time>2015-05-17T09:49:31.000Z</time>
      </trkpt>
      <trkpt lat="47.4875" lon="6.77203">
        <ele>310</ele>
        <time>2015-05-17T09:49:32.000Z</time>
      </trkpt>
      <trkpt lat="47.48754" lon="6.77207">
        <ele>310</ele>
        <time>2015-05-17T09:49:33.000Z</time>
      </trkpt>
      <trkpt lat="47.4876" lon="6.77212">
        <ele>310</ele>
        <time>2015-05-17T09:49:34.000Z</time>
      </trkpt>
      <trkpt lat="47.48766" lon="6.77217">
        <ele>310</ele>
        <time>2015-05-17T09:49:35.000Z</time>
      </trkpt>
      <trkpt lat="47.48771" lon="6.77221">
        <ele>310</ele>
        <time>2015-05-17T09:49:36.000Z</time>
      </trkpt>
      <trkpt lat="47.48776" lon="6.77225">
        <ele>310</ele>
        <time>2015-05-17T09:49:37.000Z</time>
      </trkpt>
      <trkpt lat="47.48783" lon="6.77228">
        <ele>310</ele>
        <time>2015-05-17T09:49:38.000Z</time>
      </trkpt>
      <trkpt lat="47.48788" lon="6.77232">
        <ele>310</ele>
        <time>2015-05-17T09:49:39.000Z</time>
      </trkpt>
      <trkpt lat="47.48793" lon="6.77235">
        <ele>310</ele>
        <time>2015-05-17T09:49:40.000Z</time>
      </trkpt>
      <trkpt lat="47.48798" lon="6.77239">
        <ele>310</ele>
        <time>2015-05-17T09:49:41.000Z</time>
      </trkpt>
      <trkpt lat="47.48802" lon="6.77243">
        <ele>310</ele>
        <time>2015-05-17T09:49:42.000Z</time>
      </trkpt>
      <trkpt lat="47.48807" lon="6.77247">
        <ele>311</ele>
        <time>2015-05-17T09:49:43.000Z</time>
      </trkpt>
      <trkpt lat="47.48812" lon="6.77251">
        <ele>310</ele>
        <time>2015-05-17T09:49:44.000Z</time>
      </trkpt>
      <trkpt lat="47.48816" lon="6.77254">
        <ele>310</ele>
        <time>2015-05-17T09:49:45.000Z</time>
      </trkpt>
      <trkpt lat="47.48821" lon="6.77258">
        <ele>310</ele>
        <time>2015-05-17T09:49:46.000Z</time>
      </trkpt>
      <trkpt lat="47.48827" lon="6.77262">
        <ele>310</ele>
        <time>2015-05-17T09:49:47.000Z</time>
      </trkpt>
      <trkpt lat="47.48832" lon="6.77267">
        <ele>310</ele>
        <time>2015-05-17T09:49:48.000Z</time>
      </trkpt>
      <trkpt lat="47.48837" lon="6.7727">
        <ele>310</ele>
        <time>2015-05-17T09:49:49.000Z</time>
      </trkpt>
      <trkpt lat="47.48841" lon="6.77274">
        <ele>310</ele>
        <time>2015-05-17T09:49:50.000Z</time>
      </trkpt>
      <trkpt lat="47.48847" lon="6.77275">
        <ele>310</ele>
        <time>2015-05-17T09:49:51.000Z</time>
      </trkpt>
      <trkpt lat="47.48851" lon="6.77277">
        <ele>310</ele>
        <time>2015-05-17T09:49:52.000Z</time>
      </trkpt>
      <trkpt lat="47.48857" lon="6.7728">
        <ele>310</ele>
        <time>2015-05-17T09:49:53.000Z</time>
      </trkpt>
      <trkpt lat="47.48862" lon="6.77283">
        <ele>310</ele>
        <time>2015-05-17T09:49:54.000Z</time>
      </trkpt>
      <trkpt lat="47.48867" lon="6.77285">
        <ele>310</ele>
        <time>2015-05-17T09:49:55.000Z</time>
      </trkpt>
      <trkpt lat="47.48872" lon="6.77288">
        <ele>310</ele>
        <time>2015-05-17T09:49:56.000Z</time>
      </trkpt>
      <trkpt lat="47.48877" lon="6.7729">
        <ele>310</ele>
        <time>2015-05-17T09:49:57.000Z</time>
      </trkpt>
      <trkpt lat="47.48882" lon="6.77293">
        <ele>310</ele>
        <time>2015-05-17T09:49:58.000Z</time>
      </trkpt>
      <trkpt lat="47.48889" lon="6.77294">
        <ele>310</ele>
        <time>2015-05-17T09:49:59.000Z</time>
      </trkpt>
      <trkpt lat="47.48895" lon="6.77297">
        <ele>310</ele>
        <time>2015-05-17T09:50:00.000Z</time>
      </trkpt>
      <trkpt lat="47.489" lon="6.77299">
        <ele>310</ele>
        <time>2015-05-17T09:50:01.000Z</time>
      </trkpt>
      <trkpt lat="47.48906" lon="6.77301">
        <ele>310</ele>
        <time>2015-05-17T09:50:02.000Z</time>
      </trkpt>
      <trkpt lat="47.48912" lon="6.77302">
        <ele>310</ele>
        <time>2015-05-17T09:50:03.000Z</time>
      </trkpt>
      <trkpt lat="47.48917" lon="6.77304">
        <ele>311</ele>
        <time>2015-05-17T09:50:04.000Z</time>
      </trkpt>
      <trkpt lat="47.48923" lon="6.77306">
        <ele>311</ele>
        <time>2015-05-17T09:50:05.000Z</time>
      </trkpt>
      <trkpt lat="47.48928" lon="6.77308">
        <ele>311</ele>
        <time>2015-05-17T09:50:06.000Z</time>
      </trkpt>
      <trkpt lat="47.48933" lon="6.77308">
        <ele>311</ele>
        <time>2015-05-17T09:50:07.000Z</time>
      </trkpt>
      <trkpt lat="47.48937" lon="6.77311">
        <ele>311</ele>
        <time>2015-05-17T09:50:08.000Z</time>
      </trkpt>
      <trkpt lat="47.48941" lon="6.77315">
        <ele>311</ele>
        <time>2015-05-17T09:50:09.000Z</time>
      </trkpt>
      <trkpt lat="47.48946" lon="6.77317">
        <ele>311</ele>
        <time>2015-05-17T09:50:10.000Z</time>
      </trkpt>
      <trkpt lat="47.48952" lon="6.7732">
        <ele>311</ele>
        <time>2015-05-17T09:50:11.000Z</time>
      </trkpt>
      <trkpt lat="47.48957" lon="6.77321">
        <ele>311</ele>
        <time>2015-05-17T09:50:12.000Z</time>
      </trkpt>
      <trkpt lat="47.48963" lon="6.77323">
        <ele>311</ele>
        <time>2015-05-17T09:50:13.000Z</time>
      </trkpt>
      <trkpt lat="47.48968" lon="6.77322">
        <ele>311</ele>
        <time>2015-05-17T09:50:14.000Z</time>
      </trkpt>
      <trkpt lat="47.48974" lon="6.77321">
        <ele>311</ele>
        <time>2015-05-17T09:50:15.000Z</time>
      </trkpt>
      <trkpt lat="47.48979" lon="6.77323">
        <ele>311</ele>
        <time>2015-05-17T09:50:16.000Z</time>
      </trkpt>
      <trkpt lat="47.48985" lon="6.77323">
        <ele>311</ele>
        <time>2015-05-17T09:50:17.000Z</time>
      </trkpt>
      <trkpt lat="47.48991" lon="6.77323">
        <ele>311</ele>
        <time>2015-05-17T09:50:18.000Z</time>
      </trkpt>
      <trkpt lat="47.48996" lon="6.77324">
        <ele>311</ele>
        <time>2015-05-17T09:50:19.000Z</time>
      </trkpt>
      <trkpt lat="47.49002" lon="6.77323">
        <ele>311</ele>
        <time>2015-05-17T09:50:20.000Z</time>
      </trkpt>
      <trkpt lat="47.49007" lon="6.77324">
        <ele>311</ele>
        <time>2015-05-17T09:50:21.000Z</time>
      </trkpt>
      <trkpt lat="47.49013" lon="6.77324">
        <ele>311</ele>
        <time>2015-05-17T09:50:22.000Z</time>
      </trkpt>
      <trkpt lat="47.49023" lon="6.77324">
        <ele>311</ele>
        <time>2015-05-17T09:50:23.000Z</time>
      </trkpt>
      <trkpt lat="47.49031" lon="6.77324">
        <ele>311</ele>
        <time>2015-05-17T09:50:23.999Z</time>
      </trkpt>
      <trkpt lat="47.49034" lon="6.77324">
        <ele>311</ele>
        <time>2015-05-17T09:50:25.000Z</time>
      </trkpt>
      <trkpt lat="47.49039" lon="6.77324">
        <ele>311</ele>
        <time>2015-05-17T09:50:26.000Z</time>
      </trkpt>
      <trkpt lat="47.49044" lon="6.77326">
        <ele>311</ele>
        <time>2015-05-17T09:50:27.000Z</time>
      </trkpt>
      <trkpt lat="47.49049" lon="6.77327">
        <ele>311</ele>
        <time>2015-05-17T09:50:28.000Z</time>
      </trkpt>
      <trkpt lat="47.49053" lon="6.77328">
        <ele>311</ele>
        <time>2015-05-17T09:50:29.000Z</time>
      </trkpt>
      <trkpt lat="47.4906" lon="6.77328">
        <ele>311</ele>
        <time>2015-05-17T09:50:30.000Z</time>
      </trkpt>
      <trkpt lat="47.49065" lon="6.77331">
        <ele>311</ele>
        <time>2015-05-17T09:50:31.000Z</time>
      </trkpt>
      <trkpt lat="47.4907" lon="6.77329">
        <ele>311</ele>
        <time>2015-05-17T09:50:32.000Z</time>
      </trkpt>
      <trkpt lat="47.49076" lon="6.7733">
        <ele>311</ele>
        <time>2015-05-17T09:50:33.000Z</time>
      </trkpt>
      <trkpt lat="47.49082" lon="6.77331">
        <ele>311</ele>
        <time>2015-05-17T09:50:34.000Z</time>
      </trkpt>
      <trkpt lat="47.49087" lon="6.77332">
        <ele>311</ele>
        <time>2015-05-17T09:50:35.000Z</time>
      </trkpt>
      <trkpt lat="47.49093" lon="6.77331">
        <ele>311</ele>
        <time>2015-05-17T09:50:36.000Z</time>
      </trkpt>
      <trkpt lat="47.49098" lon="6.77332">
        <ele>311</ele>
        <time>2015-05-17T09:50:37.001Z</time>
      </trkpt>
      <trkpt lat="47.49103" lon="6.77333">
        <ele>311</ele>
        <time>2015-05-17T09:50:38.000Z</time>
      </trkpt>
      <trkpt lat="47.49109" lon="6.77333">
        <ele>310</ele>
        <time>2015-05-17T09:50:39.001Z</time>
      </trkpt>
      <trkpt lat="47.49113" lon="6.77333">
        <ele>311</ele>
        <time>2015-05-17T09:50:40.000Z</time>
      </trkpt>
      <trkpt lat="47.49117" lon="6.77333">
        <ele>311</ele>
        <time>2015-05-17T09:50:41.000Z</time>
      </trkpt>
      <trkpt lat="47.49121" lon="6.77332">
        <ele>311</ele>
        <time>2015-05-17T09:50:42.000Z</time>
      </trkpt>
      <trkpt lat="47.49126" lon="6.77332">
        <ele>311</ele>
        <time>2015-05-17T09:50:43.000Z</time>
      </trkpt>
      <trkpt lat="47.4913" lon="6.77332">
        <ele>311</ele>
        <time>2015-05-17T09:50:44.000Z</time>
      </trkpt>
      <trkpt lat="47.49133" lon="6.77333">
        <ele>311</ele>
        <time>2015-05-17T09:50:45.000Z</time>
      </trkpt>
      <trkpt lat="47.49138" lon="6.77333">
        <ele>310</ele>
        <time>2015-05-17T09:50:46.000Z</time>
      </trkpt>
      <trkpt lat="47.49142" lon="6.77334">
        <ele>310</ele>
        <time>2015-05-17T09:50:47.000Z</time>
      </trkpt>
      <trkpt lat="47.49145" lon="6.77333">
        <ele>311</ele>
        <time>2015-05-17T09:50:48.000Z</time>
      </trkpt>
      <trkpt lat="47.49148" lon="6.77334">
        <ele>310</ele>
        <time>2015-05-17T09:50:49.000Z</time>
      </trkpt>
      <trkpt lat="47.49152" lon="6.77334">
        <ele>310</ele>
        <time>2015-05-17T09:50:50.000Z</time>
      </trkpt>
      <trkpt lat="47.49155" lon="6.77335">
        <ele>310</ele>
        <time>2015-05-17T09:50:51.000Z</time>
      </trkpt>
      <trkpt lat="47.49159" lon="6.77335">
        <ele>310</ele>
        <time>2015-05-17T09:50:52.000Z</time>
      </trkpt>
      <trkpt lat="47.49162" lon="6.77336">
        <ele>310</ele>
        <time>2015-05-17T09:50:53.000Z</time>
      </trkpt>
      <trkpt lat="47.49165" lon="6.77336">
        <ele>310</ele>
        <time>2015-05-17T09:50:54.000Z</time>
      </trkpt>
      <trkpt lat="47.49169" lon="6.77336">
        <ele>310</ele>
        <time>2015-05-17T09:50:55.000Z</time>
      </trkpt>
      <trkpt lat="47.49171" lon="6.77336">
        <ele>310</ele>
        <time>2015-05-17T09:50:56.000Z</time>
      </trkpt>
      <trkpt lat="47.49174" lon="6.77336">
        <ele>310</ele>
        <time>2015-05-17T09:50:57.000Z</time>
      </trkpt>
      <trkpt lat="47.49177" lon="6.77336">
        <ele>310</ele>
        <time>2015-05-17T09:50:58.000Z</time>
      </trkpt>
      <trkpt lat="47.49176" lon="6.77342">
        <ele>310</ele>
        <time>2015-05-17T09:52:06.000Z</time>
      </trkpt>
      <trkpt lat="47.49176" lon="6.77343">
        <ele>310</ele>
        <time>2015-05-17T09:52:07.000Z</time>
      </trkpt>
      <trkpt lat="47.49179" lon="6.7734">
        <ele>310</ele>
        <time>2015-05-17T09:53:56.999Z</time>
      </trkpt>
      <trkpt lat="47.49182" lon="6.7734">
        <ele>310</ele>
        <time>2015-05-17T09:53:58.000Z</time>
      </trkpt>
      <trkpt lat="47.49185" lon="6.7734">
        <ele>309</ele>
        <time>2015-05-17T09:53:59.000Z</time>
      </trkpt>
      <trkpt lat="47.49189" lon="6.7734">
        <ele>309</ele>
        <time>2015-05-17T09:54:00.000Z</time>
      </trkpt>
      <trkpt lat="47.49193" lon="6.77341">
        <ele>309</ele>
        <time>2015-05-17T09:54:01.000Z</time>
      </trkpt>
      <trkpt lat="47.49196" lon="6.77341">
        <ele>309</ele>
        <time>2015-05-17T09:54:02.000Z</time>
      </trkpt>
      <trkpt lat="47.492" lon="6.7734">
        <ele>309</ele>
        <time>2015-05-17T09:54:03.000Z</time>
      </trkpt>
      <trkpt lat="47.49204" lon="6.7734">
        <ele>309</ele>
        <time>2015-05-17T09:54:04.000Z</time>
      </trkpt>
      <trkpt lat="47.4921" lon="6.77338">
        <ele>309</ele>
        <time>2015-05-17T09:54:05.000Z</time>
      </trkpt>
      <trkpt lat="47.49214" lon="6.77338">
        <ele>309</ele>
        <time>2015-05-17T09:54:06.000Z</time>
      </trkpt>
      <trkpt lat="47.49219" lon="6.77339">
        <ele>309</ele>
        <time>2015-05-17T09:54:07.000Z</time>
      </trkpt>
      <trkpt lat="47.49224" lon="6.77339">
        <ele>309</ele>
        <time>2015-05-17T09:54:08.000Z</time>
      </trkpt>
      <trkpt lat="47.49228" lon="6.77338">
        <ele>309</ele>
        <time>2015-05-17T09:54:09.000Z</time>
      </trkpt>
      <trkpt lat="47.49234" lon="6.77338">
        <ele>310</ele>
        <time>2015-05-17T09:54:10.000Z</time>
      </trkpt>
      <trkpt lat="47.49238" lon="6.77338">
        <ele>310</ele>
        <time>2015-05-17T09:54:11.000Z</time>
      </trkpt>
      <trkpt lat="47.49242" lon="6.77339">
        <ele>310</ele>
        <time>2015-05-17T09:54:12.000Z</time>
      </trkpt>
      <trkpt lat="47.49247" lon="6.77336">
        <ele>310</ele>
        <time>2015-05-17T09:54:13.000Z</time>
      </trkpt>
      <trkpt lat="47.49252" lon="6.77332">
        <ele>310</ele>
        <time>2015-05-17T09:54:14.000Z</time>
      </trkpt>
      <trkpt lat="47.49257" lon="6.77329">
        <ele>310</ele>
        <time>2015-05-17T09:54:15.000Z</time>
      </trkpt>
      <trkpt lat="47.49263" lon="6.77324">
        <ele>310</ele>
        <time>2015-05-17T09:54:16.000Z</time>
      </trkpt>
      <trkpt lat="47.49268" lon="6.77324">
        <ele>310</ele>
        <time>2015-05-17T09:54:17.000Z</time>
      </trkpt>
      <trkpt lat="47.49274" lon="6.77324">
        <ele>310</ele>
        <time>2015-05-17T09:54:18.000Z</time>
      </trkpt>
      <trkpt lat="47.4928" lon="6.77325">
        <ele>310</ele>
        <time>2015-05-17T09:54:19.000Z</time>
      </trkpt>
      <trkpt lat="47.49287" lon="6.77326">
        <ele>310</ele>
        <time>2015-05-17T09:54:20.000Z</time>
      </trkpt>
      <trkpt lat="47.49291" lon="6.77329">
        <ele>310</ele>
        <time>2015-05-17T09:54:21.000Z</time>
      </trkpt>
      <trkpt lat="47.49296" lon="6.7733">
        <ele>310</ele>
        <time>2015-05-17T09:54:22.000Z</time>
      </trkpt>
      <trkpt lat="47.49303" lon="6.77332">
        <ele>310</ele>
        <time>2015-05-17T09:54:23.000Z</time>
      </trkpt>
      <trkpt lat="47.49309" lon="6.77332">
        <ele>310</ele>
        <time>2015-05-17T09:54:24.000Z</time>
      </trkpt>
      <trkpt lat="47.49315" lon="6.77332">
        <ele>310</ele>
        <time>2015-05-17T09:54:25.000Z</time>
      </trkpt>
      <trkpt lat="47.4932" lon="6.77332">
        <ele>310</ele>
        <time>2015-05-17T09:54:26.000Z</time>
      </trkpt>
      <trkpt lat="47.49325" lon="6.77336">
        <ele>310</ele>
        <time>2015-05-17T09:54:27.000Z</time>
      </trkpt>
      <trkpt lat="47.4933" lon="6.77338">
        <ele>310</ele>
        <time>2015-05-17T09:54:28.000Z</time>
      </trkpt>
      <trkpt lat="47.49334" lon="6.77342">
        <ele>310</ele>
        <time>2015-05-17T09:54:29.000Z</time>
      </trkpt>
      <trkpt lat="47.49338" lon="6.77347">
        <ele>310</ele>
        <time>2015-05-17T09:54:30.000Z</time>
      </trkpt>
      <trkpt lat="47.49343" lon="6.77348">
        <ele>310</ele>
        <time>2015-05-17T09:54:31.000Z</time>
      </trkpt>
      <trkpt lat="47.49347" lon="6.7735">
        <ele>310</ele>
        <time>2015-05-17T09:54:32.000Z</time>
      </trkpt>
      <trkpt lat="47.49352" lon="6.77352">
        <ele>310</ele>
        <time>2015-05-17T09:54:33.000Z</time>
      </trkpt>
      <trkpt lat="47.49357" lon="6.77352">
        <ele>310</ele>
        <time>2015-05-17T09:54:34.000Z</time>
      </trkpt>
      <trkpt lat="47.49361" lon="6.77352">
        <ele>310</ele>
        <time>2015-05-17T09:54:35.000Z</time>
      </trkpt>
      <trkpt lat="47.49366" lon="6.77352">
        <ele>310</ele>
        <time>2015-05-17T09:54:36.000Z</time>
      </trkpt>
      <trkpt lat="47.49371" lon="6.77353">
        <ele>310</ele>
        <time>2015-05-17T09:54:37.000Z</time>
      </trkpt>
      <trkpt lat="47.49377" lon="6.77353">
        <ele>310</ele>
        <time>2015-05-17T09:54:38.000Z</time>
      </trkpt>
      <trkpt lat="47.49382" lon="6.77354">
        <ele>310</ele>
        <time>2015-05-17T09:54:39.000Z</time>
      </trkpt>
      <trkpt lat="47.49388" lon="6.77355">
        <ele>310</ele>
        <time>2015-05-17T09:54:40.000Z</time>
      </trkpt>
      <trkpt lat="47.49395" lon="6.77355">
        <ele>310</ele>
        <time>2015-05-17T09:54:41.000Z</time>
      </trkpt>
      <trkpt lat="47.49399" lon="6.77353">
        <ele>310</ele>
        <time>2015-05-17T09:54:42.000Z</time>
      </trkpt>
      <trkpt lat="47.49405" lon="6.77354">
        <ele>310</ele>
        <time>2015-05-17T09:54:43.000Z</time>
      </trkpt>
      <trkpt lat="47.4941" lon="6.77352">
        <ele>311</ele>
        <time>2015-05-17T09:54:44.000Z</time>
      </trkpt>
      <trkpt lat="47.49414" lon="6.77353">
        <ele>311</ele>
        <time>2015-05-17T09:54:45.000Z</time>
      </trkpt>
      <trkpt lat="47.49419" lon="6.77354">
        <ele>311</ele>
        <time>2015-05-17T09:54:46.000Z</time>
      </trkpt>
      <trkpt lat="47.49425" lon="6.77354">
        <ele>311</ele>
        <time>2015-05-17T09:54:47.000Z</time>
      </trkpt>
      <trkpt lat="47.49431" lon="6.77354">
        <ele>311</ele>
        <time>2015-05-17T09:54:48.000Z</time>
      </trkpt>
      <trkpt lat="47.49436" lon="6.77355">
        <ele>311</ele>
        <time>2015-05-17T09:54:49.000Z</time>
      </trkpt>
      <trkpt lat="47.49442" lon="6.77355">
        <ele>311</ele>
        <time>2015-05-17T09:54:50.000Z</time>
      </trkpt>
      <trkpt lat="47.49447" lon="6.77354">
        <ele>311</ele>
        <time>2015-05-17T09:54:51.000Z</time>
      </trkpt>
      <trkpt lat="47.49452" lon="6.77354">
        <ele>311</ele>
        <time>2015-05-17T09:54:52.000Z</time>
      </trkpt>
      <trkpt lat="47.49458" lon="6.77355">
        <ele>311</ele>
        <time>2015-05-17T09:54:53.000Z</time>
      </trkpt>
      <trkpt lat="47.49462" lon="6.77355">
        <ele>311</ele>
        <time>2015-05-17T09:54:54.000Z</time>
      </trkpt>
      <trkpt lat="47.49468" lon="6.77357">
        <ele>311</ele>
        <time>2015-05-17T09:54:55.000Z</time>
      </trkpt>
      <trkpt lat="47.49474" lon="6.77357">
        <ele>311</ele>
        <time>2015-05-17T09:54:55.999Z</time>
      </trkpt>
      <trkpt lat="47.49479" lon="6.77356">
        <ele>311</ele>
        <time>2015-05-17T09:54:57.000Z</time>
      </trkpt>
      <trkpt lat="47.49484" lon="6.77356">
        <ele>311</ele>
        <time>2015-05-17T09:54:58.000Z</time>
      </trkpt>
      <trkpt lat="47.49489" lon="6.77356">
        <ele>312</ele>
        <time>2015-05-17T09:54:59.000Z</time>
      </trkpt>
      <trkpt lat="47.49495" lon="6.77357">
        <ele>312</ele>
        <time>2015-05-17T09:55:00.000Z</time>
      </trkpt>
      <trkpt lat="47.495" lon="6.77359">
        <ele>312</ele>
        <time>2015-05-17T09:55:01.000Z</time>
      </trkpt>
      <trkpt lat="47.49505" lon="6.77358">
        <ele>312</ele>
        <time>2015-05-17T09:55:02.000Z</time>
      </trkpt>
      <trkpt lat="47.4951" lon="6.77358">
        <ele>312</ele>
        <time>2015-05-17T09:55:03.000Z</time>
      </trkpt>
      <trkpt lat="47.49516" lon="6.77359">
        <ele>312</ele>
        <time>2015-05-17T09:55:04.000Z</time>
      </trkpt>
      <trkpt lat="47.4952" lon="6.7736">
        <ele>312</ele>
        <time>2015-05-17T09:55:05.000Z</time>
      </trkpt>
      <trkpt lat="47.49525" lon="6.7736">
        <ele>312</ele>
        <time>2015-05-17T09:55:06.000Z</time>
      </trkpt>
      <trkpt lat="47.49531" lon="6.77361">
        <ele>312</ele>
        <time>2015-05-17T09:55:07.000Z</time>
      </trkpt>
      <trkpt lat="47.49537" lon="6.77362">
        <ele>312</ele>
        <time>2015-05-17T09:55:08.000Z</time>
      </trkpt>
      <trkpt lat="47.49541" lon="6.77363">
        <ele>312</ele>
        <time>2015-05-17T09:55:09.000Z</time>
      </trkpt>
      <trkpt lat="47.49547" lon="6.77364">
        <ele>312</ele>
        <time>2015-05-17T09:55:10.000Z</time>
      </trkpt>
      <trkpt lat="47.49552" lon="6.77365">
        <ele>312</ele>
        <time>2015-05-17T09:55:11.000Z</time>
      </trkpt>
      <trkpt lat="47.49556" lon="6.77366">
        <ele>312</ele>
        <time>2015-05-17T09:55:12.000Z</time>
      </trkpt>
      <trkpt lat="47.49562" lon="6.77366">
        <ele>312</ele>
        <time>2015-05-17T09:55:13.000Z</time>
      </trkpt>
      <trkpt lat="47.49568" lon="6.77366">
        <ele>312</ele>
        <time>2015-05-17T09:55:14.000Z</time>
      </trkpt>
      <trkpt lat="47.49574" lon="6.77365">
        <ele>313</ele>
        <time>2015-05-17T09:55:15.000Z</time>
      </trkpt>
      <trkpt lat="47.4958" lon="6.77364">
        <ele>313</ele>
        <time>2015-05-17T09:55:16.000Z</time>
      </trkpt>
      <trkpt lat="47.49586" lon="6.77364">
        <ele>313</ele>
        <time>2015-05-17T09:55:17.000Z</time>
      </trkpt>
      <trkpt lat="47.4959" lon="6.77363">
        <ele>313</ele>
        <time>2015-05-17T09:55:18.000Z</time>
      </trkpt>
      <trkpt lat="47.49596" lon="6.77362">
        <ele>313</ele>
        <time>2015-05-17T09:55:19.000Z</time>
      </trkpt>
      <trkpt lat="47.496" lon="6.77361">
        <ele>313</ele>
        <time>2015-05-17T09:55:20.000Z</time>
      </trkpt>
      <trkpt lat="47.49606" lon="6.77359">
        <ele>313</ele>
        <time>2015-05-17T09:55:21.000Z</time>
      </trkpt>
      <trkpt lat="47.4961" lon="6.77358">
        <ele>313</ele>
        <time>2015-05-17T09:55:22.000Z</time>
      </trkpt>
      <trkpt lat="47.49616" lon="6.77357">
        <ele>313</ele>
        <time>2015-05-17T09:55:23.000Z</time>
      </trkpt>
      <trkpt lat="47.49622" lon="6.77355">
        <ele>313</ele>
        <time>2015-05-17T09:55:24.000Z</time>
      </trkpt>
      <trkpt lat="47.49627" lon="6.77354">
        <ele>313</ele>
        <time>2015-05-17T09:55:25.000Z</time>
      </trkpt>
      <trkpt lat="47.49632" lon="6.77355">
        <ele>313</ele>
        <time>2015-05-17T09:55:26.000Z</time>
      </trkpt>
      <trkpt lat="47.49637" lon="6.77354">
        <ele>313</ele>
        <time>2015-05-17T09:55:27.000Z</time>
      </trkpt>
      <trkpt lat="47.49643" lon="6.77354">
        <ele>313</ele>
        <time>2015-05-17T09:55:28.000Z</time>
      </trkpt>
      <trkpt lat="47.49647" lon="6.77354">
        <ele>313</ele>
        <time>2015-05-17T09:55:29.001Z</time>
      </trkpt>
      <trkpt lat="47.49653" lon="6.77352">
        <ele>313</ele>
        <time>2015-05-17T09:55:30.000Z</time>
      </trkpt>
      <trkpt lat="47.49658" lon="6.77351">
        <ele>313</ele>
        <time>2015-05-17T09:55:31.000Z</time>
      </trkpt>
      <trkpt lat="47.49663" lon="6.77349">
        <ele>313</ele>
        <time>2015-05-17T09:55:32.000Z</time>
      </trkpt>
      <trkpt lat="47.49669" lon="6.77347">
        <ele>313</ele>
        <time>2015-05-17T09:55:33.000Z</time>
      </trkpt>
      <trkpt lat="47.49674" lon="6.77345">
        <ele>313</ele>
        <time>2015-05-17T09:55:34.000Z</time>
      </trkpt>
      <trkpt lat="47.49679" lon="6.77343">
        <ele>313</ele>
        <time>2015-05-17T09:55:34.999Z</time>
      </trkpt>
      <trkpt lat="47.4968" lon="6.77344">
        <ele>313</ele>
        <time>2015-05-17T09:55:36.000Z</time>
      </trkpt>
      <trkpt lat="47.49684" lon="6.77342">
        <ele>313</ele>
        <time>2015-05-17T09:55:37.000Z</time>
      </trkpt>
      <trkpt lat="47.49689" lon="6.77341">
        <ele>313</ele>
        <time>2015-05-17T09:55:38.000Z</time>
      </trkpt>
      <trkpt lat="47.49694" lon="6.7734">
        <ele>313</ele>
        <time>2015-05-17T09:55:38.999Z</time>
      </trkpt>
      <trkpt lat="47.497" lon="6.77338">
        <ele>313</ele>
        <time>2015-05-17T09:55:40.000Z</time>
      </trkpt>
      <trkpt lat="47.49705" lon="6.77337">
        <ele>313</ele>
        <time>2015-05-17T09:55:41.000Z</time>
      </trkpt>
      <trkpt lat="47.4971" lon="6.77336">
        <ele>313</ele>
        <time>2015-05-17T09:55:42.000Z</time>
      </trkpt>
      <trkpt lat="47.49714" lon="6.77335">
        <ele>313</ele>
        <time>2015-05-17T09:55:43.000Z</time>
      </trkpt>
      <trkpt lat="47.49718" lon="6.77335">
        <ele>313</ele>
        <time>2015-05-17T09:55:44.000Z</time>
      </trkpt>
      <trkpt lat="47.49721" lon="6.77335">
        <ele>313</ele>
        <time>2015-05-17T09:55:45.000Z</time>
      </trkpt>
      <trkpt lat="47.49724" lon="6.77334">
        <ele>313</ele>
        <time>2015-05-17T09:55:46.000Z</time>
      </trkpt>
      <trkpt lat="47.49727" lon="6.77332">
        <ele>314</ele>
        <time>2015-05-17T09:55:46.999Z</time>
      </trkpt>
      <trkpt lat="47.49729" lon="6.7733">
        <ele>314</ele>
        <time>2015-05-17T09:55:48.000Z</time>
      </trkpt>
      <trkpt lat="47.49733" lon="6.77327">
        <ele>314</ele>
        <time>2015-05-17T09:59:04.000Z</time>
      </trkpt>
      <trkpt lat="47.49733" lon="6.77327">
        <ele>314</ele>
        <time>2015-05-17T09:59:05.000Z</time>
      </trkpt>
      <trkpt lat="47.49737" lon="6.77323">
        <ele>314</ele>
        <time>2015-05-17T10:00:46.000Z</time>
      </trkpt>
      <trkpt lat="47.49737" lon="6.77323">
        <ele>314</ele>
        <time>2015-05-17T10:00:47.000Z</time>
      </trkpt>
      <trkpt lat="47.4974" lon="6.77328">
        <ele>314</ele>
        <time>2015-05-17T10:04:00.000Z</time>
      </trkpt>
      <trkpt lat="47.4974" lon="6.77328">
        <ele>314</ele>
        <time>2015-05-17T10:04:01.000Z</time>
      </trkpt>
      <trkpt lat="47.49742" lon="6.77323">
        <ele>314</ele>
        <time>2015-05-17T10:06:19.000Z</time>
      </trkpt>
      <trkpt lat="47.49743" lon="6.77322">
        <ele>314</ele>
        <time>2015-05-17T10:06:20.000Z</time>
      </trkpt>
      <trkpt lat="47.49747" lon="6.77319">
        <ele>314</ele>
        <time>2015-05-17T10:06:23.000Z</time>
      </trkpt>
      <trkpt lat="47.49748" lon="6.77319">
        <ele>314</ele>
        <time>2015-05-17T10:06:24.000Z</time>
      </trkpt>
      <trkpt lat="47.49751" lon="6.77316">
        <ele>315</ele>
        <time>2015-05-17T10:06:27.000Z</time>
      </trkpt>
      <trkpt lat="47.49752" lon="6.77315">
        <ele>315</ele>
        <time>2015-05-17T10:06:28.000Z</time>
      </trkpt>
      <trkpt lat="47.49755" lon="6.77312">
        <ele>316</ele>
        <time>2015-05-17T10:06:31.000Z</time>
      </trkpt>
      <trkpt lat="47.49757" lon="6.77311">
        <ele>316</ele>
        <time>2015-05-17T10:06:32.000Z</time>
      </trkpt>
      <trkpt lat="47.49761" lon="6.7731">
        <ele>316</ele>
        <time>2015-05-17T10:06:33.000Z</time>
      </trkpt>
      <trkpt lat="47.49763" lon="6.77309">
        <ele>316</ele>
        <time>2015-05-17T10:06:34.001Z</time>
      </trkpt>
      <trkpt lat="47.49768" lon="6.77308">
        <ele>316</ele>
        <time>2015-05-17T10:06:35.000Z</time>
      </trkpt>
      <trkpt lat="47.49772" lon="6.77307">
        <ele>316</ele>
        <time>2015-05-17T10:06:36.001Z</time>
      </trkpt>
      <trkpt lat="47.49781" lon="6.7731">
        <ele>317</ele>
        <time>2015-05-17T10:06:37.000Z</time>
      </trkpt>
      <trkpt lat="47.49786" lon="6.77311">
        <ele>317</ele>
        <time>2015-05-17T10:06:38.000Z</time>
      </trkpt>
      <trkpt lat="47.49791" lon="6.7731">
        <ele>317</ele>
        <time>2015-05-17T10:06:39.000Z</time>
      </trkpt>
      <trkpt lat="47.49796" lon="6.77309">
        <ele>317</ele>
        <time>2015-05-17T10:06:40.000Z</time>
      </trkpt>
      <trkpt lat="47.49802" lon="6.77308">
        <ele>317</ele>
        <time>2015-05-17T10:06:41.000Z</time>
      </trkpt>
      <trkpt lat="47.49807" lon="6.77307">
        <ele>317</ele>
        <time>2015-05-17T10:06:42.000Z</time>
      </trkpt>
      <trkpt lat="47.4981" lon="6.77313">
        <ele>317</ele>
        <time>2015-05-17T10:06:43.000Z</time>
      </trkpt>
      <trkpt lat="47.49814" lon="6.77316">
        <ele>316</ele>
        <time>2015-05-17T10:06:43.999Z</time>
      </trkpt>
      <trkpt lat="47.4982" lon="6.77315">
        <ele>316</ele>
        <time>2015-05-17T10:06:45.000Z</time>
      </trkpt>
      <trkpt lat="47.49826" lon="6.77316">
        <ele>316</ele>
        <time>2015-05-17T10:06:46.000Z</time>
      </trkpt>
      <trkpt lat="47.49831" lon="6.77315">
        <ele>316</ele>
        <time>2015-05-17T10:06:47.000Z</time>
      </trkpt>
      <trkpt lat="47.49835" lon="6.77314">
        <ele>317</ele>
        <time>2015-05-17T10:06:48.000Z</time>
      </trkpt>
      <trkpt lat="47.49841" lon="6.77311">
        <ele>317</ele>
        <time>2015-05-17T10:06:49.000Z</time>
      </trkpt>
      <trkpt lat="47.49846" lon="6.77309">
        <ele>317</ele>
        <time>2015-05-17T10:06:50.000Z</time>
      </trkpt>
      <trkpt lat="47.4985" lon="6.77308">
        <ele>318</ele>
        <time>2015-05-17T10:06:51.000Z</time>
      </trkpt>
      <trkpt lat="47.49855" lon="6.77309">
        <ele>318</ele>
        <time>2015-05-17T10:06:52.000Z</time>
      </trkpt>
      <trkpt lat="47.4986" lon="6.7731">
        <ele>318</ele>
        <time>2015-05-17T10:06:53.000Z</time>
      </trkpt>
      <trkpt lat="47.49866" lon="6.77306">
        <ele>318</ele>
        <time>2015-05-17T10:06:54.000Z</time>
      </trkpt>
      <trkpt lat="47.49871" lon="6.77301">
        <ele>318</ele>
        <time>2015-05-17T10:06:55.000Z</time>
      </trkpt>
      <trkpt lat="47.49876" lon="6.77299">
        <ele>318</ele>
        <time>2015-05-17T10:06:56.000Z</time>
      </trkpt>
      <trkpt lat="47.49881" lon="6.77297">
        <ele>318</ele>
        <time>2015-05-17T10:06:57.000Z</time>
      </trkpt>
      <trkpt lat="47.49886" lon="6.77294">
        <ele>319</ele>
        <time>2015-05-17T10:06:58.000Z</time>
      </trkpt>
      <trkpt lat="47.49892" lon="6.77293">
        <ele>319</ele>
        <time>2015-05-17T10:06:59.000Z</time>
      </trkpt>
      <trkpt lat="47.49898" lon="6.77289">
        <ele>319</ele>
        <time>2015-05-17T10:07:00.000Z</time>
      </trkpt>
      <trkpt lat="47.49903" lon="6.77285">
        <ele>319</ele>
        <time>2015-05-17T10:07:01.000Z</time>
      </trkpt>
      <trkpt lat="47.49907" lon="6.77282">
        <ele>320</ele>
        <time>2015-05-17T10:07:02.000Z</time>
      </trkpt>
      <trkpt lat="47.49912" lon="6.77279">
        <ele>320</ele>
        <time>2015-05-17T10:07:03.000Z</time>
      </trkpt>
      <trkpt lat="47.49917" lon="6.77276">
        <ele>319</ele>
        <time>2015-05-17T10:07:04.000Z</time>
      </trkpt>
      <trkpt lat="47.49922" lon="6.77273">
        <ele>319</ele>
        <time>2015-05-17T10:07:05.000Z</time>
      </trkpt>
      <trkpt lat="47.49926" lon="6.77271">
        <ele>319</ele>
        <time>2015-05-17T10:07:06.000Z</time>
      </trkpt>
      <trkpt lat="47.4993" lon="6.77267">
        <ele>319</ele>
        <time>2015-05-17T10:07:07.000Z</time>
      </trkpt>
      <trkpt lat="47.49934" lon="6.77264">
        <ele>319</ele>
        <time>2015-05-17T10:07:08.000Z</time>
      </trkpt>
      <trkpt lat="47.4994" lon="6.7726">
        <ele>319</ele>
        <time>2015-05-17T10:07:09.000Z</time>
      </trkpt>
      <trkpt lat="47.49944" lon="6.77258">
        <ele>319</ele>
        <time>2015-05-17T10:07:10.000Z</time>
      </trkpt>
      <trkpt lat="47.4995" lon="6.77253">
        <ele>318</ele>
        <time>2015-05-17T10:07:11.000Z</time>
      </trkpt>
      <trkpt lat="47.49955" lon="6.77249">
        <ele>329</ele>
        <time>2015-05-17T10:07:12.000Z</time>
      </trkpt>
      <trkpt lat="47.49958" lon="6.77249">
        <ele>329</ele>
        <time>2015-05-17T10:07:13.000Z</time>
      </trkpt>
      <trkpt lat="47.49962" lon="6.77247">
        <ele>329</ele>
        <time>2015-05-17T10:07:14.000Z</time>
      </trkpt>
      <trkpt lat="47.49969" lon="6.77244">
        <ele>328</ele>
        <time>2015-05-17T10:07:15.000Z</time>
      </trkpt>
      <trkpt lat="47.49974" lon="6.77241">
        <ele>328</ele>
        <time>2015-05-17T10:07:16.000Z</time>
      </trkpt>
      <trkpt lat="47.49979" lon="6.77236">
        <ele>328</ele>
        <time>2015-05-17T10:07:17.000Z</time>
      </trkpt>
      <trkpt lat="47.49985" lon="6.77234">
        <ele>327</ele>
        <time>2015-05-17T10:07:18.000Z</time>
      </trkpt>
      <trkpt lat="47.4999" lon="6.77231">
        <ele>327</ele>
        <time>2015-05-17T10:07:19.000Z</time>
      </trkpt>
      <trkpt lat="47.49994" lon="6.77229">
        <ele>327</ele>
        <time>2015-05-17T10:07:20.000Z</time>
      </trkpt>
      <trkpt lat="47.49999" lon="6.77224">
        <ele>329</ele>
        <time>2015-05-17T10:07:21.000Z</time>
      </trkpt>
      <trkpt lat="47.50002" lon="6.77224">
        <ele>326</ele>
        <time>2015-05-17T10:07:22.000Z</time>
      </trkpt>
      <trkpt lat="47.50005" lon="6.77224">
        <ele>327</ele>
        <time>2015-05-17T10:07:23.000Z</time>
      </trkpt>
      <trkpt lat="47.50008" lon="6.77225">
        <ele>326</ele>
        <time>2015-05-17T10:07:24.000Z</time>
      </trkpt>
      <trkpt lat="47.5001" lon="6.77228">
        <ele>326</ele>
        <time>2015-05-17T10:07:25.000Z</time>
      </trkpt>
      <trkpt lat="47.50014" lon="6.77228">
        <ele>326</ele>
        <time>2015-05-17T10:07:28.000Z</time>
      </trkpt>
      <trkpt lat="47.50015" lon="6.77228">
        <ele>326</ele>
        <time>2015-05-17T10:07:29.000Z</time>
      </trkpt>
      <trkpt lat="47.50018" lon="6.77224">
        <ele>327</ele>
        <time>2015-05-17T10:07:36.000Z</time>
      </trkpt>
      <trkpt lat="47.50021" lon="6.77223">
        <ele>327</ele>
        <time>2015-05-17T10:07:37.000Z</time>
      </trkpt>
      <trkpt lat="47.50023" lon="6.77221">
        <ele>328</ele>
        <time>2015-05-17T10:07:38.000Z</time>
      </trkpt>
      <trkpt lat="47.50027" lon="6.77219">
        <ele>328</ele>
        <time>2015-05-17T10:07:39.000Z</time>
      </trkpt>
      <trkpt lat="47.50031" lon="6.77216">
        <ele>329</ele>
        <time>2015-05-17T10:07:40.000Z</time>
      </trkpt>
      <trkpt lat="47.50036" lon="6.77214">
        <ele>329</ele>
        <time>2015-05-17T10:07:41.000Z</time>
      </trkpt>
      <trkpt lat="47.5004" lon="6.77212">
        <ele>329</ele>
        <time>2015-05-17T10:07:42.000Z</time>
      </trkpt>
      <trkpt lat="47.50044" lon="6.77211">
        <ele>329</ele>
        <time>2015-05-17T10:07:43.000Z</time>
      </trkpt>
      <trkpt lat="47.50048" lon="6.7721">
        <ele>329</ele>
        <time>2015-05-17T10:07:44.000Z</time>
      </trkpt>
      <trkpt lat="47.50052" lon="6.77209">
        <ele>329</ele>
        <time>2015-05-17T10:07:45.000Z</time>
      </trkpt>
      <trkpt lat="47.50061" lon="6.77211">
        <ele>329</ele>
        <time>2015-05-17T10:07:46.000Z</time>
      </trkpt>
      <trkpt lat="47.50068" lon="6.77212">
        <ele>328</ele>
        <time>2015-05-17T10:07:47.000Z</time>
      </trkpt>
      <trkpt lat="47.50074" lon="6.77211">
        <ele>328</ele>
        <time>2015-05-17T10:07:48.000Z</time>
      </trkpt>
      <trkpt lat="47.50081" lon="6.77205">
        <ele>330</ele>
        <time>2015-05-17T10:07:49.000Z</time>
      </trkpt>
      <trkpt lat="47.50086" lon="6.77203">
        <ele>326</ele>
        <time>2015-05-17T10:07:50.000Z</time>
      </trkpt>
      <trkpt lat="47.50092" lon="6.772">
        <ele>326</ele>
        <time>2015-05-17T10:07:51.000Z</time>
      </trkpt>
      <trkpt lat="47.50097" lon="6.77198">
        <ele>326</ele>
        <time>2015-05-17T10:07:52.000Z</time>
      </trkpt>
      <trkpt lat="47.50103" lon="6.77198">
        <ele>326</ele>
        <time>2015-05-17T10:07:53.000Z</time>
      </trkpt>
      <trkpt lat="47.50109" lon="6.772">
        <ele>325</ele>
        <time>2015-05-17T10:07:54.000Z</time>
      </trkpt>
      <trkpt lat="47.50115" lon="6.77201">
        <ele>324</ele>
        <time>2015-05-17T10:07:55.000Z</time>
      </trkpt>
      <trkpt lat="47.50121" lon="6.77202">
        <ele>324</ele>
        <time>2015-05-17T10:07:56.000Z</time>
      </trkpt>
      <trkpt lat="47.50128" lon="6.77205">
        <ele>323</ele>
        <time>2015-05-17T10:07:57.000Z</time>
      </trkpt>
      <trkpt lat="47.50134" lon="6.77205">
        <ele>323</ele>
        <time>2015-05-17T10:07:58.000Z</time>
      </trkpt>
      <trkpt lat="47.50138" lon="6.77205">
        <ele>322</ele>
        <time>2015-05-17T10:07:59.000Z</time>
      </trkpt>
      <trkpt lat="47.50142" lon="6.77203">
        <ele>322</ele>
        <time>2015-05-17T10:08:00.000Z</time>
      </trkpt>
      <trkpt lat="47.50145" lon="6.77203">
        <ele>322</ele>
        <time>2015-05-17T10:08:01.000Z</time>
      </trkpt>
      <trkpt lat="47.50148" lon="6.77204">
        <ele>322</ele>
        <time>2015-05-17T10:08:02.000Z</time>
      </trkpt>
      <trkpt lat="47.50152" lon="6.7721">
        <ele>321</ele>
        <time>2015-05-17T10:08:03.000Z</time>
      </trkpt>
      <trkpt lat="47.50156" lon="6.77213">
        <ele>321</ele>
        <time>2015-05-17T10:08:04.000Z</time>
      </trkpt>
      <trkpt lat="47.5016" lon="6.77217">
        <ele>320</ele>
        <time>2015-05-17T10:08:05.000Z</time>
      </trkpt>
      <trkpt lat="47.50164" lon="6.77221">
        <ele>320</ele>
        <time>2015-05-17T10:08:06.000Z</time>
      </trkpt>
      <trkpt lat="47.50169" lon="6.77225">
        <ele>316</ele>
        <time>2015-05-17T10:08:07.000Z</time>
      </trkpt>
      <trkpt lat="47.50173" lon="6.77231">
        <ele>316</ele>
        <time>2015-05-17T10:08:08.000Z</time>
      </trkpt>
      <trkpt lat="47.50178" lon="6.77235">
        <ele>315</ele>
        <time>2015-05-17T10:08:09.000Z</time>
      </trkpt>
      <trkpt lat="47.50182" lon="6.77239">
        <ele>315</ele>
        <time>2015-05-17T10:08:10.000Z</time>
      </trkpt>
      <trkpt lat="47.50187" lon="6.77243">
        <ele>315</ele>
        <time>2015-05-17T10:08:11.000Z</time>
      </trkpt>
      <trkpt lat="47.50191" lon="6.77248">
        <ele>315</ele>
        <time>2015-05-17T10:08:12.000Z</time>
      </trkpt>
      <trkpt lat="47.50196" lon="6.77252">
        <ele>313</ele>
        <time>2015-05-17T10:08:13.000Z</time>
      </trkpt>
      <trkpt lat="47.502" lon="6.77256">
        <ele>313</ele>
        <time>2015-05-17T10:08:14.000Z</time>
      </trkpt>
      <trkpt lat="47.50205" lon="6.77261">
        <ele>313</ele>
        <time>2015-05-17T10:08:15.001Z</time>
      </trkpt>
      <trkpt lat="47.5021" lon="6.77263">
        <ele>313</ele>
        <time>2015-05-17T10:08:16.000Z</time>
      </trkpt>
      <trkpt lat="47.50215" lon="6.77269">
        <ele>313</ele>
        <time>2015-05-17T10:08:17.000Z</time>
      </trkpt>
      <trkpt lat="47.5022" lon="6.77273">
        <ele>313</ele>
        <time>2015-05-17T10:08:18.000Z</time>
      </trkpt>
      <trkpt lat="47.50224" lon="6.77276">
        <ele>313</ele>
        <time>2015-05-17T10:08:19.000Z</time>
      </trkpt>
      <trkpt lat="47.50228" lon="6.77279">
        <ele>313</ele>
        <time>2015-05-17T10:08:20.000Z</time>
      </trkpt>
      <trkpt lat="47.50233" lon="6.77282">
        <ele>313</ele>
        <time>2015-05-17T10:08:21.000Z</time>
      </trkpt>
      <trkpt lat="47.50237" lon="6.77285">
        <ele>313</ele>
        <time>2015-05-17T10:08:22.000Z</time>
      </trkpt>
      <trkpt lat="47.50242" lon="6.77289">
        <ele>313</ele>
        <time>2015-05-17T10:08:23.000Z</time>
      </trkpt>
      <trkpt lat="47.50246" lon="6.77292">
        <ele>313</ele>
        <time>2015-05-17T10:08:24.000Z</time>
      </trkpt>
      <trkpt lat="47.50251" lon="6.77296">
        <ele>313</ele>
        <time>2015-05-17T10:08:25.000Z</time>
      </trkpt>
      <trkpt lat="47.50255" lon="6.77299">
        <ele>313</ele>
        <time>2015-05-17T10:08:26.000Z</time>
      </trkpt>
      <trkpt lat="47.50259" lon="6.77302">
        <ele>313</ele>
        <time>2015-05-17T10:08:27.000Z</time>
      </trkpt>
      <trkpt lat="47.50263" lon="6.77304">
        <ele>313</ele>
        <time>2015-05-17T10:08:28.000Z</time>
      </trkpt>
      <trkpt lat="47.50268" lon="6.77306">
        <ele>313</ele>
        <time>2015-05-17T10:08:29.000Z</time>
      </trkpt>
      <trkpt lat="47.50271" lon="6.77309">
        <ele>313</ele>
        <time>2015-05-17T10:08:30.000Z</time>
      </trkpt>
      <trkpt lat="47.50275" lon="6.77313">
        <ele>313</ele>
        <time>2015-05-17T10:08:31.000Z</time>
      </trkpt>
      <trkpt lat="47.50279" lon="6.77316">
        <ele>313</ele>
        <time>2015-05-17T10:08:32.000Z</time>
      </trkpt>
      <trkpt lat="47.50284" lon="6.77318">
        <ele>313</ele>
        <time>2015-05-17T10:08:33.000Z</time>
      </trkpt>
      <trkpt lat="47.50289" lon="6.77321">
        <ele>313</ele>
        <time>2015-05-17T10:08:34.000Z</time>
      </trkpt>
      <trkpt lat="47.50293" lon="6.77324">
        <ele>312</ele>
        <time>2015-05-17T10:08:35.000Z</time>
      </trkpt>
      <trkpt lat="47.50297" lon="6.77326">
        <ele>312</ele>
        <time>2015-05-17T10:08:36.000Z</time>
      </trkpt>
      <trkpt lat="47.50299" lon="6.77332">
        <ele>312</ele>
        <time>2015-05-17T10:08:41.000Z</time>
      </trkpt>
      <trkpt lat="47.50302" lon="6.77331">
        <ele>312</ele>
        <time>2015-05-17T10:08:42.000Z</time>
      </trkpt>
      <trkpt lat="47.50305" lon="6.77333">
        <ele>312</ele>
        <time>2015-05-17T10:08:44.000Z</time>
      </trkpt>
      <trkpt lat="47.50306" lon="6.77334">
        <ele>312</ele>
        <time>2015-05-17T10:08:45.000Z</time>
      </trkpt>
      <trkpt lat="47.50308" lon="6.77335">
        <ele>312</ele>
        <time>2015-05-17T10:08:46.000Z</time>
      </trkpt>
      <trkpt lat="47.5031" lon="6.77337">
        <ele>312</ele>
        <time>2015-05-17T10:08:47.000Z</time>
      </trkpt>
      <trkpt lat="47.50313" lon="6.7734">
        <ele>312</ele>
        <time>2015-05-17T10:08:48.000Z</time>
      </trkpt>
      <trkpt lat="47.50317" lon="6.77342">
        <ele>312</ele>
        <time>2015-05-17T10:08:49.000Z</time>
      </trkpt>
      <trkpt lat="47.50323" lon="6.77345">
        <ele>312</ele>
        <time>2015-05-17T10:08:50.000Z</time>
      </trkpt>
      <trkpt lat="47.50327" lon="6.77347">
        <ele>312</ele>
        <time>2015-05-17T10:08:51.000Z</time>
      </trkpt>
      <trkpt lat="47.50331" lon="6.77351">
        <ele>312</ele>
        <time>2015-05-17T10:08:52.000Z</time>
      </trkpt>
      <trkpt lat="47.50334" lon="6.77355">
        <ele>312</ele>
        <time>2015-05-17T10:08:53.000Z</time>
      </trkpt>
      <trkpt lat="47.50338" lon="6.77357">
        <ele>312</ele>
        <time>2015-05-17T10:08:54.000Z</time>
      </trkpt>
      <trkpt lat="47.50343" lon="6.7736">
        <ele>312</ele>
        <time>2015-05-17T10:08:55.000Z</time>
      </trkpt>
      <trkpt lat="47.50346" lon="6.77364">
        <ele>312</ele>
        <time>2015-05-17T10:08:56.000Z</time>
      </trkpt>
      <trkpt lat="47.50352" lon="6.77368">
        <ele>312</ele>
        <time>2015-05-17T10:08:57.000Z</time>
      </trkpt>
      <trkpt lat="47.50357" lon="6.77371">
        <ele>312</ele>
        <time>2015-05-17T10:08:58.000Z</time>
      </trkpt>
      <trkpt lat="47.50361" lon="6.77375">
        <ele>312</ele>
        <time>2015-05-17T10:08:59.000Z</time>
      </trkpt>
      <trkpt lat="47.50365" lon="6.77379">
        <ele>312</ele>
        <time>2015-05-17T10:09:00.000Z</time>
      </trkpt>
      <trkpt lat="47.50369" lon="6.77383">
        <ele>312</ele>
        <time>2015-05-17T10:09:01.000Z</time>
      </trkpt>
      <trkpt lat="47.50374" lon="6.77386">
        <ele>312</ele>
        <time>2015-05-17T10:09:02.000Z</time>
      </trkpt>
      <trkpt lat="47.50378" lon="6.7739">
        <ele>312</ele>
        <time>2015-05-17T10:09:03.000Z</time>
      </trkpt>
      <trkpt lat="47.50382" lon="6.77395">
        <ele>312</ele>
        <time>2015-05-17T10:09:04.000Z</time>
      </trkpt>
      <trkpt lat="47.50387" lon="6.77399">
        <ele>312</ele>
        <time>2015-05-17T10:09:05.000Z</time>
      </trkpt>
      <trkpt lat="47.50393" lon="6.77403">
        <ele>312</ele>
        <time>2015-05-17T10:09:06.000Z</time>
      </trkpt>
      <trkpt lat="47.50397" lon="6.77408">
        <ele>312</ele>
        <time>2015-05-17T10:09:07.000Z</time>
      </trkpt>
      <trkpt lat="47.50402" lon="6.77413">
        <ele>311</ele>
        <time>2015-05-17T10:09:08.000Z</time>
      </trkpt>
      <trkpt lat="47.50407" lon="6.77416">
        <ele>311</ele>
        <time>2015-05-17T10:09:09.000Z</time>
      </trkpt>
      <trkpt lat="47.50411" lon="6.7742">
        <ele>311</ele>
        <time>2015-05-17T10:09:10.000Z</time>
      </trkpt>
      <trkpt lat="47.50416" lon="6.77425">
        <ele>311</ele>
        <time>2015-05-17T10:09:11.000Z</time>
      </trkpt>
      <trkpt lat="47.50421" lon="6.7743">
        <ele>312</ele>
        <time>2015-05-17T10:09:12.000Z</time>
      </trkpt>
      <trkpt lat="47.50425" lon="6.77435">
        <ele>312</ele>
        <time>2015-05-17T10:09:13.000Z</time>
      </trkpt>
      <trkpt lat="47.50429" lon="6.77439">
        <ele>312</ele>
        <time>2015-05-17T10:09:14.000Z</time>
      </trkpt>
      <trkpt lat="47.50433" lon="6.77444">
        <ele>312</ele>
        <time>2015-05-17T10:09:15.000Z</time>
      </trkpt>
      <trkpt lat="47.50438" lon="6.77448">
        <ele>312</ele>
        <time>2015-05-17T10:09:16.000Z</time>
      </trkpt>
      <trkpt lat="47.50443" lon="6.77453">
        <ele>312</ele>
        <time>2015-05-17T10:09:16.999Z</time>
      </trkpt>
      <trkpt lat="47.50449" lon="6.77455">
        <ele>312</ele>
        <time>2015-05-17T10:09:18.000Z</time>
      </trkpt>
      <trkpt lat="47.50453" lon="6.77459">
        <ele>312</ele>
        <time>2015-05-17T10:09:19.000Z</time>
      </trkpt>
      <trkpt lat="47.50459" lon="6.77464">
        <ele>313</ele>
        <time>2015-05-17T10:09:20.000Z</time>
      </trkpt>
      <trkpt lat="47.50464" lon="6.77467">
        <ele>313</ele>
        <time>2015-05-17T10:09:21.000Z</time>
      </trkpt>
      <trkpt lat="47.50468" lon="6.77471">
        <ele>313</ele>
        <time>2015-05-17T10:09:21.999Z</time>
      </trkpt>
      <trkpt lat="47.50472" lon="6.77475">
        <ele>313</ele>
        <time>2015-05-17T10:09:23.000Z</time>
      </trkpt>
      <trkpt lat="47.50476" lon="6.77478">
        <ele>313</ele>
        <time>2015-05-17T10:09:24.001Z</time>
      </trkpt>
      <trkpt lat="47.50479" lon="6.77482">
        <ele>313</ele>
        <time>2015-05-17T10:09:25.000Z</time>
      </trkpt>
      <trkpt lat="47.50484" lon="6.77485">
        <ele>313</ele>
        <time>2015-05-17T10:09:26.000Z</time>
      </trkpt>
      <trkpt lat="47.50487" lon="6.77488">
        <ele>313</ele>
        <time>2015-05-17T10:09:26.999Z</time>
      </trkpt>
      <trkpt lat="47.50491" lon="6.7749">
        <ele>313</ele>
        <time>2015-05-17T10:09:28.000Z</time>
      </trkpt>
      <trkpt lat="47.50495" lon="6.77492">
        <ele>314</ele>
        <time>2015-05-17T10:09:29.000Z</time>
      </trkpt>
      <trkpt lat="47.50497" lon="6.77492">
        <ele>314</ele>
        <time>2015-05-17T10:09:30.000Z</time>
      </trkpt>
      <trkpt lat="47.50502" lon="6.77493">
        <ele>314</ele>
        <time>2015-05-17T10:09:31.000Z</time>
      </trkpt>
      <trkpt lat="47.50507" lon="6.77496">
        <ele>314</ele>
        <time>2015-05-17T10:09:32.000Z</time>
      </trkpt>
      <trkpt lat="47.50512" lon="6.77499">
        <ele>314</ele>
        <time>2015-05-17T10:09:32.999Z</time>
      </trkpt>
      <trkpt lat="47.50514" lon="6.77502">
        <ele>314</ele>
        <time>2015-05-17T10:09:34.000Z</time>
      </trkpt>
      <trkpt lat="47.50519" lon="6.77505">
        <ele>314</ele>
        <time>2015-05-17T10:09:35.000Z</time>
      </trkpt>
      <trkpt lat="47.50523" lon="6.77509">
        <ele>314</ele>
        <time>2015-05-17T10:09:36.000Z</time>
      </trkpt>
      <trkpt lat="47.50533" lon="6.77513">
        <ele>313</ele>
        <time>2015-05-17T10:09:38.000Z</time>
      </trkpt>
      <trkpt lat="47.50538" lon="6.77515">
        <ele>313</ele>
        <time>2015-05-17T10:09:39.000Z</time>
      </trkpt>
      <trkpt lat="47.50543" lon="6.77519">
        <ele>313</ele>
        <time>2015-05-17T10:09:40.000Z</time>
      </trkpt>
      <trkpt lat="47.50545" lon="6.77521">
        <ele>313</ele>
        <time>2015-05-17T10:09:41.000Z</time>
      </trkpt>
      <trkpt lat="47.50549" lon="6.77525">
        <ele>313</ele>
        <time>2015-05-17T10:09:42.000Z</time>
      </trkpt>
      <trkpt lat="47.50552" lon="6.7753">
        <ele>313</ele>
        <time>2015-05-17T10:09:43.000Z</time>
      </trkpt>
      <trkpt lat="47.50555" lon="6.77536">
        <ele>313</ele>
        <time>2015-05-17T10:09:44.000Z</time>
      </trkpt>
      <trkpt lat="47.50558" lon="6.77542">
        <ele>313</ele>
        <time>2015-05-17T10:09:45.000Z</time>
      </trkpt>
      <trkpt lat="47.5056" lon="6.77548">
        <ele>313</ele>
        <time>2015-05-17T10:09:46.000Z</time>
      </trkpt>
      <trkpt lat="47.50564" lon="6.77552">
        <ele>313</ele>
        <time>2015-05-17T10:09:47.000Z</time>
      </trkpt>
      <trkpt lat="47.50567" lon="6.77554">
        <ele>313</ele>
        <time>2015-05-17T10:09:48.000Z</time>
      </trkpt>
      <trkpt lat="47.50573" lon="6.77553">
        <ele>313</ele>
        <time>2015-05-17T10:09:49.000Z</time>
      </trkpt>
      <trkpt lat="47.50578" lon="6.77552">
        <ele>313</ele>
        <time>2015-05-17T10:09:50.000Z</time>
      </trkpt>
      <trkpt lat="47.50582" lon="6.77547">
        <ele>313</ele>
        <time>2015-05-17T10:09:51.000Z</time>
      </trkpt>
      <trkpt lat="47.50583" lon="6.77543">
        <ele>313</ele>
        <time>2015-05-17T10:09:52.000Z</time>
      </trkpt>
      <trkpt lat="47.50584" lon="6.77538">
        <ele>313</ele>
        <time>2015-05-17T10:09:52.999Z</time>
      </trkpt>
      <trkpt lat="47.50586" lon="6.77533">
        <ele>313</ele>
        <time>2015-05-17T10:09:55.000Z</time>
      </trkpt>
      <trkpt lat="47.50588" lon="6.77529">
        <ele>313</ele>
        <time>2015-05-17T10:09:56.000Z</time>
      </trkpt>
      <trkpt lat="47.50591" lon="6.77526">
        <ele>313</ele>
        <time>2015-05-17T10:09:58.000Z</time>
      </trkpt>
      <trkpt lat="47.50595" lon="6.77524">
        <ele>313</ele>
        <time>2015-05-17T10:09:59.000Z</time>
      </trkpt>
      <trkpt lat="47.50599" lon="6.77525">
        <ele>313</ele>
        <time>2015-05-17T10:10:00.000Z</time>
      </trkpt>
      <trkpt lat="47.50602" lon="6.77525">
        <ele>313</ele>
        <time>2015-05-17T10:10:01.000Z</time>
      </trkpt>
      <trkpt lat="47.50606" lon="6.77525">
        <ele>313</ele>
        <time>2015-05-17T10:10:02.000Z</time>
      </trkpt>
      <trkpt lat="47.50611" lon="6.77526">
        <ele>313</ele>
        <time>2015-05-17T10:10:03.000Z</time>
      </trkpt>
      <trkpt lat="47.50616" lon="6.77528">
        <ele>313</ele>
        <time>2015-05-17T10:10:04.000Z</time>
      </trkpt>
      <trkpt lat="47.50621" lon="6.77529">
        <ele>313</ele>
        <time>2015-05-17T10:10:05.000Z</time>
      </trkpt>
      <trkpt lat="47.50626" lon="6.7753">
        <ele>313</ele>
        <time>2015-05-17T10:10:06.000Z</time>
      </trkpt>
      <trkpt lat="47.50639" lon="6.77537">
        <ele>313</ele>
        <time>2015-05-17T10:10:07.000Z</time>
      </trkpt>
      <trkpt lat="47.50645" lon="6.77537">
        <ele>313</ele>
        <time>2015-05-17T10:10:08.000Z</time>
      </trkpt>
      <trkpt lat="47.50651" lon="6.77537">
        <ele>313</ele>
        <time>2015-05-17T10:10:09.000Z</time>
      </trkpt>
      <trkpt lat="47.50654" lon="6.77539">
        <ele>313</ele>
        <time>2015-05-17T10:10:10.000Z</time>
      </trkpt>
      <trkpt lat="47.50659" lon="6.77541">
        <ele>313</ele>
        <time>2015-05-17T10:10:11.000Z</time>
      </trkpt>
      <trkpt lat="47.50664" lon="6.77541">
        <ele>313</ele>
        <time>2015-05-17T10:10:12.000Z</time>
      </trkpt>
      <trkpt lat="47.50669" lon="6.77538">
        <ele>313</ele>
        <time>2015-05-17T10:10:13.000Z</time>
      </trkpt>
      <trkpt lat="47.50674" lon="6.77537">
        <ele>313</ele>
        <time>2015-05-17T10:10:14.000Z</time>
      </trkpt>
      <trkpt lat="47.50678" lon="6.77536">
        <ele>313</ele>
        <time>2015-05-17T10:10:15.000Z</time>
      </trkpt>
      <trkpt lat="47.50682" lon="6.77537">
        <ele>313</ele>
        <time>2015-05-17T10:10:16.000Z</time>
      </trkpt>
      <trkpt lat="47.5069" lon="6.77536">
        <ele>313</ele>
        <time>2015-05-17T10:10:17.000Z</time>
      </trkpt>
      <trkpt lat="47.50694" lon="6.77536">
        <ele>313</ele>
        <time>2015-05-17T10:10:18.000Z</time>
      </trkpt>
      <trkpt lat="47.50699" lon="6.7754">
        <ele>313</ele>
        <time>2015-05-17T10:10:19.000Z</time>
      </trkpt>
      <trkpt lat="47.50706" lon="6.77542">
        <ele>313</ele>
        <time>2015-05-17T10:10:20.000Z</time>
      </trkpt>
      <trkpt lat="47.50712" lon="6.77544">
        <ele>313</ele>
        <time>2015-05-17T10:10:21.000Z</time>
      </trkpt>
      <trkpt lat="47.50718" lon="6.77547">
        <ele>313</ele>
        <time>2015-05-17T10:10:22.000Z</time>
      </trkpt>
      <trkpt lat="47.50723" lon="6.77548">
        <ele>313</ele>
        <time>2015-05-17T10:10:23.000Z</time>
      </trkpt>
      <trkpt lat="47.50727" lon="6.77553">
        <ele>313</ele>
        <time>2015-05-17T10:10:24.000Z</time>
      </trkpt>
      <trkpt lat="47.50732" lon="6.77555">
        <ele>313</ele>
        <time>2015-05-17T10:10:25.000Z</time>
      </trkpt>
      <trkpt lat="47.50737" lon="6.77557">
        <ele>313</ele>
        <time>2015-05-17T10:10:26.000Z</time>
      </trkpt>
      <trkpt lat="47.50741" lon="6.77559">
        <ele>313</ele>
        <time>2015-05-17T10:10:27.000Z</time>
      </trkpt>
      <trkpt lat="47.50745" lon="6.77562">
        <ele>313</ele>
        <time>2015-05-17T10:10:27.999Z</time>
      </trkpt>
      <trkpt lat="47.5075" lon="6.77565">
        <ele>314</ele>
        <time>2015-05-17T10:10:28.999Z</time>
      </trkpt>
      <trkpt lat="47.50754" lon="6.77569">
        <ele>314</ele>
        <time>2015-05-17T10:10:30.000Z</time>
      </trkpt>
      <trkpt lat="47.50756" lon="6.77573">
        <ele>314</ele>
        <time>2015-05-17T10:10:31.000Z</time>
      </trkpt>
      <trkpt lat="47.5076" lon="6.77576">
        <ele>314</ele>
        <time>2015-05-17T10:10:32.000Z</time>
      </trkpt>
      <trkpt lat="47.50763" lon="6.77579">
        <ele>314</ele>
        <time>2015-05-17T10:10:33.000Z</time>
      </trkpt>
      <trkpt lat="47.50769" lon="6.77583">
        <ele>314</ele>
        <time>2015-05-17T10:10:34.000Z</time>
      </trkpt>
      <trkpt lat="47.50774" lon="6.77588">
        <ele>314</ele>
        <time>2015-05-17T10:10:35.000Z</time>
      </trkpt>
      <trkpt lat="47.50781" lon="6.77592">
        <ele>315</ele>
        <time>2015-05-17T10:10:36.000Z</time>
      </trkpt>
      <trkpt lat="47.50785" lon="6.77596">
        <ele>315</ele>
        <time>2015-05-17T10:10:37.000Z</time>
      </trkpt>
      <trkpt lat="47.50788" lon="6.77598">
        <ele>315</ele>
        <time>2015-05-17T10:10:38.000Z</time>
      </trkpt>
      <trkpt lat="47.50792" lon="6.77599">
        <ele>315</ele>
        <time>2015-05-17T10:10:39.000Z</time>
      </trkpt>
      <trkpt lat="47.50798" lon="6.77601">
        <ele>315</ele>
        <time>2015-05-17T10:10:40.000Z</time>
      </trkpt>
      <trkpt lat="47.50804" lon="6.77605">
        <ele>315</ele>
        <time>2015-05-17T10:10:41.000Z</time>
      </trkpt>
      <trkpt lat="47.50809" lon="6.77608">
        <ele>315</ele>
        <time>2015-05-17T10:10:42.000Z</time>
      </trkpt>
      <trkpt lat="47.50813" lon="6.7761">
        <ele>316</ele>
        <time>2015-05-17T10:10:43.000Z</time>
      </trkpt>
      <trkpt lat="47.50819" lon="6.77614">
        <ele>316</ele>
        <time>2015-05-17T10:10:44.000Z</time>
      </trkpt>
      <trkpt lat="47.50824" lon="6.77619">
        <ele>316</ele>
        <time>2015-05-17T10:10:45.000Z</time>
      </trkpt>
      <trkpt lat="47.50828" lon="6.77622">
        <ele>316</ele>
        <time>2015-05-17T10:10:46.000Z</time>
      </trkpt>
      <trkpt lat="47.50832" lon="6.77625">
        <ele>316</ele>
        <time>2015-05-17T10:10:47.000Z</time>
      </trkpt>
      <trkpt lat="47.50836" lon="6.77629">
        <ele>317</ele>
        <time>2015-05-17T10:10:48.000Z</time>
      </trkpt>
      <trkpt lat="47.50839" lon="6.77632">
        <ele>317</ele>
        <time>2015-05-17T10:10:49.000Z</time>
      </trkpt>
      <trkpt lat="47.50843" lon="6.77636">
        <ele>317</ele>
        <time>2015-05-17T10:10:50.000Z</time>
      </trkpt>
      <trkpt lat="47.50845" lon="6.77639">
        <ele>317</ele>
        <time>2015-05-17T10:10:51.000Z</time>
      </trkpt>
      <trkpt lat="47.50848" lon="6.77642">
        <ele>317</ele>
        <time>2015-05-17T10:10:52.000Z</time>
      </trkpt>
      <trkpt lat="47.5085" lon="6.77646">
        <ele>317</ele>
        <time>2015-05-17T10:10:53.000Z</time>
      </trkpt>
      <trkpt lat="47.50853" lon="6.77649">
        <ele>317</ele>
        <time>2015-05-17T10:10:54.000Z</time>
      </trkpt>
      <trkpt lat="47.50856" lon="6.77652">
        <ele>317</ele>
        <time>2015-05-17T10:10:55.000Z</time>
      </trkpt>
      <trkpt lat="47.50858" lon="6.77656">
        <ele>317</ele>
        <time>2015-05-17T10:10:56.000Z</time>
      </trkpt>
      <trkpt lat="47.50861" lon="6.7766">
        <ele>316</ele>
        <time>2015-05-17T10:10:57.000Z</time>
      </trkpt>
      <trkpt lat="47.50864" lon="6.77663">
        <ele>316</ele>
        <time>2015-05-17T10:10:58.000Z</time>
      </trkpt>
      <trkpt lat="47.50867" lon="6.77667">
        <ele>316</ele>
        <time>2015-05-17T10:10:59.000Z</time>
      </trkpt>
      <trkpt lat="47.50869" lon="6.7767">
        <ele>316</ele>
        <time>2015-05-17T10:11:00.000Z</time>
      </trkpt>
      <trkpt lat="47.50871" lon="6.77674">
        <ele>316</ele>
        <time>2015-05-17T10:11:01.000Z</time>
      </trkpt>
      <trkpt lat="47.50873" lon="6.77677">
        <ele>316</ele>
        <time>2015-05-17T10:11:02.001Z</time>
      </trkpt>
      <trkpt lat="47.50875" lon="6.77679">
        <ele>316</ele>
        <time>2015-05-17T10:11:03.000Z</time>
      </trkpt>
      <trkpt lat="47.50877" lon="6.77682">
        <ele>316</ele>
        <time>2015-05-17T10:11:04.000Z</time>
      </trkpt>
      <trkpt lat="47.50879" lon="6.77686">
        <ele>316</ele>
        <time>2015-05-17T10:11:05.000Z</time>
      </trkpt>
      <trkpt lat="47.50882" lon="6.7769">
        <ele>316</ele>
        <time>2015-05-17T10:11:06.000Z</time>
      </trkpt>
      <trkpt lat="47.50884" lon="6.77695">
        <ele>316</ele>
        <time>2015-05-17T10:11:07.000Z</time>
      </trkpt>
      <trkpt lat="47.50887" lon="6.77699">
        <ele>316</ele>
        <time>2015-05-17T10:11:08.000Z</time>
      </trkpt>
      <trkpt lat="47.5089" lon="6.77702">
        <ele>316</ele>
        <time>2015-05-17T10:11:09.000Z</time>
      </trkpt>
      <trkpt lat="47.50893" lon="6.77703">
        <ele>316</ele>
        <time>2015-05-17T10:11:10.000Z</time>
      </trkpt>
      <trkpt lat="47.50896" lon="6.77702">
        <ele>316</ele>
        <time>2015-05-17T10:11:11.000Z</time>
      </trkpt>
      <trkpt lat="47.509" lon="6.77701">
        <ele>316</ele>
        <time>2015-05-17T10:11:12.000Z</time>
      </trkpt>
      <trkpt lat="47.50904" lon="6.777">
        <ele>316</ele>
        <time>2015-05-17T10:11:13.000Z</time>
      </trkpt>
      <trkpt lat="47.50908" lon="6.777">
        <ele>316</ele>
        <time>2015-05-17T10:11:14.000Z</time>
      </trkpt>
      <trkpt lat="47.50912" lon="6.77699">
        <ele>316</ele>
        <time>2015-05-17T10:11:15.000Z</time>
      </trkpt>
      <trkpt lat="47.50916" lon="6.77698">
        <ele>316</ele>
        <time>2015-05-17T10:11:16.000Z</time>
      </trkpt>
      <trkpt lat="47.5092" lon="6.77698">
        <ele>315</ele>
        <time>2015-05-17T10:11:17.000Z</time>
      </trkpt>
      <trkpt lat="47.50924" lon="6.77698">
        <ele>315</ele>
        <time>2015-05-17T10:11:18.000Z</time>
      </trkpt>
      <trkpt lat="47.50928" lon="6.77698">
        <ele>315</ele>
        <time>2015-05-17T10:11:19.000Z</time>
      </trkpt>
      <trkpt lat="47.50932" lon="6.77699">
        <ele>315</ele>
        <time>2015-05-17T10:11:20.000Z</time>
      </trkpt>
      <trkpt lat="47.50935" lon="6.77699">
        <ele>315</ele>
        <time>2015-05-17T10:11:21.000Z</time>
      </trkpt>
      <trkpt lat="47.50938" lon="6.777">
        <ele>315</ele>
        <time>2015-05-17T10:11:22.000Z</time>
      </trkpt>
      <trkpt lat="47.5094" lon="6.777">
        <ele>315</ele>
        <time>2015-05-17T10:11:23.000Z</time>
      </trkpt>
      <trkpt lat="47.50944" lon="6.77699">
        <ele>315</ele>
        <time>2015-05-17T10:11:25.000Z</time>
      </trkpt>
      <trkpt lat="47.50946" lon="6.77699">
        <ele>315</ele>
        <time>2015-05-17T10:11:26.000Z</time>
      </trkpt>
      <trkpt lat="47.5095" lon="6.777">
        <ele>315</ele>
        <time>2015-05-17T10:11:30.000Z</time>
      </trkpt>
      <trkpt lat="47.50951" lon="6.777">
        <ele>315</ele>
        <time>2015-05-17T10:11:31.000Z</time>
      </trkpt>
      <trkpt lat="47.50955" lon="6.777">
        <ele>315</ele>
        <time>2015-05-17T10:11:33.000Z</time>
      </trkpt>
      <trkpt lat="47.50957" lon="6.77698">
        <ele>315</ele>
        <time>2015-05-17T10:11:34.000Z</time>
      </trkpt>
      <trkpt lat="47.50959" lon="6.77696">
        <ele>315</ele>
        <time>2015-05-17T10:11:35.000Z</time>
      </trkpt>
      <trkpt lat="47.50961" lon="6.77693">
        <ele>315</ele>
        <time>2015-05-17T10:11:36.000Z</time>
      </trkpt>
      <trkpt lat="47.50963" lon="6.77691">
        <ele>315</ele>
        <time>2015-05-17T10:11:37.000Z</time>
      </trkpt>
      <trkpt lat="47.50966" lon="6.77689">
        <ele>315</ele>
        <time>2015-05-17T10:11:38.000Z</time>
      </trkpt>
      <trkpt lat="47.50968" lon="6.7769">
        <ele>315</ele>
        <time>2015-05-17T10:11:39.000Z</time>
      </trkpt>
      <trkpt lat="47.50971" lon="6.77692">
        <ele>315</ele>
        <time>2015-05-17T10:11:40.000Z</time>
      </trkpt>
      <trkpt lat="47.50974" lon="6.77694">
        <ele>315</ele>
        <time>2015-05-17T10:11:41.000Z</time>
      </trkpt>
      <trkpt lat="47.50977" lon="6.77697">
        <ele>315</ele>
        <time>2015-05-17T10:11:42.000Z</time>
      </trkpt>
      <trkpt lat="47.50979" lon="6.77701">
        <ele>315</ele>
        <time>2015-05-17T10:11:43.000Z</time>
      </trkpt>
      <trkpt lat="47.50982" lon="6.77704">
        <ele>315</ele>
        <time>2015-05-17T10:11:44.000Z</time>
      </trkpt>
      <trkpt lat="47.50985" lon="6.77706">
        <ele>315</ele>
        <time>2015-05-17T10:11:45.000Z</time>
      </trkpt>
      <trkpt lat="47.50988" lon="6.77709">
        <ele>315</ele>
        <time>2015-05-17T10:11:46.000Z</time>
      </trkpt>
      <trkpt lat="47.50991" lon="6.77712">
        <ele>315</ele>
        <time>2015-05-17T10:11:47.000Z</time>
      </trkpt>
      <trkpt lat="47.50994" lon="6.77714">
        <ele>315</ele>
        <time>2015-05-17T10:11:48.000Z</time>
      </trkpt>
      <trkpt lat="47.50997" lon="6.77717">
        <ele>315</ele>
        <time>2015-05-17T10:11:49.000Z</time>
      </trkpt>
      <trkpt lat="47.51" lon="6.7772">
        <ele>316</ele>
        <time>2015-05-17T10:11:50.000Z</time>
      </trkpt>
      <trkpt lat="47.51003" lon="6.77723">
        <ele>316</ele>
        <time>2015-05-17T10:11:51.000Z</time>
      </trkpt>
      <trkpt lat="47.51006" lon="6.77726">
        <ele>316</ele>
        <time>2015-05-17T10:11:52.000Z</time>
      </trkpt>
      <trkpt lat="47.5101" lon="6.77728">
        <ele>316</ele>
        <time>2015-05-17T10:11:53.000Z</time>
      </trkpt>
      <trkpt lat="47.51013" lon="6.77731">
        <ele>317</ele>
        <time>2015-05-17T10:11:54.000Z</time>
      </trkpt>
      <trkpt lat="47.51015" lon="6.77733">
        <ele>317</ele>
        <time>2015-05-17T10:11:55.000Z</time>
      </trkpt>
      <trkpt lat="47.51018" lon="6.77736">
        <ele>317</ele>
        <time>2015-05-17T10:11:55.999Z</time>
      </trkpt>
      <trkpt lat="47.51021" lon="6.77738">
        <ele>317</ele>
        <time>2015-05-17T10:11:57.000Z</time>
      </trkpt>
      <trkpt lat="47.51024" lon="6.77739">
        <ele>317</ele>
        <time>2015-05-17T10:11:58.000Z</time>
      </trkpt>
      <trkpt lat="47.51027" lon="6.77739">
        <ele>317</ele>
        <time>2015-05-17T10:11:59.000Z</time>
      </trkpt>
      <trkpt lat="47.5103" lon="6.7774">
        <ele>317</ele>
        <time>2015-05-17T10:12:00.000Z</time>
      </trkpt>
      <trkpt lat="47.51033" lon="6.77741">
        <ele>317</ele>
        <time>2015-05-17T10:12:01.000Z</time>
      </trkpt>
      <trkpt lat="47.51035" lon="6.77743">
        <ele>317</ele>
        <time>2015-05-17T10:12:02.000Z</time>
      </trkpt>
      <trkpt lat="47.51038" lon="6.77744">
        <ele>317</ele>
        <time>2015-05-17T10:12:03.000Z</time>
      </trkpt>
      <trkpt lat="47.5104" lon="6.77745">
        <ele>317</ele>
        <time>2015-05-17T10:12:04.000Z</time>
      </trkpt>
      <trkpt lat="47.51043" lon="6.77746">
        <ele>317</ele>
        <time>2015-05-17T10:12:06.000Z</time>
      </trkpt>
      <trkpt lat="47.51045" lon="6.77748">
        <ele>317</ele>
        <time>2015-05-17T10:12:07.000Z</time>
      </trkpt>
      <trkpt lat="47.51048" lon="6.77751">
        <ele>318</ele>
        <time>2015-05-17T10:12:09.000Z</time>
      </trkpt>
      <trkpt lat="47.5105" lon="6.77753">
        <ele>318</ele>
        <time>2015-05-17T10:12:10.000Z</time>
      </trkpt>
      <trkpt lat="47.51052" lon="6.77755">
        <ele>318</ele>
        <time>2015-05-17T10:12:14.000Z</time>
      </trkpt>
      <trkpt lat="47.51053" lon="6.77758">
        <ele>318</ele>
        <time>2015-05-17T10:12:15.000Z</time>
      </trkpt>
      <trkpt lat="47.51055" lon="6.77761">
        <ele>318</ele>
        <time>2015-05-17T10:12:16.000Z</time>
      </trkpt>
      <trkpt lat="47.51057" lon="6.77764">
        <ele>318</ele>
        <time>2015-05-17T10:12:17.000Z</time>
      </trkpt>
      <trkpt lat="47.5106" lon="6.77767">
        <ele>318</ele>
        <time>2015-05-17T10:12:18.000Z</time>
      </trkpt>
      <trkpt lat="47.51062" lon="6.77769">
        <ele>318</ele>
        <time>2015-05-17T10:12:19.000Z</time>
      </trkpt>
      <trkpt lat="47.51066" lon="6.7777">
        <ele>319</ele>
        <time>2015-05-17T10:12:20.000Z</time>
      </trkpt>
      <trkpt lat="47.51069" lon="6.77771">
        <ele>319</ele>
        <time>2015-05-17T10:12:21.000Z</time>
      </trkpt>
      <trkpt lat="47.51073" lon="6.77772">
        <ele>319</ele>
        <time>2015-05-17T10:12:22.000Z</time>
      </trkpt>
      <trkpt lat="47.51077" lon="6.77773">
        <ele>319</ele>
        <time>2015-05-17T10:12:23.000Z</time>
      </trkpt>
      <trkpt lat="47.5108" lon="6.77774">
        <ele>319</ele>
        <time>2015-05-17T10:12:24.000Z</time>
      </trkpt>
      <trkpt lat="47.51083" lon="6.77774">
        <ele>319</ele>
        <time>2015-05-17T10:12:25.000Z</time>
      </trkpt>
      <trkpt lat="47.51086" lon="6.77776">
        <ele>321</ele>
        <time>2015-05-17T10:12:26.000Z</time>
      </trkpt>
      <trkpt lat="47.5109" lon="6.77778">
        <ele>321</ele>
        <time>2015-05-17T10:12:27.000Z</time>
      </trkpt>
      <trkpt lat="47.51093" lon="6.7778">
        <ele>321</ele>
        <time>2015-05-17T10:12:28.000Z</time>
      </trkpt>
      <trkpt lat="47.51096" lon="6.77782">
        <ele>321</ele>
        <time>2015-05-17T10:12:29.000Z</time>
      </trkpt>
      <trkpt lat="47.51099" lon="6.77783">
        <ele>322</ele>
        <time>2015-05-17T10:12:30.000Z</time>
      </trkpt>
      <trkpt lat="47.51102" lon="6.77785">
        <ele>322</ele>
        <time>2015-05-17T10:12:31.000Z</time>
      </trkpt>
      <trkpt lat="47.51105" lon="6.77787">
        <ele>322</ele>
        <time>2015-05-17T10:12:32.000Z</time>
      </trkpt>
      <trkpt lat="47.51108" lon="6.77789">
        <ele>322</ele>
        <time>2015-05-17T10:12:33.000Z</time>
      </trkpt>
      <trkpt lat="47.51112" lon="6.7779">
        <ele>322</ele>
        <time>2015-05-17T10:12:34.000Z</time>
      </trkpt>
      <trkpt lat="47.51116" lon="6.77791">
        <ele>322</ele>
        <time>2015-05-17T10:12:35.000Z</time>
      </trkpt>
      <trkpt lat="47.51119" lon="6.77792">
        <ele>322</ele>
        <time>2015-05-17T10:12:36.000Z</time>
      </trkpt>
      <trkpt lat="47.51123" lon="6.77794">
        <ele>322</ele>
        <time>2015-05-17T10:12:37.000Z</time>
      </trkpt>
      <trkpt lat="47.51126" lon="6.77795">
        <ele>322</ele>
        <time>2015-05-17T10:12:38.000Z</time>
      </trkpt>
      <trkpt lat="47.51129" lon="6.77796">
        <ele>322</ele>
        <time>2015-05-17T10:12:39.000Z</time>
      </trkpt>
      <trkpt lat="47.51132" lon="6.77797">
        <ele>322</ele>
        <time>2015-05-17T10:12:40.000Z</time>
      </trkpt>
      <trkpt lat="47.51134" lon="6.77797">
        <ele>323</ele>
        <time>2015-05-17T10:12:41.000Z</time>
      </trkpt>
      <trkpt lat="47.51138" lon="6.77798">
        <ele>323</ele>
        <time>2015-05-17T10:12:43.000Z</time>
      </trkpt>
      <trkpt lat="47.5114" lon="6.77798">
        <ele>323</ele>
        <time>2015-05-17T10:12:44.000Z</time>
      </trkpt>
      <trkpt lat="47.51142" lon="6.77798">
        <ele>323</ele>
        <time>2015-05-17T10:12:45.000Z</time>
      </trkpt>
      <trkpt lat="47.51145" lon="6.77798">
        <ele>323</ele>
        <time>2015-05-17T10:12:46.000Z</time>
      </trkpt>
      <trkpt lat="47.51147" lon="6.77798">
        <ele>323</ele>
        <time>2015-05-17T10:12:47.000Z</time>
      </trkpt>
      <trkpt lat="47.5115" lon="6.77799">
        <ele>323</ele>
        <time>2015-05-17T10:12:48.000Z</time>
      </trkpt>
      <trkpt lat="47.51152" lon="6.77799">
        <ele>323</ele>
        <time>2015-05-17T10:12:49.000Z</time>
      </trkpt>
      <trkpt lat="47.51155" lon="6.778">
        <ele>323</ele>
        <time>2015-05-17T10:12:50.000Z</time>
      </trkpt>
      <trkpt lat="47.51159" lon="6.77801">
        <ele>323</ele>
        <time>2015-05-17T10:12:51.000Z</time>
      </trkpt>
      <trkpt lat="47.51162" lon="6.77802">
        <ele>323</ele>
        <time>2015-05-17T10:12:52.000Z</time>
      </trkpt>
      <trkpt lat="47.51165" lon="6.77802">
        <ele>323</ele>
        <time>2015-05-17T10:12:53.000Z</time>
      </trkpt>
      <trkpt lat="47.51169" lon="6.77801">
        <ele>326</ele>
        <time>2015-05-17T10:12:54.000Z</time>
      </trkpt>
      <trkpt lat="47.51172" lon="6.778">
        <ele>326</ele>
        <time>2015-05-17T10:12:55.000Z</time>
      </trkpt>
      <trkpt lat="47.51175" lon="6.77799">
        <ele>326</ele>
        <time>2015-05-17T10:12:56.000Z</time>
      </trkpt>
      <trkpt lat="47.51179" lon="6.77799">
        <ele>326</ele>
        <time>2015-05-17T10:12:57.000Z</time>
      </trkpt>
      <trkpt lat="47.51182" lon="6.77798">
        <ele>326</ele>
        <time>2015-05-17T10:12:58.000Z</time>
      </trkpt>
      <trkpt lat="47.51186" lon="6.77797">
        <ele>326</ele>
        <time>2015-05-17T10:12:59.000Z</time>
      </trkpt>
      <trkpt lat="47.51189" lon="6.77796">
        <ele>326</ele>
        <time>2015-05-17T10:13:00.000Z</time>
      </trkpt>
      <trkpt lat="47.51192" lon="6.77796">
        <ele>327</ele>
        <time>2015-05-17T10:13:01.000Z</time>
      </trkpt>
      <trkpt lat="47.51195" lon="6.77796">
        <ele>327</ele>
        <time>2015-05-17T10:13:02.000Z</time>
      </trkpt>
      <trkpt lat="47.51198" lon="6.77795">
        <ele>327</ele>
        <time>2015-05-17T10:13:03.000Z</time>
      </trkpt>
      <trkpt lat="47.51201" lon="6.77795">
        <ele>327</ele>
        <time>2015-05-17T10:13:04.000Z</time>
      </trkpt>
      <trkpt lat="47.51203" lon="6.77794">
        <ele>327</ele>
        <time>2015-05-17T10:13:05.000Z</time>
      </trkpt>
      <trkpt lat="47.51206" lon="6.77794">
        <ele>327</ele>
        <time>2015-05-17T10:13:06.000Z</time>
      </trkpt>
      <trkpt lat="47.51208" lon="6.77794">
        <ele>327</ele>
        <time>2015-05-17T10:13:07.000Z</time>
      </trkpt>
      <trkpt lat="47.5121" lon="6.77793">
        <ele>327</ele>
        <time>2015-05-17T10:13:08.000Z</time>
      </trkpt>
      <trkpt lat="47.51213" lon="6.77793">
        <ele>327</ele>
        <time>2015-05-17T10:13:09.000Z</time>
      </trkpt>
      <trkpt lat="47.51216" lon="6.77792">
        <ele>327</ele>
        <time>2015-05-17T10:13:10.000Z</time>
      </trkpt>
      <trkpt lat="47.51218" lon="6.77792">
        <ele>327</ele>
        <time>2015-05-17T10:13:11.000Z</time>
      </trkpt>
      <trkpt lat="47.51221" lon="6.77791">
        <ele>327</ele>
        <time>2015-05-17T10:13:12.000Z</time>
      </trkpt>
      <trkpt lat="47.51224" lon="6.77791">
        <ele>327</ele>
        <time>2015-05-17T10:13:13.000Z</time>
      </trkpt>
      <trkpt lat="47.51226" lon="6.7779">
        <ele>328</ele>
        <time>2015-05-17T10:13:14.000Z</time>
      </trkpt>
      <trkpt lat="47.51229" lon="6.7779">
        <ele>328</ele>
        <time>2015-05-17T10:13:15.000Z</time>
      </trkpt>
      <trkpt lat="47.51232" lon="6.77789">
        <ele>328</ele>
        <time>2015-05-17T10:13:16.000Z</time>
      </trkpt>
      <trkpt lat="47.51234" lon="6.77789">
        <ele>328</ele>
        <time>2015-05-17T10:13:17.000Z</time>
      </trkpt>
      <trkpt lat="47.51237" lon="6.77788">
        <ele>328</ele>
        <time>2015-05-17T10:13:18.000Z</time>
      </trkpt>
      <trkpt lat="47.51239" lon="6.77787">
        <ele>328</ele>
        <time>2015-05-17T10:13:19.000Z</time>
      </trkpt>
      <trkpt lat="47.51242" lon="6.77787">
        <ele>328</ele>
        <time>2015-05-17T10:13:20.000Z</time>
      </trkpt>
      <trkpt lat="47.51246" lon="6.77786">
        <ele>328</ele>
        <time>2015-05-17T10:13:22.000Z</time>
      </trkpt>
      <trkpt lat="47.51247" lon="6.77786">
        <ele>328</ele>
        <time>2015-05-17T10:13:23.000Z</time>
      </trkpt>
      <trkpt lat="47.5125" lon="6.77786">
        <ele>328</ele>
        <time>2015-05-17T10:13:27.000Z</time>
      </trkpt>
      <trkpt lat="47.51251" lon="6.77785">
        <ele>334</ele>
        <time>2015-05-17T10:13:28.000Z</time>
      </trkpt>
      <trkpt lat="47.51255" lon="6.77784">
        <ele>334</ele>
        <time>2015-05-17T10:13:30.000Z</time>
      </trkpt>
      <trkpt lat="47.51257" lon="6.77784">
        <ele>334</ele>
        <time>2015-05-17T10:13:31.000Z</time>
      </trkpt>
      <trkpt lat="47.51262" lon="6.77783">
        <ele>334</ele>
        <time>2015-05-17T10:13:33.000Z</time>
      </trkpt>
      <trkpt lat="47.51264" lon="6.77782">
        <ele>334</ele>
        <time>2015-05-17T10:13:34.000Z</time>
      </trkpt>
      <trkpt lat="47.51266" lon="6.7778">
        <ele>334</ele>
        <time>2015-05-17T10:13:35.000Z</time>
      </trkpt>
      <trkpt lat="47.51269" lon="6.77779">
        <ele>334</ele>
        <time>2015-05-17T10:13:36.000Z</time>
      </trkpt>
      <trkpt lat="47.51272" lon="6.77778">
        <ele>335</ele>
        <time>2015-05-17T10:13:38.000Z</time>
      </trkpt>
      <trkpt lat="47.51274" lon="6.77778">
        <ele>335</ele>
        <time>2015-05-17T10:13:39.000Z</time>
      </trkpt>
      <trkpt lat="47.51277" lon="6.77779">
        <ele>335</ele>
        <time>2015-05-17T10:13:41.000Z</time>
      </trkpt>
      <trkpt lat="47.51279" lon="6.7778">
        <ele>335</ele>
        <time>2015-05-17T10:13:42.000Z</time>
      </trkpt>
      <trkpt lat="47.51281" lon="6.77781">
        <ele>335</ele>
        <time>2015-05-17T10:13:43.000Z</time>
      </trkpt>
      <trkpt lat="47.51283" lon="6.77781">
        <ele>335</ele>
        <time>2015-05-17T10:13:44.000Z</time>
      </trkpt>
      <trkpt lat="47.51286" lon="6.77781">
        <ele>336</ele>
        <time>2015-05-17T10:13:45.000Z</time>
      </trkpt>
      <trkpt lat="47.51288" lon="6.77781">
        <ele>336</ele>
        <time>2015-05-17T10:13:46.000Z</time>
      </trkpt>
      <trkpt lat="47.51292" lon="6.7778">
        <ele>336</ele>
        <time>2015-05-17T10:13:48.000Z</time>
      </trkpt>
      <trkpt lat="47.51294" lon="6.77779">
        <ele>336</ele>
        <time>2015-05-17T10:13:49.000Z</time>
      </trkpt>
      <trkpt lat="47.51298" lon="6.77777">
        <ele>337</ele>
        <time>2015-05-17T10:13:51.000Z</time>
      </trkpt>
      <trkpt lat="47.51299" lon="6.77777">
        <ele>337</ele>
        <time>2015-05-17T10:13:52.000Z</time>
      </trkpt>
      <trkpt lat="47.51303" lon="6.77775">
        <ele>337</ele>
        <time>2015-05-17T10:13:55.000Z</time>
      </trkpt>
      <trkpt lat="47.51304" lon="6.77774">
        <ele>337</ele>
        <time>2015-05-17T10:13:56.000Z</time>
      </trkpt>
      <trkpt lat="47.51307" lon="6.77773">
        <ele>338</ele>
        <time>2015-05-17T10:13:58.000Z</time>
      </trkpt>
      <trkpt lat="47.5131" lon="6.77773">
        <ele>338</ele>
        <time>2015-05-17T10:13:59.000Z</time>
      </trkpt>
      <trkpt lat="47.51312" lon="6.77772">
        <ele>338</ele>
        <time>2015-05-17T10:14:00.000Z</time>
      </trkpt>
      <trkpt lat="47.51314" lon="6.77772">
        <ele>338</ele>
        <time>2015-05-17T10:14:01.000Z</time>
      </trkpt>
      <trkpt lat="47.51318" lon="6.77773">
        <ele>339</ele>
        <time>2015-05-17T10:14:03.000Z</time>
      </trkpt>
      <trkpt lat="47.5132" lon="6.77774">
        <ele>339</ele>
        <time>2015-05-17T10:14:04.000Z</time>
      </trkpt>
      <trkpt lat="47.51324" lon="6.77777">
        <ele>339</ele>
        <time>2015-05-17T10:14:06.000Z</time>
      </trkpt>
      <trkpt lat="47.51326" lon="6.77779">
        <ele>339</ele>
        <time>2015-05-17T10:14:07.000Z</time>
      </trkpt>
      <trkpt lat="47.51327" lon="6.77782">
        <ele>339</ele>
        <time>2015-05-17T10:14:08.000Z</time>
      </trkpt>
      <trkpt lat="47.51329" lon="6.77784">
        <ele>339</ele>
        <time>2015-05-17T10:14:09.000Z</time>
      </trkpt>
      <trkpt lat="47.51331" lon="6.77786">
        <ele>339</ele>
        <time>2015-05-17T10:14:10.000Z</time>
      </trkpt>
      <trkpt lat="47.51334" lon="6.77786">
        <ele>348</ele>
        <time>2015-05-17T10:14:11.000Z</time>
      </trkpt>
      <trkpt lat="47.51336" lon="6.77785">
        <ele>348</ele>
        <time>2015-05-17T10:14:12.000Z</time>
      </trkpt>
      <trkpt lat="47.51338" lon="6.77784">
        <ele>348</ele>
        <time>2015-05-17T10:14:13.000Z</time>
      </trkpt>
      <trkpt lat="47.51341" lon="6.77782">
        <ele>348</ele>
        <time>2015-05-17T10:14:15.000Z</time>
      </trkpt>
      <trkpt lat="47.51343" lon="6.77781">
        <ele>348</ele>
        <time>2015-05-17T10:14:16.000Z</time>
      </trkpt>
      <trkpt lat="47.51347" lon="6.77779">
        <ele>349</ele>
        <time>2015-05-17T10:14:18.000Z</time>
      </trkpt>
      <trkpt lat="47.51349" lon="6.77777">
        <ele>349</ele>
        <time>2015-05-17T10:14:19.000Z</time>
      </trkpt>
      <trkpt lat="47.51352" lon="6.77775">
        <ele>349</ele>
        <time>2015-05-17T10:14:21.000Z</time>
      </trkpt>
      <trkpt lat="47.51354" lon="6.77774">
        <ele>349</ele>
        <time>2015-05-17T10:14:22.000Z</time>
      </trkpt>
      <trkpt lat="47.51358" lon="6.77773">
        <ele>349</ele>
        <time>2015-05-17T10:14:24.000Z</time>
      </trkpt>
      <trkpt lat="47.51361" lon="6.77773">
        <ele>350</ele>
        <time>2015-05-17T10:14:25.000Z</time>
      </trkpt>
      <trkpt lat="47.51363" lon="6.77772">
        <ele>350</ele>
        <time>2015-05-17T10:14:26.000Z</time>
      </trkpt>
      <trkpt lat="47.51366" lon="6.77771">
        <ele>350</ele>
        <time>2015-05-17T10:14:27.000Z</time>
      </trkpt>
      <trkpt lat="47.51368" lon="6.77769">
        <ele>350</ele>
        <time>2015-05-17T10:14:28.000Z</time>
      </trkpt>
      <trkpt lat="47.51371" lon="6.77767">
        <ele>351</ele>
        <time>2015-05-17T10:14:29.000Z</time>
      </trkpt>
      <trkpt lat="47.51374" lon="6.77766">
        <ele>351</ele>
        <time>2015-05-17T10:14:30.000Z</time>
      </trkpt>
      <trkpt lat="47.51376" lon="6.77764">
        <ele>351</ele>
        <time>2015-05-17T10:14:31.000Z</time>
      </trkpt>
      <trkpt lat="47.51379" lon="6.77762">
        <ele>351</ele>
        <time>2015-05-17T10:14:32.000Z</time>
      </trkpt>
      <trkpt lat="47.51381" lon="6.7776">
        <ele>352</ele>
        <time>2015-05-17T10:14:33.000Z</time>
      </trkpt>
      <trkpt lat="47.51384" lon="6.77758">
        <ele>352</ele>
        <time>2015-05-17T10:14:34.000Z</time>
      </trkpt>
      <trkpt lat="47.51387" lon="6.77757">
        <ele>352</ele>
        <time>2015-05-17T10:14:35.000Z</time>
      </trkpt>
      <trkpt lat="47.51391" lon="6.77756">
        <ele>353</ele>
        <time>2015-05-17T10:14:37.000Z</time>
      </trkpt>
      <trkpt lat="47.51393" lon="6.77757">
        <ele>353</ele>
        <time>2015-05-17T10:14:38.000Z</time>
      </trkpt>
      <trkpt lat="47.51397" lon="6.77757">
        <ele>353</ele>
        <time>2015-05-17T10:14:40.000Z</time>
      </trkpt>
      <trkpt lat="47.51399" lon="6.77757">
        <ele>353</ele>
        <time>2015-05-17T10:14:41.000Z</time>
      </trkpt>
      <trkpt lat="47.51401" lon="6.77756">
        <ele>354</ele>
        <time>2015-05-17T10:14:42.000Z</time>
      </trkpt>
      <trkpt lat="47.51403" lon="6.77755">
        <ele>354</ele>
        <time>2015-05-17T10:14:43.000Z</time>
      </trkpt>
      <trkpt lat="47.51407" lon="6.77754">
        <ele>355</ele>
        <time>2015-05-17T10:14:45.000Z</time>
      </trkpt>
      <trkpt lat="47.51408" lon="6.77753">
        <ele>355</ele>
        <time>2015-05-17T10:14:46.000Z</time>
      </trkpt>
      <trkpt lat="47.51412" lon="6.77753">
        <ele>355</ele>
        <time>2015-05-17T10:14:49.000Z</time>
      </trkpt>
      <trkpt lat="47.51413" lon="6.77752">
        <ele>355</ele>
        <time>2015-05-17T10:14:50.000Z</time>
      </trkpt>
      <trkpt lat="47.51418" lon="6.7775">
        <ele>356</ele>
        <time>2015-05-17T10:14:54.000Z</time>
      </trkpt>
      <trkpt lat="47.51419" lon="6.7775">
        <ele>357</ele>
        <time>2015-05-17T10:14:55.000Z</time>
      </trkpt>
      <trkpt lat="47.51423" lon="6.77748">
        <ele>358</ele>
        <time>2015-05-17T10:15:00.000Z</time>
      </trkpt>
      <trkpt lat="47.51424" lon="6.77748">
        <ele>359</ele>
        <time>2015-05-17T10:15:01.000Z</time>
      </trkpt>
      <trkpt lat="47.51428" lon="6.77748">
        <ele>360</ele>
        <time>2015-05-17T10:15:05.000Z</time>
      </trkpt>
      <trkpt lat="47.5143" lon="6.77747">
        <ele>360</ele>
        <time>2015-05-17T10:15:06.000Z</time>
      </trkpt>
      <trkpt lat="47.51433" lon="6.77745">
        <ele>361</ele>
        <time>2015-05-17T10:15:08.000Z</time>
      </trkpt>
      <trkpt lat="47.51435" lon="6.77744">
        <ele>362</ele>
        <time>2015-05-17T10:15:09.000Z</time>
      </trkpt>
      <trkpt lat="47.51438" lon="6.77744">
        <ele>362</ele>
        <time>2015-05-17T10:15:11.000Z</time>
      </trkpt>
      <trkpt lat="47.5144" lon="6.77744">
        <ele>362</ele>
        <time>2015-05-17T10:15:12.000Z</time>
      </trkpt>
      <trkpt lat="47.51443" lon="6.77742">
        <ele>363</ele>
        <time>2015-05-17T10:15:14.000Z</time>
      </trkpt>
      <trkpt lat="47.51445" lon="6.7774">
        <ele>363</ele>
        <time>2015-05-17T10:15:15.000Z</time>
      </trkpt>
      <trkpt lat="47.51448" lon="6.77738">
        <ele>364</ele>
        <time>2015-05-17T10:15:16.999Z</time>
      </trkpt>
      <trkpt lat="47.5145" lon="6.77737">
        <ele>364</ele>
        <time>2015-05-17T10:15:18.000Z</time>
      </trkpt>
      <trkpt lat="47.51453" lon="6.77737">
        <ele>364</ele>
        <time>2015-05-17T10:15:20.000Z</time>
      </trkpt>
      <trkpt lat="47.51455" lon="6.77737">
        <ele>364</ele>
        <time>2015-05-17T10:15:21.000Z</time>
      </trkpt>
      <trkpt lat="47.51458" lon="6.77736">
        <ele>365</ele>
        <time>2015-05-17T10:15:23.000Z</time>
      </trkpt>
      <trkpt lat="47.5146" lon="6.77737">
        <ele>365</ele>
        <time>2015-05-17T10:15:24.000Z</time>
      </trkpt>
      <trkpt lat="47.51464" lon="6.77736">
        <ele>365</ele>
        <time>2015-05-17T10:15:27.000Z</time>
      </trkpt>
      <trkpt lat="47.51466" lon="6.77736">
        <ele>365</ele>
        <time>2015-05-17T10:15:28.000Z</time>
      </trkpt>
      <trkpt lat="47.5147" lon="6.77737">
        <ele>365</ele>
        <time>2015-05-17T10:15:30.000Z</time>
      </trkpt>
      <trkpt lat="47.51471" lon="6.77737">
        <ele>365</ele>
        <time>2015-05-17T10:15:31.000Z</time>
      </trkpt>
      <trkpt lat="47.51475" lon="6.77736">
        <ele>365</ele>
        <time>2015-05-17T10:15:33.000Z</time>
      </trkpt>
      <trkpt lat="47.51476" lon="6.77735">
        <ele>366</ele>
        <time>2015-05-17T10:15:34.000Z</time>
      </trkpt>
      <trkpt lat="47.51479" lon="6.77737">
        <ele>366</ele>
        <time>2015-05-17T10:15:37.000Z</time>
      </trkpt>
      <trkpt lat="47.51481" lon="6.77738">
        <ele>366</ele>
        <time>2015-05-17T10:15:38.000Z</time>
      </trkpt>
      <trkpt lat="47.51485" lon="6.77737">
        <ele>366</ele>
        <time>2015-05-17T10:15:40.000Z</time>
      </trkpt>
      <trkpt lat="47.51487" lon="6.77737">
        <ele>366</ele>
        <time>2015-05-17T10:15:41.000Z</time>
      </trkpt>
      <trkpt lat="47.5149" lon="6.77735">
        <ele>366</ele>
        <time>2015-05-17T10:15:42.000Z</time>
      </trkpt>
      <trkpt lat="47.51492" lon="6.77734">
        <ele>366</ele>
        <time>2015-05-17T10:15:43.000Z</time>
      </trkpt>
      <trkpt lat="47.51494" lon="6.77733">
        <ele>366</ele>
        <time>2015-05-17T10:15:44.000Z</time>
      </trkpt>
      <trkpt lat="47.51496" lon="6.77732">
        <ele>366</ele>
        <time>2015-05-17T10:15:45.000Z</time>
      </trkpt>
      <trkpt lat="47.51499" lon="6.77729">
        <ele>366</ele>
        <time>2015-05-17T10:15:50.000Z</time>
      </trkpt>
      <trkpt lat="47.515" lon="6.77729">
        <ele>370</ele>
        <time>2015-05-17T10:15:51.000Z</time>
      </trkpt>
      <trkpt lat="47.51505" lon="6.77727">
        <ele>370</ele>
        <time>2015-05-17T10:15:53.000Z</time>
      </trkpt>
      <trkpt lat="47.51507" lon="6.77725">
        <ele>371</ele>
        <time>2015-05-17T10:15:54.000Z</time>
      </trkpt>
      <trkpt lat="47.51509" lon="6.77725">
        <ele>371</ele>
        <time>2015-05-17T10:15:55.000Z</time>
      </trkpt>
      <trkpt lat="47.51512" lon="6.77724">
        <ele>371</ele>
        <time>2015-05-17T10:15:56.000Z</time>
      </trkpt>
      <trkpt lat="47.51515" lon="6.77726">
        <ele>371</ele>
        <time>2015-05-17T10:15:58.000Z</time>
      </trkpt>
      <trkpt lat="47.51517" lon="6.77727">
        <ele>371</ele>
        <time>2015-05-17T10:15:59.000Z</time>
      </trkpt>
      <trkpt lat="47.5152" lon="6.77727">
        <ele>371</ele>
        <time>2015-05-17T10:16:02.000Z</time>
      </trkpt>
      <trkpt lat="47.51521" lon="6.77727">
        <ele>371</ele>
        <time>2015-05-17T10:16:03.000Z</time>
      </trkpt>
      <trkpt lat="47.51526" lon="6.77726">
        <ele>372</ele>
        <time>2015-05-17T10:16:07.000Z</time>
      </trkpt>
      <trkpt lat="47.51527" lon="6.77726">
        <ele>372</ele>
        <time>2015-05-17T10:16:08.000Z</time>
      </trkpt>
      <trkpt lat="47.5153" lon="6.77727">
        <ele>372</ele>
        <time>2015-05-17T10:16:10.000Z</time>
      </trkpt>
      <trkpt lat="47.51532" lon="6.77727">
        <ele>372</ele>
        <time>2015-05-17T10:16:11.000Z</time>
      </trkpt>
      <trkpt lat="47.51536" lon="6.77725">
        <ele>373</ele>
        <time>2015-05-17T10:16:14.000Z</time>
      </trkpt>
      <trkpt lat="47.51537" lon="6.77726">
        <ele>373</ele>
        <time>2015-05-17T10:16:15.000Z</time>
      </trkpt>
      <trkpt lat="47.51541" lon="6.77726">
        <ele>373</ele>
        <time>2015-05-17T10:16:19.000Z</time>
      </trkpt>
      <trkpt lat="47.51542" lon="6.77727">
        <ele>373</ele>
        <time>2015-05-17T10:16:20.000Z</time>
      </trkpt>
      <trkpt lat="47.51546" lon="6.77727">
        <ele>373</ele>
        <time>2015-05-17T10:16:23.000Z</time>
      </trkpt>
      <trkpt lat="47.51548" lon="6.77728">
        <ele>373</ele>
        <time>2015-05-17T10:16:24.000Z</time>
      </trkpt>
      <trkpt lat="47.51551" lon="6.7773">
        <ele>374</ele>
        <time>2015-05-17T10:16:26.000Z</time>
      </trkpt>
      <trkpt lat="47.51553" lon="6.77732">
        <ele>374</ele>
        <time>2015-05-17T10:16:27.000Z</time>
      </trkpt>
      <trkpt lat="47.51556" lon="6.77734">
        <ele>374</ele>
        <time>2015-05-17T10:16:29.000Z</time>
      </trkpt>
      <trkpt lat="47.51557" lon="6.77734">
        <ele>374</ele>
        <time>2015-05-17T10:16:30.000Z</time>
      </trkpt>
      <trkpt lat="47.51561" lon="6.77735">
        <ele>374</ele>
        <time>2015-05-17T10:16:32.000Z</time>
      </trkpt>
      <trkpt lat="47.51562" lon="6.77736">
        <ele>374</ele>
        <time>2015-05-17T10:16:33.000Z</time>
      </trkpt>
      <trkpt lat="47.51566" lon="6.77739">
        <ele>375</ele>
        <time>2015-05-17T10:16:36.000Z</time>
      </trkpt>
      <trkpt lat="47.51567" lon="6.77739">
        <ele>375</ele>
        <time>2015-05-17T10:16:37.000Z</time>
      </trkpt>
      <trkpt lat="47.51571" lon="6.77737">
        <ele>375</ele>
        <time>2015-05-17T10:16:40.000Z</time>
      </trkpt>
      <trkpt lat="47.51573" lon="6.77738">
        <ele>375</ele>
        <time>2015-05-17T10:16:41.000Z</time>
      </trkpt>
      <trkpt lat="47.51577" lon="6.7774">
        <ele>375</ele>
        <time>2015-05-17T10:16:44.000Z</time>
      </trkpt>
      <trkpt lat="47.51578" lon="6.77741">
        <ele>375</ele>
        <time>2015-05-17T10:16:45.000Z</time>
      </trkpt>
      <trkpt lat="47.51576" lon="6.77746">
        <ele>375</ele>
        <time>2015-05-17T10:16:47.000Z</time>
      </trkpt>
      <trkpt lat="47.51575" lon="6.7775">
        <ele>375</ele>
        <time>2015-05-17T10:16:48.000Z</time>
      </trkpt>
      <trkpt lat="47.51574" lon="6.77753">
        <ele>376</ele>
        <time>2015-05-17T10:16:49.000Z</time>
      </trkpt>
      <trkpt lat="47.51573" lon="6.77757">
        <ele>376</ele>
        <time>2015-05-17T10:16:50.000Z</time>
      </trkpt>
      <trkpt lat="47.51573" lon="6.77762">
        <ele>376</ele>
        <time>2015-05-17T10:16:52.000Z</time>
      </trkpt>
      <trkpt lat="47.51574" lon="6.77763">
        <ele>376</ele>
        <time>2015-05-17T10:16:53.000Z</time>
      </trkpt>
      <trkpt lat="47.51577" lon="6.77764">
        <ele>376</ele>
        <time>2015-05-17T10:16:55.000Z</time>
      </trkpt>
      <trkpt lat="47.51579" lon="6.77764">
        <ele>376</ele>
        <time>2015-05-17T10:16:56.000Z</time>
      </trkpt>
      <trkpt lat="47.51582" lon="6.77765">
        <ele>376</ele>
        <time>2015-05-17T10:16:58.000Z</time>
      </trkpt>
      <trkpt lat="47.51584" lon="6.77765">
        <ele>379</ele>
        <time>2015-05-17T10:16:59.000Z</time>
      </trkpt>
      <trkpt lat="47.51588" lon="6.77765">
        <ele>379</ele>
        <time>2015-05-17T10:17:01.000Z</time>
      </trkpt>
      <trkpt lat="47.5159" lon="6.77765">
        <ele>379</ele>
        <time>2015-05-17T10:17:02.000Z</time>
      </trkpt>
      <trkpt lat="47.51594" lon="6.77765">
        <ele>379</ele>
        <time>2015-05-17T10:17:03.000Z</time>
      </trkpt>
      <trkpt lat="47.51597" lon="6.77764">
        <ele>380</ele>
        <time>2015-05-17T10:17:04.000Z</time>
      </trkpt>
      <trkpt lat="47.51601" lon="6.77764">
        <ele>380</ele>
        <time>2015-05-17T10:17:05.000Z</time>
      </trkpt>
      <trkpt lat="47.51604" lon="6.77763">
        <ele>380</ele>
        <time>2015-05-17T10:17:06.000Z</time>
      </trkpt>
      <trkpt lat="47.51607" lon="6.77763">
        <ele>380</ele>
        <time>2015-05-17T10:17:07.000Z</time>
      </trkpt>
      <trkpt lat="47.5161" lon="6.77763">
        <ele>381</ele>
        <time>2015-05-17T10:17:08.000Z</time>
      </trkpt>
      <trkpt lat="47.51612" lon="6.77763">
        <ele>381</ele>
        <time>2015-05-17T10:17:09.000Z</time>
      </trkpt>
      <trkpt lat="47.51614" lon="6.77763">
        <ele>381</ele>
        <time>2015-05-17T10:17:10.000Z</time>
      </trkpt>
      <trkpt lat="47.51618" lon="6.77764">
        <ele>381</ele>
        <time>2015-05-17T10:17:12.000Z</time>
      </trkpt>
      <trkpt lat="47.5162" lon="6.77765">
        <ele>381</ele>
        <time>2015-05-17T10:17:13.000Z</time>
      </trkpt>
      <trkpt lat="47.51623" lon="6.77765">
        <ele>382</ele>
        <time>2015-05-17T10:17:15.000Z</time>
      </trkpt>
      <trkpt lat="47.51625" lon="6.77765">
        <ele>382</ele>
        <time>2015-05-17T10:17:16.000Z</time>
      </trkpt>
      <trkpt lat="47.51629" lon="6.77767">
        <ele>382</ele>
        <time>2015-05-17T10:17:18.000Z</time>
      </trkpt>
      <trkpt lat="47.5163" lon="6.77767">
        <ele>382</ele>
        <time>2015-05-17T10:17:19.000Z</time>
      </trkpt>
      <trkpt lat="47.51633" lon="6.77768">
        <ele>382</ele>
        <time>2015-05-17T10:17:21.000Z</time>
      </trkpt>
      <trkpt lat="47.51635" lon="6.77769">
        <ele>382</ele>
        <time>2015-05-17T10:17:22.000Z</time>
      </trkpt>
      <trkpt lat="47.51639" lon="6.77771">
        <ele>382</ele>
        <time>2015-05-17T10:17:25.000Z</time>
      </trkpt>
      <trkpt lat="47.5164" lon="6.77771">
        <ele>382</ele>
        <time>2015-05-17T10:17:26.000Z</time>
      </trkpt>
      <trkpt lat="47.51644" lon="6.77773">
        <ele>382</ele>
        <time>2015-05-17T10:17:28.000Z</time>
      </trkpt>
      <trkpt lat="47.51646" lon="6.77773">
        <ele>383</ele>
        <time>2015-05-17T10:17:29.000Z</time>
      </trkpt>
      <trkpt lat="47.51649" lon="6.77774">
        <ele>383</ele>
        <time>2015-05-17T10:17:30.000Z</time>
      </trkpt>
      <trkpt lat="47.51651" lon="6.77775">
        <ele>383</ele>
        <time>2015-05-17T10:17:31.000Z</time>
      </trkpt>
      <trkpt lat="47.51654" lon="6.77775">
        <ele>383</ele>
        <time>2015-05-17T10:17:32.000Z</time>
      </trkpt>
      <trkpt lat="47.51656" lon="6.77776">
        <ele>383</ele>
        <time>2015-05-17T10:17:33.000Z</time>
      </trkpt>
      <trkpt lat="47.5166" lon="6.77777">
        <ele>383</ele>
        <time>2015-05-17T10:17:35.000Z</time>
      </trkpt>
      <trkpt lat="47.51663" lon="6.77777">
        <ele>383</ele>
        <time>2015-05-17T10:17:36.000Z</time>
      </trkpt>
      <trkpt lat="47.51665" lon="6.77778">
        <ele>383</ele>
        <time>2015-05-17T10:17:37.000Z</time>
      </trkpt>
      <trkpt lat="47.51668" lon="6.77778">
        <ele>385</ele>
        <time>2015-05-17T10:17:38.000Z</time>
      </trkpt>
      <trkpt lat="47.5167" lon="6.77778">
        <ele>385</ele>
        <time>2015-05-17T10:17:39.000Z</time>
      </trkpt>
      <trkpt lat="47.51672" lon="6.77778">
        <ele>385</ele>
        <time>2015-05-17T10:17:40.000Z</time>
      </trkpt>
      <trkpt lat="47.51676" lon="6.77778">
        <ele>385</ele>
        <time>2015-05-17T10:17:42.000Z</time>
      </trkpt>
      <trkpt lat="47.51677" lon="6.77777">
        <ele>385</ele>
        <time>2015-05-17T10:17:43.000Z</time>
      </trkpt>
      <trkpt lat="47.5168" lon="6.77777">
        <ele>385</ele>
        <time>2015-05-17T10:17:45.000Z</time>
      </trkpt>
      <trkpt lat="47.51683" lon="6.77777">
        <ele>385</ele>
        <time>2015-05-17T10:17:46.000Z</time>
      </trkpt>
      <trkpt lat="47.51685" lon="6.77777">
        <ele>385</ele>
        <time>2015-05-17T10:17:47.000Z</time>
      </trkpt>
      <trkpt lat="47.51687" lon="6.77776">
        <ele>385</ele>
        <time>2015-05-17T10:17:48.000Z</time>
      </trkpt>
      <trkpt lat="47.5169" lon="6.77775">
        <ele>385</ele>
        <time>2015-05-17T10:17:49.000Z</time>
      </trkpt>
      <trkpt lat="47.51692" lon="6.77773">
        <ele>385</ele>
        <time>2015-05-17T10:17:50.000Z</time>
      </trkpt>
      <trkpt lat="47.51694" lon="6.77771">
        <ele>385</ele>
        <time>2015-05-17T10:17:51.000Z</time>
      </trkpt>
      <trkpt lat="47.51696" lon="6.77768">
        <ele>386</ele>
        <time>2015-05-17T10:17:52.000Z</time>
      </trkpt>
      <trkpt lat="47.51698" lon="6.77763">
        <ele>386</ele>
        <time>2015-05-17T10:17:54.000Z</time>
      </trkpt>
      <trkpt lat="47.51699" lon="6.77761">
        <ele>386</ele>
        <time>2015-05-17T10:17:55.000Z</time>
      </trkpt>
      <trkpt lat="47.51702" lon="6.77756">
        <ele>386</ele>
        <time>2015-05-17T10:17:57.000Z</time>
      </trkpt>
      <trkpt lat="47.51703" lon="6.77753">
        <ele>386</ele>
        <time>2015-05-17T10:17:58.000Z</time>
      </trkpt>
      <trkpt lat="47.51705" lon="6.77748">
        <ele>387</ele>
        <time>2015-05-17T10:18:00.000Z</time>
      </trkpt>
      <trkpt lat="47.51705" lon="6.77745">
        <ele>387</ele>
        <time>2015-05-17T10:18:01.000Z</time>
      </trkpt>
      <trkpt lat="47.51706" lon="6.7774">
        <ele>387</ele>
        <time>2015-05-17T10:18:02.000Z</time>
      </trkpt>
      <trkpt lat="47.51706" lon="6.77735">
        <ele>387</ele>
        <time>2015-05-17T10:18:03.000Z</time>
      </trkpt>
      <trkpt lat="47.51706" lon="6.7773">
        <ele>387</ele>
        <time>2015-05-17T10:18:04.000Z</time>
      </trkpt>
      <trkpt lat="47.51705" lon="6.77725">
        <ele>387</ele>
        <time>2015-05-17T10:18:05.000Z</time>
      </trkpt>
      <trkpt lat="47.51705" lon="6.77721">
        <ele>387</ele>
        <time>2015-05-17T10:18:06.000Z</time>
      </trkpt>
      <trkpt lat="47.51705" lon="6.77717">
        <ele>387</ele>
        <time>2015-05-17T10:18:07.000Z</time>
      </trkpt>
      <trkpt lat="47.51705" lon="6.77713">
        <ele>387</ele>
        <time>2015-05-17T10:18:08.000Z</time>
      </trkpt>
      <trkpt lat="47.51705" lon="6.77708">
        <ele>387</ele>
        <time>2015-05-17T10:18:09.000Z</time>
      </trkpt>
      <trkpt lat="47.51705" lon="6.77704">
        <ele>387</ele>
        <time>2015-05-17T10:18:10.000Z</time>
      </trkpt>
      <trkpt lat="47.51706" lon="6.77699">
        <ele>388</ele>
        <time>2015-05-17T10:18:11.000Z</time>
      </trkpt>
      <trkpt lat="47.51708" lon="6.77695">
        <ele>388</ele>
        <time>2015-05-17T10:18:13.000Z</time>
      </trkpt>
      <trkpt lat="47.51709" lon="6.77692">
        <ele>388</ele>
        <time>2015-05-17T10:18:14.000Z</time>
      </trkpt>
      <trkpt lat="47.51711" lon="6.77687">
        <ele>388</ele>
        <time>2015-05-17T10:18:16.000Z</time>
      </trkpt>
      <trkpt lat="47.51711" lon="6.77683">
        <ele>388</ele>
        <time>2015-05-17T10:18:17.000Z</time>
      </trkpt>
      <trkpt lat="47.51711" lon="6.7768">
        <ele>388</ele>
        <time>2015-05-17T10:18:18.000Z</time>
      </trkpt>
      <trkpt lat="47.51711" lon="6.77677">
        <ele>388</ele>
        <time>2015-05-17T10:18:19.000Z</time>
      </trkpt>
      <trkpt lat="47.51712" lon="6.7767">
        <ele>388</ele>
        <time>2015-05-17T10:18:21.000Z</time>
      </trkpt>
      <trkpt lat="47.51713" lon="6.77668">
        <ele>388</ele>
        <time>2015-05-17T10:18:22.000Z</time>
      </trkpt>
      <trkpt lat="47.51714" lon="6.77663">
        <ele>390</ele>
        <time>2015-05-17T10:18:24.000Z</time>
      </trkpt>
      <trkpt lat="47.51715" lon="6.77659">
        <ele>390</ele>
        <time>2015-05-17T10:18:25.000Z</time>
      </trkpt>
      <trkpt lat="47.51715" lon="6.77655">
        <ele>390</ele>
        <time>2015-05-17T10:18:26.000Z</time>
      </trkpt>
      <trkpt lat="47.51715" lon="6.77651">
        <ele>390</ele>
        <time>2015-05-17T10:18:27.000Z</time>
      </trkpt>
      <trkpt lat="47.51715" lon="6.77647">
        <ele>390</ele>
        <time>2015-05-17T10:18:28.000Z</time>
      </trkpt>
      <trkpt lat="47.51715" lon="6.77643">
        <ele>390</ele>
        <time>2015-05-17T10:18:29.000Z</time>
      </trkpt>
      <trkpt lat="47.51715" lon="6.77639">
        <ele>390</ele>
        <time>2015-05-17T10:18:30.000Z</time>
      </trkpt>
      <trkpt lat="47.51714" lon="6.77635">
        <ele>390</ele>
        <time>2015-05-17T10:18:31.000Z</time>
      </trkpt>
      <trkpt lat="47.51714" lon="6.77631">
        <ele>390</ele>
        <time>2015-05-17T10:18:32.000Z</time>
      </trkpt>
      <trkpt lat="47.51714" lon="6.77628">
        <ele>390</ele>
        <time>2015-05-17T10:18:33.000Z</time>
      </trkpt>
      <trkpt lat="47.51714" lon="6.77622">
        <ele>390</ele>
        <time>2015-05-17T10:18:35.000Z</time>
      </trkpt>
      <trkpt lat="47.51715" lon="6.77619">
        <ele>390</ele>
        <time>2015-05-17T10:18:36.000Z</time>
      </trkpt>
      <trkpt lat="47.51714" lon="6.77613">
        <ele>390</ele>
        <time>2015-05-17T10:18:38.000Z</time>
      </trkpt>
      <trkpt lat="47.51714" lon="6.7761">
        <ele>390</ele>
        <time>2015-05-17T10:18:39.000Z</time>
      </trkpt>
      <trkpt lat="47.51714" lon="6.77606">
        <ele>390</ele>
        <time>2015-05-17T10:18:40.000Z</time>
      </trkpt>
      <trkpt lat="47.51714" lon="6.77602">
        <ele>390</ele>
        <time>2015-05-17T10:18:41.000Z</time>
      </trkpt>
      <trkpt lat="47.51714" lon="6.77598">
        <ele>390</ele>
        <time>2015-05-17T10:18:42.000Z</time>
      </trkpt>
      <trkpt lat="47.51714" lon="6.77594">
        <ele>390</ele>
        <time>2015-05-17T10:18:43.000Z</time>
      </trkpt>
      <trkpt lat="47.51714" lon="6.7759">
        <ele>390</ele>
        <time>2015-05-17T10:18:44.000Z</time>
      </trkpt>
      <trkpt lat="47.51715" lon="6.77585">
        <ele>390</ele>
        <time>2015-05-17T10:18:45.000Z</time>
      </trkpt>
      <trkpt lat="47.51715" lon="6.7758">
        <ele>390</ele>
        <time>2015-05-17T10:18:46.000Z</time>
      </trkpt>
      <trkpt lat="47.51715" lon="6.77574">
        <ele>390</ele>
        <time>2015-05-17T10:18:47.000Z</time>
      </trkpt>
      <trkpt lat="47.51716" lon="6.7757">
        <ele>390</ele>
        <time>2015-05-17T10:18:48.000Z</time>
      </trkpt>
      <trkpt lat="47.51717" lon="6.77564">
        <ele>390</ele>
        <time>2015-05-17T10:18:49.000Z</time>
      </trkpt>
      <trkpt lat="47.51718" lon="6.7756">
        <ele>390</ele>
        <time>2015-05-17T10:18:50.000Z</time>
      </trkpt>
      <trkpt lat="47.51719" lon="6.77555">
        <ele>390</ele>
        <time>2015-05-17T10:18:51.000Z</time>
      </trkpt>
      <trkpt lat="47.5172" lon="6.7755">
        <ele>390</ele>
        <time>2015-05-17T10:18:52.000Z</time>
      </trkpt>
      <trkpt lat="47.51721" lon="6.77545">
        <ele>390</ele>
        <time>2015-05-17T10:18:53.000Z</time>
      </trkpt>
      <trkpt lat="47.51723" lon="6.7754">
        <ele>390</ele>
        <time>2015-05-17T10:18:54.000Z</time>
      </trkpt>
      <trkpt lat="47.51724" lon="6.77536">
        <ele>390</ele>
        <time>2015-05-17T10:18:55.000Z</time>
      </trkpt>
      <trkpt lat="47.51725" lon="6.77532">
        <ele>390</ele>
        <time>2015-05-17T10:18:56.000Z</time>
      </trkpt>
      <trkpt lat="47.51726" lon="6.77528">
        <ele>390</ele>
        <time>2015-05-17T10:18:57.000Z</time>
      </trkpt>
      <trkpt lat="47.51726" lon="6.77525">
        <ele>390</ele>
        <time>2015-05-17T10:18:58.000Z</time>
      </trkpt>
      <trkpt lat="47.51727" lon="6.77522">
        <ele>390</ele>
        <time>2015-05-17T10:18:59.000Z</time>
      </trkpt>
      <trkpt lat="47.51729" lon="6.77517">
        <ele>390</ele>
        <time>2015-05-17T10:19:01.000Z</time>
      </trkpt>
      <trkpt lat="47.5173" lon="6.77514">
        <ele>390</ele>
        <time>2015-05-17T10:19:02.000Z</time>
      </trkpt>
      <trkpt lat="47.51732" lon="6.7751">
        <ele>390</ele>
        <time>2015-05-17T10:19:03.000Z</time>
      </trkpt>
      <trkpt lat="47.51733" lon="6.77505">
        <ele>390</ele>
        <time>2015-05-17T10:19:04.000Z</time>
      </trkpt>
      <trkpt lat="47.51734" lon="6.775">
        <ele>390</ele>
        <time>2015-05-17T10:19:05.000Z</time>
      </trkpt>
      <trkpt lat="47.51735" lon="6.77495">
        <ele>389</ele>
        <time>2015-05-17T10:19:06.000Z</time>
      </trkpt>
      <trkpt lat="47.51738" lon="6.7749">
        <ele>389</ele>
        <time>2015-05-17T10:19:07.000Z</time>
      </trkpt>
      <trkpt lat="47.51741" lon="6.77487">
        <ele>389</ele>
        <time>2015-05-17T10:19:08.000Z</time>
      </trkpt>
      <trkpt lat="47.51743" lon="6.77487">
        <ele>389</ele>
        <time>2015-05-17T10:19:09.000Z</time>
      </trkpt>
      <trkpt lat="47.51746" lon="6.77488">
        <ele>389</ele>
        <time>2015-05-17T10:19:10.000Z</time>
      </trkpt>
      <trkpt lat="47.51749" lon="6.77489">
        <ele>389</ele>
        <time>2015-05-17T10:19:11.000Z</time>
      </trkpt>
      <trkpt lat="47.51752" lon="6.7749">
        <ele>389</ele>
        <time>2015-05-17T10:19:12.000Z</time>
      </trkpt>
      <trkpt lat="47.51757" lon="6.77491">
        <ele>389</ele>
        <time>2015-05-17T10:19:13.000Z</time>
      </trkpt>
      <trkpt lat="47.5176" lon="6.77491">
        <ele>389</ele>
        <time>2015-05-17T10:19:14.000Z</time>
      </trkpt>
      <trkpt lat="47.51764" lon="6.77492">
        <ele>389</ele>
        <time>2015-05-17T10:19:15.000Z</time>
      </trkpt>
      <trkpt lat="47.51766" lon="6.77493">
        <ele>389</ele>
        <time>2015-05-17T10:19:16.000Z</time>
      </trkpt>
      <trkpt lat="47.51772" lon="6.77491">
        <ele>389</ele>
        <time>2015-05-17T10:19:17.000Z</time>
      </trkpt>
      <trkpt lat="47.51778" lon="6.7749">
        <ele>388</ele>
        <time>2015-05-17T10:19:18.000Z</time>
      </trkpt>
      <trkpt lat="47.51781" lon="6.77492">
        <ele>388</ele>
        <time>2015-05-17T10:19:19.000Z</time>
      </trkpt>
      <trkpt lat="47.51785" lon="6.77492">
        <ele>388</ele>
        <time>2015-05-17T10:19:20.000Z</time>
      </trkpt>
      <trkpt lat="47.51788" lon="6.77493">
        <ele>388</ele>
        <time>2015-05-17T10:19:21.000Z</time>
      </trkpt>
      <trkpt lat="47.51792" lon="6.77495">
        <ele>388</ele>
        <time>2015-05-17T10:19:22.000Z</time>
      </trkpt>
      <trkpt lat="47.51796" lon="6.77497">
        <ele>388</ele>
        <time>2015-05-17T10:19:23.000Z</time>
      </trkpt>
      <trkpt lat="47.518" lon="6.77499">
        <ele>388</ele>
        <time>2015-05-17T10:19:24.000Z</time>
      </trkpt>
      <trkpt lat="47.51803" lon="6.775">
        <ele>389</ele>
        <time>2015-05-17T10:19:25.000Z</time>
      </trkpt>
      <trkpt lat="47.51806" lon="6.77502">
        <ele>389</ele>
        <time>2015-05-17T10:19:26.000Z</time>
      </trkpt>
      <trkpt lat="47.51809" lon="6.77499">
        <ele>388</ele>
        <time>2015-05-17T10:19:27.000Z</time>
      </trkpt>
      <trkpt lat="47.51812" lon="6.77498">
        <ele>388</ele>
        <time>2015-05-17T10:19:28.000Z</time>
      </trkpt>
      <trkpt lat="47.51812" lon="6.77493">
        <ele>388</ele>
        <time>2015-05-17T10:19:30.000Z</time>
      </trkpt>
      <trkpt lat="47.51811" lon="6.7749">
        <ele>388</ele>
        <time>2015-05-17T10:19:31.000Z</time>
      </trkpt>
      <trkpt lat="47.51808" lon="6.77486">
        <ele>388</ele>
        <time>2015-05-17T10:19:34.000Z</time>
      </trkpt>
      <trkpt lat="47.51807" lon="6.77487">
        <ele>388</ele>
        <time>2015-05-17T10:19:35.000Z</time>
      </trkpt>
      <trkpt lat="47.51803" lon="6.77487">
        <ele>388</ele>
        <time>2015-05-17T10:19:40.000Z</time>
      </trkpt>
      <trkpt lat="47.51802" lon="6.77486">
        <ele>388</ele>
        <time>2015-05-17T10:19:41.000Z</time>
      </trkpt>
      <trkpt lat="47.51799" lon="6.77483">
        <ele>388</ele>
        <time>2015-05-17T10:19:44.000Z</time>
      </trkpt>
      <trkpt lat="47.51799" lon="6.7748">
        <ele>388</ele>
        <time>2015-05-17T10:19:45.000Z</time>
      </trkpt>
      <trkpt lat="47.51799" lon="6.77475">
        <ele>388</ele>
        <time>2015-05-17T10:19:47.000Z</time>
      </trkpt>
      <trkpt lat="47.518" lon="6.77473">
        <ele>388</ele>
        <time>2015-05-17T10:19:48.000Z</time>
      </trkpt>
      <trkpt lat="47.51802" lon="6.77468">
        <ele>388</ele>
        <time>2015-05-17T10:19:53.000Z</time>
      </trkpt>
      <trkpt lat="47.51803" lon="6.77467">
        <ele>388</ele>
        <time>2015-05-17T10:19:54.000Z</time>
      </trkpt>
      <trkpt lat="47.51799" lon="6.77466">
        <ele>388</ele>
        <time>2015-05-17T10:20:11.000Z</time>
      </trkpt>
      <trkpt lat="47.51798" lon="6.77466">
        <ele>388</ele>
        <time>2015-05-17T10:20:12.000Z</time>
      </trkpt>
      <trkpt lat="47.51795" lon="6.77471">
        <ele>388</ele>
        <time>2015-05-17T10:20:18.000Z</time>
      </trkpt>
      <trkpt lat="47.51795" lon="6.77472">
        <ele>388</ele>
        <time>2015-05-17T10:20:19.000Z</time>
      </trkpt>
      <trkpt lat="47.51794" lon="6.77477">
        <ele>388</ele>
        <time>2015-05-17T10:20:22.000Z</time>
      </trkpt>
      <trkpt lat="47.51794" lon="6.77478">
        <ele>388</ele>
        <time>2015-05-17T10:20:23.000Z</time>
      </trkpt>
      <trkpt lat="47.51798" lon="6.7748">
        <ele>388</ele>
        <time>2015-05-17T10:20:27.000Z</time>
      </trkpt>
      <trkpt lat="47.51798" lon="6.77479">
        <ele>388</ele>
        <time>2015-05-17T10:20:28.000Z</time>
      </trkpt>
      <trkpt lat="47.51802" lon="6.77476">
        <ele>388</ele>
        <time>2015-05-17T10:20:47.000Z</time>
      </trkpt>
      <trkpt lat="47.51802" lon="6.77475">
        <ele>388</ele>
        <time>2015-05-17T10:20:48.000Z</time>
      </trkpt>
      <trkpt lat="47.51803" lon="6.77473">
        <ele>388</ele>
        <time>2015-05-17T10:22:00.000Z</time>
      </trkpt>
    </trkseg>
  </trk>
</gpx>